﻿<?xml version="1.0" encoding="utf-8"?><gpx creator="Garmin Desktop App" version="1.1" xsi:schemaLocation="http://www.topografix.com/GPX/1/1 http://www.topografix.com/GPX/1/1/gpx.xsd http://www.garmin.com/xmlschemas/WaypointExtension/v1 http://www8.garmin.com/xmlschemas/WaypointExtensionv1.xsd http://www.garmin.com/xmlschemas/TrackPointExtension/v1 http://www.garmin.com/xmlschemas/TrackPointExtensionv1.xsd http://www.garmin.com/xmlschemas/GpxExtensions/v3 http://www8.garmin.com/xmlschemas/GpxExtensionsv3.xsd http://www.garmin.com/xmlschemas/ActivityExtension/v1 http://www8.garmin.com/xmlschemas/ActivityExtensionv1.xsd http://www.garmin.com/xmlschemas/AdventuresExtensions/v1 http://www8.garmin.com/xmlschemas/AdventuresExtensionv1.xsd http://www.garmin.com/xmlschemas/PressureExtension/v1 http://www.garmin.com/xmlschemas/PressureExtensionv1.xsd http://www.garmin.com/xmlschemas/TripExtensions/v1 http://www.garmin.com/xmlschemas/TripExtensionsv1.xsd http://www.garmin.com/xmlschemas/TripMetaDataExtensions/v1 http://www.garmin.com/xmlschemas/TripMetaDataExtensionsv1.xsd http://www.garmin.com/xmlschemas/ViaPointTransportationModeExtensions/v1 http://www.garmin.com/xmlschemas/ViaPointTransportationModeExtensionsv1.xsd http://www.garmin.com/xmlschemas/CreationTimeExtension/v1 http://www.garmin.com/xmlschemas/CreationTimeExtensionsv1.xsd http://www.garmin.com/xmlschemas/AccelerationExtension/v1 http://www.garmin.com/xmlschemas/AccelerationExtensionv1.xsd http://www.garmin.com/xmlschemas/PowerExtension/v1 http://www.garmin.com/xmlschemas/PowerExtensionv1.xsd http://www.garmin.com/xmlschemas/VideoExtension/v1 http://www.garmin.com/xmlschemas/VideoExtensionv1.xsd" xmlns="http://www.topografix.com/GPX/1/1" xmlns:xsi="http://www.w3.org/2001/XMLSchema-instance" xmlns:wptx1="http://www.garmin.com/xmlschemas/WaypointExtension/v1" xmlns:gpxtrx="http://www.garmin.com/xmlschemas/GpxExtensions/v3" xmlns:gpxtpx="http://www.garmin.com/xmlschemas/TrackPointExtension/v1" xmlns:gpxx="http://www.garmin.com/xmlschemas/GpxExtensions/v3" xmlns:trp="http://www.garmin.com/xmlschemas/TripExtensions/v1" xmlns:adv="http://www.garmin.com/xmlschemas/AdventuresExtensions/v1" xmlns:prs="http://www.garmin.com/xmlschemas/PressureExtension/v1" xmlns:tmd="http://www.garmin.com/xmlschemas/TripMetaDataExtensions/v1" xmlns:vptm="http://www.garmin.com/xmlschemas/ViaPointTransportationModeExtensions/v1" xmlns:ctx="http://www.garmin.com/xmlschemas/CreationTimeExtension/v1" xmlns:gpxacc="http://www.garmin.com/xmlschemas/AccelerationExtension/v1" xmlns:gpxpx="http://www.garmin.com/xmlschemas/PowerExtension/v1" xmlns:vidx1="http://www.garmin.com/xmlschemas/VideoExtension/v1">

  <metadata>
    <link href="http://www.garmin.com">
      <text>Garmin International</text>
    </link>
    <time>2025-05-09T18:30:43Z</time>
    <bounds maxlat="36.934918016195297" maxlon="-4.472786961123347" minlat="36.158692007884383" minlon="-5.444345008581877" />
  </metadata>

  <trk>
    <name>250509 _G_Track</name>
    <extensions>
      <gpxx:TrackExtension>
        <gpxx:DisplayColor>DarkGray</gpxx:DisplayColor>
      </gpxx:TrackExtension>
    </extensions>
    <trkseg>
      <trkpt lat="36.16214401088655" lon="-5.352095039561391">
        <ele>1.58</ele>
        <time>2025-05-09T07:56:28Z</time>
      </trkpt>
      <trkpt lat="36.162145016714931" lon="-5.35209403373301">
        <ele>1.1</ele>
        <time>2025-05-09T07:57:05Z</time>
      </trkpt>
      <trkpt lat="36.162160020321608" lon="-5.352114988490939">
        <ele>1.1</ele>
        <time>2025-05-09T07:57:29Z</time>
      </trkpt>
      <trkpt lat="36.162234032526612" lon="-5.352230994030833">
        <ele>2.54</ele>
        <time>2025-05-09T07:57:33Z</time>
      </trkpt>
      <trkpt lat="36.162244006991386" lon="-5.352282039821148">
        <ele>2.54</ele>
        <time>2025-05-09T07:57:34Z</time>
      </trkpt>
      <trkpt lat="36.162251969799399" lon="-5.352327972650528">
        <ele>2.06</ele>
        <time>2025-05-09T07:57:35Z</time>
      </trkpt>
      <trkpt lat="36.162258004769683" lon="-5.352360997349024">
        <ele>2.06</ele>
        <time>2025-05-09T07:57:36Z</time>
      </trkpt>
      <trkpt lat="36.162264039739966" lon="-5.35239402204752">
        <ele>1.1</ele>
        <time>2025-05-09T07:57:37Z</time>
      </trkpt>
      <trkpt lat="36.162269990891218" lon="-5.352426040917635">
        <ele>0.62</ele>
        <time>2025-05-09T07:57:38Z</time>
      </trkpt>
      <trkpt lat="36.162275020033121" lon="-5.352451018989086">
        <ele>-0.34</ele>
        <time>2025-05-09T07:57:39Z</time>
      </trkpt>
      <trkpt lat="36.162278037518263" lon="-5.352470967918634">
        <ele>0.14</ele>
        <time>2025-05-09T07:57:40Z</time>
      </trkpt>
      <trkpt lat="36.162281977012753" lon="-5.352488989010453">
        <ele>0.14</ele>
        <time>2025-05-09T07:57:41Z</time>
      </trkpt>
      <trkpt lat="36.162281977012753" lon="-5.352488989010453">
        <ele>-0.82</ele>
        <time>2025-05-09T07:57:42Z</time>
      </trkpt>
      <trkpt lat="36.16229304112494" lon="-5.352552020922303">
        <ele>-0.34</ele>
        <time>2025-05-09T07:57:51Z</time>
      </trkpt>
      <trkpt lat="36.162309972569346" lon="-5.352547997608781">
        <ele>0.14</ele>
        <time>2025-05-09T07:57:52Z</time>
      </trkpt>
      <trkpt lat="36.162331011146307" lon="-5.352541962638497">
        <ele>1.1</ele>
        <time>2025-05-09T07:57:53Z</time>
      </trkpt>
      <trkpt lat="36.16259696893394" lon="-5.352471973747015">
        <ele>4.46</ele>
        <time>2025-05-09T07:58:02Z</time>
      </trkpt>
      <trkpt lat="36.16270300000906" lon="-5.352471973747015">
        <ele>4.46</ele>
        <time>2025-05-09T07:58:08Z</time>
      </trkpt>
      <trkpt lat="36.16276603192091" lon="-5.353158032521606">
        <ele>5.91</ele>
        <time>2025-05-09T07:58:22Z</time>
      </trkpt>
      <trkpt lat="36.162773994728923" lon="-5.353213017806411">
        <ele>5.91</ele>
        <time>2025-05-09T07:58:23Z</time>
      </trkpt>
      <trkpt lat="36.162782041355968" lon="-5.353269008919597">
        <ele>5.91</ele>
        <time>2025-05-09T07:58:24Z</time>
      </trkpt>
      <trkpt lat="36.162796039134264" lon="-5.353370010852814">
        <ele>5.91</ele>
        <time>2025-05-09T07:58:26Z</time>
      </trkpt>
      <trkpt lat="36.162802996113896" lon="-5.353413010016084">
        <ele>5.91</ele>
        <time>2025-05-09T07:58:27Z</time>
      </trkpt>
      <trkpt lat="36.16280903108418" lon="-5.353456009179354">
        <ele>5.42</ele>
        <time>2025-05-09T07:58:28Z</time>
      </trkpt>
      <trkpt lat="36.162813976407051" lon="-5.35349003970623">
        <ele>5.91</ele>
        <time>2025-05-09T07:58:29Z</time>
      </trkpt>
      <trkpt lat="36.162817999720573" lon="-5.353519041091204">
        <ele>6.39</ele>
        <time>2025-05-09T07:58:30Z</time>
      </trkpt>
      <trkpt lat="36.162821017205715" lon="-5.353543013334274">
        <ele>6.39</ele>
        <time>2025-05-09T07:58:31Z</time>
      </trkpt>
      <trkpt lat="36.16280903108418" lon="-5.353605039417744">
        <ele>6.39</ele>
        <time>2025-05-09T07:58:32Z</time>
      </trkpt>
      <trkpt lat="36.162791009992361" lon="-5.353605961427093">
        <ele>5.91</ele>
        <time>2025-05-09T07:58:33Z</time>
      </trkpt>
      <trkpt lat="36.162758991122246" lon="-5.353607973083854">
        <ele>5.42</ele>
        <time>2025-05-09T07:58:34Z</time>
      </trkpt>
      <trkpt lat="36.162506025284529" lon="-5.353629011660814">
        <ele>3.98</ele>
        <time>2025-05-09T07:58:40Z</time>
      </trkpt>
      <trkpt lat="36.162477023899555" lon="-5.353634040802717">
        <ele>3.5</ele>
        <time>2025-05-09T07:58:41Z</time>
      </trkpt>
      <trkpt lat="36.162438970059156" lon="-5.353639991953969">
        <ele>3.5</ele>
        <time>2025-05-09T07:58:42Z</time>
      </trkpt>
      <trkpt lat="36.162391025573015" lon="-5.353648038581014">
        <ele>3.02</ele>
        <time>2025-05-09T07:58:43Z</time>
      </trkpt>
      <trkpt lat="36.162334028631449" lon="-5.353657007217407">
        <ele>2.54</ele>
        <time>2025-05-09T07:58:44Z</time>
      </trkpt>
      <trkpt lat="36.162216011434793" lon="-5.353677039965987">
        <ele>2.06</ele>
        <time>2025-05-09T07:58:46Z</time>
      </trkpt>
      <trkpt lat="36.162157002836466" lon="-5.353687014430761">
        <ele>2.06</ele>
        <time>2025-05-09T07:58:47Z</time>
      </trkpt>
      <trkpt lat="36.162097994238138" lon="-5.353696988895536">
        <ele>1.58</ele>
        <time>2025-05-09T07:58:48Z</time>
      </trkpt>
      <trkpt lat="36.162043008953333" lon="-5.353706041350961">
        <ele>1.58</ele>
        <time>2025-05-09T07:58:49Z</time>
      </trkpt>
      <trkpt lat="36.161986012011766" lon="-5.353717021644115">
        <ele>1.1</ele>
        <time>2025-05-09T07:58:50Z</time>
      </trkpt>
      <trkpt lat="36.161894984543324" lon="-5.353737976402044">
        <ele>0.62</ele>
        <time>2025-05-09T07:58:52Z</time>
      </trkpt>
      <trkpt lat="36.161859026178718" lon="-5.35374702885747">
        <ele>0.62</ele>
        <time>2025-05-09T07:58:53Z</time>
      </trkpt>
      <trkpt lat="36.161734974011779" lon="-5.353775024414063">
        <ele>0.62</ele>
        <time>2025-05-09T07:58:54Z</time>
      </trkpt>
      <trkpt lat="36.161734974011779" lon="-5.353775024414063">
        <ele>0.62</ele>
        <time>2025-05-09T07:58:55Z</time>
      </trkpt>
      <trkpt lat="36.161734974011779" lon="-5.353775024414063">
        <ele>0.14</ele>
        <time>2025-05-09T07:58:56Z</time>
      </trkpt>
      <trkpt lat="36.161734974011779" lon="-5.353775024414063">
        <ele>0.14</ele>
        <time>2025-05-09T07:58:57Z</time>
      </trkpt>
      <trkpt lat="36.161734974011779" lon="-5.353775024414063">
        <ele>0.14</ele>
        <time>2025-05-09T07:58:58Z</time>
      </trkpt>
      <trkpt lat="36.161692980676889" lon="-5.35379296168685">
        <ele>0.62</ele>
        <time>2025-05-09T07:59:03Z</time>
      </trkpt>
      <trkpt lat="36.161686023697257" lon="-5.353795979171991">
        <ele>1.1</ele>
        <time>2025-05-09T07:59:04Z</time>
      </trkpt>
      <trkpt lat="36.161520984023809" lon="-5.354096973314881">
        <ele>1.58</ele>
        <time>2025-05-09T07:59:13Z</time>
      </trkpt>
      <trkpt lat="36.161498017609119" lon="-5.354123963043094">
        <ele>1.58</ele>
        <time>2025-05-09T07:59:14Z</time>
      </trkpt>
      <trkpt lat="36.161483014002442" lon="-5.354140978306532">
        <ele>1.58</ele>
        <time>2025-05-09T07:59:15Z</time>
      </trkpt>
      <trkpt lat="36.161469016224146" lon="-5.35415698774159">
        <ele>1.58</ele>
        <time>2025-05-09T07:59:16Z</time>
      </trkpt>
      <trkpt lat="36.161454012617469" lon="-5.354175008833408">
        <ele>1.58</ele>
        <time>2025-05-09T07:59:17Z</time>
      </trkpt>
      <trkpt lat="36.16160798817873" lon="-5.354313980787993">
        <ele>2.06</ele>
        <time>2025-05-09T07:59:19Z</time>
      </trkpt>
      <trkpt lat="36.161445965990424" lon="-5.354183977469802">
        <ele>-1.79</ele>
        <time>2025-05-09T07:59:24Z</time>
      </trkpt>
      <trkpt lat="36.161426017060876" lon="-5.354207027703524">
        <ele>-1.79</ele>
        <time>2025-05-09T07:59:25Z</time>
      </trkpt>
      <trkpt lat="36.161402966827154" lon="-5.354234017431736">
        <ele>-1.3</ele>
        <time>2025-05-09T07:59:26Z</time>
      </trkpt>
      <trkpt lat="36.161377988755703" lon="-5.354262012988329">
        <ele>-1.3</ele>
        <time>2025-05-09T07:59:27Z</time>
      </trkpt>
      <trkpt lat="36.161352004855871" lon="-5.354293026030064">
        <ele>-1.3</ele>
        <time>2025-05-09T07:59:28Z</time>
      </trkpt>
      <trkpt lat="36.161317974328995" lon="-5.354332001879811">
        <ele>-1.79</ele>
        <time>2025-05-09T07:59:29Z</time>
      </trkpt>
      <trkpt lat="36.161273969337344" lon="-5.354382963851094">
        <ele>-2.27</ele>
        <time>2025-05-09T07:59:30Z</time>
      </trkpt>
      <trkpt lat="36.161223007366061" lon="-5.354442978277803">
        <ele>-2.27</ele>
        <time>2025-05-09T07:59:31Z</time>
      </trkpt>
      <trkpt lat="36.161171961575747" lon="-5.35450098104775">
        <ele>-2.27</ele>
        <time>2025-05-09T07:59:32Z</time>
      </trkpt>
      <trkpt lat="36.160968029871583" lon="-5.354728968814015">
        <ele>-3.23</ele>
        <time>2025-05-09T07:59:38Z</time>
      </trkpt>
      <trkpt lat="36.160931987687945" lon="-5.354768028482795">
        <ele>-3.23</ele>
        <time>2025-05-09T07:59:39Z</time>
      </trkpt>
      <trkpt lat="36.16087700240314" lon="-5.354783032089472">
        <ele>-3.23</ele>
        <time>2025-05-09T07:59:40Z</time>
      </trkpt>
      <trkpt lat="36.160850012674928" lon="-5.354755958542228">
        <ele>-2.75</ele>
        <time>2025-05-09T07:59:41Z</time>
      </trkpt>
      <trkpt lat="36.16081397049129" lon="-5.354721006006002">
        <ele>-2.75</ele>
        <time>2025-05-09T07:59:42Z</time>
      </trkpt>
      <trkpt lat="36.160776000469923" lon="-5.354682030156255">
        <ele>-2.27</ele>
        <time>2025-05-09T07:59:43Z</time>
      </trkpt>
      <trkpt lat="36.160308960825205" lon="-5.35411398857832">
        <ele>-2.75</ele>
        <time>2025-05-09T07:59:53Z</time>
      </trkpt>
      <trkpt lat="36.160164959728718" lon="-5.353897986933589">
        <ele>-2.75</ele>
        <time>2025-05-09T07:59:56Z</time>
      </trkpt>
      <trkpt lat="36.159525001421571" lon="-5.353217041119933">
        <ele>-2.27</ele>
        <time>2025-05-09T08:00:08Z</time>
      </trkpt>
      <trkpt lat="36.159483008086681" lon="-5.353146968409419">
        <ele>-2.27</ele>
        <time>2025-05-09T08:00:09Z</time>
      </trkpt>
      <trkpt lat="36.15922199562192" lon="-5.352712031453848">
        <ele>-2.27</ele>
        <time>2025-05-09T08:00:15Z</time>
      </trkpt>
      <trkpt lat="36.159109007567167" lon="-5.35252402536571">
        <ele>-2.75</ele>
        <time>2025-05-09T08:00:18Z</time>
      </trkpt>
      <trkpt lat="36.1590710375458" lon="-5.352464010939002">
        <ele>-2.27</ele>
        <time>2025-05-09T08:00:19Z</time>
      </trkpt>
      <trkpt lat="36.159041030332446" lon="-5.35244096070528">
        <ele>-2.27</ele>
        <time>2025-05-09T08:00:20Z</time>
      </trkpt>
      <trkpt lat="36.159014962613583" lon="-5.352421011775732">
        <ele>-2.27</ele>
        <time>2025-05-09T08:00:21Z</time>
      </trkpt>
      <trkpt lat="36.158997025340796" lon="-5.352408019825816">
        <ele>-2.27</ele>
        <time>2025-05-09T08:00:22Z</time>
      </trkpt>
      <trkpt lat="36.158870961517096" lon="-5.352478008717299">
        <ele>-2.27</ele>
        <time>2025-05-09T08:00:23Z</time>
      </trkpt>
      <trkpt lat="36.158867022022605" lon="-5.352492006495595">
        <ele>-2.27</ele>
        <time>2025-05-09T08:00:24Z</time>
      </trkpt>
      <trkpt lat="36.158862998709083" lon="-5.352511033415794">
        <ele>-2.27</ele>
        <time>2025-05-09T08:00:25Z</time>
      </trkpt>
      <trkpt lat="36.15885604172945" lon="-5.352541040629149">
        <ele>-2.27</ele>
        <time>2025-05-09T08:00:26Z</time>
      </trkpt>
      <trkpt lat="36.158839026466012" lon="-5.352615974843502">
        <ele>-2.27</ele>
        <time>2025-05-09T08:00:27Z</time>
      </trkpt>
      <trkpt lat="36.158838020637631" lon="-5.352616980671883">
        <ele>-2.27</ele>
        <time>2025-05-09T08:00:28Z</time>
      </trkpt>
      <trkpt lat="36.158822011202574" lon="-5.352676995098591">
        <ele>-2.27</ele>
        <time>2025-05-09T08:00:29Z</time>
      </trkpt>
      <trkpt lat="36.158798038959503" lon="-5.352759975939989">
        <ele>-2.75</ele>
        <time>2025-05-09T08:00:30Z</time>
      </trkpt>
      <trkpt lat="36.158773982897401" lon="-5.352842034772039">
        <ele>-2.75</ele>
        <time>2025-05-09T08:00:31Z</time>
      </trkpt>
      <trkpt lat="36.158754033967853" lon="-5.352914035320282">
        <ele>-3.23</ele>
        <time>2025-05-09T08:00:32Z</time>
      </trkpt>
      <trkpt lat="36.158714974299073" lon="-5.353047978132963">
        <ele>-3.23</ele>
        <time>2025-05-09T08:00:34Z</time>
      </trkpt>
      <trkpt lat="36.158692007884383" lon="-5.353107992559671">
        <ele>-3.71</ele>
        <time>2025-05-09T08:00:35Z</time>
      </trkpt>
      <trkpt lat="36.158730983734131" lon="-5.353366993367672">
        <ele>-3.71</ele>
        <time>2025-05-09T08:00:37Z</time>
      </trkpt>
      <trkpt lat="36.158730983734131" lon="-5.353366993367672">
        <ele>-3.71</ele>
        <time>2025-05-09T08:00:38Z</time>
      </trkpt>
      <trkpt lat="36.158730983734131" lon="-5.353432958945632">
        <ele>-3.71</ele>
        <time>2025-05-09T08:00:39Z</time>
      </trkpt>
      <trkpt lat="36.158795021474361" lon="-5.353509988635778">
        <ele>-4.19</ele>
        <time>2025-05-09T08:00:40Z</time>
      </trkpt>
      <trkpt lat="36.15885897539556" lon="-5.353567991405726">
        <ele>-3.71</ele>
        <time>2025-05-09T08:00:41Z</time>
      </trkpt>
      <trkpt lat="36.159732034429908" lon="-5.354348011314869">
        <ele>-3.71</ele>
        <time>2025-05-09T08:00:53Z</time>
      </trkpt>
      <trkpt lat="36.160585982725024" lon="-5.355143034830689">
        <ele>-5.15</ele>
        <time>2025-05-09T08:01:04Z</time>
      </trkpt>
      <trkpt lat="36.160741969943047" lon="-5.355285024270415">
        <ele>-5.15</ele>
        <time>2025-05-09T08:01:06Z</time>
      </trkpt>
      <trkpt lat="36.160821011289954" lon="-5.355358030647039">
        <ele>-5.15</ele>
        <time>2025-05-09T08:01:07Z</time>
      </trkpt>
      <trkpt lat="36.161783002316952" lon="-5.356338964775205">
        <ele>-4.19</ele>
        <time>2025-05-09T08:01:20Z</time>
      </trkpt>
      <trkpt lat="36.162161026149988" lon="-5.356744984164834">
        <ele>-3.71</ele>
        <time>2025-05-09T08:01:26Z</time>
      </trkpt>
      <trkpt lat="36.162272002547979" lon="-5.35680097527802">
        <ele>-3.23</ele>
        <time>2025-05-09T08:01:27Z</time>
      </trkpt>
      <trkpt lat="36.162307038903236" lon="-5.356812961399555">
        <ele>-3.23</ele>
        <time>2025-05-09T08:01:28Z</time>
      </trkpt>
      <trkpt lat="36.162442993372679" lon="-5.356863001361489">
        <ele>-2.75</ele>
        <time>2025-05-09T08:01:30Z</time>
      </trkpt>
      <trkpt lat="36.162513988092542" lon="-5.356893008574843">
        <ele>-2.75</ele>
        <time>2025-05-09T08:01:31Z</time>
      </trkpt>
      <trkpt lat="36.162567967548966" lon="-5.356958974152803">
        <ele>-3.23</ele>
        <time>2025-05-09T08:01:32Z</time>
      </trkpt>
      <trkpt lat="36.162624964490533" lon="-5.357034998014569">
        <ele>-2.75</ele>
        <time>2025-05-09T08:01:33Z</time>
      </trkpt>
      <trkpt lat="36.162657989189029" lon="-5.357100963592529">
        <ele>-2.75</ele>
        <time>2025-05-09T08:01:34Z</time>
      </trkpt>
      <trkpt lat="36.162665029987693" lon="-5.357243958860636">
        <ele>-2.75</ele>
        <time>2025-05-09T08:01:35Z</time>
      </trkpt>
      <trkpt lat="36.162709034979343" lon="-5.35733699798584">
        <ele>-2.75</ele>
        <time>2025-05-09T08:01:36Z</time>
      </trkpt>
      <trkpt lat="36.162754967808723" lon="-5.357433976605535">
        <ele>-2.75</ele>
        <time>2025-05-09T08:01:37Z</time>
      </trkpt>
      <trkpt lat="36.162804001942277" lon="-5.357536990195513">
        <ele>-3.23</ele>
        <time>2025-05-09T08:01:38Z</time>
      </trkpt>
      <trkpt lat="36.16285596974194" lon="-5.357643021270633">
        <ele>-3.23</ele>
        <time>2025-05-09T08:01:39Z</time>
      </trkpt>
      <trkpt lat="36.16373497992754" lon="-5.358867030590773">
        <ele>-7.07</ele>
        <time>2025-05-09T08:01:51Z</time>
      </trkpt>
      <trkpt lat="36.16433504037559" lon="-5.359802031889558">
        <ele>-4.19</ele>
        <time>2025-05-09T08:02:01Z</time>
      </trkpt>
      <trkpt lat="36.164889000356197" lon="-5.360551960766316">
        <ele>-2.27</ele>
        <time>2025-05-09T08:02:10Z</time>
      </trkpt>
      <trkpt lat="36.16493996232748" lon="-5.3606650326401">
        <ele>-2.27</ele>
        <time>2025-05-09T08:02:11Z</time>
      </trkpt>
      <trkpt lat="36.164977010339499" lon="-5.36077500320971">
        <ele>-2.27</ele>
        <time>2025-05-09T08:02:12Z</time>
      </trkpt>
      <trkpt lat="36.164953960105777" lon="-5.360963009297848">
        <ele>-1.79</ele>
        <time>2025-05-09T08:02:13Z</time>
      </trkpt>
      <trkpt lat="36.164982039481401" lon="-5.361035009846091">
        <ele>-1.3</ele>
        <time>2025-05-09T08:02:14Z</time>
      </trkpt>
      <trkpt lat="36.165025038644671" lon="-5.361145986244083">
        <ele>-0.82</ele>
        <time>2025-05-09T08:02:15Z</time>
      </trkpt>
      <trkpt lat="36.165069965645671" lon="-5.361260985955596">
        <ele>-0.82</ele>
        <time>2025-05-09T08:02:16Z</time>
      </trkpt>
      <trkpt lat="36.165120005607605" lon="-5.36137598566711">
        <ele>-0.34</ele>
        <time>2025-05-09T08:02:17Z</time>
      </trkpt>
      <trkpt lat="36.165184965357184" lon="-5.361485034227371">
        <ele>0.14</ele>
        <time>2025-05-09T08:02:18Z</time>
      </trkpt>
      <trkpt lat="36.165851997211576" lon="-5.362590020522475">
        <ele>1.1</ele>
        <time>2025-05-09T08:02:29Z</time>
      </trkpt>
      <trkpt lat="36.166636040434241" lon="-5.364069007337093">
        <ele>1.1</ele>
        <time>2025-05-09T08:02:43Z</time>
      </trkpt>
      <trkpt lat="36.166683984920382" lon="-5.364165985956788">
        <ele>1.1</ele>
        <time>2025-05-09T08:02:44Z</time>
      </trkpt>
      <trkpt lat="36.166732013225555" lon="-5.364261036738753">
        <ele>0.62</ele>
        <time>2025-05-09T08:02:45Z</time>
      </trkpt>
      <trkpt lat="36.166777024045587" lon="-5.364350974559784">
        <ele>0.62</ele>
        <time>2025-05-09T08:02:46Z</time>
      </trkpt>
      <trkpt lat="36.166927982121706" lon="-5.364332031458616">
        <ele>0.14</ele>
        <time>2025-05-09T08:02:47Z</time>
      </trkpt>
      <trkpt lat="36.166991014033556" lon="-5.364378970116377">
        <ele>0.14</ele>
        <time>2025-05-09T08:02:48Z</time>
      </trkpt>
      <trkpt lat="36.167040970176458" lon="-5.364489024505019">
        <ele>-0.34</ele>
        <time>2025-05-09T08:02:49Z</time>
      </trkpt>
      <trkpt lat="36.167056979611516" lon="-5.364587008953095">
        <ele>0.14</ele>
        <time>2025-05-09T08:02:50Z</time>
      </trkpt>
      <trkpt lat="36.167037030681968" lon="-5.364691028371453">
        <ele>-0.34</ele>
        <time>2025-05-09T08:02:51Z</time>
      </trkpt>
      <trkpt lat="36.167051028460264" lon="-5.364798987284303">
        <ele>-0.34</ele>
        <time>2025-05-09T08:02:52Z</time>
      </trkpt>
      <trkpt lat="36.167065026238561" lon="-5.364913986995816">
        <ele>-0.34</ele>
        <time>2025-05-09T08:02:53Z</time>
      </trkpt>
      <trkpt lat="36.167080029845238" lon="-5.365033010020852">
        <ele>-0.34</ele>
        <time>2025-05-09T08:02:54Z</time>
      </trkpt>
      <trkpt lat="36.167099978774786" lon="-5.365191008895636">
        <ele>-0.34</ele>
        <time>2025-05-09T08:02:55Z</time>
      </trkpt>
      <trkpt lat="36.167142977938056" lon="-5.365299973636866">
        <ele>-0.34</ele>
        <time>2025-05-09T08:02:56Z</time>
      </trkpt>
      <trkpt lat="36.16783800534904" lon="-5.367161007598043">
        <ele>0.14</ele>
        <time>2025-05-09T08:03:09Z</time>
      </trkpt>
      <trkpt lat="36.168263973668218" lon="-5.368219977244735">
        <ele>2.06</ele>
        <time>2025-05-09T08:03:18Z</time>
      </trkpt>
      <trkpt lat="36.168314013630152" lon="-5.368325002491474">
        <ele>2.54</ele>
        <time>2025-05-09T08:03:19Z</time>
      </trkpt>
      <trkpt lat="36.168440999463201" lon="-5.368528012186289">
        <ele>3.02</ele>
        <time>2025-05-09T08:03:21Z</time>
      </trkpt>
      <trkpt lat="36.168432030826807" lon="-5.368671007454395">
        <ele>3.02</ele>
        <time>2025-05-09T08:03:22Z</time>
      </trkpt>
      <trkpt lat="36.168500008061528" lon="-5.368919027969241">
        <ele>3.02</ele>
        <time>2025-05-09T08:03:24Z</time>
      </trkpt>
      <trkpt lat="36.168836960569024" lon="-5.369609026238322">
        <ele>3.02</ele>
        <time>2025-05-09T08:03:30Z</time>
      </trkpt>
      <trkpt lat="36.168906027451158" lon="-5.369722014293075">
        <ele>3.5</ele>
        <time>2025-05-09T08:03:31Z</time>
      </trkpt>
      <trkpt lat="36.170005984604359" lon="-5.370724992826581">
        <ele>3.98</ele>
        <time>2025-05-09T08:03:43Z</time>
      </trkpt>
      <trkpt lat="36.170110004022717" lon="-5.370792970061302">
        <ele>3.5</ele>
        <time>2025-05-09T08:03:44Z</time>
      </trkpt>
      <trkpt lat="36.171138966456056" lon="-5.371175017207861">
        <ele>3.98</ele>
        <time>2025-05-09T08:03:54Z</time>
      </trkpt>
      <trkpt lat="36.171928960829973" lon="-5.371605008840561">
        <ele>6.87</ele>
        <time>2025-05-09T08:04:05Z</time>
      </trkpt>
      <trkpt lat="36.172605967149138" lon="-5.372154023498297">
        <ele>7.35</ele>
        <time>2025-05-09T08:04:16Z</time>
      </trkpt>
      <trkpt lat="36.172653995454311" lon="-5.372195011004806">
        <ele>7.35</ele>
        <time>2025-05-09T08:04:17Z</time>
      </trkpt>
      <trkpt lat="36.173061020672321" lon="-5.372530035674572">
        <ele>6.87</ele>
        <time>2025-05-09T08:04:27Z</time>
      </trkpt>
      <trkpt lat="36.173523031175137" lon="-5.372907975688577">
        <ele>7.35</ele>
        <time>2025-05-09T08:04:37Z</time>
      </trkpt>
      <trkpt lat="36.173587990924716" lon="-5.372959021478891">
        <ele>7.35</ele>
        <time>2025-05-09T08:04:38Z</time>
      </trkpt>
      <trkpt lat="36.173655968159437" lon="-5.373010989278555">
        <ele>7.83</ele>
        <time>2025-05-09T08:04:39Z</time>
      </trkpt>
      <trkpt lat="36.17460697889328" lon="-5.373715991154313">
        <ele>9.27</ele>
        <time>2025-05-09T08:04:51Z</time>
      </trkpt>
      <trkpt lat="36.174852987751365" lon="-5.373892011120915">
        <ele>8.789999999999999</ele>
        <time>2025-05-09T08:04:54Z</time>
      </trkpt>
      <trkpt lat="36.174933034926653" lon="-5.373950013890863">
        <ele>8.789999999999999</ele>
        <time>2025-05-09T08:04:55Z</time>
      </trkpt>
      <trkpt lat="36.17555002681911" lon="-5.374400038272142">
        <ele>9.27</ele>
        <time>2025-05-09T08:05:04Z</time>
      </trkpt>
      <trkpt lat="36.17608898319304" lon="-5.374973025172949">
        <ele>10.23</ele>
        <time>2025-05-09T08:05:12Z</time>
      </trkpt>
      <trkpt lat="36.176147991791368" lon="-5.375051982700825">
        <ele>10.23</ele>
        <time>2025-05-09T08:05:13Z</time>
      </trkpt>
      <trkpt lat="36.176941003650427" lon="-5.375994024798274">
        <ele>10.23</ele>
        <time>2025-05-09T08:05:25Z</time>
      </trkpt>
      <trkpt lat="36.177007975056767" lon="-5.376068959012628">
        <ele>9.75</ele>
        <time>2025-05-09T08:05:26Z</time>
      </trkpt>
      <trkpt lat="36.177197992801666" lon="-5.3762879781425">
        <ele>9.27</ele>
        <time>2025-05-09T08:05:29Z</time>
      </trkpt>
      <trkpt lat="36.17724996060133" lon="-5.376354027539492">
        <ele>9.27</ele>
        <time>2025-05-09T08:05:30Z</time>
      </trkpt>
      <trkpt lat="36.177421035245061" lon="-5.376596013084054">
        <ele>8.789999999999999</ele>
        <time>2025-05-09T08:05:34Z</time>
      </trkpt>
      <trkpt lat="36.177666038274765" lon="-5.377026004716754">
        <ele>7.35</ele>
        <time>2025-05-09T08:05:43Z</time>
      </trkpt>
      <trkpt lat="36.177695961669087" lon="-5.377080990001559">
        <ele>6.87</ele>
        <time>2025-05-09T08:05:44Z</time>
      </trkpt>
      <trkpt lat="36.178036015480757" lon="-5.377665041014552">
        <ele>9.27</ele>
        <time>2025-05-09T08:05:53Z</time>
      </trkpt>
      <trkpt lat="36.178088989108801" lon="-5.377740981057286">
        <ele>9.75</ele>
        <time>2025-05-09T08:05:54Z</time>
      </trkpt>
      <trkpt lat="36.178143974393606" lon="-5.377819016575813">
        <ele>9.75</ele>
        <time>2025-05-09T08:05:55Z</time>
      </trkpt>
      <trkpt lat="36.178351007401943" lon="-5.378019008785486">
        <ele>9.75</ele>
        <time>2025-05-09T08:05:58Z</time>
      </trkpt>
      <trkpt lat="36.178425019606948" lon="-5.378077011555433">
        <ele>9.75</ele>
        <time>2025-05-09T08:05:59Z</time>
      </trkpt>
      <trkpt lat="36.178721990436316" lon="-5.378352021798492">
        <ele>9.27</ele>
        <time>2025-05-09T08:06:03Z</time>
      </trkpt>
      <trkpt lat="36.178787034004927" lon="-5.378423016518354">
        <ele>8.789999999999999</ele>
        <time>2025-05-09T08:06:04Z</time>
      </trkpt>
      <trkpt lat="36.178855011239648" lon="-5.378489987924695">
        <ele>8.789999999999999</ele>
        <time>2025-05-09T08:06:05Z</time>
      </trkpt>
      <trkpt lat="36.179541992023587" lon="-5.379156013950706">
        <ele>5.91</ele>
        <time>2025-05-09T08:06:15Z</time>
      </trkpt>
      <trkpt lat="36.179622961208224" lon="-5.379231031984091">
        <ele>5.91</ele>
        <time>2025-05-09T08:06:16Z</time>
      </trkpt>
      <trkpt lat="36.179708959534764" lon="-5.379308983683586">
        <ele>5.42</ele>
        <time>2025-05-09T08:06:17Z</time>
      </trkpt>
      <trkpt lat="36.180944032967091" lon="-5.380023960024118">
        <ele>1.1</ele>
        <time>2025-05-09T08:06:29Z</time>
      </trkpt>
      <trkpt lat="36.181907029822469" lon="-5.380513966083527">
        <ele>-0.82</ele>
        <time>2025-05-09T08:06:38Z</time>
      </trkpt>
      <trkpt lat="36.181946005672216" lon="-5.380524024367333">
        <ele>-0.82</ele>
        <time>2025-05-09T08:06:39Z</time>
      </trkpt>
      <trkpt lat="36.181991016492248" lon="-5.380536010488868">
        <ele>-0.82</ele>
        <time>2025-05-09T08:06:44Z</time>
      </trkpt>
      <trkpt lat="36.182055976241827" lon="-5.380554031580687">
        <ele>-0.82</ele>
        <time>2025-05-09T08:06:45Z</time>
      </trkpt>
      <trkpt lat="36.182205006480217" lon="-5.380521006882191">
        <ele>-0.82</ele>
        <time>2025-05-09T08:06:47Z</time>
      </trkpt>
      <trkpt lat="36.182286981493235" lon="-5.3805619943887">
        <ele>-0.34</ele>
        <time>2025-05-09T08:06:48Z</time>
      </trkpt>
      <trkpt lat="36.182375997304916" lon="-5.380607005208731">
        <ele>-0.82</ele>
        <time>2025-05-09T08:06:49Z</time>
      </trkpt>
      <trkpt lat="36.182484962046146" lon="-5.380661990493536">
        <ele>-1.3</ele>
        <time>2025-05-09T08:06:50Z</time>
      </trkpt>
      <trkpt lat="36.182527961209416" lon="-5.380726028233767">
        <ele>-1.79</ele>
        <time>2025-05-09T08:06:51Z</time>
      </trkpt>
      <trkpt lat="36.182591998949647" lon="-5.380898024886847">
        <ele>-2.27</ele>
        <time>2025-05-09T08:06:52Z</time>
      </trkpt>
      <trkpt lat="36.182699035853148" lon="-5.380995003506541">
        <ele>-2.27</ele>
        <time>2025-05-09T08:06:53Z</time>
      </trkpt>
      <trkpt lat="36.182800037786365" lon="-5.381087958812714">
        <ele>-2.75</ele>
        <time>2025-05-09T08:06:54Z</time>
      </trkpt>
      <trkpt lat="36.182910008355975" lon="-5.38116398267448">
        <ele>-2.75</ele>
        <time>2025-05-09T08:06:55Z</time>
      </trkpt>
      <trkpt lat="36.183035988360643" lon="-5.381232965737581">
        <ele>-2.75</ele>
        <time>2025-05-09T08:06:56Z</time>
      </trkpt>
      <trkpt lat="36.184258991852403" lon="-5.381942996755242">
        <ele>-3.23</ele>
        <time>2025-05-09T08:07:06Z</time>
      </trkpt>
      <trkpt lat="36.18543203920126" lon="-5.382859976962209">
        <ele>-3.23</ele>
        <time>2025-05-09T08:07:13Z</time>
      </trkpt>
      <trkpt lat="36.187336994335055" lon="-5.384568041190505">
        <ele>1.1</ele>
        <time>2025-05-09T08:07:25Z</time>
      </trkpt>
      <trkpt lat="36.188544994220138" lon="-5.385571019724011">
        <ele>4.94</ele>
        <time>2025-05-09T08:07:33Z</time>
      </trkpt>
      <trkpt lat="36.188709028065205" lon="-5.385664980858564">
        <ele>4.94</ele>
        <time>2025-05-09T08:07:34Z</time>
      </trkpt>
      <trkpt lat="36.188874989748001" lon="-5.385732958093286">
        <ele>4.94</ele>
        <time>2025-05-09T08:07:35Z</time>
      </trkpt>
      <trkpt lat="36.189055033028126" lon="-5.385757014155388">
        <ele>4.94</ele>
        <time>2025-05-09T08:07:36Z</time>
      </trkpt>
      <trkpt lat="36.189233986660838" lon="-5.385779980570078">
        <ele>4.94</ele>
        <time>2025-05-09T08:07:37Z</time>
      </trkpt>
      <trkpt lat="36.189401037991047" lon="-5.385790038853884">
        <ele>4.94</ele>
        <time>2025-05-09T08:07:38Z</time>
      </trkpt>
      <trkpt lat="36.18956096470356" lon="-5.385776963084936">
        <ele>4.94</ele>
        <time>2025-05-09T08:07:39Z</time>
      </trkpt>
      <trkpt lat="36.189716029912233" lon="-5.385731030255556">
        <ele>5.42</ele>
        <time>2025-05-09T08:07:40Z</time>
      </trkpt>
      <trkpt lat="36.18986296467483" lon="-5.385680990293622">
        <ele>5.42</ele>
        <time>2025-05-09T08:07:41Z</time>
      </trkpt>
      <trkpt lat="36.191075993701816" lon="-5.385200036689639">
        <ele>5.91</ele>
        <time>2025-05-09T08:07:51Z</time>
      </trkpt>
      <trkpt lat="36.191153023391962" lon="-5.38513801060617">
        <ele>5.42</ele>
        <time>2025-05-09T08:07:52Z</time>
      </trkpt>
      <trkpt lat="36.191221000626683" lon="-5.385079002007842">
        <ele>5.42</ele>
        <time>2025-05-09T08:07:53Z</time>
      </trkpt>
      <trkpt lat="36.19127900339663" lon="-5.385020999237895">
        <ele>5.42</ele>
        <time>2025-05-09T08:07:54Z</time>
      </trkpt>
      <trkpt lat="36.191333988681436" lon="-5.38496601395309">
        <ele>5.42</ele>
        <time>2025-05-09T08:07:55Z</time>
      </trkpt>
      <trkpt lat="36.191390985623002" lon="-5.384953022003174">
        <ele>5.91</ele>
        <time>2025-05-09T08:07:56Z</time>
      </trkpt>
      <trkpt lat="36.191467009484768" lon="-5.384953022003174">
        <ele>5.91</ele>
        <time>2025-05-09T08:07:57Z</time>
      </trkpt>
      <trkpt lat="36.191529035568237" lon="-5.384993003681302">
        <ele>6.39</ele>
        <time>2025-05-09T08:07:58Z</time>
      </trkpt>
      <trkpt lat="36.191633976995945" lon="-5.384995015338063">
        <ele>6.39</ele>
        <time>2025-05-09T08:07:59Z</time>
      </trkpt>
      <trkpt lat="36.19172802194953" lon="-5.38496601395309">
        <ele>6.39</ele>
        <time>2025-05-09T08:08:00Z</time>
      </trkpt>
      <trkpt lat="36.191841010004282" lon="-5.384931983426213">
        <ele>6.39</ele>
        <time>2025-05-09T08:08:01Z</time>
      </trkpt>
      <trkpt lat="36.192980026826262" lon="-5.384449018165469">
        <ele>8.310000000000001</ele>
        <time>2025-05-09T08:08:09Z</time>
      </trkpt>
      <trkpt lat="36.194665040820837" lon="-5.383705962449312">
        <ele>11.67</ele>
        <time>2025-05-09T08:08:18Z</time>
      </trkpt>
      <trkpt lat="36.19712496176362" lon="-5.382655039429665">
        <ele>17.920000000000002</ele>
        <time>2025-05-09T08:08:31Z</time>
      </trkpt>
      <trkpt lat="36.19800103828311" lon="-5.382464015856385">
        <ele>22.25</ele>
        <time>2025-05-09T08:08:36Z</time>
      </trkpt>
      <trkpt lat="36.198177980259061" lon="-5.382464015856385">
        <ele>23.210000000000001</ele>
        <time>2025-05-09T08:08:37Z</time>
      </trkpt>
      <trkpt lat="36.199880009517074" lon="-5.38286198861897">
        <ele>34.740000000000002</ele>
        <time>2025-05-09T08:08:47Z</time>
      </trkpt>
      <trkpt lat="36.201987974345684" lon="-5.383464982733131">
        <ele>49.649999999999999</ele>
        <time>2025-05-09T08:08:59Z</time>
      </trkpt>
      <trkpt lat="36.203800980001688" lon="-5.383982984349132">
        <ele>62.140000000000001</ele>
        <time>2025-05-09T08:09:10Z</time>
      </trkpt>
      <trkpt lat="36.20517703704536" lon="-5.38432203233242">
        <ele>64.069999999999993</ele>
        <time>2025-05-09T08:09:20Z</time>
      </trkpt>
      <trkpt lat="36.205649022012949" lon="-5.384374000132084">
        <ele>62.140000000000001</ele>
        <time>2025-05-09T08:09:24Z</time>
      </trkpt>
      <trkpt lat="36.20577902533114" lon="-5.384360002353787">
        <ele>59.740000000000002</ele>
        <time>2025-05-09T08:09:25Z</time>
      </trkpt>
      <trkpt lat="36.2063820194453" lon="-5.384312979876995">
        <ele>50.609999999999999</ele>
        <time>2025-05-09T08:09:30Z</time>
      </trkpt>
      <trkpt lat="36.206495007500052" lon="-5.38432396017015">
        <ele>49.649999999999999</ele>
        <time>2025-05-09T08:09:31Z</time>
      </trkpt>
      <trkpt lat="36.206615958362818" lon="-5.384377017617226">
        <ele>49.159999999999997</ele>
        <time>2025-05-09T08:09:32Z</time>
      </trkpt>
      <trkpt lat="36.206707991659641" lon="-5.384467961266637">
        <ele>48.68</ele>
        <time>2025-05-09T08:09:33Z</time>
      </trkpt>
      <trkpt lat="36.206776974722743" lon="-5.38457902148366">
        <ele>48.200000000000003</ele>
        <time>2025-05-09T08:09:34Z</time>
      </trkpt>
      <trkpt lat="36.206846963614225" lon="-5.384691003710032">
        <ele>48.200000000000003</ele>
        <time>2025-05-09T08:09:35Z</time>
      </trkpt>
      <trkpt lat="36.206913013011217" lon="-5.384811032563448">
        <ele>48.200000000000003</ele>
        <time>2025-05-09T08:09:36Z</time>
      </trkpt>
      <trkpt lat="36.206952994689345" lon="-5.384940030053258">
        <ele>48.200000000000003</ele>
        <time>2025-05-09T08:09:37Z</time>
      </trkpt>
      <trkpt lat="36.206991970539093" lon="-5.385068021714687">
        <ele>48.200000000000003</ele>
        <time>2025-05-09T08:09:38Z</time>
      </trkpt>
      <trkpt lat="36.207482982426882" lon="-5.386554971337318">
        <ele>51.57</ele>
        <time>2025-05-09T08:09:49Z</time>
      </trkpt>
      <trkpt lat="36.207636035978794" lon="-5.386998960748315">
        <ele>49.649999999999999</ele>
        <time>2025-05-09T08:09:58Z</time>
      </trkpt>
      <trkpt lat="36.207933006808162" lon="-5.388185000047088">
        <ele>44.359999999999999</ele>
        <time>2025-05-09T08:10:05Z</time>
      </trkpt>
      <trkpt lat="36.207467978820205" lon="-5.39134900085628">
        <ele>36.670000000000002</ele>
        <time>2025-05-09T08:10:15Z</time>
      </trkpt>
      <trkpt lat="36.20713597163558" lon="-5.393777992576361">
        <ele>27.530000000000001</ele>
        <time>2025-05-09T08:10:27Z</time>
      </trkpt>
      <trkpt lat="36.207060031592846" lon="-5.394587013870478">
        <ele>23.690000000000001</ele>
        <time>2025-05-09T08:10:31Z</time>
      </trkpt>
      <trkpt lat="36.207061959430575" lon="-5.394787006080151">
        <ele>22.73</ele>
        <time>2025-05-09T08:10:32Z</time>
      </trkpt>
      <trkpt lat="36.207339987158775" lon="-5.397346001118422">
        <ele>13.6</ele>
        <time>2025-05-09T08:10:45Z</time>
      </trkpt>
      <trkpt lat="36.207577027380466" lon="-5.398838985711336">
        <ele>9.27</ele>
        <time>2025-05-09T08:10:59Z</time>
      </trkpt>
      <trkpt lat="36.20799302123487" lon="-5.400301963090897">
        <ele>10.23</ele>
        <time>2025-05-09T08:11:03Z</time>
      </trkpt>
      <trkpt lat="36.208010958507657" lon="-5.400362983345985">
        <ele>10.710000000000001</ele>
        <time>2025-05-09T08:11:09Z</time>
      </trkpt>
      <trkpt lat="36.208384037017822" lon="-5.400424003601074">
        <ele>10.710000000000001</ele>
        <time>2025-05-09T08:11:10Z</time>
      </trkpt>
      <trkpt lat="36.208830960094929" lon="-5.400343034416437">
        <ele>10.23</ele>
        <time>2025-05-09T08:11:13Z</time>
      </trkpt>
      <trkpt lat="36.20893900282681" lon="-5.400297017768025">
        <ele>9.75</ele>
        <time>2025-05-09T08:11:14Z</time>
      </trkpt>
      <trkpt lat="36.209031958132982" lon="-5.400248989462853">
        <ele>9.27</ele>
        <time>2025-05-09T08:11:15Z</time>
      </trkpt>
      <trkpt lat="36.209098007529974" lon="-5.400192998349667">
        <ele>8.789999999999999</ele>
        <time>2025-05-09T08:11:16Z</time>
      </trkpt>
      <trkpt lat="36.209151986986399" lon="-5.400145975872874">
        <ele>8.789999999999999</ele>
        <time>2025-05-09T08:11:17Z</time>
      </trkpt>
      <trkpt lat="36.209206972271204" lon="-5.400087973102927">
        <ele>8.310000000000001</ele>
        <time>2025-05-09T08:11:18Z</time>
      </trkpt>
      <trkpt lat="36.209267992526293" lon="-5.40000599808991">
        <ele>8.310000000000001</ele>
        <time>2025-05-09T08:11:19Z</time>
      </trkpt>
      <trkpt lat="36.209297999739647" lon="-5.399915976449847">
        <ele>7.83</ele>
        <time>2025-05-09T08:11:20Z</time>
      </trkpt>
      <trkpt lat="36.209330018609762" lon="-5.399817992001772">
        <ele>8.310000000000001</ele>
        <time>2025-05-09T08:11:21Z</time>
      </trkpt>
      <trkpt lat="36.209362959489226" lon="-5.399711038917303">
        <ele>8.310000000000001</ele>
        <time>2025-05-09T08:11:22Z</time>
      </trkpt>
      <trkpt lat="36.209580972790718" lon="-5.39891199208796">
        <ele>10.23</ele>
        <time>2025-05-09T08:11:29Z</time>
      </trkpt>
      <trkpt lat="36.209612991660833" lon="-5.398807972669601">
        <ele>10.23</ele>
        <time>2025-05-09T08:11:30Z</time>
      </trkpt>
      <trkpt lat="36.209680968895555" lon="-5.39871702902019">
        <ele>10.710000000000001</ele>
        <time>2025-05-09T08:11:31Z</time>
      </trkpt>
      <trkpt lat="36.209748024120927" lon="-5.398628013208509">
        <ele>10.710000000000001</ele>
        <time>2025-05-09T08:11:32Z</time>
      </trkpt>
      <trkpt lat="36.209810972213745" lon="-5.39854796603322">
        <ele>10.710000000000001</ele>
        <time>2025-05-09T08:11:33Z</time>
      </trkpt>
      <trkpt lat="36.209883978590369" lon="-5.398486023768783">
        <ele>11.19</ele>
        <time>2025-05-09T08:11:34Z</time>
      </trkpt>
      <trkpt lat="36.209954973310232" lon="-5.398425003513694">
        <ele>11.19</ele>
        <time>2025-05-09T08:11:35Z</time>
      </trkpt>
      <trkpt lat="36.210269965231419" lon="-5.398193998262286">
        <ele>11.67</ele>
        <time>2025-05-09T08:11:40Z</time>
      </trkpt>
      <trkpt lat="36.21027298271656" lon="-5.398191986605525">
        <ele>12.15</ele>
        <time>2025-05-09T08:11:41Z</time>
      </trkpt>
      <trkpt lat="36.210380019620061" lon="-5.398191986605525">
        <ele>12.630000000000001</ele>
        <time>2025-05-09T08:11:42Z</time>
      </trkpt>
      <trkpt lat="36.210510022938251" lon="-5.398167008534074">
        <ele>13.6</ele>
        <time>2025-05-09T08:11:44Z</time>
      </trkpt>
      <trkpt lat="36.21059400960803" lon="-5.398149993270636">
        <ele>14.08</ele>
        <time>2025-05-09T08:11:45Z</time>
      </trkpt>
      <trkpt lat="36.210681013762951" lon="-5.398131972178817">
        <ele>14.56</ele>
        <time>2025-05-09T08:11:46Z</time>
      </trkpt>
      <trkpt lat="36.210763994604349" lon="-5.398085033521056">
        <ele>15.039999999999999</ele>
        <time>2025-05-09T08:11:47Z</time>
      </trkpt>
      <trkpt lat="36.210837000980973" lon="-5.398032981902361">
        <ele>15.039999999999999</ele>
        <time>2025-05-09T08:11:48Z</time>
      </trkpt>
      <trkpt lat="36.211063982918859" lon="-5.397874983027577">
        <ele>15.52</ele>
        <time>2025-05-09T08:11:51Z</time>
      </trkpt>
      <trkpt lat="36.211660020053387" lon="-5.39714802056551">
        <ele>16</ele>
        <time>2025-05-09T08:12:00Z</time>
      </trkpt>
      <trkpt lat="36.211717016994953" lon="-5.397075014188886">
        <ele>15.52</ele>
        <time>2025-05-09T08:12:01Z</time>
      </trkpt>
      <trkpt lat="36.211804021149874" lon="-5.397050036117435">
        <ele>15.52</ele>
        <time>2025-05-09T08:12:02Z</time>
      </trkpt>
      <trkpt lat="36.211897982284427" lon="-5.397034026682377">
        <ele>15.52</ele>
        <time>2025-05-09T08:12:03Z</time>
      </trkpt>
      <trkpt lat="36.211995966732502" lon="-5.397050036117435">
        <ele>15.52</ele>
        <time>2025-05-09T08:12:04Z</time>
      </trkpt>
      <trkpt lat="36.21274002827704" lon="-5.397183978930116">
        <ele>18.399999999999999</ele>
        <time>2025-05-09T08:12:14Z</time>
      </trkpt>
      <trkpt lat="36.212775986641645" lon="-5.397250028327107">
        <ele>18.879999999999999</ele>
        <time>2025-05-09T08:12:15Z</time>
      </trkpt>
      <trkpt lat="36.212815968319774" lon="-5.397322028875351">
        <ele>18.879999999999999</ele>
        <time>2025-05-09T08:12:16Z</time>
      </trkpt>
      <trkpt lat="36.21286902576685" lon="-5.397420013323426">
        <ele>19.359999999999999</ele>
        <time>2025-05-09T08:12:17Z</time>
      </trkpt>
      <trkpt lat="36.212888974696398" lon="-5.39749201387167">
        <ele>19.359999999999999</ele>
        <time>2025-05-09T08:12:18Z</time>
      </trkpt>
      <trkpt lat="36.212916970252991" lon="-5.397592009976506">
        <ele>19.359999999999999</ele>
        <time>2025-05-09T08:12:19Z</time>
      </trkpt>
      <trkpt lat="36.212944965809584" lon="-5.397693011909723">
        <ele>18.879999999999999</ele>
        <time>2025-05-09T08:12:20Z</time>
      </trkpt>
      <trkpt lat="36.212971033528447" lon="-5.397786973044276">
        <ele>18.879999999999999</ele>
        <time>2025-05-09T08:12:21Z</time>
      </trkpt>
      <trkpt lat="36.213013026863337" lon="-5.397842964157462">
        <ele>18.399999999999999</ele>
        <time>2025-05-09T08:12:22Z</time>
      </trkpt>
      <trkpt lat="36.213147975504398" lon="-5.397977996617556">
        <ele>16.48</ele>
        <time>2025-05-09T08:12:25Z</time>
      </trkpt>
      <trkpt lat="36.21323699131608" lon="-5.397984031587839">
        <ele>16</ele>
        <time>2025-05-09T08:12:26Z</time>
      </trkpt>
      <trkpt lat="36.213320977985859" lon="-5.397989982739091">
        <ele>14.56</ele>
        <time>2025-05-09T08:12:27Z</time>
      </trkpt>
      <trkpt lat="36.213447963818908" lon="-5.397999035194516">
        <ele>13.119999999999999</ele>
        <time>2025-05-09T08:12:28Z</time>
      </trkpt>
      <trkpt lat="36.213491968810558" lon="-5.397971039637923">
        <ele>11.19</ele>
        <time>2025-05-09T08:12:29Z</time>
      </trkpt>
      <trkpt lat="36.213570004329085" lon="-5.397917982190847">
        <ele>9.75</ele>
        <time>2025-05-09T08:12:30Z</time>
      </trkpt>
      <trkpt lat="36.213633036240935" lon="-5.397846987470985">
        <ele>8.310000000000001</ele>
        <time>2025-05-09T08:12:31Z</time>
      </trkpt>
      <trkpt lat="36.213686009868979" lon="-5.397783033549786">
        <ele>6.87</ele>
        <time>2025-05-09T08:12:32Z</time>
      </trkpt>
      <trkpt lat="36.213806038722396" lon="-5.397639032453299">
        <ele>2.54</ele>
        <time>2025-05-09T08:12:35Z</time>
      </trkpt>
      <trkpt lat="36.213898994028568" lon="-5.397526966407895">
        <ele>0.14</ele>
        <time>2025-05-09T08:12:37Z</time>
      </trkpt>
      <trkpt lat="36.214037965983152" lon="-5.397408027201891">
        <ele>-1.79</ele>
        <time>2025-05-09T08:12:39Z</time>
      </trkpt>
      <trkpt lat="36.214113989844918" lon="-5.39734298363328">
        <ele>-2.75</ele>
        <time>2025-05-09T08:12:40Z</time>
      </trkpt>
      <trkpt lat="36.21426603756845" lon="-5.397195965051651">
        <ele>-4.67</ele>
        <time>2025-05-09T08:12:42Z</time>
      </trkpt>
      <trkpt lat="36.214334014803171" lon="-5.397120025008917">
        <ele>-5.15</ele>
        <time>2025-05-09T08:12:43Z</time>
      </trkpt>
      <trkpt lat="36.214393023401499" lon="-5.397054981440306">
        <ele>-6.11</ele>
        <time>2025-05-09T08:12:44Z</time>
      </trkpt>
      <trkpt lat="36.214484972879291" lon="-5.397035032510757">
        <ele>-6.11</ele>
        <time>2025-05-09T08:12:45Z</time>
      </trkpt>
      <trkpt lat="36.214585974812508" lon="-5.397011982277036">
        <ele>-6.11</ele>
        <time>2025-05-09T08:12:46Z</time>
      </trkpt>
      <trkpt lat="36.21467599645257" lon="-5.397065039724112">
        <ele>-5.63</ele>
        <time>2025-05-09T08:12:47Z</time>
      </trkpt>
      <trkpt lat="36.214766018092632" lon="-5.397117007523775">
        <ele>-5.63</ele>
        <time>2025-05-09T08:12:48Z</time>
      </trkpt>
      <trkpt lat="36.215484011918306" lon="-5.397426970303059">
        <ele>-5.15</ele>
        <time>2025-05-09T08:12:55Z</time>
      </trkpt>
      <trkpt lat="36.215586019679904" lon="-5.397435016930103">
        <ele>-5.15</ele>
        <time>2025-05-09T08:12:56Z</time>
      </trkpt>
      <trkpt lat="36.215675035491586" lon="-5.397438034415245">
        <ele>-5.15</ele>
        <time>2025-05-09T08:12:57Z</time>
      </trkpt>
      <trkpt lat="36.216579023748636" lon="-5.397046012803912">
        <ele>-0.34</ele>
        <time>2025-05-09T08:13:07Z</time>
      </trkpt>
      <trkpt lat="36.21718998067081" lon="-5.396470008417964">
        <ele>6.39</ele>
        <time>2025-05-09T08:13:15Z</time>
      </trkpt>
      <trkpt lat="36.21723398566246" lon="-5.396380992606282">
        <ele>6.87</ele>
        <time>2025-05-09T08:13:16Z</time>
      </trkpt>
      <trkpt lat="36.217535985633731" lon="-5.395755032077432">
        <ele>13.119999999999999</ele>
        <time>2025-05-09T08:13:23Z</time>
      </trkpt>
      <trkpt lat="36.217570016160607" lon="-5.395696023479104">
        <ele>14.08</ele>
        <time>2025-05-09T08:13:24Z</time>
      </trkpt>
      <trkpt lat="36.217596000060439" lon="-5.395652018487454">
        <ele>14.56</ele>
        <time>2025-05-09T08:13:25Z</time>
      </trkpt>
      <trkpt lat="36.2176170386374" lon="-5.395616982132196">
        <ele>15.52</ele>
        <time>2025-05-09T08:13:26Z</time>
      </trkpt>
      <trkpt lat="36.217636987566948" lon="-5.395582029595971">
        <ele>16</ele>
        <time>2025-05-09T08:13:27Z</time>
      </trkpt>
      <trkpt lat="36.217654002830386" lon="-5.395440040156245">
        <ele>17.440000000000001</ele>
        <time>2025-05-09T08:13:29Z</time>
      </trkpt>
      <trkpt lat="36.217654002830386" lon="-5.395367033779621">
        <ele>18.399999999999999</ele>
        <time>2025-05-09T08:13:30Z</time>
      </trkpt>
      <trkpt lat="36.217644028365612" lon="-5.395288998261094">
        <ele>18.879999999999999</ele>
        <time>2025-05-09T08:13:31Z</time>
      </trkpt>
      <trkpt lat="36.217632964253426" lon="-5.395210962742567">
        <ele>19.359999999999999</ele>
        <time>2025-05-09T08:13:32Z</time>
      </trkpt>
      <trkpt lat="36.21761997230351" lon="-5.395123036578298">
        <ele>20.32</ele>
        <time>2025-05-09T08:13:33Z</time>
      </trkpt>
      <trkpt lat="36.217400031164289" lon="-5.394075969234109">
        <ele>22.25</ele>
        <time>2025-05-09T08:13:43Z</time>
      </trkpt>
      <trkpt lat="36.217181012034416" lon="-5.393299972638488">
        <ele>22.25</ele>
        <time>2025-05-09T08:13:51Z</time>
      </trkpt>
      <trkpt lat="36.217139018699527" lon="-5.393203999847174">
        <ele>22.25</ele>
        <time>2025-05-09T08:13:52Z</time>
      </trkpt>
      <trkpt lat="36.216567037627101" lon="-5.392428003251553">
        <ele>19.84</ele>
        <time>2025-05-09T08:14:01Z</time>
      </trkpt>
      <trkpt lat="36.216392023488879" lon="-5.392252989113331">
        <ele>17.920000000000002</ele>
        <time>2025-05-09T08:14:09Z</time>
      </trkpt>
      <trkpt lat="36.216392023488879" lon="-5.392252989113331">
        <ele>17.920000000000002</ele>
        <time>2025-05-09T08:14:30Z</time>
      </trkpt>
      <trkpt lat="36.216392023488879" lon="-5.392252989113331">
        <ele>17.920000000000002</ele>
        <time>2025-05-09T08:16:34Z</time>
      </trkpt>
      <trkpt lat="36.216392023488879" lon="-5.392252989113331">
        <ele>18.879999999999999</ele>
        <time>2025-05-09T08:17:21Z</time>
      </trkpt>
      <trkpt lat="36.216378025710583" lon="-5.392230022698641">
        <ele>20.32</ele>
        <time>2025-05-09T08:17:22Z</time>
      </trkpt>
      <trkpt lat="36.216388000175357" lon="-5.392248965799809">
        <ele>20.809999999999999</ele>
        <time>2025-05-09T08:17:24Z</time>
      </trkpt>
      <trkpt lat="36.216398980468512" lon="-5.392260029911995">
        <ele>21.289999999999999</ele>
        <time>2025-05-09T08:17:25Z</time>
      </trkpt>
      <trkpt lat="36.216435022652149" lon="-5.39229498244822">
        <ele>21.289999999999999</ele>
        <time>2025-05-09T08:17:26Z</time>
      </trkpt>
      <trkpt lat="36.216855039820075" lon="-5.392779037356377">
        <ele>21.289999999999999</ele>
        <time>2025-05-09T08:17:32Z</time>
      </trkpt>
      <trkpt lat="36.217268016189337" lon="-5.39353801868856">
        <ele>22.25</ele>
        <time>2025-05-09T08:17:37Z</time>
      </trkpt>
      <trkpt lat="36.217314032837749" lon="-5.393727030605078">
        <ele>22.73</ele>
        <time>2025-05-09T08:17:38Z</time>
      </trkpt>
      <trkpt lat="36.21736197732389" lon="-5.393924005329609">
        <ele>22.73</ele>
        <time>2025-05-09T08:17:39Z</time>
      </trkpt>
      <trkpt lat="36.217654002830386" lon="-5.395553028210998">
        <ele>24.170000000000002</ele>
        <time>2025-05-09T08:17:48Z</time>
      </trkpt>
      <trkpt lat="36.217752993106842" lon="-5.396039010956883">
        <ele>24.649999999999999</ele>
        <time>2025-05-09T08:17:51Z</time>
      </trkpt>
      <trkpt lat="36.217803033068776" lon="-5.396205978468061">
        <ele>24.649999999999999</ele>
        <time>2025-05-09T08:17:52Z</time>
      </trkpt>
      <trkpt lat="36.217873021960258" lon="-5.396336987614632">
        <ele>24.649999999999999</ele>
        <time>2025-05-09T08:17:53Z</time>
      </trkpt>
      <trkpt lat="36.217972012236714" lon="-5.396449975669384">
        <ele>24.170000000000002</ele>
        <time>2025-05-09T08:17:54Z</time>
      </trkpt>
      <trkpt lat="36.218066979199648" lon="-5.396558018401265">
        <ele>23.690000000000001</ele>
        <time>2025-05-09T08:17:55Z</time>
      </trkpt>
      <trkpt lat="36.218168986961246" lon="-5.396643010899425">
        <ele>23.210000000000001</ele>
        <time>2025-05-09T08:17:56Z</time>
      </trkpt>
      <trkpt lat="36.218304019421339" lon="-5.396693972870708">
        <ele>22.25</ele>
        <time>2025-05-09T08:17:57Z</time>
      </trkpt>
      <trkpt lat="36.218442991375923" lon="-5.396735966205597">
        <ele>21.289999999999999</ele>
        <time>2025-05-09T08:17:58Z</time>
      </trkpt>
      <trkpt lat="36.218582969158888" lon="-5.396745018661022">
        <ele>20.32</ele>
        <time>2025-05-09T08:17:59Z</time>
      </trkpt>
      <trkpt lat="36.218722024932504" lon="-5.396753987297416">
        <ele>19.359999999999999</ele>
        <time>2025-05-09T08:18:00Z</time>
      </trkpt>
      <trkpt lat="36.218855967745185" lon="-5.396703025326133">
        <ele>18.399999999999999</ele>
        <time>2025-05-09T08:18:01Z</time>
      </trkpt>
      <trkpt lat="36.218995023518801" lon="-5.396648040041328">
        <ele>17.440000000000001</ele>
        <time>2025-05-09T08:18:02Z</time>
      </trkpt>
      <trkpt lat="36.219135001301765" lon="-5.39659196510911">
        <ele>16.48</ele>
        <time>2025-05-09T08:18:03Z</time>
      </trkpt>
      <trkpt lat="36.21989700011909" lon="-5.396212013438344">
        <ele>12.15</ele>
        <time>2025-05-09T08:18:10Z</time>
      </trkpt>
      <trkpt lat="36.220215009525418" lon="-5.396041022613645">
        <ele>9.27</ele>
        <time>2025-05-09T08:18:17Z</time>
      </trkpt>
      <trkpt lat="36.220832001417875" lon="-5.39570901542902">
        <ele>8.789999999999999</ele>
        <time>2025-05-09T08:18:23Z</time>
      </trkpt>
      <trkpt lat="36.222211997956038" lon="-5.395014993846417">
        <ele>11.67</ele>
        <time>2025-05-09T08:18:32Z</time>
      </trkpt>
      <trkpt lat="36.222541993483901" lon="-5.394922960549593">
        <ele>12.15</ele>
        <time>2025-05-09T08:18:34Z</time>
      </trkpt>
      <trkpt lat="36.222700998187065" lon="-5.394913991913199">
        <ele>13.119999999999999</ele>
        <time>2025-05-09T08:18:35Z</time>
      </trkpt>
      <trkpt lat="36.22286201454699" lon="-5.394920026883483">
        <ele>13.6</ele>
        <time>2025-05-09T08:18:36Z</time>
      </trkpt>
      <trkpt lat="36.223201984539628" lon="-5.394975012168288">
        <ele>13.6</ele>
        <time>2025-05-09T08:18:38Z</time>
      </trkpt>
      <trkpt lat="36.223346991464496" lon="-5.395060004666448">
        <ele>13.6</ele>
        <time>2025-05-09T08:18:39Z</time>
      </trkpt>
      <trkpt lat="36.223482023924589" lon="-5.395173998549581">
        <ele>13.6</ele>
        <time>2025-05-09T08:18:40Z</time>
      </trkpt>
      <trkpt lat="36.223997008055449" lon="-5.395658975467086">
        <ele>13.119999999999999</ele>
        <time>2025-05-09T08:18:44Z</time>
      </trkpt>
      <trkpt lat="36.225170977413654" lon="-5.396576039493084">
        <ele>10.23</ele>
        <time>2025-05-09T08:18:52Z</time>
      </trkpt>
      <trkpt lat="36.226409990340471" lon="-5.397466029971838">
        <ele>10.23</ele>
        <time>2025-05-09T08:19:00Z</time>
      </trkpt>
      <trkpt lat="36.226561032235622" lon="-5.397530989721417">
        <ele>10.23</ele>
        <time>2025-05-09T08:19:01Z</time>
      </trkpt>
      <trkpt lat="36.226895973086357" lon="-5.397559991106391">
        <ele>10.710000000000001</ele>
        <time>2025-05-09T08:19:03Z</time>
      </trkpt>
      <trkpt lat="36.227900963276625" lon="-5.397639032453299">
        <ele>12.15</ele>
        <time>2025-05-09T08:19:10Z</time>
      </trkpt>
      <trkpt lat="36.228978959843516" lon="-5.397741962224245">
        <ele>14.56</ele>
        <time>2025-05-09T08:19:18Z</time>
      </trkpt>
      <trkpt lat="36.229420015588403" lon="-5.397819997742772">
        <ele>15.039999999999999</ele>
        <time>2025-05-09T08:19:21Z</time>
      </trkpt>
      <trkpt lat="36.229559993371367" lon="-5.397855034098029">
        <ele>16</ele>
        <time>2025-05-09T08:19:22Z</time>
      </trkpt>
      <trkpt lat="36.230476973578334" lon="-5.398097019642592">
        <ele>17.440000000000001</ele>
        <time>2025-05-09T08:19:29Z</time>
      </trkpt>
      <trkpt lat="36.230609994381666" lon="-5.398141024634242">
        <ele>16.960000000000001</ele>
        <time>2025-05-09T08:19:30Z</time>
      </trkpt>
      <trkpt lat="36.231368975713849" lon="-5.398432966321707">
        <ele>15.039999999999999</ele>
        <time>2025-05-09T08:19:36Z</time>
      </trkpt>
      <trkpt lat="36.231468971818686" lon="-5.398503039032221">
        <ele>14.56</ele>
        <time>2025-05-09T08:19:37Z</time>
      </trkpt>
      <trkpt lat="36.231558993458748" lon="-5.398592976853252">
        <ele>14.08</ele>
        <time>2025-05-09T08:19:38Z</time>
      </trkpt>
      <trkpt lat="36.231644991785288" lon="-5.398707976564765">
        <ele>13.119999999999999</ele>
        <time>2025-05-09T08:19:39Z</time>
      </trkpt>
      <trkpt lat="36.23173501342535" lon="-5.398828005418181">
        <ele>12.630000000000001</ele>
        <time>2025-05-09T08:19:40Z</time>
      </trkpt>
      <trkpt lat="36.231810031458735" lon="-5.39897401817143">
        <ele>12.15</ele>
        <time>2025-05-09T08:19:41Z</time>
      </trkpt>
      <trkpt lat="36.231866022571921" lon="-5.399120030924678">
        <ele>11.19</ele>
        <time>2025-05-09T08:19:42Z</time>
      </trkpt>
      <trkpt lat="36.231917990371585" lon="-5.399262020364404">
        <ele>10.710000000000001</ele>
        <time>2025-05-09T08:19:43Z</time>
      </trkpt>
      <trkpt lat="36.231968030333519" lon="-5.399399986490607">
        <ele>10.23</ele>
        <time>2025-05-09T08:19:44Z</time>
      </trkpt>
      <trkpt lat="36.232129968702793" lon="-5.400061989203095">
        <ele>9.75</ele>
        <time>2025-05-09T08:19:49Z</time>
      </trkpt>
      <trkpt lat="36.232108008116484" lon="-5.400204984471202">
        <ele>9.75</ele>
        <time>2025-05-09T08:19:50Z</time>
      </trkpt>
      <trkpt lat="36.232051011174917" lon="-5.400318978354335">
        <ele>10.23</ele>
        <time>2025-05-09T08:19:51Z</time>
      </trkpt>
      <trkpt lat="36.231980016455054" lon="-5.400433978065848">
        <ele>10.710000000000001</ele>
        <time>2025-05-09T08:19:52Z</time>
      </trkpt>
      <trkpt lat="36.23188697732985" lon="-5.400533974170685">
        <ele>11.67</ele>
        <time>2025-05-09T08:19:53Z</time>
      </trkpt>
      <trkpt lat="36.231783963739872" lon="-5.400644028559327">
        <ele>13.119999999999999</ele>
        <time>2025-05-09T08:19:54Z</time>
      </trkpt>
      <trkpt lat="36.231256993487477" lon="-5.401154989376664">
        <ele>17.440000000000001</ele>
        <time>2025-05-09T08:19:59Z</time>
      </trkpt>
      <trkpt lat="36.231183987110853" lon="-5.401270994916558">
        <ele>18.399999999999999</ele>
        <time>2025-05-09T08:20:00Z</time>
      </trkpt>
      <trkpt lat="36.231107963249087" lon="-5.401390017941594">
        <ele>19.359999999999999</ele>
        <time>2025-05-09T08:20:01Z</time>
      </trkpt>
      <trkpt lat="36.231091031804681" lon="-5.401524966582656">
        <ele>20.32</ele>
        <time>2025-05-09T08:20:02Z</time>
      </trkpt>
      <trkpt lat="36.231072004884481" lon="-5.401676008477807">
        <ele>21.289999999999999</ele>
        <time>2025-05-09T08:20:03Z</time>
      </trkpt>
      <trkpt lat="36.231052977964282" lon="-5.401835013180971">
        <ele>21.77</ele>
        <time>2025-05-09T08:20:04Z</time>
      </trkpt>
      <trkpt lat="36.231072004884481" lon="-5.401998963207007">
        <ele>22.73</ele>
        <time>2025-05-09T08:20:05Z</time>
      </trkpt>
      <trkpt lat="36.231115004047751" lon="-5.402146987617016">
        <ele>23.690000000000001</ele>
        <time>2025-05-09T08:20:06Z</time>
      </trkpt>
      <trkpt lat="36.231174012646079" lon="-5.402291994541884">
        <ele>24.170000000000002</ele>
        <time>2025-05-09T08:20:07Z</time>
      </trkpt>
      <trkpt lat="36.231274008750916" lon="-5.402386039495468">
        <ele>25.129999999999999</ele>
        <time>2025-05-09T08:20:08Z</time>
      </trkpt>
      <trkpt lat="36.231381967663765" lon="-5.402488969266415">
        <ele>26.57</ele>
        <time>2025-05-09T08:20:09Z</time>
      </trkpt>
      <trkpt lat="36.231719003990293" lon="-5.40282198227942">
        <ele>28.98</ele>
        <time>2025-05-09T08:20:12Z</time>
      </trkpt>
      <trkpt lat="36.231989990919828" lon="-5.403113001957536">
        <ele>31.859999999999999</ele>
        <time>2025-05-09T08:20:15Z</time>
      </trkpt>
      <trkpt lat="36.232023015618324" lon="-5.40323001332581">
        <ele>32.340000000000003</ele>
        <time>2025-05-09T08:20:16Z</time>
      </trkpt>
      <trkpt lat="36.232030978426337" lon="-5.403336966410279">
        <ele>32.82</ele>
        <time>2025-05-09T08:20:17Z</time>
      </trkpt>
      <trkpt lat="36.23199200257659" lon="-5.403432017192245">
        <ele>33.780000000000001</ele>
        <time>2025-05-09T08:20:18Z</time>
      </trkpt>
      <trkpt lat="36.23190701007843" lon="-5.403489014133811">
        <ele>34.740000000000002</ele>
        <time>2025-05-09T08:20:19Z</time>
      </trkpt>
      <trkpt lat="36.231794022023678" lon="-5.403538970276713">
        <ele>35.229999999999997</ele>
        <time>2025-05-09T08:20:20Z</time>
      </trkpt>
      <trkpt lat="36.231657983735204" lon="-5.403551962226629">
        <ele>36.189999999999998</ele>
        <time>2025-05-09T08:20:21Z</time>
      </trkpt>
      <trkpt lat="36.231509959325194" lon="-5.403565037995577">
        <ele>36.670000000000002</ele>
        <time>2025-05-09T08:20:22Z</time>
      </trkpt>
      <trkpt lat="36.231225980445743" lon="-5.403591021895409">
        <ele>38.590000000000003</ele>
        <time>2025-05-09T08:20:24Z</time>
      </trkpt>
      <trkpt lat="36.231104023754597" lon="-5.403624968603253">
        <ele>39.549999999999997</ele>
        <time>2025-05-09T08:20:25Z</time>
      </trkpt>
      <trkpt lat="36.231016013771296" lon="-5.403713984414935">
        <ele>40.509999999999998</ele>
        <time>2025-05-09T08:20:26Z</time>
      </trkpt>
      <trkpt lat="36.230943007394671" lon="-5.403813980519772">
        <ele>41.950000000000003</ele>
        <time>2025-05-09T08:20:27Z</time>
      </trkpt>
      <trkpt lat="36.230885004624724" lon="-5.4039609991014">
        <ele>42.920000000000002</ele>
        <time>2025-05-09T08:20:28Z</time>
      </trkpt>
      <trkpt lat="36.230858014896512" lon="-5.404138024896383">
        <ele>43.880000000000003</ele>
        <time>2025-05-09T08:20:29Z</time>
      </trkpt>
      <trkpt lat="36.230715019628406" lon="-5.404928019270301">
        <ele>48.68</ele>
        <time>2025-05-09T08:20:33Z</time>
      </trkpt>
      <trkpt lat="36.230661040171981" lon="-5.405113007873297">
        <ele>50.130000000000003</ele>
        <time>2025-05-09T08:20:34Z</time>
      </trkpt>
      <trkpt lat="36.230556014925241" lon="-5.405263965949416">
        <ele>52.049999999999997</ele>
        <time>2025-05-09T08:20:35Z</time>
      </trkpt>
      <trkpt lat="36.229456979781389" lon="-5.406609009951353">
        <ele>68.390000000000001</ele>
        <time>2025-05-09T08:20:44Z</time>
      </trkpt>
      <trkpt lat="36.228553997352719" lon="-5.407853974029422">
        <ele>75.599999999999994</ele>
        <time>2025-05-09T08:20:51Z</time>
      </trkpt>
      <trkpt lat="36.227747993543744" lon="-5.409079995006323">
        <ele>72.719999999999999</ele>
        <time>2025-05-09T08:20:58Z</time>
      </trkpt>
      <trkpt lat="36.227703988552094" lon="-5.409268001094461">
        <ele>72.239999999999995</ele>
        <time>2025-05-09T08:20:59Z</time>
      </trkpt>
      <trkpt lat="36.227703988552094" lon="-5.409424994140863">
        <ele>71.760000000000005</ele>
        <time>2025-05-09T08:21:00Z</time>
      </trkpt>
      <trkpt lat="36.227713963016868" lon="-5.409579975530505">
        <ele>71.269999999999996</ele>
        <time>2025-05-09T08:21:01Z</time>
      </trkpt>
      <trkpt lat="36.227729972451925" lon="-5.409757001325488">
        <ele>70.790000000000006</ele>
        <time>2025-05-09T08:21:02Z</time>
      </trkpt>
      <trkpt lat="36.227859975770116" lon="-5.411251997575164">
        <ele>66.950000000000003</ele>
        <time>2025-05-09T08:21:09Z</time>
      </trkpt>
      <trkpt lat="36.227853018790483" lon="-5.411868989467621">
        <ele>65.510000000000005</ele>
        <time>2025-05-09T08:21:12Z</time>
      </trkpt>
      <trkpt lat="36.227839021012187" lon="-5.412064958363771">
        <ele>65.030000000000001</ele>
        <time>2025-05-09T08:21:13Z</time>
      </trkpt>
      <trkpt lat="36.227826029062271" lon="-5.412236033007503">
        <ele>64.069999999999993</ele>
        <time>2025-05-09T08:21:14Z</time>
      </trkpt>
      <trkpt lat="36.227778000757098" lon="-5.412358995527029">
        <ele>63.579999999999998</ele>
        <time>2025-05-09T08:21:15Z</time>
      </trkpt>
      <trkpt lat="36.22771798633039" lon="-5.412505008280277">
        <ele>63.579999999999998</ele>
        <time>2025-05-09T08:21:16Z</time>
      </trkpt>
      <trkpt lat="36.227630982175469" lon="-5.412643980234861">
        <ele>63.100000000000001</ele>
        <time>2025-05-09T08:21:17Z</time>
      </trkpt>
      <trkpt lat="36.227534003555775" lon="-5.412799967452884">
        <ele>62.619999999999997</ele>
        <time>2025-05-09T08:21:18Z</time>
      </trkpt>
      <trkpt lat="36.227429984137416" lon="-5.412965007126331">
        <ele>62.140000000000001</ele>
        <time>2025-05-09T08:21:19Z</time>
      </trkpt>
      <trkpt lat="36.227147011086345" lon="-5.413457024842501">
        <ele>60.700000000000003</ele>
        <time>2025-05-09T08:21:22Z</time>
      </trkpt>
      <trkpt lat="36.227076016366482" lon="-5.41364997625351">
        <ele>60.219999999999999</ele>
        <time>2025-05-09T08:21:23Z</time>
      </trkpt>
      <trkpt lat="36.227011978626251" lon="-5.413853991776705">
        <ele>59.740000000000002</ele>
        <time>2025-05-09T08:21:24Z</time>
      </trkpt>
      <trkpt lat="36.226915000006557" lon="-5.414269985631108">
        <ele>58.299999999999997</ele>
        <time>2025-05-09T08:21:26Z</time>
      </trkpt>
      <trkpt lat="36.226853979751468" lon="-5.414471989497542">
        <ele>57.82</ele>
        <time>2025-05-09T08:21:27Z</time>
      </trkpt>
      <trkpt lat="36.226765969768167" lon="-5.414661001414061">
        <ele>57.340000000000003</ele>
        <time>2025-05-09T08:21:28Z</time>
      </trkpt>
      <trkpt lat="36.225916966795921" lon="-5.416479036211968">
        <ele>52.530000000000001</ele>
        <time>2025-05-09T08:21:37Z</time>
      </trkpt>
      <trkpt lat="36.225834991782904" lon="-5.416652038693428">
        <ele>52.049999999999997</ele>
        <time>2025-05-09T08:21:38Z</time>
      </trkpt>
      <trkpt lat="36.225800961256027" lon="-5.416841972619295">
        <ele>51.090000000000003</ele>
        <time>2025-05-09T08:21:39Z</time>
      </trkpt>
      <trkpt lat="36.225789980962873" lon="-5.417030984535813">
        <ele>50.609999999999999</ele>
        <time>2025-05-09T08:21:40Z</time>
      </trkpt>
      <trkpt lat="36.225786963477731" lon="-5.417207004502416">
        <ele>50.130000000000003</ele>
        <time>2025-05-09T08:21:41Z</time>
      </trkpt>
      <trkpt lat="36.225786963477731" lon="-5.41738897562027">
        <ele>49.649999999999999</ele>
        <time>2025-05-09T08:21:42Z</time>
      </trkpt>
      <trkpt lat="36.225840020924807" lon="-5.418879026547074">
        <ele>49.159999999999997</ele>
        <time>2025-05-09T08:21:50Z</time>
      </trkpt>
      <trkpt lat="36.225814037024975" lon="-5.419069966301322">
        <ele>49.159999999999997</ele>
        <time>2025-05-09T08:21:51Z</time>
      </trkpt>
      <trkpt lat="36.22561002150178" lon="-5.420041009783745">
        <ele>46.280000000000001</ele>
        <time>2025-05-09T08:21:56Z</time>
      </trkpt>
      <trkpt lat="36.225598035380244" lon="-5.420205965638161">
        <ele>45.799999999999997</ele>
        <time>2025-05-09T08:21:57Z</time>
      </trkpt>
      <trkpt lat="36.22561002150178" lon="-5.420329011976719">
        <ele>44.840000000000003</ele>
        <time>2025-05-09T08:21:58Z</time>
      </trkpt>
      <trkpt lat="36.225643968209624" lon="-5.420419033616781">
        <ele>44.840000000000003</ele>
        <time>2025-05-09T08:21:59Z</time>
      </trkpt>
      <trkpt lat="36.225702976807952" lon="-5.420500002801418">
        <ele>44.359999999999999</ele>
        <time>2025-05-09T08:22:00Z</time>
      </trkpt>
      <trkpt lat="36.225773971527815" lon="-5.420596981421113">
        <ele>44.359999999999999</ele>
        <time>2025-05-09T08:22:01Z</time>
      </trkpt>
      <trkpt lat="36.225852007046342" lon="-5.420709969475865">
        <ele>44.359999999999999</ele>
        <time>2025-05-09T08:22:02Z</time>
      </trkpt>
      <trkpt lat="36.225876985117793" lon="-5.420872997492552">
        <ele>43.880000000000003</ele>
        <time>2025-05-09T08:22:03Z</time>
      </trkpt>
      <trkpt lat="36.225905986502767" lon="-5.421057986095548">
        <ele>42.920000000000002</ele>
        <time>2025-05-09T08:22:04Z</time>
      </trkpt>
      <trkpt lat="36.226001037284732" lon="-5.422439994290471">
        <ele>36.189999999999998</ele>
        <time>2025-05-09T08:22:11Z</time>
      </trkpt>
      <trkpt lat="36.22647101059556" lon="-5.423784032464027">
        <ele>32.82</ele>
        <time>2025-05-09T08:22:18Z</time>
      </trkpt>
      <trkpt lat="36.226813998073339" lon="-5.424656001850963">
        <ele>31.859999999999999</ele>
        <time>2025-05-09T08:22:24Z</time>
      </trkpt>
      <trkpt lat="36.226893039420247" lon="-5.424768989905715">
        <ele>31.859999999999999</ele>
        <time>2025-05-09T08:22:25Z</time>
      </trkpt>
      <trkpt lat="36.227479018270969" lon="-5.425354968756437">
        <ele>30.899999999999999</ele>
        <time>2025-05-09T08:22:31Z</time>
      </trkpt>
      <trkpt lat="36.227532997727394" lon="-5.425459994003177">
        <ele>30.420000000000002</ele>
        <time>2025-05-09T08:22:32Z</time>
      </trkpt>
      <trkpt lat="36.227564010769129" lon="-5.425591003149748">
        <ele>29.940000000000001</ele>
        <time>2025-05-09T08:22:33Z</time>
      </trkpt>
      <trkpt lat="36.227549007162452" lon="-5.425740033388138">
        <ele>29.940000000000001</ele>
        <time>2025-05-09T08:22:34Z</time>
      </trkpt>
      <trkpt lat="36.227520005777478" lon="-5.425905995070934">
        <ele>29.460000000000001</ele>
        <time>2025-05-09T08:22:35Z</time>
      </trkpt>
      <trkpt lat="36.227485975250602" lon="-5.426085032522678">
        <ele>28.98</ele>
        <time>2025-05-09T08:22:36Z</time>
      </trkpt>
      <trkpt lat="36.227212976664305" lon="-5.427437033504248">
        <ele>23.210000000000001</ele>
        <time>2025-05-09T08:22:43Z</time>
      </trkpt>
      <trkpt lat="36.227169977501035" lon="-5.427625039592385">
        <ele>22.25</ele>
        <time>2025-05-09T08:22:44Z</time>
      </trkpt>
      <trkpt lat="36.226840987801552" lon="-5.429209973663092">
        <ele>17.440000000000001</ele>
        <time>2025-05-09T08:22:52Z</time>
      </trkpt>
      <trkpt lat="36.226764963939786" lon="-5.429513985291123">
        <ele>17.440000000000001</ele>
        <time>2025-05-09T08:22:54Z</time>
      </trkpt>
      <trkpt lat="36.226700004190207" lon="-5.429653963074088">
        <ele>17.440000000000001</ele>
        <time>2025-05-09T08:22:55Z</time>
      </trkpt>
      <trkpt lat="36.226623980328441" lon="-5.429784972220659">
        <ele>17.440000000000001</ele>
        <time>2025-05-09T08:22:56Z</time>
      </trkpt>
      <trkpt lat="36.226377971470356" lon="-5.430207001045346">
        <ele>17.920000000000002</ele>
        <time>2025-05-09T08:22:59Z</time>
      </trkpt>
      <trkpt lat="36.226344024762511" lon="-5.43032300658524">
        <ele>18.399999999999999</ele>
        <time>2025-05-09T08:23:00Z</time>
      </trkpt>
      <trkpt lat="36.226326003670692" lon="-5.430400958284736">
        <ele>17.920000000000002</ele>
        <time>2025-05-09T08:23:01Z</time>
      </trkpt>
      <trkpt lat="36.226305970922112" lon="-5.430483017116785">
        <ele>17.920000000000002</ele>
        <time>2025-05-09T08:23:03Z</time>
      </trkpt>
      <trkpt lat="36.226305970922112" lon="-5.430483017116785">
        <ele>17.920000000000002</ele>
        <time>2025-05-09T08:23:14Z</time>
      </trkpt>
      <trkpt lat="36.226305970922112" lon="-5.430483017116785">
        <ele>17.920000000000002</ele>
        <time>2025-05-09T08:23:19Z</time>
      </trkpt>
      <trkpt lat="36.226331032812595" lon="-5.43060002848506">
        <ele>18.399999999999999</ele>
        <time>2025-05-09T08:23:20Z</time>
      </trkpt>
      <trkpt lat="36.226375959813595" lon="-5.430604973807931">
        <ele>18.879999999999999</ele>
        <time>2025-05-09T08:23:21Z</time>
      </trkpt>
      <trkpt lat="36.226451983675361" lon="-5.430615032091737">
        <ele>18.879999999999999</ele>
        <time>2025-05-09T08:23:22Z</time>
      </trkpt>
      <trkpt lat="36.226523984223604" lon="-5.430635986849666">
        <ele>19.359999999999999</ele>
        <time>2025-05-09T08:23:23Z</time>
      </trkpt>
      <trkpt lat="36.226694975048304" lon="-5.430688038468361">
        <ele>19.359999999999999</ele>
        <time>2025-05-09T08:23:25Z</time>
      </trkpt>
      <trkpt lat="36.226770998910069" lon="-5.430711004883051">
        <ele>19.84</ele>
        <time>2025-05-09T08:23:26Z</time>
      </trkpt>
      <trkpt lat="36.226932015269995" lon="-5.430663982406259">
        <ele>20.32</ele>
        <time>2025-05-09T08:23:27Z</time>
      </trkpt>
      <trkpt lat="36.227064030244946" lon="-5.430487962439656">
        <ele>21.289999999999999</ele>
        <time>2025-05-09T08:23:29Z</time>
      </trkpt>
      <trkpt lat="36.227171989157796" lon="-5.43045200407505">
        <ele>21.77</ele>
        <time>2025-05-09T08:23:30Z</time>
      </trkpt>
      <trkpt lat="36.227266034111381" lon="-5.43047497048974">
        <ele>21.77</ele>
        <time>2025-05-09T08:23:31Z</time>
      </trkpt>
      <trkpt lat="36.227355971932411" lon="-5.430531967431307">
        <ele>22.25</ele>
        <time>2025-05-09T08:23:32Z</time>
      </trkpt>
      <trkpt lat="36.227440964430571" lon="-5.43062299489975">
        <ele>21.77</ele>
        <time>2025-05-09T08:23:33Z</time>
      </trkpt>
      <trkpt lat="36.227465020492673" lon="-5.430733971297741">
        <ele>21.289999999999999</ele>
        <time>2025-05-09T08:23:34Z</time>
      </trkpt>
      <trkpt lat="36.227474994957447" lon="-5.430863974615932">
        <ele>21.289999999999999</ele>
        <time>2025-05-09T08:23:35Z</time>
      </trkpt>
      <trkpt lat="36.227451022714376" lon="-5.430999007076025">
        <ele>21.289999999999999</ele>
        <time>2025-05-09T08:23:36Z</time>
      </trkpt>
      <trkpt lat="36.227396037429571" lon="-5.431108977645636">
        <ele>21.289999999999999</ele>
        <time>2025-05-09T08:23:37Z</time>
      </trkpt>
      <trkpt lat="36.227280031889677" lon="-5.431191036477685">
        <ele>20.809999999999999</ele>
        <time>2025-05-09T08:23:38Z</time>
      </trkpt>
      <trkpt lat="36.227192021906376" lon="-5.431306958198547">
        <ele>20.809999999999999</ele>
        <time>2025-05-09T08:23:39Z</time>
      </trkpt>
      <trkpt lat="36.227109041064978" lon="-5.431446013972163">
        <ele>20.32</ele>
        <time>2025-05-09T08:23:40Z</time>
      </trkpt>
      <trkpt lat="36.227023964747787" lon="-5.431591020897031">
        <ele>20.32</ele>
        <time>2025-05-09T08:23:41Z</time>
      </trkpt>
      <trkpt lat="36.226939978078008" lon="-5.431732004508376">
        <ele>19.84</ele>
        <time>2025-05-09T08:23:42Z</time>
      </trkpt>
      <trkpt lat="36.226876024156809" lon="-5.431892015039921">
        <ele>19.359999999999999</ele>
        <time>2025-05-09T08:23:43Z</time>
      </trkpt>
      <trkpt lat="36.226830007508397" lon="-5.432059988379479">
        <ele>18.879999999999999</ele>
        <time>2025-05-09T08:23:44Z</time>
      </trkpt>
      <trkpt lat="36.226379983127117" lon="-5.433860002085567">
        <ele>16.960000000000001</ele>
        <time>2025-05-09T08:23:53Z</time>
      </trkpt>
      <trkpt lat="36.226365985348821" lon="-5.43408396653831">
        <ele>16.48</ele>
        <time>2025-05-09T08:23:54Z</time>
      </trkpt>
      <trkpt lat="36.226365985348821" lon="-5.434311032295227">
        <ele>16.48</ele>
        <time>2025-05-09T08:23:55Z</time>
      </trkpt>
      <trkpt lat="36.226365985348821" lon="-5.434542037546635">
        <ele>16</ele>
        <time>2025-05-09T08:23:56Z</time>
      </trkpt>
      <trkpt lat="36.226399010047317" lon="-5.434773964807391">
        <ele>16</ele>
        <time>2025-05-09T08:23:57Z</time>
      </trkpt>
      <trkpt lat="36.226805029436946" lon="-5.436011971905828">
        <ele>13.6</ele>
        <time>2025-05-09T08:24:03Z</time>
      </trkpt>
      <trkpt lat="36.226915000006557" lon="-5.436183968558908">
        <ele>13.119999999999999</ele>
        <time>2025-05-09T08:24:04Z</time>
      </trkpt>
      <trkpt lat="36.227024970576167" lon="-5.436356971040368">
        <ele>12.630000000000001</ele>
        <time>2025-05-09T08:24:05Z</time>
      </trkpt>
      <trkpt lat="36.227135024964809" lon="-5.436529973521829">
        <ele>11.67</ele>
        <time>2025-05-09T08:24:06Z</time>
      </trkpt>
      <trkpt lat="36.227267039939761" lon="-5.436676992103458">
        <ele>11.19</ele>
        <time>2025-05-09T08:24:07Z</time>
      </trkpt>
      <trkpt lat="36.227410035207868" lon="-5.436802972108126">
        <ele>10.710000000000001</ele>
        <time>2025-05-09T08:24:08Z</time>
      </trkpt>
      <trkpt lat="36.227555964142084" lon="-5.436930963769555">
        <ele>10.710000000000001</ele>
        <time>2025-05-09T08:24:09Z</time>
      </trkpt>
      <trkpt lat="36.227700971066952" lon="-5.437059039250016">
        <ele>10.23</ele>
        <time>2025-05-09T08:24:10Z</time>
      </trkpt>
      <trkpt lat="36.22786701656878" lon="-5.437143025919795">
        <ele>9.75</ele>
        <time>2025-05-09T08:24:11Z</time>
      </trkpt>
      <trkpt lat="36.228033984079957" lon="-5.437221983447671">
        <ele>9.27</ele>
        <time>2025-05-09T08:24:12Z</time>
      </trkpt>
      <trkpt lat="36.228544022887945" lon="-5.437419964000583">
        <ele>7.83</ele>
        <time>2025-05-09T08:24:15Z</time>
      </trkpt>
      <trkpt lat="36.228719959035516" lon="-5.437449971213937">
        <ele>7.35</ele>
        <time>2025-05-09T08:24:16Z</time>
      </trkpt>
      <trkpt lat="36.230411008000374" lon="-5.43747897259891">
        <ele>3.98</ele>
        <time>2025-05-09T08:24:26Z</time>
      </trkpt>
      <trkpt lat="36.230686018243432" lon="-5.437466986477375">
        <ele>3.02</ele>
        <time>2025-05-09T08:24:29Z</time>
      </trkpt>
      <trkpt lat="36.230729017406702" lon="-5.437464974820614">
        <ele>2.54</ele>
        <time>2025-05-09T08:24:30Z</time>
      </trkpt>
      <trkpt lat="36.230850974097848" lon="-5.437358021736145">
        <ele>2.54</ele>
        <time>2025-05-09T08:24:31Z</time>
      </trkpt>
      <trkpt lat="36.230850974097848" lon="-5.437317034229636">
        <ele>2.06</ele>
        <time>2025-05-09T08:24:32Z</time>
      </trkpt>
      <trkpt lat="36.230850974097848" lon="-5.437278980389237">
        <ele>1.58</ele>
        <time>2025-05-09T08:24:33Z</time>
      </trkpt>
      <trkpt lat="36.2308310251683" lon="-5.437461035326123">
        <ele>1.58</ele>
        <time>2025-05-09T08:24:34Z</time>
      </trkpt>
      <trkpt lat="36.23085499741137" lon="-5.437460029497743">
        <ele>1.1</ele>
        <time>2025-05-09T08:24:35Z</time>
      </trkpt>
      <trkpt lat="36.230904031544924" lon="-5.437458017840982">
        <ele>0.62</ele>
        <time>2025-05-09T08:24:37Z</time>
      </trkpt>
      <trkpt lat="36.230924986302853" lon="-5.437457012012601">
        <ele>0.62</ele>
        <time>2025-05-09T08:24:38Z</time>
      </trkpt>
      <trkpt lat="36.230850974097848" lon="-5.437265988439322">
        <ele>0.14</ele>
        <time>2025-05-09T08:24:39Z</time>
      </trkpt>
      <trkpt lat="36.230850974097848" lon="-5.437265988439322">
        <ele>0.14</ele>
        <time>2025-05-09T08:24:50Z</time>
      </trkpt>
      <trkpt lat="36.230850974097848" lon="-5.437265988439322">
        <ele>0.14</ele>
        <time>2025-05-09T08:25:32Z</time>
      </trkpt>
      <trkpt lat="36.230850974097848" lon="-5.437265988439322">
        <ele>0.62</ele>
        <time>2025-05-09T08:26:06Z</time>
      </trkpt>
      <trkpt lat="36.230850974097848" lon="-5.437281997874379">
        <ele>0.62</ele>
        <time>2025-05-09T08:26:20Z</time>
      </trkpt>
      <trkpt lat="36.230850974097848" lon="-5.437322985380888">
        <ele>0.62</ele>
        <time>2025-05-09T08:26:21Z</time>
      </trkpt>
      <trkpt lat="36.230850974097848" lon="-5.437365984544158">
        <ele>1.1</ele>
        <time>2025-05-09T08:26:22Z</time>
      </trkpt>
      <trkpt lat="36.230980977416039" lon="-5.43745500035584">
        <ele>1.58</ele>
        <time>2025-05-09T08:26:23Z</time>
      </trkpt>
      <trkpt lat="36.231020959094167" lon="-5.437452988699079">
        <ele>1.58</ele>
        <time>2025-05-09T08:26:24Z</time>
      </trkpt>
      <trkpt lat="36.231086002662778" lon="-5.437449971213937">
        <ele>1.58</ele>
        <time>2025-05-09T08:26:25Z</time>
      </trkpt>
      <trkpt lat="36.231169989332557" lon="-5.437447037547827">
        <ele>1.1</ele>
        <time>2025-05-09T08:26:26Z</time>
      </trkpt>
      <trkpt lat="36.231951015070081" lon="-5.437332037836313">
        <ele>-0.34</ele>
        <time>2025-05-09T08:26:32Z</time>
      </trkpt>
      <trkpt lat="36.233591018244624" lon="-5.436829039826989">
        <ele>1.58</ele>
        <time>2025-05-09T08:26:41Z</time>
      </trkpt>
      <trkpt lat="36.235352978110313" lon="-5.436237026005983">
        <ele>2.54</ele>
        <time>2025-05-09T08:26:50Z</time>
      </trkpt>
      <trkpt lat="36.237329011783004" lon="-5.435610981658101">
        <ele>1.58</ele>
        <time>2025-05-09T08:27:00Z</time>
      </trkpt>
      <trkpt lat="36.239022994413972" lon="-5.435279980301857">
        <ele>3.02</ele>
        <time>2025-05-09T08:27:09Z</time>
      </trkpt>
      <trkpt lat="36.240333002060652" lon="-5.435419036075473">
        <ele>3.5</ele>
        <time>2025-05-09T08:27:16Z</time>
      </trkpt>
      <trkpt lat="36.242291014641523" lon="-5.436225961893797">
        <ele>4.46</ele>
        <time>2025-05-09T08:27:26Z</time>
      </trkpt>
      <trkpt lat="36.244176020845771" lon="-5.437245033681393">
        <ele>4.46</ele>
        <time>2025-05-09T08:27:36Z</time>
      </trkpt>
      <trkpt lat="36.245648972690105" lon="-5.437833024188876">
        <ele>4.94</ele>
        <time>2025-05-09T08:27:44Z</time>
      </trkpt>
      <trkpt lat="36.247485028579831" lon="-5.438308026641607">
        <ele>5.42</ele>
        <time>2025-05-09T08:27:53Z</time>
      </trkpt>
      <trkpt lat="36.24939501285553" lon="-5.438511958345771">
        <ele>3.98</ele>
        <time>2025-05-09T08:28:02Z</time>
      </trkpt>
      <trkpt lat="36.250848015770316" lon="-5.438543977215886">
        <ele>3.98</ele>
        <time>2025-05-09T08:28:09Z</time>
      </trkpt>
      <trkpt lat="36.252871993929148" lon="-5.438545988872647">
        <ele>3.5</ele>
        <time>2025-05-09T08:28:19Z</time>
      </trkpt>
      <trkpt lat="36.25435802154243" lon="-5.438208030536771">
        <ele>1.58</ele>
        <time>2025-05-09T08:28:26Z</time>
      </trkpt>
      <trkpt lat="36.256071031093597" lon="-5.437620962038636">
        <ele>-0.82</ele>
        <time>2025-05-09T08:28:33Z</time>
      </trkpt>
      <trkpt lat="36.257599974051118" lon="-5.43709198012948">
        <ele>-1.3</ele>
        <time>2025-05-09T08:28:40Z</time>
      </trkpt>
      <trkpt lat="36.259406022727489" lon="-5.436728037893772">
        <ele>0.62</ele>
        <time>2025-05-09T08:28:48Z</time>
      </trkpt>
      <trkpt lat="36.261853035539389" lon="-5.436326041817665">
        <ele>2.54</ele>
        <time>2025-05-09T08:28:59Z</time>
      </trkpt>
      <trkpt lat="36.263076961040497" lon="-5.435913987457752">
        <ele>3.02</ele>
        <time>2025-05-09T08:29:05Z</time>
      </trkpt>
      <trkpt lat="36.264492999762297" lon="-5.435591032728553">
        <ele>4.94</ele>
        <time>2025-05-09T08:29:12Z</time>
      </trkpt>
      <trkpt lat="36.265649031847715" lon="-5.434997007250786">
        <ele>4.94</ele>
        <time>2025-05-09T08:29:18Z</time>
      </trkpt>
      <trkpt lat="36.266680005937815" lon="-5.434143980965018">
        <ele>3.98</ele>
        <time>2025-05-09T08:29:24Z</time>
      </trkpt>
      <trkpt lat="36.266866000369191" lon="-5.434035016223788">
        <ele>3.98</ele>
        <time>2025-05-09T08:29:25Z</time>
      </trkpt>
      <trkpt lat="36.268483037129045" lon="-5.433311993256211">
        <ele>6.39</ele>
        <time>2025-05-09T08:29:33Z</time>
      </trkpt>
      <trkpt lat="36.270007034763694" lon="-5.432547982782126">
        <ele>11.19</ele>
        <time>2025-05-09T08:29:41Z</time>
      </trkpt>
      <trkpt lat="36.270199986174703" lon="-5.432494003325701">
        <ele>12.15</ele>
        <time>2025-05-09T08:29:42Z</time>
      </trkpt>
      <trkpt lat="36.270394027233124" lon="-5.432439018040896">
        <ele>12.630000000000001</ele>
        <time>2025-05-09T08:29:43Z</time>
      </trkpt>
      <trkpt lat="36.272004023194313" lon="-5.43204003944993">
        <ele>15.52</ele>
        <time>2025-05-09T08:29:51Z</time>
      </trkpt>
      <trkpt lat="36.273774029687047" lon="-5.431292038410902">
        <ele>19.359999999999999</ele>
        <time>2025-05-09T08:30:00Z</time>
      </trkpt>
      <trkpt lat="36.275510005652905" lon="-5.430599022656679">
        <ele>21.289999999999999</ele>
        <time>2025-05-09T08:30:09Z</time>
      </trkpt>
      <trkpt lat="36.276493035256863" lon="-5.430335998535156">
        <ele>20.32</ele>
        <time>2025-05-09T08:30:16Z</time>
      </trkpt>
      <trkpt lat="36.276622032746673" lon="-5.430335998535156">
        <ele>20.32</ele>
        <time>2025-05-09T08:30:17Z</time>
      </trkpt>
      <trkpt lat="36.27676997333765" lon="-5.430335998535156">
        <ele>20.32</ele>
        <time>2025-05-09T08:30:18Z</time>
      </trkpt>
      <trkpt lat="36.276870975270867" lon="-5.430373968556523">
        <ele>20.32</ele>
        <time>2025-05-09T08:30:19Z</time>
      </trkpt>
      <trkpt lat="36.277354024350643" lon="-5.430552000179887">
        <ele>19.84</ele>
        <time>2025-05-09T08:30:23Z</time>
      </trkpt>
      <trkpt lat="36.277478998526931" lon="-5.430577984079719">
        <ele>19.359999999999999</ele>
        <time>2025-05-09T08:30:24Z</time>
      </trkpt>
      <trkpt lat="36.277599027380347" lon="-5.43060396797955">
        <ele>19.359999999999999</ele>
        <time>2025-05-09T08:30:25Z</time>
      </trkpt>
      <trkpt lat="36.277833972126245" lon="-5.430658031255007">
        <ele>19.359999999999999</ele>
        <time>2025-05-09T08:30:27Z</time>
      </trkpt>
      <trkpt lat="36.27795098349452" lon="-5.4306860268116">
        <ele>20.32</ele>
        <time>2025-05-09T08:30:28Z</time>
      </trkpt>
      <trkpt lat="36.27805600874126" lon="-5.430736988782883">
        <ele>19.84</ele>
        <time>2025-05-09T08:30:29Z</time>
      </trkpt>
      <trkpt lat="36.278159022331238" lon="-5.430827010422945">
        <ele>20.32</ele>
        <time>2025-05-09T08:30:30Z</time>
      </trkpt>
      <trkpt lat="36.278247032314539" lon="-5.430934969335794">
        <ele>19.84</ele>
        <time>2025-05-09T08:30:31Z</time>
      </trkpt>
      <trkpt lat="36.278333030641079" lon="-5.43105399236083">
        <ele>19.84</ele>
        <time>2025-05-09T08:30:32Z</time>
      </trkpt>
      <trkpt lat="36.278418023139238" lon="-5.431172009557486">
        <ele>19.84</ele>
        <time>2025-05-09T08:30:33Z</time>
      </trkpt>
      <trkpt lat="36.279171975329518" lon="-5.43214799836278">
        <ele>18.399999999999999</ele>
        <time>2025-05-09T08:30:42Z</time>
      </trkpt>
      <trkpt lat="36.279264008626342" lon="-5.432232990860939">
        <ele>18.879999999999999</ele>
        <time>2025-05-09T08:30:43Z</time>
      </trkpt>
      <trkpt lat="36.279357969760895" lon="-5.432305997237563">
        <ele>18.399999999999999</ele>
        <time>2025-05-09T08:30:44Z</time>
      </trkpt>
      <trkpt lat="36.279465006664395" lon="-5.432359976693988">
        <ele>17.920000000000002</ele>
        <time>2025-05-09T08:30:45Z</time>
      </trkpt>
      <trkpt lat="36.279571037739515" lon="-5.432410016655922">
        <ele>17.920000000000002</ele>
        <time>2025-05-09T08:30:46Z</time>
      </trkpt>
      <trkpt lat="36.279865996912122" lon="-5.432533985003829">
        <ele>17.440000000000001</ele>
        <time>2025-05-09T08:30:49Z</time>
      </trkpt>
      <trkpt lat="36.279949983581901" lon="-5.432568015530706">
        <ele>17.440000000000001</ele>
        <time>2025-05-09T08:30:50Z</time>
      </trkpt>
      <trkpt lat="36.280026007443666" lon="-5.432576984167099">
        <ele>17.440000000000001</ele>
        <time>2025-05-09T08:30:51Z</time>
      </trkpt>
      <trkpt lat="36.280089039355516" lon="-5.432584024965763">
        <ele>16.960000000000001</ele>
        <time>2025-05-09T08:30:52Z</time>
      </trkpt>
      <trkpt lat="36.28018400631845" lon="-5.432500038295984">
        <ele>16.48</ele>
        <time>2025-05-09T08:30:53Z</time>
      </trkpt>
      <trkpt lat="36.280246032401919" lon="-5.432374980300665">
        <ele>16.48</ele>
        <time>2025-05-09T08:30:54Z</time>
      </trkpt>
      <trkpt lat="36.280268998816609" lon="-5.432366011664271">
        <ele>16.48</ele>
        <time>2025-05-09T08:30:55Z</time>
      </trkpt>
      <trkpt lat="36.280346028506756" lon="-5.432334998622537">
        <ele>16.48</ele>
        <time>2025-05-09T08:30:56Z</time>
      </trkpt>
      <trkpt lat="36.280352985486388" lon="-5.432331981137395">
        <ele>16.48</ele>
        <time>2025-05-09T08:30:57Z</time>
      </trkpt>
      <trkpt lat="36.28052799962461" lon="-5.432296022772789">
        <ele>16</ele>
        <time>2025-05-09T08:30:58Z</time>
      </trkpt>
      <trkpt lat="36.28059396520257" lon="-5.432217987254262">
        <ele>16</ele>
        <time>2025-05-09T08:30:59Z</time>
      </trkpt>
      <trkpt lat="36.280660014599562" lon="-5.432129977270961">
        <ele>16</ele>
        <time>2025-05-09T08:31:00Z</time>
      </trkpt>
      <trkpt lat="36.281119007617235" lon="-5.431456994265318">
        <ele>15.039999999999999</ele>
        <time>2025-05-09T08:31:06Z</time>
      </trkpt>
      <trkpt lat="36.281187990680337" lon="-5.431308969855309">
        <ele>14.56</ele>
        <time>2025-05-09T08:31:07Z</time>
      </trkpt>
      <trkpt lat="36.281242975965142" lon="-5.431144014000893">
        <ele>14.08</ele>
        <time>2025-05-09T08:31:08Z</time>
      </trkpt>
      <trkpt lat="36.281289998441935" lon="-5.430972017347813">
        <ele>14.08</ele>
        <time>2025-05-09T08:31:09Z</time>
      </trkpt>
      <trkpt lat="36.281340960413218" lon="-5.430787028744817">
        <ele>13.6</ele>
        <time>2025-05-09T08:31:10Z</time>
      </trkpt>
      <trkpt lat="36.281687971204519" lon="-5.429105032235384">
        <ele>12.15</ele>
        <time>2025-05-09T08:31:18Z</time>
      </trkpt>
      <trkpt lat="36.281855022534728" lon="-5.428448980674148">
        <ele>12.15</ele>
        <time>2025-05-09T08:31:21Z</time>
      </trkpt>
      <trkpt lat="36.281912019476295" lon="-5.428242031484842">
        <ele>12.630000000000001</ele>
        <time>2025-05-09T08:31:22Z</time>
      </trkpt>
      <trkpt lat="36.282028025016189" lon="-5.428067017346621">
        <ele>12.15</ele>
        <time>2025-05-09T08:31:23Z</time>
      </trkpt>
      <trkpt lat="36.28216297365725" lon="-5.427887979894877">
        <ele>12.15</ele>
        <time>2025-05-09T08:31:24Z</time>
      </trkpt>
      <trkpt lat="36.282305968925357" lon="-5.427697040140629">
        <ele>12.15</ele>
        <time>2025-05-09T08:31:25Z</time>
      </trkpt>
      <trkpt lat="36.283948989585042" lon="-5.425934996455908">
        <ele>15.039999999999999</ele>
        <time>2025-05-09T08:31:36Z</time>
      </trkpt>
      <trkpt lat="36.285267965868115" lon="-5.424894969910383">
        <ele>18.879999999999999</ele>
        <time>2025-05-09T08:31:45Z</time>
      </trkpt>
      <trkpt lat="36.286869999021292" lon="-5.42366299778223">
        <ele>25.609999999999999</ele>
        <time>2025-05-09T08:31:56Z</time>
      </trkpt>
      <trkpt lat="36.288727009668946" lon="-5.422194991260767">
        <ele>28.02</ele>
        <time>2025-05-09T08:32:08Z</time>
      </trkpt>
      <trkpt lat="36.290400959551334" lon="-5.420879032462835">
        <ele>30.420000000000002</ele>
        <time>2025-05-09T08:32:18Z</time>
      </trkpt>
      <trkpt lat="36.291966028511524" lon="-5.419652005657554">
        <ele>32.82</ele>
        <time>2025-05-09T08:32:27Z</time>
      </trkpt>
      <trkpt lat="36.294383034110069" lon="-5.417686030268669">
        <ele>35.229999999999997</ele>
        <time>2025-05-09T08:32:41Z</time>
      </trkpt>
      <trkpt lat="36.29567401483655" lon="-5.416243001818657">
        <ele>37.149999999999999</ele>
        <time>2025-05-09T08:32:50Z</time>
      </trkpt>
      <trkpt lat="36.297153001651168" lon="-5.414678016677499">
        <ele>41.950000000000003</ele>
        <time>2025-05-09T08:33:00Z</time>
      </trkpt>
      <trkpt lat="36.29730798304081" lon="-5.414540972560644">
        <ele>42.439999999999998</ele>
        <time>2025-05-09T08:33:01Z</time>
      </trkpt>
      <trkpt lat="36.299442015588284" lon="-5.413085035979748">
        <ele>47.719999999999999</ele>
        <time>2025-05-09T08:33:13Z</time>
      </trkpt>
      <trkpt lat="36.299612000584602" lon="-5.412933994084597">
        <ele>48.200000000000003</ele>
        <time>2025-05-09T08:33:14Z</time>
      </trkpt>
      <trkpt lat="36.299778968095779" lon="-5.41277096606791">
        <ele>49.159999999999997</ele>
        <time>2025-05-09T08:33:15Z</time>
      </trkpt>
      <trkpt lat="36.301051005721092" lon="-5.41128896176815">
        <ele>52.530000000000001</ele>
        <time>2025-05-09T08:33:24Z</time>
      </trkpt>
      <trkpt lat="36.302066976204515" lon="-5.410093031823635">
        <ele>52.530000000000001</ele>
        <time>2025-05-09T08:33:33Z</time>
      </trkpt>
      <trkpt lat="36.302723027765751" lon="-5.409192983061075">
        <ele>52.049999999999997</ele>
        <time>2025-05-09T08:33:40Z</time>
      </trkpt>
      <trkpt lat="36.302782036364079" lon="-5.40903196670115">
        <ele>51.57</ele>
        <time>2025-05-09T08:33:41Z</time>
      </trkpt>
      <trkpt lat="36.30280802026391" lon="-5.408851001411676">
        <ele>51.57</ele>
        <time>2025-05-09T08:33:42Z</time>
      </trkpt>
      <trkpt lat="36.302840961143374" lon="-5.408621001988649">
        <ele>52.049999999999997</ele>
        <time>2025-05-09T08:33:43Z</time>
      </trkpt>
      <trkpt lat="36.302821012213826" lon="-5.408438025042415">
        <ele>52.049999999999997</ele>
        <time>2025-05-09T08:33:44Z</time>
      </trkpt>
      <trkpt lat="36.302797039970756" lon="-5.408211965113878">
        <ele>52.530000000000001</ele>
        <time>2025-05-09T08:33:45Z</time>
      </trkpt>
      <trkpt lat="36.302596963942051" lon="-5.406007021665573">
        <ele>57.82</ele>
        <time>2025-05-09T08:33:54Z</time>
      </trkpt>
      <trkpt lat="36.302343998104334" lon="-5.40331500582397">
        <ele>67.430000000000007</ele>
        <time>2025-05-09T08:34:05Z</time>
      </trkpt>
      <trkpt lat="36.302260011434555" lon="-5.401756977662444">
        <ele>70.310000000000002</ele>
        <time>2025-05-09T08:34:12Z</time>
      </trkpt>
      <trkpt lat="36.302282977849245" lon="-5.401561008766294">
        <ele>70.310000000000002</ele>
        <time>2025-05-09T08:34:13Z</time>
      </trkpt>
      <trkpt lat="36.302341986447573" lon="-5.401413990184665">
        <ele>70.790000000000006</ele>
        <time>2025-05-09T08:34:14Z</time>
      </trkpt>
      <trkpt lat="36.302419016137719" lon="-5.401255991309881">
        <ele>71.269999999999996</ele>
        <time>2025-05-09T08:34:15Z</time>
      </trkpt>
      <trkpt lat="36.302497973665595" lon="-5.401110984385014">
        <ele>71.269999999999996</ele>
        <time>2025-05-09T08:34:16Z</time>
      </trkpt>
      <trkpt lat="36.302627976983786" lon="-5.400980981066823">
        <ele>71.269999999999996</ele>
        <time>2025-05-09T08:34:17Z</time>
      </trkpt>
      <trkpt lat="36.302742976695299" lon="-5.400864975526929">
        <ele>71.760000000000005</ele>
        <time>2025-05-09T08:34:18Z</time>
      </trkpt>
      <trkpt lat="36.302887983620167" lon="-5.400812001898885">
        <ele>72.239999999999995</ele>
        <time>2025-05-09T08:34:19Z</time>
      </trkpt>
      <trkpt lat="36.303039025515318" lon="-5.400763973593712">
        <ele>72.239999999999995</ele>
        <time>2025-05-09T08:34:20Z</time>
      </trkpt>
      <trkpt lat="36.30319400690496" lon="-5.400722986087203">
        <ele>72.239999999999995</ele>
        <time>2025-05-09T08:34:21Z</time>
      </trkpt>
      <trkpt lat="36.303359968587756" lon="-5.400713011622429">
        <ele>72.239999999999995</ele>
        <time>2025-05-09T08:34:22Z</time>
      </trkpt>
      <trkpt lat="36.303532971069217" lon="-5.400703037157655">
        <ele>72.239999999999995</ele>
        <time>2025-05-09T08:34:23Z</time>
      </trkpt>
      <trkpt lat="36.305457958951592" lon="-5.400660037994385">
        <ele>75.599999999999994</ele>
        <time>2025-05-09T08:34:33Z</time>
      </trkpt>
      <trkpt lat="36.307404991239309" lon="-5.400605974718928">
        <ele>79.930000000000007</ele>
        <time>2025-05-09T08:34:42Z</time>
      </trkpt>
      <trkpt lat="36.30968595854938" lon="-5.400510001927614">
        <ele>83.769999999999996</ele>
        <time>2025-05-09T08:34:52Z</time>
      </trkpt>
      <trkpt lat="36.312833027914166" lon="-5.400388967245817">
        <ele>83.769999999999996</ele>
        <time>2025-05-09T08:35:06Z</time>
      </trkpt>
      <trkpt lat="36.314799003303051" lon="-5.400315960869193">
        <ele>83.290000000000006</ele>
        <time>2025-05-09T08:35:15Z</time>
      </trkpt>
      <trkpt lat="36.315744984894991" lon="-5.400363989174366">
        <ele>81.849999999999994</ele>
        <time>2025-05-09T08:35:20Z</time>
      </trkpt>
      <trkpt lat="36.31591597571969" lon="-5.400461973622441">
        <ele>81.370000000000005</ele>
        <time>2025-05-09T08:35:21Z</time>
      </trkpt>
      <trkpt lat="36.316098030656576" lon="-5.4005659930408">
        <ele>80.890000000000001</ele>
        <time>2025-05-09T08:35:22Z</time>
      </trkpt>
      <trkpt lat="36.317840963602066" lon="-5.401770975440741">
        <ele>72.719999999999999</ele>
        <time>2025-05-09T08:35:31Z</time>
      </trkpt>
      <trkpt lat="36.319000013172626" lon="-5.402602963149548">
        <ele>62.140000000000001</ele>
        <time>2025-05-09T08:35:38Z</time>
      </trkpt>
      <trkpt lat="36.31943603977561" lon="-5.402974030002952">
        <ele>54.93</ele>
        <time>2025-05-09T08:35:43Z</time>
      </trkpt>
      <trkpt lat="36.320289988070726" lon="-5.403893021866679">
        <ele>44.359999999999999</ele>
        <time>2025-05-09T08:35:50Z</time>
      </trkpt>
      <trkpt lat="36.321259019896388" lon="-5.404892982915044">
        <ele>34.740000000000002</ele>
        <time>2025-05-09T08:35:57Z</time>
      </trkpt>
      <trkpt lat="36.321558002382517" lon="-5.405038995668292">
        <ele>33.299999999999997</ele>
        <time>2025-05-09T08:35:59Z</time>
      </trkpt>
      <trkpt lat="36.321717007085681" lon="-5.405085012316704">
        <ele>32.340000000000003</ele>
        <time>2025-05-09T08:36:00Z</time>
      </trkpt>
      <trkpt lat="36.321893027052283" lon="-5.405108984559774">
        <ele>31.379999999999999</ele>
        <time>2025-05-09T08:36:01Z</time>
      </trkpt>
      <trkpt lat="36.322071980684996" lon="-5.405116025358439">
        <ele>30.420000000000002</ele>
        <time>2025-05-09T08:36:02Z</time>
      </trkpt>
      <trkpt lat="36.322267027571797" lon="-5.405093980953097">
        <ele>28.98</ele>
        <time>2025-05-09T08:36:03Z</time>
      </trkpt>
      <trkpt lat="36.323851961642504" lon="-5.404890971258283">
        <ele>21.289999999999999</ele>
        <time>2025-05-09T08:36:11Z</time>
      </trkpt>
      <trkpt lat="36.325299013406038" lon="-5.404701959341765">
        <ele>14.56</ele>
        <time>2025-05-09T08:36:18Z</time>
      </trkpt>
      <trkpt lat="36.326831979677081" lon="-5.404504984617233">
        <ele>7.83</ele>
        <time>2025-05-09T08:36:25Z</time>
      </trkpt>
      <trkpt lat="36.328360000625253" lon="-5.404244977980852">
        <ele>8.789999999999999</ele>
        <time>2025-05-09T08:36:32Z</time>
      </trkpt>
      <trkpt lat="36.329834964126348" lon="-5.403522960841656">
        <ele>14.56</ele>
        <time>2025-05-09T08:36:39Z</time>
      </trkpt>
      <trkpt lat="36.33080299012363" lon="-5.403049970045686">
        <ele>16</ele>
        <time>2025-05-09T08:36:44Z</time>
      </trkpt>
      <trkpt lat="36.331772021949291" lon="-5.402653003111482">
        <ele>15.52</ele>
        <time>2025-05-09T08:36:51Z</time>
      </trkpt>
      <trkpt lat="36.332341991364956" lon="-5.402405988425016">
        <ele>15.039999999999999</ele>
        <time>2025-05-09T08:36:56Z</time>
      </trkpt>
      <trkpt lat="36.332448022440076" lon="-5.402387967333198">
        <ele>15.039999999999999</ele>
        <time>2025-05-09T08:36:57Z</time>
      </trkpt>
      <trkpt lat="36.332548018544912" lon="-5.402389978989959">
        <ele>15.039999999999999</ele>
        <time>2025-05-09T08:36:58Z</time>
      </trkpt>
      <trkpt lat="36.332667041569948" lon="-5.402441024780273">
        <ele>15.039999999999999</ele>
        <time>2025-05-09T08:36:59Z</time>
      </trkpt>
      <trkpt lat="36.332729989662766" lon="-5.402542026713491">
        <ele>15.039999999999999</ele>
        <time>2025-05-09T08:37:00Z</time>
      </trkpt>
      <trkpt lat="36.332798972725868" lon="-5.402665995061398">
        <ele>15.52</ele>
        <time>2025-05-09T08:37:01Z</time>
      </trkpt>
      <trkpt lat="36.332868039608002" lon="-5.402814019471407">
        <ele>15.039999999999999</ele>
        <time>2025-05-09T08:37:02Z</time>
      </trkpt>
      <trkpt lat="36.333440020680428" lon="-5.404200972989202">
        <ele>14.56</ele>
        <time>2025-05-09T08:37:09Z</time>
      </trkpt>
      <trkpt lat="36.333948969841003" lon="-5.405319035053253">
        <ele>15.039999999999999</ele>
        <time>2025-05-09T08:37:14Z</time>
      </trkpt>
      <trkpt lat="36.334583982825279" lon="-5.406690984964371">
        <ele>16.48</ele>
        <time>2025-05-09T08:37:21Z</time>
      </trkpt>
      <trkpt lat="36.334668975323439" lon="-5.406852001324296">
        <ele>16.960000000000001</ele>
        <time>2025-05-09T08:37:22Z</time>
      </trkpt>
      <trkpt lat="36.334781041368842" lon="-5.406988961622119">
        <ele>17.440000000000001</ele>
        <time>2025-05-09T08:37:23Z</time>
      </trkpt>
      <trkpt lat="36.334909033030272" lon="-5.407098010182381">
        <ele>17.440000000000001</ele>
        <time>2025-05-09T08:37:24Z</time>
      </trkpt>
      <trkpt lat="36.335060996934772" lon="-5.407187025994062">
        <ele>17.440000000000001</ele>
        <time>2025-05-09T08:37:25Z</time>
      </trkpt>
      <trkpt lat="36.335233999416232" lon="-5.407229019328952">
        <ele>17.440000000000001</ele>
        <time>2025-05-09T08:37:26Z</time>
      </trkpt>
      <trkpt lat="36.33542200550437" lon="-5.407261038199067">
        <ele>17.440000000000001</ele>
        <time>2025-05-09T08:37:27Z</time>
      </trkpt>
      <trkpt lat="36.336878025904298" lon="-5.407477961853147">
        <ele>16</ele>
        <time>2025-05-09T08:37:34Z</time>
      </trkpt>
      <trkpt lat="36.337084975093603" lon="-5.40754702873528">
        <ele>15.039999999999999</ele>
        <time>2025-05-09T08:37:35Z</time>
      </trkpt>
      <trkpt lat="36.337299970909953" lon="-5.407623974606395">
        <ele>14.56</ele>
        <time>2025-05-09T08:37:36Z</time>
      </trkpt>
      <trkpt lat="36.33750599808991" lon="-5.40774199180305">
        <ele>13.6</ele>
        <time>2025-05-09T08:37:37Z</time>
      </trkpt>
      <trkpt lat="36.339497035369277" lon="-5.408972958102822">
        <ele>6.39</ele>
        <time>2025-05-09T08:37:47Z</time>
      </trkpt>
      <trkpt lat="36.341293025761843" lon="-5.410112980753183">
        <ele>4.46</ele>
        <time>2025-05-09T08:37:56Z</time>
      </trkpt>
      <trkpt lat="36.342972004786134" lon="-5.410865005105734">
        <ele>2.54</ele>
        <time>2025-05-09T08:38:04Z</time>
      </trkpt>
      <trkpt lat="36.344713009893894" lon="-5.411413013935089">
        <ele>3.98</ele>
        <time>2025-05-09T08:38:12Z</time>
      </trkpt>
      <trkpt lat="36.346709998324513" lon="-5.412050960585475">
        <ele>6.87</ele>
        <time>2025-05-09T08:38:21Z</time>
      </trkpt>
      <trkpt lat="36.349124992266297" lon="-5.412842966616154">
        <ele>5.91</ele>
        <time>2025-05-09T08:38:32Z</time>
      </trkpt>
      <trkpt lat="36.35061495937407" lon="-5.413450989872217">
        <ele>3.98</ele>
        <time>2025-05-09T08:38:39Z</time>
      </trkpt>
      <trkpt lat="36.352284969761968" lon="-5.414245007559657">
        <ele>6.87</ele>
        <time>2025-05-09T08:38:47Z</time>
      </trkpt>
      <trkpt lat="36.354170981794596" lon="-5.415151007473469">
        <ele>9.27</ele>
        <time>2025-05-09T08:38:56Z</time>
      </trkpt>
      <trkpt lat="36.356057999655604" lon="-5.416043009608984">
        <ele>14.08</ele>
        <time>2025-05-09T08:39:05Z</time>
      </trkpt>
      <trkpt lat="36.357949040830135" lon="-5.416948003694415">
        <ele>16.960000000000001</ele>
        <time>2025-05-09T08:39:14Z</time>
      </trkpt>
      <trkpt lat="36.360249035060406" lon="-5.418044021353126">
        <ele>17.440000000000001</ele>
        <time>2025-05-09T08:39:25Z</time>
      </trkpt>
      <trkpt lat="36.361981993541121" lon="-5.418614996597171">
        <ele>17.440000000000001</ele>
        <time>2025-05-09T08:39:33Z</time>
      </trkpt>
      <trkpt lat="36.36354697868228" lon="-5.418737037107348">
        <ele>16</ele>
        <time>2025-05-09T08:39:40Z</time>
      </trkpt>
      <trkpt lat="36.363767003640532" lon="-5.418751034885645">
        <ele>15.52</ele>
        <time>2025-05-09T08:39:41Z</time>
      </trkpt>
      <trkpt lat="36.365320002660155" lon="-5.418853964656591">
        <ele>15.039999999999999</ele>
        <time>2025-05-09T08:39:48Z</time>
      </trkpt>
      <trkpt lat="36.366678960621357" lon="-5.418942980468273">
        <ele>15.039999999999999</ele>
        <time>2025-05-09T08:39:54Z</time>
      </trkpt>
      <trkpt lat="36.36848802678287" lon="-5.419062003493309">
        <ele>18.879999999999999</ele>
        <time>2025-05-09T08:40:02Z</time>
      </trkpt>
      <trkpt lat="36.370278988033533" lon="-5.419179014861584">
        <ele>19.359999999999999</ele>
        <time>2025-05-09T08:40:10Z</time>
      </trkpt>
      <trkpt lat="36.372517039999366" lon="-5.419173985719681">
        <ele>19.359999999999999</ele>
        <time>2025-05-09T08:40:20Z</time>
      </trkpt>
      <trkpt lat="36.374645959585905" lon="-5.418898975476623">
        <ele>19.359999999999999</ele>
        <time>2025-05-09T08:40:30Z</time>
      </trkpt>
      <trkpt lat="36.374838994815946" lon="-5.418898975476623">
        <ele>19.359999999999999</ele>
        <time>2025-05-09T08:40:31Z</time>
      </trkpt>
      <trkpt lat="36.375035969540477" lon="-5.418919008225203">
        <ele>18.879999999999999</ele>
        <time>2025-05-09T08:40:32Z</time>
      </trkpt>
      <trkpt lat="36.375229004770517" lon="-5.419019004330039">
        <ele>18.879999999999999</ele>
        <time>2025-05-09T08:40:33Z</time>
      </trkpt>
      <trkpt lat="36.375421034172177" lon="-5.419124029576778">
        <ele>18.399999999999999</ele>
        <time>2025-05-09T08:40:34Z</time>
      </trkpt>
      <trkpt lat="36.375613985583186" lon="-5.41923500597477">
        <ele>18.399999999999999</ele>
        <time>2025-05-09T08:40:35Z</time>
      </trkpt>
      <trkpt lat="36.375801991671324" lon="-5.419359980151057">
        <ele>17.920000000000002</ele>
        <time>2025-05-09T08:40:36Z</time>
      </trkpt>
      <trkpt lat="36.377755980938673" lon="-5.420727990567684">
        <ele>18.399999999999999</ele>
        <time>2025-05-09T08:40:46Z</time>
      </trkpt>
      <trkpt lat="36.380119007080793" lon="-5.422350978478789">
        <ele>20.32</ele>
        <time>2025-05-09T08:40:58Z</time>
      </trkpt>
      <trkpt lat="36.381385009735823" lon="-5.423478009179235">
        <ele>19.359999999999999</ele>
        <time>2025-05-09T08:41:05Z</time>
      </trkpt>
      <trkpt lat="36.382580017670989" lon="-5.425141984596849">
        <ele>21.77</ele>
        <time>2025-05-09T08:41:13Z</time>
      </trkpt>
      <trkpt lat="36.383630018681288" lon="-5.426933029666543">
        <ele>26.09</ele>
        <time>2025-05-09T08:41:21Z</time>
      </trkpt>
      <trkpt lat="36.385001968592405" lon="-5.428791968151927">
        <ele>27.530000000000001</ele>
        <time>2025-05-09T08:41:30Z</time>
      </trkpt>
      <trkpt lat="36.386203011497855" lon="-5.430266009643674">
        <ele>28.98</ele>
        <time>2025-05-09T08:41:38Z</time>
      </trkpt>
      <trkpt lat="36.38756699860096" lon="-5.431914981454611">
        <ele>28.02</ele>
        <time>2025-05-09T08:41:48Z</time>
      </trkpt>
      <trkpt lat="36.388871977105737" lon="-5.433492958545685">
        <ele>28.98</ele>
        <time>2025-05-09T08:41:57Z</time>
      </trkpt>
      <trkpt lat="36.38988702557981" lon="-5.434753010049462">
        <ele>30.899999999999999</ele>
        <time>2025-05-09T08:42:05Z</time>
      </trkpt>
      <trkpt lat="36.390436040237546" lon="-5.435644006356597">
        <ele>32.340000000000003</ele>
        <time>2025-05-09T08:42:12Z</time>
      </trkpt>
      <trkpt lat="36.390561014413834" lon="-5.436026975512505">
        <ele>34.259999999999998</ele>
        <time>2025-05-09T08:42:16Z</time>
      </trkpt>
      <trkpt lat="36.390692023560405" lon="-5.436511030420661">
        <ele>35.229999999999997</ele>
        <time>2025-05-09T08:42:20Z</time>
      </trkpt>
      <trkpt lat="36.390890004113317" lon="-5.437552984803915">
        <ele>32.82</ele>
        <time>2025-05-09T08:42:26Z</time>
      </trkpt>
      <trkpt lat="36.391213964670897" lon="-5.43910900130868">
        <ele>28.02</ele>
        <time>2025-05-09T08:42:34Z</time>
      </trkpt>
      <trkpt lat="36.391733977943659" lon="-5.44024701230228">
        <ele>25.609999999999999</ele>
        <time>2025-05-09T08:42:42Z</time>
      </trkpt>
      <trkpt lat="36.391803966835141" lon="-5.440372992306948">
        <ele>25.129999999999999</ele>
        <time>2025-05-09T08:42:43Z</time>
      </trkpt>
      <trkpt lat="36.391876973211765" lon="-5.440504001453519">
        <ele>25.129999999999999</ele>
        <time>2025-05-09T08:42:44Z</time>
      </trkpt>
      <trkpt lat="36.391985015943646" lon="-5.440603997558355">
        <ele>25.129999999999999</ele>
        <time>2025-05-09T08:42:45Z</time>
      </trkpt>
      <trkpt lat="36.392108984291553" lon="-5.440702987834811">
        <ele>25.129999999999999</ele>
        <time>2025-05-09T08:42:46Z</time>
      </trkpt>
      <trkpt lat="36.392246028408408" lon="-5.440803989768028">
        <ele>24.649999999999999</ele>
        <time>2025-05-09T08:42:47Z</time>
      </trkpt>
      <trkpt lat="36.392400003969669" lon="-5.440886970609427">
        <ele>24.170000000000002</ele>
        <time>2025-05-09T08:42:48Z</time>
      </trkpt>
      <trkpt lat="36.392558002844453" lon="-5.440961988642812">
        <ele>24.170000000000002</ele>
        <time>2025-05-09T08:42:49Z</time>
      </trkpt>
      <trkpt lat="36.394074037671089" lon="-5.44160102494061">
        <ele>23.210000000000001</ele>
        <time>2025-05-09T08:42:58Z</time>
      </trkpt>
      <trkpt lat="36.395489992573857" lon="-5.442152973264456">
        <ele>21.77</ele>
        <time>2025-05-09T08:43:07Z</time>
      </trkpt>
      <trkpt lat="36.39626900665462" lon="-5.44213998131454">
        <ele>20.809999999999999</ele>
        <time>2025-05-09T08:43:12Z</time>
      </trkpt>
      <trkpt lat="36.396423988044262" lon="-5.442083990201354">
        <ele>20.809999999999999</ele>
        <time>2025-05-09T08:43:13Z</time>
      </trkpt>
      <trkpt lat="36.397772971540689" lon="-5.441441014409065">
        <ele>21.289999999999999</ele>
        <time>2025-05-09T08:43:22Z</time>
      </trkpt>
      <trkpt lat="36.398073965683579" lon="-5.441281003877521">
        <ele>21.77</ele>
        <time>2025-05-09T08:43:24Z</time>
      </trkpt>
      <trkpt lat="36.398230958729982" lon="-5.441198023036122">
        <ele>21.77</ele>
        <time>2025-05-09T08:43:25Z</time>
      </trkpt>
      <trkpt lat="36.398401027545333" lon="-5.44110800139606">
        <ele>21.77</ele>
        <time>2025-05-09T08:43:26Z</time>
      </trkpt>
      <trkpt lat="36.398576963692904" lon="-5.441010016947985">
        <ele>21.77</ele>
        <time>2025-05-09T08:43:27Z</time>
      </trkpt>
      <trkpt lat="36.398733034729958" lon="-5.44087003916502">
        <ele>21.289999999999999</ele>
        <time>2025-05-09T08:43:28Z</time>
      </trkpt>
      <trkpt lat="36.398890027776361" lon="-5.440728971734643">
        <ele>21.289999999999999</ele>
        <time>2025-05-09T08:43:29Z</time>
      </trkpt>
      <trkpt lat="36.39979301020503" lon="-5.43981702066958">
        <ele>20.809999999999999</ele>
        <time>2025-05-09T08:43:36Z</time>
      </trkpt>
      <trkpt lat="36.399889988824725" lon="-5.439681988209486">
        <ele>21.289999999999999</ele>
        <time>2025-05-09T08:43:37Z</time>
      </trkpt>
      <trkpt lat="36.400195006281137" lon="-5.43926197104156">
        <ele>21.77</ele>
        <time>2025-05-09T08:43:40Z</time>
      </trkpt>
      <trkpt lat="36.400274969637394" lon="-5.439216960221529">
        <ele>22.25</ele>
        <time>2025-05-09T08:43:41Z</time>
      </trkpt>
      <trkpt lat="36.400390975177288" lon="-5.43915200047195">
        <ele>22.25</ele>
        <time>2025-05-09T08:43:42Z</time>
      </trkpt>
      <trkpt lat="36.400761036202312" lon="-5.438944967463613">
        <ele>22.25</ele>
        <time>2025-05-09T08:43:45Z</time>
      </trkpt>
      <trkpt lat="36.401179963722825" lon="-5.438709016889334">
        <ele>21.77</ele>
        <time>2025-05-09T08:43:48Z</time>
      </trkpt>
      <trkpt lat="36.401324970647693" lon="-5.438627963885665">
        <ele>21.77</ele>
        <time>2025-05-09T08:43:49Z</time>
      </trkpt>
      <trkpt lat="36.401481041684747" lon="-5.438567027449608">
        <ele>21.77</ele>
        <time>2025-05-09T08:43:50Z</time>
      </trkpt>
      <trkpt lat="36.401637028902769" lon="-5.438542971387506">
        <ele>21.289999999999999</ele>
        <time>2025-05-09T08:43:51Z</time>
      </trkpt>
      <trkpt lat="36.401846995577216" lon="-5.438511036336422">
        <ele>21.289999999999999</ele>
        <time>2025-05-09T08:43:52Z</time>
      </trkpt>
      <trkpt lat="36.401975993067026" lon="-5.438558980822563">
        <ele>20.809999999999999</ele>
        <time>2025-05-09T08:43:53Z</time>
      </trkpt>
      <trkpt lat="36.402131980285048" lon="-5.43861597776413">
        <ele>20.32</ele>
        <time>2025-05-09T08:43:54Z</time>
      </trkpt>
      <trkpt lat="36.402635984122753" lon="-5.438799960538745">
        <ele>20.809999999999999</ele>
        <time>2025-05-09T08:43:57Z</time>
      </trkpt>
      <trkpt lat="36.403239984065294" lon="-5.438943039625883">
        <ele>23.690000000000001</ele>
        <time>2025-05-09T08:44:01Z</time>
      </trkpt>
      <trkpt lat="36.403396977111697" lon="-5.43895703740418">
        <ele>24.649999999999999</ele>
        <time>2025-05-09T08:44:02Z</time>
      </trkpt>
      <trkpt lat="36.40430498868227" lon="-5.438737012445927">
        <ele>28.98</ele>
        <time>2025-05-09T08:44:08Z</time>
      </trkpt>
      <trkpt lat="36.404416970908642" lon="-5.438643973320723">
        <ele>29.460000000000001</ele>
        <time>2025-05-09T08:44:09Z</time>
      </trkpt>
      <trkpt lat="36.404550997540355" lon="-5.438532996922731">
        <ele>29.940000000000001</ele>
        <time>2025-05-09T08:44:10Z</time>
      </trkpt>
      <trkpt lat="36.404631966724992" lon="-5.438381033018231">
        <ele>30.420000000000002</ele>
        <time>2025-05-09T08:44:11Z</time>
      </trkpt>
      <trkpt lat="36.404713019728661" lon="-5.438211970031261">
        <ele>30.899999999999999</ele>
        <time>2025-05-09T08:44:12Z</time>
      </trkpt>
      <trkpt lat="36.404763981699944" lon="-5.438036033883691">
        <ele>31.379999999999999</ele>
        <time>2025-05-09T08:44:13Z</time>
      </trkpt>
      <trkpt lat="36.404817039147019" lon="-5.437853978946805">
        <ele>32.340000000000003</ele>
        <time>2025-05-09T08:44:14Z</time>
      </trkpt>
      <trkpt lat="36.405033962801099" lon="-5.436952002346516">
        <ele>32.340000000000003</ele>
        <time>2025-05-09T08:44:19Z</time>
      </trkpt>
      <trkpt lat="36.405123984441161" lon="-5.436795009300113">
        <ele>32.340000000000003</ele>
        <time>2025-05-09T08:44:20Z</time>
      </trkpt>
      <trkpt lat="36.405226998031139" lon="-5.436658971011639">
        <ele>31.859999999999999</ele>
        <time>2025-05-09T08:44:21Z</time>
      </trkpt>
      <trkpt lat="36.405358007177711" lon="-5.436539025977254">
        <ele>31.379999999999999</ele>
        <time>2025-05-09T08:44:22Z</time>
      </trkpt>
      <trkpt lat="36.405489016324282" lon="-5.436452021822333">
        <ele>30.420000000000002</ele>
        <time>2025-05-09T08:44:23Z</time>
      </trkpt>
      <trkpt lat="36.405650032684207" lon="-5.436395024880767">
        <ele>29.940000000000001</ele>
        <time>2025-05-09T08:44:24Z</time>
      </trkpt>
      <trkpt lat="36.40580702573061" lon="-5.436357976868749">
        <ele>28.98</ele>
        <time>2025-05-09T08:44:25Z</time>
      </trkpt>
      <trkpt lat="36.405982039868832" lon="-5.436340039595962">
        <ele>28.5</ele>
        <time>2025-05-09T08:44:26Z</time>
      </trkpt>
      <trkpt lat="36.40737603418529" lon="-5.436174999922514">
        <ele>22.73</ele>
        <time>2025-05-09T08:44:33Z</time>
      </trkpt>
      <trkpt lat="36.408893996849656" lon="-5.435978025197983">
        <ele>22.25</ele>
        <time>2025-05-09T08:44:39Z</time>
      </trkpt>
      <trkpt lat="36.410582028329372" lon="-5.435549039393663">
        <ele>19.84</ele>
        <time>2025-05-09T08:44:47Z</time>
      </trkpt>
      <trkpt lat="36.412370977923274" lon="-5.434788968414068">
        <ele>22.25</ele>
        <time>2025-05-09T08:44:56Z</time>
      </trkpt>
      <trkpt lat="36.413094000890851" lon="-5.434615965932608">
        <ele>24.649999999999999</ele>
        <time>2025-05-09T08:45:00Z</time>
      </trkpt>
      <trkpt lat="36.413259040564299" lon="-5.434624012559652">
        <ele>25.609999999999999</ele>
        <time>2025-05-09T08:45:01Z</time>
      </trkpt>
      <trkpt lat="36.413434976711869" lon="-5.434685032814741">
        <ele>26.57</ele>
        <time>2025-05-09T08:45:02Z</time>
      </trkpt>
      <trkpt lat="36.41485202126205" lon="-5.435535041615367">
        <ele>28.98</ele>
        <time>2025-05-09T08:45:10Z</time>
      </trkpt>
      <trkpt lat="36.415009014308453" lon="-5.435652974992991">
        <ele>28.98</ele>
        <time>2025-05-09T08:45:11Z</time>
      </trkpt>
      <trkpt lat="36.415137005969882" lon="-5.435807034373283">
        <ele>28.5</ele>
        <time>2025-05-09T08:45:12Z</time>
      </trkpt>
      <trkpt lat="36.415256028994918" lon="-5.435968972742558">
        <ele>28.5</ele>
        <time>2025-05-09T08:45:13Z</time>
      </trkpt>
      <trkpt lat="36.415359964594245" lon="-5.436142981052399">
        <ele>28.5</ele>
        <time>2025-05-09T08:45:14Z</time>
      </trkpt>
      <trkpt lat="36.415461972355843" lon="-5.436320006847382">
        <ele>28.02</ele>
        <time>2025-05-09T08:45:15Z</time>
      </trkpt>
      <trkpt lat="36.41599397175014" lon="-5.43724101036787">
        <ele>28.5</ele>
        <time>2025-05-09T08:45:20Z</time>
      </trkpt>
      <trkpt lat="36.41612003557384" lon="-5.437410995364189">
        <ele>28.98</ele>
        <time>2025-05-09T08:45:21Z</time>
      </trkpt>
      <trkpt lat="36.416245009750128" lon="-5.437580980360508">
        <ele>28.98</ele>
        <time>2025-05-09T08:45:22Z</time>
      </trkpt>
      <trkpt lat="36.416388005018234" lon="-5.437720036134124">
        <ele>29.460000000000001</ele>
        <time>2025-05-09T08:45:23Z</time>
      </trkpt>
      <trkpt lat="36.416537035256624" lon="-5.437834030017257">
        <ele>29.940000000000001</ele>
        <time>2025-05-09T08:45:24Z</time>
      </trkpt>
      <trkpt lat="36.416693022474647" lon="-5.437919022515416">
        <ele>29.940000000000001</ele>
        <time>2025-05-09T08:45:25Z</time>
      </trkpt>
      <trkpt lat="36.416855966672301" lon="-5.437960010021925">
        <ele>29.940000000000001</ele>
        <time>2025-05-09T08:45:26Z</time>
      </trkpt>
      <trkpt lat="36.417006002739072" lon="-5.437952969223261">
        <ele>29.940000000000001</ele>
        <time>2025-05-09T08:45:27Z</time>
      </trkpt>
      <trkpt lat="36.417142963036895" lon="-5.437911981716752">
        <ele>29.460000000000001</ele>
        <time>2025-05-09T08:45:28Z</time>
      </trkpt>
      <trkpt lat="36.417267015203834" lon="-5.43779999949038">
        <ele>29.460000000000001</ele>
        <time>2025-05-09T08:45:29Z</time>
      </trkpt>
      <trkpt lat="36.417399030178785" lon="-5.437677958980203">
        <ele>29.460000000000001</ele>
        <time>2025-05-09T08:45:30Z</time>
      </trkpt>
      <trkpt lat="36.417540013790131" lon="-5.437548961490393">
        <ele>29.460000000000001</ele>
        <time>2025-05-09T08:45:31Z</time>
      </trkpt>
      <trkpt lat="36.417682003229856" lon="-5.437417030334473">
        <ele>29.940000000000001</ele>
        <time>2025-05-09T08:45:32Z</time>
      </trkpt>
      <trkpt lat="36.417830027639866" lon="-5.437332959845662">
        <ele>30.420000000000002</ele>
        <time>2025-05-09T08:45:33Z</time>
      </trkpt>
      <trkpt lat="36.41796899959445" lon="-5.437254002317786">
        <ele>30.420000000000002</ele>
        <time>2025-05-09T08:45:34Z</time>
      </trkpt>
      <trkpt lat="36.418111994862556" lon="-5.437252996489406">
        <ele>30.899999999999999</ele>
        <time>2025-05-09T08:45:35Z</time>
      </trkpt>
      <trkpt lat="36.41826999373734" lon="-5.43726297095418">
        <ele>30.899999999999999</ele>
        <time>2025-05-09T08:45:36Z</time>
      </trkpt>
      <trkpt lat="36.418417012318969" lon="-5.437330026179552">
        <ele>31.379999999999999</ele>
        <time>2025-05-09T08:45:37Z</time>
      </trkpt>
      <trkpt lat="36.418562019243836" lon="-5.437441002577543">
        <ele>31.859999999999999</ele>
        <time>2025-05-09T08:45:38Z</time>
      </trkpt>
      <trkpt lat="36.418697973713279" lon="-5.437591960653663">
        <ele>32.82</ele>
        <time>2025-05-09T08:45:39Z</time>
      </trkpt>
      <trkpt lat="36.418833006173372" lon="-5.437744008377194">
        <ele>33.299999999999997</ele>
        <time>2025-05-09T08:45:40Z</time>
      </trkpt>
      <trkpt lat="36.419184962287545" lon="-5.438137035816908">
        <ele>35.229999999999997</ele>
        <time>2025-05-09T08:45:43Z</time>
      </trkpt>
      <trkpt lat="36.419293005019426" lon="-5.438237031921744">
        <ele>36.189999999999998</ele>
        <time>2025-05-09T08:45:44Z</time>
      </trkpt>
      <trkpt lat="36.419414039701223" lon="-5.438264021649957">
        <ele>36.670000000000002</ele>
        <time>2025-05-09T08:45:45Z</time>
      </trkpt>
      <trkpt lat="36.419546976685524" lon="-5.438248012214899">
        <ele>37.149999999999999</ele>
        <time>2025-05-09T08:45:46Z</time>
      </trkpt>
      <trkpt lat="36.419676980003715" lon="-5.438204007223249">
        <ele>37.630000000000003</ele>
        <time>2025-05-09T08:45:47Z</time>
      </trkpt>
      <trkpt lat="36.419805977493525" lon="-5.438133012503386">
        <ele>38.590000000000003</ele>
        <time>2025-05-09T08:45:48Z</time>
      </trkpt>
      <trkpt lat="36.419917959719896" lon="-5.43805799447">
        <ele>39.07</ele>
        <time>2025-05-09T08:45:49Z</time>
      </trkpt>
      <trkpt lat="36.420644000172615" lon="-5.43751903809607">
        <ele>41.950000000000003</ele>
        <time>2025-05-09T08:45:57Z</time>
      </trkpt>
      <trkpt lat="36.420779032632709" lon="-5.437394985929132">
        <ele>41.469999999999999</ele>
        <time>2025-05-09T08:45:59Z</time>
      </trkpt>
      <trkpt lat="36.420829994603992" lon="-5.437314016744494">
        <ele>41.469999999999999</ele>
        <time>2025-05-09T08:46:00Z</time>
      </trkpt>
      <trkpt lat="36.420881962403655" lon="-5.437232963740826">
        <ele>41.469999999999999</ele>
        <time>2025-05-09T08:46:01Z</time>
      </trkpt>
      <trkpt lat="36.42095597460866" lon="-5.437079994007945">
        <ele>41.469999999999999</ele>
        <time>2025-05-09T08:46:03Z</time>
      </trkpt>
      <trkpt lat="36.420986987650394" lon="-5.437011010944843">
        <ele>41.469999999999999</ele>
        <time>2025-05-09T08:46:04Z</time>
      </trkpt>
      <trkpt lat="36.421365011483431" lon="-5.436113979667425">
        <ele>41.950000000000003</ele>
        <time>2025-05-09T08:46:16Z</time>
      </trkpt>
      <trkpt lat="36.421715039759874" lon="-5.43526497669518">
        <ele>42.439999999999998</ele>
        <time>2025-05-09T08:46:25Z</time>
      </trkpt>
      <trkpt lat="36.421840013936162" lon="-5.434987032786012">
        <ele>42.439999999999998</ele>
        <time>2025-05-09T08:46:28Z</time>
      </trkpt>
      <trkpt lat="36.421958031132817" lon="-5.434857029467821">
        <ele>42.920000000000002</ele>
        <time>2025-05-09T08:46:30Z</time>
      </trkpt>
      <trkpt lat="36.4220280200243" lon="-5.434802966192365">
        <ele>42.920000000000002</ele>
        <time>2025-05-09T08:46:31Z</time>
      </trkpt>
      <trkpt lat="36.422089040279388" lon="-5.434772958979011">
        <ele>43.399999999999999</ele>
        <time>2025-05-09T08:46:32Z</time>
      </trkpt>
      <trkpt lat="36.422170009464025" lon="-5.434758039191365">
        <ele>43.880000000000003</ele>
        <time>2025-05-09T08:46:33Z</time>
      </trkpt>
      <trkpt lat="36.422249972820282" lon="-5.434743035584688">
        <ele>43.880000000000003</ele>
        <time>2025-05-09T08:46:34Z</time>
      </trkpt>
      <trkpt lat="36.42232901416719" lon="-5.434730965644121">
        <ele>44.359999999999999</ele>
        <time>2025-05-09T08:46:35Z</time>
      </trkpt>
      <trkpt lat="36.422411995008588" lon="-5.434720991179347">
        <ele>44.359999999999999</ele>
        <time>2025-05-09T08:46:36Z</time>
      </trkpt>
      <trkpt lat="36.42250101082027" lon="-5.434711016714573">
        <ele>44.359999999999999</ele>
        <time>2025-05-09T08:46:37Z</time>
      </trkpt>
      <trkpt lat="36.422580974176526" lon="-5.434701964259148">
        <ele>44.359999999999999</ele>
        <time>2025-05-09T08:46:38Z</time>
      </trkpt>
      <trkpt lat="36.422656998038292" lon="-5.434692995622754">
        <ele>44.840000000000003</ele>
        <time>2025-05-09T08:46:39Z</time>
      </trkpt>
      <trkpt lat="36.422912981361151" lon="-5.434681009501219">
        <ele>45.32</ele>
        <time>2025-05-09T08:46:42Z</time>
      </trkpt>
      <trkpt lat="36.423305002972484" lon="-5.434713028371334">
        <ele>45.32</ele>
        <time>2025-05-09T08:46:47Z</time>
      </trkpt>
      <trkpt lat="36.423473982140422" lon="-5.434782011434436">
        <ele>46.280000000000001</ele>
        <time>2025-05-09T08:46:49Z</time>
      </trkpt>
      <trkpt lat="36.423644972965121" lon="-5.434846971184015">
        <ele>46.280000000000001</ele>
        <time>2025-05-09T08:46:51Z</time>
      </trkpt>
      <trkpt lat="36.4237289596349" lon="-5.434893993660808">
        <ele>46.280000000000001</ele>
        <time>2025-05-09T08:46:52Z</time>
      </trkpt>
      <trkpt lat="36.423957031220198" lon="-5.435072025284171">
        <ele>45.32</ele>
        <time>2025-05-09T08:46:55Z</time>
      </trkpt>
      <trkpt lat="36.42437101341784" lon="-5.435472009703517">
        <ele>43.399999999999999</ele>
        <time>2025-05-09T08:47:01Z</time>
      </trkpt>
      <trkpt lat="36.424425998702645" lon="-5.435561025515199">
        <ele>42.920000000000002</ele>
        <time>2025-05-09T08:47:02Z</time>
      </trkpt>
      <trkpt lat="36.425021030008793" lon="-5.436515975743532">
        <ele>36.189999999999998</ele>
        <time>2025-05-09T08:47:13Z</time>
      </trkpt>
      <trkpt lat="36.425106022506952" lon="-5.436582025140524">
        <ele>35.710000000000001</ele>
        <time>2025-05-09T08:47:14Z</time>
      </trkpt>
      <trkpt lat="36.425180034711957" lon="-5.436640027910471">
        <ele>35.229999999999997</ele>
        <time>2025-05-09T08:47:15Z</time>
      </trkpt>
      <trkpt lat="36.425257986411452" lon="-5.436699958518148">
        <ele>34.740000000000002</ele>
        <time>2025-05-09T08:47:16Z</time>
      </trkpt>
      <trkpt lat="36.425336021929979" lon="-5.436760978773236">
        <ele>34.259999999999998</ele>
        <time>2025-05-09T08:47:17Z</time>
      </trkpt>
      <trkpt lat="36.425417996942997" lon="-5.436820993199945">
        <ele>33.780000000000001</ele>
        <time>2025-05-09T08:47:18Z</time>
      </trkpt>
      <trkpt lat="36.426096009090543" lon="-5.437187030911446">
        <ele>31.859999999999999</ele>
        <time>2025-05-09T08:47:27Z</time>
      </trkpt>
      <trkpt lat="36.426171027123928" lon="-5.437232963740826">
        <ele>31.859999999999999</ele>
        <time>2025-05-09T08:47:28Z</time>
      </trkpt>
      <trkpt lat="36.426245039328933" lon="-5.437278980389237">
        <ele>31.859999999999999</ele>
        <time>2025-05-09T08:47:29Z</time>
      </trkpt>
      <trkpt lat="36.426315028220415" lon="-5.437321979552507">
        <ele>31.379999999999999</ele>
        <time>2025-05-09T08:47:30Z</time>
      </trkpt>
      <trkpt lat="36.426356015726924" lon="-5.437395991757512">
        <ele>31.379999999999999</ele>
        <time>2025-05-09T08:47:31Z</time>
      </trkpt>
      <trkpt lat="36.426388034597039" lon="-5.4374760389328">
        <ele>31.379999999999999</ele>
        <time>2025-05-09T08:47:32Z</time>
      </trkpt>
      <trkpt lat="36.426420975476503" lon="-5.437559019774199">
        <ele>31.379999999999999</ele>
        <time>2025-05-09T08:47:33Z</time>
      </trkpt>
      <trkpt lat="36.426600012928247" lon="-5.438023963943124">
        <ele>30.899999999999999</ele>
        <time>2025-05-09T08:47:38Z</time>
      </trkpt>
      <trkpt lat="36.426634965464473" lon="-5.438113985583186">
        <ele>30.420000000000002</ele>
        <time>2025-05-09T08:47:39Z</time>
      </trkpt>
      <trkpt lat="36.426824983209372" lon="-5.438537020236254">
        <ele>28.5</ele>
        <time>2025-05-09T08:47:46Z</time>
      </trkpt>
      <trkpt lat="36.426835041493177" lon="-5.438560992479324">
        <ele>28.5</ele>
        <time>2025-05-09T08:47:47Z</time>
      </trkpt>
      <trkpt lat="36.426845015957952" lon="-5.438583036884666">
        <ele>28.5</ele>
        <time>2025-05-09T08:47:48Z</time>
      </trkpt>
      <trkpt lat="36.426852978765965" lon="-5.438600974157453">
        <ele>28.5</ele>
        <time>2025-05-09T08:47:49Z</time>
      </trkpt>
      <trkpt lat="36.427024975419044" lon="-5.438428977504373">
        <ele>28.98</ele>
        <time>2025-05-09T08:47:56Z</time>
      </trkpt>
      <trkpt lat="36.4269910287112" lon="-5.438391007483006">
        <ele>29.460000000000001</ele>
        <time>2025-05-09T08:48:09Z</time>
      </trkpt>
      <trkpt lat="36.4269910287112" lon="-5.438391007483006">
        <ele>29.460000000000001</ele>
        <time>2025-05-09T08:48:31Z</time>
      </trkpt>
      <trkpt lat="36.426982982084155" lon="-5.438396958634257">
        <ele>29.940000000000001</ele>
        <time>2025-05-09T08:49:27Z</time>
      </trkpt>
      <trkpt lat="36.426982982084155" lon="-5.438396958634257">
        <ele>29.940000000000001</ele>
        <time>2025-05-09T08:49:43Z</time>
      </trkpt>
      <trkpt lat="36.426920033991337" lon="-5.438480023294687">
        <ele>28.5</ele>
        <time>2025-05-09T08:50:00Z</time>
      </trkpt>
      <trkpt lat="36.426919028162956" lon="-5.438483040779829">
        <ele>27.530000000000001</ele>
        <time>2025-05-09T08:50:34Z</time>
      </trkpt>
      <trkpt lat="36.426845015957952" lon="-5.438582031056285">
        <ele>26.57</ele>
        <time>2025-05-09T08:50:36Z</time>
      </trkpt>
      <trkpt lat="36.426878962665796" lon="-5.438657971099019">
        <ele>27.050000000000001</ele>
        <time>2025-05-09T08:50:37Z</time>
      </trkpt>
      <trkpt lat="36.427280958741903" lon="-5.439283009618521">
        <ele>27.050000000000001</ele>
        <time>2025-05-09T08:50:43Z</time>
      </trkpt>
      <trkpt lat="36.428317967802286" lon="-5.440981015563011">
        <ele>28.02</ele>
        <time>2025-05-09T08:50:55Z</time>
      </trkpt>
      <trkpt lat="36.428963961079717" lon="-5.441965973004699">
        <ele>28.98</ele>
        <time>2025-05-09T08:51:03Z</time>
      </trkpt>
      <trkpt lat="36.429043002426624" lon="-5.442054988816381">
        <ele>28.5</ele>
        <time>2025-05-09T08:51:04Z</time>
      </trkpt>
      <trkpt lat="36.429130006581545" lon="-5.442121038213372">
        <ele>28.5</ele>
        <time>2025-05-09T08:51:05Z</time>
      </trkpt>
      <trkpt lat="36.429222039878368" lon="-5.442162025719881">
        <ele>28.5</ele>
        <time>2025-05-09T08:51:06Z</time>
      </trkpt>
      <trkpt lat="36.429318012669683" lon="-5.442202007398009">
        <ele>28.02</ele>
        <time>2025-05-09T08:51:07Z</time>
      </trkpt>
      <trkpt lat="36.429410967975855" lon="-5.442207958549261">
        <ele>27.530000000000001</ele>
        <time>2025-05-09T08:51:08Z</time>
      </trkpt>
      <trkpt lat="36.429504007101059" lon="-5.442213993519545">
        <ele>27.530000000000001</ele>
        <time>2025-05-09T08:51:09Z</time>
      </trkpt>
      <trkpt lat="36.429597968235612" lon="-5.442220028489828">
        <ele>27.050000000000001</ele>
        <time>2025-05-09T08:51:10Z</time>
      </trkpt>
      <trkpt lat="36.429874990135431" lon="-5.442236959934235">
        <ele>27.050000000000001</ele>
        <time>2025-05-09T08:51:13Z</time>
      </trkpt>
      <trkpt lat="36.431097993627191" lon="-5.442308960482478">
        <ele>26.57</ele>
        <time>2025-05-09T08:51:23Z</time>
      </trkpt>
      <trkpt lat="36.432803962379694" lon="-5.442499984055758">
        <ele>29.460000000000001</ele>
        <time>2025-05-09T08:51:34Z</time>
      </trkpt>
      <trkpt lat="36.433105962350965" lon="-5.442584976553917">
        <ele>29.940000000000001</ele>
        <time>2025-05-09T08:51:36Z</time>
      </trkpt>
      <trkpt lat="36.433254992589355" lon="-5.442629987373948">
        <ele>30.420000000000002</ele>
        <time>2025-05-09T08:51:37Z</time>
      </trkpt>
      <trkpt lat="36.433407040312886" lon="-5.442674998193979">
        <ele>30.899999999999999</ele>
        <time>2025-05-09T08:51:38Z</time>
      </trkpt>
      <trkpt lat="36.434746971353889" lon="-5.443218983709812">
        <ele>36.670000000000002</ele>
        <time>2025-05-09T08:51:47Z</time>
      </trkpt>
      <trkpt lat="36.435693958774209" lon="-5.443515032529831">
        <ele>40.509999999999998</ele>
        <time>2025-05-09T08:51:53Z</time>
      </trkpt>
      <trkpt lat="36.43625495955348" lon="-5.443593990057707">
        <ele>41.469999999999999</ele>
        <time>2025-05-09T08:51:56Z</time>
      </trkpt>
      <trkpt lat="36.436436008661985" lon="-5.443631038069725">
        <ele>41.950000000000003</ele>
        <time>2025-05-09T08:51:57Z</time>
      </trkpt>
      <trkpt lat="36.43773696385324" lon="-5.444019958376885">
        <ele>42.439999999999998</ele>
        <time>2025-05-09T08:52:05Z</time>
      </trkpt>
      <trkpt lat="36.438590995967388" lon="-5.444315001368523">
        <ele>41.950000000000003</ele>
        <time>2025-05-09T08:52:12Z</time>
      </trkpt>
      <trkpt lat="36.438713036477566" lon="-5.444345008581877">
        <ele>41.950000000000003</ele>
        <time>2025-05-09T08:52:13Z</time>
      </trkpt>
      <trkpt lat="36.438842033967376" lon="-5.444328999146819">
        <ele>42.439999999999998</ele>
        <time>2025-05-09T08:52:14Z</time>
      </trkpt>
      <trkpt lat="36.438976982608438" lon="-5.444284994155169">
        <ele>42.920000000000002</ele>
        <time>2025-05-09T08:52:15Z</time>
      </trkpt>
      <trkpt lat="36.439114026725292" lon="-5.444235960021615">
        <ele>43.399999999999999</ele>
        <time>2025-05-09T08:52:16Z</time>
      </trkpt>
      <trkpt lat="36.439989013597369" lon="-5.443838993087411">
        <ele>48.200000000000003</ele>
        <time>2025-05-09T08:52:22Z</time>
      </trkpt>
      <trkpt lat="36.441096011549234" lon="-5.442950008437038">
        <ele>52.530000000000001</ele>
        <time>2025-05-09T08:52:30Z</time>
      </trkpt>
      <trkpt lat="36.441591968759894" lon="-5.44256703928113">
        <ele>52.530000000000001</ele>
        <time>2025-05-09T08:52:34Z</time>
      </trkpt>
      <trkpt lat="36.441717026755214" lon="-5.44256703928113">
        <ele>52.530000000000001</ele>
        <time>2025-05-09T08:52:35Z</time>
      </trkpt>
      <trkpt lat="36.441887011751533" lon="-5.44256703928113">
        <ele>52.530000000000001</ele>
        <time>2025-05-09T08:52:36Z</time>
      </trkpt>
      <trkpt lat="36.441996982321143" lon="-5.442604003474116">
        <ele>53.009999999999998</ele>
        <time>2025-05-09T08:52:37Z</time>
      </trkpt>
      <trkpt lat="36.442149030044675" lon="-5.442653959617019">
        <ele>53.490000000000002</ele>
        <time>2025-05-09T08:52:38Z</time>
      </trkpt>
      <trkpt lat="36.442309962585568" lon="-5.442708022892475">
        <ele>54.450000000000003</ele>
        <time>2025-05-09T08:52:39Z</time>
      </trkpt>
      <trkpt lat="36.442466033622622" lon="-5.442759990692139">
        <ele>54.93</ele>
        <time>2025-05-09T08:52:40Z</time>
      </trkpt>
      <trkpt lat="36.44261104054749" lon="-5.442759990692139">
        <ele>55.890000000000001</ele>
        <time>2025-05-09T08:52:41Z</time>
      </trkpt>
      <trkpt lat="36.442746995016932" lon="-5.442692013457418">
        <ele>56.369999999999997</ele>
        <time>2025-05-09T08:52:42Z</time>
      </trkpt>
      <trkpt lat="36.442882027477026" lon="-5.442596962675452">
        <ele>56.859999999999999</ele>
        <time>2025-05-09T08:52:43Z</time>
      </trkpt>
      <trkpt lat="36.443023011088371" lon="-5.442489003762603">
        <ele>57.340000000000003</ele>
        <time>2025-05-09T08:52:44Z</time>
      </trkpt>
      <trkpt lat="36.443334985524416" lon="-5.442249029874802">
        <ele>58.780000000000001</ele>
        <time>2025-05-09T08:52:46Z</time>
      </trkpt>
      <trkpt lat="36.444230005145073" lon="-5.441490970551968">
        <ele>63.100000000000001</ele>
        <time>2025-05-09T08:52:52Z</time>
      </trkpt>
      <trkpt lat="36.444321032613516" lon="-5.441338000819087">
        <ele>63.579999999999998</ele>
        <time>2025-05-09T08:52:53Z</time>
      </trkpt>
      <trkpt lat="36.444400995969772" lon="-5.441191988065839">
        <ele>64.549999999999997</ele>
        <time>2025-05-09T08:52:54Z</time>
      </trkpt>
      <trkpt lat="36.444475008174777" lon="-5.441057961434126">
        <ele>65.510000000000005</ele>
        <time>2025-05-09T08:52:55Z</time>
      </trkpt>
      <trkpt lat="36.444556983187795" lon="-5.440955031663179">
        <ele>66.469999999999999</ele>
        <time>2025-05-09T08:52:56Z</time>
      </trkpt>
      <trkpt lat="36.444666031748056" lon="-5.440922006964684">
        <ele>67.430000000000007</ele>
        <time>2025-05-09T08:52:57Z</time>
      </trkpt>
      <trkpt lat="36.444782037287951" lon="-5.440932987257838">
        <ele>68.390000000000001</ele>
        <time>2025-05-09T08:52:58Z</time>
      </trkpt>
      <trkpt lat="36.44491002894938" lon="-5.440944973379374">
        <ele>69.829999999999998</ele>
        <time>2025-05-09T08:52:59Z</time>
      </trkpt>
      <trkpt lat="36.445042965933681" lon="-5.440956959500909">
        <ele>70.790000000000006</ele>
        <time>2025-05-09T08:53:00Z</time>
      </trkpt>
      <trkpt lat="36.445172969251871" lon="-5.440969029441476">
        <ele>71.760000000000005</ele>
        <time>2025-05-09T08:53:01Z</time>
      </trkpt>
      <trkpt lat="36.445299033075571" lon="-5.440961988642812">
        <ele>72.719999999999999</ele>
        <time>2025-05-09T08:53:02Z</time>
      </trkpt>
      <trkpt lat="36.445423001423478" lon="-5.440864004194737">
        <ele>74.159999999999997</ele>
        <time>2025-05-09T08:53:03Z</time>
      </trkpt>
      <trkpt lat="36.44555602222681" lon="-5.440758978947997">
        <ele>75.120000000000005</ele>
        <time>2025-05-09T08:53:04Z</time>
      </trkpt>
      <trkpt lat="36.445691976696253" lon="-5.440652025863528">
        <ele>76.560000000000002</ele>
        <time>2025-05-09T08:53:05Z</time>
      </trkpt>
      <trkpt lat="36.445946032181382" lon="-5.440452033653855">
        <ele>78.480000000000004</ele>
        <time>2025-05-09T08:53:07Z</time>
      </trkpt>
      <trkpt lat="36.44607100635767" lon="-5.440384978428483">
        <ele>78.969999999999999</ele>
        <time>2025-05-09T08:53:08Z</time>
      </trkpt>
      <trkpt lat="36.446198998019099" lon="-5.440329993143678">
        <ele>79.930000000000007</ele>
        <time>2025-05-09T08:53:09Z</time>
      </trkpt>
      <trkpt lat="36.446332018822432" lon="-5.440292023122311">
        <ele>80.890000000000001</ele>
        <time>2025-05-09T08:53:10Z</time>
      </trkpt>
      <trkpt lat="36.446469984948635" lon="-5.440292023122311">
        <ele>81.849999999999994</ele>
        <time>2025-05-09T08:53:11Z</time>
      </trkpt>
      <trkpt lat="36.44661096855998" lon="-5.440320018678904">
        <ele>82.329999999999998</ele>
        <time>2025-05-09T08:53:12Z</time>
      </trkpt>
      <trkpt lat="36.446744995191693" lon="-5.440353965386748">
        <ele>83.290000000000006</ele>
        <time>2025-05-09T08:53:13Z</time>
      </trkpt>
      <trkpt lat="36.446873992681503" lon="-5.440385984256864">
        <ele>84.25</ele>
        <time>2025-05-09T08:53:14Z</time>
      </trkpt>
      <trkpt lat="36.447100974619389" lon="-5.44044298119843">
        <ele>86.180000000000007</ele>
        <time>2025-05-09T08:53:16Z</time>
      </trkpt>
      <trkpt lat="36.447202982380986" lon="-5.440459996461868">
        <ele>86.659999999999997</ele>
        <time>2025-05-09T08:53:17Z</time>
      </trkpt>
      <trkpt lat="36.447298033162951" lon="-5.440438035875559">
        <ele>87.140000000000001</ele>
        <time>2025-05-09T08:53:18Z</time>
      </trkpt>
      <trkpt lat="36.447385037317872" lon="-5.440418003126979">
        <ele>87.620000000000005</ele>
        <time>2025-05-09T08:53:19Z</time>
      </trkpt>
      <trkpt lat="36.44746801815927" lon="-5.440397970378399">
        <ele>88.099999999999994</ele>
        <time>2025-05-09T08:53:20Z</time>
      </trkpt>
      <trkpt lat="36.447559967637062" lon="-5.440368968993425">
        <ele>88.579999999999998</ele>
        <time>2025-05-09T08:53:21Z</time>
      </trkpt>
      <trkpt lat="36.447625011205673" lon="-5.440295040607452">
        <ele>89.060000000000002</ele>
        <time>2025-05-09T08:53:22Z</time>
      </trkpt>
      <trkpt lat="36.44770204089582" lon="-5.440207030624151">
        <ele>89.540000000000006</ele>
        <time>2025-05-09T08:53:23Z</time>
      </trkpt>
      <trkpt lat="36.447744034230709" lon="-5.440094964578748">
        <ele>90.019999999999996</ele>
        <time>2025-05-09T08:53:24Z</time>
      </trkpt>
      <trkpt lat="36.447775969281793" lon="-5.439959010109305">
        <ele>90.5</ele>
        <time>2025-05-09T08:53:25Z</time>
      </trkpt>
      <trkpt lat="36.447793990373611" lon="-5.439810985699296">
        <ele>90.980000000000004</ele>
        <time>2025-05-09T08:53:26Z</time>
      </trkpt>
      <trkpt lat="36.44781100563705" lon="-5.439651980996132">
        <ele>91.459999999999994</ele>
        <time>2025-05-09T08:53:27Z</time>
      </trkpt>
      <trkpt lat="36.447825003415346" lon="-5.439354004338384">
        <ele>92.900000000000006</ele>
        <time>2025-05-09T08:53:29Z</time>
      </trkpt>
      <trkpt lat="36.44783397205174" lon="-5.439229030162096">
        <ele>93.390000000000001</ele>
        <time>2025-05-09T08:53:30Z</time>
      </trkpt>
      <trkpt lat="36.447870014235377" lon="-5.439083017408848">
        <ele>94.349999999999994</ele>
        <time>2025-05-09T08:53:31Z</time>
      </trkpt>
      <trkpt lat="36.448143012821674" lon="-5.438036033883691">
        <ele>98.189999999999998</ele>
        <time>2025-05-09T08:53:36Z</time>
      </trkpt>
      <trkpt lat="36.448431015014648" lon="-5.43700598180294">
        <ele>103</ele>
        <time>2025-05-09T08:53:43Z</time>
      </trkpt>
      <trkpt lat="36.448523970320821" lon="-5.436772964894772">
        <ele>103.95999999999999</ele>
        <time>2025-05-09T08:53:45Z</time>
      </trkpt>
      <trkpt lat="36.448593037202954" lon="-5.436679003760219">
        <ele>104.44</ele>
        <time>2025-05-09T08:53:46Z</time>
      </trkpt>
      <trkpt lat="36.448683980852365" lon="-5.436593005433679">
        <ele>104.92</ele>
        <time>2025-05-09T08:53:47Z</time>
      </trkpt>
      <trkpt lat="36.448796968907118" lon="-5.436487980186939">
        <ele>104.92</ele>
        <time>2025-05-09T08:53:48Z</time>
      </trkpt>
      <trkpt lat="36.448941975831985" lon="-5.436366023495793">
        <ele>105.40000000000001</ele>
        <time>2025-05-09T08:53:49Z</time>
      </trkpt>
      <trkpt lat="36.449113972485065" lon="-5.436242977157235">
        <ele>105.40000000000001</ele>
        <time>2025-05-09T08:53:50Z</time>
      </trkpt>
      <trkpt lat="36.450505033135414" lon="-5.435261037200689">
        <ele>106.36</ele>
        <time>2025-05-09T08:53:58Z</time>
      </trkpt>
      <trkpt lat="36.450939970090985" lon="-5.434908997267485">
        <ele>106.84</ele>
        <time>2025-05-09T08:54:01Z</time>
      </trkpt>
      <trkpt lat="36.451015993952751" lon="-5.434758961200714">
        <ele>106.84</ele>
        <time>2025-05-09T08:54:02Z</time>
      </trkpt>
      <trkpt lat="36.451070979237556" lon="-5.434628035873175">
        <ele>106.84</ele>
        <time>2025-05-09T08:54:03Z</time>
      </trkpt>
      <trkpt lat="36.451070979237556" lon="-5.434494009241462">
        <ele>106.84</ele>
        <time>2025-05-09T08:54:04Z</time>
      </trkpt>
      <trkpt lat="36.451055975630879" lon="-5.434373980388045">
        <ele>107.31999999999999</ele>
        <time>2025-05-09T08:54:05Z</time>
      </trkpt>
      <trkpt lat="36.451008031144738" lon="-5.434238025918603">
        <ele>107.81</ele>
        <time>2025-05-09T08:54:06Z</time>
      </trkpt>
      <trkpt lat="36.450915997847915" lon="-5.434122020378709">
        <ele>108.77</ele>
        <time>2025-05-09T08:54:07Z</time>
      </trkpt>
      <trkpt lat="36.450814995914698" lon="-5.433994028717279">
        <ele>109.25</ele>
        <time>2025-05-09T08:54:08Z</time>
      </trkpt>
      <trkpt lat="36.450706031173468" lon="-5.433856984600425">
        <ele>109.73</ele>
        <time>2025-05-09T08:54:09Z</time>
      </trkpt>
      <trkpt lat="36.450612992048264" lon="-5.433707032352686">
        <ele>110.20999999999999</ele>
        <time>2025-05-09T08:54:10Z</time>
      </trkpt>
      <trkpt lat="36.450575022026896" lon="-5.433496981859207">
        <ele>111.17</ele>
        <time>2025-05-09T08:54:11Z</time>
      </trkpt>
      <trkpt lat="36.450534034520388" lon="-5.433268994092941">
        <ele>111.65000000000001</ele>
        <time>2025-05-09T08:54:12Z</time>
      </trkpt>
      <trkpt lat="36.450492041185498" lon="-5.433032959699631">
        <ele>112.13</ele>
        <time>2025-05-09T08:54:13Z</time>
      </trkpt>
      <trkpt lat="36.450437977910042" lon="-5.432607997208834">
        <ele>112.61</ele>
        <time>2025-05-09T08:54:15Z</time>
      </trkpt>
      <trkpt lat="36.450469996780157" lon="-5.432415967807174">
        <ele>112.61</ele>
        <time>2025-05-09T08:54:16Z</time>
      </trkpt>
      <trkpt lat="36.45051802508533" lon="-5.432237014174461">
        <ele>113.09</ele>
        <time>2025-05-09T08:54:17Z</time>
      </trkpt>
      <trkpt lat="36.450609974563122" lon="-5.432057976722717">
        <ele>113.09</ele>
        <time>2025-05-09T08:54:18Z</time>
      </trkpt>
      <trkpt lat="36.450703013688326" lon="-5.431878017261624">
        <ele>113.09</ele>
        <time>2025-05-09T08:54:19Z</time>
      </trkpt>
      <trkpt lat="36.450794963166118" lon="-5.43169897980988">
        <ele>113.09</ele>
        <time>2025-05-09T08:54:20Z</time>
      </trkpt>
      <trkpt lat="36.451010964810848" lon="-5.431399997323751">
        <ele>112.61</ele>
        <time>2025-05-09T08:54:22Z</time>
      </trkpt>
      <trkpt lat="36.451129987835884" lon="-5.431270999833942">
        <ele>112.13</ele>
        <time>2025-05-09T08:54:23Z</time>
      </trkpt>
      <trkpt lat="36.451283963397145" lon="-5.431189024820924">
        <ele>112.13</ele>
        <time>2025-05-09T08:54:24Z</time>
      </trkpt>
      <trkpt lat="36.45219499245286" lon="-5.430645039305091">
        <ele>109.73</ele>
        <time>2025-05-09T08:54:30Z</time>
      </trkpt>
      <trkpt lat="36.452293982729316" lon="-5.430529033765197">
        <ele>109.25</ele>
        <time>2025-05-09T08:54:31Z</time>
      </trkpt>
      <trkpt lat="36.452384004369378" lon="-5.430348990485072">
        <ele>108.77</ele>
        <time>2025-05-09T08:54:32Z</time>
      </trkpt>
      <trkpt lat="36.452465979382396" lon="-5.430185040459037">
        <ele>108.29000000000001</ele>
        <time>2025-05-09T08:54:33Z</time>
      </trkpt>
      <trkpt lat="36.452546026557684" lon="-5.430024024099112">
        <ele>107.81</ele>
        <time>2025-05-09T08:54:34Z</time>
      </trkpt>
      <trkpt lat="36.452621966600418" lon="-5.42987298220396">
        <ele>107.31999999999999</ele>
        <time>2025-05-09T08:54:35Z</time>
      </trkpt>
      <trkpt lat="36.452719029039145" lon="-5.429760999977589">
        <ele>106.84</ele>
        <time>2025-05-09T08:54:36Z</time>
      </trkpt>
      <trkpt lat="36.452808966860175" lon="-5.429670978337526">
        <ele>106.36</ele>
        <time>2025-05-09T08:54:37Z</time>
      </trkpt>
      <trkpt lat="36.452949028462172" lon="-5.429642982780933">
        <ele>105.88</ele>
        <time>2025-05-09T08:54:38Z</time>
      </trkpt>
      <trkpt lat="36.453090012073517" lon="-5.429615993052721">
        <ele>105.40000000000001</ele>
        <time>2025-05-09T08:54:39Z</time>
      </trkpt>
      <trkpt lat="36.453238036483526" lon="-5.429589003324509">
        <ele>104.92</ele>
        <time>2025-05-09T08:54:40Z</time>
      </trkpt>
      <trkpt lat="36.453383965417743" lon="-5.429562013596296">
        <ele>104.44</ele>
        <time>2025-05-09T08:54:41Z</time>
      </trkpt>
      <trkpt lat="36.453495025634766" lon="-5.429541980847716">
        <ele>103.48</ele>
        <time>2025-05-09T08:54:42Z</time>
      </trkpt>
      <trkpt lat="36.453612959012389" lon="-5.429423963651061">
        <ele>103</ele>
        <time>2025-05-09T08:54:43Z</time>
      </trkpt>
      <trkpt lat="36.45369996316731" lon="-5.429299995303154">
        <ele>102.52</ele>
        <time>2025-05-09T08:54:44Z</time>
      </trkpt>
      <trkpt lat="36.453777998685837" lon="-5.429133027791977">
        <ele>102.04000000000001</ele>
        <time>2025-05-09T08:54:45Z</time>
      </trkpt>
      <trkpt lat="36.453842958435416" lon="-5.428954996168613">
        <ele>101.56</ele>
        <time>2025-05-09T08:54:46Z</time>
      </trkpt>
      <trkpt lat="36.453941026702523" lon="-5.428593987599015">
        <ele>100.11</ele>
        <time>2025-05-09T08:54:48Z</time>
      </trkpt>
      <trkpt lat="36.45395795814693" lon="-5.428402964025736">
        <ele>99.629999999999995</ele>
        <time>2025-05-09T08:54:49Z</time>
      </trkpt>
      <trkpt lat="36.453971033915877" lon="-5.428201965987682">
        <ele>98.670000000000002</ele>
        <time>2025-05-09T08:54:50Z</time>
      </trkpt>
      <trkpt lat="36.453988971188664" lon="-5.426440006121993">
        <ele>90.5</ele>
        <time>2025-05-09T08:54:59Z</time>
      </trkpt>
      <trkpt lat="36.454006992280483" lon="-5.426044967025518">
        <ele>87.620000000000005</ele>
        <time>2025-05-09T08:55:02Z</time>
      </trkpt>
      <trkpt lat="36.454027025029063" lon="-5.425922004505992">
        <ele>86.659999999999997</ele>
        <time>2025-05-09T08:55:03Z</time>
      </trkpt>
      <trkpt lat="36.454101037234068" lon="-5.425814967602491">
        <ele>85.689999999999998</ele>
        <time>2025-05-09T08:55:04Z</time>
      </trkpt>
      <trkpt lat="36.454188963398337" lon="-5.425712959840894">
        <ele>84.730000000000004</ele>
        <time>2025-05-09T08:55:05Z</time>
      </trkpt>
      <trkpt lat="36.454311003908515" lon="-5.425571976229549">
        <ele>83.769999999999996</ele>
        <time>2025-05-09T08:55:06Z</time>
      </trkpt>
      <trkpt lat="36.454414017498493" lon="-5.425493018701673">
        <ele>82.810000000000002</ele>
        <time>2025-05-09T08:55:07Z</time>
      </trkpt>
      <trkpt lat="36.455413978546858" lon="-5.424720039591193">
        <ele>78.969999999999999</ele>
        <time>2025-05-09T08:55:13Z</time>
      </trkpt>
      <trkpt lat="36.456850972026587" lon="-5.423564007505775">
        <ele>75.120000000000005</ele>
        <time>2025-05-09T08:55:22Z</time>
      </trkpt>
      <trkpt lat="36.457591010257602" lon="-5.423048017546535">
        <ele>75.120000000000005</ele>
        <time>2025-05-09T08:55:27Z</time>
      </trkpt>
      <trkpt lat="36.457739034667611" lon="-5.422984985634685">
        <ele>75.120000000000005</ele>
        <time>2025-05-09T08:55:28Z</time>
      </trkpt>
      <trkpt lat="36.457894016057253" lon="-5.422933017835021">
        <ele>74.640000000000001</ele>
        <time>2025-05-09T08:55:29Z</time>
      </trkpt>
      <trkpt lat="36.45806098356843" lon="-5.42295397259295">
        <ele>74.159999999999997</ele>
        <time>2025-05-09T08:55:30Z</time>
      </trkpt>
      <trkpt lat="36.45823298022151" lon="-5.42297501116991">
        <ele>73.200000000000003</ele>
        <time>2025-05-09T08:55:31Z</time>
      </trkpt>
      <trkpt lat="36.458401037380099" lon="-5.423023039475083">
        <ele>72.239999999999995</ele>
        <time>2025-05-09T08:55:32Z</time>
      </trkpt>
      <trkpt lat="36.459144009277225" lon="-5.423269970342517">
        <ele>66.469999999999999</ele>
        <time>2025-05-09T08:55:37Z</time>
      </trkpt>
      <trkpt lat="36.459268983453512" lon="-5.423350017517805">
        <ele>65.030000000000001</ele>
        <time>2025-05-09T08:55:38Z</time>
      </trkpt>
      <trkpt lat="36.459365962073207" lon="-5.423454958945513">
        <ele>64.069999999999993</ele>
        <time>2025-05-09T08:55:39Z</time>
      </trkpt>
      <trkpt lat="36.459419019520283" lon="-5.423582028597593">
        <ele>62.619999999999997</ele>
        <time>2025-05-09T08:55:40Z</time>
      </trkpt>
      <trkpt lat="36.459443997591734" lon="-5.423728041350842">
        <ele>61.659999999999997</ele>
        <time>2025-05-09T08:55:41Z</time>
      </trkpt>
      <trkpt lat="36.45945799537003" lon="-5.42390096001327">
        <ele>60.700000000000003</ele>
        <time>2025-05-09T08:55:42Z</time>
      </trkpt>
      <trkpt lat="36.459471993148327" lon="-5.424074968323112">
        <ele>59.259999999999998</ele>
        <time>2025-05-09T08:55:43Z</time>
      </trkpt>
      <trkpt lat="36.4595009945333" lon="-5.424249982461333">
        <ele>57.82</ele>
        <time>2025-05-09T08:55:44Z</time>
      </trkpt>
      <trkpt lat="36.459547011181712" lon="-5.42437101714313">
        <ele>56.369999999999997</ele>
        <time>2025-05-09T08:55:45Z</time>
      </trkpt>
      <trkpt lat="36.4596529584378" lon="-5.424476964399219">
        <ele>55.409999999999997</ele>
        <time>2025-05-09T08:55:46Z</time>
      </trkpt>
      <trkpt lat="36.459747003391385" lon="-5.424487022683024">
        <ele>54.450000000000003</ele>
        <time>2025-05-09T08:55:47Z</time>
      </trkpt>
      <trkpt lat="36.459854040294886" lon="-5.424498002976179">
        <ele>53.009999999999998</ele>
        <time>2025-05-09T08:55:48Z</time>
      </trkpt>
      <trkpt lat="36.459939032793045" lon="-5.424450980499387">
        <ele>52.530000000000001</ele>
        <time>2025-05-09T08:55:49Z</time>
      </trkpt>
      <trkpt lat="36.460054032504559" lon="-5.424373028799892">
        <ele>51.57</ele>
        <time>2025-05-09T08:55:50Z</time>
      </trkpt>
      <trkpt lat="36.460179006680846" lon="-5.424288036301732">
        <ele>51.090000000000003</ele>
        <time>2025-05-09T08:55:51Z</time>
      </trkpt>
      <trkpt lat="36.460306998342276" lon="-5.424201032146812">
        <ele>50.609999999999999</ele>
        <time>2025-05-09T08:55:52Z</time>
      </trkpt>
      <trkpt lat="36.46044697612524" lon="-5.424170019105077">
        <ele>50.130000000000003</ele>
        <time>2025-05-09T08:55:53Z</time>
      </trkpt>
      <trkpt lat="36.460590977221727" lon="-5.424160966649652">
        <ele>49.159999999999997</ele>
        <time>2025-05-09T08:55:54Z</time>
      </trkpt>
      <trkpt lat="36.460742019116879" lon="-5.424149986356497">
        <ele>48.68</ele>
        <time>2025-05-09T08:55:55Z</time>
      </trkpt>
      <trkpt lat="36.460893983021379" lon="-5.424140011891723">
        <ele>47.719999999999999</ele>
        <time>2025-05-09T08:55:56Z</time>
      </trkpt>
      <trkpt lat="36.461035972461104" lon="-5.424100030213594">
        <ele>47.240000000000002</ele>
        <time>2025-05-09T08:55:57Z</time>
      </trkpt>
      <trkpt lat="36.461177039891481" lon="-5.424033980816603">
        <ele>46.280000000000001</ele>
        <time>2025-05-09T08:55:58Z</time>
      </trkpt>
      <trkpt lat="36.461316011846066" lon="-5.423968015238643">
        <ele>45.32</ele>
        <time>2025-05-09T08:55:59Z</time>
      </trkpt>
      <trkpt lat="36.461425982415676" lon="-5.42385502718389">
        <ele>44.359999999999999</ele>
        <time>2025-05-09T08:56:00Z</time>
      </trkpt>
      <trkpt lat="36.46154098212719" lon="-5.423728041350842">
        <ele>43.399999999999999</ele>
        <time>2025-05-09T08:56:01Z</time>
      </trkpt>
      <trkpt lat="36.461616000160575" lon="-5.423580016940832">
        <ele>42.920000000000002</ele>
        <time>2025-05-09T08:56:02Z</time>
      </trkpt>
      <trkpt lat="36.461677020415664" lon="-5.423422018066049">
        <ele>42.439999999999998</ele>
        <time>2025-05-09T08:56:03Z</time>
      </trkpt>
      <trkpt lat="36.461700992658734" lon="-5.423227977007628">
        <ele>41.950000000000003</ele>
        <time>2025-05-09T08:56:04Z</time>
      </trkpt>
      <trkpt lat="36.461725970730186" lon="-5.423025973141193">
        <ele>42.439999999999998</ele>
        <time>2025-05-09T08:56:05Z</time>
      </trkpt>
      <trkpt lat="36.461784979328513" lon="-5.421926015987992">
        <ele>44.840000000000003</ele>
        <time>2025-05-09T08:56:10Z</time>
      </trkpt>
      <trkpt lat="36.461747009307146" lon="-5.421709008514881">
        <ele>45.32</ele>
        <time>2025-05-09T08:56:11Z</time>
      </trkpt>
      <trkpt lat="36.461705015972257" lon="-5.421493006870151">
        <ele>45.799999999999997</ele>
        <time>2025-05-09T08:56:12Z</time>
      </trkpt>
      <trkpt lat="36.461634021252394" lon="-5.42129997164011">
        <ele>46.759999999999998</ele>
        <time>2025-05-09T08:56:13Z</time>
      </trkpt>
      <trkpt lat="36.461565960198641" lon="-5.421115988865495">
        <ele>47.240000000000002</ele>
        <time>2025-05-09T08:56:14Z</time>
      </trkpt>
      <trkpt lat="36.461206963285804" lon="-5.420112004503608">
        <ele>48.68</ele>
        <time>2025-05-09T08:56:20Z</time>
      </trkpt>
      <trkpt lat="36.461177039891481" lon="-5.419962974265218">
        <ele>48.68</ele>
        <time>2025-05-09T08:56:21Z</time>
      </trkpt>
      <trkpt lat="36.461177039891481" lon="-5.419821990653873">
        <ele>48.200000000000003</ele>
        <time>2025-05-09T08:56:22Z</time>
      </trkpt>
      <trkpt lat="36.461186008527875" lon="-5.419692993164063">
        <ele>48.200000000000003</ele>
        <time>2025-05-09T08:56:23Z</time>
      </trkpt>
      <trkpt lat="36.461232025176287" lon="-5.419577993452549">
        <ele>47.719999999999999</ele>
        <time>2025-05-09T08:56:24Z</time>
      </trkpt>
      <trkpt lat="36.461301008239388" lon="-5.4194700345397">
        <ele>47.240000000000002</ele>
        <time>2025-05-09T08:56:25Z</time>
      </trkpt>
      <trkpt lat="36.461393041536212" lon="-5.419397028163075">
        <ele>46.759999999999998</ele>
        <time>2025-05-09T08:56:26Z</time>
      </trkpt>
      <trkpt lat="36.461493959650397" lon="-5.419319998472929">
        <ele>45.799999999999997</ele>
        <time>2025-05-09T08:56:27Z</time>
      </trkpt>
      <trkpt lat="36.461609965190291" lon="-5.419261995702982">
        <ele>44.840000000000003</ele>
        <time>2025-05-09T08:56:28Z</time>
      </trkpt>
      <trkpt lat="36.461738040670753" lon="-5.419217990711331">
        <ele>44.359999999999999</ele>
        <time>2025-05-09T08:56:29Z</time>
      </trkpt>
      <trkpt lat="36.461880030110478" lon="-5.419178009033203">
        <ele>43.880000000000003</ele>
        <time>2025-05-09T08:56:30Z</time>
      </trkpt>
      <trkpt lat="36.463050981983542" lon="-5.418829992413521">
        <ele>39.07</ele>
        <time>2025-05-09T08:56:39Z</time>
      </trkpt>
      <trkpt lat="36.464902041479945" lon="-5.418306961655617">
        <ele>38.109999999999999</ele>
        <time>2025-05-09T08:56:53Z</time>
      </trkpt>
      <trkpt lat="36.46622596308589" lon="-5.4179020319134">
        <ele>40.030000000000001</ele>
        <time>2025-05-09T08:57:03Z</time>
      </trkpt>
      <trkpt lat="36.467197006568313" lon="-5.417427029460669">
        <ele>40.990000000000002</ele>
        <time>2025-05-09T08:57:11Z</time>
      </trkpt>
      <trkpt lat="36.46774903871119" lon="-5.417075995355845">
        <ele>41.950000000000003</ele>
        <time>2025-05-09T08:57:16Z</time>
      </trkpt>
      <trkpt lat="36.467850962653756" lon="-5.416988991200924">
        <ele>41.950000000000003</ele>
        <time>2025-05-09T08:57:17Z</time>
      </trkpt>
      <trkpt lat="36.467933021485806" lon="-5.41689402423799">
        <ele>41.469999999999999</ele>
        <time>2025-05-09T08:57:18Z</time>
      </trkpt>
      <trkpt lat="36.467998987063766" lon="-5.416759997606278">
        <ele>41.469999999999999</ele>
        <time>2025-05-09T08:57:19Z</time>
      </trkpt>
      <trkpt lat="36.468034023419023" lon="-5.41661599650979">
        <ele>40.990000000000002</ele>
        <time>2025-05-09T08:57:20Z</time>
      </trkpt>
      <trkpt lat="36.468070987612009" lon="-5.41646596044302">
        <ele>40.990000000000002</ele>
        <time>2025-05-09T08:57:21Z</time>
      </trkpt>
      <trkpt lat="36.468109041452408" lon="-5.416311984881759">
        <ele>40.509999999999998</ele>
        <time>2025-05-09T08:57:22Z</time>
      </trkpt>
      <trkpt lat="36.468146005645394" lon="-5.416160020977259">
        <ele>40.030000000000001</ele>
        <time>2025-05-09T08:57:23Z</time>
      </trkpt>
      <trkpt lat="36.46818196401" lon="-5.41601300239563">
        <ele>39.549999999999997</ele>
        <time>2025-05-09T08:57:24Z</time>
      </trkpt>
      <trkpt lat="36.468217000365257" lon="-5.415870007127523">
        <ele>39.07</ele>
        <time>2025-05-09T08:57:25Z</time>
      </trkpt>
      <trkpt lat="36.468252036720514" lon="-5.415726006031036">
        <ele>38.590000000000003</ele>
        <time>2025-05-09T08:57:26Z</time>
      </trkpt>
      <trkpt lat="36.468301992863417" lon="-5.415593991056085">
        <ele>38.109999999999999</ele>
        <time>2025-05-09T08:57:27Z</time>
      </trkpt>
      <trkpt lat="36.468356978148222" lon="-5.415472034364939">
        <ele>38.109999999999999</ele>
        <time>2025-05-09T08:57:28Z</time>
      </trkpt>
      <trkpt lat="36.468441970646381" lon="-5.415370026603341">
        <ele>38.109999999999999</ele>
        <time>2025-05-09T08:57:29Z</time>
      </trkpt>
      <trkpt lat="36.468560993671417" lon="-5.415317974984646">
        <ele>38.109999999999999</ele>
        <time>2025-05-09T08:57:30Z</time>
      </trkpt>
      <trkpt lat="36.468685967847705" lon="-5.415285034105182">
        <ele>38.590000000000003</ele>
        <time>2025-05-09T08:57:31Z</time>
      </trkpt>
      <trkpt lat="36.468817982822657" lon="-5.415267013013363">
        <ele>39.07</ele>
        <time>2025-05-09T08:57:32Z</time>
      </trkpt>
      <trkpt lat="36.468954021111131" lon="-5.415246980264783">
        <ele>39.07</ele>
        <time>2025-05-09T08:57:33Z</time>
      </trkpt>
      <trkpt lat="36.469073966145515" lon="-5.415229965001345">
        <ele>39.07</ele>
        <time>2025-05-09T08:57:34Z</time>
      </trkpt>
      <trkpt lat="36.46919097751379" lon="-5.415157964453101">
        <ele>39.07</ele>
        <time>2025-05-09T08:57:35Z</time>
      </trkpt>
      <trkpt lat="36.469299020245671" lon="-5.415090993046761">
        <ele>39.549999999999997</ele>
        <time>2025-05-09T08:57:36Z</time>
      </trkpt>
      <trkpt lat="36.469377977773547" lon="-5.414989991113544">
        <ele>39.549999999999997</ele>
        <time>2025-05-09T08:57:37Z</time>
      </trkpt>
      <trkpt lat="36.469428017735481" lon="-5.414856970310211">
        <ele>40.030000000000001</ele>
        <time>2025-05-09T08:57:38Z</time>
      </trkpt>
      <trkpt lat="36.469480991363525" lon="-5.414714980870485">
        <ele>40.030000000000001</ele>
        <time>2025-05-09T08:57:39Z</time>
      </trkpt>
      <trkpt lat="36.469480991363525" lon="-5.41457399725914">
        <ele>40.030000000000001</ele>
        <time>2025-05-09T08:57:40Z</time>
      </trkpt>
      <trkpt lat="36.469480991363525" lon="-5.414411975070834">
        <ele>40.030000000000001</ele>
        <time>2025-05-09T08:57:41Z</time>
      </trkpt>
      <trkpt lat="36.469417037442327" lon="-5.412784041836858">
        <ele>39.549999999999997</ele>
        <time>2025-05-09T08:57:51Z</time>
      </trkpt>
      <trkpt lat="36.46940496750176" lon="-5.411660028621554">
        <ele>41.950000000000003</ele>
        <time>2025-05-09T08:57:58Z</time>
      </trkpt>
      <trkpt lat="36.469430029392242" lon="-5.411509992554784">
        <ele>42.920000000000002</ele>
        <time>2025-05-09T08:57:59Z</time>
      </trkpt>
      <trkpt lat="36.469497000798583" lon="-5.41137496009469">
        <ele>43.399999999999999</ele>
        <time>2025-05-09T08:58:00Z</time>
      </trkpt>
      <trkpt lat="36.469604037702084" lon="-5.411284016445279">
        <ele>43.880000000000003</ele>
        <time>2025-05-09T08:58:01Z</time>
      </trkpt>
      <trkpt lat="36.469719959422946" lon="-5.411225007846952">
        <ele>44.359999999999999</ele>
        <time>2025-05-09T08:58:02Z</time>
      </trkpt>
      <trkpt lat="36.469844011589885" lon="-5.411175973713398">
        <ele>44.840000000000003</ele>
        <time>2025-05-09T08:58:03Z</time>
      </trkpt>
      <trkpt lat="36.469969991594553" lon="-5.411119982600212">
        <ele>45.32</ele>
        <time>2025-05-09T08:58:04Z</time>
      </trkpt>
      <trkpt lat="36.470099994912744" lon="-5.411062985658646">
        <ele>45.799999999999997</ele>
        <time>2025-05-09T08:58:05Z</time>
      </trkpt>
      <trkpt lat="36.470228992402554" lon="-5.410992996767163">
        <ele>46.280000000000001</ele>
        <time>2025-05-09T08:58:06Z</time>
      </trkpt>
      <trkpt lat="36.470352038741112" lon="-5.41089802980423">
        <ele>46.280000000000001</ele>
        <time>2025-05-09T08:58:07Z</time>
      </trkpt>
      <trkpt lat="36.470466032624245" lon="-5.410775989294052">
        <ele>46.280000000000001</ele>
        <time>2025-05-09T08:58:08Z</time>
      </trkpt>
      <trkpt lat="36.470569968223572" lon="-5.410653026774526">
        <ele>46.280000000000001</ele>
        <time>2025-05-09T08:58:09Z</time>
      </trkpt>
      <trkpt lat="36.470657978206873" lon="-5.410508019849658">
        <ele>46.280000000000001</ele>
        <time>2025-05-09T08:58:10Z</time>
      </trkpt>
      <trkpt lat="36.470726039260626" lon="-5.410358989611268">
        <ele>46.280000000000001</ele>
        <time>2025-05-09T08:58:11Z</time>
      </trkpt>
      <trkpt lat="36.47075898014009" lon="-5.410158997401595">
        <ele>46.280000000000001</ele>
        <time>2025-05-09T08:58:12Z</time>
      </trkpt>
      <trkpt lat="36.470792004838586" lon="-5.409960011020303">
        <ele>46.280000000000001</ele>
        <time>2025-05-09T08:58:13Z</time>
      </trkpt>
      <trkpt lat="36.470809020102024" lon="-5.409759012982249">
        <ele>46.759999999999998</ele>
        <time>2025-05-09T08:58:14Z</time>
      </trkpt>
      <trkpt lat="36.470800973474979" lon="-5.409549968317151">
        <ele>46.759999999999998</ele>
        <time>2025-05-09T08:58:15Z</time>
      </trkpt>
      <trkpt lat="36.470794016495347" lon="-5.409336984157562">
        <ele>46.280000000000001</ele>
        <time>2025-05-09T08:58:16Z</time>
      </trkpt>
      <trkpt lat="36.470705000683665" lon="-5.408320007845759">
        <ele>45.799999999999997</ele>
        <time>2025-05-09T08:58:21Z</time>
      </trkpt>
      <trkpt lat="36.470654960721731" lon="-5.408170977607369">
        <ele>45.32</ele>
        <time>2025-05-09T08:58:22Z</time>
      </trkpt>
      <trkpt lat="36.470582960173488" lon="-5.408018007874489">
        <ele>45.32</ele>
        <time>2025-05-09T08:58:23Z</time>
      </trkpt>
      <trkpt lat="36.470486987382174" lon="-5.407897979021072">
        <ele>44.840000000000003</ele>
        <time>2025-05-09T08:58:24Z</time>
      </trkpt>
      <trkpt lat="36.470380034297705" lon="-5.407795971259475">
        <ele>44.359999999999999</ele>
        <time>2025-05-09T08:58:25Z</time>
      </trkpt>
      <trkpt lat="36.470269979909062" lon="-5.407710978761315">
        <ele>44.359999999999999</ele>
        <time>2025-05-09T08:58:26Z</time>
      </trkpt>
      <trkpt lat="36.47000502794981" lon="-5.40748299099505">
        <ele>43.399999999999999</ele>
        <time>2025-05-09T08:58:29Z</time>
      </trkpt>
      <trkpt lat="36.469932021573186" lon="-5.40739799849689">
        <ele>43.399999999999999</ele>
        <time>2025-05-09T08:58:30Z</time>
      </trkpt>
      <trkpt lat="36.469892039895058" lon="-5.40729196742177">
        <ele>42.920000000000002</ele>
        <time>2025-05-09T08:58:31Z</time>
      </trkpt>
      <trkpt lat="36.469867983832955" lon="-5.407175961881876">
        <ele>42.920000000000002</ele>
        <time>2025-05-09T08:58:32Z</time>
      </trkpt>
      <trkpt lat="36.469867983832955" lon="-5.407039001584053">
        <ele>41.950000000000003</ele>
        <time>2025-05-09T08:58:33Z</time>
      </trkpt>
      <trkpt lat="36.469877036288381" lon="-5.406889971345663">
        <ele>41.469999999999999</ele>
        <time>2025-05-09T08:58:34Z</time>
      </trkpt>
      <trkpt lat="36.469890028238297" lon="-5.406730966642499">
        <ele>41.469999999999999</ele>
        <time>2025-05-09T08:58:35Z</time>
      </trkpt>
      <trkpt lat="36.470025982707739" lon="-5.405065985396504">
        <ele>40.030000000000001</ele>
        <time>2025-05-09T08:58:44Z</time>
      </trkpt>
      <trkpt lat="36.470195967704058" lon="-5.403149966150522">
        <ele>38.590000000000003</ele>
        <time>2025-05-09T08:58:54Z</time>
      </trkpt>
      <trkpt lat="36.470228992402554" lon="-5.402803039178252">
        <ele>38.590000000000003</ele>
        <time>2025-05-09T08:58:56Z</time>
      </trkpt>
      <trkpt lat="36.470286995172501" lon="-5.402642022818327">
        <ele>38.109999999999999</ele>
        <time>2025-05-09T08:58:57Z</time>
      </trkpt>
      <trkpt lat="36.470358995720744" lon="-5.402484023943543">
        <ele>38.109999999999999</ele>
        <time>2025-05-09T08:58:58Z</time>
      </trkpt>
      <trkpt lat="36.470429990440607" lon="-5.402328036725521">
        <ele>38.109999999999999</ele>
        <time>2025-05-09T08:58:59Z</time>
      </trkpt>
      <trkpt lat="36.470535015687346" lon="-5.402215970680118">
        <ele>38.109999999999999</ele>
        <time>2025-05-09T08:59:00Z</time>
      </trkpt>
      <trkpt lat="36.470651021227241" lon="-5.402116980403662">
        <ele>38.590000000000003</ele>
        <time>2025-05-09T08:59:01Z</time>
      </trkpt>
      <trkpt lat="36.470765015110373" lon="-5.402021007612348">
        <ele>39.07</ele>
        <time>2025-05-09T08:59:02Z</time>
      </trkpt>
      <trkpt lat="36.470875991508365" lon="-5.401926040649414">
        <ele>39.07</ele>
        <time>2025-05-09T08:59:03Z</time>
      </trkpt>
      <trkpt lat="36.470996020361781" lon="-5.401863008737564">
        <ele>40.030000000000001</ele>
        <time>2025-05-09T08:59:04Z</time>
      </trkpt>
      <trkpt lat="36.471517039462924" lon="-5.401626974344254">
        <ele>41.469999999999999</ele>
        <time>2025-05-09T08:59:08Z</time>
      </trkpt>
      <trkpt lat="36.471666991710663" lon="-5.40163803845644">
        <ele>41.469999999999999</ele>
        <time>2025-05-09T08:59:09Z</time>
      </trkpt>
      <trkpt lat="36.471819039434195" lon="-5.401650024577975">
        <ele>41.950000000000003</ele>
        <time>2025-05-09T08:59:10Z</time>
      </trkpt>
      <trkpt lat="36.473467005416751" lon="-5.401842975988984">
        <ele>46.280000000000001</ele>
        <time>2025-05-09T08:59:21Z</time>
      </trkpt>
      <trkpt lat="36.474523963406682" lon="-5.401969039812684">
        <ele>49.159999999999997</ele>
        <time>2025-05-09T08:59:28Z</time>
      </trkpt>
      <trkpt lat="36.474673999473453" lon="-5.401953030377626">
        <ele>49.159999999999997</ele>
        <time>2025-05-09T08:59:29Z</time>
      </trkpt>
      <trkpt lat="36.474820012226701" lon="-5.40189896710217">
        <ele>49.649999999999999</ele>
        <time>2025-05-09T08:59:30Z</time>
      </trkpt>
      <trkpt lat="36.47537698969245" lon="-5.401694029569626">
        <ele>50.609999999999999</ele>
        <time>2025-05-09T08:59:34Z</time>
      </trkpt>
      <trkpt lat="36.475486038252711" lon="-5.401624040678144">
        <ele>51.090000000000003</ele>
        <time>2025-05-09T08:59:35Z</time>
      </trkpt>
      <trkpt lat="36.475576981902122" lon="-5.401519015431404">
        <ele>51.090000000000003</ele>
        <time>2025-05-09T08:59:36Z</time>
      </trkpt>
      <trkpt lat="36.475627021864057" lon="-5.401378031820059">
        <ele>51.57</ele>
        <time>2025-05-09T08:59:37Z</time>
      </trkpt>
      <trkpt lat="36.475665997713804" lon="-5.401215003803372">
        <ele>52.049999999999997</ele>
        <time>2025-05-09T08:59:38Z</time>
      </trkpt>
      <trkpt lat="36.475683012977242" lon="-5.401031021028757">
        <ele>52.049999999999997</ele>
        <time>2025-05-09T08:59:39Z</time>
      </trkpt>
      <trkpt lat="36.475691981613636" lon="-5.400832034647465">
        <ele>52.530000000000001</ele>
        <time>2025-05-09T08:59:40Z</time>
      </trkpt>
      <trkpt lat="36.475694999098778" lon="-5.398977035656571">
        <ele>54.450000000000003</ele>
        <time>2025-05-09T08:59:48Z</time>
      </trkpt>
      <trkpt lat="36.475748978555202" lon="-5.397465024143457">
        <ele>58.299999999999997</ele>
        <time>2025-05-09T08:59:55Z</time>
      </trkpt>
      <trkpt lat="36.475851992145181" lon="-5.39624797180295">
        <ele>64.549999999999997</ele>
        <time>2025-05-09T09:00:02Z</time>
      </trkpt>
      <trkpt lat="36.475846040993929" lon="-5.396067006513476">
        <ele>65.989999999999995</ele>
        <time>2025-05-09T09:00:03Z</time>
      </trkpt>
      <trkpt lat="36.475835982710123" lon="-5.394411999732256">
        <ele>76.079999999999998</ele>
        <time>2025-05-09T09:00:11Z</time>
      </trkpt>
      <trkpt lat="36.475961962714791" lon="-5.392209989950061">
        <ele>87.620000000000005</ele>
        <time>2025-05-09T09:00:21Z</time>
      </trkpt>
      <trkpt lat="36.476096995174885" lon="-5.390900988131762">
        <ele>95.310000000000002</ele>
        <time>2025-05-09T09:00:27Z</time>
      </trkpt>
      <trkpt lat="36.476154997944832" lon="-5.39066101424396">
        <ele>96.269999999999996</ele>
        <time>2025-05-09T09:00:28Z</time>
      </trkpt>
      <trkpt lat="36.476597981527448" lon="-5.389627022668719">
        <ele>103.95999999999999</ele>
        <time>2025-05-09T09:00:34Z</time>
      </trkpt>
      <trkpt lat="36.476649027317762" lon="-5.389462988823652">
        <ele>104.92</ele>
        <time>2025-05-09T09:00:35Z</time>
      </trkpt>
      <trkpt lat="36.476661013439298" lon="-5.389279006049037">
        <ele>105.88</ele>
        <time>2025-05-09T09:00:36Z</time>
      </trkpt>
      <trkpt lat="36.476637963205576" lon="-5.389084964990616">
        <ele>107.31999999999999</ele>
        <time>2025-05-09T09:00:37Z</time>
      </trkpt>
      <trkpt lat="36.476571997627616" lon="-5.388895031064749">
        <ele>108.29000000000001</ele>
        <time>2025-05-09T09:00:38Z</time>
      </trkpt>
      <trkpt lat="36.476504020392895" lon="-5.388697972521186">
        <ele>109.25</ele>
        <time>2025-05-09T09:00:39Z</time>
      </trkpt>
      <trkpt lat="36.476446017622948" lon="-5.388509966433048">
        <ele>110.69</ele>
        <time>2025-05-09T09:00:40Z</time>
      </trkpt>
      <trkpt lat="36.476411987096071" lon="-5.388320032507181">
        <ele>111.65000000000001</ele>
        <time>2025-05-09T09:00:41Z</time>
      </trkpt>
      <trkpt lat="36.476434031501412" lon="-5.388123979791999">
        <ele>112.61</ele>
        <time>2025-05-09T09:00:42Z</time>
      </trkpt>
      <trkpt lat="36.476501002907753" lon="-5.3875039704144">
        <ele>115.01000000000001</ele>
        <time>2025-05-09T09:00:45Z</time>
      </trkpt>
      <trkpt lat="36.476509971544147" lon="-5.387311019003391">
        <ele>115.98</ele>
        <time>2025-05-09T09:00:46Z</time>
      </trkpt>
      <trkpt lat="36.476443000137806" lon="-5.387144973501563">
        <ele>117.42</ele>
        <time>2025-05-09T09:00:47Z</time>
      </trkpt>
      <trkpt lat="36.476372005417943" lon="-5.386966019868851">
        <ele>118.38</ele>
        <time>2025-05-09T09:00:48Z</time>
      </trkpt>
      <trkpt lat="36.476272009313107" lon="-5.386802991852164">
        <ele>119.34</ele>
        <time>2025-05-09T09:00:49Z</time>
      </trkpt>
      <trkpt lat="36.476162960752845" lon="-5.386654967442155">
        <ele>120.3</ele>
        <time>2025-05-09T09:00:50Z</time>
      </trkpt>
      <trkpt lat="36.476057013496757" lon="-5.386510966345668">
        <ele>120.78</ele>
        <time>2025-05-09T09:00:51Z</time>
      </trkpt>
      <trkpt lat="36.475920975208282" lon="-5.38640895858407">
        <ele>121.73999999999999</ele>
        <time>2025-05-09T09:00:52Z</time>
      </trkpt>
      <trkpt lat="36.475776974111795" lon="-5.386308040469885">
        <ele>122.70999999999999</ele>
        <time>2025-05-09T09:00:53Z</time>
      </trkpt>
      <trkpt lat="36.475622998550534" lon="-5.386199997738004">
        <ele>123.19</ele>
        <time>2025-05-09T09:00:54Z</time>
      </trkpt>
      <trkpt lat="36.475136009976268" lon="-5.38589196279645">
        <ele>125.11</ele>
        <time>2025-05-09T09:00:57Z</time>
      </trkpt>
      <trkpt lat="36.474956972524524" lon="-5.385819040238857">
        <ele>125.59</ele>
        <time>2025-05-09T09:00:58Z</time>
      </trkpt>
      <trkpt lat="36.474115010350943" lon="-5.38544001057744">
        <ele>128.94999999999999</ele>
        <time>2025-05-09T09:01:03Z</time>
      </trkpt>
      <trkpt lat="36.473992969840765" lon="-5.385340014472604">
        <ele>129.91999999999999</ele>
        <time>2025-05-09T09:01:04Z</time>
      </trkpt>
      <trkpt lat="36.473923986777663" lon="-5.385197019204497">
        <ele>130.40000000000001</ele>
        <time>2025-05-09T09:01:05Z</time>
      </trkpt>
      <trkpt lat="36.473867995664477" lon="-5.385038014501333">
        <ele>131.36000000000001</ele>
        <time>2025-05-09T09:01:06Z</time>
      </trkpt>
      <trkpt lat="36.473816027864814" lon="-5.384871968999505">
        <ele>132.31999999999999</ele>
        <time>2025-05-09T09:01:07Z</time>
      </trkpt>
      <trkpt lat="36.473816027864814" lon="-5.384681029245257">
        <ele>132.80000000000001</ele>
        <time>2025-05-09T09:01:08Z</time>
      </trkpt>
      <trkpt lat="36.473816027864814" lon="-5.384477013722062">
        <ele>134.24000000000001</ele>
        <time>2025-05-09T09:01:09Z</time>
      </trkpt>
      <trkpt lat="36.473844023421407" lon="-5.38408599793911">
        <ele>135.68000000000001</ele>
        <time>2025-05-09T09:01:11Z</time>
      </trkpt>
      <trkpt lat="36.473889034241438" lon="-5.383896986022592">
        <ele>137.13</ele>
        <time>2025-05-09T09:01:12Z</time>
      </trkpt>
      <trkpt lat="36.473944019526243" lon="-5.383705040439963">
        <ele>138.09</ele>
        <time>2025-05-09T09:01:13Z</time>
      </trkpt>
      <trkpt lat="36.474371999502182" lon="-5.382601981982589">
        <ele>143.37</ele>
        <time>2025-05-09T09:01:19Z</time>
      </trkpt>
      <trkpt lat="36.474391026422381" lon="-5.382440965622664">
        <ele>143.84999999999999</ele>
        <time>2025-05-09T09:01:20Z</time>
      </trkpt>
      <trkpt lat="36.474409969523549" lon="-5.38228003308177">
        <ele>143.84999999999999</ele>
        <time>2025-05-09T09:01:21Z</time>
      </trkpt>
      <trkpt lat="36.474395971745253" lon="-5.381050994619727">
        <ele>141.93000000000001</ele>
        <time>2025-05-09T09:01:26Z</time>
      </trkpt>
      <trkpt lat="36.474371999502182" lon="-5.379491960629821">
        <ele>136.63999999999999</ele>
        <time>2025-05-09T09:01:32Z</time>
      </trkpt>
      <trkpt lat="36.474407035857439" lon="-5.379317030310631">
        <ele>136.63999999999999</ele>
        <time>2025-05-09T09:01:33Z</time>
      </trkpt>
      <trkpt lat="36.474455986171961" lon="-5.379189038649201">
        <ele>136.63999999999999</ele>
        <time>2025-05-09T09:01:34Z</time>
      </trkpt>
      <trkpt lat="36.474523041397333" lon="-5.379082001745701">
        <ele>136.63999999999999</ele>
        <time>2025-05-09T09:01:35Z</time>
      </trkpt>
      <trkpt lat="36.474600993096828" lon="-5.378977982327342">
        <ele>137.13</ele>
        <time>2025-05-09T09:01:36Z</time>
      </trkpt>
      <trkpt lat="36.474707024171948" lon="-5.378922997042537">
        <ele>137.61000000000001</ele>
        <time>2025-05-09T09:01:37Z</time>
      </trkpt>
      <trkpt lat="36.474826969206333" lon="-5.378870023414493">
        <ele>138.09</ele>
        <time>2025-05-09T09:01:38Z</time>
      </trkpt>
      <trkpt lat="36.474952027201653" lon="-5.378814032301307">
        <ele>138.56999999999999</ele>
        <time>2025-05-09T09:01:39Z</time>
      </trkpt>
      <trkpt lat="36.475071972236037" lon="-5.378760974854231">
        <ele>139.05000000000001</ele>
        <time>2025-05-09T09:01:40Z</time>
      </trkpt>
      <trkpt lat="36.475518979132175" lon="-5.378509014844894">
        <ele>141.93000000000001</ele>
        <time>2025-05-09T09:01:44Z</time>
      </trkpt>
      <trkpt lat="36.475747972726822" lon="-5.378325032070279">
        <ele>143.37</ele>
        <time>2025-05-09T09:01:46Z</time>
      </trkpt>
      <trkpt lat="36.476962007582188" lon="-5.377236977219582">
        <ele>151.53999999999999</ele>
        <time>2025-05-09T09:01:56Z</time>
      </trkpt>
      <trkpt lat="36.47799901664257" lon="-5.376196028664708">
        <ele>161.63999999999999</ele>
        <time>2025-05-09T09:02:05Z</time>
      </trkpt>
      <trkpt lat="36.478121979162097" lon="-5.376124028116465">
        <ele>163.08000000000001</ele>
        <time>2025-05-09T09:02:06Z</time>
      </trkpt>
      <trkpt lat="36.478238990530372" lon="-5.376069964841008">
        <ele>164.52000000000001</ele>
        <time>2025-05-09T09:02:07Z</time>
      </trkpt>
      <trkpt lat="36.478362958878279" lon="-5.376069964841008">
        <ele>165.47999999999999</ele>
        <time>2025-05-09T09:02:08Z</time>
      </trkpt>
      <trkpt lat="36.478475024923682" lon="-5.376070970669389">
        <ele>166.44999999999999</ele>
        <time>2025-05-09T09:02:09Z</time>
      </trkpt>
      <trkpt lat="36.478591030463576" lon="-5.376107012853026">
        <ele>167.41</ele>
        <time>2025-05-09T09:02:10Z</time>
      </trkpt>
      <trkpt lat="36.478705024346709" lon="-5.376141965389252">
        <ele>168.37</ele>
        <time>2025-05-09T09:02:11Z</time>
      </trkpt>
      <trkpt lat="36.478823963552713" lon="-5.37617901340127">
        <ele>168.84999999999999</ele>
        <time>2025-05-09T09:02:12Z</time>
      </trkpt>
      <trkpt lat="36.478939969092607" lon="-5.376215977594256">
        <ele>169.81</ele>
        <time>2025-05-09T09:02:13Z</time>
      </trkpt>
      <trkpt lat="36.47905396297574" lon="-5.376251013949513">
        <ele>170.28999999999999</ele>
        <time>2025-05-09T09:02:14Z</time>
      </trkpt>
      <trkpt lat="36.479174997657537" lon="-5.376283032819629">
        <ele>171.25</ele>
        <time>2025-05-09T09:02:15Z</time>
      </trkpt>
      <trkpt lat="36.480069011449814" lon="-5.376184964552522">
        <ele>175.58000000000001</ele>
        <time>2025-05-09T09:02:20Z</time>
      </trkpt>
      <trkpt lat="36.481387987732887" lon="-5.376011040061712">
        <ele>184.22999999999999</ele>
        <time>2025-05-09T09:02:26Z</time>
      </trkpt>
      <trkpt lat="36.481580017134547" lon="-5.375985978171229">
        <ele>186.15000000000001</ele>
        <time>2025-05-09T09:02:27Z</time>
      </trkpt>
      <trkpt lat="36.482495991513133" lon="-5.375800989568234">
        <ele>194.31999999999999</ele>
        <time>2025-05-09T09:02:32Z</time>
      </trkpt>
      <trkpt lat="36.483019022271037" lon="-5.375519022345543">
        <ele>199.61000000000001</ele>
        <time>2025-05-09T09:02:35Z</time>
      </trkpt>
      <trkpt lat="36.484289970248938" lon="-5.3747390024364">
        <ele>212.59</ele>
        <time>2025-05-09T09:02:43Z</time>
      </trkpt>
      <trkpt lat="36.484430031850934" lon="-5.3747390024364">
        <ele>213.55000000000001</ele>
        <time>2025-05-09T09:02:44Z</time>
      </trkpt>
      <trkpt lat="36.484564980491996" lon="-5.374763980507851">
        <ele>214.99000000000001</ele>
        <time>2025-05-09T09:02:45Z</time>
      </trkpt>
      <trkpt lat="36.484705964103341" lon="-5.374846961349249">
        <ele>216.43000000000001</ele>
        <time>2025-05-09T09:02:46Z</time>
      </trkpt>
      <trkpt lat="36.484848959371448" lon="-5.374931031838059">
        <ele>217.88</ele>
        <time>2025-05-09T09:02:47Z</time>
      </trkpt>
      <trkpt lat="36.484988015145063" lon="-5.374987022951245">
        <ele>219.31999999999999</ele>
        <time>2025-05-09T09:02:48Z</time>
      </trkpt>
      <trkpt lat="36.485109971836209" lon="-5.375028010457754">
        <ele>220.75999999999999</ele>
        <time>2025-05-09T09:02:49Z</time>
      </trkpt>
      <trkpt lat="36.485234024003148" lon="-5.375005966052413">
        <ele>222.19999999999999</ele>
        <time>2025-05-09T09:02:50Z</time>
      </trkpt>
      <trkpt lat="36.485366960987449" lon="-5.37495500408113">
        <ele>223.16</ele>
        <time>2025-05-09T09:02:51Z</time>
      </trkpt>
      <trkpt lat="36.485505010932684" lon="-5.374875040724874">
        <ele>224.61000000000001</ele>
        <time>2025-05-09T09:02:52Z</time>
      </trkpt>
      <trkpt lat="36.485654041171074" lon="-5.374768003821373">
        <ele>226.05000000000001</ele>
        <time>2025-05-09T09:02:53Z</time>
      </trkpt>
      <trkpt lat="36.485808016732335" lon="-5.37463397718966">
        <ele>227.00999999999999</ele>
        <time>2025-05-09T09:02:54Z</time>
      </trkpt>
      <trkpt lat="36.486817030236125" lon="-5.373695958405733">
        <ele>237.09999999999999</ele>
        <time>2025-05-09T09:03:01Z</time>
      </trkpt>
      <trkpt lat="36.487635020166636" lon="-5.37297997623682">
        <ele>245.75</ele>
        <time>2025-05-09T09:03:09Z</time>
      </trkpt>
      <trkpt lat="36.487729987129569" lon="-5.372942006215453">
        <ele>246.72</ele>
        <time>2025-05-09T09:03:10Z</time>
      </trkpt>
      <trkpt lat="36.487840041518211" lon="-5.372905964031816">
        <ele>247.68000000000001</ele>
        <time>2025-05-09T09:03:11Z</time>
      </trkpt>
      <trkpt lat="36.487950012087822" lon="-5.37287101149559">
        <ele>248.63999999999999</ele>
        <time>2025-05-09T09:03:12Z</time>
      </trkpt>
      <trkpt lat="36.488061994314194" lon="-5.372834969311953">
        <ele>249.12</ele>
        <time>2025-05-09T09:03:13Z</time>
      </trkpt>
      <trkpt lat="36.488274978473783" lon="-5.372781995683909">
        <ele>251.03999999999999</ele>
        <time>2025-05-09T09:03:15Z</time>
      </trkpt>
      <trkpt lat="36.488386038690805" lon="-5.372774032875896">
        <ele>252</ele>
        <time>2025-05-09T09:03:16Z</time>
      </trkpt>
      <trkpt lat="36.488497015088797" lon="-5.372766992077231">
        <ele>252.96000000000001</ele>
        <time>2025-05-09T09:03:17Z</time>
      </trkpt>
      <trkpt lat="36.488603968173265" lon="-5.372824994847179">
        <ele>253.93000000000001</ele>
        <time>2025-05-09T09:03:18Z</time>
      </trkpt>
      <trkpt lat="36.488705975934863" lon="-5.372894983738661">
        <ele>254.41</ele>
        <time>2025-05-09T09:03:19Z</time>
      </trkpt>
      <trkpt lat="36.488813012838364" lon="-5.372966984286904">
        <ele>255.37</ele>
        <time>2025-05-09T09:03:20Z</time>
      </trkpt>
      <trkpt lat="36.488917032256722" lon="-5.373037979006767">
        <ele>255.37</ele>
        <time>2025-05-09T09:03:21Z</time>
      </trkpt>
      <trkpt lat="36.489239986985922" lon="-5.373255992308259">
        <ele>257.29000000000002</ele>
        <time>2025-05-09T09:03:24Z</time>
      </trkpt>
      <trkpt lat="36.489364039152861" lon="-5.373288011178374">
        <ele>258.25</ele>
        <time>2025-05-09T09:03:25Z</time>
      </trkpt>
      <trkpt lat="36.48949203081429" lon="-5.37332103587687">
        <ele>258.73000000000002</ele>
        <time>2025-05-09T09:03:26Z</time>
      </trkpt>
      <trkpt lat="36.489626979455352" lon="-5.373287005349994">
        <ele>260.17000000000002</ele>
        <time>2025-05-09T09:03:27Z</time>
      </trkpt>
      <trkpt lat="36.489748014137149" lon="-5.373216010630131">
        <ele>261.13999999999999</ele>
        <time>2025-05-09T09:03:28Z</time>
      </trkpt>
      <trkpt lat="36.489909030497074" lon="-5.37310796789825">
        <ele>262.10000000000002</ele>
        <time>2025-05-09T09:03:29Z</time>
      </trkpt>
      <trkpt lat="36.489959992468357" lon="-5.373006965965033">
        <ele>263.06</ele>
        <time>2025-05-09T09:03:30Z</time>
      </trkpt>
      <trkpt lat="36.490006009116769" lon="-5.372837986797094">
        <ele>264.01999999999998</ele>
        <time>2025-05-09T09:03:31Z</time>
      </trkpt>
      <trkpt lat="36.490044984966516" lon="-5.372661966830492">
        <ele>264.5</ele>
        <time>2025-05-09T09:03:32Z</time>
      </trkpt>
      <trkpt lat="36.490193009376526" lon="-5.372107001021504">
        <ele>267.38</ele>
        <time>2025-05-09T09:03:35Z</time>
      </trkpt>
      <trkpt lat="36.490260986611247" lon="-5.371941039338708">
        <ele>268.35000000000002</ele>
        <time>2025-05-09T09:03:36Z</time>
      </trkpt>
      <trkpt lat="36.490346984937787" lon="-5.371793014928699">
        <ele>269.31</ele>
        <time>2025-05-09T09:03:37Z</time>
      </trkpt>
      <trkpt lat="36.490453016012907" lon="-5.371694024652243">
        <ele>270.26999999999998</ele>
        <time>2025-05-09T09:03:38Z</time>
      </trkpt>
      <trkpt lat="36.490577990189195" lon="-5.37162302993238">
        <ele>271.23000000000002</ele>
        <time>2025-05-09T09:03:39Z</time>
      </trkpt>
      <trkpt lat="36.490711010992527" lon="-5.371562009677291">
        <ele>272.67000000000002</ele>
        <time>2025-05-09T09:03:40Z</time>
      </trkpt>
      <trkpt lat="36.490866998210549" lon="-5.371556980535388">
        <ele>274.11000000000001</ele>
        <time>2025-05-09T09:03:41Z</time>
      </trkpt>
      <trkpt lat="36.491882968693972" lon="-5.371521022170782">
        <ele>281.80000000000001</ele>
        <time>2025-05-09T09:03:47Z</time>
      </trkpt>
      <trkpt lat="36.4920490141958" lon="-5.371612971648574">
        <ele>282.76999999999998</ele>
        <time>2025-05-09T09:03:48Z</time>
      </trkpt>
      <trkpt lat="36.492210030555725" lon="-5.371701987460256">
        <ele>284.20999999999998</ele>
        <time>2025-05-09T09:03:49Z</time>
      </trkpt>
      <trkpt lat="36.493262965232134" lon="-5.372381005436182">
        <ele>291.42000000000002</ele>
        <time>2025-05-09T09:03:56Z</time>
      </trkpt>
      <trkpt lat="36.494651008397341" lon="-5.373087013140321">
        <ele>301.02999999999997</ele>
        <time>2025-05-09T09:04:06Z</time>
      </trkpt>
      <trkpt lat="36.494815964251757" lon="-5.373116014525294">
        <ele>301.99000000000001</ele>
        <time>2025-05-09T09:04:07Z</time>
      </trkpt>
      <trkpt lat="36.494963988661766" lon="-5.373141998425126">
        <ele>302.94999999999999</ele>
        <time>2025-05-09T09:04:08Z</time>
      </trkpt>
      <trkpt lat="36.495116958394647" lon="-5.373140992596746">
        <ele>303.91000000000003</ele>
        <time>2025-05-09T09:04:09Z</time>
      </trkpt>
      <trkpt lat="36.496497960761189" lon="-5.372933959588409">
        <ele>310.63999999999999</ele>
        <time>2025-05-09T09:04:18Z</time>
      </trkpt>
      <trkpt lat="36.496608015149832" lon="-5.372904036194086">
        <ele>311.12</ele>
        <time>2025-05-09T09:04:19Z</time>
      </trkpt>
      <trkpt lat="36.496712034568191" lon="-5.372845027595758">
        <ele>312.08999999999997</ele>
        <time>2025-05-09T09:04:20Z</time>
      </trkpt>
      <trkpt lat="36.496891994029284" lon="-5.372659033164382">
        <ele>313.05000000000001</ele>
        <time>2025-05-09T09:04:22Z</time>
      </trkpt>
      <trkpt lat="36.496970029547811" lon="-5.372545961290598">
        <ele>313.52999999999997</ele>
        <time>2025-05-09T09:04:23Z</time>
      </trkpt>
      <trkpt lat="36.497050998732448" lon="-5.372430961579084">
        <ele>313.52999999999997</ele>
        <time>2025-05-09T09:04:24Z</time>
      </trkpt>
      <trkpt lat="36.497135991230607" lon="-5.372314034029841">
        <ele>314.00999999999999</ele>
        <time>2025-05-09T09:04:25Z</time>
      </trkpt>
      <trkpt lat="36.497220983728766" lon="-5.372196016833186">
        <ele>314.00999999999999</ele>
        <time>2025-05-09T09:04:26Z</time>
      </trkpt>
      <trkpt lat="36.497315028682351" lon="-5.372086968272924">
        <ele>314.49000000000001</ele>
        <time>2025-05-09T09:04:27Z</time>
      </trkpt>
      <trkpt lat="36.497436985373497" lon="-5.372023014351726">
        <ele>314.97000000000003</ele>
        <time>2025-05-09T09:04:28Z</time>
      </trkpt>
      <trkpt lat="36.497560031712055" lon="-5.371957970783114">
        <ele>315.93000000000001</ele>
        <time>2025-05-09T09:04:29Z</time>
      </trkpt>
      <trkpt lat="36.497682994231582" lon="-5.371893011033535">
        <ele>316.41000000000003</ele>
        <time>2025-05-09T09:04:30Z</time>
      </trkpt>
      <trkpt lat="36.497947024181485" lon="-5.371826961636543">
        <ele>317.85000000000002</ele>
        <time>2025-05-09T09:04:32Z</time>
      </trkpt>
      <trkpt lat="36.498063029721379" lon="-5.371799971908331">
        <ele>318.32999999999998</ele>
        <time>2025-05-09T09:04:33Z</time>
      </trkpt>
      <trkpt lat="36.498208036646247" lon="-5.371831990778446">
        <ele>319.30000000000001</ele>
        <time>2025-05-09T09:04:34Z</time>
      </trkpt>
      <trkpt lat="36.498338961973786" lon="-5.37186099216342">
        <ele>319.77999999999997</ele>
        <time>2025-05-09T09:04:35Z</time>
      </trkpt>
      <trkpt lat="36.498464019969106" lon="-5.371894016861916">
        <ele>320.74000000000001</ele>
        <time>2025-05-09T09:04:36Z</time>
      </trkpt>
      <trkpt lat="36.49858103133738" lon="-5.371964005753398">
        <ele>321.22000000000003</ele>
        <time>2025-05-09T09:04:37Z</time>
      </trkpt>
      <trkpt lat="36.49892401881516" lon="-5.37214002572">
        <ele>322.66000000000003</ele>
        <time>2025-05-09T09:04:40Z</time>
      </trkpt>
      <trkpt lat="36.499028960242867" lon="-5.372156035155058">
        <ele>323.62</ele>
        <time>2025-05-09T09:04:41Z</time>
      </trkpt>
      <trkpt lat="36.49911898188293" lon="-5.372127033770084">
        <ele>324.10000000000002</ele>
        <time>2025-05-09T09:04:42Z</time>
      </trkpt>
      <trkpt lat="36.499197017401457" lon="-5.372081017121673">
        <ele>324.57999999999998</ele>
        <time>2025-05-09T09:04:43Z</time>
      </trkpt>
      <trkpt lat="36.499207997694612" lon="-5.371984960511327">
        <ele>325.54000000000002</ele>
        <time>2025-05-09T09:04:44Z</time>
      </trkpt>
      <trkpt lat="36.499221995472908" lon="-5.371821010485292">
        <ele>326.01999999999998</ele>
        <time>2025-05-09T09:04:45Z</time>
      </trkpt>
      <trkpt lat="36.499166004359722" lon="-5.371751021593809">
        <ele>326.99000000000001</ele>
        <time>2025-05-09T09:04:46Z</time>
      </trkpt>
      <trkpt lat="36.499058967456222" lon="-5.371656976640225">
        <ele>327.94999999999999</ele>
        <time>2025-05-09T09:04:47Z</time>
      </trkpt>
      <trkpt lat="36.498937010765076" lon="-5.371567038819194">
        <ele>328.43000000000001</ele>
        <time>2025-05-09T09:04:48Z</time>
      </trkpt>
      <trkpt lat="36.498520011082292" lon="-5.371348019689322">
        <ele>330.35000000000002</ele>
        <time>2025-05-09T09:04:51Z</time>
      </trkpt>
      <trkpt lat="36.498376009985805" lon="-5.371306026354432">
        <ele>331.31</ele>
        <time>2025-05-09T09:04:52Z</time>
      </trkpt>
      <trkpt lat="36.498229997232556" lon="-5.371310971677303">
        <ele>331.79000000000002</ele>
        <time>2025-05-09T09:04:53Z</time>
      </trkpt>
      <trkpt lat="36.497624991461635" lon="-5.371294040232897">
        <ele>334.19999999999999</ele>
        <time>2025-05-09T09:04:57Z</time>
      </trkpt>
      <trkpt lat="36.497486019507051" lon="-5.371244000270963">
        <ele>334.68000000000001</ele>
        <time>2025-05-09T09:04:58Z</time>
      </trkpt>
      <trkpt lat="36.497361967340112" lon="-5.371181974187493">
        <ele>335.16000000000003</ele>
        <time>2025-05-09T09:04:59Z</time>
      </trkpt>
      <trkpt lat="36.497247973456979" lon="-5.371106034144759">
        <ele>335.63999999999999</ele>
        <time>2025-05-09T09:05:00Z</time>
      </trkpt>
      <trkpt lat="36.497157029807568" lon="-5.371032021939755">
        <ele>336.60000000000002</ele>
        <time>2025-05-09T09:05:01Z</time>
      </trkpt>
      <trkpt lat="36.497115958482027" lon="-5.370901012793183">
        <ele>337.07999999999998</ele>
        <time>2025-05-09T09:05:02Z</time>
      </trkpt>
      <trkpt lat="36.497075976803899" lon="-5.370770003646612">
        <ele>338.04000000000002</ele>
        <time>2025-05-09T09:05:03Z</time>
      </trkpt>
      <trkpt lat="36.497110007330775" lon="-5.370649974793196">
        <ele>339</ele>
        <time>2025-05-09T09:05:04Z</time>
      </trkpt>
      <trkpt lat="36.497168010100722" lon="-5.370558025315404">
        <ele>339.95999999999998</ele>
        <time>2025-05-09T09:05:05Z</time>
      </trkpt>
      <trkpt lat="36.497244033962488" lon="-5.370495999231935">
        <ele>340.44</ele>
        <time>2025-05-09T09:05:06Z</time>
      </trkpt>
      <trkpt lat="36.497355010360479" lon="-5.370447970926762">
        <ele>341.41000000000003</ele>
        <time>2025-05-09T09:05:07Z</time>
      </trkpt>
      <trkpt lat="36.497488031163812" lon="-5.370447970926762">
        <ele>342.85000000000002</ele>
        <time>2025-05-09T09:05:08Z</time>
      </trkpt>
      <trkpt lat="36.497644018381834" lon="-5.370447970926762">
        <ele>343.81</ele>
        <time>2025-05-09T09:05:09Z</time>
      </trkpt>
      <trkpt lat="36.497992035001516" lon="-5.370447970926762">
        <ele>345.73000000000002</ele>
        <time>2025-05-09T09:05:11Z</time>
      </trkpt>
      <trkpt lat="36.498749004676938" lon="-5.370198022574186">
        <ele>351.01999999999998</ele>
        <time>2025-05-09T09:05:16Z</time>
      </trkpt>
      <trkpt lat="36.498851012438536" lon="-5.37012099288404">
        <ele>351.98000000000002</ele>
        <time>2025-05-09T09:05:17Z</time>
      </trkpt>
      <trkpt lat="36.498942961916327" lon="-5.370040023699403">
        <ele>352.94</ele>
        <time>2025-05-09T09:05:18Z</time>
      </trkpt>
      <trkpt lat="36.498983027413487" lon="-5.369896022602916">
        <ele>353.89999999999998</ele>
        <time>2025-05-09T09:05:19Z</time>
      </trkpt>
      <trkpt lat="36.499022003263235" lon="-5.36975403316319">
        <ele>354.86000000000001</ele>
        <time>2025-05-09T09:05:20Z</time>
      </trkpt>
      <trkpt lat="36.499049998819828" lon="-5.369654037058353">
        <ele>355.82999999999998</ele>
        <time>2025-05-09T09:05:21Z</time>
      </trkpt>
      <trkpt lat="36.498996019363403" lon="-5.369520010426641">
        <ele>356.79000000000002</ele>
        <time>2025-05-09T09:05:22Z</time>
      </trkpt>
      <trkpt lat="36.498936004936695" lon="-5.369368968531489">
        <ele>357.75</ele>
        <time>2025-05-09T09:05:23Z</time>
      </trkpt>
      <trkpt lat="36.498921001330018" lon="-5.369332004338503">
        <ele>358.70999999999998</ele>
        <time>2025-05-09T09:05:24Z</time>
      </trkpt>
      <trkpt lat="36.498727966099977" lon="-5.369181968271732">
        <ele>360.14999999999998</ele>
        <time>2025-05-09T09:05:25Z</time>
      </trkpt>
      <trkpt lat="36.498636016622186" lon="-5.369163025170565">
        <ele>361.11000000000001</ele>
        <time>2025-05-09T09:05:26Z</time>
      </trkpt>
      <trkpt lat="36.4984539616853" lon="-5.369165036827326">
        <ele>362.06999999999999</ele>
        <time>2025-05-09T09:05:27Z</time>
      </trkpt>
      <trkpt lat="36.498283976688981" lon="-5.36924097687006">
        <ele>362.55000000000001</ele>
        <time>2025-05-09T09:05:28Z</time>
      </trkpt>
      <trkpt lat="36.498111980035901" lon="-5.369320018216968">
        <ele>363.04000000000002</ele>
        <time>2025-05-09T09:05:29Z</time>
      </trkpt>
      <trkpt lat="36.497834958136082" lon="-5.369469970464706">
        <ele>362.55000000000001</ele>
        <time>2025-05-09T09:05:31Z</time>
      </trkpt>
      <trkpt lat="36.497699003666639" lon="-5.369493020698428">
        <ele>362.55000000000001</ele>
        <time>2025-05-09T09:05:32Z</time>
      </trkpt>
      <trkpt lat="36.497584003955126" lon="-5.369474999606609">
        <ele>362.55000000000001</ele>
        <time>2025-05-09T09:05:33Z</time>
      </trkpt>
      <trkpt lat="36.497484007850289" lon="-5.369418002665043">
        <ele>363.04000000000002</ele>
        <time>2025-05-09T09:05:34Z</time>
      </trkpt>
      <trkpt lat="36.4974420145154" lon="-5.369293028488755">
        <ele>363.51999999999998</ele>
        <time>2025-05-09T09:05:35Z</time>
      </trkpt>
      <trkpt lat="36.497418964281678" lon="-5.369174005463719">
        <ele>363.51999999999998</ele>
        <time>2025-05-09T09:05:36Z</time>
      </trkpt>
      <trkpt lat="36.497434973716736" lon="-5.369060011580586">
        <ele>364</ele>
        <time>2025-05-09T09:05:37Z</time>
      </trkpt>
      <trkpt lat="36.497486019507051" lon="-5.368947023525834">
        <ele>364.48000000000002</ele>
        <time>2025-05-09T09:05:38Z</time>
      </trkpt>
      <trkpt lat="36.497556008398533" lon="-5.368873011320829">
        <ele>365.44</ele>
        <time>2025-05-09T09:05:39Z</time>
      </trkpt>
      <trkpt lat="36.497663967311382" lon="-5.368815008550882">
        <ele>365.92000000000002</ele>
        <time>2025-05-09T09:05:40Z</time>
      </trkpt>
      <trkpt lat="36.497800005599856" lon="-5.36878801882267">
        <ele>366.88</ele>
        <time>2025-05-09T09:05:41Z</time>
      </trkpt>
      <trkpt lat="36.497944006696343" lon="-5.368759017437697">
        <ele>367.83999999999997</ele>
        <time>2025-05-09T09:05:42Z</time>
      </trkpt>
      <trkpt lat="36.498096976429224" lon="-5.368719035759568">
        <ele>368.80000000000001</ele>
        <time>2025-05-09T09:05:43Z</time>
      </trkpt>
      <trkpt lat="36.498221028596163" lon="-5.368599006906152">
        <ele>369.75999999999999</ele>
        <time>2025-05-09T09:05:44Z</time>
      </trkpt>
      <trkpt lat="36.49834600277245" lon="-5.368477972224355">
        <ele>370.73000000000002</ele>
        <time>2025-05-09T09:05:45Z</time>
      </trkpt>
      <trkpt lat="36.498999958857894" lon="-5.3677779994905">
        <ele>374.56999999999999</ele>
        <time>2025-05-09T09:05:50Z</time>
      </trkpt>
      <trkpt lat="36.49909702129662" lon="-5.367614971473813">
        <ele>375.52999999999997</ele>
        <time>2025-05-09T09:05:51Z</time>
      </trkpt>
      <trkpt lat="36.499200034886599" lon="-5.367443980649114">
        <ele>376.97000000000003</ele>
        <time>2025-05-09T09:05:52Z</time>
      </trkpt>
      <trkpt lat="36.49954603984952" lon="-5.366480983793736">
        <ele>383.22000000000003</ele>
        <time>2025-05-09T09:05:57Z</time>
      </trkpt>
      <trkpt lat="36.499617034569383" lon="-5.366291971877217">
        <ele>385.14999999999998</ele>
        <time>2025-05-09T09:05:58Z</time>
      </trkpt>
      <trkpt lat="36.499714013189077" lon="-5.36612500436604">
        <ele>386.11000000000001</ele>
        <time>2025-05-09T09:05:59Z</time>
      </trkpt>
      <trkpt lat="36.499822977930307" lon="-5.365942027419806">
        <ele>387.55000000000001</ele>
        <time>2025-05-09T09:06:00Z</time>
      </trkpt>
      <trkpt lat="36.499909982085228" lon="-5.365825016051531">
        <ele>388.50999999999999</ele>
        <time>2025-05-09T09:06:01Z</time>
      </trkpt>
      <trkpt lat="36.500174012035131" lon="-5.365381026640534">
        <ele>391.38999999999999</ele>
        <time>2025-05-09T09:06:04Z</time>
      </trkpt>
      <trkpt lat="36.500255987048149" lon="-5.365219004452229">
        <ele>391.38999999999999</ele>
        <time>2025-05-09T09:06:05Z</time>
      </trkpt>
      <trkpt lat="36.500308038666844" lon="-5.365036027505994">
        <ele>391.38999999999999</ele>
        <time>2025-05-09T09:06:06Z</time>
      </trkpt>
      <trkpt lat="36.500360006466508" lon="-5.364852966740727">
        <ele>391.87</ele>
        <time>2025-05-09T09:06:07Z</time>
      </trkpt>
      <trkpt lat="36.500369980931282" lon="-5.364645011723042">
        <ele>391.87</ele>
        <time>2025-05-09T09:06:08Z</time>
      </trkpt>
      <trkpt lat="36.500347014516592" lon="-5.36444703117013">
        <ele>392.36000000000001</ele>
        <time>2025-05-09T09:06:09Z</time>
      </trkpt>
      <trkpt lat="36.500308960676193" lon="-5.364261958748102">
        <ele>392.83999999999997</ele>
        <time>2025-05-09T09:06:10Z</time>
      </trkpt>
      <trkpt lat="36.500270990654826" lon="-5.36408401094377">
        <ele>393.31999999999999</ele>
        <time>2025-05-09T09:06:11Z</time>
      </trkpt>
      <trkpt lat="36.50025799870491" lon="-5.363905979320407">
        <ele>393.80000000000001</ele>
        <time>2025-05-09T09:06:12Z</time>
      </trkpt>
      <trkpt lat="36.500271996483207" lon="-5.363710010424256">
        <ele>394.27999999999997</ele>
        <time>2025-05-09T09:06:13Z</time>
      </trkpt>
      <trkpt lat="36.500337962061167" lon="-5.363532984629273">
        <ele>394.75999999999999</ele>
        <time>2025-05-09T09:06:14Z</time>
      </trkpt>
      <trkpt lat="36.500415997579694" lon="-5.363345984369516">
        <ele>395.24000000000001</ele>
        <time>2025-05-09T09:06:15Z</time>
      </trkpt>
      <trkpt lat="36.50090198032558" lon="-5.362396985292435">
        <ele>399.56999999999999</ele>
        <time>2025-05-09T09:06:20Z</time>
      </trkpt>
      <trkpt lat="36.501027960330248" lon="-5.362219959497452">
        <ele>400.05000000000001</ele>
        <time>2025-05-09T09:06:21Z</time>
      </trkpt>
      <trkpt lat="36.501175984740257" lon="-5.362077970057726">
        <ele>400.52999999999997</ele>
        <time>2025-05-09T09:06:22Z</time>
      </trkpt>
      <trkpt lat="36.501329960301518" lon="-5.361955007538199">
        <ele>401.00999999999999</ele>
        <time>2025-05-09T09:06:23Z</time>
      </trkpt>
      <trkpt lat="36.501488965004683" lon="-5.361872026696801">
        <ele>401.49000000000001</ele>
        <time>2025-05-09T09:06:24Z</time>
      </trkpt>
      <trkpt lat="36.501645036041737" lon="-5.361817041411996">
        <ele>401.97000000000003</ele>
        <time>2025-05-09T09:06:25Z</time>
      </trkpt>
      <trkpt lat="36.501786019653082" lon="-5.361791979521513">
        <ele>402.44999999999999</ele>
        <time>2025-05-09T09:06:26Z</time>
      </trkpt>
      <trkpt lat="36.50193203240633" lon="-5.36184998229146">
        <ele>403.41000000000003</ele>
        <time>2025-05-09T09:06:27Z</time>
      </trkpt>
      <trkpt lat="36.502063041552901" lon="-5.361937992274761">
        <ele>403.88999999999999</ele>
        <time>2025-05-09T09:06:28Z</time>
      </trkpt>
      <trkpt lat="36.502198996022344" lon="-5.362045029178262">
        <ele>405.32999999999998</ele>
        <time>2025-05-09T09:06:29Z</time>
      </trkpt>
      <trkpt lat="36.502336040139198" lon="-5.362151982262731">
        <ele>406.29000000000002</ele>
        <time>2025-05-09T09:06:30Z</time>
      </trkpt>
      <trkpt lat="36.502585988491774" lon="-5.362347029149532">
        <ele>407.74000000000001</ele>
        <time>2025-05-09T09:06:32Z</time>
      </trkpt>
      <trkpt lat="36.502740969881415" lon="-5.362393967807293">
        <ele>408.69999999999999</ele>
        <time>2025-05-09T09:06:33Z</time>
      </trkpt>
      <trkpt lat="36.502871979027987" lon="-5.362382987514138">
        <ele>409.18000000000001</ele>
        <time>2025-05-09T09:06:34Z</time>
      </trkpt>
      <trkpt lat="36.502996031194925" lon="-5.362306041643024">
        <ele>410.13999999999999</ele>
        <time>2025-05-09T09:06:35Z</time>
      </trkpt>
      <trkpt lat="36.503099966794252" lon="-5.362191963940859">
        <ele>410.62</ele>
        <time>2025-05-09T09:06:36Z</time>
      </trkpt>
      <trkpt lat="36.503160987049341" lon="-5.362044023349881">
        <ele>411.57999999999998</ele>
        <time>2025-05-09T09:06:37Z</time>
      </trkpt>
      <trkpt lat="36.503207003697753" lon="-5.361871020868421">
        <ele>412.54000000000002</ele>
        <time>2025-05-09T09:06:38Z</time>
      </trkpt>
      <trkpt lat="36.503234999254346" lon="-5.361695000901818">
        <ele>413.5</ele>
        <time>2025-05-09T09:06:39Z</time>
      </trkpt>
      <trkpt lat="36.503385035321116" lon="-5.360652040690184">
        <ele>419.26999999999998</ele>
        <time>2025-05-09T09:06:45Z</time>
      </trkpt>
      <trkpt lat="36.503462987020612" lon="-5.35982801578939">
        <ele>426.95999999999998</ele>
        <time>2025-05-09T09:06:50Z</time>
      </trkpt>
      <trkpt lat="36.503506992012262" lon="-5.359693989157677">
        <ele>428.88999999999999</ele>
        <time>2025-05-09T09:06:51Z</time>
      </trkpt>
      <trkpt lat="36.503576980903745" lon="-5.359599022194743">
        <ele>430.32999999999998</ele>
        <time>2025-05-09T09:06:52Z</time>
      </trkpt>
      <trkpt lat="36.503653004765511" lon="-5.359544036909938">
        <ele>431.76999999999998</ele>
        <time>2025-05-09T09:06:53Z</time>
      </trkpt>
      <trkpt lat="36.503759035840631" lon="-5.359534984454513">
        <ele>432.73000000000002</ele>
        <time>2025-05-09T09:06:54Z</time>
      </trkpt>
      <trkpt lat="36.503857020288706" lon="-5.359526015818119">
        <ele>433.69</ele>
        <time>2025-05-09T09:06:55Z</time>
      </trkpt>
      <trkpt lat="36.50395299308002" lon="-5.359586030244827">
        <ele>434.17000000000002</ele>
        <time>2025-05-09T09:06:56Z</time>
      </trkpt>
      <trkpt lat="36.504033962264657" lon="-5.359645960852504">
        <ele>435.13</ele>
        <time>2025-05-09T09:06:57Z</time>
      </trkpt>
      <trkpt lat="36.504087019711733" lon="-5.359769007191062">
        <ele>436.10000000000002</ele>
        <time>2025-05-09T09:06:58Z</time>
      </trkpt>
      <trkpt lat="36.504109986126423" lon="-5.359904039651156">
        <ele>436.57999999999998</ele>
        <time>2025-05-09T09:06:59Z</time>
      </trkpt>
      <trkpt lat="36.504132030531764" lon="-5.360060026869178">
        <ele>437.54000000000002</ele>
        <time>2025-05-09T09:07:00Z</time>
      </trkpt>
      <trkpt lat="36.504157008603215" lon="-5.360231017693877">
        <ele>438.5</ele>
        <time>2025-05-09T09:07:01Z</time>
      </trkpt>
      <trkpt lat="36.504179975017905" lon="-5.36041097715497">
        <ele>438.98000000000002</ele>
        <time>2025-05-09T09:07:02Z</time>
      </trkpt>
      <trkpt lat="36.504204031080008" lon="-5.360595965757966">
        <ele>439.94</ele>
        <time>2025-05-09T09:07:03Z</time>
      </trkpt>
      <trkpt lat="36.504237977787852" lon="-5.360787995159626">
        <ele>440.42000000000002</ele>
        <time>2025-05-09T09:07:04Z</time>
      </trkpt>
      <trkpt lat="36.504285000264645" lon="-5.360957980155945">
        <ele>440.89999999999998</ele>
        <time>2025-05-09T09:07:05Z</time>
      </trkpt>
      <trkpt lat="36.504329005256295" lon="-5.361113967373967">
        <ele>441.86000000000001</ele>
        <time>2025-05-09T09:07:06Z</time>
      </trkpt>
      <trkpt lat="36.504415003582835" lon="-5.361231984570622">
        <ele>442.81999999999999</ele>
        <time>2025-05-09T09:07:07Z</time>
      </trkpt>
      <trkpt lat="36.504498990252614" lon="-5.361347990110517">
        <ele>443.79000000000002</ele>
        <time>2025-05-09T09:07:08Z</time>
      </trkpt>
      <trkpt lat="36.504620024934411" lon="-5.361417979001999">
        <ele>444.75</ele>
        <time>2025-05-09T09:07:09Z</time>
      </trkpt>
      <trkpt lat="36.504737958312035" lon="-5.361485034227371">
        <ele>445.70999999999998</ele>
        <time>2025-05-09T09:07:10Z</time>
      </trkpt>
      <trkpt lat="36.504861004650593" lon="-5.361529039219022">
        <ele>447.14999999999998</ele>
        <time>2025-05-09T09:07:11Z</time>
      </trkpt>
      <trkpt lat="36.504971981048584" lon="-5.361543036997318">
        <ele>448.11000000000001</ele>
        <time>2025-05-09T09:07:12Z</time>
      </trkpt>
      <trkpt lat="36.505081029608846" lon="-5.361501965671778">
        <ele>449.06999999999999</ele>
        <time>2025-05-09T09:07:13Z</time>
      </trkpt>
      <trkpt lat="36.505167027935386" lon="-5.361451003700495">
        <ele>450.51999999999998</ele>
        <time>2025-05-09T09:07:14Z</time>
      </trkpt>
      <trkpt lat="36.505251014605165" lon="-5.361350001767278">
        <ele>451.48000000000002</ele>
        <time>2025-05-09T09:07:15Z</time>
      </trkpt>
      <trkpt lat="36.505317986011505" lon="-5.361235002055764">
        <ele>451.95999999999998</ele>
        <time>2025-05-09T09:07:16Z</time>
      </trkpt>
      <trkpt lat="36.505390992388129" lon="-5.361111033707857">
        <ele>453.39999999999998</ele>
        <time>2025-05-09T09:07:17Z</time>
      </trkpt>
      <trkpt lat="36.505462992936373" lon="-5.360985975712538">
        <ele>454.36000000000001</ele>
        <time>2025-05-09T09:07:18Z</time>
      </trkpt>
      <trkpt lat="36.505537005141377" lon="-5.36085999570787">
        <ele>455.31999999999999</ele>
        <time>2025-05-09T09:07:19Z</time>
      </trkpt>
      <trkpt lat="36.505656028166413" lon="-5.360778020694852">
        <ele>455.80000000000001</ele>
        <time>2025-05-09T09:07:20Z</time>
      </trkpt>
      <trkpt lat="36.505777984857559" lon="-5.360712977126241">
        <ele>457.24000000000001</ele>
        <time>2025-05-09T09:07:21Z</time>
      </trkpt>
      <trkpt lat="36.505914023146033" lon="-5.360683975741267">
        <ele>457.72000000000003</ele>
        <time>2025-05-09T09:07:22Z</time>
      </trkpt>
      <trkpt lat="36.506049977615476" lon="-5.360683975741267">
        <ele>458.69</ele>
        <time>2025-05-09T09:07:23Z</time>
      </trkpt>
      <trkpt lat="36.506190961226821" lon="-5.360698979347944">
        <ele>459.64999999999998</ele>
        <time>2025-05-09T09:07:24Z</time>
      </trkpt>
      <trkpt lat="36.506324987858534" lon="-5.36075103096664">
        <ele>460.61000000000001</ele>
        <time>2025-05-09T09:07:25Z</time>
      </trkpt>
      <trkpt lat="36.506460020318627" lon="-5.360802998766303">
        <ele>461.56999999999999</ele>
        <time>2025-05-09T09:07:26Z</time>
      </trkpt>
      <trkpt lat="36.506593963131309" lon="-5.360853960737586">
        <ele>462.52999999999997</ele>
        <time>2025-05-09T09:07:27Z</time>
      </trkpt>
      <trkpt lat="36.506709968671203" lon="-5.360898971557617">
        <ele>463.97000000000003</ele>
        <time>2025-05-09T09:07:28Z</time>
      </trkpt>
      <trkpt lat="36.506850030273199" lon="-5.360898971557617">
        <ele>464.93000000000001</ele>
        <time>2025-05-09T09:07:29Z</time>
      </trkpt>
      <trkpt lat="36.506975004449487" lon="-5.360898971557617">
        <ele>465.89999999999998</ele>
        <time>2025-05-09T09:07:30Z</time>
      </trkpt>
      <trkpt lat="36.507082041352987" lon="-5.360857984051108">
        <ele>466.86000000000001</ele>
        <time>2025-05-09T09:07:31Z</time>
      </trkpt>
      <trkpt lat="36.50719796307385" lon="-5.360792018473148">
        <ele>467.81999999999999</ele>
        <time>2025-05-09T09:07:32Z</time>
      </trkpt>
      <trkpt lat="36.507314974442124" lon="-5.360721023753285">
        <ele>468.77999999999997</ele>
        <time>2025-05-09T09:07:33Z</time>
      </trkpt>
      <trkpt lat="36.507397033274174" lon="-5.360593032091856">
        <ele>469.74000000000001</ele>
        <time>2025-05-09T09:07:34Z</time>
      </trkpt>
      <trkpt lat="36.507484037429094" lon="-5.360457999631763">
        <ele>470.69999999999999</ele>
        <time>2025-05-09T09:07:35Z</time>
      </trkpt>
      <trkpt lat="36.5075390227139" lon="-5.360282985493541">
        <ele>471.66000000000003</ele>
        <time>2025-05-09T09:07:36Z</time>
      </trkpt>
      <trkpt lat="36.507581016048789" lon="-5.3601089771837">
        <ele>472.63</ele>
        <time>2025-05-09T09:07:37Z</time>
      </trkpt>
      <trkpt lat="36.507675983011723" lon="-5.359770013019443">
        <ele>475.02999999999997</ele>
        <time>2025-05-09T09:07:39Z</time>
      </trkpt>
      <trkpt lat="36.507732979953289" lon="-5.359607990831137">
        <ele>476.47000000000003</ele>
        <time>2025-05-09T09:07:40Z</time>
      </trkpt>
      <trkpt lat="36.507814032956958" lon="-5.35946499556303">
        <ele>477.91000000000003</ele>
        <time>2025-05-09T09:07:41Z</time>
      </trkpt>
      <trkpt lat="36.507916040718555" lon="-5.359345972537994">
        <ele>478.87</ele>
        <time>2025-05-09T09:07:42Z</time>
      </trkpt>
      <trkpt lat="36.508016036823392" lon="-5.35922896116972">
        <ele>479.83999999999997</ele>
        <time>2025-05-09T09:07:43Z</time>
      </trkpt>
      <trkpt lat="36.508117038756609" lon="-5.359112033620477">
        <ele>481.27999999999997</ele>
        <time>2025-05-09T09:07:44Z</time>
      </trkpt>
      <trkpt lat="36.508198007941246" lon="-5.358975995332003">
        <ele>482.72000000000003</ele>
        <time>2025-05-09T09:07:45Z</time>
      </trkpt>
      <trkpt lat="36.508264979347587" lon="-5.358840962871909">
        <ele>484.16000000000003</ele>
        <time>2025-05-09T09:07:46Z</time>
      </trkpt>
      <trkpt lat="36.50827000848949" lon="-5.358686987310648">
        <ele>485.12</ele>
        <time>2025-05-09T09:07:47Z</time>
      </trkpt>
      <trkpt lat="36.508261961862445" lon="-5.358522031456232">
        <ele>486.07999999999998</ele>
        <time>2025-05-09T09:07:48Z</time>
      </trkpt>
      <trkpt lat="36.508252993226051" lon="-5.35834701731801">
        <ele>487.52999999999997</ele>
        <time>2025-05-09T09:07:49Z</time>
      </trkpt>
      <trkpt lat="36.508234972134233" lon="-5.358009980991483">
        <ele>490.41000000000003</ele>
        <time>2025-05-09T09:07:51Z</time>
      </trkpt>
      <trkpt lat="36.508275037631392" lon="-5.357863968238235">
        <ele>491.37</ele>
        <time>2025-05-09T09:07:52Z</time>
      </trkpt>
      <trkpt lat="36.508325999602675" lon="-5.357720972970128">
        <ele>492.81</ele>
        <time>2025-05-09T09:07:53Z</time>
      </trkpt>
      <trkpt lat="36.50850797072053" lon="-5.357307996600866">
        <ele>496.18000000000001</ele>
        <time>2025-05-09T09:07:56Z</time>
      </trkpt>
      <trkpt lat="36.508566979318857" lon="-5.357175981625915">
        <ele>497.62</ele>
        <time>2025-05-09T09:07:57Z</time>
      </trkpt>
      <trkpt lat="36.50870000012219" lon="-5.356807010248303">
        <ele>501.45999999999998</ele>
        <time>2025-05-09T09:08:00Z</time>
      </trkpt>
      <trkpt lat="36.508779963478446" lon="-5.356734003871679">
        <ele>502.91000000000003</ele>
        <time>2025-05-09T09:08:01Z</time>
      </trkpt>
      <trkpt lat="36.508882977068424" lon="-5.356708019971848">
        <ele>503.87</ele>
        <time>2025-05-09T09:08:02Z</time>
      </trkpt>
      <trkpt lat="36.508982973173261" lon="-5.356719000265002">
        <ele>505.31</ele>
        <time>2025-05-09T09:08:03Z</time>
      </trkpt>
      <trkpt lat="36.50906503200531" lon="-5.356769962236285">
        <ele>506.26999999999998</ele>
        <time>2025-05-09T09:08:04Z</time>
      </trkpt>
      <trkpt lat="36.509127980098128" lon="-5.356859983876348">
        <ele>507.70999999999998</ele>
        <time>2025-05-09T09:08:05Z</time>
      </trkpt>
      <trkpt lat="36.509158993139863" lon="-5.356987975537777">
        <ele>509.16000000000003</ele>
        <time>2025-05-09T09:08:06Z</time>
      </trkpt>
      <trkpt lat="36.50919402949512" lon="-5.357135999947786">
        <ele>510.12</ele>
        <time>2025-05-09T09:08:07Z</time>
      </trkpt>
      <trkpt lat="36.509231999516487" lon="-5.35729500465095">
        <ele>511.56</ele>
        <time>2025-05-09T09:08:08Z</time>
      </trkpt>
      <trkpt lat="36.509278016164899" lon="-5.357450991868973">
        <ele>512.51999999999998</ele>
        <time>2025-05-09T09:08:09Z</time>
      </trkpt>
      <trkpt lat="36.509325038641691" lon="-5.357603039592505">
        <ele>513.48000000000002</ele>
        <time>2025-05-09T09:08:10Z</time>
      </trkpt>
      <trkpt lat="36.509386980906129" lon="-5.357735976576805">
        <ele>514.44000000000005</ele>
        <time>2025-05-09T09:08:11Z</time>
      </trkpt>
      <trkpt lat="36.509471973404288" lon="-5.357863968238235">
        <ele>514.91999999999996</ele>
        <time>2025-05-09T09:08:12Z</time>
      </trkpt>
      <trkpt lat="36.509558977559209" lon="-5.357993971556425">
        <ele>515.39999999999998</ele>
        <time>2025-05-09T09:08:13Z</time>
      </trkpt>
      <trkpt lat="36.509660985320807" lon="-5.358098996803165">
        <ele>516.37</ele>
        <time>2025-05-09T09:08:14Z</time>
      </trkpt>
      <trkpt lat="36.509771039709449" lon="-5.358208967372775">
        <ele>516.85000000000002</ele>
        <time>2025-05-09T09:08:15Z</time>
      </trkpt>
      <trkpt lat="36.510216034948826" lon="-5.358601994812489">
        <ele>519.25</ele>
        <time>2025-05-09T09:08:19Z</time>
      </trkpt>
      <trkpt lat="36.510336985811591" lon="-5.358651028946042">
        <ele>520.21000000000004</ele>
        <time>2025-05-09T09:08:20Z</time>
      </trkpt>
      <trkpt lat="36.510462965816259" lon="-5.358662009239197">
        <ele>521.16999999999996</ele>
        <time>2025-05-09T09:08:21Z</time>
      </trkpt>
      <trkpt lat="36.51059003546834" lon="-5.358633007854223">
        <ele>521.64999999999998</ele>
        <time>2025-05-09T09:08:22Z</time>
      </trkpt>
      <trkpt lat="36.510716015473008" lon="-5.35856100730598">
        <ele>522.61000000000001</ele>
        <time>2025-05-09T09:08:23Z</time>
      </trkpt>
      <trkpt lat="36.510844007134438" lon="-5.358488000929356">
        <ele>523.09000000000003</ele>
        <time>2025-05-09T09:08:24Z</time>
      </trkpt>
      <trkpt lat="36.510980967432261" lon="-5.358409965410829">
        <ele>524.05999999999995</ele>
        <time>2025-05-09T09:08:25Z</time>
      </trkpt>
      <trkpt lat="36.511089010164142" lon="-5.358292032033205">
        <ele>524.53999999999996</ele>
        <time>2025-05-09T09:08:26Z</time>
      </trkpt>
      <trkpt lat="36.511197974905372" lon="-5.358173009008169">
        <ele>525.5</ele>
        <time>2025-05-09T09:08:27Z</time>
      </trkpt>
      <trkpt lat="36.511303000152111" lon="-5.358058009296656">
        <ele>525.98000000000002</ele>
        <time>2025-05-09T09:08:28Z</time>
      </trkpt>
      <trkpt lat="36.511399978771806" lon="-5.357952984049916">
        <ele>527.41999999999996</ele>
        <time>2025-05-09T09:08:29Z</time>
      </trkpt>
      <trkpt lat="36.511492012068629" lon="-5.357881989330053">
        <ele>527.89999999999998</ele>
        <time>2025-05-09T09:08:30Z</time>
      </trkpt>
      <trkpt lat="36.51160298846662" lon="-5.357845025137067">
        <ele>528.86000000000001</ele>
        <time>2025-05-09T09:08:31Z</time>
      </trkpt>
      <trkpt lat="36.511727962642908" lon="-5.357848964631558">
        <ele>530.29999999999995</ele>
        <time>2025-05-09T09:08:32Z</time>
      </trkpt>
      <trkpt lat="36.511848997324705" lon="-5.357876038178802">
        <ele>531.26999999999998</ele>
        <time>2025-05-09T09:08:33Z</time>
      </trkpt>
      <trkpt lat="36.511972965672612" lon="-5.357903027907014">
        <ele>531.75</ele>
        <time>2025-05-09T09:08:34Z</time>
      </trkpt>
      <trkpt lat="36.512099029496312" lon="-5.357907973229885">
        <ele>532.23000000000002</ele>
        <time>2025-05-09T09:08:35Z</time>
      </trkpt>
      <trkpt lat="36.512222997844219" lon="-5.357879977673292">
        <ele>532.71000000000004</ele>
        <time>2025-05-09T09:08:36Z</time>
      </trkpt>
      <trkpt lat="36.51233296841383" lon="-5.357798002660275">
        <ele>532.71000000000004</ele>
        <time>2025-05-09T09:08:37Z</time>
      </trkpt>
      <trkpt lat="36.512460960075259" lon="-5.35770202986896">
        <ele>533.19000000000005</ele>
        <time>2025-05-09T09:08:38Z</time>
      </trkpt>
      <trkpt lat="36.513020033016801" lon="-5.357133988291025">
        <ele>537.99000000000001</ele>
        <time>2025-05-09T09:08:43Z</time>
      </trkpt>
      <trkpt lat="36.513114999979734" lon="-5.357003984972835">
        <ele>538.96000000000004</ele>
        <time>2025-05-09T09:08:44Z</time>
      </trkpt>
      <trkpt lat="36.513194041326642" lon="-5.356830982491374">
        <ele>539.91999999999996</ele>
        <time>2025-05-09T09:08:45Z</time>
      </trkpt>
      <trkpt lat="36.513237040489912" lon="-5.356659991666675">
        <ele>540.88</ele>
        <time>2025-05-09T09:08:46Z</time>
      </trkpt>
      <trkpt lat="36.513285990804434" lon="-5.356485983356834">
        <ele>541.84000000000003</ele>
        <time>2025-05-09T09:08:47Z</time>
      </trkpt>
      <trkpt lat="36.513339970260859" lon="-5.356312980875373">
        <ele>542.32000000000005</ele>
        <time>2025-05-09T09:08:48Z</time>
      </trkpt>
      <trkpt lat="36.513418005779386" lon="-5.356168979778886">
        <ele>543.27999999999997</ele>
        <time>2025-05-09T09:08:49Z</time>
      </trkpt>
      <trkpt lat="36.5135139785707" lon="-5.356042999774218">
        <ele>544.24000000000001</ele>
        <time>2025-05-09T09:08:50Z</time>
      </trkpt>
      <trkpt lat="36.513606011867523" lon="-5.355921965092421">
        <ele>544.72000000000003</ele>
        <time>2025-05-09T09:08:51Z</time>
      </trkpt>
      <trkpt lat="36.513697039335966" lon="-5.355802020058036">
        <ele>545.69000000000005</ele>
        <time>2025-05-09T09:08:52Z</time>
      </trkpt>
      <trkpt lat="36.513786977156997" lon="-5.355682997033">
        <ele>546.64999999999998</ele>
        <time>2025-05-09T09:08:53Z</time>
      </trkpt>
      <trkpt lat="36.513860989362001" lon="-5.355536984279752">
        <ele>547.13</ele>
        <time>2025-05-09T09:08:54Z</time>
      </trkpt>
      <trkpt lat="36.513913040980697" lon="-5.355374040082097">
        <ele>548.57000000000005</ele>
        <time>2025-05-09T09:08:55Z</time>
      </trkpt>
      <trkpt lat="36.51396500878036" lon="-5.355213023722172">
        <ele>549.04999999999995</ele>
        <time>2025-05-09T09:08:56Z</time>
      </trkpt>
      <trkpt lat="36.514112027361989" lon="-5.354747995734215">
        <ele>552.40999999999997</ele>
        <time>2025-05-09T09:08:59Z</time>
      </trkpt>
      <trkpt lat="36.514173969626427" lon="-5.354647999629378">
        <ele>553.38</ele>
        <time>2025-05-09T09:09:00Z</time>
      </trkpt>
      <trkpt lat="36.514262985438108" lon="-5.354584967717528">
        <ele>554.82000000000005</ele>
        <time>2025-05-09T09:09:01Z</time>
      </trkpt>
      <trkpt lat="36.514365999028087" lon="-5.35458798520267">
        <ele>555.77999999999997</ele>
        <time>2025-05-09T09:09:02Z</time>
      </trkpt>
      <trkpt lat="36.514487033709884" lon="-5.354615980759263">
        <ele>556.74000000000001</ele>
        <time>2025-05-09T09:09:03Z</time>
      </trkpt>
      <trkpt lat="36.514605972915888" lon="-5.354674989357591">
        <ele>557.70000000000005</ele>
        <time>2025-05-09T09:09:04Z</time>
      </trkpt>
      <trkpt lat="36.51471502147615" lon="-5.354784037917852">
        <ele>558.65999999999997</ele>
        <time>2025-05-09T09:09:05Z</time>
      </trkpt>
      <trkpt lat="36.514830021187663" lon="-5.354893002659082">
        <ele>560.11000000000001</ele>
        <time>2025-05-09T09:09:06Z</time>
      </trkpt>
      <trkpt lat="36.514945020899177" lon="-5.354985035955906">
        <ele>561.07000000000005</ele>
        <time>2025-05-09T09:09:07Z</time>
      </trkpt>
      <trkpt lat="36.515066977590322" lon="-5.355047984048724">
        <ele>562.02999999999997</ele>
        <time>2025-05-09T09:09:08Z</time>
      </trkpt>
      <trkpt lat="36.515164962038398" lon="-5.355062987655401">
        <ele>562.50999999999999</ele>
        <time>2025-05-09T09:09:09Z</time>
      </trkpt>
      <trkpt lat="36.515277028083801" lon="-5.355000039562583">
        <ele>563.47000000000003</ele>
        <time>2025-05-09T09:09:10Z</time>
      </trkpt>
      <trkpt lat="36.515368977561593" lon="-5.35493097268045">
        <ele>563.95000000000005</ele>
        <time>2025-05-09T09:09:11Z</time>
      </trkpt>
      <trkpt lat="36.515432009473443" lon="-5.35479904152453">
        <ele>564.90999999999997</ele>
        <time>2025-05-09T09:09:12Z</time>
      </trkpt>
      <trkpt lat="36.515499986708164" lon="-5.354655962437391">
        <ele>565.87</ele>
        <time>2025-05-09T09:09:13Z</time>
      </trkpt>
      <trkpt lat="36.515564024448395" lon="-5.354502992704511">
        <ele>566.83000000000004</ele>
        <time>2025-05-09T09:09:14Z</time>
      </trkpt>
      <trkpt lat="36.515613980591297" lon="-5.354337031021714">
        <ele>567.79999999999995</ele>
        <time>2025-05-09T09:09:15Z</time>
      </trkpt>
      <trkpt lat="36.515638036653399" lon="-5.354155981913209">
        <ele>569.24000000000001</ele>
        <time>2025-05-09T09:09:16Z</time>
      </trkpt>
      <trkpt lat="36.515654968097806" lon="-5.353961018845439">
        <ele>570.67999999999995</ele>
        <time>2025-05-09T09:09:17Z</time>
      </trkpt>
      <trkpt lat="36.515632001683116" lon="-5.353757003322244">
        <ele>571.63999999999999</ele>
        <time>2025-05-09T09:09:18Z</time>
      </trkpt>
      <trkpt lat="36.515608029440045" lon="-5.353549970313907">
        <ele>573.08000000000004</ele>
        <time>2025-05-09T09:09:19Z</time>
      </trkpt>
      <trkpt lat="36.515448018908501" lon="-5.352344987913966">
        <ele>580.76999999999998</ele>
        <time>2025-05-09T09:09:25Z</time>
      </trkpt>
      <trkpt lat="36.515385992825031" lon="-5.352178020402789">
        <ele>581.73000000000002</ele>
        <time>2025-05-09T09:09:26Z</time>
      </trkpt>
      <trkpt lat="36.515287002548575" lon="-5.352036030963063">
        <ele>582.70000000000005</ele>
        <time>2025-05-09T09:09:27Z</time>
      </trkpt>
      <trkpt lat="36.515166973695159" lon="-5.351926982402802">
        <ele>583.65999999999997</ele>
        <time>2025-05-09T09:09:28Z</time>
      </trkpt>
      <trkpt lat="36.515045017004013" lon="-5.351813994348049">
        <ele>584.62</ele>
        <time>2025-05-09T09:09:29Z</time>
      </trkpt>
      <trkpt lat="36.514384020119905" lon="-5.351247964426875">
        <ele>588.95000000000005</ele>
        <time>2025-05-09T09:09:34Z</time>
      </trkpt>
      <trkpt lat="36.514120995998383" lon="-5.351059036329389">
        <ele>590.87</ele>
        <time>2025-05-09T09:09:36Z</time>
      </trkpt>
      <trkpt lat="36.513994010165334" lon="-5.350968008860946">
        <ele>591.83000000000004</ele>
        <time>2025-05-09T09:09:37Z</time>
      </trkpt>
      <trkpt lat="36.513107037171721" lon="-5.349980033934116">
        <ele>601.91999999999996</ele>
        <time>2025-05-09T09:09:45Z</time>
      </trkpt>
      <trkpt lat="36.513052973896265" lon="-5.349836032837629">
        <ele>603.36000000000001</ele>
        <time>2025-05-09T09:09:46Z</time>
      </trkpt>
      <trkpt lat="36.513001006096601" lon="-5.349694965407252">
        <ele>604.80999999999995</ele>
        <time>2025-05-09T09:09:47Z</time>
      </trkpt>
      <trkpt lat="36.51295498944819" lon="-5.349554987624288">
        <ele>605.76999999999998</ele>
        <time>2025-05-09T09:09:48Z</time>
      </trkpt>
      <trkpt lat="36.51295498944819" lon="-5.349393971264362">
        <ele>607.21000000000004</ele>
        <time>2025-05-09T09:09:49Z</time>
      </trkpt>
      <trkpt lat="36.51297502219677" lon="-5.349249970167875">
        <ele>607.69000000000005</ele>
        <time>2025-05-09T09:09:50Z</time>
      </trkpt>
      <trkpt lat="36.513038976117969" lon="-5.349128013476729">
        <ele>608.16999999999996</ele>
        <time>2025-05-09T09:09:51Z</time>
      </trkpt>
      <trkpt lat="36.513132015243173" lon="-5.349026005715132">
        <ele>608.64999999999998</ele>
        <time>2025-05-09T09:09:52Z</time>
      </trkpt>
      <trkpt lat="36.513247014954686" lon="-5.348956016823649">
        <ele>609.13</ele>
        <time>2025-05-09T09:09:53Z</time>
      </trkpt>
      <trkpt lat="36.513381041586399" lon="-5.348913017660379">
        <ele>610.09000000000003</ele>
        <time>2025-05-09T09:09:54Z</time>
      </trkpt>
      <trkpt lat="36.513511966913939" lon="-5.348890973255038">
        <ele>611.05999999999995</ele>
        <time>2025-05-09T09:09:55Z</time>
      </trkpt>
      <trkpt lat="36.513636019080877" lon="-5.348872030153871">
        <ele>612.01999999999998</ele>
        <time>2025-05-09T09:09:56Z</time>
      </trkpt>
      <trkpt lat="36.513884961605072" lon="-5.348802041262388">
        <ele>613.46000000000004</ele>
        <time>2025-05-09T09:09:58Z</time>
      </trkpt>
      <trkpt lat="36.513996021822095" lon="-5.348718976601958">
        <ele>614.41999999999996</ele>
        <time>2025-05-09T09:09:59Z</time>
      </trkpt>
      <trkpt lat="36.51407296769321" lon="-5.34859199076891">
        <ele>615.86000000000001</ele>
        <time>2025-05-09T09:10:00Z</time>
      </trkpt>
      <trkpt lat="36.514154020696878" lon="-5.348448995500803">
        <ele>616.82000000000005</ele>
        <time>2025-05-09T09:10:01Z</time>
      </trkpt>
      <trkpt lat="36.514225015416741" lon="-5.348288984969258">
        <ele>617.77999999999997</ele>
        <time>2025-05-09T09:10:02Z</time>
      </trkpt>
      <trkpt lat="36.514483010396361" lon="-5.347425984218717">
        <ele>624.02999999999997</ele>
        <time>2025-05-09T09:10:07Z</time>
      </trkpt>
      <trkpt lat="36.514494996517897" lon="-5.347258010879159">
        <ele>624.99000000000001</ele>
        <time>2025-05-09T09:10:08Z</time>
      </trkpt>
      <trkpt lat="36.514483010396361" lon="-5.347081990912557">
        <ele>625.96000000000004</ele>
        <time>2025-05-09T09:10:09Z</time>
      </trkpt>
      <trkpt lat="36.514429030939937" lon="-5.346729028970003">
        <ele>628.36000000000001</ele>
        <time>2025-05-09T09:10:11Z</time>
      </trkpt>
      <trkpt lat="36.514424001798034" lon="-5.34655200317502">
        <ele>629.32000000000005</ele>
        <time>2025-05-09T09:10:12Z</time>
      </trkpt>
      <trkpt lat="36.514446968212724" lon="-5.346384029835463">
        <ele>630.75999999999999</ele>
        <time>2025-05-09T09:10:13Z</time>
      </trkpt>
      <trkpt lat="36.514502037316561" lon="-5.346210021525621">
        <ele>631.72000000000003</ele>
        <time>2025-05-09T09:10:14Z</time>
      </trkpt>
      <trkpt lat="36.514570014551282" lon="-5.346061997115612">
        <ele>632.67999999999995</ele>
        <time>2025-05-09T09:10:15Z</time>
      </trkpt>
      <trkpt lat="36.514647966250777" lon="-5.345943979918957">
        <ele>633.64999999999998</ele>
        <time>2025-05-09T09:10:16Z</time>
      </trkpt>
      <trkpt lat="36.514726001769304" lon="-5.345837026834488">
        <ele>634.61000000000001</ele>
        <time>2025-05-09T09:10:17Z</time>
      </trkpt>
      <trkpt lat="36.514807976782322" lon="-5.345724960789084">
        <ele>635.57000000000005</ele>
        <time>2025-05-09T09:10:18Z</time>
      </trkpt>
      <trkpt lat="36.51484795846045" lon="-5.345575008541346">
        <ele>637.00999999999999</ele>
        <time>2025-05-09T09:10:19Z</time>
      </trkpt>
      <trkpt lat="36.514878971502185" lon="-5.345420027151704">
        <ele>637.49000000000001</ele>
        <time>2025-05-09T09:10:20Z</time>
      </trkpt>
      <trkpt lat="36.514871008694172" lon="-5.345263034105301">
        <ele>638.45000000000005</ele>
        <time>2025-05-09T09:10:21Z</time>
      </trkpt>
      <trkpt lat="36.514851981773973" lon="-5.345110986381769">
        <ele>639.88999999999999</ele>
        <time>2025-05-09T09:10:22Z</time>
      </trkpt>
      <trkpt lat="36.514805965125561" lon="-5.344976037740707">
        <ele>640.38</ele>
        <time>2025-05-09T09:10:23Z</time>
      </trkpt>
      <trkpt lat="36.514730025082827" lon="-5.344844022765756">
        <ele>640.86000000000001</ele>
        <time>2025-05-09T09:10:24Z</time>
      </trkpt>
      <trkpt lat="36.514616031199694" lon="-5.344750983640552">
        <ele>641.34000000000003</ele>
        <time>2025-05-09T09:10:25Z</time>
      </trkpt>
      <trkpt lat="36.514496002346277" lon="-5.344650987535715">
        <ele>641.34000000000003</ele>
        <time>2025-05-09T09:10:26Z</time>
      </trkpt>
      <trkpt lat="36.514278994873166" lon="-5.344444960355759">
        <ele>641.34000000000003</ele>
        <time>2025-05-09T09:10:28Z</time>
      </trkpt>
      <trkpt lat="36.514191990718246" lon="-5.344337001442909">
        <ele>640.86000000000001</ele>
        <time>2025-05-09T09:10:29Z</time>
      </trkpt>
      <trkpt lat="36.51413599960506" lon="-5.344190988689661">
        <ele>640.86000000000001</ele>
        <time>2025-05-09T09:10:30Z</time>
      </trkpt>
      <trkpt lat="36.514081014320254" lon="-5.344024021178484">
        <ele>640.86000000000001</ele>
        <time>2025-05-09T09:10:31Z</time>
      </trkpt>
      <trkpt lat="36.514042038470507" lon="-5.343840038403869">
        <ele>640.86000000000001</ele>
        <time>2025-05-09T09:10:32Z</time>
      </trkpt>
      <trkpt lat="36.513778008520603" lon="-5.342848040163517">
        <ele>640.38</ele>
        <time>2025-05-09T09:10:38Z</time>
      </trkpt>
      <trkpt lat="36.513725034892559" lon="-5.342732034623623">
        <ele>639.88999999999999</ele>
        <time>2025-05-09T09:10:39Z</time>
      </trkpt>
      <trkpt lat="36.51368597522378" lon="-5.342646958306432">
        <ele>639.40999999999997</ele>
        <time>2025-05-09T09:10:40Z</time>
      </trkpt>
      <trkpt lat="36.513650016859174" lon="-5.342453001067042">
        <ele>638.92999999999995</ele>
        <time>2025-05-09T09:10:47Z</time>
      </trkpt>
      <trkpt lat="36.513648005202413" lon="-5.342435985803604">
        <ele>638.92999999999995</ele>
        <time>2025-05-09T09:10:48Z</time>
      </trkpt>
      <trkpt lat="36.513648005202413" lon="-5.342435985803604">
        <ele>638.92999999999995</ele>
        <time>2025-05-09T09:11:01Z</time>
      </trkpt>
      <trkpt lat="36.513518001884222" lon="-5.342408996075392">
        <ele>647.10000000000002</ele>
        <time>2025-05-09T09:16:03Z</time>
      </trkpt>
      <trkpt lat="36.513537028804421" lon="-5.342412013560534">
        <ele>641.34000000000003</ele>
        <time>2025-05-09T09:16:38Z</time>
      </trkpt>
      <trkpt lat="36.513640964403749" lon="-5.342359961941838">
        <ele>641.34000000000003</ele>
        <time>2025-05-09T09:16:42Z</time>
      </trkpt>
      <trkpt lat="36.51364297606051" lon="-5.342348981648684">
        <ele>641.82000000000005</ele>
        <time>2025-05-09T09:16:43Z</time>
      </trkpt>
      <trkpt lat="36.513653034344316" lon="-5.342271029949188">
        <ele>641.82000000000005</ele>
        <time>2025-05-09T09:16:45Z</time>
      </trkpt>
      <trkpt lat="36.51366401463747" lon="-5.342191988602281">
        <ele>641.82000000000005</ele>
        <time>2025-05-09T09:16:46Z</time>
      </trkpt>
      <trkpt lat="36.513678012415767" lon="-5.342090986669064">
        <ele>641.82000000000005</ele>
        <time>2025-05-09T09:16:47Z</time>
      </trkpt>
      <trkpt lat="36.513695027679205" lon="-5.341972969472408">
        <ele>641.82000000000005</ele>
        <time>2025-05-09T09:16:48Z</time>
      </trkpt>
      <trkpt lat="36.513711959123611" lon="-5.341844977810979">
        <ele>641.34000000000003</ele>
        <time>2025-05-09T09:16:49Z</time>
      </trkpt>
      <trkpt lat="36.513722017407417" lon="-5.341714974492788">
        <ele>640.86000000000001</ele>
        <time>2025-05-09T09:16:50Z</time>
      </trkpt>
      <trkpt lat="36.513687986880541" lon="-5.341582037508488">
        <ele>640.86000000000001</ele>
        <time>2025-05-09T09:16:51Z</time>
      </trkpt>
      <trkpt lat="36.513644987717271" lon="-5.341443987563252">
        <ele>640.86000000000001</ele>
        <time>2025-05-09T09:16:52Z</time>
      </trkpt>
      <trkpt lat="36.51357801631093" lon="-5.34131096675992">
        <ele>640.38</ele>
        <time>2025-05-09T09:16:53Z</time>
      </trkpt>
      <trkpt lat="36.5135139785707" lon="-5.341176018118858">
        <ele>640.38</ele>
        <time>2025-05-09T09:16:54Z</time>
      </trkpt>
      <trkpt lat="36.513453964143991" lon="-5.341036040335894">
        <ele>640.38</ele>
        <time>2025-05-09T09:16:55Z</time>
      </trkpt>
      <trkpt lat="36.513396967202425" lon="-5.340896984562278">
        <ele>640.86000000000001</ele>
        <time>2025-05-09T09:16:56Z</time>
      </trkpt>
      <trkpt lat="36.513340976089239" lon="-5.34072901122272">
        <ele>640.86000000000001</ele>
        <time>2025-05-09T09:16:57Z</time>
      </trkpt>
      <trkpt lat="36.513340976089239" lon="-5.340591967105866">
        <ele>640.86000000000001</ele>
        <time>2025-05-09T09:16:58Z</time>
      </trkpt>
      <trkpt lat="36.513340976089239" lon="-5.340431034564972">
        <ele>641.34000000000003</ele>
        <time>2025-05-09T09:16:59Z</time>
      </trkpt>
      <trkpt lat="36.513364026322961" lon="-5.340274041518569">
        <ele>641.34000000000003</ele>
        <time>2025-05-09T09:17:00Z</time>
      </trkpt>
      <trkpt lat="36.51340501382947" lon="-5.340116964653134">
        <ele>641.34000000000003</ele>
        <time>2025-05-09T09:17:01Z</time>
      </trkpt>
      <trkpt lat="36.513444995507598" lon="-5.339963994920254">
        <ele>641.34000000000003</ele>
        <time>2025-05-09T09:17:02Z</time>
      </trkpt>
      <trkpt lat="36.513490006327629" lon="-5.339818987995386">
        <ele>641.82000000000005</ele>
        <time>2025-05-09T09:17:03Z</time>
      </trkpt>
      <trkpt lat="36.513562006875873" lon="-5.339687978848815">
        <ele>641.82000000000005</ele>
        <time>2025-05-09T09:17:04Z</time>
      </trkpt>
      <trkpt lat="36.513640964403749" lon="-5.339557975530624">
        <ele>641.82000000000005</ele>
        <time>2025-05-09T09:17:05Z</time>
      </trkpt>
      <trkpt lat="36.513876998797059" lon="-5.339133013039827">
        <ele>642.77999999999997</ele>
        <time>2025-05-09T09:17:08Z</time>
      </trkpt>
      <trkpt lat="36.513942964375019" lon="-5.338977025821805">
        <ele>642.77999999999997</ele>
        <time>2025-05-09T09:17:09Z</time>
      </trkpt>
      <trkpt lat="36.513991998508573" lon="-5.338804023340344">
        <ele>642.77999999999997</ele>
        <time>2025-05-09T09:17:10Z</time>
      </trkpt>
      <trkpt lat="36.514014964923263" lon="-5.338615011423826">
        <ele>642.77999999999997</ele>
        <time>2025-05-09T09:17:11Z</time>
      </trkpt>
      <trkpt lat="36.51402804069221" lon="-5.338433040305972">
        <ele>642.77999999999997</ele>
        <time>2025-05-09T09:17:12Z</time>
      </trkpt>
      <trkpt lat="36.513995015993714" lon="-5.338248973712325">
        <ele>642.77999999999997</ele>
        <time>2025-05-09T09:17:13Z</time>
      </trkpt>
      <trkpt lat="36.513962997123599" lon="-5.338068008422852">
        <ele>642.77999999999997</ele>
        <time>2025-05-09T09:17:14Z</time>
      </trkpt>
      <trkpt lat="36.513894014060497" lon="-5.337890982627869">
        <ele>642.77999999999997</ele>
        <time>2025-05-09T09:17:15Z</time>
      </trkpt>
      <trkpt lat="36.513826958835125" lon="-5.337717980146408">
        <ele>642.77999999999997</ele>
        <time>2025-05-09T09:17:16Z</time>
      </trkpt>
      <trkpt lat="36.513759987428784" lon="-5.337545983493328">
        <ele>642.77999999999997</ele>
        <time>2025-05-09T09:17:17Z</time>
      </trkpt>
      <trkpt lat="36.513340976089239" lon="-5.336459018290043">
        <ele>643.74000000000001</ele>
        <time>2025-05-09T09:17:23Z</time>
      </trkpt>
      <trkpt lat="36.513307029381394" lon="-5.336278975009918">
        <ele>643.74000000000001</ele>
        <time>2025-05-09T09:17:24Z</time>
      </trkpt>
      <trkpt lat="36.513281967490911" lon="-5.336093986406922">
        <ele>644.22000000000003</ele>
        <time>2025-05-09T09:17:25Z</time>
      </trkpt>
      <trkpt lat="36.513324966654181" lon="-5.33591503277421">
        <ele>644.22000000000003</ele>
        <time>2025-05-09T09:17:26Z</time>
      </trkpt>
      <trkpt lat="36.513368971645832" lon="-5.335729960352182">
        <ele>644.22000000000003</ele>
        <time>2025-05-09T09:17:27Z</time>
      </trkpt>
      <trkpt lat="36.513415994122624" lon="-5.335539020597935">
        <ele>644.22000000000003</ele>
        <time>2025-05-09T09:17:28Z</time>
      </trkpt>
      <trkpt lat="36.51347097940743" lon="-5.335346991196275">
        <ele>644.22000000000003</ele>
        <time>2025-05-09T09:17:29Z</time>
      </trkpt>
      <trkpt lat="36.513697039335966" lon="-5.334515003487468">
        <ele>644.22000000000003</ele>
        <time>2025-05-09T09:17:33Z</time>
      </trkpt>
      <trkpt lat="36.513732997700572" lon="-5.334296990185976">
        <ele>643.74000000000001</ele>
        <time>2025-05-09T09:17:34Z</time>
      </trkpt>
      <trkpt lat="36.513845985755324" lon="-5.33370497636497">
        <ele>643.74000000000001</ele>
        <time>2025-05-09T09:17:37Z</time>
      </trkpt>
      <trkpt lat="36.513887979090214" lon="-5.333524011075497">
        <ele>643.74000000000001</ele>
        <time>2025-05-09T09:17:38Z</time>
      </trkpt>
      <trkpt lat="36.513956962153316" lon="-5.333372969180346">
        <ele>643.25999999999999</ele>
        <time>2025-05-09T09:17:39Z</time>
      </trkpt>
      <trkpt lat="36.514063999056816" lon="-5.333253024145961">
        <ele>643.25999999999999</ele>
        <time>2025-05-09T09:17:40Z</time>
      </trkpt>
      <trkpt lat="36.514176987111568" lon="-5.333146993070841">
        <ele>643.74000000000001</ele>
        <time>2025-05-09T09:17:41Z</time>
      </trkpt>
      <trkpt lat="36.514302967116237" lon="-5.333050014451146">
        <ele>643.74000000000001</ele>
        <time>2025-05-09T09:17:42Z</time>
      </trkpt>
      <trkpt lat="36.514442022889853" lon="-5.332976002246141">
        <ele>643.74000000000001</ele>
        <time>2025-05-09T09:17:43Z</time>
      </trkpt>
      <trkpt lat="36.515652034431696" lon="-5.33222297206521">
        <ele>641.82000000000005</ele>
        <time>2025-05-09T09:17:51Z</time>
      </trkpt>
      <trkpt lat="36.516795996576548" lon="-5.331252012401819">
        <ele>640.38</ele>
        <time>2025-05-09T09:17:59Z</time>
      </trkpt>
      <trkpt lat="36.516947960481048" lon="-5.331171965226531">
        <ele>640.38</ele>
        <time>2025-05-09T09:18:00Z</time>
      </trkpt>
      <trkpt lat="36.517392033711076" lon="-5.330937020480633">
        <ele>640.38</ele>
        <time>2025-05-09T09:18:03Z</time>
      </trkpt>
      <trkpt lat="36.517506027594209" lon="-5.33082403242588">
        <ele>640.38</ele>
        <time>2025-05-09T09:18:04Z</time>
      </trkpt>
      <trkpt lat="36.517602000385523" lon="-5.330698974430561">
        <ele>640.38</ele>
        <time>2025-05-09T09:18:05Z</time>
      </trkpt>
      <trkpt lat="36.517666038125753" lon="-5.330538041889668">
        <ele>640.38</ele>
        <time>2025-05-09T09:18:06Z</time>
      </trkpt>
      <trkpt lat="36.517718005925417" lon="-5.330365961417556">
        <ele>640.38</ele>
        <time>2025-05-09T09:18:07Z</time>
      </trkpt>
      <trkpt lat="36.517718005925417" lon="-5.330181978642941">
        <ele>640.38</ele>
        <time>2025-05-09T09:18:08Z</time>
      </trkpt>
      <trkpt lat="36.517718005925417" lon="-5.329997995868325">
        <ele>640.86000000000001</ele>
        <time>2025-05-09T09:18:09Z</time>
      </trkpt>
      <trkpt lat="36.517748013138771" lon="-5.329819964244962">
        <ele>641.34000000000003</ele>
        <time>2025-05-09T09:18:10Z</time>
      </trkpt>
      <trkpt lat="36.517780032008886" lon="-5.329646961763501">
        <ele>641.34000000000003</ele>
        <time>2025-05-09T09:18:11Z</time>
      </trkpt>
      <trkpt lat="36.517867036163807" lon="-5.329488040879369">
        <ele>641.34000000000003</ele>
        <time>2025-05-09T09:18:12Z</time>
      </trkpt>
      <trkpt lat="36.517956973984838" lon="-5.329328030347824">
        <ele>641.34000000000003</ele>
        <time>2025-05-09T09:18:13Z</time>
      </trkpt>
      <trkpt lat="36.518050013110042" lon="-5.329166008159518">
        <ele>640.86000000000001</ele>
        <time>2025-05-09T09:18:14Z</time>
      </trkpt>
      <trkpt lat="36.518141962587833" lon="-5.329004991799593">
        <ele>640.86000000000001</ele>
        <time>2025-05-09T09:18:15Z</time>
      </trkpt>
      <trkpt lat="36.518672034144402" lon="-5.328058004379273">
        <ele>638.45000000000005</ele>
        <time>2025-05-09T09:18:21Z</time>
      </trkpt>
      <trkpt lat="36.518728025257587" lon="-5.327875027433038">
        <ele>637.97000000000003</ele>
        <time>2025-05-09T09:18:22Z</time>
      </trkpt>
      <trkpt lat="36.518784016370773" lon="-5.327691966667771">
        <ele>637.49000000000001</ele>
        <time>2025-05-09T09:18:23Z</time>
      </trkpt>
      <trkpt lat="36.518846964463592" lon="-5.327527010813355">
        <ele>637.49000000000001</ele>
        <time>2025-05-09T09:18:24Z</time>
      </trkpt>
      <trkpt lat="36.518923994153738" lon="-5.327373035252094">
        <ele>637.00999999999999</ele>
        <time>2025-05-09T09:18:25Z</time>
      </trkpt>
      <trkpt lat="36.519000018015504" lon="-5.327221993356943">
        <ele>637.00999999999999</ele>
        <time>2025-05-09T09:18:26Z</time>
      </trkpt>
      <trkpt lat="36.519090961664915" lon="-5.327113028615713">
        <ele>637.00999999999999</ele>
        <time>2025-05-09T09:18:27Z</time>
      </trkpt>
      <trkpt lat="36.519204033538699" lon="-5.327015966176987">
        <ele>636.52999999999997</ele>
        <time>2025-05-09T09:18:28Z</time>
      </trkpt>
      <trkpt lat="36.519308974966407" lon="-5.326926028355956">
        <ele>636.52999999999997</ele>
        <time>2025-05-09T09:18:29Z</time>
      </trkpt>
      <trkpt lat="36.519402014091611" lon="-5.326836006715894">
        <ele>636.04999999999995</ele>
        <time>2025-05-09T09:18:30Z</time>
      </trkpt>
      <trkpt lat="36.519480971619487" lon="-5.326741961762309">
        <ele>635.57000000000005</ele>
        <time>2025-05-09T09:18:31Z</time>
      </trkpt>
      <trkpt lat="36.51954903267324" lon="-5.326651018112898">
        <ele>635.09000000000003</ele>
        <time>2025-05-09T09:18:32Z</time>
      </trkpt>
      <trkpt lat="36.519861007109284" lon="-5.326028997078538">
        <ele>633.16999999999996</ele>
        <time>2025-05-09T09:18:39Z</time>
      </trkpt>
      <trkpt lat="36.519880034029484" lon="-5.325936963781714">
        <ele>632.67999999999995</ele>
        <time>2025-05-09T09:18:40Z</time>
      </trkpt>
      <trkpt lat="36.519899982959032" lon="-5.3258409909904">
        <ele>632.67999999999995</ele>
        <time>2025-05-09T09:18:41Z</time>
      </trkpt>
      <trkpt lat="36.519922027364373" lon="-5.325740994885564">
        <ele>632.67999999999995</ele>
        <time>2025-05-09T09:18:42Z</time>
      </trkpt>
      <trkpt lat="36.519927978515625" lon="-5.325644016265869">
        <ele>632.20000000000005</ele>
        <time>2025-05-09T09:18:43Z</time>
      </trkpt>
      <trkpt lat="36.519938036799431" lon="-5.325207989662886">
        <ele>631.24000000000001</ele>
        <time>2025-05-09T09:18:48Z</time>
      </trkpt>
      <trkpt lat="36.519943987950683" lon="-5.325121991336346">
        <ele>631.24000000000001</ele>
        <time>2025-05-09T09:18:49Z</time>
      </trkpt>
      <trkpt lat="36.519949017092586" lon="-5.325033981353045">
        <ele>631.24000000000001</ele>
        <time>2025-05-09T09:18:50Z</time>
      </trkpt>
      <trkpt lat="36.519991010427475" lon="-5.324945971369743">
        <ele>631.24000000000001</ele>
        <time>2025-05-09T09:18:51Z</time>
      </trkpt>
      <trkpt lat="36.520034009590745" lon="-5.324868019670248">
        <ele>631.24000000000001</ele>
        <time>2025-05-09T09:18:52Z</time>
      </trkpt>
      <trkpt lat="36.520079020410776" lon="-5.324785960838199">
        <ele>630.75999999999999</ele>
        <time>2025-05-09T09:18:53Z</time>
      </trkpt>
      <trkpt lat="36.520456038415432" lon="-5.324046006426215">
        <ele>627.88</ele>
        <time>2025-05-09T09:19:01Z</time>
      </trkpt>
      <trkpt lat="36.520490990951657" lon="-5.323897982016206">
        <ele>627.39999999999998</ele>
        <time>2025-05-09T09:19:02Z</time>
      </trkpt>
      <trkpt lat="36.520525021478534" lon="-5.323752975091338">
        <ele>626.91999999999996</ele>
        <time>2025-05-09T09:19:03Z</time>
      </trkpt>
      <trkpt lat="36.520507000386715" lon="-5.323600005358458">
        <ele>625.96000000000004</ele>
        <time>2025-05-09T09:19:04Z</time>
      </trkpt>
      <trkpt lat="36.520479004830122" lon="-5.323458015918732">
        <ele>625.47000000000003</ele>
        <time>2025-05-09T09:19:05Z</time>
      </trkpt>
      <trkpt lat="36.520422007888556" lon="-5.323320971801877">
        <ele>624.99000000000001</ele>
        <time>2025-05-09T09:19:06Z</time>
      </trkpt>
      <trkpt lat="36.520362999290228" lon="-5.323177976533771">
        <ele>624.50999999999999</ele>
        <time>2025-05-09T09:19:07Z</time>
      </trkpt>
      <trkpt lat="36.520312037318945" lon="-5.323032969608903">
        <ele>624.02999999999997</ele>
        <time>2025-05-09T09:19:08Z</time>
      </trkpt>
      <trkpt lat="36.520271971821785" lon="-5.322886034846306">
        <ele>623.54999999999995</ele>
        <time>2025-05-09T09:19:09Z</time>
      </trkpt>
      <trkpt lat="36.520271971821785" lon="-5.322733987122774">
        <ele>623.07000000000005</ele>
        <time>2025-05-09T09:19:10Z</time>
      </trkpt>
      <trkpt lat="36.520271971821785" lon="-5.322582023218274">
        <ele>622.59000000000003</ele>
        <time>2025-05-09T09:19:11Z</time>
      </trkpt>
      <trkpt lat="36.520289992913604" lon="-5.322429975494742">
        <ele>621.63</ele>
        <time>2025-05-09T09:19:12Z</time>
      </trkpt>
      <trkpt lat="36.520352018997073" lon="-5.3222940210253">
        <ele>621.14999999999998</ele>
        <time>2025-05-09T09:19:13Z</time>
      </trkpt>
      <trkpt lat="36.520418990403414" lon="-5.322163011878729">
        <ele>620.66999999999996</ele>
        <time>2025-05-09T09:19:14Z</time>
      </trkpt>
      <trkpt lat="36.520505994558334" lon="-5.32203895971179">
        <ele>619.71000000000004</ele>
        <time>2025-05-09T09:19:15Z</time>
      </trkpt>
      <trkpt lat="36.52060498483479" lon="-5.321932006627321">
        <ele>619.71000000000004</ele>
        <time>2025-05-09T09:19:16Z</time>
      </trkpt>
      <trkpt lat="36.520719984546304" lon="-5.32184299081564">
        <ele>619.23000000000002</ele>
        <time>2025-05-09T09:19:17Z</time>
      </trkpt>
      <trkpt lat="36.521061966195703" lon="-5.321570998057723">
        <ele>617.77999999999997</ele>
        <time>2025-05-09T09:19:20Z</time>
      </trkpt>
      <trkpt lat="36.521116029471159" lon="-5.321425991132855">
        <ele>616.82000000000005</ele>
        <time>2025-05-09T09:19:21Z</time>
      </trkpt>
      <trkpt lat="36.52116296812892" lon="-5.321292970329523">
        <ele>616.34000000000003</ele>
        <time>2025-05-09T09:19:22Z</time>
      </trkpt>
      <trkpt lat="36.521156011149287" lon="-5.321161961182952">
        <ele>615.86000000000001</ele>
        <time>2025-05-09T09:19:23Z</time>
      </trkpt>
      <trkpt lat="36.521132038906217" lon="-5.321020977571607">
        <ele>614.89999999999998</ele>
        <time>2025-05-09T09:19:24Z</time>
      </trkpt>
      <trkpt lat="36.521105971187353" lon="-5.320873036980629">
        <ele>614.41999999999996</ele>
        <time>2025-05-09T09:19:25Z</time>
      </trkpt>
      <trkpt lat="36.521058026701212" lon="-5.320724006742239">
        <ele>613.94000000000005</ele>
        <time>2025-05-09T09:19:26Z</time>
      </trkpt>
      <trkpt lat="36.521017039194703" lon="-5.320568019524217">
        <ele>613.94000000000005</ele>
        <time>2025-05-09T09:19:27Z</time>
      </trkpt>
      <trkpt lat="36.520982002839446" lon="-5.320399040356278">
        <ele>613.46000000000004</ele>
        <time>2025-05-09T09:19:28Z</time>
      </trkpt>
      <trkpt lat="36.520993988960981" lon="-5.320227965712547">
        <ele>612.98000000000002</ele>
        <time>2025-05-09T09:19:29Z</time>
      </trkpt>
      <trkpt lat="36.521015027537942" lon="-5.320053035393357">
        <ele>612.01999999999998</ele>
        <time>2025-05-09T09:19:30Z</time>
      </trkpt>
      <trkpt lat="36.521046040579677" lon="-5.319878021255136">
        <ele>611.53999999999996</ele>
        <time>2025-05-09T09:19:31Z</time>
      </trkpt>
      <trkpt lat="36.52107696980238" lon="-5.319704012945294">
        <ele>611.05999999999995</ele>
        <time>2025-05-09T09:19:32Z</time>
      </trkpt>
      <trkpt lat="36.521106977015734" lon="-5.319536039605737">
        <ele>610.57000000000005</ele>
        <time>2025-05-09T09:19:33Z</time>
      </trkpt>
      <trkpt lat="36.521066995337605" lon="-5.319377034902573">
        <ele>609.61000000000001</ele>
        <time>2025-05-09T09:19:34Z</time>
      </trkpt>
      <trkpt lat="36.521022990345955" lon="-5.319219036027789">
        <ele>609.13</ele>
        <time>2025-05-09T09:19:35Z</time>
      </trkpt>
      <trkpt lat="36.520980997011065" lon="-5.319064976647496">
        <ele>608.64999999999998</ele>
        <time>2025-05-09T09:19:36Z</time>
      </trkpt>
      <trkpt lat="36.520940009504557" lon="-5.318916030228138">
        <ele>608.16999999999996</ele>
        <time>2025-05-09T09:19:37Z</time>
      </trkpt>
      <trkpt lat="36.520859962329268" lon="-5.318802036345005">
        <ele>607.69000000000005</ele>
        <time>2025-05-09T09:19:38Z</time>
      </trkpt>
      <trkpt lat="36.520778993144631" lon="-5.318690976127982">
        <ele>607.21000000000004</ele>
        <time>2025-05-09T09:19:39Z</time>
      </trkpt>
      <trkpt lat="36.520699029788375" lon="-5.318583017215133">
        <ele>607.21000000000004</ele>
        <time>2025-05-09T09:19:40Z</time>
      </trkpt>
      <trkpt lat="36.520606996491551" lon="-5.318503975868225">
        <ele>606.73000000000002</ele>
        <time>2025-05-09T09:19:41Z</time>
      </trkpt>
      <trkpt lat="36.520519992336631" lon="-5.318429041653872">
        <ele>606.25</ele>
        <time>2025-05-09T09:19:42Z</time>
      </trkpt>
      <trkpt lat="36.520439023151994" lon="-5.318359974771738">
        <ele>605.76999999999998</ele>
        <time>2025-05-09T09:19:43Z</time>
      </trkpt>
      <trkpt lat="36.520374985411763" lon="-5.318294009193778">
        <ele>605.76999999999998</ele>
        <time>2025-05-09T09:19:44Z</time>
      </trkpt>
      <trkpt lat="36.520314970985055" lon="-5.318217985332012">
        <ele>605.76999999999998</ele>
        <time>2025-05-09T09:19:45Z</time>
      </trkpt>
      <trkpt lat="36.520256968215108" lon="-5.318143973127008">
        <ele>605.28999999999996</ele>
        <time>2025-05-09T09:19:46Z</time>
      </trkpt>
      <trkpt lat="36.520202988758683" lon="-5.318075995892286">
        <ele>605.28999999999996</ele>
        <time>2025-05-09T09:19:47Z</time>
      </trkpt>
      <trkpt lat="36.5201520267874" lon="-5.31799896620214">
        <ele>605.28999999999996</ele>
        <time>2025-05-09T09:19:48Z</time>
      </trkpt>
      <trkpt lat="36.52002302929759" lon="-5.317738959565759">
        <ele>605.28999999999996</ele>
        <time>2025-05-09T09:19:51Z</time>
      </trkpt>
      <trkpt lat="36.51998003013432" lon="-5.317656984552741">
        <ele>605.28999999999996</ele>
        <time>2025-05-09T09:19:52Z</time>
      </trkpt>
      <trkpt lat="36.519966032356024" lon="-5.317581966519356">
        <ele>604.80999999999995</ele>
        <time>2025-05-09T09:19:53Z</time>
      </trkpt>
      <trkpt lat="36.519957985728979" lon="-5.3174829762429">
        <ele>604.80999999999995</ele>
        <time>2025-05-09T09:19:54Z</time>
      </trkpt>
      <trkpt lat="36.519950022920966" lon="-5.317382980138063">
        <ele>604.33000000000004</ele>
        <time>2025-05-09T09:19:55Z</time>
      </trkpt>
      <trkpt lat="36.51995999738574" lon="-5.317277032881975">
        <ele>604.33000000000004</ele>
        <time>2025-05-09T09:19:56Z</time>
      </trkpt>
      <trkpt lat="36.519969971850514" lon="-5.317163961008191">
        <ele>604.33000000000004</ele>
        <time>2025-05-09T09:19:57Z</time>
      </trkpt>
      <trkpt lat="36.520018000155687" lon="-5.317078968510032">
        <ele>603.85000000000002</ele>
        <time>2025-05-09T09:19:58Z</time>
      </trkpt>
      <trkpt lat="36.520076002925634" lon="-5.316994981840253">
        <ele>603.85000000000002</ele>
        <time>2025-05-09T09:19:59Z</time>
      </trkpt>
      <trkpt lat="36.520136017352343" lon="-5.316908983513713">
        <ele>603.85000000000002</ele>
        <time>2025-05-09T09:20:00Z</time>
      </trkpt>
      <trkpt lat="36.520212963223457" lon="-5.316842012107372">
        <ele>603.36000000000001</ele>
        <time>2025-05-09T09:20:01Z</time>
      </trkpt>
      <trkpt lat="36.520298961549997" lon="-5.31679498963058">
        <ele>603.36000000000001</ele>
        <time>2025-05-09T09:20:02Z</time>
      </trkpt>
      <trkpt lat="36.520470958203077" lon="-5.316706979647279">
        <ele>604.33000000000004</ele>
        <time>2025-05-09T09:20:04Z</time>
      </trkpt>
      <trkpt lat="36.52112097479403" lon="-5.316469017416239">
        <ele>606.73000000000002</ele>
        <time>2025-05-09T09:20:11Z</time>
      </trkpt>
      <trkpt lat="36.521309986710548" lon="-5.31642802990973">
        <ele>607.69000000000005</ele>
        <time>2025-05-09T09:20:13Z</time>
      </trkpt>
      <trkpt lat="36.521498998627067" lon="-5.316386036574841">
        <ele>608.16999999999996</ele>
        <time>2025-05-09T09:20:15Z</time>
      </trkpt>
      <trkpt lat="36.521597988903522" lon="-5.316362986341119">
        <ele>608.64999999999998</ele>
        <time>2025-05-09T09:20:16Z</time>
      </trkpt>
      <trkpt lat="36.521685998886824" lon="-5.316300038248301">
        <ele>608.64999999999998</ele>
        <time>2025-05-09T09:20:17Z</time>
      </trkpt>
      <trkpt lat="36.521759005263448" lon="-5.316206999123097">
        <ele>608.64999999999998</ele>
        <time>2025-05-09T09:20:18Z</time>
      </trkpt>
      <trkpt lat="36.521834023296833" lon="-5.316109014675021">
        <ele>609.13</ele>
        <time>2025-05-09T09:20:19Z</time>
      </trkpt>
      <trkpt lat="36.521911974996328" lon="-5.316009018570185">
        <ele>609.61000000000001</ele>
        <time>2025-05-09T09:20:20Z</time>
      </trkpt>
      <trkpt lat="36.521989004686475" lon="-5.315910028293729">
        <ele>609.61000000000001</ele>
        <time>2025-05-09T09:20:21Z</time>
      </trkpt>
      <trkpt lat="36.522066034376621" lon="-5.315811038017273">
        <ele>610.09000000000003</ele>
        <time>2025-05-09T09:20:22Z</time>
      </trkpt>
      <trkpt lat="36.522142980247736" lon="-5.315712969750166">
        <ele>610.57000000000005</ele>
        <time>2025-05-09T09:20:23Z</time>
      </trkpt>
      <trkpt lat="36.522245993837714" lon="-5.315580032765865">
        <ele>611.05999999999995</ele>
        <time>2025-05-09T09:20:24Z</time>
      </trkpt>
      <trkpt lat="36.522314976900816" lon="-5.315541978925467">
        <ele>611.05999999999995</ele>
        <time>2025-05-09T09:20:25Z</time>
      </trkpt>
      <trkpt lat="36.522424025461078" lon="-5.315481964498758">
        <ele>611.53999999999996</ele>
        <time>2025-05-09T09:20:26Z</time>
      </trkpt>
      <trkpt lat="36.522541036829352" lon="-5.315436031669378">
        <ele>611.53999999999996</ele>
        <time>2025-05-09T09:20:27Z</time>
      </trkpt>
      <trkpt lat="36.523216031491756" lon="-5.315135037526488">
        <ele>612.98000000000002</ele>
        <time>2025-05-09T09:20:33Z</time>
      </trkpt>
      <trkpt lat="36.523315021768212" lon="-5.315049961209297">
        <ele>612.98000000000002</ele>
        <time>2025-05-09T09:20:34Z</time>
      </trkpt>
      <trkpt lat="36.523414012044668" lon="-5.314965974539518">
        <ele>612.98000000000002</ele>
        <time>2025-05-09T09:20:35Z</time>
      </trkpt>
      <trkpt lat="36.523493975400925" lon="-5.31486002728343">
        <ele>613.46000000000004</ele>
        <time>2025-05-09T09:20:36Z</time>
      </trkpt>
      <trkpt lat="36.523563964292407" lon="-5.314737986773253">
        <ele>613.94000000000005</ele>
        <time>2025-05-09T09:20:37Z</time>
      </trkpt>
      <trkpt lat="36.524497037753463" lon="-5.313240978866816">
        <ele>615.86000000000001</ele>
        <time>2025-05-09T09:20:49Z</time>
      </trkpt>
      <trkpt lat="36.525349980220199" lon="-5.312447967007756">
        <ele>620.66999999999996</ele>
        <time>2025-05-09T09:20:57Z</time>
      </trkpt>
      <trkpt lat="36.525446958839893" lon="-5.312303965911269">
        <ele>621.63</ele>
        <time>2025-05-09T09:20:58Z</time>
      </trkpt>
      <trkpt lat="36.525548966601491" lon="-5.31215401366353">
        <ele>622.59000000000003</ele>
        <time>2025-05-09T09:20:59Z</time>
      </trkpt>
      <trkpt lat="36.525887008756399" lon="-5.31170298345387">
        <ele>625.96000000000004</ele>
        <time>2025-05-09T09:21:02Z</time>
      </trkpt>
      <trkpt lat="36.526019023731351" lon="-5.311588989570737">
        <ele>626.91999999999996</ele>
        <time>2025-05-09T09:21:03Z</time>
      </trkpt>
      <trkpt lat="36.52616897597909" lon="-5.311507014557719">
        <ele>628.36000000000001</ele>
        <time>2025-05-09T09:21:04Z</time>
      </trkpt>
      <trkpt lat="36.527101965621114" lon="-5.310979038476944">
        <ele>637.49000000000001</ele>
        <time>2025-05-09T09:21:10Z</time>
      </trkpt>
      <trkpt lat="36.527227023616433" lon="-5.310844006016851">
        <ele>638.45000000000005</ele>
        <time>2025-05-09T09:21:11Z</time>
      </trkpt>
      <trkpt lat="36.527345040813088" lon="-5.310706039890647">
        <ele>639.88999999999999</ele>
        <time>2025-05-09T09:21:12Z</time>
      </trkpt>
      <trkpt lat="36.527434978634119" lon="-5.310538988560438">
        <ele>641.34000000000003</ele>
        <time>2025-05-09T09:21:13Z</time>
      </trkpt>
      <trkpt lat="36.527520976960659" lon="-5.310380989685655">
        <ele>642.29999999999995</ele>
        <time>2025-05-09T09:21:14Z</time>
      </trkpt>
      <trkpt lat="36.527609992772341" lon="-5.310216033831239">
        <ele>643.25999999999999</ele>
        <time>2025-05-09T09:21:15Z</time>
      </trkpt>
      <trkpt lat="36.527720969170332" lon="-5.310119977220893">
        <ele>644.70000000000005</ele>
        <time>2025-05-09T09:21:16Z</time>
      </trkpt>
      <trkpt lat="36.527859019115567" lon="-5.310031967237592">
        <ele>645.65999999999997</ele>
        <time>2025-05-09T09:21:17Z</time>
      </trkpt>
      <trkpt lat="36.528010983020067" lon="-5.30996298417449">
        <ele>647.10000000000002</ele>
        <time>2025-05-09T09:21:18Z</time>
      </trkpt>
      <trkpt lat="36.52816403657198" lon="-5.309895006939769">
        <ele>648.54999999999995</ele>
        <time>2025-05-09T09:21:19Z</time>
      </trkpt>
      <trkpt lat="36.528310971334577" lon="-5.309829041361809">
        <ele>649.99000000000001</ele>
        <time>2025-05-09T09:21:20Z</time>
      </trkpt>
      <trkpt lat="36.528437035158277" lon="-5.309736002236605">
        <ele>650.95000000000005</ele>
        <time>2025-05-09T09:21:21Z</time>
      </trkpt>
      <trkpt lat="36.52853200212121" lon="-5.309592001140118">
        <ele>652.38999999999999</ele>
        <time>2025-05-09T09:21:22Z</time>
      </trkpt>
      <trkpt lat="36.528633004054427" lon="-5.309439031407237">
        <ele>653.83000000000004</ele>
        <time>2025-05-09T09:21:23Z</time>
      </trkpt>
      <trkpt lat="36.528736017644405" lon="-5.309281032532454">
        <ele>655.27999999999997</ele>
        <time>2025-05-09T09:21:24Z</time>
      </trkpt>
      <trkpt lat="36.528855040669441" lon="-5.309099983423948">
        <ele>656.24000000000001</ele>
        <time>2025-05-09T09:21:25Z</time>
      </trkpt>
      <trkpt lat="36.528976997360587" lon="-5.308978026732802">
        <ele>657.67999999999995</ele>
        <time>2025-05-09T09:21:26Z</time>
      </trkpt>
      <trkpt lat="36.529115969315171" lon="-5.308838970959187">
        <ele>659.12</ele>
        <time>2025-05-09T09:21:27Z</time>
      </trkpt>
      <trkpt lat="36.529257958754897" lon="-5.308697987347841">
        <ele>660.08000000000004</ele>
        <time>2025-05-09T09:21:28Z</time>
      </trkpt>
      <trkpt lat="36.529400032013655" lon="-5.308550968766213">
        <ele>661.51999999999998</ele>
        <time>2025-05-09T09:21:29Z</time>
      </trkpt>
      <trkpt lat="36.529518971219659" lon="-5.308370003476739">
        <ele>662.97000000000003</ele>
        <time>2025-05-09T09:21:30Z</time>
      </trkpt>
      <trkpt lat="36.529925996437669" lon="-5.307750999927521">
        <ele>669.22000000000003</ele>
        <time>2025-05-09T09:21:34Z</time>
      </trkpt>
      <trkpt lat="36.530063040554523" lon="-5.307691991329193">
        <ele>670.65999999999997</ele>
        <time>2025-05-09T09:21:35Z</time>
      </trkpt>
      <trkpt lat="36.530211986973882" lon="-5.307628959417343">
        <ele>672.10000000000002</ele>
        <time>2025-05-09T09:21:36Z</time>
      </trkpt>
      <trkpt lat="36.530534019693732" lon="-5.307494010776281">
        <ele>674.98000000000002</ele>
        <time>2025-05-09T09:21:38Z</time>
      </trkpt>
      <trkpt lat="36.530684977769852" lon="-5.307393008843064">
        <ele>676.41999999999996</ele>
        <time>2025-05-09T09:21:39Z</time>
      </trkpt>
      <trkpt lat="36.530825961381197" lon="-5.307274991646409">
        <ele>677.87</ele>
        <time>2025-05-09T09:21:40Z</time>
      </trkpt>
      <trkpt lat="36.530953031033278" lon="-5.3071269672364">
        <ele>679.30999999999995</ele>
        <time>2025-05-09T09:21:41Z</time>
      </trkpt>
      <trkpt lat="36.531079011037946" lon="-5.306969974189997">
        <ele>680.75</ele>
        <time>2025-05-09T09:21:42Z</time>
      </trkpt>
      <trkpt lat="36.531184958294034" lon="-5.306795965880156">
        <ele>682.19000000000005</ele>
        <time>2025-05-09T09:21:43Z</time>
      </trkpt>
      <trkpt lat="36.531285960227251" lon="-5.306617012247443">
        <ele>683.63</ele>
        <time>2025-05-09T09:21:44Z</time>
      </trkpt>
      <trkpt lat="36.531356032937765" lon="-5.306424982845783">
        <ele>685.08000000000004</ele>
        <time>2025-05-09T09:21:45Z</time>
      </trkpt>
      <trkpt lat="36.531376987695694" lon="-5.306227002292872">
        <ele>686.51999999999998</ele>
        <time>2025-05-09T09:21:46Z</time>
      </trkpt>
      <trkpt lat="36.531377993524075" lon="-5.306042013689876">
        <ele>687.96000000000004</ele>
        <time>2025-05-09T09:21:47Z</time>
      </trkpt>
      <trkpt lat="36.531331976875663" lon="-5.305862976238132">
        <ele>689.39999999999998</ele>
        <time>2025-05-09T09:21:48Z</time>
      </trkpt>
      <trkpt lat="36.531284032389522" lon="-5.305679999291897">
        <ele>690.84000000000003</ele>
        <time>2025-05-09T09:21:49Z</time>
      </trkpt>
      <trkpt lat="36.531237009912729" lon="-5.305495010688901">
        <ele>691.80999999999995</ele>
        <time>2025-05-09T09:21:50Z</time>
      </trkpt>
      <trkpt lat="36.531214965507388" lon="-5.30530197545886">
        <ele>692.76999999999998</ele>
        <time>2025-05-09T09:21:51Z</time>
      </trkpt>
      <trkpt lat="36.531252013519406" lon="-5.305101983249188">
        <ele>693.73000000000002</ele>
        <time>2025-05-09T09:21:52Z</time>
      </trkpt>
      <trkpt lat="36.531289983540773" lon="-5.30489101074636">
        <ele>695.16999999999996</ele>
        <time>2025-05-09T09:21:53Z</time>
      </trkpt>
      <trkpt lat="36.531388973817229" lon="-5.304508963599801">
        <ele>697.57000000000005</ele>
        <time>2025-05-09T09:21:55Z</time>
      </trkpt>
      <trkpt lat="36.531472038477659" lon="-5.304352976381779">
        <ele>699.01999999999998</ele>
        <time>2025-05-09T09:21:56Z</time>
      </trkpt>
      <trkpt lat="36.531557030975819" lon="-5.304219033569098">
        <ele>699.98000000000002</ele>
        <time>2025-05-09T09:21:57Z</time>
      </trkpt>
      <trkpt lat="36.531694997102022" lon="-5.304146027192473">
        <ele>700.94000000000005</ele>
        <time>2025-05-09T09:21:58Z</time>
      </trkpt>
      <trkpt lat="36.53184100985527" lon="-5.304067991673946">
        <ele>701.89999999999998</ele>
        <time>2025-05-09T09:21:59Z</time>
      </trkpt>
      <trkpt lat="36.531995991244912" lon="-5.303986016660929">
        <ele>703.34000000000003</ele>
        <time>2025-05-09T09:22:00Z</time>
      </trkpt>
      <trkpt lat="36.532145021483302" lon="-5.303905969485641">
        <ele>704.29999999999995</ele>
        <time>2025-05-09T09:22:01Z</time>
      </trkpt>
      <trkpt lat="36.532266978174448" lon="-5.303811002522707">
        <ele>705.25999999999999</ele>
        <time>2025-05-09T09:22:02Z</time>
      </trkpt>
      <trkpt lat="36.532368985936046" lon="-5.3036870341748">
        <ele>706.23000000000002</ele>
        <time>2025-05-09T09:22:03Z</time>
      </trkpt>
      <trkpt lat="36.532461019232869" lon="-5.303573962301016">
        <ele>707.19000000000005</ele>
        <time>2025-05-09T09:22:04Z</time>
      </trkpt>
      <trkpt lat="36.532547017559409" lon="-5.303469020873308">
        <ele>708.63</ele>
        <time>2025-05-09T09:22:05Z</time>
      </trkpt>
      <trkpt lat="36.532633015885949" lon="-5.303380005061626">
        <ele>709.59000000000003</ele>
        <time>2025-05-09T09:22:06Z</time>
      </trkpt>
      <trkpt lat="36.532738041132689" lon="-5.303318984806538">
        <ele>710.54999999999995</ele>
        <time>2025-05-09T09:22:07Z</time>
      </trkpt>
      <trkpt lat="36.532852035015821" lon="-5.30328000895679">
        <ele>711.50999999999999</ele>
        <time>2025-05-09T09:22:08Z</time>
      </trkpt>
      <trkpt lat="36.532982960343361" lon="-5.303242960944772">
        <ele>712.95000000000005</ele>
        <time>2025-05-09T09:22:09Z</time>
      </trkpt>
      <trkpt lat="36.533122016116977" lon="-5.303202979266644">
        <ele>713.44000000000005</ele>
        <time>2025-05-09T09:22:10Z</time>
      </trkpt>
      <trkpt lat="36.533256964758039" lon="-5.303165009245277">
        <ele>714.39999999999998</ele>
        <time>2025-05-09T09:22:11Z</time>
      </trkpt>
      <trkpt lat="36.533360984176397" lon="-5.303135002031922">
        <ele>715.36000000000001</ele>
        <time>2025-05-09T09:22:12Z</time>
      </trkpt>
      <trkpt lat="36.533476989716291" lon="-5.303031988441944">
        <ele>716.32000000000005</ele>
        <time>2025-05-09T09:22:13Z</time>
      </trkpt>
      <trkpt lat="36.533566005527973" lon="-5.302941966801882">
        <ele>717.27999999999997</ele>
        <time>2025-05-09T09:22:14Z</time>
      </trkpt>
      <trkpt lat="36.533633982762694" lon="-5.302819004282355">
        <ele>718.24000000000001</ele>
        <time>2025-05-09T09:22:15Z</time>
      </trkpt>
      <trkpt lat="36.533697014674544" lon="-5.302681960165501">
        <ele>719.67999999999995</ele>
        <time>2025-05-09T09:22:16Z</time>
      </trkpt>
      <trkpt lat="36.533754011616111" lon="-5.302531002089381">
        <ele>720.64999999999998</ele>
        <time>2025-05-09T09:22:17Z</time>
      </trkpt>
      <trkpt lat="36.533992979675531" lon="-5.301870005205274">
        <ele>724.97000000000003</ele>
        <time>2025-05-09T09:22:22Z</time>
      </trkpt>
      <trkpt lat="36.534043019637465" lon="-5.301756011322141">
        <ele>726.40999999999997</ele>
        <time>2025-05-09T09:22:23Z</time>
      </trkpt>
      <trkpt lat="36.53409699909389" lon="-5.301670012995601">
        <ele>727.37</ele>
        <time>2025-05-09T09:22:24Z</time>
      </trkpt>
      <trkpt lat="36.534168999642134" lon="-5.301597006618977">
        <ele>728.34000000000003</ele>
        <time>2025-05-09T09:22:25Z</time>
      </trkpt>
      <trkpt lat="36.534262038767338" lon="-5.301503967493773">
        <ele>729.29999999999995</ele>
        <time>2025-05-09T09:22:26Z</time>
      </trkpt>
      <trkpt lat="36.534326998516917" lon="-5.301498016342521">
        <ele>730.25999999999999</ele>
        <time>2025-05-09T09:22:27Z</time>
      </trkpt>
      <trkpt lat="36.534428000450134" lon="-5.301488963887096">
        <ele>731.22000000000003</ele>
        <time>2025-05-09T09:22:28Z</time>
      </trkpt>
      <trkpt lat="36.534524979069829" lon="-5.301501033827663">
        <ele>732.17999999999995</ele>
        <time>2025-05-09T09:22:29Z</time>
      </trkpt>
      <trkpt lat="36.534630004316568" lon="-5.301571022719145">
        <ele>733.13999999999999</ele>
        <time>2025-05-09T09:22:30Z</time>
      </trkpt>
      <trkpt lat="36.534755984321237" lon="-5.301654003560543">
        <ele>734.10000000000002</ele>
        <time>2025-05-09T09:22:31Z</time>
      </trkpt>
      <trkpt lat="36.534849023446441" lon="-5.301747964695096">
        <ele>735.07000000000005</ele>
        <time>2025-05-09T09:22:32Z</time>
      </trkpt>
      <trkpt lat="36.534949019551277" lon="-5.301847960799933">
        <ele>736.50999999999999</ele>
        <time>2025-05-09T09:22:33Z</time>
      </trkpt>
      <trkpt lat="36.535093020647764" lon="-5.301895989105105">
        <ele>736.99000000000001</ele>
        <time>2025-05-09T09:22:34Z</time>
      </trkpt>
      <trkpt lat="36.535226963460445" lon="-5.30190302990377">
        <ele>737.95000000000005</ele>
        <time>2025-05-09T09:22:35Z</time>
      </trkpt>
      <trkpt lat="36.535356966778636" lon="-5.301879979670048">
        <ele>738.90999999999997</ele>
        <time>2025-05-09T09:22:36Z</time>
      </trkpt>
      <trkpt lat="36.535480013117194" lon="-5.301824994385243">
        <ele>739.87</ele>
        <time>2025-05-09T09:22:37Z</time>
      </trkpt>
      <trkpt lat="36.535604987293482" lon="-5.301765985786915">
        <ele>740.83000000000004</ele>
        <time>2025-05-09T09:22:38Z</time>
      </trkpt>
      <trkpt lat="36.535733984783292" lon="-5.301702031865716">
        <ele>741.78999999999996</ele>
        <time>2025-05-09T09:22:39Z</time>
      </trkpt>
      <trkpt lat="36.535863988101482" lon="-5.301636988297105">
        <ele>743.24000000000001</ele>
        <time>2025-05-09T09:22:40Z</time>
      </trkpt>
      <trkpt lat="36.536002960056067" lon="-5.301611004397273">
        <ele>744.20000000000005</ele>
        <time>2025-05-09T09:22:41Z</time>
      </trkpt>
      <trkpt lat="36.536145033314824" lon="-5.301611004397273">
        <ele>745.15999999999997</ele>
        <time>2025-05-09T09:22:42Z</time>
      </trkpt>
      <trkpt lat="36.536301020532846" lon="-5.301611004397273">
        <ele>746.12</ele>
        <time>2025-05-09T09:22:43Z</time>
      </trkpt>
      <trkpt lat="36.536420965567231" lon="-5.301650986075401">
        <ele>747.08000000000004</ele>
        <time>2025-05-09T09:22:44Z</time>
      </trkpt>
      <trkpt lat="36.536801001057029" lon="-5.301709994673729">
        <ele>749.97000000000003</ele>
        <time>2025-05-09T09:22:47Z</time>
      </trkpt>
      <trkpt lat="36.537037035450339" lon="-5.301698008552194">
        <ele>751.88999999999999</ele>
        <time>2025-05-09T09:22:49Z</time>
      </trkpt>
      <trkpt lat="36.537154968827963" lon="-5.301650986075401">
        <ele>753.33000000000004</ele>
        <time>2025-05-09T09:22:50Z</time>
      </trkpt>
      <trkpt lat="36.53828602284193" lon="-5.301280003041029">
        <ele>762.94000000000005</ele>
        <time>2025-05-09T09:22:58Z</time>
      </trkpt>
      <trkpt lat="36.53843698091805" lon="-5.301243038848043">
        <ele>764.38999999999999</ele>
        <time>2025-05-09T09:22:59Z</time>
      </trkpt>
      <trkpt lat="36.538896979764104" lon="-5.301289977505803">
        <ele>768.23000000000002</ele>
        <time>2025-05-09T09:23:02Z</time>
      </trkpt>
      <trkpt lat="36.539010973647237" lon="-5.301372036337853">
        <ele>769.66999999999996</ele>
        <time>2025-05-09T09:23:03Z</time>
      </trkpt>
      <trkpt lat="36.539133014157414" lon="-5.301460968330503">
        <ele>771.11000000000001</ele>
        <time>2025-05-09T09:23:04Z</time>
      </trkpt>
      <trkpt lat="36.539463009685278" lon="-5.30181803740561">
        <ele>774.48000000000002</ele>
        <time>2025-05-09T09:23:07Z</time>
      </trkpt>
      <trkpt lat="36.539580021053553" lon="-5.301944017410278">
        <ele>775.44000000000005</ele>
        <time>2025-05-09T09:23:08Z</time>
      </trkpt>
      <trkpt lat="36.540058040991426" lon="-5.302397981286049">
        <ele>780.73000000000002</ele>
        <time>2025-05-09T09:23:12Z</time>
      </trkpt>
      <trkpt lat="36.540201036259532" lon="-5.302483979612589">
        <ele>782.64999999999998</ele>
        <time>2025-05-09T09:23:13Z</time>
      </trkpt>
      <trkpt lat="36.54034998267889" lon="-5.3025490231812">
        <ele>784.57000000000005</ele>
        <time>2025-05-09T09:23:14Z</time>
      </trkpt>
      <trkpt lat="36.540512004867196" lon="-5.302607025951147">
        <ele>786.01999999999998</ele>
        <time>2025-05-09T09:23:15Z</time>
      </trkpt>
      <trkpt lat="36.540673021227121" lon="-5.302664022892714">
        <ele>786.98000000000002</ele>
        <time>2025-05-09T09:23:16Z</time>
      </trkpt>
      <trkpt lat="36.54099203646183" lon="-5.302736023440957">
        <ele>790.34000000000003</ele>
        <time>2025-05-09T09:23:18Z</time>
      </trkpt>
      <trkpt lat="36.541154980659485" lon="-5.302744992077351">
        <ele>791.77999999999997</ele>
        <time>2025-05-09T09:23:19Z</time>
      </trkpt>
      <trkpt lat="36.541321026161313" lon="-5.302718002349138">
        <ele>792.74000000000001</ele>
        <time>2025-05-09T09:23:20Z</time>
      </trkpt>
      <trkpt lat="36.541471984237432" lon="-5.302640972658992">
        <ele>794.19000000000005</ele>
        <time>2025-05-09T09:23:21Z</time>
      </trkpt>
      <trkpt lat="36.541617996990681" lon="-5.302553968504071">
        <ele>795.14999999999998</ele>
        <time>2025-05-09T09:23:22Z</time>
      </trkpt>
      <trkpt lat="36.541765015572309" lon="-5.30246595852077">
        <ele>795.63</ele>
        <time>2025-05-09T09:23:23Z</time>
      </trkpt>
      <trkpt lat="36.541897030547261" lon="-5.302318017929792">
        <ele>796.59000000000003</ele>
        <time>2025-05-09T09:23:24Z</time>
      </trkpt>
      <trkpt lat="36.542015969753265" lon="-5.302166976034641">
        <ele>797.54999999999995</ele>
        <time>2025-05-09T09:23:25Z</time>
      </trkpt>
      <trkpt lat="36.542128035798669" lon="-5.302023980766535">
        <ele>798.02999999999997</ele>
        <time>2025-05-09T09:23:26Z</time>
      </trkpt>
      <trkpt lat="36.543166972696781" lon="-5.300621017813683">
        <ele>798.99000000000001</ele>
        <time>2025-05-09T09:23:36Z</time>
      </trkpt>
      <trkpt lat="36.543705007061362" lon="-5.300078960135579">
        <ele>797.07000000000005</ele>
        <time>2025-05-09T09:23:40Z</time>
      </trkpt>
      <trkpt lat="36.544015975669026" lon="-5.299836974591017">
        <ele>796.11000000000001</ele>
        <time>2025-05-09T09:23:42Z</time>
      </trkpt>
      <trkpt lat="36.54526898637414" lon="-5.299335988238454">
        <ele>796.11000000000001</ele>
        <time>2025-05-09T09:23:49Z</time>
      </trkpt>
      <trkpt lat="36.546098040416837" lon="-5.298907002434135">
        <ele>795.63</ele>
        <time>2025-05-09T09:23:54Z</time>
      </trkpt>
      <trkpt lat="36.546702962368727" lon="-5.298464018851519">
        <ele>796.11000000000001</ele>
        <time>2025-05-09T09:23:58Z</time>
      </trkpt>
      <trkpt lat="36.546856015920639" lon="-5.298392018303275">
        <ele>796.11000000000001</ele>
        <time>2025-05-09T09:23:59Z</time>
      </trkpt>
      <trkpt lat="36.547015020623803" lon="-5.298356981948018">
        <ele>796.11000000000001</ele>
        <time>2025-05-09T09:24:00Z</time>
      </trkpt>
      <trkpt lat="36.547175031155348" lon="-5.29833703301847">
        <ele>796.11000000000001</ele>
        <time>2025-05-09T09:24:01Z</time>
      </trkpt>
      <trkpt lat="36.54733001254499" lon="-5.29833703301847">
        <ele>796.11000000000001</ele>
        <time>2025-05-09T09:24:02Z</time>
      </trkpt>
      <trkpt lat="36.54748298227787" lon="-5.298351030796766">
        <ele>796.11000000000001</ele>
        <time>2025-05-09T09:24:03Z</time>
      </trkpt>
      <trkpt lat="36.548216985538602" lon="-5.29838003218174">
        <ele>796.59000000000003</ele>
        <time>2025-05-09T09:24:08Z</time>
      </trkpt>
      <trkpt lat="36.548335002735257" lon="-5.29833803884685">
        <ele>796.59000000000003</ele>
        <time>2025-05-09T09:24:09Z</time>
      </trkpt>
      <trkpt lat="36.548440027981997" lon="-5.298265032470226">
        <ele>796.59000000000003</ele>
        <time>2025-05-09T09:24:10Z</time>
      </trkpt>
      <trkpt lat="36.548518985509872" lon="-5.298159001395106">
        <ele>797.07000000000005</ele>
        <time>2025-05-09T09:24:11Z</time>
      </trkpt>
      <trkpt lat="36.548594003543258" lon="-5.298039978370071">
        <ele>797.54999999999995</ele>
        <time>2025-05-09T09:24:12Z</time>
      </trkpt>
      <trkpt lat="36.548682013526559" lon="-5.297898994758725">
        <ele>797.54999999999995</ele>
        <time>2025-05-09T09:24:13Z</time>
      </trkpt>
      <trkpt lat="36.548730963841081" lon="-5.297782989218831">
        <ele>797.54999999999995</ele>
        <time>2025-05-09T09:24:14Z</time>
      </trkpt>
      <trkpt lat="36.548934979364276" lon="-5.297370012849569">
        <ele>797.54999999999995</ele>
        <time>2025-05-09T09:24:17Z</time>
      </trkpt>
      <trkpt lat="36.549030030146241" lon="-5.297245960682631">
        <ele>797.54999999999995</ele>
        <time>2025-05-09T09:24:18Z</time>
      </trkpt>
      <trkpt lat="36.549126002937555" lon="-5.297120986506343">
        <ele>798.02999999999997</ele>
        <time>2025-05-09T09:24:19Z</time>
      </trkpt>
      <trkpt lat="36.549225999042392" lon="-5.296990983188152">
        <ele>798.02999999999997</ele>
        <time>2025-05-09T09:24:20Z</time>
      </trkpt>
      <trkpt lat="36.549324989318848" lon="-5.296861985698342">
        <ele>798.02999999999997</ele>
        <time>2025-05-09T09:24:21Z</time>
      </trkpt>
      <trkpt lat="36.549399001523852" lon="-5.296719996258616">
        <ele>798.02999999999997</ele>
        <time>2025-05-09T09:24:22Z</time>
      </trkpt>
      <trkpt lat="36.549457004293799" lon="-5.296560991555452">
        <ele>798.02999999999997</ele>
        <time>2025-05-09T09:24:23Z</time>
      </trkpt>
      <trkpt lat="36.549514001235366" lon="-5.296403998509049">
        <ele>798.50999999999999</ele>
        <time>2025-05-09T09:24:24Z</time>
      </trkpt>
      <trkpt lat="36.549569992348552" lon="-5.296251028776169">
        <ele>798.50999999999999</ele>
        <time>2025-05-09T09:24:25Z</time>
      </trkpt>
      <trkpt lat="36.549626989290118" lon="-5.296095041558147">
        <ele>798.99000000000001</ele>
        <time>2025-05-09T09:24:26Z</time>
      </trkpt>
      <trkpt lat="36.549730002880096" lon="-5.295962020754814">
        <ele>798.99000000000001</ele>
        <time>2025-05-09T09:24:27Z</time>
      </trkpt>
      <trkpt lat="36.550581017509103" lon="-5.294852005317807">
        <ele>802.84000000000003</ele>
        <time>2025-05-09T09:24:35Z</time>
      </trkpt>
      <trkpt lat="36.551501015201211" lon="-5.293645011261106">
        <ele>809.09000000000003</ele>
        <time>2025-05-09T09:24:44Z</time>
      </trkpt>
      <trkpt lat="36.552130999043584" lon="-5.29286197386682">
        <ele>813.88999999999999</ele>
        <time>2025-05-09T09:24:51Z</time>
      </trkpt>
      <trkpt lat="36.55223099514842" lon="-5.292761977761984">
        <ele>814.37</ele>
        <time>2025-05-09T09:24:52Z</time>
      </trkpt>
      <trkpt lat="36.552449008449912" lon="-5.292543964460492">
        <ele>816.29999999999995</ele>
        <time>2025-05-09T09:24:54Z</time>
      </trkpt>
      <trkpt lat="36.552566019818187" lon="-5.292427036911249">
        <ele>816.77999999999997</ele>
        <time>2025-05-09T09:24:55Z</time>
      </trkpt>
      <trkpt lat="36.552946977317333" lon="-5.292095029726625">
        <ele>820.13999999999999</ele>
        <time>2025-05-09T09:24:58Z</time>
      </trkpt>
      <trkpt lat="36.553083015605807" lon="-5.292004002258182">
        <ele>821.10000000000002</ele>
        <time>2025-05-09T09:24:59Z</time>
      </trkpt>
      <trkpt lat="36.553227016702294" lon="-5.291943987831473">
        <ele>822.54999999999995</ele>
        <time>2025-05-09T09:25:00Z</time>
      </trkpt>
      <trkpt lat="36.554577006027102" lon="-5.291667971760035">
        <ele>831.20000000000005</ele>
        <time>2025-05-09T09:25:09Z</time>
      </trkpt>
      <trkpt lat="36.556021040305495" lon="-5.291623966768384">
        <ele>832.63999999999999</ele>
        <time>2025-05-09T09:25:19Z</time>
      </trkpt>
      <trkpt lat="36.556564019992948" lon="-5.291574010625482">
        <ele>835.51999999999998</ele>
        <time>2025-05-09T09:25:24Z</time>
      </trkpt>
      <trkpt lat="36.556644989177585" lon="-5.291538974270225">
        <ele>836</ele>
        <time>2025-05-09T09:25:25Z</time>
      </trkpt>
      <trkpt lat="36.556725036352873" lon="-5.29148600064218">
        <ele>836.96000000000004</ele>
        <time>2025-05-09T09:25:26Z</time>
      </trkpt>
      <trkpt lat="36.556793013587594" lon="-5.291440989822149">
        <ele>837.45000000000005</ele>
        <time>2025-05-09T09:25:27Z</time>
      </trkpt>
      <trkpt lat="36.55684900470078" lon="-5.29135599732399">
        <ele>838.40999999999997</ele>
        <time>2025-05-09T09:25:28Z</time>
      </trkpt>
      <trkpt lat="36.556890998035669" lon="-5.291293971240521">
        <ele>838.88999999999999</ele>
        <time>2025-05-09T09:25:29Z</time>
      </trkpt>
      <trkpt lat="36.55691497027874" lon="-5.291257007047534">
        <ele>839.85000000000002</ele>
        <time>2025-05-09T09:25:30Z</time>
      </trkpt>
      <trkpt lat="36.556958975270391" lon="-5.291299000382423">
        <ele>840.33000000000004</ele>
        <time>2025-05-09T09:25:31Z</time>
      </trkpt>
      <trkpt lat="36.556952018290758" lon="-5.291326995939016">
        <ele>840.80999999999995</ele>
        <time>2025-05-09T09:25:32Z</time>
      </trkpt>
      <trkpt lat="36.556942965835333" lon="-5.291359014809132">
        <ele>841.76999999999998</ele>
        <time>2025-05-09T09:25:33Z</time>
      </trkpt>
      <trkpt lat="36.556931985542178" lon="-5.29140000231564">
        <ele>842.73000000000002</ele>
        <time>2025-05-09T09:25:34Z</time>
      </trkpt>
      <trkpt lat="36.556921005249023" lon="-5.291440989822149">
        <ele>843.21000000000004</ele>
        <time>2025-05-09T09:25:35Z</time>
      </trkpt>
      <trkpt lat="36.556884963065386" lon="-5.291477032005787">
        <ele>843.21000000000004</ele>
        <time>2025-05-09T09:25:36Z</time>
      </trkpt>
      <trkpt lat="36.556815980002284" lon="-5.291546015068889">
        <ele>844.65999999999997</ele>
        <time>2025-05-09T09:25:43Z</time>
      </trkpt>
      <trkpt lat="36.556775998324156" lon="-5.29152799397707">
        <ele>833.60000000000002</ele>
        <time>2025-05-09T09:28:12Z</time>
      </trkpt>
      <trkpt lat="36.55678597278893" lon="-5.29152899980545">
        <ele>834.08000000000004</ele>
        <time>2025-05-09T09:28:13Z</time>
      </trkpt>
      <trkpt lat="36.556655969470739" lon="-5.291596977040172">
        <ele>833.60000000000002</ele>
        <time>2025-05-09T09:28:26Z</time>
      </trkpt>
      <trkpt lat="36.556636020541191" lon="-5.291594965383411">
        <ele>832.15999999999997</ele>
        <time>2025-05-09T09:28:41Z</time>
      </trkpt>
      <trkpt lat="36.556630991399288" lon="-5.291581973433495">
        <ele>832.15999999999997</ele>
        <time>2025-05-09T09:28:43Z</time>
      </trkpt>
      <trkpt lat="36.55663400888443" lon="-5.291582979261875">
        <ele>832.63999999999999</ele>
        <time>2025-05-09T09:28:44Z</time>
      </trkpt>
      <trkpt lat="36.55669704079628" lon="-5.291504021733999">
        <ele>832.63999999999999</ele>
        <time>2025-05-09T09:28:45Z</time>
      </trkpt>
      <trkpt lat="36.55676300637424" lon="-5.291461022570729">
        <ele>832.63999999999999</ele>
        <time>2025-05-09T09:28:46Z</time>
      </trkpt>
      <trkpt lat="36.55693500302732" lon="-5.29122699983418">
        <ele>834.08000000000004</ele>
        <time>2025-05-09T09:28:49Z</time>
      </trkpt>
      <trkpt lat="36.556994011625648" lon="-5.291138989850879">
        <ele>834.55999999999995</ele>
        <time>2025-05-09T09:28:50Z</time>
      </trkpt>
      <trkpt lat="36.557326018810272" lon="-5.290605984628201">
        <ele>836.96000000000004</ele>
        <time>2025-05-09T09:28:55Z</time>
      </trkpt>
      <trkpt lat="36.557490974664688" lon="-5.290442034602165">
        <ele>838.40999999999997</ele>
        <time>2025-05-09T09:28:57Z</time>
      </trkpt>
      <trkpt lat="36.557685015723109" lon="-5.290170963853598">
        <ele>840.80999999999995</ele>
        <time>2025-05-09T09:29:00Z</time>
      </trkpt>
      <trkpt lat="36.557733966037631" lon="-5.290072979405522">
        <ele>841.28999999999996</ele>
        <time>2025-05-09T09:29:01Z</time>
      </trkpt>
      <trkpt lat="36.557786017656326" lon="-5.289969965815544">
        <ele>842.25</ele>
        <time>2025-05-09T09:29:02Z</time>
      </trkpt>
      <trkpt lat="36.558505017310381" lon="-5.28886104002595">
        <ele>845.13999999999999</ele>
        <time>2025-05-09T09:29:12Z</time>
      </trkpt>
      <trkpt lat="36.55957798473537" lon="-5.288017988204956">
        <ele>839.85000000000002</ele>
        <time>2025-05-09T09:29:21Z</time>
      </trkpt>
      <trkpt lat="36.560611976310611" lon="-5.287395967170596">
        <ele>836</ele>
        <time>2025-05-09T09:29:30Z</time>
      </trkpt>
      <trkpt lat="36.560876006260514" lon="-5.28725297190249">
        <ele>836</ele>
        <time>2025-05-09T09:29:32Z</time>
      </trkpt>
      <trkpt lat="36.560997040942311" lon="-5.28714501298964">
        <ele>835.51999999999998</ele>
        <time>2025-05-09T09:29:33Z</time>
      </trkpt>
      <trkpt lat="36.561120003461838" lon="-5.287034958600998">
        <ele>835.03999999999996</ele>
        <time>2025-05-09T09:29:34Z</time>
      </trkpt>
      <trkpt lat="36.561256041750312" lon="-5.286913001909852">
        <ele>834.55999999999995</ele>
        <time>2025-05-09T09:29:35Z</time>
      </trkpt>
      <trkpt lat="36.561346985399723" lon="-5.286794984713197">
        <ele>834.08000000000004</ele>
        <time>2025-05-09T09:29:36Z</time>
      </trkpt>
      <trkpt lat="36.561638005077839" lon="-5.286396006122232">
        <ele>831.67999999999995</ele>
        <time>2025-05-09T09:29:39Z</time>
      </trkpt>
      <trkpt lat="36.561699025332928" lon="-5.286234989762306">
        <ele>830.72000000000003</ele>
        <time>2025-05-09T09:29:40Z</time>
      </trkpt>
      <trkpt lat="36.561762979254127" lon="-5.286068022251129">
        <ele>829.75999999999999</ele>
        <time>2025-05-09T09:29:41Z</time>
      </trkpt>
      <trkpt lat="36.562053998932242" lon="-5.28540501371026">
        <ele>825.42999999999995</ele>
        <time>2025-05-09T09:29:45Z</time>
      </trkpt>
      <trkpt lat="36.562152989208698" lon="-5.28525598347187">
        <ele>824.47000000000003</ele>
        <time>2025-05-09T09:29:46Z</time>
      </trkpt>
      <trkpt lat="36.562248039990664" lon="-5.285113994032145">
        <ele>823.02999999999997</ele>
        <time>2025-05-09T09:29:47Z</time>
      </trkpt>
      <trkpt lat="36.562503017485142" lon="-5.284682996571064">
        <ele>820.13999999999999</ele>
        <time>2025-05-09T09:29:50Z</time>
      </trkpt>
      <trkpt lat="36.562569988891482" lon="-5.284550981596112">
        <ele>818.70000000000005</ele>
        <time>2025-05-09T09:29:51Z</time>
      </trkpt>
      <trkpt lat="36.562599996104836" lon="-5.284406980499625">
        <ele>817.74000000000001</ele>
        <time>2025-05-09T09:29:52Z</time>
      </trkpt>
      <trkpt lat="36.562630003318191" lon="-5.28426599688828">
        <ele>816.77999999999997</ele>
        <time>2025-05-09T09:29:53Z</time>
      </trkpt>
      <trkpt lat="36.562661016359925" lon="-5.284121995791793">
        <ele>815.82000000000005</ele>
        <time>2025-05-09T09:29:54Z</time>
      </trkpt>
      <trkpt lat="36.56269202940166" lon="-5.283973971381784">
        <ele>814.85000000000002</ele>
        <time>2025-05-09T09:29:55Z</time>
      </trkpt>
      <trkpt lat="36.562732011079788" lon="-5.283850003033876">
        <ele>813.88999999999999</ele>
        <time>2025-05-09T09:29:56Z</time>
      </trkpt>
      <trkpt lat="36.562819015234709" lon="-5.283761993050575">
        <ele>812.92999999999995</ele>
        <time>2025-05-09T09:29:57Z</time>
      </trkpt>
      <trkpt lat="36.562904007732868" lon="-5.283677000552416">
        <ele>811.97000000000003</ele>
        <time>2025-05-09T09:29:58Z</time>
      </trkpt>
      <trkpt lat="36.562992017716169" lon="-5.283629978075624">
        <ele>811.00999999999999</ele>
        <time>2025-05-09T09:29:59Z</time>
      </trkpt>
      <trkpt lat="36.563099976629019" lon="-5.283629978075624">
        <ele>810.52999999999997</ele>
        <time>2025-05-09T09:30:00Z</time>
      </trkpt>
      <trkpt lat="36.563218999654055" lon="-5.283640036359429">
        <ele>809.57000000000005</ele>
        <time>2025-05-09T09:30:01Z</time>
      </trkpt>
      <trkpt lat="36.563341962173581" lon="-5.283678006380796">
        <ele>808.61000000000001</ele>
        <time>2025-05-09T09:30:02Z</time>
      </trkpt>
      <trkpt lat="36.563589982688427" lon="-5.283703990280628">
        <ele>807.15999999999997</ele>
        <time>2025-05-09T09:30:04Z</time>
      </trkpt>
      <trkpt lat="36.56368101015687" lon="-5.283694015815854">
        <ele>806.20000000000005</ele>
        <time>2025-05-09T09:30:05Z</time>
      </trkpt>
      <trkpt lat="36.563783017918468" lon="-5.283610029146075">
        <ele>805.24000000000001</ele>
        <time>2025-05-09T09:30:06Z</time>
      </trkpt>
      <trkpt lat="36.563870022073388" lon="-5.283540040254593">
        <ele>804.75999999999999</ele>
        <time>2025-05-09T09:30:07Z</time>
      </trkpt>
      <trkpt lat="36.563936993479729" lon="-5.283452030271292">
        <ele>803.79999999999995</ele>
        <time>2025-05-09T09:30:08Z</time>
      </trkpt>
      <trkpt lat="36.563988039270043" lon="-5.283328983932734">
        <ele>803.32000000000005</ele>
        <time>2025-05-09T09:30:09Z</time>
      </trkpt>
      <trkpt lat="36.564041012898088" lon="-5.283203003928065">
        <ele>803.32000000000005</ele>
        <time>2025-05-09T09:30:10Z</time>
      </trkpt>
      <trkpt lat="36.56409197486937" lon="-5.283080963417888">
        <ele>802.84000000000003</ele>
        <time>2025-05-09T09:30:11Z</time>
      </trkpt>
      <trkpt lat="36.56415400095284" lon="-5.282961018383503">
        <ele>802.36000000000001</ele>
        <time>2025-05-09T09:30:12Z</time>
      </trkpt>
      <trkpt lat="36.564229018986225" lon="-5.282878037542105">
        <ele>801.88</ele>
        <time>2025-05-09T09:30:13Z</time>
      </trkpt>
      <trkpt lat="36.564301019534469" lon="-5.282797990366817">
        <ele>801.39999999999998</ele>
        <time>2025-05-09T09:30:14Z</time>
      </trkpt>
      <trkpt lat="36.564385006204247" lon="-5.282746022567153">
        <ele>800.91999999999996</ele>
        <time>2025-05-09T09:30:15Z</time>
      </trkpt>
      <trkpt lat="36.564462035894394" lon="-5.282712997868657">
        <ele>800.44000000000005</ele>
        <time>2025-05-09T09:30:16Z</time>
      </trkpt>
      <trkpt lat="36.564488019794226" lon="-5.282637979835272">
        <ele>799.95000000000005</ele>
        <time>2025-05-09T09:30:17Z</time>
      </trkpt>
      <trkpt lat="36.564500005915761" lon="-5.282573020085692">
        <ele>799.47000000000003</ele>
        <time>2025-05-09T09:30:18Z</time>
      </trkpt>
      <trkpt lat="36.564511992037296" lon="-5.282508982345462">
        <ele>798.99000000000001</ele>
        <time>2025-05-09T09:30:19Z</time>
      </trkpt>
      <trkpt lat="36.56452196650207" lon="-5.282451985403895">
        <ele>798.50999999999999</ele>
        <time>2025-05-09T09:30:20Z</time>
      </trkpt>
      <trkpt lat="36.564532024785876" lon="-5.282400017604232">
        <ele>798.02999999999997</ele>
        <time>2025-05-09T09:30:21Z</time>
      </trkpt>
      <trkpt lat="36.564549962058663" lon="-5.282302033156157">
        <ele>797.07000000000005</ele>
        <time>2025-05-09T09:30:23Z</time>
      </trkpt>
      <trkpt lat="36.564681977033615" lon="-5.282040014863014">
        <ele>795.14999999999998</ele>
        <time>2025-05-09T09:30:32Z</time>
      </trkpt>
      <trkpt lat="36.564681977033615" lon="-5.282040014863014">
        <ele>795.14999999999998</ele>
        <time>2025-05-09T09:30:54Z</time>
      </trkpt>
      <trkpt lat="36.564688012003899" lon="-5.282042026519775">
        <ele>795.14999999999998</ele>
        <time>2025-05-09T09:30:55Z</time>
      </trkpt>
      <trkpt lat="36.56471299007535" lon="-5.282047977671027">
        <ele>794.66999999999996</ele>
        <time>2025-05-09T09:30:56Z</time>
      </trkpt>
      <trkpt lat="36.564749032258987" lon="-5.282057030126452">
        <ele>795.14999999999998</ele>
        <time>2025-05-09T09:30:57Z</time>
      </trkpt>
      <trkpt lat="36.564775016158819" lon="-5.282145040109754">
        <ele>795.14999999999998</ele>
        <time>2025-05-09T09:30:58Z</time>
      </trkpt>
      <trkpt lat="36.564775016158819" lon="-5.282229026779532">
        <ele>794.66999999999996</ele>
        <time>2025-05-09T09:30:59Z</time>
      </trkpt>
      <trkpt lat="36.564775016158819" lon="-5.282316030934453">
        <ele>795.14999999999998</ele>
        <time>2025-05-09T09:31:00Z</time>
      </trkpt>
      <trkpt lat="36.564775016158819" lon="-5.282404040917754">
        <ele>794.66999999999996</ele>
        <time>2025-05-09T09:31:01Z</time>
      </trkpt>
      <trkpt lat="36.564775016158819" lon="-5.282620964571834">
        <ele>794.66999999999996</ele>
        <time>2025-05-09T09:31:04Z</time>
      </trkpt>
      <trkpt lat="36.564775016158819" lon="-5.282687013968825">
        <ele>794.66999999999996</ele>
        <time>2025-05-09T09:31:05Z</time>
      </trkpt>
      <trkpt lat="36.564789013937116" lon="-5.282791033387184">
        <ele>794.19000000000005</ele>
        <time>2025-05-09T09:31:06Z</time>
      </trkpt>
      <trkpt lat="36.565021025016904" lon="-5.283236028626561">
        <ele>792.25999999999999</ele>
        <time>2025-05-09T09:31:10Z</time>
      </trkpt>
      <trkpt lat="36.565134013071656" lon="-5.283474996685982">
        <ele>790.82000000000005</ele>
        <time>2025-05-09T09:31:12Z</time>
      </trkpt>
      <trkpt lat="36.565210036933422" lon="-5.283579016104341">
        <ele>789.86000000000001</ele>
        <time>2025-05-09T09:31:13Z</time>
      </trkpt>
      <trkpt lat="36.565299974754453" lon="-5.283661996945739">
        <ele>788.89999999999998</ele>
        <time>2025-05-09T09:31:14Z</time>
      </trkpt>
      <trkpt lat="36.565407011657953" lon="-5.283698961138725">
        <ele>787.94000000000005</ele>
        <time>2025-05-09T09:31:15Z</time>
      </trkpt>
      <trkpt lat="36.565518993884325" lon="-5.283708013594151">
        <ele>786.98000000000002</ele>
        <time>2025-05-09T09:31:16Z</time>
      </trkpt>
      <trkpt lat="36.565627958625555" lon="-5.283717988058925">
        <ele>786.5</ele>
        <time>2025-05-09T09:31:17Z</time>
      </trkpt>
      <trkpt lat="36.565739018842578" lon="-5.28372704051435">
        <ele>785.52999999999997</ele>
        <time>2025-05-09T09:31:18Z</time>
      </trkpt>
      <trkpt lat="36.565856030210853" lon="-5.283737014979124">
        <ele>784.57000000000005</ele>
        <time>2025-05-09T09:31:19Z</time>
      </trkpt>
      <trkpt lat="36.565975975245237" lon="-5.283746989443898">
        <ele>784.09000000000003</ele>
        <time>2025-05-09T09:31:20Z</time>
      </trkpt>
      <trkpt lat="36.566104972735047" lon="-5.283758975565434">
        <ele>783.13</ele>
        <time>2025-05-09T09:31:21Z</time>
      </trkpt>
      <trkpt lat="36.566226007416844" lon="-5.283807003870606">
        <ele>782.16999999999996</ele>
        <time>2025-05-09T09:31:22Z</time>
      </trkpt>
      <trkpt lat="36.566353999078274" lon="-5.283844973891974">
        <ele>781.21000000000004</ele>
        <time>2025-05-09T09:31:23Z</time>
      </trkpt>
      <trkpt lat="36.566489031538367" lon="-5.283844973891974">
        <ele>780.25</ele>
        <time>2025-05-09T09:31:24Z</time>
      </trkpt>
      <trkpt lat="36.56662498600781" lon="-5.283833993598819">
        <ele>779.28999999999996</ele>
        <time>2025-05-09T09:31:25Z</time>
      </trkpt>
      <trkpt lat="36.56675398349762" lon="-5.283783031627536">
        <ele>778.32000000000005</ele>
        <time>2025-05-09T09:31:26Z</time>
      </trkpt>
      <trkpt lat="36.566875018179417" lon="-5.283733997493982">
        <ele>777.36000000000001</ele>
        <time>2025-05-09T09:31:27Z</time>
      </trkpt>
      <trkpt lat="36.566988006234169" lon="-5.283688986673951">
        <ele>776.39999999999998</ele>
        <time>2025-05-09T09:31:28Z</time>
      </trkpt>
      <trkpt lat="36.567095965147018" lon="-5.283688986673951">
        <ele>775.91999999999996</ele>
        <time>2025-05-09T09:31:29Z</time>
      </trkpt>
      <trkpt lat="36.567210964858532" lon="-5.283716982230544">
        <ele>774.96000000000004</ele>
        <time>2025-05-09T09:31:30Z</time>
      </trkpt>
      <trkpt lat="36.567450016736984" lon="-5.28377297334373">
        <ele>772.55999999999995</ele>
        <time>2025-05-09T09:31:32Z</time>
      </trkpt>
      <trkpt lat="36.56756903976202" lon="-5.28377003967762">
        <ele>771.60000000000002</ele>
        <time>2025-05-09T09:31:33Z</time>
      </trkpt>
      <trkpt lat="36.567684039473534" lon="-5.283747995272279">
        <ele>770.63</ele>
        <time>2025-05-09T09:31:34Z</time>
      </trkpt>
      <trkpt lat="36.567773977294564" lon="-5.283670965582132">
        <ele>769.19000000000005</ele>
        <time>2025-05-09T09:31:35Z</time>
      </trkpt>
      <trkpt lat="36.567858969792724" lon="-5.283582033589482">
        <ele>768.23000000000002</ele>
        <time>2025-05-09T09:31:36Z</time>
      </trkpt>
      <trkpt lat="36.567938011139631" lon="-5.283478014171124">
        <ele>766.78999999999996</ele>
        <time>2025-05-09T09:31:37Z</time>
      </trkpt>
      <trkpt lat="36.568026021122932" lon="-5.283362008631229">
        <ele>766.30999999999995</ele>
        <time>2025-05-09T09:31:38Z</time>
      </trkpt>
      <trkpt lat="36.568118976429105" lon="-5.283239968121052">
        <ele>764.87</ele>
        <time>2025-05-09T09:31:39Z</time>
      </trkpt>
      <trkpt lat="36.568230958655477" lon="-5.283139972016215">
        <ele>763.89999999999998</ele>
        <time>2025-05-09T09:31:40Z</time>
      </trkpt>
      <trkpt lat="36.568360961973667" lon="-5.283060008659959">
        <ele>762.94000000000005</ele>
        <time>2025-05-09T09:31:41Z</time>
      </trkpt>
      <trkpt lat="36.568491971120238" lon="-5.282980967313051">
        <ele>761.5</ele>
        <time>2025-05-09T09:31:42Z</time>
      </trkpt>
      <trkpt lat="36.568619962781668" lon="-5.282903015613556">
        <ele>760.53999999999996</ele>
        <time>2025-05-09T09:31:43Z</time>
      </trkpt>
      <trkpt lat="36.568765975534916" lon="-5.282815005630255">
        <ele>759.10000000000002</ele>
        <time>2025-05-09T09:31:44Z</time>
      </trkpt>
      <trkpt lat="36.568831019103527" lon="-5.282702017575502">
        <ele>758.13999999999999</ele>
        <time>2025-05-09T09:31:45Z</time>
      </trkpt>
      <trkpt lat="36.568910982459784" lon="-5.282562039792538">
        <ele>757.17999999999995</ele>
        <time>2025-05-09T09:31:46Z</time>
      </trkpt>
      <trkpt lat="36.569151040166616" lon="-5.282146967947483">
        <ele>753.80999999999995</ele>
        <time>2025-05-09T09:31:49Z</time>
      </trkpt>
      <trkpt lat="36.569238966330886" lon="-5.282063987106085">
        <ele>752.37</ele>
        <time>2025-05-09T09:31:50Z</time>
      </trkpt>
      <trkpt lat="36.569350026547909" lon="-5.281991986557841">
        <ele>751.40999999999997</ele>
        <time>2025-05-09T09:31:51Z</time>
      </trkpt>
      <trkpt lat="36.569583965465426" lon="-5.281839016824961">
        <ele>749</ele>
        <time>2025-05-09T09:31:53Z</time>
      </trkpt>
      <trkpt lat="36.569691002368927" lon="-5.281740026548505">
        <ele>747.55999999999995</ele>
        <time>2025-05-09T09:31:54Z</time>
      </trkpt>
      <trkpt lat="36.569760991260409" lon="-5.281609017401934">
        <ele>746.12</ele>
        <time>2025-05-09T09:31:55Z</time>
      </trkpt>
      <trkpt lat="36.569839026778936" lon="-5.281463004648686">
        <ele>744.67999999999995</ele>
        <time>2025-05-09T09:31:56Z</time>
      </trkpt>
      <trkpt lat="36.569896023720503" lon="-5.281320009380579">
        <ele>743.72000000000003</ele>
        <time>2025-05-09T09:31:57Z</time>
      </trkpt>
      <trkpt lat="36.569960983470082" lon="-5.281157987192273">
        <ele>742.27999999999997</ele>
        <time>2025-05-09T09:31:58Z</time>
      </trkpt>
      <trkpt lat="36.570667997002602" lon="-5.28022600337863">
        <ele>733.13999999999999</ele>
        <time>2025-05-09T09:32:05Z</time>
      </trkpt>
      <trkpt lat="36.570894978940487" lon="-5.280018970370293">
        <ele>730.74000000000001</ele>
        <time>2025-05-09T09:32:07Z</time>
      </trkpt>
      <trkpt lat="36.571015007793903" lon="-5.27994797565043">
        <ele>729.77999999999997</ele>
        <time>2025-05-09T09:32:08Z</time>
      </trkpt>
      <trkpt lat="36.571133024990559" lon="-5.279878992587328">
        <ele>728.34000000000003</ele>
        <time>2025-05-09T09:32:09Z</time>
      </trkpt>
      <trkpt lat="36.571235032752156" lon="-5.279811015352607">
        <ele>726.88999999999999</ele>
        <time>2025-05-09T09:32:10Z</time>
      </trkpt>
      <trkpt lat="36.57132999971509" lon="-5.279723005369306">
        <ele>725.45000000000005</ele>
        <time>2025-05-09T09:32:11Z</time>
      </trkpt>
      <trkpt lat="36.571420021355152" lon="-5.279639018699527">
        <ele>724.00999999999999</ele>
        <time>2025-05-09T09:32:12Z</time>
      </trkpt>
      <trkpt lat="36.571512976661325" lon="-5.279553020372987">
        <ele>723.04999999999995</ele>
        <time>2025-05-09T09:32:13Z</time>
      </trkpt>
      <trkpt lat="36.571643985807896" lon="-5.279355039820075">
        <ele>721.13</ele>
        <time>2025-05-09T09:32:15Z</time>
      </trkpt>
      <trkpt lat="36.571726966649294" lon="-5.279230987653136">
        <ele>720.15999999999997</ele>
        <time>2025-05-09T09:32:16Z</time>
      </trkpt>
      <trkpt lat="36.571744987741113" lon="-5.279125962406397">
        <ele>719.20000000000005</ele>
        <time>2025-05-09T09:32:17Z</time>
      </trkpt>
      <trkpt lat="36.571767032146454" lon="-5.279000988230109">
        <ele>718.24000000000001</ele>
        <time>2025-05-09T09:32:18Z</time>
      </trkpt>
      <trkpt lat="36.571786981076002" lon="-5.278881965205073">
        <ele>717.27999999999997</ele>
        <time>2025-05-09T09:32:19Z</time>
      </trkpt>
      <trkpt lat="36.571807013824582" lon="-5.27876797132194">
        <ele>716.79999999999995</ele>
        <time>2025-05-09T09:32:20Z</time>
      </trkpt>
      <trkpt lat="36.571825034916401" lon="-5.278664035722613">
        <ele>716.32000000000005</ele>
        <time>2025-05-09T09:32:21Z</time>
      </trkpt>
      <trkpt lat="36.57186602242291" lon="-5.278578037396073">
        <ele>715.36000000000001</ele>
        <time>2025-05-09T09:32:22Z</time>
      </trkpt>
      <trkpt lat="36.571929976344109" lon="-5.278512993827462">
        <ele>714.88</ele>
        <time>2025-05-09T09:32:23Z</time>
      </trkpt>
      <trkpt lat="36.57199895940721" lon="-5.278461026027799">
        <ele>713.91999999999996</ele>
        <time>2025-05-09T09:32:24Z</time>
      </trkpt>
      <trkpt lat="36.572075989097357" lon="-5.27842003852129">
        <ele>713.44000000000005</ele>
        <time>2025-05-09T09:32:25Z</time>
      </trkpt>
      <trkpt lat="36.572243040427566" lon="-5.278331022709608">
        <ele>711.50999999999999</ele>
        <time>2025-05-09T09:32:27Z</time>
      </trkpt>
      <trkpt lat="36.572317974641919" lon="-5.278260027989745">
        <ele>711.02999999999997</ele>
        <time>2025-05-09T09:32:28Z</time>
      </trkpt>
      <trkpt lat="36.572386035695672" lon="-5.278157014399767">
        <ele>710.54999999999995</ele>
        <time>2025-05-09T09:32:29Z</time>
      </trkpt>
      <trkpt lat="36.572632966563106" lon="-5.277738003060222">
        <ele>710.54999999999995</ele>
        <time>2025-05-09T09:32:33Z</time>
      </trkpt>
      <trkpt lat="36.57270303927362" lon="-5.277658961713314">
        <ele>711.50999999999999</ele>
        <time>2025-05-09T09:32:34Z</time>
      </trkpt>
      <trkpt lat="36.572775039821863" lon="-5.277594001963735">
        <ele>711.99000000000001</ele>
        <time>2025-05-09T09:32:35Z</time>
      </trkpt>
      <trkpt lat="36.572844022884965" lon="-5.277529964223504">
        <ele>712.95000000000005</ele>
        <time>2025-05-09T09:32:36Z</time>
      </trkpt>
      <trkpt lat="36.572908982634544" lon="-5.277471039444208">
        <ele>713.44000000000005</ele>
        <time>2025-05-09T09:32:37Z</time>
      </trkpt>
      <trkpt lat="36.573192961513996" lon="-5.277193011716008">
        <ele>716.32000000000005</ele>
        <time>2025-05-09T09:32:42Z</time>
      </trkpt>
      <trkpt lat="36.573244007304311" lon="-5.277127968147397">
        <ele>717.27999999999997</ele>
        <time>2025-05-09T09:32:43Z</time>
      </trkpt>
      <trkpt lat="36.573293963447213" lon="-5.277064014226198">
        <ele>718.72000000000003</ele>
        <time>2025-05-09T09:32:44Z</time>
      </trkpt>
      <trkpt lat="36.57358699478209" lon="-5.276557998731732">
        <ele>724.00999999999999</ele>
        <time>2025-05-09T09:32:51Z</time>
      </trkpt>
      <trkpt lat="36.573623958975077" lon="-5.276493960991502">
        <ele>725.45000000000005</ele>
        <time>2025-05-09T09:32:52Z</time>
      </trkpt>
      <trkpt lat="36.573704006150365" lon="-5.276353983208537">
        <ele>726.40999999999997</ele>
        <time>2025-05-09T09:32:54Z</time>
      </trkpt>
      <trkpt lat="36.573750022798777" lon="-5.276275025680661">
        <ele>726.88999999999999</ele>
        <time>2025-05-09T09:32:55Z</time>
      </trkpt>
      <trkpt lat="36.573784975335002" lon="-5.276201013475657">
        <ele>727.37</ele>
        <time>2025-05-09T09:32:56Z</time>
      </trkpt>
      <trkpt lat="36.573816994205117" lon="-5.27612398378551">
        <ele>727.37</ele>
        <time>2025-05-09T09:32:57Z</time>
      </trkpt>
      <trkpt lat="36.573849013075233" lon="-5.276045026257634">
        <ele>727.86000000000001</ele>
        <time>2025-05-09T09:32:58Z</time>
      </trkpt>
      <trkpt lat="36.573910033330321" lon="-5.275894990190864">
        <ele>728.34000000000003</ele>
        <time>2025-05-09T09:33:00Z</time>
      </trkpt>
      <trkpt lat="36.573939034715295" lon="-5.275825001299381">
        <ele>728.82000000000005</ele>
        <time>2025-05-09T09:33:01Z</time>
      </trkpt>
      <trkpt lat="36.573958983644843" lon="-5.275775967165828">
        <ele>728.82000000000005</ele>
        <time>2025-05-09T09:33:02Z</time>
      </trkpt>
      <trkpt lat="36.574021009728312" lon="-5.275664990767837">
        <ele>729.29999999999995</ele>
        <time>2025-05-09T09:33:04Z</time>
      </trkpt>
      <trkpt lat="36.574050011113286" lon="-5.275613022968173">
        <ele>729.77999999999997</ele>
        <time>2025-05-09T09:33:05Z</time>
      </trkpt>
      <trkpt lat="36.574096027761698" lon="-5.275579998269677">
        <ele>729.77999999999997</ele>
        <time>2025-05-09T09:33:06Z</time>
      </trkpt>
      <trkpt lat="36.574150007218122" lon="-5.275574969127774">
        <ele>730.25999999999999</ele>
        <time>2025-05-09T09:33:07Z</time>
      </trkpt>
      <trkpt lat="36.574211027473211" lon="-5.275569017976522">
        <ele>730.25999999999999</ele>
        <time>2025-05-09T09:33:08Z</time>
      </trkpt>
      <trkpt lat="36.574281016364694" lon="-5.275561977177858">
        <ele>730.25999999999999</ele>
        <time>2025-05-09T09:33:09Z</time>
      </trkpt>
      <trkpt lat="36.574329966679215" lon="-5.275593996047974">
        <ele>730.74000000000001</ele>
        <time>2025-05-09T09:33:10Z</time>
      </trkpt>
      <trkpt lat="36.574386963620782" lon="-5.275632971897721">
        <ele>730.74000000000001</ele>
        <time>2025-05-09T09:33:11Z</time>
      </trkpt>
      <trkpt lat="36.574441026896238" lon="-5.275668008252978">
        <ele>730.74000000000001</ele>
        <time>2025-05-09T09:33:12Z</time>
      </trkpt>
      <trkpt lat="36.574544962495565" lon="-5.275737997144461">
        <ele>730.74000000000001</ele>
        <time>2025-05-09T09:33:14Z</time>
      </trkpt>
      <trkpt lat="36.574607994407415" lon="-5.275776972994208">
        <ele>730.74000000000001</ele>
        <time>2025-05-09T09:33:15Z</time>
      </trkpt>
      <trkpt lat="36.574675971642137" lon="-5.275788959115744">
        <ele>730.74000000000001</ele>
        <time>2025-05-09T09:33:16Z</time>
      </trkpt>
      <trkpt lat="36.574758030474186" lon="-5.27577999047935">
        <ele>730.74000000000001</ele>
        <time>2025-05-09T09:33:17Z</time>
      </trkpt>
      <trkpt lat="36.574825001880527" lon="-5.2757359854877">
        <ele>730.74000000000001</ele>
        <time>2025-05-09T09:33:18Z</time>
      </trkpt>
      <trkpt lat="36.574894990772009" lon="-5.275688963010907">
        <ele>731.22000000000003</ele>
        <time>2025-05-09T09:33:19Z</time>
      </trkpt>
      <trkpt lat="36.574956011027098" lon="-5.275619979947805">
        <ele>731.70000000000005</ele>
        <time>2025-05-09T09:33:20Z</time>
      </trkpt>
      <trkpt lat="36.575009990483522" lon="-5.275538004934788">
        <ele>732.17999999999995</ele>
        <time>2025-05-09T09:33:21Z</time>
      </trkpt>
      <trkpt lat="36.575064975768328" lon="-5.275452006608248">
        <ele>732.65999999999997</ele>
        <time>2025-05-09T09:33:22Z</time>
      </trkpt>
      <trkpt lat="36.575248958542943" lon="-5.275238016620278">
        <ele>734.10000000000002</ele>
        <time>2025-05-09T09:33:25Z</time>
      </trkpt>
      <trkpt lat="36.575321964919567" lon="-5.275183031335473">
        <ele>734.58000000000004</ele>
        <time>2025-05-09T09:33:26Z</time>
      </trkpt>
      <trkpt lat="36.575418021529913" lon="-5.27511103078723">
        <ele>734.58000000000004</ele>
        <time>2025-05-09T09:33:27Z</time>
      </trkpt>
      <trkpt lat="36.575493961572647" lon="-5.275100972503424">
        <ele>735.07000000000005</ele>
        <time>2025-05-09T09:33:28Z</time>
      </trkpt>
      <trkpt lat="36.575591024011374" lon="-5.275087980553508">
        <ele>735.54999999999995</ele>
        <time>2025-05-09T09:33:29Z</time>
      </trkpt>
      <trkpt lat="36.576135009527206" lon="-5.274996031075716">
        <ele>739.38999999999999</ele>
        <time>2025-05-09T09:33:34Z</time>
      </trkpt>
      <trkpt lat="36.576245985925198" lon="-5.274931993335486">
        <ele>740.35000000000002</ele>
        <time>2025-05-09T09:33:35Z</time>
      </trkpt>
      <trkpt lat="36.576352017000318" lon="-5.274869967252016">
        <ele>741.78999999999996</ele>
        <time>2025-05-09T09:33:36Z</time>
      </trkpt>
      <trkpt lat="36.576457964256406" lon="-5.27481003664434">
        <ele>742.75999999999999</ele>
        <time>2025-05-09T09:33:37Z</time>
      </trkpt>
      <trkpt lat="36.576561983674765" lon="-5.274749016389251">
        <ele>744.20000000000005</ele>
        <time>2025-05-09T09:33:38Z</time>
      </trkpt>
      <trkpt lat="36.576668014749885" lon="-5.274699982255697">
        <ele>745.63999999999999</ele>
        <time>2025-05-09T09:33:39Z</time>
      </trkpt>
      <trkpt lat="36.576813021674752" lon="-5.274681961163878">
        <ele>746.60000000000002</ele>
        <time>2025-05-09T09:33:40Z</time>
      </trkpt>
      <trkpt lat="36.576912011951208" lon="-5.274698976427317">
        <ele>748.03999999999996</ele>
        <time>2025-05-09T09:33:41Z</time>
      </trkpt>
      <trkpt lat="36.577310990542173" lon="-5.274795033037663">
        <ele>751.40999999999997</ele>
        <time>2025-05-09T09:33:44Z</time>
      </trkpt>
      <trkpt lat="36.577447028830647" lon="-5.27485303580761">
        <ele>752.85000000000002</ele>
        <time>2025-05-09T09:33:45Z</time>
      </trkpt>
      <trkpt lat="36.577555993571877" lon="-5.274950014427304">
        <ele>753.80999999999995</ele>
        <time>2025-05-09T09:33:46Z</time>
      </trkpt>
      <trkpt lat="36.577648026868701" lon="-5.275073982775211">
        <ele>754.76999999999998</ele>
        <time>2025-05-09T09:33:47Z</time>
      </trkpt>
      <trkpt lat="36.577724972739816" lon="-5.275217983871698">
        <ele>755.73000000000002</ele>
        <time>2025-05-09T09:33:48Z</time>
      </trkpt>
      <trkpt lat="36.577790016308427" lon="-5.275388974696398">
        <ele>756.69000000000005</ele>
        <time>2025-05-09T09:33:49Z</time>
      </trkpt>
      <trkpt lat="36.578018004074693" lon="-5.275938995182514">
        <ele>759.10000000000002</ele>
        <time>2025-05-09T09:33:52Z</time>
      </trkpt>
      <trkpt lat="36.578259989619255" lon="-5.276450039818883">
        <ele>762.46000000000004</ele>
        <time>2025-05-09T09:33:55Z</time>
      </trkpt>
      <trkpt lat="36.578316986560822" lon="-5.27663704007864">
        <ele>763.41999999999996</ele>
        <time>2025-05-09T09:33:56Z</time>
      </trkpt>
      <trkpt lat="36.578426035121083" lon="-5.276995031163096">
        <ele>765.35000000000002</ele>
        <time>2025-05-09T09:33:58Z</time>
      </trkpt>
      <trkpt lat="36.57848596572876" lon="-5.277193011716008">
        <ele>766.30999999999995</ele>
        <time>2025-05-09T09:33:59Z</time>
      </trkpt>
      <trkpt lat="36.578575987368822" lon="-5.277273980900645">
        <ele>767.26999999999998</ele>
        <time>2025-05-09T09:34:00Z</time>
      </trkpt>
      <trkpt lat="36.57870096154511" lon="-5.277385963127017">
        <ele>768.71000000000004</ele>
        <time>2025-05-09T09:34:01Z</time>
      </trkpt>
      <trkpt lat="36.578824007883668" lon="-5.277429968118668">
        <ele>769.66999999999996</ele>
        <time>2025-05-09T09:34:02Z</time>
      </trkpt>
      <trkpt lat="36.578951999545097" lon="-5.277475984767079">
        <ele>771.11000000000001</ele>
        <time>2025-05-09T09:34:03Z</time>
      </trkpt>
      <trkpt lat="36.579069010913372" lon="-5.277517978101969">
        <ele>772.08000000000004</ele>
        <time>2025-05-09T09:34:04Z</time>
      </trkpt>
      <trkpt lat="36.579176969826221" lon="-5.277557037770748">
        <ele>772.55999999999995</ele>
        <time>2025-05-09T09:34:05Z</time>
      </trkpt>
      <trkpt lat="36.579269003123045" lon="-5.277624009177089">
        <ele>773.03999999999996</ele>
        <time>2025-05-09T09:34:06Z</time>
      </trkpt>
      <trkpt lat="36.579351983964443" lon="-5.277742026373744">
        <ele>774</ele>
        <time>2025-05-09T09:34:07Z</time>
      </trkpt>
      <trkpt lat="36.579427001997828" lon="-5.277887033298612">
        <ele>774.48000000000002</ele>
        <time>2025-05-09T09:34:08Z</time>
      </trkpt>
      <trkpt lat="36.579492967575788" lon="-5.278044026345015">
        <ele>774.96000000000004</ele>
        <time>2025-05-09T09:34:09Z</time>
      </trkpt>
      <trkpt lat="36.5795580111444" lon="-5.278200013563037">
        <ele>775.44000000000005</ele>
        <time>2025-05-09T09:34:10Z</time>
      </trkpt>
      <trkpt lat="36.57962397672236" lon="-5.27835700660944">
        <ele>775.91999999999996</ele>
        <time>2025-05-09T09:34:11Z</time>
      </trkpt>
      <trkpt lat="36.579701006412506" lon="-5.278497990220785">
        <ele>776.39999999999998</ele>
        <time>2025-05-09T09:34:12Z</time>
      </trkpt>
      <trkpt lat="36.579805025830865" lon="-5.278617013245821">
        <ele>776.88</ele>
        <time>2025-05-09T09:34:13Z</time>
      </trkpt>
      <trkpt lat="36.579940980300307" lon="-5.278688007965684">
        <ele>777.36000000000001</ele>
        <time>2025-05-09T09:34:14Z</time>
      </trkpt>
      <trkpt lat="36.580085987225175" lon="-5.278753973543644">
        <ele>777.84000000000003</ele>
        <time>2025-05-09T09:34:15Z</time>
      </trkpt>
      <trkpt lat="36.5802470035851" lon="-5.278740981593728">
        <ele>778.32000000000005</ele>
        <time>2025-05-09T09:34:16Z</time>
      </trkpt>
      <trkpt lat="36.580410031601787" lon="-5.27872203849256">
        <ele>778.80999999999995</ele>
        <time>2025-05-09T09:34:17Z</time>
      </trkpt>
      <trkpt lat="36.580575993284583" lon="-5.27870200574398">
        <ele>779.28999999999996</ele>
        <time>2025-05-09T09:34:18Z</time>
      </trkpt>
      <trkpt lat="36.582660991698503" lon="-5.278141004964709">
        <ele>786.01999999999998</ele>
        <time>2025-05-09T09:34:30Z</time>
      </trkpt>
      <trkpt lat="36.582831982523203" lon="-5.278131030499935">
        <ele>786.01999999999998</ele>
        <time>2025-05-09T09:34:31Z</time>
      </trkpt>
      <trkpt lat="36.582998028025031" lon="-5.278165983036161">
        <ele>786.01999999999998</ele>
        <time>2025-05-09T09:34:32Z</time>
      </trkpt>
      <trkpt lat="36.583158960565925" lon="-5.278200013563037">
        <ele>786.01999999999998</ele>
        <time>2025-05-09T09:34:33Z</time>
      </trkpt>
      <trkpt lat="36.583284018561244" lon="-5.278304032981396">
        <ele>785.52999999999997</ele>
        <time>2025-05-09T09:34:34Z</time>
      </trkpt>
      <trkpt lat="36.583411004394293" lon="-5.278412997722626">
        <ele>785.04999999999995</ele>
        <time>2025-05-09T09:34:35Z</time>
      </trkpt>
      <trkpt lat="36.583523992449045" lon="-5.278534032404423">
        <ele>784.57000000000005</ele>
        <time>2025-05-09T09:34:36Z</time>
      </trkpt>
      <trkpt lat="36.583632035180926" lon="-5.278671998530626">
        <ele>784.09000000000003</ele>
        <time>2025-05-09T09:34:37Z</time>
      </trkpt>
      <trkpt lat="36.583743011578918" lon="-5.27881097048521">
        <ele>783.61000000000001</ele>
        <time>2025-05-09T09:34:38Z</time>
      </trkpt>
      <trkpt lat="36.58452495932579" lon="-5.279616974294186">
        <ele>784.09000000000003</ele>
        <time>2025-05-09T09:34:45Z</time>
      </trkpt>
      <trkpt lat="36.584642976522446" lon="-5.279706995934248">
        <ele>784.57000000000005</ele>
        <time>2025-05-09T09:34:46Z</time>
      </trkpt>
      <trkpt lat="36.584773985669017" lon="-5.279772961512208">
        <ele>785.04999999999995</ele>
        <time>2025-05-09T09:34:47Z</time>
      </trkpt>
      <trkpt lat="36.58594099804759" lon="-5.279982006177306">
        <ele>790.82000000000005</ele>
        <time>2025-05-09T09:34:55Z</time>
      </trkpt>
      <trkpt lat="36.587536996230483" lon="-5.279899025335908">
        <ele>798.02999999999997</ele>
        <time>2025-05-09T09:35:05Z</time>
      </trkpt>
      <trkpt lat="36.58770103007555" lon="-5.279835993424058">
        <ele>798.50999999999999</ele>
        <time>2025-05-09T09:35:06Z</time>
      </trkpt>
      <trkpt lat="36.587857017293572" lon="-5.27975401841104">
        <ele>798.99000000000001</ele>
        <time>2025-05-09T09:35:07Z</time>
      </trkpt>
      <trkpt lat="36.587986014783382" lon="-5.279629966244102">
        <ele>799.47000000000003</ele>
        <time>2025-05-09T09:35:08Z</time>
      </trkpt>
      <trkpt lat="36.588118029758334" lon="-5.279503986239433">
        <ele>799.95000000000005</ele>
        <time>2025-05-09T09:35:09Z</time>
      </trkpt>
      <trkpt lat="36.588247027248144" lon="-5.279380017891526">
        <ele>800.44000000000005</ele>
        <time>2025-05-09T09:35:10Z</time>
      </trkpt>
      <trkpt lat="36.588548021391034" lon="-5.278987996280193">
        <ele>801.88</ele>
        <time>2025-05-09T09:35:13Z</time>
      </trkpt>
      <trkpt lat="36.588957980275154" lon="-5.278393970802426">
        <ele>803.79999999999995</ele>
        <time>2025-05-09T09:35:18Z</time>
      </trkpt>
      <trkpt lat="36.589074991643429" lon="-5.278304032981396">
        <ele>804.75999999999999</ele>
        <time>2025-05-09T09:35:19Z</time>
      </trkpt>
      <trkpt lat="36.589203989133239" lon="-5.278205964714289">
        <ele>805.24000000000001</ele>
        <time>2025-05-09T09:35:20Z</time>
      </trkpt>
      <trkpt lat="36.589341033250093" lon="-5.278105968609452">
        <ele>806.20000000000005</ele>
        <time>2025-05-09T09:35:21Z</time>
      </trkpt>
      <trkpt lat="36.589498026296496" lon="-5.278024999424815">
        <ele>807.15999999999997</ele>
        <time>2025-05-09T09:35:22Z</time>
      </trkpt>
      <trkpt lat="36.58965602517128" lon="-5.277943024411798">
        <ele>808.13</ele>
        <time>2025-05-09T09:35:23Z</time>
      </trkpt>
      <trkpt lat="36.590998973697424" lon="-5.277073988690972">
        <ele>818.22000000000003</ele>
        <time>2025-05-09T09:35:32Z</time>
      </trkpt>
      <trkpt lat="36.591239031404257" lon="-5.276882965117693">
        <ele>820.62</ele>
        <time>2025-05-09T09:35:34Z</time>
      </trkpt>
      <trkpt lat="36.591336010023952" lon="-5.276741981506348">
        <ele>821.58000000000004</ele>
        <time>2025-05-09T09:35:35Z</time>
      </trkpt>
      <trkpt lat="36.591424020007253" lon="-5.276593035086989">
        <ele>823.50999999999999</ele>
        <time>2025-05-09T09:35:36Z</time>
      </trkpt>
      <trkpt lat="36.591649996116757" lon="-5.276138987392187">
        <ele>825.90999999999997</ele>
        <time>2025-05-09T09:35:39Z</time>
      </trkpt>
      <trkpt lat="36.59174001775682" lon="-5.276007978245616">
        <ele>826.38999999999999</ele>
        <time>2025-05-09T09:35:40Z</time>
      </trkpt>
      <trkpt lat="36.591812018305063" lon="-5.275904964655638">
        <ele>826.87</ele>
        <time>2025-05-09T09:35:41Z</time>
      </trkpt>
      <trkpt lat="36.591948978602886" lon="-5.275817038491368">
        <ele>827.35000000000002</ele>
        <time>2025-05-09T09:35:42Z</time>
      </trkpt>
      <trkpt lat="36.592079987749457" lon="-5.275732968002558">
        <ele>827.35000000000002</ele>
        <time>2025-05-09T09:35:43Z</time>
      </trkpt>
      <trkpt lat="36.592218037694693" lon="-5.275645041838288">
        <ele>827.35000000000002</ele>
        <time>2025-05-09T09:35:44Z</time>
      </trkpt>
      <trkpt lat="36.592936031520367" lon="-5.275184037163854">
        <ele>827.35000000000002</ele>
        <time>2025-05-09T09:35:49Z</time>
      </trkpt>
      <trkpt lat="36.593028986826539" lon="-5.275044981390238">
        <ele>827.35000000000002</ele>
        <time>2025-05-09T09:35:50Z</time>
      </trkpt>
      <trkpt lat="36.593114985153079" lon="-5.274905003607273">
        <ele>827.83000000000004</ele>
        <time>2025-05-09T09:35:51Z</time>
      </trkpt>
      <trkpt lat="36.593162007629871" lon="-5.274749016389251">
        <ele>828.30999999999995</ele>
        <time>2025-05-09T09:35:52Z</time>
      </trkpt>
      <trkpt lat="36.593206012621522" lon="-5.274588000029326">
        <ele>829.26999999999998</ele>
        <time>2025-05-09T09:35:53Z</time>
      </trkpt>
      <trkpt lat="36.593250017613173" lon="-5.274432012811303">
        <ele>829.75999999999999</ele>
        <time>2025-05-09T09:35:54Z</time>
      </trkpt>
      <trkpt lat="36.593289999291301" lon="-5.274286000058055">
        <ele>830.24000000000001</ele>
        <time>2025-05-09T09:35:55Z</time>
      </trkpt>
      <trkpt lat="36.593328975141048" lon="-5.274147028103471">
        <ele>830.72000000000003</ele>
        <time>2025-05-09T09:35:56Z</time>
      </trkpt>
      <trkpt lat="36.593385972082615" lon="-5.274022975936532">
        <ele>831.20000000000005</ele>
        <time>2025-05-09T09:35:57Z</time>
      </trkpt>
      <trkpt lat="36.593447998166084" lon="-5.273898001760244">
        <ele>831.67999999999995</ele>
        <time>2025-05-09T09:35:58Z</time>
      </trkpt>
      <trkpt lat="36.593733988702297" lon="-5.273556020110846">
        <ele>831.67999999999995</ele>
        <time>2025-05-09T09:36:01Z</time>
      </trkpt>
      <trkpt lat="36.594747025519609" lon="-5.272777006030083">
        <ele>827.83000000000004</ele>
        <time>2025-05-09T09:36:10Z</time>
      </trkpt>
      <trkpt lat="36.594864958897233" lon="-5.272727971896529">
        <ele>827.35000000000002</ele>
        <time>2025-05-09T09:36:11Z</time>
      </trkpt>
      <trkpt lat="36.594982976093888" lon="-5.272701987996697">
        <ele>826.87</ele>
        <time>2025-05-09T09:36:12Z</time>
      </trkpt>
      <trkpt lat="36.595098981633782" lon="-5.272681033238769">
        <ele>826.38999999999999</ele>
        <time>2025-05-09T09:36:13Z</time>
      </trkpt>
      <trkpt lat="36.595353037118912" lon="-5.272681033238769">
        <ele>825.42999999999995</ele>
        <time>2025-05-09T09:36:15Z</time>
      </trkpt>
      <trkpt lat="36.595485974103212" lon="-5.272700982168317">
        <ele>824.95000000000005</ele>
        <time>2025-05-09T09:36:16Z</time>
      </trkpt>
      <trkpt lat="36.596102965995669" lon="-5.272794021293521">
        <ele>823.50999999999999</ele>
        <time>2025-05-09T09:36:21Z</time>
      </trkpt>
      <trkpt lat="36.596207991242409" lon="-5.27274901047349">
        <ele>823.02999999999997</ele>
        <time>2025-05-09T09:36:22Z</time>
      </trkpt>
      <trkpt lat="36.596306981518865" lon="-5.2727070171386">
        <ele>822.54999999999995</ele>
        <time>2025-05-09T09:36:23Z</time>
      </trkpt>
      <trkpt lat="36.596407983452082" lon="-5.272658988833427">
        <ele>822.05999999999995</ele>
        <time>2025-05-09T09:36:24Z</time>
      </trkpt>
      <trkpt lat="36.596485013142228" lon="-5.272563016042113">
        <ele>821.58000000000004</ele>
        <time>2025-05-09T09:36:25Z</time>
      </trkpt>
      <trkpt lat="36.596562964841723" lon="-5.272465031594038">
        <ele>821.10000000000002</ele>
        <time>2025-05-09T09:36:26Z</time>
      </trkpt>
      <trkpt lat="36.5971340239048" lon="-5.271850973367691">
        <ele>818.22000000000003</ele>
        <time>2025-05-09T09:36:32Z</time>
      </trkpt>
      <trkpt lat="36.597238965332508" lon="-5.271767992526293">
        <ele>817.25999999999999</ele>
        <time>2025-05-09T09:36:33Z</time>
      </trkpt>
      <trkpt lat="36.597341978922486" lon="-5.27169699780643">
        <ele>816.29999999999995</ele>
        <time>2025-05-09T09:36:34Z</time>
      </trkpt>
      <trkpt lat="36.597459996119142" lon="-5.27167503722012">
        <ele>815.34000000000003</ele>
        <time>2025-05-09T09:36:35Z</time>
      </trkpt>
      <trkpt lat="36.597562003880739" lon="-5.271657016128302">
        <ele>814.85000000000002</ele>
        <time>2025-05-09T09:36:36Z</time>
      </trkpt>
      <trkpt lat="36.597684966400266" lon="-5.271699009463191">
        <ele>813.88999999999999</ele>
        <time>2025-05-09T09:36:37Z</time>
      </trkpt>
      <trkpt lat="36.597802983596921" lon="-5.2717399969697">
        <ele>813.40999999999997</ele>
        <time>2025-05-09T09:36:38Z</time>
      </trkpt>
      <trkpt lat="36.597923012450337" lon="-5.271780984476209">
        <ele>812.45000000000005</ele>
        <time>2025-05-09T09:36:39Z</time>
      </trkpt>
      <trkpt lat="36.598042035475373" lon="-5.271822977811098">
        <ele>811.49000000000001</ele>
        <time>2025-05-09T09:36:40Z</time>
      </trkpt>
      <trkpt lat="36.598158963024616" lon="-5.271849967539311">
        <ele>810.52999999999997</ele>
        <time>2025-05-09T09:36:41Z</time>
      </trkpt>
      <trkpt lat="36.598282009363174" lon="-5.271849967539311">
        <ele>810.04999999999995</ele>
        <time>2025-05-09T09:36:42Z</time>
      </trkpt>
      <trkpt lat="36.59840296022594" lon="-5.271835969761014">
        <ele>809.09000000000003</ele>
        <time>2025-05-09T09:36:43Z</time>
      </trkpt>
      <trkpt lat="36.598528018221259" lon="-5.271768998354673">
        <ele>808.13</ele>
        <time>2025-05-09T09:36:44Z</time>
      </trkpt>
      <trkpt lat="36.598672019317746" lon="-5.271690962836146">
        <ele>807.15999999999997</ele>
        <time>2025-05-09T09:36:45Z</time>
      </trkpt>
      <trkpt lat="36.598845021799207" lon="-5.271597001701593">
        <ele>806.20000000000005</ele>
        <time>2025-05-09T09:36:46Z</time>
      </trkpt>
      <trkpt lat="36.599555974826217" lon="-5.271175978705287">
        <ele>801.39999999999998</ele>
        <time>2025-05-09T09:36:50Z</time>
      </trkpt>
      <trkpt lat="36.599692013114691" lon="-5.271036000922322">
        <ele>800.44000000000005</ele>
        <time>2025-05-09T09:36:51Z</time>
      </trkpt>
      <trkpt lat="36.600004993379116" lon="-5.270587988197804">
        <ele>797.07000000000005</ele>
        <time>2025-05-09T09:36:54Z</time>
      </trkpt>
      <trkpt lat="36.60005696117878" lon="-5.270422026515007">
        <ele>796.11000000000001</ele>
        <time>2025-05-09T09:36:55Z</time>
      </trkpt>
      <trkpt lat="36.600072970613837" lon="-5.270253969356418">
        <ele>795.63</ele>
        <time>2025-05-09T09:36:56Z</time>
      </trkpt>
      <trkpt lat="36.600069031119347" lon="-5.27008599601686">
        <ele>794.66999999999996</ele>
        <time>2025-05-09T09:36:57Z</time>
      </trkpt>
      <trkpt lat="36.600053021684289" lon="-5.269915005192161">
        <ele>793.22000000000003</ele>
        <time>2025-05-09T09:36:58Z</time>
      </trkpt>
      <trkpt lat="36.600038018077612" lon="-5.269746026024222">
        <ele>792.25999999999999</ele>
        <time>2025-05-09T09:36:59Z</time>
      </trkpt>
      <trkpt lat="36.5999920014292" lon="-5.2695900388062">
        <ele>791.29999999999995</ele>
        <time>2025-05-09T09:37:00Z</time>
      </trkpt>
      <trkpt lat="36.599921006709337" lon="-5.269457018002868">
        <ele>790.34000000000003</ele>
        <time>2025-05-09T09:37:01Z</time>
      </trkpt>
      <trkpt lat="36.599782034754753" lon="-5.269199023023248">
        <ele>788.41999999999996</ele>
        <time>2025-05-09T09:37:03Z</time>
      </trkpt>
      <trkpt lat="36.599713973701" lon="-5.269072037190199">
        <ele>786.98000000000002</ele>
        <time>2025-05-09T09:37:04Z</time>
      </trkpt>
      <trkpt lat="36.599692013114691" lon="-5.268940022215247">
        <ele>786.01999999999998</ele>
        <time>2025-05-09T09:37:05Z</time>
      </trkpt>
      <trkpt lat="36.599671980366111" lon="-5.268793003633618">
        <ele>785.04999999999995</ele>
        <time>2025-05-09T09:37:06Z</time>
      </trkpt>
      <trkpt lat="36.599698970094323" lon="-5.268656965345144">
        <ele>784.09000000000003</ele>
        <time>2025-05-09T09:37:07Z</time>
      </trkpt>
      <trkpt lat="36.59975403919816" lon="-5.268526040017605">
        <ele>783.13</ele>
        <time>2025-05-09T09:37:08Z</time>
      </trkpt>
      <trkpt lat="36.599836014211178" lon="-5.26841196231544">
        <ele>782.16999999999996</ele>
        <time>2025-05-09T09:37:09Z</time>
      </trkpt>
      <trkpt lat="36.599935004487634" lon="-5.268305009230971">
        <ele>781.21000000000004</ele>
        <time>2025-05-09T09:37:10Z</time>
      </trkpt>
      <trkpt lat="36.600152011960745" lon="-5.268125971779227">
        <ele>779.76999999999998</ele>
        <time>2025-05-09T09:37:12Z</time>
      </trkpt>
      <trkpt lat="36.600277991965413" lon="-5.268100993707776">
        <ele>778.32000000000005</ele>
        <time>2025-05-09T09:37:13Z</time>
      </trkpt>
      <trkpt lat="36.600400032475591" lon="-5.26811096817255">
        <ele>777.84000000000003</ele>
        <time>2025-05-09T09:37:14Z</time>
      </trkpt>
      <trkpt lat="36.600518971681595" lon="-5.268146004527807">
        <ele>776.88</ele>
        <time>2025-05-09T09:37:15Z</time>
      </trkpt>
      <trkpt lat="36.600633971393108" lon="-5.268203001469374">
        <ele>775.91999999999996</ele>
        <time>2025-05-09T09:37:16Z</time>
      </trkpt>
      <trkpt lat="36.600751988589764" lon="-5.268262010067701">
        <ele>774.96000000000004</ele>
        <time>2025-05-09T09:37:17Z</time>
      </trkpt>
      <trkpt lat="36.600871011614799" lon="-5.268286988139153">
        <ele>774</ele>
        <time>2025-05-09T09:37:18Z</time>
      </trkpt>
      <trkpt lat="36.600986011326313" lon="-5.268308026716113">
        <ele>772.55999999999995</ele>
        <time>2025-05-09T09:37:19Z</time>
      </trkpt>
      <trkpt lat="36.60108701325953" lon="-5.268263015896082">
        <ele>771.60000000000002</ele>
        <time>2025-05-09T09:37:20Z</time>
      </trkpt>
      <trkpt lat="36.601183991879225" lon="-5.268205013126135">
        <ele>770.63</ele>
        <time>2025-05-09T09:37:21Z</time>
      </trkpt>
      <trkpt lat="36.601272001862526" lon="-5.26810996234417">
        <ele>769.66999999999996</ele>
        <time>2025-05-09T09:37:22Z</time>
      </trkpt>
      <trkpt lat="36.601365962997079" lon="-5.268009966239333">
        <ele>769.19000000000005</ele>
        <time>2025-05-09T09:37:23Z</time>
      </trkpt>
      <trkpt lat="36.602314962074161" lon="-5.267117964103818">
        <ele>761.98000000000002</ele>
        <time>2025-05-09T09:37:32Z</time>
      </trkpt>
      <trkpt lat="36.602426022291183" lon="-5.267045963555574">
        <ele>761.5</ele>
        <time>2025-05-09T09:37:33Z</time>
      </trkpt>
      <trkpt lat="36.602536998689175" lon="-5.267004976049066">
        <ele>760.53999999999996</ele>
        <time>2025-05-09T09:37:34Z</time>
      </trkpt>
      <trkpt lat="36.602650992572308" lon="-5.267018973827362">
        <ele>759.58000000000004</ele>
        <time>2025-05-09T09:37:35Z</time>
      </trkpt>
      <trkpt lat="36.602762974798679" lon="-5.267032971605659">
        <ele>758.62</ele>
        <time>2025-05-09T09:37:36Z</time>
      </trkpt>
      <trkpt lat="36.602864982560277" lon="-5.267061972990632">
        <ele>758.13999999999999</ele>
        <time>2025-05-09T09:37:37Z</time>
      </trkpt>
      <trkpt lat="36.602962967008352" lon="-5.267137996852398">
        <ele>757.17999999999995</ele>
        <time>2025-05-09T09:37:38Z</time>
      </trkpt>
      <trkpt lat="36.603050976991653" lon="-5.267221983522177">
        <ele>756.21000000000004</ele>
        <time>2025-05-09T09:37:39Z</time>
      </trkpt>
      <trkpt lat="36.603120965883136" lon="-5.267337989062071">
        <ele>755.73000000000002</ele>
        <time>2025-05-09T09:37:40Z</time>
      </trkpt>
      <trkpt lat="36.603188021108508" lon="-5.267448965460062">
        <ele>754.76999999999998</ele>
        <time>2025-05-09T09:37:41Z</time>
      </trkpt>
      <trkpt lat="36.603253986686468" lon="-5.267560025677085">
        <ele>754.28999999999996</ele>
        <time>2025-05-09T09:37:42Z</time>
      </trkpt>
      <trkpt lat="36.603302014991641" lon="-5.267681982368231">
        <ele>753.33000000000004</ele>
        <time>2025-05-09T09:37:43Z</time>
      </trkpt>
      <trkpt lat="36.603325987234712" lon="-5.267821038141847">
        <ele>752.37</ele>
        <time>2025-05-09T09:37:44Z</time>
      </trkpt>
      <trkpt lat="36.603355994448066" lon="-5.267986999824643">
        <ele>751.40999999999997</ele>
        <time>2025-05-09T09:37:45Z</time>
      </trkpt>
      <trkpt lat="36.60334400832653" lon="-5.268121026456356">
        <ele>749.97000000000003</ele>
        <time>2025-05-09T09:37:46Z</time>
      </trkpt>
      <trkpt lat="36.603327998891473" lon="-5.26827902533114">
        <ele>749.49000000000001</ele>
        <time>2025-05-09T09:37:47Z</time>
      </trkpt>
      <trkpt lat="36.603291034698486" lon="-5.268593011423945">
        <ele>747.55999999999995</ele>
        <time>2025-05-09T09:37:49Z</time>
      </trkpt>
      <trkpt lat="36.603272007778287" lon="-5.268750004470348">
        <ele>746.60000000000002</ele>
        <time>2025-05-09T09:37:50Z</time>
      </trkpt>
      <trkpt lat="36.603253986686468" lon="-5.268909009173513">
        <ele>745.63999999999999</ele>
        <time>2025-05-09T09:37:51Z</time>
      </trkpt>
      <trkpt lat="36.60327703692019" lon="-5.269074970856309">
        <ele>744.67999999999995</ele>
        <time>2025-05-09T09:37:52Z</time>
      </trkpt>
      <trkpt lat="36.603314001113176" lon="-5.269231041893363">
        <ele>743.72000000000003</ele>
        <time>2025-05-09T09:37:53Z</time>
      </trkpt>
      <trkpt lat="36.603368986397982" lon="-5.269366996362805">
        <ele>742.75999999999999</ele>
        <time>2025-05-09T09:37:54Z</time>
      </trkpt>
      <trkpt lat="36.603441992774606" lon="-5.269467998296022">
        <ele>741.30999999999995</ele>
        <time>2025-05-09T09:37:55Z</time>
      </trkpt>
      <trkpt lat="36.6035389713943" lon="-5.269537987187505">
        <ele>739.87</ele>
        <time>2025-05-09T09:37:56Z</time>
      </trkpt>
      <trkpt lat="36.603641984984279" lon="-5.269582998007536">
        <ele>738.90999999999997</ele>
        <time>2025-05-09T09:37:57Z</time>
      </trkpt>
      <trkpt lat="36.603758996352553" lon="-5.269600013270974">
        <ele>737.95000000000005</ele>
        <time>2025-05-09T09:37:58Z</time>
      </trkpt>
      <trkpt lat="36.603885982185602" lon="-5.269619040191174">
        <ele>736.99000000000001</ele>
        <time>2025-05-09T09:37:59Z</time>
      </trkpt>
      <trkpt lat="36.604128973558545" lon="-5.269711995497346">
        <ele>736.02999999999997</ele>
        <time>2025-05-09T09:38:01Z</time>
      </trkpt>
      <trkpt lat="36.604235004633665" lon="-5.269781984388828">
        <ele>735.07000000000005</ele>
        <time>2025-05-09T09:38:02Z</time>
      </trkpt>
      <trkpt lat="36.604345981031656" lon="-5.269855996593833">
        <ele>734.10000000000002</ele>
        <time>2025-05-09T09:38:03Z</time>
      </trkpt>
      <trkpt lat="36.604457041248679" lon="-5.269950963556767">
        <ele>733.62</ele>
        <time>2025-05-09T09:38:04Z</time>
      </trkpt>
      <trkpt lat="36.604561982676387" lon="-5.270065041258931">
        <ele>732.65999999999997</ele>
        <time>2025-05-09T09:38:05Z</time>
      </trkpt>
      <trkpt lat="36.604851996526122" lon="-5.270380033180118">
        <ele>730.25999999999999</ele>
        <time>2025-05-09T09:38:08Z</time>
      </trkpt>
      <trkpt lat="36.604948975145817" lon="-5.270453961566091">
        <ele>729.29999999999995</ele>
        <time>2025-05-09T09:38:09Z</time>
      </trkpt>
      <trkpt lat="36.605050982907414" lon="-5.270497966557741">
        <ele>728.82000000000005</ele>
        <time>2025-05-09T09:38:10Z</time>
      </trkpt>
      <trkpt lat="36.605167994275689" lon="-5.270510036498308">
        <ele>727.86000000000001</ele>
        <time>2025-05-09T09:38:11Z</time>
      </trkpt>
      <trkpt lat="36.605279976502061" lon="-5.270522022619844">
        <ele>727.37</ele>
        <time>2025-05-09T09:38:12Z</time>
      </trkpt>
      <trkpt lat="36.605517016723752" lon="-5.270548006519675">
        <ele>726.40999999999997</ele>
        <time>2025-05-09T09:38:14Z</time>
      </trkpt>
      <trkpt lat="36.605651965364814" lon="-5.270562004297972">
        <ele>725.92999999999995</ele>
        <time>2025-05-09T09:38:15Z</time>
      </trkpt>
      <trkpt lat="36.60575196146965" lon="-5.270534008741379">
        <ele>724.97000000000003</ele>
        <time>2025-05-09T09:38:16Z</time>
      </trkpt>
      <trkpt lat="36.605865033343434" lon="-5.270504001528025">
        <ele>724.49000000000001</ele>
        <time>2025-05-09T09:38:17Z</time>
      </trkpt>
      <trkpt lat="36.605975003913045" lon="-5.270458990707994">
        <ele>724.00999999999999</ele>
        <time>2025-05-09T09:38:18Z</time>
      </trkpt>
      <trkpt lat="36.607098011299968" lon="-5.269908970221877">
        <ele>720.15999999999997</ele>
        <time>2025-05-09T09:38:30Z</time>
      </trkpt>
      <trkpt lat="36.607304960489273" lon="-5.269825989380479">
        <ele>719.67999999999995</ele>
        <time>2025-05-09T09:38:33Z</time>
      </trkpt>
      <trkpt lat="36.607365980744362" lon="-5.269800005480647">
        <ele>719.20000000000005</ele>
        <time>2025-05-09T09:38:34Z</time>
      </trkpt>
      <trkpt lat="36.607836959883571" lon="-5.269629014655948">
        <ele>720.15999999999997</ele>
        <time>2025-05-09T09:38:40Z</time>
      </trkpt>
      <trkpt lat="36.608783025294542" lon="-5.269547961652279">
        <ele>724.97000000000003</ele>
        <time>2025-05-09T09:38:49Z</time>
      </trkpt>
      <trkpt lat="36.608883021399379" lon="-5.269586015492678">
        <ele>725.45000000000005</ele>
        <time>2025-05-09T09:38:50Z</time>
      </trkpt>
      <trkpt lat="36.608974970877171" lon="-5.269621973857284">
        <ele>726.40999999999997</ele>
        <time>2025-05-09T09:38:51Z</time>
      </trkpt>
      <trkpt lat="36.609061975032091" lon="-5.269674025475979">
        <ele>726.88999999999999</ele>
        <time>2025-05-09T09:38:52Z</time>
      </trkpt>
      <trkpt lat="36.609149985015392" lon="-5.269747031852603">
        <ele>727.37</ele>
        <time>2025-05-09T09:38:53Z</time>
      </trkpt>
      <trkpt lat="36.60923196002841" lon="-5.269849039614201">
        <ele>727.86000000000001</ele>
        <time>2025-05-09T09:38:54Z</time>
      </trkpt>
      <trkpt lat="36.609947020187974" lon="-5.270729977637529">
        <ele>729.29999999999995</ele>
        <time>2025-05-09T09:39:02Z</time>
      </trkpt>
      <trkpt lat="36.610054979100823" lon="-5.270862998440862">
        <ele>729.77999999999997</ele>
        <time>2025-05-09T09:39:03Z</time>
      </trkpt>
      <trkpt lat="36.610200991854072" lon="-5.27094597928226">
        <ele>730.25999999999999</ele>
        <time>2025-05-09T09:39:04Z</time>
      </trkpt>
      <trkpt lat="36.610366031527519" lon="-5.271025020629168">
        <ele>730.74000000000001</ele>
        <time>2025-05-09T09:39:05Z</time>
      </trkpt>
      <trkpt lat="36.610529981553555" lon="-5.271104983985424">
        <ele>731.70000000000005</ele>
        <time>2025-05-09T09:39:06Z</time>
      </trkpt>
      <trkpt lat="36.610684962943196" lon="-5.271178996190429">
        <ele>732.17999999999995</ele>
        <time>2025-05-09T09:39:07Z</time>
      </trkpt>
      <trkpt lat="36.611281000077724" lon="-5.271485019475222">
        <ele>736.99000000000001</ele>
        <time>2025-05-09T09:39:12Z</time>
      </trkpt>
      <trkpt lat="36.612096978351474" lon="-5.272291023284197">
        <ele>742.27999999999997</ele>
        <time>2025-05-09T09:39:18Z</time>
      </trkpt>
      <trkpt lat="36.61245102994144" lon="-5.272662006318569">
        <ele>745.63999999999999</ele>
        <time>2025-05-09T09:39:21Z</time>
      </trkpt>
      <trkpt lat="36.612576004117727" lon="-5.272725960239768">
        <ele>746.60000000000002</ele>
        <time>2025-05-09T09:39:22Z</time>
      </trkpt>
      <trkpt lat="36.612701984122396" lon="-5.272788992151618">
        <ele>747.55999999999995</ele>
        <time>2025-05-09T09:39:23Z</time>
      </trkpt>
      <trkpt lat="36.612844979390502" lon="-5.27277298271656">
        <ele>748.03999999999996</ele>
        <time>2025-05-09T09:39:24Z</time>
      </trkpt>
      <trkpt lat="36.61298998631537" lon="-5.272751022130251">
        <ele>749</ele>
        <time>2025-05-09T09:39:25Z</time>
      </trkpt>
      <trkpt lat="36.613116972148418" lon="-5.27266401797533">
        <ele>749.97000000000003</ele>
        <time>2025-05-09T09:39:26Z</time>
      </trkpt>
      <trkpt lat="36.61324798129499" lon="-5.272573996335268">
        <ele>750.45000000000005</ele>
        <time>2025-05-09T09:39:27Z</time>
      </trkpt>
      <trkpt lat="36.613382007926702" lon="-5.272503001615405">
        <ele>751.40999999999997</ele>
        <time>2025-05-09T09:39:28Z</time>
      </trkpt>
      <trkpt lat="36.613531038165092" lon="-5.272466037422419">
        <ele>752.37</ele>
        <time>2025-05-09T09:39:29Z</time>
      </trkpt>
      <trkpt lat="36.613676967099309" lon="-5.2724289894104">
        <ele>752.85000000000002</ele>
        <time>2025-05-09T09:39:30Z</time>
      </trkpt>
      <trkpt lat="36.613837983459234" lon="-5.272455979138613">
        <ele>753.33000000000004</ele>
        <time>2025-05-09T09:39:31Z</time>
      </trkpt>
      <trkpt lat="36.614002017304301" lon="-5.272483974695206">
        <ele>753.80999999999995</ele>
        <time>2025-05-09T09:39:32Z</time>
      </trkpt>
      <trkpt lat="36.614165967330337" lon="-5.272511970251799">
        <ele>754.28999999999996</ele>
        <time>2025-05-09T09:39:33Z</time>
      </trkpt>
      <trkpt lat="36.614808021113276" lon="-5.272655971348286">
        <ele>755.73000000000002</ele>
        <time>2025-05-09T09:39:37Z</time>
      </trkpt>
      <trkpt lat="36.614941963925958" lon="-5.272727971896529">
        <ele>756.69000000000005</ele>
        <time>2025-05-09T09:39:38Z</time>
      </trkpt>
      <trkpt lat="36.615060986950994" lon="-5.272848000749946">
        <ele>757.65999999999997</ele>
        <time>2025-05-09T09:39:39Z</time>
      </trkpt>
      <trkpt lat="36.615429036319256" lon="-5.273210015147924">
        <ele>759.58000000000004</ele>
        <time>2025-05-09T09:39:42Z</time>
      </trkpt>
      <trkpt lat="36.615572031587362" lon="-5.273299030959606">
        <ele>760.53999999999996</ele>
        <time>2025-05-09T09:39:43Z</time>
      </trkpt>
      <trkpt lat="36.615716032683849" lon="-5.273387962952256">
        <ele>761.5</ele>
        <time>2025-05-09T09:39:44Z</time>
      </trkpt>
      <trkpt lat="36.617153026163578" lon="-5.27397402562201">
        <ele>771.60000000000002</ele>
        <time>2025-05-09T09:39:53Z</time>
      </trkpt>
      <trkpt lat="36.61730800755322" lon="-5.27397402562201">
        <ele>772.55999999999995</ele>
        <time>2025-05-09T09:39:54Z</time>
      </trkpt>
      <trkpt lat="36.617474975064397" lon="-5.27397402562201">
        <ele>774</ele>
        <time>2025-05-09T09:39:55Z</time>
      </trkpt>
      <trkpt lat="36.617627022787929" lon="-5.27393102645874">
        <ele>775.44000000000005</ele>
        <time>2025-05-09T09:39:56Z</time>
      </trkpt>
      <trkpt lat="36.617774963378906" lon="-5.27388802729547">
        <ele>776.39999999999998</ele>
        <time>2025-05-09T09:39:57Z</time>
      </trkpt>
      <trkpt lat="36.61793103441596" lon="-5.273820972070098">
        <ele>777.84000000000003</ele>
        <time>2025-05-09T09:39:58Z</time>
      </trkpt>
      <trkpt lat="36.618519024923444" lon="-5.273532969877124">
        <ele>782.64999999999998</ele>
        <time>2025-05-09T09:40:02Z</time>
      </trkpt>
      <trkpt lat="36.618651961907744" lon="-5.273430040106177">
        <ele>783.61000000000001</ele>
        <time>2025-05-09T09:40:03Z</time>
      </trkpt>
      <trkpt lat="36.6187699791044" lon="-5.273304982110858">
        <ele>784.57000000000005</ele>
        <time>2025-05-09T09:40:04Z</time>
      </trkpt>
      <trkpt lat="36.618880033493042" lon="-5.27315997518599">
        <ele>785.52999999999997</ele>
        <time>2025-05-09T09:40:05Z</time>
      </trkpt>
      <trkpt lat="36.618967959657311" lon="-5.272990996018052">
        <ele>786.5</ele>
        <time>2025-05-09T09:40:06Z</time>
      </trkpt>
      <trkpt lat="36.619804976508021" lon="-5.271392986178398">
        <ele>794.19000000000005</ele>
        <time>2025-05-09T09:40:15Z</time>
      </trkpt>
      <trkpt lat="36.619914025068283" lon="-5.271256025880575">
        <ele>795.14999999999998</ele>
        <time>2025-05-09T09:40:16Z</time>
      </trkpt>
      <trkpt lat="36.62003799341619" lon="-5.271131973713636">
        <ele>796.11000000000001</ele>
        <time>2025-05-09T09:40:17Z</time>
      </trkpt>
      <trkpt lat="36.620174031704664" lon="-5.271026026457548">
        <ele>796.11000000000001</ele>
        <time>2025-05-09T09:40:18Z</time>
      </trkpt>
      <trkpt lat="36.620908034965396" lon="-5.270583964884281">
        <ele>796.11000000000001</ele>
        <time>2025-05-09T09:40:23Z</time>
      </trkpt>
      <trkpt lat="36.621061004698277" lon="-5.270563010126352">
        <ele>795.14999999999998</ele>
        <time>2025-05-09T09:40:24Z</time>
      </trkpt>
      <trkpt lat="36.621225038543344" lon="-5.270568039268255">
        <ele>794.66999999999996</ele>
        <time>2025-05-09T09:40:25Z</time>
      </trkpt>
      <trkpt lat="36.621557967737317" lon="-5.270580025389791">
        <ele>793.71000000000004</ele>
        <time>2025-05-09T09:40:27Z</time>
      </trkpt>
      <trkpt lat="36.621719989925623" lon="-5.270567033439875">
        <ele>793.22000000000003</ele>
        <time>2025-05-09T09:40:28Z</time>
      </trkpt>
      <trkpt lat="36.621857034042478" lon="-5.270494027063251">
        <ele>792.74000000000001</ele>
        <time>2025-05-09T09:40:29Z</time>
      </trkpt>
      <trkpt lat="36.621973039582372" lon="-5.270377015694976">
        <ele>792.25999999999999</ele>
        <time>2025-05-09T09:40:30Z</time>
      </trkpt>
      <trkpt lat="36.622090972959995" lon="-5.270258998498321">
        <ele>791.77999999999997</ele>
        <time>2025-05-09T09:40:31Z</time>
      </trkpt>
      <trkpt lat="36.622205972671509" lon="-5.270143998786807">
        <ele>791.77999999999997</ele>
        <time>2025-05-09T09:40:32Z</time>
      </trkpt>
      <trkpt lat="36.622339999303222" lon="-5.270080966874957">
        <ele>791.77999999999997</ele>
        <time>2025-05-09T09:40:33Z</time>
      </trkpt>
      <trkpt lat="36.622485006228089" lon="-5.270036961883307">
        <ele>791.77999999999997</ele>
        <time>2025-05-09T09:40:34Z</time>
      </trkpt>
      <trkpt lat="36.622634958475828" lon="-5.269991029053927">
        <ele>792.25999999999999</ele>
        <time>2025-05-09T09:40:35Z</time>
      </trkpt>
      <trkpt lat="36.622934024780989" lon="-5.269890027120709">
        <ele>792.74000000000001</ele>
        <time>2025-05-09T09:40:37Z</time>
      </trkpt>
      <trkpt lat="36.623062016442418" lon="-5.269794976338744">
        <ele>793.22000000000003</ele>
        <time>2025-05-09T09:40:38Z</time>
      </trkpt>
      <trkpt lat="36.623168969526887" lon="-5.269666984677315">
        <ele>793.71000000000004</ele>
        <time>2025-05-09T09:40:39Z</time>
      </trkpt>
      <trkpt lat="36.623275000602007" lon="-5.269518960267305">
        <ele>794.66999999999996</ele>
        <time>2025-05-09T09:40:40Z</time>
      </trkpt>
      <trkpt lat="36.623365022242069" lon="-5.269350986927748">
        <ele>795.14999999999998</ele>
        <time>2025-05-09T09:40:41Z</time>
      </trkpt>
      <trkpt lat="36.623448003083467" lon="-5.269173039123416">
        <ele>796.11000000000001</ele>
        <time>2025-05-09T09:40:42Z</time>
      </trkpt>
      <trkpt lat="36.623530983924866" lon="-5.268991990014911">
        <ele>796.59000000000003</ele>
        <time>2025-05-09T09:40:43Z</time>
      </trkpt>
      <trkpt lat="36.623614970594645" lon="-5.268810018897057">
        <ele>797.54999999999995</ele>
        <time>2025-05-09T09:40:44Z</time>
      </trkpt>
      <trkpt lat="36.623698035255075" lon="-5.268630981445313">
        <ele>798.50999999999999</ele>
        <time>2025-05-09T09:40:45Z</time>
      </trkpt>
      <trkpt lat="36.623790990561247" lon="-5.268460996448994">
        <ele>798.99000000000001</ele>
        <time>2025-05-09T09:40:46Z</time>
      </trkpt>
      <trkpt lat="36.624067006632686" lon="-5.26795900426805">
        <ele>801.88</ele>
        <time>2025-05-09T09:40:49Z</time>
      </trkpt>
      <trkpt lat="36.624812996014953" lon="-5.266815964132547">
        <ele>808.13</ele>
        <time>2025-05-09T09:40:55Z</time>
      </trkpt>
      <trkpt lat="36.625433005392551" lon="-5.265836035832763">
        <ele>814.37</ele>
        <time>2025-05-09T09:41:01Z</time>
      </trkpt>
      <trkpt lat="36.626520976424217" lon="-5.263262959197164">
        <ele>811.97000000000003</ele>
        <time>2025-05-09T09:41:14Z</time>
      </trkpt>
      <trkpt lat="36.62667696364224" lon="-5.262872027233243">
        <ele>810.52999999999997</ele>
        <time>2025-05-09T09:41:16Z</time>
      </trkpt>
      <trkpt lat="36.626788023859262" lon="-5.262686032801867">
        <ele>809.57000000000005</ele>
        <time>2025-05-09T09:41:17Z</time>
      </trkpt>
      <trkpt lat="36.626915009692311" lon="-5.262511018663645">
        <ele>809.09000000000003</ele>
        <time>2025-05-09T09:41:18Z</time>
      </trkpt>
      <trkpt lat="36.627059010788798" lon="-5.262353019788861">
        <ele>808.13</ele>
        <time>2025-05-09T09:41:19Z</time>
      </trkpt>
      <trkpt lat="36.627202006056905" lon="-5.262197032570839">
        <ele>807.15999999999997</ele>
        <time>2025-05-09T09:41:20Z</time>
      </trkpt>
      <trkpt lat="36.627467963844538" lon="-5.261861002072692">
        <ele>806.67999999999995</ele>
        <time>2025-05-09T09:41:22Z</time>
      </trkpt>
      <trkpt lat="36.627577012404799" lon="-5.261681964620948">
        <ele>806.67999999999995</ele>
        <time>2025-05-09T09:41:23Z</time>
      </trkpt>
      <trkpt lat="36.627667034044862" lon="-5.26149001903832">
        <ele>807.15999999999997</ele>
        <time>2025-05-09T09:41:24Z</time>
      </trkpt>
      <trkpt lat="36.627739034593105" lon="-5.261284997686744">
        <ele>807.63999999999999</ele>
        <time>2025-05-09T09:41:25Z</time>
      </trkpt>
      <trkpt lat="36.627805000171065" lon="-5.261076958850026">
        <ele>808.13</ele>
        <time>2025-05-09T09:41:26Z</time>
      </trkpt>
      <trkpt lat="36.628712005913258" lon="-5.258886013180018">
        <ele>818.22000000000003</ele>
        <time>2025-05-09T09:41:37Z</time>
      </trkpt>
      <trkpt lat="36.628965977579355" lon="-5.258352002128959">
        <ele>820.62</ele>
        <time>2025-05-09T09:41:40Z</time>
      </trkpt>
      <trkpt lat="36.629011994227767" lon="-5.258163996040821">
        <ele>821.58000000000004</ele>
        <time>2025-05-09T09:41:41Z</time>
      </trkpt>
      <trkpt lat="36.629053987562656" lon="-5.257965009659529">
        <ele>822.54999999999995</ele>
        <time>2025-05-09T09:41:42Z</time>
      </trkpt>
      <trkpt lat="36.629178961738944" lon="-5.257377019152045">
        <ele>825.42999999999995</ele>
        <time>2025-05-09T09:41:45Z</time>
      </trkpt>
      <trkpt lat="36.629262026399374" lon="-5.257240980863571">
        <ele>825.90999999999997</ele>
        <time>2025-05-09T09:41:46Z</time>
      </trkpt>
      <trkpt lat="36.629371996968985" lon="-5.257113995030522">
        <ele>826.38999999999999</ele>
        <time>2025-05-09T09:41:47Z</time>
      </trkpt>
      <trkpt lat="36.62949101999402" lon="-5.256986003369093">
        <ele>826.38999999999999</ele>
        <time>2025-05-09T09:41:48Z</time>
      </trkpt>
      <trkpt lat="36.62964197807014" lon="-5.256882989779115">
        <ele>826.38999999999999</ele>
        <time>2025-05-09T09:41:49Z</time>
      </trkpt>
      <trkpt lat="36.630699019879103" lon="-5.255897026509047">
        <ele>822.54999999999995</ele>
        <time>2025-05-09T09:41:56Z</time>
      </trkpt>
      <trkpt lat="36.631462024524808" lon="-5.254533039405942">
        <ele>815.34000000000003</ele>
        <time>2025-05-09T09:42:03Z</time>
      </trkpt>
      <trkpt lat="36.632350003346801" lon="-5.252999989315867">
        <ele>811.49000000000001</ele>
        <time>2025-05-09T09:42:11Z</time>
      </trkpt>
      <trkpt lat="36.632743030786514" lon="-5.25199600495398">
        <ele>806.67999999999995</ele>
        <time>2025-05-09T09:42:16Z</time>
      </trkpt>
      <trkpt lat="36.632796004414558" lon="-5.251786960288882">
        <ele>805.72000000000003</ele>
        <time>2025-05-09T09:42:17Z</time>
      </trkpt>
      <trkpt lat="36.632813019677997" lon="-5.251562995836139">
        <ele>804.75999999999999</ele>
        <time>2025-05-09T09:42:18Z</time>
      </trkpt>
      <trkpt lat="36.632859958335757" lon="-5.250950027257204">
        <ele>801.88</ele>
        <time>2025-05-09T09:42:21Z</time>
      </trkpt>
      <trkpt lat="36.632912009954453" lon="-5.250766966491938">
        <ele>800.44000000000005</ele>
        <time>2025-05-09T09:42:22Z</time>
      </trkpt>
      <trkpt lat="36.632965989410877" lon="-5.250626988708973">
        <ele>799.47000000000003</ele>
        <time>2025-05-09T09:42:23Z</time>
      </trkpt>
      <trkpt lat="36.633072020485997" lon="-5.250509977340698">
        <ele>798.50999999999999</ele>
        <time>2025-05-09T09:42:24Z</time>
      </trkpt>
      <trkpt lat="36.63318601436913" lon="-5.25038399733603">
        <ele>798.02999999999997</ele>
        <time>2025-05-09T09:42:25Z</time>
      </trkpt>
      <trkpt lat="36.633305959403515" lon="-5.250251982361078">
        <ele>797.07000000000005</ele>
        <time>2025-05-09T09:42:26Z</time>
      </trkpt>
      <trkpt lat="36.633673002943397" lon="-5.249845962971449">
        <ele>794.66999999999996</ele>
        <time>2025-05-09T09:42:29Z</time>
      </trkpt>
      <trkpt lat="36.633779034018517" lon="-5.249700034037232">
        <ele>793.71000000000004</ele>
        <time>2025-05-09T09:42:30Z</time>
      </trkpt>
      <trkpt lat="36.633846005424857" lon="-5.249508004635572">
        <ele>792.74000000000001</ele>
        <time>2025-05-09T09:42:31Z</time>
      </trkpt>
      <trkpt lat="36.633915994316339" lon="-5.249311029911041">
        <ele>791.77999999999997</ele>
        <time>2025-05-09T09:42:32Z</time>
      </trkpt>
      <trkpt lat="36.633987994864583" lon="-5.249107014387846">
        <ele>791.29999999999995</ele>
        <time>2025-05-09T09:42:33Z</time>
      </trkpt>
      <trkpt lat="36.634215982630849" lon="-5.248526986688376">
        <ele>788.89999999999998</ele>
        <time>2025-05-09T09:42:36Z</time>
      </trkpt>
      <trkpt lat="36.634302986785769" lon="-5.248347027227283">
        <ele>788.41999999999996</ele>
        <time>2025-05-09T09:42:37Z</time>
      </trkpt>
      <trkpt lat="36.634422009810805" lon="-5.248195985332131">
        <ele>786.98000000000002</ele>
        <time>2025-05-09T09:42:38Z</time>
      </trkpt>
      <trkpt lat="36.634533992037177" lon="-5.248052990064025">
        <ele>786.01999999999998</ele>
        <time>2025-05-09T09:42:39Z</time>
      </trkpt>
      <trkpt lat="36.634671958163381" lon="-5.247970009222627">
        <ele>785.04999999999995</ele>
        <time>2025-05-09T09:42:40Z</time>
      </trkpt>
      <trkpt lat="36.634809002280235" lon="-5.247908988967538">
        <ele>784.09000000000003</ele>
        <time>2025-05-09T09:42:41Z</time>
      </trkpt>
      <trkpt lat="36.634959960356355" lon="-5.247871018946171">
        <ele>782.64999999999998</ele>
        <time>2025-05-09T09:42:42Z</time>
      </trkpt>
      <trkpt lat="36.635117037221789" lon="-5.247854003682733">
        <ele>781.69000000000005</ele>
        <time>2025-05-09T09:42:43Z</time>
      </trkpt>
      <trkpt lat="36.635281993076205" lon="-5.24784604087472">
        <ele>780.25</ele>
        <time>2025-05-09T09:42:44Z</time>
      </trkpt>
      <trkpt lat="36.635735034942627" lon="-5.247878981754184">
        <ele>776.88</ele>
        <time>2025-05-09T09:42:47Z</time>
      </trkpt>
      <trkpt lat="36.63585196249187" lon="-5.247959028929472">
        <ele>775.91999999999996</ele>
        <time>2025-05-09T09:42:48Z</time>
      </trkpt>
      <trkpt lat="36.635980037972331" lon="-5.248062964528799">
        <ele>775.44000000000005</ele>
        <time>2025-05-09T09:42:49Z</time>
      </trkpt>
      <trkpt lat="36.636111969128251" lon="-5.248175030574203">
        <ele>774.48000000000002</ele>
        <time>2025-05-09T09:42:50Z</time>
      </trkpt>
      <trkpt lat="36.636225963011384" lon="-5.2483219653368">
        <ele>773.51999999999998</ele>
        <time>2025-05-09T09:42:51Z</time>
      </trkpt>
      <trkpt lat="36.637155013158917" lon="-5.249431980773807">
        <ele>765.35000000000002</ele>
        <time>2025-05-09T09:42:59Z</time>
      </trkpt>
      <trkpt lat="36.63729096762836" lon="-5.249510016292334">
        <ele>764.87</ele>
        <time>2025-05-09T09:43:00Z</time>
      </trkpt>
      <trkpt lat="36.637433040887117" lon="-5.249585034325719">
        <ele>764.87</ele>
        <time>2025-05-09T09:43:01Z</time>
      </trkpt>
      <trkpt lat="36.637737974524498" lon="-5.24969500489533">
        <ele>763.41999999999996</ele>
        <time>2025-05-09T09:43:03Z</time>
      </trkpt>
      <trkpt lat="36.638215994462371" lon="-5.249770022928715">
        <ele>761.5</ele>
        <time>2025-05-09T09:43:06Z</time>
      </trkpt>
      <trkpt lat="36.638378016650677" lon="-5.249753007665277">
        <ele>761.01999999999998</ele>
        <time>2025-05-09T09:43:07Z</time>
      </trkpt>
      <trkpt lat="36.638530986383557" lon="-5.249702967703342">
        <ele>760.53999999999996</ele>
        <time>2025-05-09T09:43:08Z</time>
      </trkpt>
      <trkpt lat="36.638685967773199" lon="-5.249644964933395">
        <ele>759.58000000000004</ele>
        <time>2025-05-09T09:43:09Z</time>
      </trkpt>
      <trkpt lat="36.638831980526447" lon="-5.249561984091997">
        <ele>758.62</ele>
        <time>2025-05-09T09:43:10Z</time>
      </trkpt>
      <trkpt lat="36.640051966533065" lon="-5.248657995834947">
        <ele>750.92999999999995</ele>
        <time>2025-05-09T09:43:19Z</time>
      </trkpt>
      <trkpt lat="36.640536021441221" lon="-5.248176036402583">
        <ele>749.49000000000001</ele>
        <time>2025-05-09T09:43:23Z</time>
      </trkpt>
      <trkpt lat="36.640615984797478" lon="-5.248018959537149">
        <ele>749.49000000000001</ele>
        <time>2025-05-09T09:43:24Z</time>
      </trkpt>
      <trkpt lat="36.640689997002482" lon="-5.247850986197591">
        <ele>749.97000000000003</ele>
        <time>2025-05-09T09:43:25Z</time>
      </trkpt>
      <trkpt lat="36.640764009207487" lon="-5.247684018686414">
        <ele>750.45000000000005</ele>
        <time>2025-05-09T09:43:26Z</time>
      </trkpt>
      <trkpt lat="36.640813965350389" lon="-5.247500035911799">
        <ele>750.92999999999995</ele>
        <time>2025-05-09T09:43:27Z</time>
      </trkpt>
      <trkpt lat="36.640841960906982" lon="-5.247301971539855">
        <ele>751.88999999999999</ele>
        <time>2025-05-09T09:43:28Z</time>
      </trkpt>
      <trkpt lat="36.640853025019169" lon="-5.247114971280098">
        <ele>752.85000000000002</ele>
        <time>2025-05-09T09:43:29Z</time>
      </trkpt>
      <trkpt lat="36.640892000868917" lon="-5.246523963287473">
        <ele>755.73000000000002</ele>
        <time>2025-05-09T09:43:32Z</time>
      </trkpt>
      <trkpt lat="36.640935000032187" lon="-5.246337968856096">
        <ele>756.69000000000005</ele>
        <time>2025-05-09T09:43:33Z</time>
      </trkpt>
      <trkpt lat="36.640987973660231" lon="-5.24615197442472">
        <ele>757.65999999999997</ele>
        <time>2025-05-09T09:43:34Z</time>
      </trkpt>
      <trkpt lat="36.641075983643532" lon="-5.245976960286498">
        <ele>758.62</ele>
        <time>2025-05-09T09:43:35Z</time>
      </trkpt>
      <trkpt lat="36.641171034425497" lon="-5.245804041624069">
        <ele>759.58000000000004</ele>
        <time>2025-05-09T09:43:36Z</time>
      </trkpt>
      <trkpt lat="36.641284022480249" lon="-5.245647970587015">
        <ele>760.05999999999995</ele>
        <time>2025-05-09T09:43:37Z</time>
      </trkpt>
      <trkpt lat="36.641398016363382" lon="-5.245488965883851">
        <ele>761.01999999999998</ele>
        <time>2025-05-09T09:43:38Z</time>
      </trkpt>
      <trkpt lat="36.641612006351352" lon="-5.245193000882864">
        <ele>761.98000000000002</ele>
        <time>2025-05-09T09:43:40Z</time>
      </trkpt>
      <trkpt lat="36.641712002456188" lon="-5.245040031149983">
        <ele>762.46000000000004</ele>
        <time>2025-05-09T09:43:41Z</time>
      </trkpt>
      <trkpt lat="36.641776962205768" lon="-5.244859987869859">
        <ele>762.94000000000005</ele>
        <time>2025-05-09T09:43:42Z</time>
      </trkpt>
      <trkpt lat="36.64184401743114" lon="-5.244677010923624">
        <ele>763.41999999999996</ele>
        <time>2025-05-09T09:43:43Z</time>
      </trkpt>
      <trkpt lat="36.641878969967365" lon="-5.24447500705719">
        <ele>763.41999999999996</ele>
        <time>2025-05-09T09:43:44Z</time>
      </trkpt>
      <trkpt lat="36.641890034079552" lon="-5.244265040382743">
        <ele>763.41999999999996</ele>
        <time>2025-05-09T09:43:45Z</time>
      </trkpt>
      <trkpt lat="36.641860026866198" lon="-5.244043003767729">
        <ele>763.41999999999996</ele>
        <time>2025-05-09T09:43:46Z</time>
      </trkpt>
      <trkpt lat="36.641810992732644" lon="-5.243833037093282">
        <ele>762.94000000000005</ele>
        <time>2025-05-09T09:43:47Z</time>
      </trkpt>
      <trkpt lat="36.641761036589742" lon="-5.243619969114661">
        <ele>762.46000000000004</ele>
        <time>2025-05-09T09:43:48Z</time>
      </trkpt>
      <trkpt lat="36.641712002456188" lon="-5.243407990783453">
        <ele>762.46000000000004</ele>
        <time>2025-05-09T09:43:49Z</time>
      </trkpt>
      <trkpt lat="36.641592979431152" lon="-5.242784963920713">
        <ele>761.01999999999998</ele>
        <time>2025-05-09T09:43:52Z</time>
      </trkpt>
      <trkpt lat="36.641572024673223" lon="-5.242581032216549">
        <ele>760.53999999999996</ele>
        <time>2025-05-09T09:43:53Z</time>
      </trkpt>
      <trkpt lat="36.641619969159365" lon="-5.242381040006876">
        <ele>760.53999999999996</ele>
        <time>2025-05-09T09:43:54Z</time>
      </trkpt>
      <trkpt lat="36.641670009121299" lon="-5.242171995341778">
        <ele>760.53999999999996</ele>
        <time>2025-05-09T09:43:55Z</time>
      </trkpt>
      <trkpt lat="36.641720971092582" lon="-5.241964040324092">
        <ele>760.53999999999996</ele>
        <time>2025-05-09T09:43:56Z</time>
      </trkpt>
      <trkpt lat="36.642150040715933" lon="-5.240395031869412">
        <ele>766.78999999999996</ele>
        <time>2025-05-09T09:44:04Z</time>
      </trkpt>
      <trkpt lat="36.642222963273525" lon="-5.240249019116163">
        <ele>767.26999999999998</ele>
        <time>2025-05-09T09:44:05Z</time>
      </trkpt>
      <trkpt lat="36.642336035147309" lon="-5.240147011354566">
        <ele>768.23000000000002</ele>
        <time>2025-05-09T09:44:06Z</time>
      </trkpt>
      <trkpt lat="36.642462015151978" lon="-5.240052966400981">
        <ele>769.19000000000005</ele>
        <time>2025-05-09T09:44:07Z</time>
      </trkpt>
      <trkpt lat="36.642596963793039" lon="-5.239967973902822">
        <ele>769.66999999999996</ele>
        <time>2025-05-09T09:44:08Z</time>
      </trkpt>
      <trkpt lat="36.642728978767991" lon="-5.239890022203326">
        <ele>770.63</ele>
        <time>2025-05-09T09:44:09Z</time>
      </trkpt>
      <trkpt lat="36.642849007621408" lon="-5.239820033311844">
        <ele>772.08000000000004</ele>
        <time>2025-05-09T09:44:10Z</time>
      </trkpt>
      <trkpt lat="36.642928970977664" lon="-5.239725988358259">
        <ele>772.55999999999995</ele>
        <time>2025-05-09T09:44:11Z</time>
      </trkpt>
      <trkpt lat="36.643015975132585" lon="-5.239617023617029">
        <ele>773.51999999999998</ele>
        <time>2025-05-09T09:44:12Z</time>
      </trkpt>
      <trkpt lat="36.643046988174319" lon="-5.23949297145009">
        <ele>774.48000000000002</ele>
        <time>2025-05-09T09:44:13Z</time>
      </trkpt>
      <trkpt lat="36.64307096041739" lon="-5.239342013373971">
        <ele>775.44000000000005</ele>
        <time>2025-05-09T09:44:14Z</time>
      </trkpt>
      <trkpt lat="36.643056040629745" lon="-5.239194994792342">
        <ele>776.39999999999998</ele>
        <time>2025-05-09T09:44:15Z</time>
      </trkpt>
      <trkpt lat="36.643011029809713" lon="-5.239043030887842">
        <ele>777.36000000000001</ele>
        <time>2025-05-09T09:44:16Z</time>
      </trkpt>
      <trkpt lat="36.642957972362638" lon="-5.238876985386014">
        <ele>778.32000000000005</ele>
        <time>2025-05-09T09:44:17Z</time>
      </trkpt>
      <trkpt lat="36.642900975421071" lon="-5.238702977076173">
        <ele>779.28999999999996</ele>
        <time>2025-05-09T09:44:18Z</time>
      </trkpt>
      <trkpt lat="36.642787987366319" lon="-5.238385973498225">
        <ele>781.21000000000004</ele>
        <time>2025-05-09T09:44:20Z</time>
      </trkpt>
      <trkpt lat="36.642594030126929" lon="-5.238013984635472">
        <ele>785.04999999999995</ele>
        <time>2025-05-09T09:44:23Z</time>
      </trkpt>
      <trkpt lat="36.642429996281862" lon="-5.237765964120626">
        <ele>787.94000000000005</ele>
        <time>2025-05-09T09:44:26Z</time>
      </trkpt>
      <trkpt lat="36.642391020432115" lon="-5.237710978835821">
        <ele>788.89999999999998</ele>
        <time>2025-05-09T09:44:27Z</time>
      </trkpt>
      <trkpt lat="36.642343997955322" lon="-5.237646019086242">
        <ele>789.86000000000001</ele>
        <time>2025-05-09T09:44:28Z</time>
      </trkpt>
      <trkpt lat="36.64233704097569" lon="-5.237602014094591">
        <ele>790.82000000000005</ele>
        <time>2025-05-09T09:44:29Z</time>
      </trkpt>
      <trkpt lat="36.642322959378362" lon="-5.237517021596432">
        <ele>791.77999999999997</ele>
        <time>2025-05-09T09:44:30Z</time>
      </trkpt>
      <trkpt lat="36.642326982691884" lon="-5.237469999119639">
        <ele>792.74000000000001</ele>
        <time>2025-05-09T09:44:31Z</time>
      </trkpt>
      <trkpt lat="36.642366964370012" lon="-5.237218961119652">
        <ele>795.63</ele>
        <time>2025-05-09T09:44:35Z</time>
      </trkpt>
      <trkpt lat="36.642399989068508" lon="-5.237156013026834">
        <ele>797.54999999999995</ele>
        <time>2025-05-09T09:44:38Z</time>
      </trkpt>
      <trkpt lat="36.642399989068508" lon="-5.237156013026834">
        <ele>799.47000000000003</ele>
        <time>2025-05-09T09:44:51Z</time>
      </trkpt>
      <trkpt lat="36.642495039850473" lon="-5.236980998888612">
        <ele>799.95000000000005</ele>
        <time>2025-05-09T09:45:06Z</time>
      </trkpt>
      <trkpt lat="36.642495039850473" lon="-5.236980998888612">
        <ele>799.95000000000005</ele>
        <time>2025-05-09T09:45:07Z</time>
      </trkpt>
      <trkpt lat="36.642495039850473" lon="-5.236980998888612">
        <ele>799.95000000000005</ele>
        <time>2025-05-09T09:45:08Z</time>
      </trkpt>
      <trkpt lat="36.642417004331946" lon="-5.237138997763395">
        <ele>794.19000000000005</ele>
        <time>2025-05-09T09:48:23Z</time>
      </trkpt>
      <trkpt lat="36.642417004331946" lon="-5.23708401247859">
        <ele>800.44000000000005</ele>
        <time>2025-05-09T09:49:08Z</time>
      </trkpt>
      <trkpt lat="36.642435025423765" lon="-5.237083006650209">
        <ele>798.02999999999997</ele>
        <time>2025-05-09T09:49:23Z</time>
      </trkpt>
      <trkpt lat="36.642449023202062" lon="-5.237065991386771">
        <ele>798.02999999999997</ele>
        <time>2025-05-09T09:49:25Z</time>
      </trkpt>
      <trkpt lat="36.642464026808739" lon="-5.237037995830178">
        <ele>797.54999999999995</ele>
        <time>2025-05-09T09:49:26Z</time>
      </trkpt>
      <trkpt lat="36.642481964081526" lon="-5.237003965303302">
        <ele>797.07000000000005</ele>
        <time>2025-05-09T09:49:27Z</time>
      </trkpt>
      <trkpt lat="36.642495039850473" lon="-5.236980998888612">
        <ele>796.59000000000003</ele>
        <time>2025-05-09T09:49:28Z</time>
      </trkpt>
      <trkpt lat="36.642495039850473" lon="-5.236980998888612">
        <ele>796.59000000000003</ele>
        <time>2025-05-09T09:49:29Z</time>
      </trkpt>
      <trkpt lat="36.64257500320673" lon="-5.236936993896961">
        <ele>796.59000000000003</ele>
        <time>2025-05-09T09:49:30Z</time>
      </trkpt>
      <trkpt lat="36.642609033733606" lon="-5.236918972805142">
        <ele>796.59000000000003</ele>
        <time>2025-05-09T09:49:31Z</time>
      </trkpt>
      <trkpt lat="36.642637029290199" lon="-5.236903969198465">
        <ele>796.59000000000003</ele>
        <time>2025-05-09T09:49:32Z</time>
      </trkpt>
      <trkpt lat="36.642664019018412" lon="-5.236888965591788">
        <ele>796.59000000000003</ele>
        <time>2025-05-09T09:49:33Z</time>
      </trkpt>
      <trkpt lat="36.642690002918243" lon="-5.236874967813492">
        <ele>796.59000000000003</ele>
        <time>2025-05-09T09:49:34Z</time>
      </trkpt>
      <trkpt lat="36.64272696711123" lon="-5.236854013055563">
        <ele>796.59000000000003</ele>
        <time>2025-05-09T09:49:35Z</time>
      </trkpt>
      <trkpt lat="36.6427699662745" lon="-5.236776983365417">
        <ele>797.07000000000005</ele>
        <time>2025-05-09T09:49:36Z</time>
      </trkpt>
      <trkpt lat="36.64281296543777" lon="-5.236695008352399">
        <ele>797.07000000000005</ele>
        <time>2025-05-09T09:49:37Z</time>
      </trkpt>
      <trkpt lat="36.642866022884846" lon="-5.236594006419182">
        <ele>797.07000000000005</ele>
        <time>2025-05-09T09:49:38Z</time>
      </trkpt>
      <trkpt lat="36.64292000234127" lon="-5.236488981172442">
        <ele>797.54999999999995</ele>
        <time>2025-05-09T09:49:39Z</time>
      </trkpt>
      <trkpt lat="36.64307096041739" lon="-5.236275997012854">
        <ele>799.47000000000003</ele>
        <time>2025-05-09T09:49:41Z</time>
      </trkpt>
      <trkpt lat="36.643171040341258" lon="-5.236176000908017">
        <ele>799.95000000000005</ele>
        <time>2025-05-09T09:49:42Z</time>
      </trkpt>
      <trkpt lat="36.64328402839601" lon="-5.236105006188154">
        <ele>800.91999999999996</ele>
        <time>2025-05-09T09:49:43Z</time>
      </trkpt>
      <trkpt lat="36.643416965380311" lon="-5.236065024510026">
        <ele>801.88</ele>
        <time>2025-05-09T09:49:44Z</time>
      </trkpt>
      <trkpt lat="36.643554009497166" lon="-5.236067958176136">
        <ele>802.84000000000003</ele>
        <time>2025-05-09T09:49:45Z</time>
      </trkpt>
      <trkpt lat="36.643695998936892" lon="-5.236080028116703">
        <ele>804.27999999999997</ele>
        <time>2025-05-09T09:49:46Z</time>
      </trkpt>
      <trkpt lat="36.643838994204998" lon="-5.236092014238238">
        <ele>805.24000000000001</ele>
        <time>2025-05-09T09:49:47Z</time>
      </trkpt>
      <trkpt lat="36.643953993916512" lon="-5.236100982874632">
        <ele>806.20000000000005</ele>
        <time>2025-05-09T09:49:48Z</time>
      </trkpt>
      <trkpt lat="36.644092965871096" lon="-5.236069969832897">
        <ele>807.63999999999999</ele>
        <time>2025-05-09T09:49:49Z</time>
      </trkpt>
      <trkpt lat="36.644195979461074" lon="-5.23600903339684">
        <ele>809.09000000000003</ele>
        <time>2025-05-09T09:49:50Z</time>
      </trkpt>
      <trkpt lat="36.644296981394291" lon="-5.235908031463623">
        <ele>810.04999999999995</ele>
        <time>2025-05-09T09:49:51Z</time>
      </trkpt>
      <trkpt lat="36.644350960850716" lon="-5.235792025923729">
        <ele>811.49000000000001</ele>
        <time>2025-05-09T09:49:52Z</time>
      </trkpt>
      <trkpt lat="36.644418016076088" lon="-5.235647018998861">
        <ele>812.45000000000005</ele>
        <time>2025-05-09T09:49:53Z</time>
      </trkpt>
      <trkpt lat="36.64448800496757" lon="-5.235493965446949">
        <ele>813.88999999999999</ele>
        <time>2025-05-09T09:49:54Z</time>
      </trkpt>
      <trkpt lat="36.644554976373911" lon="-5.235349964350462">
        <ele>814.85000000000002</ele>
        <time>2025-05-09T09:49:55Z</time>
      </trkpt>
      <trkpt lat="36.644647009670734" lon="-5.235219039022923">
        <ele>815.82000000000005</ele>
        <time>2025-05-09T09:49:56Z</time>
      </trkpt>
      <trkpt lat="36.644741976633668" lon="-5.235117031261325">
        <ele>817.25999999999999</ele>
        <time>2025-05-09T09:49:57Z</time>
      </trkpt>
      <trkpt lat="36.644876003265381" lon="-5.235049976035953">
        <ele>818.22000000000003</ele>
        <time>2025-05-09T09:49:58Z</time>
      </trkpt>
      <trkpt lat="36.64500298909843" lon="-5.235030027106404">
        <ele>819.65999999999997</ele>
        <time>2025-05-09T09:49:59Z</time>
      </trkpt>
      <trkpt lat="36.645144978538156" lon="-5.235006976872683">
        <ele>820.62</ele>
        <time>2025-05-09T09:50:00Z</time>
      </trkpt>
      <trkpt lat="36.645413031801581" lon="-5.234963977709413">
        <ele>822.54999999999995</ele>
        <time>2025-05-09T09:50:02Z</time>
      </trkpt>
      <trkpt lat="36.645552003756166" lon="-5.234894994646311">
        <ele>823.50999999999999</ele>
        <time>2025-05-09T09:50:03Z</time>
      </trkpt>
      <trkpt lat="36.645631967112422" lon="-5.234796004369855">
        <ele>823.99000000000001</ele>
        <time>2025-05-09T09:50:04Z</time>
      </trkpt>
      <trkpt lat="36.645703967660666" lon="-5.234669018536806">
        <ele>824.95000000000005</ele>
        <time>2025-05-09T09:50:05Z</time>
      </trkpt>
      <trkpt lat="36.645756019279361" lon="-5.234537003561854">
        <ele>825.42999999999995</ele>
        <time>2025-05-09T09:50:06Z</time>
      </trkpt>
      <trkpt lat="36.645756019279361" lon="-5.234366012737155">
        <ele>826.38999999999999</ele>
        <time>2025-05-09T09:50:07Z</time>
      </trkpt>
      <trkpt lat="36.645756019279361" lon="-5.234177000820637">
        <ele>826.87</ele>
        <time>2025-05-09T09:50:08Z</time>
      </trkpt>
      <trkpt lat="36.645756019279361" lon="-5.233972985297442">
        <ele>827.35000000000002</ele>
        <time>2025-05-09T09:50:09Z</time>
      </trkpt>
      <trkpt lat="36.645717965438962" lon="-5.233527990058065">
        <ele>829.26999999999998</ele>
        <time>2025-05-09T09:50:11Z</time>
      </trkpt>
      <trkpt lat="36.645743027329445" lon="-5.233319029211998">
        <ele>830.24000000000001</ele>
        <time>2025-05-09T09:50:12Z</time>
      </trkpt>
      <trkpt lat="36.645785020664334" lon="-5.233128005638719">
        <ele>831.20000000000005</ele>
        <time>2025-05-09T09:50:13Z</time>
      </trkpt>
      <trkpt lat="36.645848974585533" lon="-5.232957014814019">
        <ele>832.15999999999997</ele>
        <time>2025-05-09T09:50:14Z</time>
      </trkpt>
      <trkpt lat="36.645934972912073" lon="-5.232811002060771">
        <ele>833.60000000000002</ele>
        <time>2025-05-09T09:50:15Z</time>
      </trkpt>
      <trkpt lat="36.646048966795206" lon="-5.232697008177638">
        <ele>835.03999999999996</ele>
        <time>2025-05-09T09:50:16Z</time>
      </trkpt>
      <trkpt lat="36.646191040053964" lon="-5.232627019286156">
        <ele>836.48000000000002</ele>
        <time>2025-05-09T09:50:17Z</time>
      </trkpt>
      <trkpt lat="36.646343003958464" lon="-5.232559964060783">
        <ele>837.92999999999995</ele>
        <time>2025-05-09T09:50:18Z</time>
      </trkpt>
      <trkpt lat="36.64650795981288" lon="-5.232553007081151">
        <ele>839.37</ele>
        <time>2025-05-09T09:50:19Z</time>
      </trkpt>
      <trkpt lat="36.64667802862823" lon="-5.232544960454106">
        <ele>840.80999999999995</ele>
        <time>2025-05-09T09:50:20Z</time>
      </trkpt>
      <trkpt lat="36.64685002528131" lon="-5.232549989596009">
        <ele>841.76999999999998</ele>
        <time>2025-05-09T09:50:21Z</time>
      </trkpt>
      <trkpt lat="36.647024033591151" lon="-5.232578990980983">
        <ele>843.21000000000004</ele>
        <time>2025-05-09T09:50:22Z</time>
      </trkpt>
      <trkpt lat="36.647202987223864" lon="-5.23261503316462">
        <ele>844.65999999999997</ele>
        <time>2025-05-09T09:50:23Z</time>
      </trkpt>
      <trkpt lat="36.647376995533705" lon="-5.232682004570961">
        <ele>846.10000000000002</ele>
        <time>2025-05-09T09:50:24Z</time>
      </trkpt>
      <trkpt lat="36.647548992186785" lon="-5.232760040089488">
        <ele>847.53999999999996</ele>
        <time>2025-05-09T09:50:25Z</time>
      </trkpt>
      <trkpt lat="36.648766966536641" lon="-5.233437968418002">
        <ele>860.03999999999996</ele>
        <time>2025-05-09T09:50:33Z</time>
      </trkpt>
      <trkpt lat="36.648932006210089" lon="-5.233548022806644">
        <ele>861</ele>
        <time>2025-05-09T09:50:34Z</time>
      </trkpt>
      <trkpt lat="36.649061003699899" lon="-5.233654975891113">
        <ele>862.44000000000005</ele>
        <time>2025-05-09T09:50:35Z</time>
      </trkpt>
      <trkpt lat="36.649145996198058" lon="-5.233796965330839">
        <ele>863.39999999999998</ele>
        <time>2025-05-09T09:50:36Z</time>
      </trkpt>
      <trkpt lat="36.64923601783812" lon="-5.233971979469061">
        <ele>864.84000000000003</ele>
        <time>2025-05-09T09:50:37Z</time>
      </trkpt>
      <trkpt lat="36.649320004507899" lon="-5.234159985557199">
        <ele>866.28999999999996</ele>
        <time>2025-05-09T09:50:38Z</time>
      </trkpt>
      <trkpt lat="36.649401979520917" lon="-5.234352014958859">
        <ele>867.73000000000002</ele>
        <time>2025-05-09T09:50:39Z</time>
      </trkpt>
      <trkpt lat="36.649474985897541" lon="-5.234556030482054">
        <ele>869.16999999999996</ele>
        <time>2025-05-09T09:50:40Z</time>
      </trkpt>
      <trkpt lat="36.650127014145255" lon="-5.235971985384822">
        <ele>879.25999999999999</ele>
        <time>2025-05-09T09:50:47Z</time>
      </trkpt>
      <trkpt lat="36.65159996598959" lon="-5.238472977653146">
        <ele>901.37</ele>
        <time>2025-05-09T09:51:00Z</time>
      </trkpt>
      <trkpt lat="36.651819990947843" lon="-5.238776989281178">
        <ele>904.74000000000001</ele>
        <time>2025-05-09T09:51:02Z</time>
      </trkpt>
      <trkpt lat="36.651912024244666" lon="-5.238935993984342">
        <ele>906.17999999999995</ele>
        <time>2025-05-09T09:51:03Z</time>
      </trkpt>
      <trkpt lat="36.6519879642874" lon="-5.23910203948617">
        <ele>908.10000000000002</ele>
        <time>2025-05-09T09:51:04Z</time>
      </trkpt>
      <trkpt lat="36.652301028370857" lon="-5.23972800001502">
        <ele>914.35000000000002</ele>
        <time>2025-05-09T09:51:08Z</time>
      </trkpt>
      <trkpt lat="36.652380991727114" lon="-5.239847023040056">
        <ele>915.30999999999995</ele>
        <time>2025-05-09T09:51:09Z</time>
      </trkpt>
      <trkpt lat="36.652498003095388" lon="-5.239906031638384">
        <ele>916.75</ele>
        <time>2025-05-09T09:51:10Z</time>
      </trkpt>
      <trkpt lat="36.652619037777185" lon="-5.239936038851738">
        <ele>917.72000000000003</ele>
        <time>2025-05-09T09:51:11Z</time>
      </trkpt>
      <trkpt lat="36.652755998075008" lon="-5.239916006103158">
        <ele>919.15999999999997</ele>
        <time>2025-05-09T09:51:12Z</time>
      </trkpt>
      <trkpt lat="36.652906034141779" lon="-5.239893039688468">
        <ele>920.12</ele>
        <time>2025-05-09T09:51:13Z</time>
      </trkpt>
      <trkpt lat="36.653065960854292" lon="-5.239868983626366">
        <ele>921.08000000000004</ele>
        <time>2025-05-09T09:51:14Z</time>
      </trkpt>
      <trkpt lat="36.65323200635612" lon="-5.239842999726534">
        <ele>922.51999999999998</ele>
        <time>2025-05-09T09:51:15Z</time>
      </trkpt>
      <trkpt lat="36.653931979089975" lon="-5.23985599167645">
        <ele>927.33000000000004</ele>
        <time>2025-05-09T09:51:19Z</time>
      </trkpt>
      <trkpt lat="36.654107999056578" lon="-5.239937966689467">
        <ele>928.76999999999998</ele>
        <time>2025-05-09T09:51:20Z</time>
      </trkpt>
      <trkpt lat="36.654273038730025" lon="-5.240013990551233">
        <ele>930.21000000000004</ele>
        <time>2025-05-09T09:51:21Z</time>
      </trkpt>
      <trkpt lat="36.654573027044535" lon="-5.24013502523303">
        <ele>932.62</ele>
        <time>2025-05-09T09:51:23Z</time>
      </trkpt>
      <trkpt lat="36.654710993170738" lon="-5.240139970555902">
        <ele>933.58000000000004</ele>
        <time>2025-05-09T09:51:24Z</time>
      </trkpt>
      <trkpt lat="36.654853988438845" lon="-5.24009202606976">
        <ele>934.53999999999996</ele>
        <time>2025-05-09T09:51:25Z</time>
      </trkpt>
      <trkpt lat="36.654962031170726" lon="-5.240012984722853">
        <ele>935.5</ele>
        <time>2025-05-09T09:51:26Z</time>
      </trkpt>
      <trkpt lat="36.655092034488916" lon="-5.239918017759919">
        <ele>936.46000000000004</ele>
        <time>2025-05-09T09:51:27Z</time>
      </trkpt>
      <trkpt lat="36.655500987544656" lon="-5.239620041102171">
        <ele>939.83000000000004</ele>
        <time>2025-05-09T09:51:30Z</time>
      </trkpt>
      <trkpt lat="36.655644988641143" lon="-5.239588022232056">
        <ele>940.78999999999996</ele>
        <time>2025-05-09T09:51:31Z</time>
      </trkpt>
      <trkpt lat="36.655797036364675" lon="-5.239587016403675">
        <ele>941.75</ele>
        <time>2025-05-09T09:51:32Z</time>
      </trkpt>
      <trkpt lat="36.655956041067839" lon="-5.239605037495494">
        <ele>942.71000000000004</ele>
        <time>2025-05-09T09:51:33Z</time>
      </trkpt>
      <trkpt lat="36.656114961951971" lon="-5.2396409958601">
        <ele>944.14999999999998</ele>
        <time>2025-05-09T09:51:34Z</time>
      </trkpt>
      <trkpt lat="36.656416039913893" lon="-5.239649964496493">
        <ele>946.07000000000005</ele>
        <time>2025-05-09T09:51:36Z</time>
      </trkpt>
      <trkpt lat="36.656535984948277" lon="-5.239596990868449">
        <ele>947.03999999999996</ele>
        <time>2025-05-09T09:51:37Z</time>
      </trkpt>
      <trkpt lat="36.656643021851778" lon="-5.239514010027051">
        <ele>948.48000000000002</ele>
        <time>2025-05-09T09:51:38Z</time>
      </trkpt>
      <trkpt lat="36.656720973551273" lon="-5.239410996437073">
        <ele>949.44000000000005</ele>
        <time>2025-05-09T09:51:39Z</time>
      </trkpt>
      <trkpt lat="36.656776964664459" lon="-5.239259032532573">
        <ele>950.39999999999998</ele>
        <time>2025-05-09T09:51:40Z</time>
      </trkpt>
      <trkpt lat="36.656804960221052" lon="-5.239090975373983">
        <ele>951.36000000000001</ele>
        <time>2025-05-09T09:51:41Z</time>
      </trkpt>
      <trkpt lat="36.656830022111535" lon="-5.238898023962975">
        <ele>952.32000000000005</ele>
        <time>2025-05-09T09:51:42Z</time>
      </trkpt>
      <trkpt lat="36.656857011839747" lon="-5.238694008439779">
        <ele>953.27999999999997</ele>
        <time>2025-05-09T09:51:43Z</time>
      </trkpt>
      <trkpt lat="36.65703403763473" lon="-5.237851962447166">
        <ele>958.57000000000005</ele>
        <time>2025-05-09T09:51:47Z</time>
      </trkpt>
      <trkpt lat="36.657093968242407" lon="-5.237648030743003">
        <ele>960.00999999999999</ele>
        <time>2025-05-09T09:51:48Z</time>
      </trkpt>
      <trkpt lat="36.657193964347243" lon="-5.237467987462878">
        <ele>961.46000000000004</ele>
        <time>2025-05-09T09:51:49Z</time>
      </trkpt>
      <trkpt lat="36.657307958230376" lon="-5.237294984981418">
        <ele>962.89999999999998</ele>
        <time>2025-05-09T09:51:50Z</time>
      </trkpt>
      <trkpt lat="36.657446008175611" lon="-5.237157018855214">
        <ele>964.34000000000003</ele>
        <time>2025-05-09T09:51:51Z</time>
      </trkpt>
      <trkpt lat="36.657599983736873" lon="-5.237052999436855">
        <ele>965.29999999999995</ele>
        <time>2025-05-09T09:51:52Z</time>
      </trkpt>
      <trkpt lat="36.657749013975263" lon="-5.236961971968412">
        <ele>966.25999999999999</ele>
        <time>2025-05-09T09:51:53Z</time>
      </trkpt>
      <trkpt lat="36.657891003414989" lon="-5.236873961985111">
        <ele>967.22000000000003</ele>
        <time>2025-05-09T09:51:54Z</time>
      </trkpt>
      <trkpt lat="36.658271038904786" lon="-5.236565005034208">
        <ele>969.63</ele>
        <time>2025-05-09T09:51:57Z</time>
      </trkpt>
      <trkpt lat="36.658380003646016" lon="-5.236436007544398">
        <ele>970.11000000000001</ele>
        <time>2025-05-09T09:51:58Z</time>
      </trkpt>
      <trkpt lat="36.658487962558866" lon="-5.236302986741066">
        <ele>970.59000000000003</ele>
        <time>2025-05-09T09:51:59Z</time>
      </trkpt>
      <trkpt lat="36.659251973032951" lon="-5.234962971881032">
        <ele>968.66999999999996</ele>
        <time>2025-05-09T09:52:08Z</time>
      </trkpt>
      <trkpt lat="36.659347023814917" lon="-5.23484998382628">
        <ele>968.66999999999996</ele>
        <time>2025-05-09T09:52:09Z</time>
      </trkpt>
      <trkpt lat="36.659460011869669" lon="-5.234748981893063">
        <ele>968.17999999999995</ele>
        <time>2025-05-09T09:52:10Z</time>
      </trkpt>
      <trkpt lat="36.659588003531098" lon="-5.234662983566523">
        <ele>968.17999999999995</ele>
        <time>2025-05-09T09:52:11Z</time>
      </trkpt>
      <trkpt lat="36.659727981314063" lon="-5.234606992453337">
        <ele>968.17999999999995</ele>
        <time>2025-05-09T09:52:12Z</time>
      </trkpt>
      <trkpt lat="36.659877011552453" lon="-5.234585031867027">
        <ele>968.17999999999995</ele>
        <time>2025-05-09T09:52:13Z</time>
      </trkpt>
      <trkpt lat="36.660032998770475" lon="-5.234567010775209">
        <ele>968.17999999999995</ele>
        <time>2025-05-09T09:52:14Z</time>
      </trkpt>
      <trkpt lat="36.660189991816878" lon="-5.23454999551177">
        <ele>967.70000000000005</ele>
        <time>2025-05-09T09:52:15Z</time>
      </trkpt>
      <trkpt lat="36.660670023411512" lon="-5.234497021883726">
        <ele>966.74000000000001</ele>
        <time>2025-05-09T09:52:18Z</time>
      </trkpt>
      <trkpt lat="36.660835985094309" lon="-5.234477994963527">
        <ele>965.77999999999997</ele>
        <time>2025-05-09T09:52:19Z</time>
      </trkpt>
      <trkpt lat="36.661002030596137" lon="-5.234412029385567">
        <ele>965.29999999999995</ele>
        <time>2025-05-09T09:52:20Z</time>
      </trkpt>
      <trkpt lat="36.661162041127682" lon="-5.234316978603602">
        <ele>964.34000000000003</ele>
        <time>2025-05-09T09:52:21Z</time>
      </trkpt>
      <trkpt lat="36.661322973668575" lon="-5.234219999983907">
        <ele>963.86000000000001</ele>
        <time>2025-05-09T09:52:22Z</time>
      </trkpt>
      <trkpt lat="36.661479966714978" lon="-5.234116986393929">
        <ele>963.38</ele>
        <time>2025-05-09T09:52:23Z</time>
      </trkpt>
      <trkpt lat="36.662150016054511" lon="-5.233568977564573">
        <ele>960.98000000000002</ele>
        <time>2025-05-09T09:52:28Z</time>
      </trkpt>
      <trkpt lat="36.662241965532303" lon="-5.233406033366919">
        <ele>960.49000000000001</ele>
        <time>2025-05-09T09:52:29Z</time>
      </trkpt>
      <trkpt lat="36.662332993000746" lon="-5.233243005350232">
        <ele>960.00999999999999</ele>
        <time>2025-05-09T09:52:30Z</time>
      </trkpt>
      <trkpt lat="36.663092980161309" lon="-5.232022013515234">
        <ele>955.21000000000004</ele>
        <time>2025-05-09T09:52:38Z</time>
      </trkpt>
      <trkpt lat="36.66328601539135" lon="-5.231701992452145">
        <ele>953.27999999999997</ele>
        <time>2025-05-09T09:52:40Z</time>
      </trkpt>
      <trkpt lat="36.663344018161297" lon="-5.231518009677529">
        <ele>952.32000000000005</ele>
        <time>2025-05-09T09:52:41Z</time>
      </trkpt>
      <trkpt lat="36.663402020931244" lon="-5.231334026902914">
        <ele>951.36000000000001</ele>
        <time>2025-05-09T09:52:42Z</time>
      </trkpt>
      <trkpt lat="36.663733022287488" lon="-5.230376981198788">
        <ele>946.55999999999995</ele>
        <time>2025-05-09T09:52:47Z</time>
      </trkpt>
      <trkpt lat="36.66382597759366" lon="-5.230216970667243">
        <ele>945.59000000000003</ele>
        <time>2025-05-09T09:52:48Z</time>
      </trkpt>
      <trkpt lat="36.663947012275457" lon="-5.230088979005814">
        <ele>945.11000000000001</ele>
        <time>2025-05-09T09:52:49Z</time>
      </trkpt>
      <trkpt lat="36.664072992280126" lon="-5.229955958202481">
        <ele>944.14999999999998</ele>
        <time>2025-05-09T09:52:50Z</time>
      </trkpt>
      <trkpt lat="36.664219005033374" lon="-5.229820003733039">
        <ele>942.71000000000004</ele>
        <time>2025-05-09T09:52:51Z</time>
      </trkpt>
      <trkpt lat="36.664400976151228" lon="-5.229690000414848">
        <ele>941.26999999999998</ele>
        <time>2025-05-09T09:52:52Z</time>
      </trkpt>
      <trkpt lat="36.665678964927793" lon="-5.228699008002877">
        <ele>933.58000000000004</ele>
        <time>2025-05-09T09:52:58Z</time>
      </trkpt>
      <trkpt lat="36.666675992310047" lon="-5.227735005319119">
        <ele>923.96000000000004</ele>
        <time>2025-05-09T09:53:04Z</time>
      </trkpt>
      <trkpt lat="36.667360039427876" lon="-5.226930007338524">
        <ele>916.75</ele>
        <time>2025-05-09T09:53:09Z</time>
      </trkpt>
      <trkpt lat="36.667464980855584" lon="-5.226738983765245">
        <ele>916.26999999999998</ele>
        <time>2025-05-09T09:53:10Z</time>
      </trkpt>
      <trkpt lat="36.667578974738717" lon="-5.226531028747559">
        <ele>915.30999999999995</ele>
        <time>2025-05-09T09:53:11Z</time>
      </trkpt>
      <trkpt lat="36.667643012478948" lon="-5.226357020437717">
        <ele>914.35000000000002</ele>
        <time>2025-05-09T09:53:12Z</time>
      </trkpt>
      <trkpt lat="36.667711995542049" lon="-5.22617002017796">
        <ele>913.87</ele>
        <time>2025-05-09T09:53:13Z</time>
      </trkpt>
      <trkpt lat="36.668222034350038" lon="-5.224856995046139">
        <ele>910.50999999999999</ele>
        <time>2025-05-09T09:53:20Z</time>
      </trkpt>
      <trkpt lat="36.668317001312971" lon="-5.224710982292891">
        <ele>910.50999999999999</ele>
        <time>2025-05-09T09:53:21Z</time>
      </trkpt>
      <trkpt lat="36.669139014557004" lon="-5.223410027101636">
        <ele>911.95000000000005</ele>
        <time>2025-05-09T09:53:29Z</time>
      </trkpt>
      <trkpt lat="36.669187964871526" lon="-5.223237024620175">
        <ele>911.95000000000005</ele>
        <time>2025-05-09T09:53:30Z</time>
      </trkpt>
      <trkpt lat="36.66921797208488" lon="-5.223071984946728">
        <ele>912.42999999999995</ele>
        <time>2025-05-09T09:53:31Z</time>
      </trkpt>
      <trkpt lat="36.669267006218433" lon="-5.222588013857603">
        <ele>913.87</ele>
        <time>2025-05-09T09:53:34Z</time>
      </trkpt>
      <trkpt lat="36.669307993724942" lon="-5.22243001498282">
        <ele>914.83000000000004</ele>
        <time>2025-05-09T09:53:35Z</time>
      </trkpt>
      <trkpt lat="36.669363984838128" lon="-5.222282996401191">
        <ele>915.78999999999996</ele>
        <time>2025-05-09T09:53:36Z</time>
      </trkpt>
      <trkpt lat="36.669455012306571" lon="-5.222157016396523">
        <ele>916.75</ele>
        <time>2025-05-09T09:53:37Z</time>
      </trkpt>
      <trkpt lat="36.669551990926266" lon="-5.22204696200788">
        <ele>917.72000000000003</ele>
        <time>2025-05-09T09:53:38Z</time>
      </trkpt>
      <trkpt lat="36.669675959274173" lon="-5.221982002258301">
        <ele>918.67999999999995</ele>
        <time>2025-05-09T09:53:39Z</time>
      </trkpt>
      <trkpt lat="36.669799005612731" lon="-5.221918970346451">
        <ele>920.12</ele>
        <time>2025-05-09T09:53:40Z</time>
      </trkpt>
      <trkpt lat="36.669924985617399" lon="-5.221854010596871">
        <ele>921.08000000000004</ele>
        <time>2025-05-09T09:53:41Z</time>
      </trkpt>
      <trkpt lat="36.670053983107209" lon="-5.221787039190531">
        <ele>922.03999999999996</ele>
        <time>2025-05-09T09:53:42Z</time>
      </trkpt>
      <trkpt lat="36.670175017789006" lon="-5.221725013107061">
        <ele>923</ele>
        <time>2025-05-09T09:53:43Z</time>
      </trkpt>
      <trkpt lat="36.670276019722223" lon="-5.221614958718419">
        <ele>923.96000000000004</ele>
        <time>2025-05-09T09:53:44Z</time>
      </trkpt>
      <trkpt lat="36.670375009998679" lon="-5.22150800563395">
        <ele>924.92999999999995</ele>
        <time>2025-05-09T09:53:45Z</time>
      </trkpt>
      <trkpt lat="36.670451033860445" lon="-5.221390994265676">
        <ele>925.88999999999999</ele>
        <time>2025-05-09T09:53:46Z</time>
      </trkpt>
      <trkpt lat="36.670503001660109" lon="-5.221238024532795">
        <ele>926.85000000000002</ele>
        <time>2025-05-09T09:53:47Z</time>
      </trkpt>
      <trkpt lat="36.670555975288153" lon="-5.221083965152502">
        <ele>927.80999999999995</ele>
        <time>2025-05-09T09:53:48Z</time>
      </trkpt>
      <trkpt lat="36.670610038563609" lon="-5.22092797793448">
        <ele>928.76999999999998</ele>
        <time>2025-05-09T09:53:49Z</time>
      </trkpt>
      <trkpt lat="36.670996025204659" lon="-5.219805976375938">
        <ele>937.41999999999996</ele>
        <time>2025-05-09T09:53:56Z</time>
      </trkpt>
      <trkpt lat="36.671067019924521" lon="-5.219687037169933">
        <ele>938.38</ele>
        <time>2025-05-09T09:53:57Z</time>
      </trkpt>
      <trkpt lat="36.671147989109159" lon="-5.219578994438052">
        <ele>938.86000000000001</ele>
        <time>2025-05-09T09:53:58Z</time>
      </trkpt>
      <trkpt lat="36.671249996870756" lon="-5.219502970576286">
        <ele>939.35000000000002</ele>
        <time>2025-05-09T09:53:59Z</time>
      </trkpt>
      <trkpt lat="36.671357033774257" lon="-5.219422001391649">
        <ele>939.83000000000004</ele>
        <time>2025-05-09T09:54:00Z</time>
      </trkpt>
      <trkpt lat="36.671476978808641" lon="-5.219367016106844">
        <ele>940.30999999999995</ele>
        <time>2025-05-09T09:54:01Z</time>
      </trkpt>
      <trkpt lat="36.67160396464169" lon="-5.219315970316529">
        <ele>940.78999999999996</ele>
        <time>2025-05-09T09:54:02Z</time>
      </trkpt>
      <trkpt lat="36.67173002846539" lon="-5.219266014173627">
        <ele>940.78999999999996</ele>
        <time>2025-05-09T09:54:03Z</time>
      </trkpt>
      <trkpt lat="36.67263200506568" lon="-5.218958985060453">
        <ele>945.11000000000001</ele>
        <time>2025-05-09T09:54:10Z</time>
      </trkpt>
      <trkpt lat="36.672739963978529" lon="-5.218944987282157">
        <ele>945.59000000000003</ele>
        <time>2025-05-09T09:54:11Z</time>
      </trkpt>
      <trkpt lat="36.672844989225268" lon="-5.218976000323892">
        <ele>946.07000000000005</ele>
        <time>2025-05-09T09:54:12Z</time>
      </trkpt>
      <trkpt lat="36.672946996986866" lon="-5.219014976173639">
        <ele>947.03999999999996</ele>
        <time>2025-05-09T09:54:13Z</time>
      </trkpt>
      <trkpt lat="36.673040958121419" lon="-5.219072978943586">
        <ele>947.51999999999998</ele>
        <time>2025-05-09T09:54:14Z</time>
      </trkpt>
      <trkpt lat="36.673137014731765" lon="-5.219130981713533">
        <ele>948</ele>
        <time>2025-05-09T09:54:15Z</time>
      </trkpt>
      <trkpt lat="36.673232987523079" lon="-5.219189990311861">
        <ele>948.48000000000002</ele>
        <time>2025-05-09T09:54:16Z</time>
      </trkpt>
      <trkpt lat="36.673332983627915" lon="-5.219232989475131">
        <ele>949.44000000000005</ele>
        <time>2025-05-09T09:54:17Z</time>
      </trkpt>
      <trkpt lat="36.673438008874655" lon="-5.219224020838738">
        <ele>949.91999999999996</ele>
        <time>2025-05-09T09:54:18Z</time>
      </trkpt>
      <trkpt lat="36.673543034121394" lon="-5.219213962554932">
        <ele>950.39999999999998</ele>
        <time>2025-05-09T09:54:19Z</time>
      </trkpt>
      <trkpt lat="36.673632971942425" lon="-5.219158977270126">
        <ele>950.88</ele>
        <time>2025-05-09T09:54:20Z</time>
      </trkpt>
      <trkpt lat="36.673726011067629" lon="-5.219099968671799">
        <ele>951.36000000000001</ele>
        <time>2025-05-09T09:54:21Z</time>
      </trkpt>
      <trkpt lat="36.673819972202182" lon="-5.219041965901852">
        <ele>951.84000000000003</ele>
        <time>2025-05-09T09:54:22Z</time>
      </trkpt>
      <trkpt lat="36.673903036862612" lon="-5.21897298283875">
        <ele>951.84000000000003</ele>
        <time>2025-05-09T09:54:23Z</time>
      </trkpt>
      <trkpt lat="36.673964979127049" lon="-5.218866029754281">
        <ele>952.32000000000005</ele>
        <time>2025-05-09T09:54:24Z</time>
      </trkpt>
      <trkpt lat="36.674030022695661" lon="-5.218753041699529">
        <ele>952.79999999999995</ele>
        <time>2025-05-09T09:54:25Z</time>
      </trkpt>
      <trkpt lat="36.674097999930382" lon="-5.218635024502873">
        <ele>953.27999999999997</ele>
        <time>2025-05-09T09:54:26Z</time>
      </trkpt>
      <trkpt lat="36.674138987436891" lon="-5.218507032841444">
        <ele>953.27999999999997</ele>
        <time>2025-05-09T09:54:27Z</time>
      </trkpt>
      <trkpt lat="36.674165977165103" lon="-5.218355990946293">
        <ele>953.27999999999997</ele>
        <time>2025-05-09T09:54:28Z</time>
      </trkpt>
      <trkpt lat="36.674150973558426" lon="-5.218216013163328">
        <ele>953.76999999999998</ele>
        <time>2025-05-09T09:54:29Z</time>
      </trkpt>
      <trkpt lat="36.674135969951749" lon="-5.218066982924938">
        <ele>953.76999999999998</ele>
        <time>2025-05-09T09:54:30Z</time>
      </trkpt>
      <trkpt lat="36.674120966345072" lon="-5.21792097017169">
        <ele>953.76999999999998</ele>
        <time>2025-05-09T09:54:31Z</time>
      </trkpt>
      <trkpt lat="36.674107974395156" lon="-5.21776900626719">
        <ele>954.25</ele>
        <time>2025-05-09T09:54:32Z</time>
      </trkpt>
      <trkpt lat="36.67409498244524" lon="-5.217608995735645">
        <ele>954.25</ele>
        <time>2025-05-09T09:54:33Z</time>
      </trkpt>
      <trkpt lat="36.674080984666944" lon="-5.217446973547339">
        <ele>954.73000000000002</ele>
        <time>2025-05-09T09:54:34Z</time>
      </trkpt>
      <trkpt lat="36.674111997708678" lon="-5.217288974672556">
        <ele>954.73000000000002</ele>
        <time>2025-05-09T09:54:35Z</time>
      </trkpt>
      <trkpt lat="36.674148039892316" lon="-5.217130975797772">
        <ele>954.73000000000002</ele>
        <time>2025-05-09T09:54:36Z</time>
      </trkpt>
      <trkpt lat="36.674212999641895" lon="-5.216988986358047">
        <ele>955.21000000000004</ele>
        <time>2025-05-09T09:54:37Z</time>
      </trkpt>
      <trkpt lat="36.674306960776448" lon="-5.216869963333011">
        <ele>955.21000000000004</ele>
        <time>2025-05-09T09:54:38Z</time>
      </trkpt>
      <trkpt lat="36.674403017386794" lon="-5.216749012470245">
        <ele>955.69000000000005</ele>
        <time>2025-05-09T09:54:39Z</time>
      </trkpt>
      <trkpt lat="36.675113970413804" lon="-5.21596304140985">
        <ele>960.49000000000001</ele>
        <time>2025-05-09T09:54:46Z</time>
      </trkpt>
      <trkpt lat="36.675231987610459" lon="-5.215860027819872">
        <ele>961.46000000000004</ele>
        <time>2025-05-09T09:54:47Z</time>
      </trkpt>
      <trkpt lat="36.676464965566993" lon="-5.215084031224251">
        <ele>971.07000000000005</ele>
        <time>2025-05-09T09:54:56Z</time>
      </trkpt>
      <trkpt lat="36.677686041221023" lon="-5.213974015787244">
        <ele>982.60000000000002</ele>
        <time>2025-05-09T09:55:06Z</time>
      </trkpt>
      <trkpt lat="36.67817504145205" lon="-5.21338895894587">
        <ele>987.40999999999997</ele>
        <time>2025-05-09T09:55:11Z</time>
      </trkpt>
      <trkpt lat="36.678424989804626" lon="-5.213043037801981">
        <ele>990.77999999999997</ele>
        <time>2025-05-09T09:55:14Z</time>
      </trkpt>
      <trkpt lat="36.678517023101449" lon="-5.212946981191635">
        <ele>991.74000000000001</ele>
        <time>2025-05-09T09:55:15Z</time>
      </trkpt>
      <trkpt lat="36.678787004202604" lon="-5.212666019797325">
        <ele>994.13999999999999</ele>
        <time>2025-05-09T09:55:18Z</time>
      </trkpt>
      <trkpt lat="36.678887000307441" lon="-5.212562000378966">
        <ele>995.58000000000004</ele>
        <time>2025-05-09T09:55:19Z</time>
      </trkpt>
      <trkpt lat="36.678937962278724" lon="-5.212454041466117">
        <ele>996.53999999999996</ele>
        <time>2025-05-09T09:55:20Z</time>
      </trkpt>
      <trkpt lat="36.678996970877051" lon="-5.212327977642417">
        <ele>997.50999999999999</ele>
        <time>2025-05-09T09:55:21Z</time>
      </trkpt>
      <trkpt lat="36.67905799113214" lon="-5.212199985980988">
        <ele>998.95000000000005</ele>
        <time>2025-05-09T09:55:22Z</time>
      </trkpt>
      <trkpt lat="36.679775984957814" lon="-5.210669031366706">
        <ele>1001.83</ele>
        <time>2025-05-09T09:55:32Z</time>
      </trkpt>
      <trkpt lat="36.679842034354806" lon="-5.210474990308285">
        <ele>1001.35</ele>
        <time>2025-05-09T09:55:33Z</time>
      </trkpt>
      <trkpt lat="36.679871035739779" lon="-5.210290001705289">
        <ele>1000.39</ele>
        <time>2025-05-09T09:55:34Z</time>
      </trkpt>
      <trkpt lat="36.679889978840947" lon="-5.210108030587435">
        <ele>999.42999999999995</ele>
        <time>2025-05-09T09:55:35Z</time>
      </trkpt>
      <trkpt lat="36.679863994941115" lon="-5.209949025884271">
        <ele>997.99000000000001</ele>
        <time>2025-05-09T09:55:36Z</time>
      </trkpt>
      <trkpt lat="36.679819989949465" lon="-5.2097989898175">
        <ele>997.01999999999998</ele>
        <time>2025-05-09T09:55:37Z</time>
      </trkpt>
      <trkpt lat="36.679757963865995" lon="-5.209651971235871">
        <ele>995.58000000000004</ele>
        <time>2025-05-09T09:55:38Z</time>
      </trkpt>
      <trkpt lat="36.679665008559823" lon="-5.209503024816513">
        <ele>994.13999999999999</ele>
        <time>2025-05-09T09:55:39Z</time>
      </trkpt>
      <trkpt lat="36.679556965827942" lon="-5.209333039820194">
        <ele>993.17999999999995</ele>
        <time>2025-05-09T09:55:40Z</time>
      </trkpt>
      <trkpt lat="36.679294025525451" lon="-5.208957027643919">
        <ele>990.77999999999997</ele>
        <time>2025-05-09T09:55:42Z</time>
      </trkpt>
      <trkpt lat="36.6786939650774" lon="-5.208249008283019">
        <ele>987.88999999999999</ele>
        <time>2025-05-09T09:55:46Z</time>
      </trkpt>
      <trkpt lat="36.678511993959546" lon="-5.208142977207899">
        <ele>987.40999999999997</ele>
        <time>2025-05-09T09:55:47Z</time>
      </trkpt>
      <trkpt lat="36.678345026448369" lon="-5.208045998588204">
        <ele>987.88999999999999</ele>
        <time>2025-05-09T09:55:48Z</time>
      </trkpt>
      <trkpt lat="36.678178980946541" lon="-5.20794901996851">
        <ele>987.88999999999999</ele>
        <time>2025-05-09T09:55:49Z</time>
      </trkpt>
      <trkpt lat="36.678044032305479" lon="-5.207915995270014">
        <ele>988.37</ele>
        <time>2025-05-09T09:55:50Z</time>
      </trkpt>
      <trkpt lat="36.677903970703483" lon="-5.207882970571518">
        <ele>989.33000000000004</ele>
        <time>2025-05-09T09:55:51Z</time>
      </trkpt>
      <trkpt lat="36.677772961556911" lon="-5.207852041348815">
        <ele>990.29999999999995</ele>
        <time>2025-05-09T09:55:52Z</time>
      </trkpt>
      <trkpt lat="36.677545979619026" lon="-5.207776017487049">
        <ele>992.22000000000003</ele>
        <time>2025-05-09T09:55:54Z</time>
      </trkpt>
      <trkpt lat="36.677436009049416" lon="-5.207724971696734">
        <ele>993.17999999999995</ele>
        <time>2025-05-09T09:55:55Z</time>
      </trkpt>
      <trkpt lat="36.677332995459437" lon="-5.20765095949173">
        <ele>993.65999999999997</ele>
        <time>2025-05-09T09:55:56Z</time>
      </trkpt>
      <trkpt lat="36.677260994911194" lon="-5.207553980872035">
        <ele>994.13999999999999</ele>
        <time>2025-05-09T09:55:57Z</time>
      </trkpt>
      <trkpt lat="36.677211038768291" lon="-5.20743403583765">
        <ele>995.10000000000002</ele>
        <time>2025-05-09T09:55:58Z</time>
      </trkpt>
      <trkpt lat="36.677173990756273" lon="-5.207300009205937">
        <ele>995.58000000000004</ele>
        <time>2025-05-09T09:55:59Z</time>
      </trkpt>
      <trkpt lat="36.677134009078145" lon="-5.207153996452689">
        <ele>996.05999999999995</ele>
        <time>2025-05-09T09:56:00Z</time>
      </trkpt>
      <trkpt lat="36.677091009914875" lon="-5.207000020891428">
        <ele>997.01999999999998</ele>
        <time>2025-05-09T09:56:01Z</time>
      </trkpt>
      <trkpt lat="36.677034012973309" lon="-5.20683498121798">
        <ele>997.50999999999999</ele>
        <time>2025-05-09T09:56:02Z</time>
      </trkpt>
      <trkpt lat="36.676960000768304" lon="-5.206676982343197">
        <ele>997.99000000000001</ele>
        <time>2025-05-09T09:56:03Z</time>
      </trkpt>
      <trkpt lat="36.676876014098525" lon="-5.20651001483202">
        <ele>998.47000000000003</ele>
        <time>2025-05-09T09:56:04Z</time>
      </trkpt>
      <trkpt lat="36.676768977195024" lon="-5.206329971551895">
        <ele>998.95000000000005</ele>
        <time>2025-05-09T09:56:05Z</time>
      </trkpt>
      <trkpt lat="36.676112003624439" lon="-5.205474011600018">
        <ele>1000.39</ele>
        <time>2025-05-09T09:56:10Z</time>
      </trkpt>
      <trkpt lat="36.675962973386049" lon="-5.205404022708535">
        <ele>1000.87</ele>
        <time>2025-05-09T09:56:11Z</time>
      </trkpt>
      <trkpt lat="36.675817966461182" lon="-5.205350965261459">
        <ele>1001.35</ele>
        <time>2025-05-09T09:56:12Z</time>
      </trkpt>
      <trkpt lat="36.675660973414779" lon="-5.205343002453446">
        <ele>1001.83</ele>
        <time>2025-05-09T09:56:13Z</time>
      </trkpt>
      <trkpt lat="36.675500962883234" lon="-5.205335039645433">
        <ele>1002.3099999999999</ele>
        <time>2025-05-09T09:56:14Z</time>
      </trkpt>
      <trkpt lat="36.675341036170721" lon="-5.205331016331911">
        <ele>1002.79</ele>
        <time>2025-05-09T09:56:15Z</time>
      </trkpt>
      <trkpt lat="36.673838999122381" lon="-5.205172011628747">
        <ele>1010.48</ele>
        <time>2025-05-09T09:56:25Z</time>
      </trkpt>
      <trkpt lat="36.673395009711385" lon="-5.205041002482176">
        <ele>1012.89</ele>
        <time>2025-05-09T09:56:28Z</time>
      </trkpt>
      <trkpt lat="36.673285961151123" lon="-5.205008983612061">
        <ele>1013.37</ele>
        <time>2025-05-09T09:56:29Z</time>
      </trkpt>
      <trkpt lat="36.673160986974835" lon="-5.204917034134269">
        <ele>1014.33</ele>
        <time>2025-05-09T09:56:30Z</time>
      </trkpt>
      <trkpt lat="36.673047998920083" lon="-5.204834975302219">
        <ele>1014.8099999999999</ele>
        <time>2025-05-09T09:56:31Z</time>
      </trkpt>
      <trkpt lat="36.67295303195715" lon="-5.204753000289202">
        <ele>1015.29</ele>
        <time>2025-05-09T09:56:32Z</time>
      </trkpt>
      <trkpt lat="36.672879019752145" lon="-5.204622996971011">
        <ele>1015.77</ele>
        <time>2025-05-09T09:56:33Z</time>
      </trkpt>
      <trkpt lat="36.67280400171876" lon="-5.20449198782444">
        <ele>1016.25</ele>
        <time>2025-05-09T09:56:34Z</time>
      </trkpt>
      <trkpt lat="36.672767959535122" lon="-5.204346980899572">
        <ele>1017.21</ele>
        <time>2025-05-09T09:56:35Z</time>
      </trkpt>
      <trkpt lat="36.672736024484038" lon="-5.204187976196408">
        <ele>1017.6900000000001</ele>
        <time>2025-05-09T09:56:36Z</time>
      </trkpt>
      <trkpt lat="36.672705011442304" lon="-5.204030983150005">
        <ele>1018.17</ele>
        <time>2025-05-09T09:56:37Z</time>
      </trkpt>
      <trkpt lat="36.672666035592556" lon="-5.203557992354035">
        <ele>1019.62</ele>
        <time>2025-05-09T09:56:40Z</time>
      </trkpt>
      <trkpt lat="36.672691013664007" lon="-5.203394964337349">
        <ele>1020.58</ele>
        <time>2025-05-09T09:56:41Z</time>
      </trkpt>
      <trkpt lat="36.672714985907078" lon="-5.203229002654553">
        <ele>1020.58</ele>
        <time>2025-05-09T09:56:42Z</time>
      </trkpt>
      <trkpt lat="36.67276200838387" lon="-5.20307200960815">
        <ele>1021.0599999999999</ele>
        <time>2025-05-09T09:56:43Z</time>
      </trkpt>
      <trkpt lat="36.672838032245636" lon="-5.202908981591463">
        <ele>1021.0599999999999</ele>
        <time>2025-05-09T09:56:44Z</time>
      </trkpt>
      <trkpt lat="36.672921013087034" lon="-5.202744025737047">
        <ele>1020.58</ele>
        <time>2025-05-09T09:56:45Z</time>
      </trkpt>
      <trkpt lat="36.673022015020251" lon="-5.202580997720361">
        <ele>1020.1</ele>
        <time>2025-05-09T09:56:46Z</time>
      </trkpt>
      <trkpt lat="36.673736991360784" lon="-5.201682960614562">
        <ele>1015.29</ele>
        <time>2025-05-09T09:56:52Z</time>
      </trkpt>
      <trkpt lat="36.673875963315368" lon="-5.2015670388937">
        <ele>1014.33</ele>
        <time>2025-05-09T09:56:53Z</time>
      </trkpt>
      <trkpt lat="36.675128974020481" lon="-5.20068702287972">
        <ele>1008.08</ele>
        <time>2025-05-09T09:56:59Z</time>
      </trkpt>
      <trkpt lat="36.675304993987083" lon="-5.200519971549511">
        <ele>1007.6</ele>
        <time>2025-05-09T09:57:00Z</time>
      </trkpt>
      <trkpt lat="36.67546802200377" lon="-5.20034696906805">
        <ele>1006.64</ele>
        <time>2025-05-09T09:57:01Z</time>
      </trkpt>
      <trkpt lat="36.676833014935255" lon="-5.198651980608702">
        <ele>1001.35</ele>
        <time>2025-05-09T09:57:11Z</time>
      </trkpt>
      <trkpt lat="36.678049983456731" lon="-5.197692001238465">
        <ele>996.53999999999996</ele>
        <time>2025-05-09T09:57:19Z</time>
      </trkpt>
      <trkpt lat="36.67819700203836" lon="-5.197502989321947">
        <ele>996.05999999999995</ele>
        <time>2025-05-09T09:57:20Z</time>
      </trkpt>
      <trkpt lat="36.678320970386267" lon="-5.197343984618783">
        <ele>995.58000000000004</ele>
        <time>2025-05-09T09:57:21Z</time>
      </trkpt>
      <trkpt lat="36.678423983976245" lon="-5.197162013500929">
        <ele>994.62</ele>
        <time>2025-05-09T09:57:22Z</time>
      </trkpt>
      <trkpt lat="36.67852196842432" lon="-5.19697199575603">
        <ele>994.13999999999999</ele>
        <time>2025-05-09T09:57:23Z</time>
      </trkpt>
      <trkpt lat="36.678619030863047" lon="-5.196783989667893">
        <ele>993.17999999999995</ele>
        <time>2025-05-09T09:57:24Z</time>
      </trkpt>
      <trkpt lat="36.67871399782598" lon="-5.196599001064897">
        <ele>991.74000000000001</ele>
        <time>2025-05-09T09:57:25Z</time>
      </trkpt>
      <trkpt lat="36.678839977830648" lon="-5.196438990533352">
        <ele>991.25999999999999</ele>
        <time>2025-05-09T09:57:26Z</time>
      </trkpt>
      <trkpt lat="36.678972998633981" lon="-5.196275962516666">
        <ele>990.29999999999995</ele>
        <time>2025-05-09T09:57:27Z</time>
      </trkpt>
      <trkpt lat="36.680052001029253" lon="-5.194894960150123">
        <ele>984.52999999999997</ele>
        <time>2025-05-09T09:57:35Z</time>
      </trkpt>
      <trkpt lat="36.680873008444905" lon="-5.192990005016327">
        <ele>976.84000000000003</ele>
        <time>2025-05-09T09:57:44Z</time>
      </trkpt>
      <trkpt lat="36.681018015369773" lon="-5.192838963121176">
        <ele>975.88</ele>
        <time>2025-05-09T09:57:45Z</time>
      </trkpt>
      <trkpt lat="36.681172996759415" lon="-5.192688005045056">
        <ele>975.38999999999999</ele>
        <time>2025-05-09T09:57:46Z</time>
      </trkpt>
      <trkpt lat="36.682246970012784" lon="-5.191488973796368">
        <ele>966.74000000000001</ele>
        <time>2025-05-09T09:57:53Z</time>
      </trkpt>
      <trkpt lat="36.683171996846795" lon="-5.190130015835166">
        <ele>956.64999999999998</ele>
        <time>2025-05-09T09:58:00Z</time>
      </trkpt>
      <trkpt lat="36.683251960203052" lon="-5.18990102224052">
        <ele>955.21000000000004</ele>
        <time>2025-05-09T09:58:01Z</time>
      </trkpt>
      <trkpt lat="36.683282973244786" lon="-5.189660964533687">
        <ele>953.27999999999997</ele>
        <time>2025-05-09T09:58:02Z</time>
      </trkpt>
      <trkpt lat="36.683305017650127" lon="-5.189420990645886">
        <ele>951.84000000000003</ele>
        <time>2025-05-09T09:58:03Z</time>
      </trkpt>
      <trkpt lat="36.683326978236437" lon="-5.189187973737717">
        <ele>950.39999999999998</ele>
        <time>2025-05-09T09:58:04Z</time>
      </trkpt>
      <trkpt lat="36.683347010985017" lon="-5.188973983749747">
        <ele>948.96000000000004</ele>
        <time>2025-05-09T09:58:05Z</time>
      </trkpt>
      <trkpt lat="36.683423034846783" lon="-5.188791006803513">
        <ele>947.03999999999996</ele>
        <time>2025-05-09T09:58:06Z</time>
      </trkpt>
      <trkpt lat="36.683514984324574" lon="-5.18861498683691">
        <ele>946.07000000000005</ele>
        <time>2025-05-09T09:58:07Z</time>
      </trkpt>
      <trkpt lat="36.684200037270784" lon="-5.187705969437957">
        <ele>939.83000000000004</ele>
        <time>2025-05-09T09:58:13Z</time>
      </trkpt>
      <trkpt lat="36.684322999790311" lon="-5.187635980546475">
        <ele>938.86000000000001</ele>
        <time>2025-05-09T09:58:14Z</time>
      </trkpt>
      <trkpt lat="36.684469012543559" lon="-5.187579989433289">
        <ele>937.41999999999996</ele>
        <time>2025-05-09T09:58:15Z</time>
      </trkpt>
      <trkpt lat="36.684774029999971" lon="-5.187461972236633">
        <ele>935.01999999999998</ele>
        <time>2025-05-09T09:58:17Z</time>
      </trkpt>
      <trkpt lat="36.684904033318162" lon="-5.18732501193881">
        <ele>933.58000000000004</ele>
        <time>2025-05-09T09:58:18Z</time>
      </trkpt>
      <trkpt lat="36.68502900749445" lon="-5.187183022499085">
        <ele>932.62</ele>
        <time>2025-05-09T09:58:19Z</time>
      </trkpt>
      <trkpt lat="36.685145013034344" lon="-5.187021000310779">
        <ele>931.16999999999996</ele>
        <time>2025-05-09T09:58:20Z</time>
      </trkpt>
      <trkpt lat="36.685236962512136" lon="-5.186837017536163">
        <ele>929.73000000000002</ele>
        <time>2025-05-09T09:58:21Z</time>
      </trkpt>
      <trkpt lat="36.685326984152198" lon="-5.186656974256039">
        <ele>928.76999999999998</ele>
        <time>2025-05-09T09:58:22Z</time>
      </trkpt>
      <trkpt lat="36.685385992750525" lon="-5.18646402284503">
        <ele>926.85000000000002</ele>
        <time>2025-05-09T09:58:23Z</time>
      </trkpt>
      <trkpt lat="36.685435026884079" lon="-5.186272999271751">
        <ele>925.40999999999997</ele>
        <time>2025-05-09T09:58:24Z</time>
      </trkpt>
      <trkpt lat="36.685480959713459" lon="-5.186093961820006">
        <ele>923.96000000000004</ele>
        <time>2025-05-09T09:58:25Z</time>
      </trkpt>
      <trkpt lat="36.685534017160535" lon="-5.185930011793971">
        <ele>922.03999999999996</ele>
        <time>2025-05-09T09:58:26Z</time>
      </trkpt>
      <trkpt lat="36.685626972466707" lon="-5.185807971283793">
        <ele>920.12</ele>
        <time>2025-05-09T09:58:27Z</time>
      </trkpt>
      <trkpt lat="36.685743983834982" lon="-5.185721972957254">
        <ele>918.67999999999995</ele>
        <time>2025-05-09T09:58:28Z</time>
      </trkpt>
      <trkpt lat="36.68586703017354" lon="-5.185632035136223">
        <ele>917.24000000000001</ele>
        <time>2025-05-09T09:58:29Z</time>
      </trkpt>
      <trkpt lat="36.685990998521447" lon="-5.185540001839399">
        <ele>915.78999999999996</ele>
        <time>2025-05-09T09:58:30Z</time>
      </trkpt>
      <trkpt lat="36.686092000454664" lon="-5.185425002127886">
        <ele>914.83000000000004</ele>
        <time>2025-05-09T09:58:31Z</time>
      </trkpt>
      <trkpt lat="36.686185039579868" lon="-5.185302961617708">
        <ele>913.38999999999999</ele>
        <time>2025-05-09T09:58:32Z</time>
      </trkpt>
      <trkpt lat="36.68623398989439" lon="-5.185144040733576">
        <ele>912.42999999999995</ele>
        <time>2025-05-09T09:58:33Z</time>
      </trkpt>
      <trkpt lat="36.686271959915757" lon="-5.184977995231748">
        <ele>910.50999999999999</ele>
        <time>2025-05-09T09:58:34Z</time>
      </trkpt>
      <trkpt lat="36.686286041513085" lon="-5.184795018285513">
        <ele>909.05999999999995</ele>
        <time>2025-05-09T09:58:35Z</time>
      </trkpt>
      <trkpt lat="36.686588041484356" lon="-5.183348972350359">
        <ele>899.92999999999995</ele>
        <time>2025-05-09T09:58:42Z</time>
      </trkpt>
      <trkpt lat="36.686837989836931" lon="-5.18276902846992">
        <ele>894.63999999999999</ele>
        <time>2025-05-09T09:58:45Z</time>
      </trkpt>
      <trkpt lat="36.686951983720064" lon="-5.182622009888291">
        <ele>893.20000000000005</ele>
        <time>2025-05-09T09:58:46Z</time>
      </trkpt>
      <trkpt lat="36.687087016180158" lon="-5.18251396715641">
        <ele>892.24000000000001</ele>
        <time>2025-05-09T09:58:47Z</time>
      </trkpt>
      <trkpt lat="36.687245015054941" lon="-5.182438027113676">
        <ele>890.79999999999995</ele>
        <time>2025-05-09T09:58:48Z</time>
      </trkpt>
      <trkpt lat="36.687410976737738" lon="-5.182365020737052">
        <ele>889.84000000000003</ele>
        <time>2025-05-09T09:58:49Z</time>
      </trkpt>
      <trkpt lat="36.687953034415841" lon="-5.182124963030219">
        <ele>885.50999999999999</ele>
        <time>2025-05-09T09:58:52Z</time>
      </trkpt>
      <trkpt lat="36.68812301941216" lon="-5.182003006339073">
        <ele>884.07000000000005</ele>
        <time>2025-05-09T09:58:53Z</time>
      </trkpt>
      <trkpt lat="36.688285041600466" lon="-5.181852970272303">
        <ele>882.63</ele>
        <time>2025-05-09T09:58:54Z</time>
      </trkpt>
      <trkpt lat="36.689614998176694" lon="-5.180802969262004">
        <ele>871.09000000000003</ele>
        <time>2025-05-09T09:59:02Z</time>
      </trkpt>
      <trkpt lat="36.691661020740867" lon="-5.179882971569896">
        <ele>854.26999999999998</ele>
        <time>2025-05-09T09:59:13Z</time>
      </trkpt>
      <trkpt lat="36.691846009343863" lon="-5.179892024025321">
        <ele>852.83000000000004</ele>
        <time>2025-05-09T09:59:14Z</time>
      </trkpt>
      <trkpt lat="36.692035021260381" lon="-5.179899986833334">
        <ele>851.38</ele>
        <time>2025-05-09T09:59:15Z</time>
      </trkpt>
      <trkpt lat="36.692224033176899" lon="-5.179941980168223">
        <ele>849.46000000000004</ele>
        <time>2025-05-09T09:59:16Z</time>
      </trkpt>
      <trkpt lat="36.692417990416288" lon="-5.180005012080073">
        <ele>848.01999999999998</ele>
        <time>2025-05-09T09:59:17Z</time>
      </trkpt>
      <trkpt lat="36.692988965660334" lon="-5.180159993469715">
        <ele>842.25</ele>
        <time>2025-05-09T09:59:20Z</time>
      </trkpt>
      <trkpt lat="36.693177977576852" lon="-5.180180026218295">
        <ele>840.80999999999995</ele>
        <time>2025-05-09T09:59:21Z</time>
      </trkpt>
      <trkpt lat="36.693348968401551" lon="-5.180159993469715">
        <ele>838.88999999999999</ele>
        <time>2025-05-09T09:59:22Z</time>
      </trkpt>
      <trkpt lat="36.693497998639941" lon="-5.180141972377896">
        <ele>837.45000000000005</ele>
        <time>2025-05-09T09:59:23Z</time>
      </trkpt>
      <trkpt lat="36.693625990301371" lon="-5.180098973214626">
        <ele>836</ele>
        <time>2025-05-09T09:59:24Z</time>
      </trkpt>
      <trkpt lat="36.693747024983168" lon="-5.180052034556866">
        <ele>834.55999999999995</ele>
        <time>2025-05-09T09:59:25Z</time>
      </trkpt>
      <trkpt lat="36.695596994832158" lon="-5.179236978292465">
        <ele>820.62</ele>
        <time>2025-05-09T09:59:39Z</time>
      </trkpt>
      <trkpt lat="36.697042034938931" lon="-5.178542034700513">
        <ele>813.40999999999997</ele>
        <time>2025-05-09T09:59:49Z</time>
      </trkpt>
      <trkpt lat="36.698856968432665" lon="-5.17746202647686">
        <ele>810.04999999999995</ele>
        <time>2025-05-09T10:00:00Z</time>
      </trkpt>
      <trkpt lat="36.700270995497704" lon="-5.176575975492597">
        <ele>807.15999999999997</ele>
        <time>2025-05-09T10:00:10Z</time>
      </trkpt>
      <trkpt lat="36.700440980494022" lon="-5.176529036834836">
        <ele>807.15999999999997</ele>
        <time>2025-05-09T10:00:11Z</time>
      </trkpt>
      <trkpt lat="36.700615994632244" lon="-5.176516966894269">
        <ele>807.15999999999997</ele>
        <time>2025-05-09T10:00:12Z</time>
      </trkpt>
      <trkpt lat="36.702162036672235" lon="-5.176570024341345">
        <ele>805.24000000000001</ele>
        <time>2025-05-09T10:00:20Z</time>
      </trkpt>
      <trkpt lat="36.702362028881907" lon="-5.176534987986088">
        <ele>804.75999999999999</ele>
        <time>2025-05-09T10:00:21Z</time>
      </trkpt>
      <trkpt lat="36.703774966299534" lon="-5.176095021888614">
        <ele>803.79999999999995</ele>
        <time>2025-05-09T10:00:29Z</time>
      </trkpt>
      <trkpt lat="36.703939000144601" lon="-5.176011035218835">
        <ele>803.79999999999995</ele>
        <time>2025-05-09T10:00:30Z</time>
      </trkpt>
      <trkpt lat="36.705004004761577" lon="-5.175531003624201">
        <ele>803.79999999999995</ele>
        <time>2025-05-09T10:00:36Z</time>
      </trkpt>
      <trkpt lat="36.705188993364573" lon="-5.175484986975789">
        <ele>803.79999999999995</ele>
        <time>2025-05-09T10:00:37Z</time>
      </trkpt>
      <trkpt lat="36.706845005974174" lon="-5.17535800114274">
        <ele>807.15999999999997</ele>
        <time>2025-05-09T10:00:46Z</time>
      </trkpt>
      <trkpt lat="36.707781013101339" lon="-5.175470989197493">
        <ele>809.09000000000003</ele>
        <time>2025-05-09T10:00:51Z</time>
      </trkpt>
      <trkpt lat="36.707971030846238" lon="-5.175457997247577">
        <ele>809.57000000000005</ele>
        <time>2025-05-09T10:00:52Z</time>
      </trkpt>
      <trkpt lat="36.708159036934376" lon="-5.175446011126041">
        <ele>810.04999999999995</ele>
        <time>2025-05-09T10:00:53Z</time>
      </trkpt>
      <trkpt lat="36.708340002223849" lon="-5.17540100030601">
        <ele>810.52999999999997</ele>
        <time>2025-05-09T10:00:54Z</time>
      </trkpt>
      <trkpt lat="36.70851300470531" lon="-5.17531399615109">
        <ele>811.00999999999999</ele>
        <time>2025-05-09T10:00:55Z</time>
      </trkpt>
      <trkpt lat="36.708675026893616" lon="-5.175197990611196">
        <ele>811.49000000000001</ele>
        <time>2025-05-09T10:00:56Z</time>
      </trkpt>
      <trkpt lat="36.708825984969735" lon="-5.175061030313373">
        <ele>811.97000000000003</ele>
        <time>2025-05-09T10:00:57Z</time>
      </trkpt>
      <trkpt lat="36.708967974409461" lon="-5.174901019781828">
        <ele>812.45000000000005</ele>
        <time>2025-05-09T10:00:58Z</time>
      </trkpt>
      <trkpt lat="36.709110969677567" lon="-5.174738997593522">
        <ele>812.92999999999995</ele>
        <time>2025-05-09T10:00:59Z</time>
      </trkpt>
      <trkpt lat="36.710557015612721" lon="-5.173462014645338">
        <ele>818.22000000000003</ele>
        <time>2025-05-09T10:01:08Z</time>
      </trkpt>
      <trkpt lat="36.710737980902195" lon="-5.17336000688374">
        <ele>819.17999999999995</ele>
        <time>2025-05-09T10:01:09Z</time>
      </trkpt>
      <trkpt lat="36.710925986990333" lon="-5.173297980800271">
        <ele>819.65999999999997</ele>
        <time>2025-05-09T10:01:10Z</time>
      </trkpt>
      <trkpt lat="36.711118016391993" lon="-5.173265961930156">
        <ele>820.62</ele>
        <time>2025-05-09T10:01:11Z</time>
      </trkpt>
      <trkpt lat="36.712147984653711" lon="-5.173124978318811">
        <ele>823.50999999999999</ele>
        <time>2025-05-09T10:01:17Z</time>
      </trkpt>
      <trkpt lat="36.712286034598947" lon="-5.173064963892102">
        <ele>823.99000000000001</ele>
        <time>2025-05-09T10:01:18Z</time>
      </trkpt>
      <trkpt lat="36.712402040138841" lon="-5.172935966402292">
        <ele>824.47000000000003</ele>
        <time>2025-05-09T10:01:19Z</time>
      </trkpt>
      <trkpt lat="36.712520979344845" lon="-5.172803029417992">
        <ele>824.95000000000005</ele>
        <time>2025-05-09T10:01:20Z</time>
      </trkpt>
      <trkpt lat="36.712634973227978" lon="-5.172676965594292">
        <ele>825.42999999999995</ele>
        <time>2025-05-09T10:01:21Z</time>
      </trkpt>
      <trkpt lat="36.712735975161195" lon="-5.172563977539539">
        <ele>825.90999999999997</ele>
        <time>2025-05-09T10:01:22Z</time>
      </trkpt>
      <trkpt lat="36.71283395960927" lon="-5.172473033890128">
        <ele>825.90999999999997</ele>
        <time>2025-05-09T10:01:23Z</time>
      </trkpt>
      <trkpt lat="36.712961029261351" lon="-5.17243598587811">
        <ele>825.90999999999997</ele>
        <time>2025-05-09T10:01:24Z</time>
      </trkpt>
      <trkpt lat="36.713242996484041" lon="-5.172353005036712">
        <ele>825.90999999999997</ele>
        <time>2025-05-09T10:01:26Z</time>
      </trkpt>
      <trkpt lat="36.713378028944135" lon="-5.172288967296481">
        <ele>825.90999999999997</ele>
        <time>2025-05-09T10:01:27Z</time>
      </trkpt>
      <trkpt lat="36.7134989798069" lon="-5.172194000333548">
        <ele>825.42999999999995</ele>
        <time>2025-05-09T10:01:28Z</time>
      </trkpt>
      <trkpt lat="36.713745994493365" lon="-5.172000965103507">
        <ele>824.47000000000003</ele>
        <time>2025-05-09T10:01:30Z</time>
      </trkpt>
      <trkpt lat="36.713860994204879" lon="-5.171937011182308">
        <ele>823.99000000000001</ele>
        <time>2025-05-09T10:01:31Z</time>
      </trkpt>
      <trkpt lat="36.713996026664972" lon="-5.171918990090489">
        <ele>823.50999999999999</ele>
        <time>2025-05-09T10:01:32Z</time>
      </trkpt>
      <trkpt lat="36.714142039418221" lon="-5.17189996317029">
        <ele>822.54999999999995</ele>
        <time>2025-05-09T10:01:33Z</time>
      </trkpt>
      <trkpt lat="36.71427003107965" lon="-5.171918990090489">
        <ele>822.05999999999995</ele>
        <time>2025-05-09T10:01:34Z</time>
      </trkpt>
      <trkpt lat="36.714582005515695" lon="-5.17196299508214">
        <ele>820.13999999999999</ele>
        <time>2025-05-09T10:01:36Z</time>
      </trkpt>
      <trkpt lat="36.714742016047239" lon="-5.171944973990321">
        <ele>819.17999999999995</ele>
        <time>2025-05-09T10:01:37Z</time>
      </trkpt>
      <trkpt lat="36.714892974123359" lon="-5.171865010634065">
        <ele>818.22000000000003</ele>
        <time>2025-05-09T10:01:38Z</time>
      </trkpt>
      <trkpt lat="36.715046027675271" lon="-5.171773983165622">
        <ele>817.25999999999999</ele>
        <time>2025-05-09T10:01:39Z</time>
      </trkpt>
      <trkpt lat="36.715201009064913" lon="-5.171681027859449">
        <ele>816.77999999999997</ele>
        <time>2025-05-09T10:01:40Z</time>
      </trkpt>
      <trkpt lat="36.71579604037106" lon="-5.171323958784342">
        <ele>812.92999999999995</ele>
        <time>2025-05-09T10:01:44Z</time>
      </trkpt>
      <trkpt lat="36.715939035639167" lon="-5.171292023733258">
        <ele>811.97000000000003</ele>
        <time>2025-05-09T10:01:45Z</time>
      </trkpt>
      <trkpt lat="36.716094017028809" lon="-5.171280959621072">
        <ele>811.00999999999999</ele>
        <time>2025-05-09T10:01:46Z</time>
      </trkpt>
      <trkpt lat="36.716406997293234" lon="-5.171260004863143">
        <ele>808.61000000000001</ele>
        <time>2025-05-09T10:01:48Z</time>
      </trkpt>
      <trkpt lat="36.716557033360004" lon="-5.17121097072959">
        <ele>807.63999999999999</ele>
        <time>2025-05-09T10:01:49Z</time>
      </trkpt>
      <trkpt lat="36.716737998649478" lon="-5.171126984059811">
        <ele>807.15999999999997</ele>
        <time>2025-05-09T10:01:50Z</time>
      </trkpt>
      <trkpt lat="36.716830031946301" lon="-5.171021958813071">
        <ele>806.20000000000005</ele>
        <time>2025-05-09T10:01:51Z</time>
      </trkpt>
      <trkpt lat="36.716949976980686" lon="-5.170882986858487">
        <ele>805.24000000000001</ele>
        <time>2025-05-09T10:01:52Z</time>
      </trkpt>
      <trkpt lat="36.717213001102209" lon="-5.17065298743546">
        <ele>803.32000000000005</ele>
        <time>2025-05-09T10:01:54Z</time>
      </trkpt>
      <trkpt lat="36.717352978885174" lon="-5.170545028522611">
        <ele>801.88</ele>
        <time>2025-05-09T10:01:55Z</time>
      </trkpt>
      <trkpt lat="36.717501003295183" lon="-5.170487025752664">
        <ele>800.91999999999996</ele>
        <time>2025-05-09T10:01:56Z</time>
      </trkpt>
      <trkpt lat="36.71766797080636" lon="-5.170455006882548">
        <ele>799.47000000000003</ele>
        <time>2025-05-09T10:01:57Z</time>
      </trkpt>
      <trkpt lat="36.717853965237737" lon="-5.170418964698911">
        <ele>798.02999999999997</ele>
        <time>2025-05-09T10:01:58Z</time>
      </trkpt>
      <trkpt lat="36.718007018789649" lon="-5.170418964698911">
        <ele>797.07000000000005</ele>
        <time>2025-05-09T10:01:59Z</time>
      </trkpt>
      <trkpt lat="36.718182032927871" lon="-5.170418964698911">
        <ele>796.11000000000001</ele>
        <time>2025-05-09T10:02:00Z</time>
      </trkpt>
      <trkpt lat="36.719876015558839" lon="-5.170684000477195">
        <ele>785.52999999999997</ele>
        <time>2025-05-09T10:02:10Z</time>
      </trkpt>
      <trkpt lat="36.721820030361414" lon="-5.171264028176665">
        <ele>771.11000000000001</ele>
        <time>2025-05-09T10:02:22Z</time>
      </trkpt>
      <trkpt lat="36.722424030303955" lon="-5.171341979876161">
        <ele>765.83000000000004</ele>
        <time>2025-05-09T10:02:26Z</time>
      </trkpt>
      <trkpt lat="36.723840991035104" lon="-5.170869994908571">
        <ele>754.28999999999996</ele>
        <time>2025-05-09T10:02:36Z</time>
      </trkpt>
      <trkpt lat="36.723968982696533" lon="-5.170763041824102">
        <ele>752.85000000000002</ele>
        <time>2025-05-09T10:02:38Z</time>
      </trkpt>
      <trkpt lat="36.724006030708551" lon="-5.170729011297226">
        <ele>751.88999999999999</ele>
        <time>2025-05-09T10:02:39Z</time>
      </trkpt>
      <trkpt lat="36.724034026265144" lon="-5.170850967988372">
        <ele>751.40999999999997</ele>
        <time>2025-05-09T10:02:40Z</time>
      </trkpt>
      <trkpt lat="36.724075013771653" lon="-5.170907964929938">
        <ele>750.92999999999995</ele>
        <time>2025-05-09T10:02:41Z</time>
      </trkpt>
      <trkpt lat="36.724123964086175" lon="-5.170975020155311">
        <ele>750.45000000000005</ele>
        <time>2025-05-09T10:02:42Z</time>
      </trkpt>
      <trkpt lat="36.724189007654786" lon="-5.171044003218412">
        <ele>750.45000000000005</ele>
        <time>2025-05-09T10:02:43Z</time>
      </trkpt>
      <trkpt lat="36.724255979061127" lon="-5.171107035130262">
        <ele>749.97000000000003</ele>
        <time>2025-05-09T10:02:44Z</time>
      </trkpt>
      <trkpt lat="36.724329991266131" lon="-5.171177024021745">
        <ele>749.97000000000003</ele>
        <time>2025-05-09T10:02:45Z</time>
      </trkpt>
      <trkpt lat="36.72441003844142" lon="-5.171251958236098">
        <ele>749.49000000000001</ele>
        <time>2025-05-09T10:02:46Z</time>
      </trkpt>
      <trkpt lat="36.724681025370955" lon="-5.171429989859462">
        <ele>749.49000000000001</ele>
        <time>2025-05-09T10:02:49Z</time>
      </trkpt>
      <trkpt lat="36.72477800399065" lon="-5.171478018164635">
        <ele>749</ele>
        <time>2025-05-09T10:02:50Z</time>
      </trkpt>
      <trkpt lat="36.724891997873783" lon="-5.171535015106201">
        <ele>748.51999999999998</ele>
        <time>2025-05-09T10:02:51Z</time>
      </trkpt>
      <trkpt lat="36.725799003615975" lon="-5.171376010403037">
        <ele>742.75999999999999</ele>
        <time>2025-05-09T10:03:00Z</time>
      </trkpt>
      <trkpt lat="36.72589598223567" lon="-5.171298980712891">
        <ele>741.78999999999996</ele>
        <time>2025-05-09T10:03:01Z</time>
      </trkpt>
      <trkpt lat="36.726917987689376" lon="-5.170359034091234">
        <ele>738.42999999999995</ele>
        <time>2025-05-09T10:03:12Z</time>
      </trkpt>
      <trkpt lat="36.727660959586501" lon="-5.169667024165392">
        <ele>736.02999999999997</ele>
        <time>2025-05-09T10:03:20Z</time>
      </trkpt>
      <trkpt lat="36.728483978658915" lon="-5.168899996206164">
        <ele>731.70000000000005</ele>
        <time>2025-05-09T10:03:31Z</time>
      </trkpt>
      <trkpt lat="36.729247989133" lon="-5.1682039629668">
        <ele>727.37</ele>
        <time>2025-05-09T10:03:44Z</time>
      </trkpt>
      <trkpt lat="36.72946298494935" lon="-5.168016040697694">
        <ele>726.88999999999999</ele>
        <time>2025-05-09T10:03:48Z</time>
      </trkpt>
      <trkpt lat="36.73014803789556" lon="-5.167330987751484">
        <ele>724.97000000000003</ele>
        <time>2025-05-09T10:03:59Z</time>
      </trkpt>
      <trkpt lat="36.73040896654129" lon="-5.16699998639524">
        <ele>723.04999999999995</ele>
        <time>2025-05-09T10:04:03Z</time>
      </trkpt>
      <trkpt lat="36.730476021766663" lon="-5.166908958926797">
        <ele>722.09000000000003</ele>
        <time>2025-05-09T10:04:04Z</time>
      </trkpt>
      <trkpt lat="36.730520026758313" lon="-5.166802005842328">
        <ele>721.61000000000001</ele>
        <time>2025-05-09T10:04:05Z</time>
      </trkpt>
      <trkpt lat="36.730608036741614" lon="-5.166588015854359">
        <ele>719.67999999999995</ele>
        <time>2025-05-09T10:04:07Z</time>
      </trkpt>
      <trkpt lat="36.73070702701807" lon="-5.166392968967557">
        <ele>718.24000000000001</ele>
        <time>2025-05-09T10:04:09Z</time>
      </trkpt>
      <trkpt lat="36.730757988989353" lon="-5.166290039196611">
        <ele>717.27999999999997</ele>
        <time>2025-05-09T10:04:10Z</time>
      </trkpt>
      <trkpt lat="36.730820015072823" lon="-5.166207980364561">
        <ele>716.32000000000005</ele>
        <time>2025-05-09T10:04:11Z</time>
      </trkpt>
      <trkpt lat="36.730892015621066" lon="-5.166135979816318">
        <ele>715.36000000000001</ele>
        <time>2025-05-09T10:04:12Z</time>
      </trkpt>
      <trkpt lat="36.73096502199769" lon="-5.166062973439694">
        <ele>713.91999999999996</ele>
        <time>2025-05-09T10:04:13Z</time>
      </trkpt>
      <trkpt lat="36.731046997010708" lon="-5.166017962619662">
        <ele>712.95000000000005</ele>
        <time>2025-05-09T10:04:14Z</time>
      </trkpt>
      <trkpt lat="36.731128972023726" lon="-5.165972029790282">
        <ele>711.50999999999999</ele>
        <time>2025-05-09T10:04:15Z</time>
      </trkpt>
      <trkpt lat="36.731209019199014" lon="-5.165932970121503">
        <ele>710.54999999999995</ele>
        <time>2025-05-09T10:04:16Z</time>
      </trkpt>
      <trkpt lat="36.731582013890147" lon="-5.165791986510158">
        <ele>708.14999999999998</ele>
        <time>2025-05-09T10:04:21Z</time>
      </trkpt>
      <trkpt lat="36.731656026095152" lon="-5.165763990953565">
        <ele>708.14999999999998</ele>
        <time>2025-05-09T10:04:22Z</time>
      </trkpt>
      <trkpt lat="36.731727020815015" lon="-5.165738007053733">
        <ele>707.66999999999996</ele>
        <time>2025-05-09T10:04:23Z</time>
      </trkpt>
      <trkpt lat="36.73180396668613" lon="-5.165715962648392">
        <ele>707.66999999999996</ele>
        <time>2025-05-09T10:04:24Z</time>
      </trkpt>
      <trkpt lat="36.731883008033037" lon="-5.165694002062082">
        <ele>707.19000000000005</ele>
        <time>2025-05-09T10:04:25Z</time>
      </trkpt>
      <trkpt lat="36.732044024392962" lon="-5.165651002898812">
        <ele>706.71000000000004</ele>
        <time>2025-05-09T10:04:27Z</time>
      </trkpt>
      <trkpt lat="36.732637966051698" lon="-5.165547989308834">
        <ele>702.86000000000001</ele>
        <time>2025-05-09T10:04:34Z</time>
      </trkpt>
      <trkpt lat="36.732698986306787" lon="-5.165524017065764">
        <ele>702.86000000000001</ele>
        <time>2025-05-09T10:04:35Z</time>
      </trkpt>
      <trkpt lat="36.733654020354152" lon="-5.165078015998006">
        <ele>703.34000000000003</ele>
        <time>2025-05-09T10:04:47Z</time>
      </trkpt>
      <trkpt lat="36.733946967869997" lon="-5.164948012679815">
        <ele>703.82000000000005</ele>
        <time>2025-05-09T10:04:52Z</time>
      </trkpt>
      <trkpt lat="36.734069008380175" lon="-5.164851034060121">
        <ele>703.82000000000005</ele>
        <time>2025-05-09T10:04:54Z</time>
      </trkpt>
      <trkpt lat="36.734121982008219" lon="-5.164820021018386">
        <ele>703.34000000000003</ele>
        <time>2025-05-09T10:04:55Z</time>
      </trkpt>
      <trkpt lat="36.734175961464643" lon="-5.16478699631989">
        <ele>703.34000000000003</ele>
        <time>2025-05-09T10:04:56Z</time>
      </trkpt>
      <trkpt lat="36.734261037781835" lon="-5.16472295857966">
        <ele>703.34000000000003</ele>
        <time>2025-05-09T10:04:58Z</time>
      </trkpt>
      <trkpt lat="36.734303031116724" lon="-5.164691023528576">
        <ele>703.34000000000003</ele>
        <time>2025-05-09T10:04:59Z</time>
      </trkpt>
      <trkpt lat="36.734333038330078" lon="-5.164668979123235">
        <ele>703.34000000000003</ele>
        <time>2025-05-09T10:05:00Z</time>
      </trkpt>
      <trkpt lat="36.734368996694684" lon="-5.164582980796695">
        <ele>703.82000000000005</ele>
        <time>2025-05-09T10:05:01Z</time>
      </trkpt>
      <trkpt lat="36.734413001686335" lon="-5.164582980796695">
        <ele>703.82000000000005</ele>
        <time>2025-05-09T10:05:02Z</time>
      </trkpt>
      <trkpt lat="36.734434040263295" lon="-5.164612988010049">
        <ele>703.82000000000005</ele>
        <time>2025-05-09T10:05:03Z</time>
      </trkpt>
      <trkpt lat="36.734440997242928" lon="-5.164625979959965">
        <ele>703.82000000000005</ele>
        <time>2025-05-09T10:05:04Z</time>
      </trkpt>
      <trkpt lat="36.73444602638483" lon="-5.164760006591678">
        <ele>703.82000000000005</ele>
        <time>2025-05-09T10:05:05Z</time>
      </trkpt>
      <trkpt lat="36.734480978921056" lon="-5.164823038503528">
        <ele>704.29999999999995</ele>
        <time>2025-05-09T10:05:06Z</time>
      </trkpt>
      <trkpt lat="36.734521966427565" lon="-5.16489596106112">
        <ele>704.29999999999995</ele>
        <time>2025-05-09T10:05:07Z</time>
      </trkpt>
      <trkpt lat="36.734587009996176" lon="-5.16495899297297">
        <ele>704.29999999999995</ele>
        <time>2025-05-09T10:05:08Z</time>
      </trkpt>
      <trkpt lat="36.734649036079645" lon="-5.165015989914537">
        <ele>704.77999999999997</ele>
        <time>2025-05-09T10:05:09Z</time>
      </trkpt>
      <trkpt lat="36.734712990000844" lon="-5.165073992684484">
        <ele>704.77999999999997</ele>
        <time>2025-05-09T10:05:10Z</time>
      </trkpt>
      <trkpt lat="36.734763029962778" lon="-5.165119003504515">
        <ele>705.25999999999999</ele>
        <time>2025-05-09T10:05:11Z</time>
      </trkpt>
      <trkpt lat="36.734850034117699" lon="-5.165119003504515">
        <ele>705.25999999999999</ele>
        <time>2025-05-09T10:05:12Z</time>
      </trkpt>
      <trkpt lat="36.734922034665942" lon="-5.165119003504515">
        <ele>705.25999999999999</ele>
        <time>2025-05-09T10:05:13Z</time>
      </trkpt>
      <trkpt lat="36.734964028000832" lon="-5.165111040696502">
        <ele>705.25999999999999</ele>
        <time>2025-05-09T10:05:14Z</time>
      </trkpt>
      <trkpt lat="36.735012978315353" lon="-5.165062006562948">
        <ele>705.25999999999999</ele>
        <time>2025-05-09T10:05:15Z</time>
      </trkpt>
      <trkpt lat="36.735083973035216" lon="-5.164990006014705">
        <ele>705.25999999999999</ele>
        <time>2025-05-09T10:05:16Z</time>
      </trkpt>
      <trkpt lat="36.735094031319022" lon="-5.164956981316209">
        <ele>705.75</ele>
        <time>2025-05-09T10:05:17Z</time>
      </trkpt>
      <trkpt lat="36.735167959704995" lon="-5.164697980508208">
        <ele>705.75</ele>
        <time>2025-05-09T10:05:20Z</time>
      </trkpt>
      <trkpt lat="36.735212970525026" lon="-5.164619022980332">
        <ele>706.23000000000002</ele>
        <time>2025-05-09T10:05:21Z</time>
      </trkpt>
      <trkpt lat="36.735256975516677" lon="-5.164546016603708">
        <ele>706.23000000000002</ele>
        <time>2025-05-09T10:05:22Z</time>
      </trkpt>
      <trkpt lat="36.735301986336708" lon="-5.164472004398704">
        <ele>706.71000000000004</ele>
        <time>2025-05-09T10:05:23Z</time>
      </trkpt>
      <trkpt lat="36.735353032127023" lon="-5.164404027163982">
        <ele>706.71000000000004</ele>
        <time>2025-05-09T10:05:24Z</time>
      </trkpt>
      <trkpt lat="36.735522011294961" lon="-5.164215015247464">
        <ele>708.14999999999998</ele>
        <time>2025-05-09T10:05:27Z</time>
      </trkpt>
      <trkpt lat="36.735587976872921" lon="-5.164208980277181">
        <ele>708.63</ele>
        <time>2025-05-09T10:05:28Z</time>
      </trkpt>
      <trkpt lat="36.735653020441532" lon="-5.16420403495431">
        <ele>709.11000000000001</ele>
        <time>2025-05-09T10:05:29Z</time>
      </trkpt>
      <trkpt lat="36.736375037580729" lon="-5.164420958608389">
        <ele>717.75999999999999</ele>
        <time>2025-05-09T10:05:39Z</time>
      </trkpt>
      <trkpt lat="36.736437985673547" lon="-5.164454989135265">
        <ele>718.24000000000001</ele>
        <time>2025-05-09T10:05:40Z</time>
      </trkpt>
      <trkpt lat="36.736495988443494" lon="-5.164496982470155">
        <ele>719.20000000000005</ele>
        <time>2025-05-09T10:05:41Z</time>
      </trkpt>
      <trkpt lat="36.73655197955668" lon="-5.164536964148283">
        <ele>719.67999999999995</ele>
        <time>2025-05-09T10:05:42Z</time>
      </trkpt>
      <trkpt lat="36.736693968996406" lon="-5.16459203325212">
        <ele>720.64999999999998</ele>
        <time>2025-05-09T10:05:44Z</time>
      </trkpt>
      <trkpt lat="36.736949030309916" lon="-5.164685994386673">
        <ele>723.52999999999997</ele>
        <time>2025-05-09T10:05:48Z</time>
      </trkpt>
      <trkpt lat="36.737200990319252" lon="-5.164738968014717">
        <ele>726.88999999999999</ele>
        <time>2025-05-09T10:05:53Z</time>
      </trkpt>
      <trkpt lat="36.737242983654141" lon="-5.164748020470142">
        <ele>727.37</ele>
        <time>2025-05-09T10:05:54Z</time>
      </trkpt>
      <trkpt lat="36.737380027770996" lon="-5.164753971621394">
        <ele>729.77999999999997</ele>
        <time>2025-05-09T10:05:58Z</time>
      </trkpt>
      <trkpt lat="36.737446999177337" lon="-5.164753971621394">
        <ele>730.74000000000001</ele>
        <time>2025-05-09T10:05:59Z</time>
      </trkpt>
      <trkpt lat="36.737638022750616" lon="-5.164690017700195">
        <ele>732.17999999999995</ele>
        <time>2025-05-09T10:06:02Z</time>
      </trkpt>
      <trkpt lat="36.737712034955621" lon="-5.164690017700195">
        <ele>732.65999999999997</ele>
        <time>2025-05-09T10:06:03Z</time>
      </trkpt>
      <trkpt lat="36.7377769947052" lon="-5.164690017700195">
        <ele>732.65999999999997</ele>
        <time>2025-05-09T10:06:04Z</time>
      </trkpt>
      <trkpt lat="36.73788595944643" lon="-5.164708038792014">
        <ele>734.10000000000002</ele>
        <time>2025-05-09T10:06:06Z</time>
      </trkpt>
      <trkpt lat="36.737931976094842" lon="-5.164734022691846">
        <ele>734.58000000000004</ele>
        <time>2025-05-09T10:06:07Z</time>
      </trkpt>
      <trkpt lat="36.737983021885157" lon="-5.1647640299052">
        <ele>735.07000000000005</ele>
        <time>2025-05-09T10:06:08Z</time>
      </trkpt>
      <trkpt lat="36.738087963312864" lon="-5.164841981604695">
        <ele>736.02999999999997</ele>
        <time>2025-05-09T10:06:10Z</time>
      </trkpt>
      <trkpt lat="36.738230036571622" lon="-5.164953963831067">
        <ele>737.95000000000005</ele>
        <time>2025-05-09T10:06:13Z</time>
      </trkpt>
      <trkpt lat="36.738272029906511" lon="-5.164989000186324">
        <ele>738.42999999999995</ele>
        <time>2025-05-09T10:06:14Z</time>
      </trkpt>
      <trkpt lat="36.738308994099498" lon="-5.165020013228059">
        <ele>739.38999999999999</ele>
        <time>2025-05-09T10:06:15Z</time>
      </trkpt>
      <trkpt lat="36.738437991589308" lon="-5.165070975199342">
        <ele>741.30999999999995</ele>
        <time>2025-05-09T10:06:19Z</time>
      </trkpt>
      <trkpt lat="36.738478979095817" lon="-5.165084972977638">
        <ele>741.30999999999995</ele>
        <time>2025-05-09T10:06:20Z</time>
      </trkpt>
      <trkpt lat="36.738767987117171" lon="-5.165141969919205">
        <ele>744.20000000000005</ele>
        <time>2025-05-09T10:06:26Z</time>
      </trkpt>
      <trkpt lat="36.738832024857402" lon="-5.165148004889488">
        <ele>744.20000000000005</ele>
        <time>2025-05-09T10:06:27Z</time>
      </trkpt>
      <trkpt lat="36.738897990435362" lon="-5.165154961869121">
        <ele>744.67999999999995</ele>
        <time>2025-05-09T10:06:28Z</time>
      </trkpt>
      <trkpt lat="36.738962028175592" lon="-5.165160996839404">
        <ele>745.15999999999997</ele>
        <time>2025-05-09T10:06:29Z</time>
      </trkpt>
      <trkpt lat="36.739033022895455" lon="-5.165189998224378">
        <ele>745.15999999999997</ele>
        <time>2025-05-09T10:06:30Z</time>
      </trkpt>
      <trkpt lat="36.739082979038358" lon="-5.165211036801338">
        <ele>745.63999999999999</ele>
        <time>2025-05-09T10:06:31Z</time>
      </trkpt>
      <trkpt lat="36.739222034811974" lon="-5.165283959358931">
        <ele>747.08000000000004</ele>
        <time>2025-05-09T10:06:34Z</time>
      </trkpt>
      <trkpt lat="36.739254975691438" lon="-5.165301980450749">
        <ele>747.55999999999995</ele>
        <time>2025-05-09T10:06:35Z</time>
      </trkpt>
      <trkpt lat="36.739295041188598" lon="-5.165324024856091">
        <ele>747.55999999999995</ele>
        <time>2025-05-09T10:06:36Z</time>
      </trkpt>
      <trkpt lat="36.7396230250597" lon="-5.165469031780958">
        <ele>749.49000000000001</ele>
        <time>2025-05-09T10:06:45Z</time>
      </trkpt>
      <trkpt lat="36.73970902338624" lon="-5.165505995973945">
        <ele>749</ele>
        <time>2025-05-09T10:06:47Z</time>
      </trkpt>
      <trkpt lat="36.739751016721129" lon="-5.165525022894144">
        <ele>749</ele>
        <time>2025-05-09T10:06:48Z</time>
      </trkpt>
      <trkpt lat="36.739804996177554" lon="-5.165547989308834">
        <ele>749</ele>
        <time>2025-05-09T10:06:49Z</time>
      </trkpt>
      <trkpt lat="36.739835003390908" lon="-5.165554024279118">
        <ele>749</ele>
        <time>2025-05-09T10:06:50Z</time>
      </trkpt>
      <trkpt lat="36.739835003390908" lon="-5.165554024279118">
        <ele>749</ele>
        <time>2025-05-09T10:06:58Z</time>
      </trkpt>
      <trkpt lat="36.739835003390908" lon="-5.165554024279118">
        <ele>749.49000000000001</ele>
        <time>2025-05-09T10:07:00Z</time>
      </trkpt>
      <trkpt lat="36.739855036139488" lon="-5.165384039282799">
        <ele>749.49000000000001</ele>
        <time>2025-05-09T10:07:01Z</time>
      </trkpt>
      <trkpt lat="36.739859981462359" lon="-5.165367024019361">
        <ele>749.49000000000001</ele>
        <time>2025-05-09T10:07:02Z</time>
      </trkpt>
      <trkpt lat="36.739867022261024" lon="-5.1653459854424">
        <ele>749.97000000000003</ele>
        <time>2025-05-09T10:07:03Z</time>
      </trkpt>
      <trkpt lat="36.739874985069036" lon="-5.165320001542568">
        <ele>749.97000000000003</ele>
        <time>2025-05-09T10:07:04Z</time>
      </trkpt>
      <trkpt lat="36.739883031696081" lon="-5.165293011814356">
        <ele>749.97000000000003</ele>
        <time>2025-05-09T10:07:05Z</time>
      </trkpt>
      <trkpt lat="36.739919995889068" lon="-5.164952035993338">
        <ele>747.08000000000004</ele>
        <time>2025-05-09T10:07:18Z</time>
      </trkpt>
      <trkpt lat="36.739823017269373" lon="-5.164677025750279">
        <ele>738.90999999999997</ele>
        <time>2025-05-09T10:07:28Z</time>
      </trkpt>
      <trkpt lat="36.739804996177554" lon="-5.164625979959965">
        <ele>736.99000000000001</ele>
        <time>2025-05-09T10:07:29Z</time>
      </trkpt>
      <trkpt lat="36.739787980914116" lon="-5.16459203325212">
        <ele>735.54999999999995</ele>
        <time>2025-05-09T10:07:30Z</time>
      </trkpt>
      <trkpt lat="36.739740958437324" lon="-5.164496982470155">
        <ele>732.17999999999995</ele>
        <time>2025-05-09T10:07:34Z</time>
      </trkpt>
      <trkpt lat="36.739740958437324" lon="-5.164496982470155">
        <ele>731.22000000000003</ele>
        <time>2025-05-09T10:07:35Z</time>
      </trkpt>
      <trkpt lat="36.739743975922465" lon="-5.16444300301373">
        <ele>730.74000000000001</ele>
        <time>2025-05-09T10:07:36Z</time>
      </trkpt>
      <trkpt lat="36.739745987579226" lon="-5.164397992193699">
        <ele>729.77999999999997</ele>
        <time>2025-05-09T10:07:37Z</time>
      </trkpt>
      <trkpt lat="36.739747999235988" lon="-5.16435599885881">
        <ele>729.29999999999995</ele>
        <time>2025-05-09T10:07:38Z</time>
      </trkpt>
      <trkpt lat="36.739751016721129" lon="-5.164311993867159">
        <ele>728.82000000000005</ele>
        <time>2025-05-09T10:07:39Z</time>
      </trkpt>
      <trkpt lat="36.739635011181235" lon="-5.163861969485879">
        <ele>720.64999999999998</ele>
        <time>2025-05-09T10:07:51Z</time>
      </trkpt>
      <trkpt lat="36.739594023674726" lon="-5.163789968937635">
        <ele>712.47000000000003</ele>
        <time>2025-05-09T10:08:03Z</time>
      </trkpt>
      <trkpt lat="36.739594023674726" lon="-5.163789968937635">
        <ele>705.25999999999999</ele>
        <time>2025-05-09T10:08:22Z</time>
      </trkpt>
      <trkpt lat="36.739594023674726" lon="-5.163789968937635">
        <ele>705.25999999999999</ele>
        <time>2025-05-09T10:08:43Z</time>
      </trkpt>
      <trkpt lat="36.739467037841678" lon="-5.163816958665848">
        <ele>704.29999999999995</ele>
        <time>2025-05-09T10:08:47Z</time>
      </trkpt>
      <trkpt lat="36.739439964294434" lon="-5.163827016949654">
        <ele>704.29999999999995</ele>
        <time>2025-05-09T10:08:48Z</time>
      </trkpt>
      <trkpt lat="36.738900002092123" lon="-5.164047041907907">
        <ele>710.54999999999995</ele>
        <time>2025-05-09T10:08:59Z</time>
      </trkpt>
      <trkpt lat="36.738867983222008" lon="-5.164061961695552">
        <ele>711.02999999999997</ele>
        <time>2025-05-09T10:09:00Z</time>
      </trkpt>
      <trkpt lat="36.738767987117171" lon="-5.164107978343964">
        <ele>712.95000000000005</ele>
        <time>2025-05-09T10:09:03Z</time>
      </trkpt>
      <trkpt lat="36.738729011267424" lon="-5.164125999435782">
        <ele>713.91999999999996</ele>
        <time>2025-05-09T10:09:04Z</time>
      </trkpt>
      <trkpt lat="36.738687017932534" lon="-5.164146032184362">
        <ele>714.39999999999998</ele>
        <time>2025-05-09T10:09:05Z</time>
      </trkpt>
      <trkpt lat="36.738653993234038" lon="-5.16416204161942">
        <ele>714.88</ele>
        <time>2025-05-09T10:09:06Z</time>
      </trkpt>
      <trkpt lat="36.738624991849065" lon="-5.164175033569336">
        <ele>715.84000000000003</ele>
        <time>2025-05-09T10:09:07Z</time>
      </trkpt>
      <trkpt lat="36.738581992685795" lon="-5.164261031895876">
        <ele>716.32000000000005</ele>
        <time>2025-05-09T10:09:08Z</time>
      </trkpt>
      <trkpt lat="36.738544022664428" lon="-5.164282992482185">
        <ele>716.79999999999995</ele>
        <time>2025-05-09T10:09:09Z</time>
      </trkpt>
      <trkpt lat="36.738493982702494" lon="-5.164310988038778">
        <ele>717.75999999999999</ele>
        <time>2025-05-09T10:09:10Z</time>
      </trkpt>
      <trkpt lat="36.738446038216352" lon="-5.164338983595371">
        <ele>717.75999999999999</ele>
        <time>2025-05-09T10:09:11Z</time>
      </trkpt>
      <trkpt lat="36.738393986597657" lon="-5.164367984980345">
        <ele>718.24000000000001</ele>
        <time>2025-05-09T10:09:12Z</time>
      </trkpt>
      <trkpt lat="36.738346964120865" lon="-5.164394974708557">
        <ele>718.24000000000001</ele>
        <time>2025-05-09T10:09:13Z</time>
      </trkpt>
      <trkpt lat="36.738301031291485" lon="-5.16442196443677">
        <ele>718.24000000000001</ele>
        <time>2025-05-09T10:09:14Z</time>
      </trkpt>
      <trkpt lat="36.738228024914861" lon="-5.164486002177">
        <ele>718.24000000000001</ele>
        <time>2025-05-09T10:09:18Z</time>
      </trkpt>
      <trkpt lat="36.738212015479803" lon="-5.164503017440438">
        <ele>718.24000000000001</ele>
        <time>2025-05-09T10:09:19Z</time>
      </trkpt>
      <trkpt lat="36.738090980798006" lon="-5.164623968303204">
        <ele>718.72000000000003</ele>
        <time>2025-05-09T10:09:31Z</time>
      </trkpt>
      <trkpt lat="36.738090980798006" lon="-5.164623968303204">
        <ele>718.72000000000003</ele>
        <time>2025-05-09T10:09:45Z</time>
      </trkpt>
      <trkpt lat="36.738024009391665" lon="-5.164691023528576">
        <ele>718.72000000000003</ele>
        <time>2025-05-09T10:09:46Z</time>
      </trkpt>
      <trkpt lat="36.738016968593001" lon="-5.164718013256788">
        <ele>719.20000000000005</ele>
        <time>2025-05-09T10:09:47Z</time>
      </trkpt>
      <trkpt lat="36.738052004948258" lon="-5.164813986048102">
        <ele>719.20000000000005</ele>
        <time>2025-05-09T10:09:48Z</time>
      </trkpt>
      <trkpt lat="36.738078994676471" lon="-5.164836030453444">
        <ele>719.20000000000005</ele>
        <time>2025-05-09T10:09:49Z</time>
      </trkpt>
      <trkpt lat="36.738122999668121" lon="-5.164868971332908">
        <ele>719.20000000000005</ele>
        <time>2025-05-09T10:09:50Z</time>
      </trkpt>
      <trkpt lat="36.738173039630055" lon="-5.164909036830068">
        <ele>719.20000000000005</ele>
        <time>2025-05-09T10:09:51Z</time>
      </trkpt>
      <trkpt lat="36.738271024078131" lon="-5.164987994357944">
        <ele>719.20000000000005</ele>
        <time>2025-05-09T10:09:53Z</time>
      </trkpt>
      <trkpt lat="36.738325003534555" lon="-5.165033005177975">
        <ele>719.20000000000005</ele>
        <time>2025-05-09T10:09:54Z</time>
      </trkpt>
      <trkpt lat="36.738361967727542" lon="-5.165045997127891">
        <ele>719.67999999999995</ele>
        <time>2025-05-09T10:09:55Z</time>
      </trkpt>
      <trkpt lat="36.738409996032715" lon="-5.165062006562948">
        <ele>719.67999999999995</ele>
        <time>2025-05-09T10:09:56Z</time>
      </trkpt>
      <trkpt lat="36.738455006852746" lon="-5.165077010169625">
        <ele>719.67999999999995</ele>
        <time>2025-05-09T10:09:57Z</time>
      </trkpt>
      <trkpt lat="36.738508986309171" lon="-5.165095031261444">
        <ele>720.15999999999997</ele>
        <time>2025-05-09T10:09:58Z</time>
      </trkpt>
      <trkpt lat="36.738561037927866" lon="-5.165111962705851">
        <ele>720.64999999999998</ele>
        <time>2025-05-09T10:09:59Z</time>
      </trkpt>
      <trkpt lat="36.738581992685795" lon="-5.165119003504515">
        <ele>720.64999999999998</ele>
        <time>2025-05-09T10:10:00Z</time>
      </trkpt>
      <trkpt lat="36.738667991012335" lon="-5.165119003504515">
        <ele>721.61000000000001</ele>
        <time>2025-05-09T10:10:01Z</time>
      </trkpt>
      <trkpt lat="36.738685006275773" lon="-5.165124032646418">
        <ele>722.09000000000003</ele>
        <time>2025-05-09T10:10:02Z</time>
      </trkpt>
      <trkpt lat="36.738733034580946" lon="-5.165135012939572">
        <ele>722.57000000000005</ele>
        <time>2025-05-09T10:10:03Z</time>
      </trkpt>
      <trkpt lat="36.738776033744216" lon="-5.165142975747585">
        <ele>723.04999999999995</ele>
        <time>2025-05-09T10:10:04Z</time>
      </trkpt>
      <trkpt lat="36.738834958523512" lon="-5.165149010717869">
        <ele>723.52999999999997</ele>
        <time>2025-05-09T10:10:05Z</time>
      </trkpt>
      <trkpt lat="36.738902013748884" lon="-5.165154961869121">
        <ele>723.52999999999997</ele>
        <time>2025-05-09T10:10:06Z</time>
      </trkpt>
      <trkpt lat="36.738964039832354" lon="-5.165162002667785">
        <ele>724.00999999999999</ele>
        <time>2025-05-09T10:10:07Z</time>
      </trkpt>
      <trkpt lat="36.739035034552217" lon="-5.165189998224378">
        <ele>724.49000000000001</ele>
        <time>2025-05-09T10:10:08Z</time>
      </trkpt>
      <trkpt lat="36.739105023443699" lon="-5.165221011266112">
        <ele>724.97000000000003</ele>
        <time>2025-05-09T10:10:09Z</time>
      </trkpt>
      <trkpt lat="36.739177023991942" lon="-5.165258981287479">
        <ele>725.45000000000005</ele>
        <time>2025-05-09T10:10:10Z</time>
      </trkpt>
      <trkpt lat="36.739521017298102" lon="-5.165425026789308">
        <ele>728.34000000000003</ele>
        <time>2025-05-09T10:10:16Z</time>
      </trkpt>
      <trkpt lat="36.739560998976231" lon="-5.165441958233714">
        <ele>728.34000000000003</ele>
        <time>2025-05-09T10:10:17Z</time>
      </trkpt>
      <trkpt lat="36.739598968997598" lon="-5.165458973497152">
        <ele>728.82000000000005</ele>
        <time>2025-05-09T10:10:18Z</time>
      </trkpt>
      <trkpt lat="36.739626964554191" lon="-5.165470959618688">
        <ele>729.29999999999995</ele>
        <time>2025-05-09T10:10:19Z</time>
      </trkpt>
      <trkpt lat="36.739642973989248" lon="-5.165478000417352">
        <ele>729.77999999999997</ele>
        <time>2025-05-09T10:10:20Z</time>
      </trkpt>
      <trkpt lat="36.739642973989248" lon="-5.165478000417352">
        <ele>730.25999999999999</ele>
        <time>2025-05-09T10:10:21Z</time>
      </trkpt>
      <trkpt lat="36.739670969545841" lon="-5.165489986538887">
        <ele>731.70000000000005</ele>
        <time>2025-05-09T10:10:23Z</time>
      </trkpt>
      <trkpt lat="36.739804996177554" lon="-5.165547989308834">
        <ele>732.17999999999995</ele>
        <time>2025-05-09T10:10:24Z</time>
      </trkpt>
      <trkpt lat="36.739804996177554" lon="-5.165547989308834">
        <ele>733.62</ele>
        <time>2025-05-09T10:10:28Z</time>
      </trkpt>
      <trkpt lat="36.739804996177554" lon="-5.165547989308834">
        <ele>733.62</ele>
        <time>2025-05-09T10:10:29Z</time>
      </trkpt>
      <trkpt lat="36.739996019750834" lon="-5.165595011785626">
        <ele>733.62</ele>
        <time>2025-05-09T10:10:41Z</time>
      </trkpt>
      <trkpt lat="36.740172039717436" lon="-5.165631975978613">
        <ele>732.17999999999995</ele>
        <time>2025-05-09T10:10:49Z</time>
      </trkpt>
      <trkpt lat="36.740338001400232" lon="-5.165620995685458">
        <ele>731.22000000000003</ele>
        <time>2025-05-09T10:10:53Z</time>
      </trkpt>
      <trkpt lat="36.740379994735122" lon="-5.165618984028697">
        <ele>731.22000000000003</ele>
        <time>2025-05-09T10:10:54Z</time>
      </trkpt>
      <trkpt lat="36.740415031090379" lon="-5.165615966543555">
        <ele>731.22000000000003</ele>
        <time>2025-05-09T10:10:55Z</time>
      </trkpt>
      <trkpt lat="36.740448977798223" lon="-5.165614038705826">
        <ele>730.74000000000001</ele>
        <time>2025-05-09T10:10:56Z</time>
      </trkpt>
      <trkpt lat="36.740485019981861" lon="-5.165620995685458">
        <ele>730.74000000000001</ele>
        <time>2025-05-09T10:10:57Z</time>
      </trkpt>
      <trkpt lat="36.740600019693375" lon="-5.165686961263418">
        <ele>729.77999999999997</ele>
        <time>2025-05-09T10:11:10Z</time>
      </trkpt>
      <trkpt lat="36.740694986656308" lon="-5.165741024538875">
        <ele>726.88999999999999</ele>
        <time>2025-05-09T10:11:22Z</time>
      </trkpt>
      <trkpt lat="36.740780984982848" lon="-5.165791986510158">
        <ele>726.40999999999997</ele>
        <time>2025-05-09T10:11:34Z</time>
      </trkpt>
      <trkpt lat="36.74097603186965" lon="-5.165914027020335">
        <ele>724.97000000000003</ele>
        <time>2025-05-09T10:11:45Z</time>
      </trkpt>
      <trkpt lat="36.741089019924402" lon="-5.165967000648379">
        <ele>724.00999999999999</ele>
        <time>2025-05-09T10:11:56Z</time>
      </trkpt>
      <trkpt lat="36.741350032389164" lon="-5.166042018681765">
        <ele>723.52999999999997</ele>
        <time>2025-05-09T10:12:08Z</time>
      </trkpt>
      <trkpt lat="36.741437958553433" lon="-5.16616296954453">
        <ele>723.04999999999995</ele>
        <time>2025-05-09T10:12:17Z</time>
      </trkpt>
      <trkpt lat="36.741455979645252" lon="-5.166174033656716">
        <ele>723.04999999999995</ele>
        <time>2025-05-09T10:12:18Z</time>
      </trkpt>
      <trkpt lat="36.74153502099216" lon="-5.166218960657716">
        <ele>723.52999999999997</ele>
        <time>2025-05-09T10:12:28Z</time>
      </trkpt>
      <trkpt lat="36.741698971018195" lon="-5.166286015883088">
        <ele>724.00999999999999</ele>
        <time>2025-05-09T10:12:40Z</time>
      </trkpt>
      <trkpt lat="36.74173098988831" lon="-5.166300013661385">
        <ele>724.00999999999999</ele>
        <time>2025-05-09T10:12:46Z</time>
      </trkpt>
      <trkpt lat="36.741952020674944" lon="-5.166394980624318">
        <ele>722.57000000000005</ele>
        <time>2025-05-09T10:12:58Z</time>
      </trkpt>
      <trkpt lat="36.741985967382789" lon="-5.166409984230995">
        <ele>722.57000000000005</ele>
        <time>2025-05-09T10:13:09Z</time>
      </trkpt>
      <trkpt lat="36.742027960717678" lon="-5.166428005322814">
        <ele>722.09000000000003</ele>
        <time>2025-05-09T10:13:10Z</time>
      </trkpt>
      <trkpt lat="36.742080012336373" lon="-5.166449965909123">
        <ele>722.09000000000003</ele>
        <time>2025-05-09T10:13:11Z</time>
      </trkpt>
      <trkpt lat="36.742358040064573" lon="-5.166539987549186">
        <ele>720.15999999999997</ele>
        <time>2025-05-09T10:13:15Z</time>
      </trkpt>
      <trkpt lat="36.742430040612817" lon="-5.166574018076062">
        <ele>719.67999999999995</ele>
        <time>2025-05-09T10:13:16Z</time>
      </trkpt>
      <trkpt lat="36.742499023675919" lon="-5.166606036946178">
        <ele>719.20000000000005</ele>
        <time>2025-05-09T10:13:17Z</time>
      </trkpt>
      <trkpt lat="36.742569012567401" lon="-5.166637971997261">
        <ele>718.72000000000003</ele>
        <time>2025-05-09T10:13:18Z</time>
      </trkpt>
      <trkpt lat="36.7426329664886" lon="-5.166664961725473">
        <ele>718.24000000000001</ele>
        <time>2025-05-09T10:13:19Z</time>
      </trkpt>
      <trkpt lat="36.742692980915308" lon="-5.166691029444337">
        <ele>717.75999999999999</ele>
        <time>2025-05-09T10:13:20Z</time>
      </trkpt>
      <trkpt lat="36.742937983945012" lon="-5.166795970872045">
        <ele>716.32000000000005</ele>
        <time>2025-05-09T10:13:24Z</time>
      </trkpt>
      <trkpt lat="36.743109980598092" lon="-5.166856991127133">
        <ele>715.36000000000001</ele>
        <time>2025-05-09T10:13:26Z</time>
      </trkpt>
      <trkpt lat="36.743118027225137" lon="-5.166861014440656">
        <ele>714.88</ele>
        <time>2025-05-09T10:13:27Z</time>
      </trkpt>
      <trkpt lat="36.743171000853181" lon="-5.166882975026965">
        <ele>714.88</ele>
        <time>2025-05-09T10:13:28Z</time>
      </trkpt>
      <trkpt lat="36.743219029158354" lon="-5.166904013603926">
        <ele>714.39999999999998</ele>
        <time>2025-05-09T10:13:29Z</time>
      </trkpt>
      <trkpt lat="36.743265967816114" lon="-5.166923962533474">
        <ele>713.91999999999996</ele>
        <time>2025-05-09T10:13:30Z</time>
      </trkpt>
      <trkpt lat="36.743313996121287" lon="-5.166945001110435">
        <ele>713.44000000000005</ele>
        <time>2025-05-09T10:13:31Z</time>
      </trkpt>
      <trkpt lat="36.743368981406093" lon="-5.166967967525125">
        <ele>712.95000000000005</ele>
        <time>2025-05-09T10:13:32Z</time>
      </trkpt>
      <trkpt lat="36.743409968912601" lon="-5.166985988616943">
        <ele>712.95000000000005</ele>
        <time>2025-05-09T10:13:33Z</time>
      </trkpt>
      <trkpt lat="36.743468977510929" lon="-5.167024964466691">
        <ele>712.47000000000003</ele>
        <time>2025-05-09T10:13:34Z</time>
      </trkpt>
      <trkpt lat="36.743474006652832" lon="-5.167028987780213">
        <ele>712.95000000000005</ele>
        <time>2025-05-09T10:13:35Z</time>
      </trkpt>
      <trkpt lat="36.743581965565681" lon="-5.167050026357174">
        <ele>712.47000000000003</ele>
        <time>2025-05-09T10:13:36Z</time>
      </trkpt>
      <trkpt lat="36.7435999866575" lon="-5.167058994993568">
        <ele>712.95000000000005</ele>
        <time>2025-05-09T10:13:37Z</time>
      </trkpt>
      <trkpt lat="36.743629993870854" lon="-5.167072992771864">
        <ele>712.95000000000005</ele>
        <time>2025-05-09T10:13:38Z</time>
      </trkpt>
      <trkpt lat="36.743654971942306" lon="-5.167084978893399">
        <ele>712.47000000000003</ele>
        <time>2025-05-09T10:13:39Z</time>
      </trkpt>
      <trkpt lat="36.743678022176027" lon="-5.167095037177205">
        <ele>712.47000000000003</ele>
        <time>2025-05-09T10:13:40Z</time>
      </trkpt>
      <trkpt lat="36.743588000535965" lon="-5.167035022750497">
        <ele>712.47000000000003</ele>
        <time>2025-05-09T10:13:41Z</time>
      </trkpt>
      <trkpt lat="36.743713980540633" lon="-5.167111968621612">
        <ele>712.47000000000003</ele>
        <time>2025-05-09T10:13:42Z</time>
      </trkpt>
      <trkpt lat="36.743744993582368" lon="-5.167126972228289">
        <ele>712.47000000000003</ele>
        <time>2025-05-09T10:13:43Z</time>
      </trkpt>
      <trkpt lat="36.743785981088877" lon="-5.167145999148488">
        <ele>712.47000000000003</ele>
        <time>2025-05-09T10:13:44Z</time>
      </trkpt>
      <trkpt lat="36.743825962767005" lon="-5.167164020240307">
        <ele>712.95000000000005</ele>
        <time>2025-05-09T10:13:45Z</time>
      </trkpt>
      <trkpt lat="36.743853036314249" lon="-5.167177012190223">
        <ele>712.95000000000005</ele>
        <time>2025-05-09T10:13:46Z</time>
      </trkpt>
      <trkpt lat="36.744011035189033" lon="-5.167243983596563">
        <ele>712.95000000000005</ele>
        <time>2025-05-09T10:13:47Z</time>
      </trkpt>
      <trkpt lat="36.743924031034112" lon="-5.167209031060338">
        <ele>712.95000000000005</ele>
        <time>2025-05-09T10:13:48Z</time>
      </trkpt>
      <trkpt lat="36.743962001055479" lon="-5.167224034667015">
        <ele>713.44000000000005</ele>
        <time>2025-05-09T10:13:49Z</time>
      </trkpt>
      <trkpt lat="36.744001982733607" lon="-5.167239960283041">
        <ele>713.44000000000005</ele>
        <time>2025-05-09T10:13:50Z</time>
      </trkpt>
      <trkpt lat="36.744289984926581" lon="-5.167243983596563">
        <ele>713.44000000000005</ele>
        <time>2025-05-09T10:13:54Z</time>
      </trkpt>
      <trkpt lat="36.744289984926581" lon="-5.167243983596563">
        <ele>713.91999999999996</ele>
        <time>2025-05-09T10:13:55Z</time>
      </trkpt>
      <trkpt lat="36.744380006566644" lon="-5.167267033830285">
        <ele>714.39999999999998</ele>
        <time>2025-05-09T10:13:56Z</time>
      </trkpt>
      <trkpt lat="36.744625009596348" lon="-5.167381027713418">
        <ele>716.79999999999995</ele>
        <time>2025-05-09T10:14:00Z</time>
      </trkpt>
      <trkpt lat="36.744677983224392" lon="-5.167415980249643">
        <ele>716.79999999999995</ele>
        <time>2025-05-09T10:14:01Z</time>
      </trkpt>
      <trkpt lat="36.744728023186326" lon="-5.16745001077652">
        <ele>717.27999999999997</ele>
        <time>2025-05-09T10:14:02Z</time>
      </trkpt>
      <trkpt lat="36.7448899615556" lon="-5.167557969689369">
        <ele>717.75999999999999</ele>
        <time>2025-05-09T10:14:05Z</time>
      </trkpt>
      <trkpt lat="36.744935978204012" lon="-5.167587976902723">
        <ele>718.24000000000001</ele>
        <time>2025-05-09T10:14:06Z</time>
      </trkpt>
      <trkpt lat="36.744981994852424" lon="-5.167618989944458">
        <ele>718.24000000000001</ele>
        <time>2025-05-09T10:14:07Z</time>
      </trkpt>
      <trkpt lat="36.745087020099163" lon="-5.16768897883594">
        <ele>718.72000000000003</ele>
        <time>2025-05-09T10:14:09Z</time>
      </trkpt>
      <trkpt lat="36.745132030919194" lon="-5.167718986049295">
        <ele>719.20000000000005</ele>
        <time>2025-05-09T10:14:10Z</time>
      </trkpt>
      <trkpt lat="36.745175030082464" lon="-5.167747987434268">
        <ele>719.67999999999995</ele>
        <time>2025-05-09T10:14:11Z</time>
      </trkpt>
      <trkpt lat="36.745219035074115" lon="-5.1677739713341">
        <ele>719.67999999999995</ele>
        <time>2025-05-09T10:14:12Z</time>
      </trkpt>
      <trkpt lat="36.745272008702159" lon="-5.167804984375835">
        <ele>720.15999999999997</ele>
        <time>2025-05-09T10:14:13Z</time>
      </trkpt>
      <trkpt lat="36.74533998593688" lon="-5.167843960225582">
        <ele>720.64999999999998</ele>
        <time>2025-05-09T10:14:14Z</time>
      </trkpt>
      <trkpt lat="36.745405029505491" lon="-5.167883019894362">
        <ele>721.13</ele>
        <time>2025-05-09T10:14:15Z</time>
      </trkpt>
      <trkpt lat="36.745460014790297" lon="-5.167916966602206">
        <ele>721.61000000000001</ele>
        <time>2025-05-09T10:14:16Z</time>
      </trkpt>
      <trkpt lat="36.745519023388624" lon="-5.167952002957463">
        <ele>722.09000000000003</ele>
        <time>2025-05-09T10:14:17Z</time>
      </trkpt>
      <trkpt lat="36.745583983138204" lon="-5.167990978807211">
        <ele>722.09000000000003</ele>
        <time>2025-05-09T10:14:18Z</time>
      </trkpt>
      <trkpt lat="36.746082035824656" lon="-5.16828996129334">
        <ele>725.45000000000005</ele>
        <time>2025-05-09T10:14:26Z</time>
      </trkpt>
      <trkpt lat="36.746206004172564" lon="-5.168351987376809">
        <ele>726.40999999999997</ele>
        <time>2025-05-09T10:14:28Z</time>
      </trkpt>
      <trkpt lat="36.746258977800608" lon="-5.168385012075305">
        <ele>726.88999999999999</ele>
        <time>2025-05-09T10:14:29Z</time>
      </trkpt>
      <trkpt lat="36.746331984177232" lon="-5.168432034552097">
        <ele>728.34000000000003</ele>
        <time>2025-05-09T10:14:31Z</time>
      </trkpt>
      <trkpt lat="36.746352016925812" lon="-5.168444020673633">
        <ele>728.82000000000005</ele>
        <time>2025-05-09T10:14:32Z</time>
      </trkpt>
      <trkpt lat="36.746378000825644" lon="-5.168461035937071">
        <ele>731.22000000000003</ele>
        <time>2025-05-09T10:14:40Z</time>
      </trkpt>
      <trkpt lat="36.746400967240334" lon="-5.168475033715367">
        <ele>731.70000000000005</ele>
        <time>2025-05-09T10:14:41Z</time>
      </trkpt>
      <trkpt lat="36.746426029130816" lon="-5.168490959331393">
        <ele>732.65999999999997</ele>
        <time>2025-05-09T10:14:42Z</time>
      </trkpt>
      <trkpt lat="36.746511021628976" lon="-5.168544016778469">
        <ele>735.54999999999995</ele>
        <time>2025-05-09T10:14:52Z</time>
      </trkpt>
      <trkpt lat="36.746549997478724" lon="-5.16856798902154">
        <ele>736.02999999999997</ele>
        <time>2025-05-09T10:14:53Z</time>
      </trkpt>
      <trkpt lat="36.746588973328471" lon="-5.168592967092991">
        <ele>736.50999999999999</ele>
        <time>2025-05-09T10:14:54Z</time>
      </trkpt>
      <trkpt lat="36.746631972491741" lon="-5.168620040640235">
        <ele>736.99000000000001</ele>
        <time>2025-05-09T10:14:55Z</time>
      </trkpt>
      <trkpt lat="36.746675977483392" lon="-5.168648036196828">
        <ele>737.47000000000003</ele>
        <time>2025-05-09T10:14:56Z</time>
      </trkpt>
      <trkpt lat="36.746717970818281" lon="-5.16867402009666">
        <ele>737.95000000000005</ele>
        <time>2025-05-09T10:14:57Z</time>
      </trkpt>
      <trkpt lat="36.746762981638312" lon="-5.168703021481633">
        <ele>738.42999999999995</ele>
        <time>2025-05-09T10:14:58Z</time>
      </trkpt>
      <trkpt lat="36.746804974973202" lon="-5.168729005381465">
        <ele>738.90999999999997</ele>
        <time>2025-05-09T10:14:59Z</time>
      </trkpt>
      <trkpt lat="36.746884016320109" lon="-5.168778039515019">
        <ele>739.87</ele>
        <time>2025-05-09T10:15:01Z</time>
      </trkpt>
      <trkpt lat="36.746922992169857" lon="-5.16880301758647">
        <ele>739.87</ele>
        <time>2025-05-09T10:15:02Z</time>
      </trkpt>
      <trkpt lat="36.746963979676366" lon="-5.168829001486301">
        <ele>740.83000000000004</ele>
        <time>2025-05-09T10:15:03Z</time>
      </trkpt>
      <trkpt lat="36.747003039345145" lon="-5.168852973729372">
        <ele>741.30999999999995</ele>
        <time>2025-05-09T10:15:04Z</time>
      </trkpt>
      <trkpt lat="36.747037991881371" lon="-5.168875018134713">
        <ele>741.30999999999995</ele>
        <time>2025-05-09T10:15:05Z</time>
      </trkpt>
      <trkpt lat="36.747164977714419" lon="-5.168874012306333">
        <ele>741.78999999999996</ele>
        <time>2025-05-09T10:15:06Z</time>
      </trkpt>
      <trkpt lat="36.747206971049309" lon="-5.168781979009509">
        <ele>741.78999999999996</ele>
        <time>2025-05-09T10:15:07Z</time>
      </trkpt>
      <trkpt lat="36.74722901545465" lon="-5.168732022866607">
        <ele>742.27999999999997</ele>
        <time>2025-05-09T10:15:08Z</time>
      </trkpt>
      <trkpt lat="36.747256005182862" lon="-5.168673014268279">
        <ele>742.75999999999999</ele>
        <time>2025-05-09T10:15:09Z</time>
      </trkpt>
      <trkpt lat="36.747308978810906" lon="-5.168554997071624">
        <ele>743.24000000000001</ele>
        <time>2025-05-09T10:15:11Z</time>
      </trkpt>
      <trkpt lat="36.74735801294446" lon="-5.168445026502013">
        <ele>744.20000000000005</ele>
        <time>2025-05-09T10:15:13Z</time>
      </trkpt>
      <trkpt lat="36.747449962422252" lon="-5.168218966573477">
        <ele>745.63999999999999</ele>
        <time>2025-05-09T10:15:17Z</time>
      </trkpt>
      <trkpt lat="36.747478963807225" lon="-5.168160041794181">
        <ele>745.63999999999999</ele>
        <time>2025-05-09T10:15:18Z</time>
      </trkpt>
      <trkpt lat="36.747506037354469" lon="-5.168105978518724">
        <ele>745.63999999999999</ele>
        <time>2025-05-09T10:15:19Z</time>
      </trkpt>
      <trkpt lat="36.747533027082682" lon="-5.168054010719061">
        <ele>746.12</ele>
        <time>2025-05-09T10:15:20Z</time>
      </trkpt>
      <trkpt lat="36.747554987668991" lon="-5.168005982413888">
        <ele>746.12</ele>
        <time>2025-05-09T10:15:21Z</time>
      </trkpt>
      <trkpt lat="36.747568985447288" lon="-5.167963989078999">
        <ele>746.60000000000002</ele>
        <time>2025-05-09T10:15:23Z</time>
      </trkpt>
      <trkpt lat="36.747578959912062" lon="-5.167932976037264">
        <ele>747.08000000000004</ele>
        <time>2025-05-09T10:15:24Z</time>
      </trkpt>
      <trkpt lat="36.747718015685678" lon="-5.167544977739453">
        <ele>749</ele>
        <time>2025-05-09T10:15:29Z</time>
      </trkpt>
      <trkpt lat="36.74774500541389" lon="-5.167468031868339">
        <ele>749</ele>
        <time>2025-05-09T10:15:30Z</time>
      </trkpt>
      <trkpt lat="36.747786998748779" lon="-5.167351020500064">
        <ele>748.51999999999998</ele>
        <time>2025-05-09T10:15:32Z</time>
      </trkpt>
      <trkpt lat="36.747778030112386" lon="-5.167276002466679">
        <ele>748.51999999999998</ele>
        <time>2025-05-09T10:15:33Z</time>
      </trkpt>
      <trkpt lat="36.747766966000199" lon="-5.167184974998236">
        <ele>748.51999999999998</ele>
        <time>2025-05-09T10:15:34Z</time>
      </trkpt>
      <trkpt lat="36.747714998200536" lon="-5.166755989193916">
        <ele>747.55999999999995</ele>
        <time>2025-05-09T10:15:39Z</time>
      </trkpt>
      <trkpt lat="36.747636962682009" lon="-5.166593967005611">
        <ele>746.12</ele>
        <time>2025-05-09T10:15:42Z</time>
      </trkpt>
      <trkpt lat="36.747130025178194" lon="-5.166198005899787">
        <ele>743.24000000000001</ele>
        <time>2025-05-09T10:15:50Z</time>
      </trkpt>
      <trkpt lat="36.747065987437963" lon="-5.166149977594614">
        <ele>743.24000000000001</ele>
        <time>2025-05-09T10:15:51Z</time>
      </trkpt>
      <trkpt lat="36.746998010203242" lon="-5.166099015623331">
        <ele>743.72000000000003</ele>
        <time>2025-05-09T10:15:52Z</time>
      </trkpt>
      <trkpt lat="36.746664997190237" lon="-5.16583900898695">
        <ele>744.67999999999995</ele>
        <time>2025-05-09T10:15:57Z</time>
      </trkpt>
      <trkpt lat="36.746516972780228" lon="-5.165720991790295">
        <ele>745.15999999999997</ele>
        <time>2025-05-09T10:16:00Z</time>
      </trkpt>
      <trkpt lat="36.746341036632657" lon="-5.165548995137215">
        <ele>747.08000000000004</ele>
        <time>2025-05-09T10:16:08Z</time>
      </trkpt>
      <trkpt lat="36.746297031641006" lon="-5.165499961003661">
        <ele>747.55999999999995</ele>
        <time>2025-05-09T10:16:10Z</time>
      </trkpt>
      <trkpt lat="36.746221007779241" lon="-5.16538898460567">
        <ele>747.08000000000004</ele>
        <time>2025-05-09T10:16:18Z</time>
      </trkpt>
      <trkpt lat="36.746221007779241" lon="-5.165301980450749">
        <ele>746.60000000000002</ele>
        <time>2025-05-09T10:16:26Z</time>
      </trkpt>
      <trkpt lat="36.746232993900776" lon="-5.165255041792989">
        <ele>746.12</ele>
        <time>2025-05-09T10:16:27Z</time>
      </trkpt>
      <trkpt lat="36.746307006105781" lon="-5.165162002667785">
        <ele>744.20000000000005</ele>
        <time>2025-05-09T10:16:41Z</time>
      </trkpt>
      <trkpt lat="36.746466010808945" lon="-5.164978019893169">
        <ele>744.67999999999995</ele>
        <time>2025-05-09T10:16:52Z</time>
      </trkpt>
      <trkpt lat="36.746683018282056" lon="-5.164550039917231">
        <ele>744.67999999999995</ele>
        <time>2025-05-09T10:17:02Z</time>
      </trkpt>
      <trkpt lat="36.746872030198574" lon="-5.164188025519252">
        <ele>745.15999999999997</ele>
        <time>2025-05-09T10:17:10Z</time>
      </trkpt>
      <trkpt lat="36.746947970241308" lon="-5.164050981402397">
        <ele>744.67999999999995</ele>
        <time>2025-05-09T10:17:20Z</time>
      </trkpt>
      <trkpt lat="36.747073028236628" lon="-5.163821987807751">
        <ele>743.24000000000001</ele>
        <time>2025-05-09T10:17:31Z</time>
      </trkpt>
      <trkpt lat="36.747121978551149" lon="-5.163724003359675">
        <ele>742.75999999999999</ele>
        <time>2025-05-09T10:17:33Z</time>
      </trkpt>
      <trkpt lat="36.747204959392548" lon="-5.163559969514608">
        <ele>742.27999999999997</ele>
        <time>2025-05-09T10:17:36Z</time>
      </trkpt>
      <trkpt lat="36.747225997969508" lon="-5.163508001714945">
        <ele>742.27999999999997</ele>
        <time>2025-05-09T10:17:37Z</time>
      </trkpt>
      <trkpt lat="36.747247958555818" lon="-5.16345402225852">
        <ele>741.78999999999996</ele>
        <time>2025-05-09T10:17:38Z</time>
      </trkpt>
      <trkpt lat="36.747266985476017" lon="-5.163404988124967">
        <ele>741.78999999999996</ele>
        <time>2025-05-09T10:17:39Z</time>
      </trkpt>
      <trkpt lat="36.747287018224597" lon="-5.163355031982064">
        <ele>741.78999999999996</ele>
        <time>2025-05-09T10:17:40Z</time>
      </trkpt>
      <trkpt lat="36.747311996296048" lon="-5.163300968706608">
        <ele>741.30999999999995</ele>
        <time>2025-05-09T10:17:41Z</time>
      </trkpt>
      <trkpt lat="36.747339991852641" lon="-5.163244977593422">
        <ele>740.83000000000004</ele>
        <time>2025-05-09T10:17:42Z</time>
      </trkpt>
      <trkpt lat="36.747367987409234" lon="-5.163188986480236">
        <ele>740.83000000000004</ele>
        <time>2025-05-09T10:17:43Z</time>
      </trkpt>
      <trkpt lat="36.747397994622588" lon="-5.163128972053528">
        <ele>740.35000000000002</ele>
        <time>2025-05-09T10:17:44Z</time>
      </trkpt>
      <trkpt lat="36.747630005702376" lon="-5.162686994299293">
        <ele>740.35000000000002</ele>
        <time>2025-05-09T10:17:52Z</time>
      </trkpt>
      <trkpt lat="36.747652972117066" lon="-5.162641983479261">
        <ele>740.35000000000002</ele>
        <time>2025-05-09T10:17:53Z</time>
      </trkpt>
      <trkpt lat="36.747719021514058" lon="-5.16250996850431">
        <ele>740.83000000000004</ele>
        <time>2025-05-09T10:17:56Z</time>
      </trkpt>
      <trkpt lat="36.747738970443606" lon="-5.162468980997801">
        <ele>740.83000000000004</ele>
        <time>2025-05-09T10:17:57Z</time>
      </trkpt>
      <trkpt lat="36.747760009020567" lon="-5.162427993491292">
        <ele>741.30999999999995</ele>
        <time>2025-05-09T10:17:58Z</time>
      </trkpt>
      <trkpt lat="36.747781969606876" lon="-5.162383988499641">
        <ele>741.30999999999995</ele>
        <time>2025-05-09T10:17:59Z</time>
      </trkpt>
      <trkpt lat="36.747804014012218" lon="-5.16233897767961">
        <ele>741.30999999999995</ele>
        <time>2025-05-09T10:18:00Z</time>
      </trkpt>
      <trkpt lat="36.74802697263658" lon="-5.161872021853924">
        <ele>740.83000000000004</ele>
        <time>2025-05-09T10:18:11Z</time>
      </trkpt>
      <trkpt lat="36.748030995950103" lon="-5.161770014092326">
        <ele>740.83000000000004</ele>
        <time>2025-05-09T10:18:16Z</time>
      </trkpt>
      <trkpt lat="36.748001994565129" lon="-5.161749981343746">
        <ele>740.83000000000004</ele>
        <time>2025-05-09T10:18:17Z</time>
      </trkpt>
      <trkpt lat="36.748000988736749" lon="-5.161748975515366">
        <ele>740.83000000000004</ele>
        <time>2025-05-09T10:18:18Z</time>
      </trkpt>
      <trkpt lat="36.747652972117066" lon="-5.161468014121056">
        <ele>741.30999999999995</ele>
        <time>2025-05-09T10:18:26Z</time>
      </trkpt>
      <trkpt lat="36.747181992977858" lon="-5.161104993894696">
        <ele>742.27999999999997</ele>
        <time>2025-05-09T10:18:36Z</time>
      </trkpt>
      <trkpt lat="36.746999016031623" lon="-5.160957975313067">
        <ele>742.75999999999999</ele>
        <time>2025-05-09T10:18:45Z</time>
      </trkpt>
      <trkpt lat="36.746459975838661" lon="-5.160566037520766">
        <ele>743.72000000000003</ele>
        <time>2025-05-09T10:18:56Z</time>
      </trkpt>
      <trkpt lat="36.746399961411953" lon="-5.160521026700735">
        <ele>744.67999999999995</ele>
        <time>2025-05-09T10:18:57Z</time>
      </trkpt>
      <trkpt lat="36.746344976127148" lon="-5.160478027537465">
        <ele>745.15999999999997</ele>
        <time>2025-05-09T10:18:58Z</time>
      </trkpt>
      <trkpt lat="36.746294014155865" lon="-5.160437040030956">
        <ele>746.12</ele>
        <time>2025-05-09T10:18:59Z</time>
      </trkpt>
      <trkpt lat="36.746245985850692" lon="-5.160399992018938">
        <ele>747.08000000000004</ele>
        <time>2025-05-09T10:19:00Z</time>
      </trkpt>
      <trkpt lat="36.74619996920228" lon="-5.160364033654332">
        <ele>747.55999999999995</ele>
        <time>2025-05-09T10:19:01Z</time>
      </trkpt>
      <trkpt lat="36.746150013059378" lon="-5.160324973985553">
        <ele>748.51999999999998</ele>
        <time>2025-05-09T10:19:02Z</time>
      </trkpt>
      <trkpt lat="36.746099973097444" lon="-5.160288009792566">
        <ele>749</ele>
        <time>2025-05-09T10:19:03Z</time>
      </trkpt>
      <trkpt lat="36.74604800529778" lon="-5.160250961780548">
        <ele>749.49000000000001</ele>
        <time>2025-05-09T10:19:04Z</time>
      </trkpt>
      <trkpt lat="36.745999976992607" lon="-5.160216009244323">
        <ele>750.45000000000005</ele>
        <time>2025-05-09T10:19:05Z</time>
      </trkpt>
      <trkpt lat="36.745956977829337" lon="-5.160172004252672">
        <ele>750.92999999999995</ele>
        <time>2025-05-09T10:19:06Z</time>
      </trkpt>
      <trkpt lat="36.745922025293112" lon="-5.160132022574544">
        <ele>751.40999999999997</ele>
        <time>2025-05-09T10:19:07Z</time>
      </trkpt>
      <trkpt lat="36.745886988937855" lon="-5.160091035068035">
        <ele>752.37</ele>
        <time>2025-05-09T10:19:08Z</time>
      </trkpt>
      <trkpt lat="36.745877014473081" lon="-5.159993972629309">
        <ele>753.33000000000004</ele>
        <time>2025-05-09T10:19:09Z</time>
      </trkpt>
      <trkpt lat="36.74589897505939" lon="-5.159925995394588">
        <ele>754.28999999999996</ele>
        <time>2025-05-09T10:19:10Z</time>
      </trkpt>
      <trkpt lat="36.745924958959222" lon="-5.159848965704441">
        <ele>754.76999999999998</ele>
        <time>2025-05-09T10:19:11Z</time>
      </trkpt>
      <trkpt lat="36.74594197422266" lon="-5.159798003733158">
        <ele>755.25</ele>
        <time>2025-05-09T10:19:12Z</time>
      </trkpt>
      <trkpt lat="36.74604800529778" lon="-5.159638999029994">
        <ele>755.73000000000002</ele>
        <time>2025-05-09T10:19:14Z</time>
      </trkpt>
      <trkpt lat="36.746604982763529" lon="-5.158680025488138">
        <ele>755.73000000000002</ele>
        <time>2025-05-09T10:19:24Z</time>
      </trkpt>
      <trkpt lat="36.74722901545465" lon="-5.157546037808061">
        <ele>761.01999999999998</ele>
        <time>2025-05-09T10:19:36Z</time>
      </trkpt>
      <trkpt lat="36.74748701043427" lon="-5.157118979841471">
        <ele>760.53999999999996</ele>
        <time>2025-05-09T10:19:42Z</time>
      </trkpt>
      <trkpt lat="36.747517017647624" lon="-5.157065000385046">
        <ele>760.53999999999996</ele>
        <time>2025-05-09T10:19:43Z</time>
      </trkpt>
      <trkpt lat="36.747548030689359" lon="-5.157010015100241">
        <ele>760.53999999999996</ele>
        <time>2025-05-09T10:19:44Z</time>
      </trkpt>
      <trkpt lat="36.74757300876081" lon="-5.15696500428021">
        <ele>760.53999999999996</ele>
        <time>2025-05-09T10:19:45Z</time>
      </trkpt>
      <trkpt lat="36.74757300876081" lon="-5.156846987083554">
        <ele>761.01999999999998</ele>
        <time>2025-05-09T10:19:46Z</time>
      </trkpt>
      <trkpt lat="36.747636962682009" lon="-5.15675101429224">
        <ele>761.01999999999998</ele>
        <time>2025-05-09T10:19:48Z</time>
      </trkpt>
      <trkpt lat="36.747731007635593" lon="-5.156684964895248">
        <ele>761.01999999999998</ele>
        <time>2025-05-09T10:19:49Z</time>
      </trkpt>
      <trkpt lat="36.74815597012639" lon="-5.155949033796787">
        <ele>761.98000000000002</ele>
        <time>2025-05-09T10:19:58Z</time>
      </trkpt>
      <trkpt lat="36.748553020879626" lon="-5.155217964202166">
        <ele>761.98000000000002</ele>
        <time>2025-05-09T10:20:07Z</time>
      </trkpt>
      <trkpt lat="36.749037997797132" lon="-5.154273994266987">
        <ele>759.10000000000002</ele>
        <time>2025-05-09T10:20:18Z</time>
      </trkpt>
      <trkpt lat="36.749178981408477" lon="-5.154034020379186">
        <ele>756.21000000000004</ele>
        <time>2025-05-09T10:20:21Z</time>
      </trkpt>
      <trkpt lat="36.74922700971365" lon="-5.153951039537787">
        <ele>754.76999999999998</ele>
        <time>2025-05-09T10:20:22Z</time>
      </trkpt>
      <trkpt lat="36.749524986371398" lon="-5.153446029871702">
        <ele>743.72000000000003</ele>
        <time>2025-05-09T10:20:30Z</time>
      </trkpt>
      <trkpt lat="36.749522974714637" lon="-5.153216030448675">
        <ele>740.83000000000004</ele>
        <time>2025-05-09T10:20:32Z</time>
      </trkpt>
      <trkpt lat="36.749563040211797" lon="-5.153134977445006">
        <ele>739.87</ele>
        <time>2025-05-09T10:20:33Z</time>
      </trkpt>
      <trkpt lat="36.74961500801146" lon="-5.153046967461705">
        <ele>738.42999999999995</ele>
        <time>2025-05-09T10:20:34Z</time>
      </trkpt>
      <trkpt lat="36.74983000382781" lon="-5.153002962470055">
        <ele>736.50999999999999</ele>
        <time>2025-05-09T10:20:36Z</time>
      </trkpt>
      <trkpt lat="36.750393016263843" lon="-5.152225960046053">
        <ele>734.58000000000004</ele>
        <time>2025-05-09T10:20:45Z</time>
      </trkpt>
      <trkpt lat="36.750455964356661" lon="-5.152151025831699">
        <ele>734.10000000000002</ele>
        <time>2025-05-09T10:20:46Z</time>
      </trkpt>
      <trkpt lat="36.750597031787038" lon="-5.152010964229703">
        <ele>733.13999999999999</ele>
        <time>2025-05-09T10:20:48Z</time>
      </trkpt>
      <trkpt lat="36.750668026506901" lon="-5.151938963681459">
        <ele>732.17999999999995</ele>
        <time>2025-05-09T10:20:49Z</time>
      </trkpt>
      <trkpt lat="36.751002967357635" lon="-5.15161600895226">
        <ele>731.22000000000003</ele>
        <time>2025-05-09T10:20:54Z</time>
      </trkpt>
      <trkpt lat="36.751067005097866" lon="-5.151561023667455">
        <ele>731.70000000000005</ele>
        <time>2025-05-09T10:20:55Z</time>
      </trkpt>
      <trkpt lat="36.751327011734247" lon="-5.151318032294512">
        <ele>733.62</ele>
        <time>2025-05-09T10:21:00Z</time>
      </trkpt>
      <trkpt lat="36.751457015052438" lon="-5.151086021214724">
        <ele>734.10000000000002</ele>
        <time>2025-05-09T10:21:03Z</time>
      </trkpt>
      <trkpt lat="36.751543013378978" lon="-5.150978984311223">
        <ele>735.07000000000005</ele>
        <time>2025-05-09T10:21:09Z</time>
      </trkpt>
      <trkpt lat="36.751543013378978" lon="-5.150978984311223">
        <ele>735.07000000000005</ele>
        <time>2025-05-09T10:21:10Z</time>
      </trkpt>
      <trkpt lat="36.751574026420712" lon="-5.151017960160971">
        <ele>735.07000000000005</ele>
        <time>2025-05-09T10:21:11Z</time>
      </trkpt>
      <trkpt lat="36.751703023910522" lon="-5.15103598125279">
        <ele>735.07000000000005</ele>
        <time>2025-05-09T10:21:13Z</time>
      </trkpt>
      <trkpt lat="36.751781981438398" lon="-5.150984013453126">
        <ele>734.58000000000004</ele>
        <time>2025-05-09T10:21:15Z</time>
      </trkpt>
      <trkpt lat="36.751821041107178" lon="-5.150957023724914">
        <ele>734.58000000000004</ele>
        <time>2025-05-09T10:21:16Z</time>
      </trkpt>
      <trkpt lat="36.75214902497828" lon="-5.150707997381687">
        <ele>734.10000000000002</ele>
        <time>2025-05-09T10:21:23Z</time>
      </trkpt>
      <trkpt lat="36.752254972234368" lon="-5.150624010711908">
        <ele>734.58000000000004</ele>
        <time>2025-05-09T10:21:25Z</time>
      </trkpt>
      <trkpt lat="36.752308029681444" lon="-5.150581011548638">
        <ele>734.58000000000004</ele>
        <time>2025-05-09T10:21:26Z</time>
      </trkpt>
      <trkpt lat="36.752614974975586" lon="-5.150341959670186">
        <ele>734.10000000000002</ele>
        <time>2025-05-09T10:21:34Z</time>
      </trkpt>
      <trkpt lat="36.752654034644365" lon="-5.150308012962341">
        <ele>734.58000000000004</ele>
        <time>2025-05-09T10:21:35Z</time>
      </trkpt>
      <trkpt lat="36.752727041020989" lon="-5.150244981050491">
        <ele>734.58000000000004</ele>
        <time>2025-05-09T10:21:37Z</time>
      </trkpt>
      <trkpt lat="36.752762999385595" lon="-5.150214973837137">
        <ele>734.58000000000004</ele>
        <time>2025-05-09T10:21:38Z</time>
      </trkpt>
      <trkpt lat="36.752799041569233" lon="-5.150183960795403">
        <ele>735.07000000000005</ele>
        <time>2025-05-09T10:21:39Z</time>
      </trkpt>
      <trkpt lat="36.752838017418981" lon="-5.150150014087558">
        <ele>735.07000000000005</ele>
        <time>2025-05-09T10:21:40Z</time>
      </trkpt>
      <trkpt lat="36.752881016582251" lon="-5.15011397190392">
        <ele>735.07000000000005</ele>
        <time>2025-05-09T10:21:41Z</time>
      </trkpt>
      <trkpt lat="36.75309500657022" lon="-5.149951027706265">
        <ele>735.54999999999995</ele>
        <time>2025-05-09T10:21:46Z</time>
      </trkpt>
      <trkpt lat="36.753407986834645" lon="-5.149638969451189">
        <ele>736.02999999999997</ele>
        <time>2025-05-09T10:21:56Z</time>
      </trkpt>
      <trkpt lat="36.753552993759513" lon="-5.149221969768405">
        <ele>733.62</ele>
        <time>2025-05-09T10:22:08Z</time>
      </trkpt>
      <trkpt lat="36.753604961559176" lon="-5.148813016712666">
        <ele>732.65999999999997</ele>
        <time>2025-05-09T10:22:18Z</time>
      </trkpt>
      <trkpt lat="36.753664975985885" lon="-5.148402974009514">
        <ele>732.17999999999995</ele>
        <time>2025-05-09T10:22:25Z</time>
      </trkpt>
      <trkpt lat="36.753684002906084" lon="-5.148333990946412">
        <ele>732.17999999999995</ele>
        <time>2025-05-09T10:22:26Z</time>
      </trkpt>
      <trkpt lat="36.753714010119438" lon="-5.148279005661607">
        <ele>732.17999999999995</ele>
        <time>2025-05-09T10:22:27Z</time>
      </trkpt>
      <trkpt lat="36.753757009282708" lon="-5.148214967921376">
        <ele>732.17999999999995</ele>
        <time>2025-05-09T10:22:28Z</time>
      </trkpt>
      <trkpt lat="36.753781987354159" lon="-5.148127041757107">
        <ele>732.17999999999995</ele>
        <time>2025-05-09T10:22:29Z</time>
      </trkpt>
      <trkpt lat="36.753792967647314" lon="-5.148045988753438">
        <ele>731.70000000000005</ele>
        <time>2025-05-09T10:22:30Z</time>
      </trkpt>
      <trkpt lat="36.75380595959723" lon="-5.147953033447266">
        <ele>731.70000000000005</ele>
        <time>2025-05-09T10:22:31Z</time>
      </trkpt>
      <trkpt lat="36.753892963752151" lon="-5.147658996284008">
        <ele>728.82000000000005</ele>
        <time>2025-05-09T10:22:34Z</time>
      </trkpt>
      <trkpt lat="36.754142995923758" lon="-5.146425012499094">
        <ele>724.49000000000001</ele>
        <time>2025-05-09T10:22:43Z</time>
      </trkpt>
      <trkpt lat="36.754280962049961" lon="-5.145546002313495">
        <ele>724.49000000000001</ele>
        <time>2025-05-09T10:22:51Z</time>
      </trkpt>
      <trkpt lat="36.754390010610223" lon="-5.144920963793993">
        <ele>725.45000000000005</ele>
        <time>2025-05-09T10:22:58Z</time>
      </trkpt>
      <trkpt lat="36.754409959539771" lon="-5.144804958254099">
        <ele>724.97000000000003</ele>
        <time>2025-05-09T10:22:59Z</time>
      </trkpt>
      <trkpt lat="36.754430998116732" lon="-5.14467696659267">
        <ele>724.97000000000003</ele>
        <time>2025-05-09T10:23:00Z</time>
      </trkpt>
      <trkpt lat="36.754591008648276" lon="-5.143438959494233">
        <ele>724.97000000000003</ele>
        <time>2025-05-09T10:23:08Z</time>
      </trkpt>
      <trkpt lat="36.754888985306025" lon="-5.141836004331708">
        <ele>726.88999999999999</ele>
        <time>2025-05-09T10:23:16Z</time>
      </trkpt>
      <trkpt lat="36.755230966955423" lon="-5.139989973977208">
        <ele>730.74000000000001</ele>
        <time>2025-05-09T10:23:25Z</time>
      </trkpt>
      <trkpt lat="36.755515029653907" lon="-5.138653982430697">
        <ele>732.17999999999995</ele>
        <time>2025-05-09T10:23:34Z</time>
      </trkpt>
      <trkpt lat="36.755745029076934" lon="-5.137829035520554">
        <ele>733.62</ele>
        <time>2025-05-09T10:23:43Z</time>
      </trkpt>
      <trkpt lat="36.75605901516974" lon="-5.13677098788321">
        <ele>736.02999999999997</ele>
        <time>2025-05-09T10:23:52Z</time>
      </trkpt>
      <trkpt lat="36.756321033462882" lon="-5.135167026892304">
        <ele>736.99000000000001</ele>
        <time>2025-05-09T10:24:01Z</time>
      </trkpt>
      <trkpt lat="36.756364032626152" lon="-5.134974997490645">
        <ele>736.50999999999999</ele>
        <time>2025-05-09T10:24:02Z</time>
      </trkpt>
      <trkpt lat="36.756412982940674" lon="-5.134778022766113">
        <ele>736.50999999999999</ele>
        <time>2025-05-09T10:24:03Z</time>
      </trkpt>
      <trkpt lat="36.757363993674517" lon="-5.132831996306777">
        <ele>736.50999999999999</ele>
        <time>2025-05-09T10:24:15Z</time>
      </trkpt>
      <trkpt lat="36.758426986634731" lon="-5.130495959892869">
        <ele>739.87</ele>
        <time>2025-05-09T10:24:28Z</time>
      </trkpt>
      <trkpt lat="36.759127965196967" lon="-5.128496959805489">
        <ele>741.78999999999996</ele>
        <time>2025-05-09T10:24:38Z</time>
      </trkpt>
      <trkpt lat="36.760032959282398" lon="-5.126189002767205">
        <ele>746.60000000000002</ele>
        <time>2025-05-09T10:24:49Z</time>
      </trkpt>
      <trkpt lat="36.76087299361825" lon="-5.124194025993347">
        <ele>746.12</ele>
        <time>2025-05-09T10:24:58Z</time>
      </trkpt>
      <trkpt lat="36.76181998103857" lon="-5.122448997572064">
        <ele>749.97000000000003</ele>
        <time>2025-05-09T10:25:05Z</time>
      </trkpt>
      <trkpt lat="36.763242976740003" lon="-5.119955968111754">
        <ele>756.21000000000004</ele>
        <time>2025-05-09T10:25:16Z</time>
      </trkpt>
      <trkpt lat="36.763920988887548" lon="-5.118752997368574">
        <ele>759.10000000000002</ele>
        <time>2025-05-09T10:25:23Z</time>
      </trkpt>
      <trkpt lat="36.764316027984023" lon="-5.117381969466806">
        <ele>759.58000000000004</ele>
        <time>2025-05-09T10:25:31Z</time>
      </trkpt>
      <trkpt lat="36.764677036553621" lon="-5.116183022037149">
        <ele>758.62</ele>
        <time>2025-05-09T10:25:38Z</time>
      </trkpt>
      <trkpt lat="36.765189003199339" lon="-5.114714009687305">
        <ele>755.73000000000002</ele>
        <time>2025-05-09T10:25:46Z</time>
      </trkpt>
      <trkpt lat="36.765782022848725" lon="-5.113082975149155">
        <ele>755.73000000000002</ele>
        <time>2025-05-09T10:25:54Z</time>
      </trkpt>
      <trkpt lat="36.766581991687417" lon="-5.110744005069137">
        <ele>759.10000000000002</ele>
        <time>2025-05-09T10:26:05Z</time>
      </trkpt>
      <trkpt lat="36.767306020483375" lon="-5.108813988044858">
        <ele>764.38999999999999</ele>
        <time>2025-05-09T10:26:15Z</time>
      </trkpt>
      <trkpt lat="36.768469009548426" lon="-5.107050016522408">
        <ele>771.60000000000002</ele>
        <time>2025-05-09T10:26:24Z</time>
      </trkpt>
      <trkpt lat="36.768776038661599" lon="-5.106681967154145">
        <ele>773.03999999999996</ele>
        <time>2025-05-09T10:26:26Z</time>
      </trkpt>
      <trkpt lat="36.770452000200748" lon="-5.104657988995314">
        <ele>781.69000000000005</ele>
        <time>2025-05-09T10:26:37Z</time>
      </trkpt>
      <trkpt lat="36.771046025678515" lon="-5.103732040151954">
        <ele>783.13</ele>
        <time>2025-05-09T10:26:42Z</time>
      </trkpt>
      <trkpt lat="36.771135041490197" lon="-5.10355300270021">
        <ele>783.13</ele>
        <time>2025-05-09T10:26:43Z</time>
      </trkpt>
      <trkpt lat="36.77120796404779" lon="-5.103358961641789">
        <ele>783.61000000000001</ele>
        <time>2025-05-09T10:26:44Z</time>
      </trkpt>
      <trkpt lat="36.771969962865114" lon="-5.101087968796492">
        <ele>787.94000000000005</ele>
        <time>2025-05-09T10:26:55Z</time>
      </trkpt>
      <trkpt lat="36.773138986900449" lon="-5.097935032099485">
        <ele>798.02999999999997</ele>
        <time>2025-05-09T10:27:10Z</time>
      </trkpt>
      <trkpt lat="36.773469988256693" lon="-5.096104005351663">
        <ele>809.09000000000003</ele>
        <time>2025-05-09T10:27:19Z</time>
      </trkpt>
      <trkpt lat="36.773509969934821" lon="-5.095941983163357">
        <ele>810.52999999999997</ele>
        <time>2025-05-09T10:27:20Z</time>
      </trkpt>
      <trkpt lat="36.773614995181561" lon="-5.095820026472211">
        <ele>811.97000000000003</ele>
        <time>2025-05-09T10:27:21Z</time>
      </trkpt>
      <trkpt lat="36.774422004818916" lon="-5.094860969111323">
        <ele>819.65999999999997</ele>
        <time>2025-05-09T10:27:28Z</time>
      </trkpt>
      <trkpt lat="36.774506997317076" lon="-5.094704981893301">
        <ele>820.62</ele>
        <time>2025-05-09T10:27:29Z</time>
      </trkpt>
      <trkpt lat="36.774574974551797" lon="-5.094526028260589">
        <ele>821.58000000000004</ele>
        <time>2025-05-09T10:27:30Z</time>
      </trkpt>
      <trkpt lat="36.774703972041607" lon="-5.094151021912694">
        <ele>823.50999999999999</ele>
        <time>2025-05-09T10:27:32Z</time>
      </trkpt>
      <trkpt lat="36.77481603808701" lon="-5.094025041908026">
        <ele>824.47000000000003</ele>
        <time>2025-05-09T10:27:33Z</time>
      </trkpt>
      <trkpt lat="36.774933971464634" lon="-5.093918005004525">
        <ele>825.42999999999995</ele>
        <time>2025-05-09T10:27:34Z</time>
      </trkpt>
      <trkpt lat="36.775081995874643" lon="-5.093862013891339">
        <ele>826.38999999999999</ele>
        <time>2025-05-09T10:27:35Z</time>
      </trkpt>
      <trkpt lat="36.775241000577807" lon="-5.093813985586166">
        <ele>827.83000000000004</ele>
        <time>2025-05-09T10:27:36Z</time>
      </trkpt>
      <trkpt lat="36.776695009320974" lon="-5.093431016430259">
        <ele>840.33000000000004</ele>
        <time>2025-05-09T10:27:44Z</time>
      </trkpt>
      <trkpt lat="36.777004972100258" lon="-5.093365972861648">
        <ele>843.21000000000004</ele>
        <time>2025-05-09T10:27:46Z</time>
      </trkpt>
      <trkpt lat="36.77713799290359" lon="-5.093288021162152">
        <ele>844.65999999999997</ele>
        <time>2025-05-09T10:27:47Z</time>
      </trkpt>
      <trkpt lat="36.777270007878542" lon="-5.093207973986864">
        <ele>846.10000000000002</ele>
        <time>2025-05-09T10:27:48Z</time>
      </trkpt>
      <trkpt lat="36.777399005368352" lon="-5.093129016458988">
        <ele>847.05999999999995</ele>
        <time>2025-05-09T10:27:49Z</time>
      </trkpt>
      <trkpt lat="36.777492966502905" lon="-5.09300597012043">
        <ele>848.5</ele>
        <time>2025-05-09T10:27:50Z</time>
      </trkpt>
      <trkpt lat="36.777581982314587" lon="-5.092890970408917">
        <ele>849.46000000000004</ele>
        <time>2025-05-09T10:27:51Z</time>
      </trkpt>
      <trkpt lat="36.77763001061976" lon="-5.092759039252996">
        <ele>850.41999999999996</ele>
        <time>2025-05-09T10:27:52Z</time>
      </trkpt>
      <trkpt lat="36.777659012004733" lon="-5.092593999579549">
        <ele>851.38</ele>
        <time>2025-05-09T10:27:53Z</time>
      </trkpt>
      <trkpt lat="36.777689019218087" lon="-5.092428959906101">
        <ele>852.35000000000002</ele>
        <time>2025-05-09T10:27:54Z</time>
      </trkpt>
      <trkpt lat="36.777715003117919" lon="-5.092280013486743">
        <ele>853.30999999999995</ele>
        <time>2025-05-09T10:27:55Z</time>
      </trkpt>
      <trkpt lat="36.777692958712578" lon="-5.09214498102665">
        <ele>854.26999999999998</ele>
        <time>2025-05-09T10:27:56Z</time>
      </trkpt>
      <trkpt lat="36.777657000347972" lon="-5.092008020728827">
        <ele>854.75</ele>
        <time>2025-05-09T10:27:57Z</time>
      </trkpt>
      <trkpt lat="36.777593968436122" lon="-5.09186401963234">
        <ele>855.23000000000002</ele>
        <time>2025-05-09T10:27:58Z</time>
      </trkpt>
      <trkpt lat="36.77750201895833" lon="-5.091722030192614">
        <ele>856.19000000000005</ele>
        <time>2025-05-09T10:27:59Z</time>
      </trkpt>
      <trkpt lat="36.777399005368352" lon="-5.091562019661069">
        <ele>856.66999999999996</ele>
        <time>2025-05-09T10:28:00Z</time>
      </trkpt>
      <trkpt lat="36.777270007878542" lon="-5.091424975544214">
        <ele>857.14999999999998</ele>
        <time>2025-05-09T10:28:01Z</time>
      </trkpt>
      <trkpt lat="36.775954971089959" lon="-5.09001899510622">
        <ele>862.91999999999996</ele>
        <time>2025-05-09T10:28:10Z</time>
      </trkpt>
      <trkpt lat="36.775258015841246" lon="-5.089355986565352">
        <ele>865.32000000000005</ele>
        <time>2025-05-09T10:28:15Z</time>
      </trkpt>
      <trkpt lat="36.775099011138082" lon="-5.089233024045825">
        <ele>865.79999999999995</ele>
        <time>2025-05-09T10:28:16Z</time>
      </trkpt>
      <trkpt lat="36.77494402974844" lon="-5.089100003242493">
        <ele>866.28999999999996</ele>
        <time>2025-05-09T10:28:17Z</time>
      </trkpt>
      <trkpt lat="36.774808997288346" lon="-5.088930018246174">
        <ele>866.76999999999998</ele>
        <time>2025-05-09T10:28:18Z</time>
      </trkpt>
      <trkpt lat="36.774672036990523" lon="-5.088758021593094">
        <ele>867.25</ele>
        <time>2025-05-09T10:28:19Z</time>
      </trkpt>
      <trkpt lat="36.77453700453043" lon="-5.088587030768395">
        <ele>867.73000000000002</ele>
        <time>2025-05-09T10:28:20Z</time>
      </trkpt>
      <trkpt lat="36.773579958826303" lon="-5.087585980072618">
        <ele>871.09000000000003</ele>
        <time>2025-05-09T10:28:27Z</time>
      </trkpt>
      <trkpt lat="36.772316973656416" lon="-5.086374962702394">
        <ele>877.34000000000003</ele>
        <time>2025-05-09T10:28:38Z</time>
      </trkpt>
      <trkpt lat="36.772243967279792" lon="-5.086268009617925">
        <ele>877.82000000000005</ele>
        <time>2025-05-09T10:28:39Z</time>
      </trkpt>
      <trkpt lat="36.772184958681464" lon="-5.086133982986212">
        <ele>878.29999999999995</ele>
        <time>2025-05-09T10:28:40Z</time>
      </trkpt>
      <trkpt lat="36.772157968953252" lon="-5.085987970232964">
        <ele>878.77999999999997</ele>
        <time>2025-05-09T10:28:41Z</time>
      </trkpt>
      <trkpt lat="36.772156963124871" lon="-5.085867019370198">
        <ele>879.25999999999999</ele>
        <time>2025-05-09T10:28:42Z</time>
      </trkpt>
      <trkpt lat="36.772207003086805" lon="-5.085767023265362">
        <ele>879.74000000000001</ele>
        <time>2025-05-09T10:28:43Z</time>
      </trkpt>
      <trkpt lat="36.772255031391978" lon="-5.085679013282061">
        <ele>880.22000000000003</ele>
        <time>2025-05-09T10:28:44Z</time>
      </trkpt>
      <trkpt lat="36.772357039153576" lon="-5.085612963885069">
        <ele>880.22000000000003</ele>
        <time>2025-05-09T10:28:45Z</time>
      </trkpt>
      <trkpt lat="36.772472038865089" lon="-5.085540041327477">
        <ele>880.22000000000003</ele>
        <time>2025-05-09T10:28:46Z</time>
      </trkpt>
      <trkpt lat="36.772584021091461" lon="-5.08543903939426">
        <ele>880.22000000000003</ele>
        <time>2025-05-09T10:28:47Z</time>
      </trkpt>
      <trkpt lat="36.772634983062744" lon="-5.085361003875732">
        <ele>879.74000000000001</ele>
        <time>2025-05-09T10:28:48Z</time>
      </trkpt>
      <trkpt lat="36.772663984447718" lon="-5.085169980302453">
        <ele>880.22000000000003</ele>
        <time>2025-05-09T10:28:49Z</time>
      </trkpt>
      <trkpt lat="36.772812008857727" lon="-5.084185022860766">
        <ele>885.02999999999997</ele>
        <time>2025-05-09T10:28:54Z</time>
      </trkpt>
      <trkpt lat="36.772861965000629" lon="-5.083968015387654">
        <ele>885.99000000000001</ele>
        <time>2025-05-09T10:28:55Z</time>
      </trkpt>
      <trkpt lat="36.772928014397621" lon="-5.083756037056446">
        <ele>887.42999999999995</ele>
        <time>2025-05-09T10:28:56Z</time>
      </trkpt>
      <trkpt lat="36.773018036037683" lon="-5.083556966856122">
        <ele>888.39999999999998</ele>
        <time>2025-05-09T10:28:57Z</time>
      </trkpt>
      <trkpt lat="36.773108979687095" lon="-5.083364015445113">
        <ele>889.84000000000003</ele>
        <time>2025-05-09T10:28:58Z</time>
      </trkpt>
      <trkpt lat="36.773224985226989" lon="-5.083187995478511">
        <ele>891.75999999999999</ele>
        <time>2025-05-09T10:28:59Z</time>
      </trkpt>
      <trkpt lat="36.773345014080405" lon="-5.083018010482192">
        <ele>893.20000000000005</ele>
        <time>2025-05-09T10:29:00Z</time>
      </trkpt>
      <trkpt lat="36.773579036816955" lon="-5.082688014954329">
        <ele>896.57000000000005</ele>
        <time>2025-05-09T10:29:02Z</time>
      </trkpt>
      <trkpt lat="36.773667968809605" lon="-5.082501014694572">
        <ele>898.49000000000001</ele>
        <time>2025-05-09T10:29:03Z</time>
      </trkpt>
      <trkpt lat="36.773741981014609" lon="-5.08230596780777">
        <ele>899.92999999999995</ele>
        <time>2025-05-09T10:29:04Z</time>
      </trkpt>
      <trkpt lat="36.773794032633305" lon="-5.082099018618465">
        <ele>901.37</ele>
        <time>2025-05-09T10:29:05Z</time>
      </trkpt>
      <trkpt lat="36.77380702458322" lon="-5.081886034458876">
        <ele>903.29999999999995</ele>
        <time>2025-05-09T10:29:06Z</time>
      </trkpt>
      <trkpt lat="36.773789003491402" lon="-5.081672966480255">
        <ele>904.74000000000001</ele>
        <time>2025-05-09T10:29:07Z</time>
      </trkpt>
      <trkpt lat="36.773733012378216" lon="-5.081460988149047">
        <ele>906.17999999999995</ele>
        <time>2025-05-09T10:29:08Z</time>
      </trkpt>
      <trkpt lat="36.773675009608269" lon="-5.081243980675936">
        <ele>908.10000000000002</ele>
        <time>2025-05-09T10:29:09Z</time>
      </trkpt>
      <trkpt lat="36.773450961336493" lon="-5.080404030159116">
        <ele>913.87</ele>
        <time>2025-05-09T10:29:13Z</time>
      </trkpt>
      <trkpt lat="36.773444004356861" lon="-5.080200014635921">
        <ele>915.30999999999995</ele>
        <time>2025-05-09T10:29:14Z</time>
      </trkpt>
      <trkpt lat="36.773430006578565" lon="-5.079805981367827">
        <ele>917.72000000000003</ele>
        <time>2025-05-09T10:29:16Z</time>
      </trkpt>
      <trkpt lat="36.773388013243675" lon="-5.079637002199888">
        <ele>919.15999999999997</ele>
        <time>2025-05-09T10:29:17Z</time>
      </trkpt>
      <trkpt lat="36.773302014917135" lon="-5.079504987224937">
        <ele>920.60000000000002</ele>
        <time>2025-05-09T10:29:18Z</time>
      </trkpt>
      <trkpt lat="36.773222973570228" lon="-5.079386970028281">
        <ele>922.03999999999996</ele>
        <time>2025-05-09T10:29:19Z</time>
      </trkpt>
      <trkpt lat="36.773185003548861" lon="-5.079254033043981">
        <ele>923</ele>
        <time>2025-05-09T10:29:20Z</time>
      </trkpt>
      <trkpt lat="36.773189026862383" lon="-5.079130986705422">
        <ele>924.45000000000005</ele>
        <time>2025-05-09T10:29:21Z</time>
      </trkpt>
      <trkpt lat="36.773223979398608" lon="-5.078985979780555">
        <ele>925.40999999999997</ele>
        <time>2025-05-09T10:29:22Z</time>
      </trkpt>
      <trkpt lat="36.773263961076736" lon="-5.078821023926139">
        <ele>926.37</ele>
        <time>2025-05-09T10:29:23Z</time>
      </trkpt>
      <trkpt lat="36.773627987131476" lon="-5.077655017375946">
        <ele>934.53999999999996</ele>
        <time>2025-05-09T10:29:29Z</time>
      </trkpt>
      <trkpt lat="36.773686995729804" lon="-5.077486038208008">
        <ele>935.98000000000002</ele>
        <time>2025-05-09T10:29:30Z</time>
      </trkpt>
      <trkpt lat="36.773782968521118" lon="-5.077348994091153">
        <ele>937.41999999999996</ele>
        <time>2025-05-09T10:29:31Z</time>
      </trkpt>
      <trkpt lat="36.773886987939477" lon="-5.077248997986317">
        <ele>938.38</ele>
        <time>2025-05-09T10:29:32Z</time>
      </trkpt>
      <trkpt lat="36.774014979600906" lon="-5.07719099521637">
        <ele>939.83000000000004</ele>
        <time>2025-05-09T10:29:33Z</time>
      </trkpt>
      <trkpt lat="36.77415101788938" lon="-5.07717096246779">
        <ele>940.78999999999996</ele>
        <time>2025-05-09T10:29:34Z</time>
      </trkpt>
      <trkpt lat="36.77430298179388" lon="-5.077183032408357">
        <ele>942.23000000000002</ele>
        <time>2025-05-09T10:29:35Z</time>
      </trkpt>
      <trkpt lat="36.774465003982186" lon="-5.077198036015034">
        <ele>942.71000000000004</ele>
        <time>2025-05-09T10:29:36Z</time>
      </trkpt>
      <trkpt lat="36.774959033355117" lon="-5.077207004651427">
        <ele>943.66999999999996</ele>
        <time>2025-05-09T10:29:39Z</time>
      </trkpt>
      <trkpt lat="36.775118038058281" lon="-5.077181020751596">
        <ele>944.14999999999998</ele>
        <time>2025-05-09T10:29:40Z</time>
      </trkpt>
      <trkpt lat="36.775232031941414" lon="-5.077099967747927">
        <ele>944.14999999999998</ele>
        <time>2025-05-09T10:29:41Z</time>
      </trkpt>
      <trkpt lat="36.775346025824547" lon="-5.076970970258117">
        <ele>943.66999999999996</ele>
        <time>2025-05-09T10:29:42Z</time>
      </trkpt>
      <trkpt lat="36.775436969473958" lon="-5.076820012181997">
        <ele>943.19000000000005</ele>
        <time>2025-05-09T10:29:43Z</time>
      </trkpt>
      <trkpt lat="36.77550402469933" lon="-5.076641980558634">
        <ele>942.71000000000004</ele>
        <time>2025-05-09T10:29:44Z</time>
      </trkpt>
      <trkpt lat="36.775575019419193" lon="-5.076454980298877">
        <ele>942.23000000000002</ele>
        <time>2025-05-09T10:29:45Z</time>
      </trkpt>
      <trkpt lat="36.775635033845901" lon="-5.076248031109572">
        <ele>941.26999999999998</ele>
        <time>2025-05-09T10:29:46Z</time>
      </trkpt>
      <trkpt lat="36.776139037683606" lon="-5.074492022395134">
        <ele>934.53999999999996</ele>
        <time>2025-05-09T10:29:53Z</time>
      </trkpt>
      <trkpt lat="36.776810009032488" lon="-5.07171199657023">
        <ele>933.58000000000004</ele>
        <time>2025-05-09T10:30:03Z</time>
      </trkpt>
      <trkpt lat="36.777358017861843" lon="-5.068046003580093">
        <ele>944.14999999999998</ele>
        <time>2025-05-09T10:30:16Z</time>
      </trkpt>
      <trkpt lat="36.777677033096552" lon="-5.066225035116077">
        <ele>952.32000000000005</ele>
        <time>2025-05-09T10:30:23Z</time>
      </trkpt>
      <trkpt lat="36.777746016159654" lon="-5.066053038462997">
        <ele>953.76999999999998</ele>
        <time>2025-05-09T10:30:24Z</time>
      </trkpt>
      <trkpt lat="36.777870990335941" lon="-5.065855979919434">
        <ele>954.73000000000002</ele>
        <time>2025-05-09T10:30:25Z</time>
      </trkpt>
      <trkpt lat="36.778852008283138" lon="-5.064831962808967">
        <ele>959.04999999999995</ele>
        <time>2025-05-09T10:30:31Z</time>
      </trkpt>
      <trkpt lat="36.779465982690454" lon="-5.064155962318182">
        <ele>961.46000000000004</ele>
        <time>2025-05-09T10:30:35Z</time>
      </trkpt>
      <trkpt lat="36.779545024037361" lon="-5.064054038375616">
        <ele>961.94000000000005</ele>
        <time>2025-05-09T10:30:36Z</time>
      </trkpt>
      <trkpt lat="36.779607972130179" lon="-5.06384801119566">
        <ele>962.41999999999996</ele>
        <time>2025-05-09T10:30:37Z</time>
      </trkpt>
      <trkpt lat="36.779632028192282" lon="-5.063680959865451">
        <ele>962.89999999999998</ele>
        <time>2025-05-09T10:30:38Z</time>
      </trkpt>
      <trkpt lat="36.779634961858392" lon="-5.063479039818049">
        <ele>963.38</ele>
        <time>2025-05-09T10:30:39Z</time>
      </trkpt>
      <trkpt lat="36.779689025133848" lon="-5.062012961134315">
        <ele>965.77999999999997</ele>
        <time>2025-05-09T10:30:45Z</time>
      </trkpt>
      <trkpt lat="36.779729006811976" lon="-5.061797965317965">
        <ele>965.77999999999997</ele>
        <time>2025-05-09T10:30:46Z</time>
      </trkpt>
      <trkpt lat="36.779829002916813" lon="-5.061608031392098">
        <ele>966.25999999999999</ele>
        <time>2025-05-09T10:30:47Z</time>
      </trkpt>
      <trkpt lat="36.779936961829662" lon="-5.061407033354044">
        <ele>966.25999999999999</ele>
        <time>2025-05-09T10:30:48Z</time>
      </trkpt>
      <trkpt lat="36.780089009553194" lon="-5.061235958710313">
        <ele>966.25999999999999</ele>
        <time>2025-05-09T10:30:49Z</time>
      </trkpt>
      <trkpt lat="36.780250025913119" lon="-5.061054993420839">
        <ele>966.74000000000001</ele>
        <time>2025-05-09T10:30:50Z</time>
      </trkpt>
      <trkpt lat="36.781658018007874" lon="-5.059393029659987">
        <ele>970.59000000000003</ele>
        <time>2025-05-09T10:30:58Z</time>
      </trkpt>
      <trkpt lat="36.782823018729687" lon="-5.057392017915845">
        <ele>976.36000000000001</ele>
        <time>2025-05-09T10:31:06Z</time>
      </trkpt>
      <trkpt lat="36.783247981220484" lon="-5.056654997169972">
        <ele>978.27999999999997</ele>
        <time>2025-05-09T10:31:10Z</time>
      </trkpt>
      <trkpt lat="36.783344959840178" lon="-5.056525999680162">
        <ele>979.24000000000001</ele>
        <time>2025-05-09T10:31:11Z</time>
      </trkpt>
      <trkpt lat="36.783482003957033" lon="-5.056427009403706">
        <ele>980.20000000000005</ele>
        <time>2025-05-09T10:31:12Z</time>
      </trkpt>
      <trkpt lat="36.783649977296591" lon="-5.056377975270152">
        <ele>981.15999999999997</ele>
        <time>2025-05-09T10:31:13Z</time>
      </trkpt>
      <trkpt lat="36.783829014748335" lon="-5.056326007470489">
        <ele>981.63999999999999</ele>
        <time>2025-05-09T10:31:14Z</time>
      </trkpt>
      <trkpt lat="36.784000005573034" lon="-5.056266998872161">
        <ele>982.60000000000002</ele>
        <time>2025-05-09T10:31:15Z</time>
      </trkpt>
      <trkpt lat="36.784165967255831" lon="-5.056172031909227">
        <ele>984.04999999999995</ele>
        <time>2025-05-09T10:31:16Z</time>
      </trkpt>
      <trkpt lat="36.785355024039745" lon="-5.055150026455522">
        <ele>990.29999999999995</ele>
        <time>2025-05-09T10:31:23Z</time>
      </trkpt>
      <trkpt lat="36.785502964630723" lon="-5.055031003430486">
        <ele>991.25999999999999</ele>
        <time>2025-05-09T10:31:24Z</time>
      </trkpt>
      <trkpt lat="36.785642020404339" lon="-5.054922960698605">
        <ele>992.70000000000005</ele>
        <time>2025-05-09T10:31:25Z</time>
      </trkpt>
      <trkpt lat="36.785826003178954" lon="-5.054873004555702">
        <ele>993.65999999999997</ele>
        <time>2025-05-09T10:31:26Z</time>
      </trkpt>
      <trkpt lat="36.786321038380265" lon="-5.054753981530666">
        <ele>997.01999999999998</ele>
        <time>2025-05-09T10:31:29Z</time>
      </trkpt>
      <trkpt lat="36.786426985636353" lon="-5.054692039266229">
        <ele>998.47000000000003</ele>
        <time>2025-05-09T10:31:30Z</time>
      </trkpt>
      <trkpt lat="36.786487000063062" lon="-5.054609980434179">
        <ele>999.90999999999997</ele>
        <time>2025-05-09T10:31:31Z</time>
      </trkpt>
      <trkpt lat="36.786545002833009" lon="-5.054485006257892">
        <ele>1000.87</ele>
        <time>2025-05-09T10:31:32Z</time>
      </trkpt>
      <trkpt lat="36.786586996167898" lon="-5.054322984069586">
        <ele>1001.83</ele>
        <time>2025-05-09T10:31:33Z</time>
      </trkpt>
      <trkpt lat="36.786966025829315" lon="-5.052822958678007">
        <ele>1010.48</ele>
        <time>2025-05-09T10:31:40Z</time>
      </trkpt>
      <trkpt lat="36.78738403134048" lon="-5.051506999880076">
        <ele>1019.13</ele>
        <time>2025-05-09T10:31:46Z</time>
      </trkpt>
      <trkpt lat="36.787443039938807" lon="-5.051321005448699">
        <ele>1020.58</ele>
        <time>2025-05-09T10:31:47Z</time>
      </trkpt>
      <trkpt lat="36.78745100274682" lon="-5.051138028502464">
        <ele>1022.02</ele>
        <time>2025-05-09T10:31:48Z</time>
      </trkpt>
      <trkpt lat="36.787459971383214" lon="-5.050955973565579">
        <ele>1023.46</ele>
        <time>2025-05-09T10:31:49Z</time>
      </trkpt>
      <trkpt lat="36.787420995533466" lon="-5.05076696164906">
        <ele>1024.9000000000001</ele>
        <time>2025-05-09T10:31:50Z</time>
      </trkpt>
      <trkpt lat="36.787368021905422" lon="-5.050596976652741">
        <ele>1025.8599999999999</ele>
        <time>2025-05-09T10:31:51Z</time>
      </trkpt>
      <trkpt lat="36.787274982780218" lon="-5.050406036898494">
        <ele>1027.79</ele>
        <time>2025-05-09T10:31:52Z</time>
      </trkpt>
      <trkpt lat="36.786970971152186" lon="-5.049846963956952">
        <ele>1032.5899999999999</ele>
        <time>2025-05-09T10:31:55Z</time>
      </trkpt>
      <trkpt lat="36.786857983097434" lon="-5.049717966467142">
        <ele>1034.04</ele>
        <time>2025-05-09T10:31:56Z</time>
      </trkpt>
      <trkpt lat="36.786615997552872" lon="-5.049440022557974">
        <ele>1037.4000000000001</ele>
        <time>2025-05-09T10:31:58Z</time>
      </trkpt>
      <trkpt lat="36.786056002601981" lon="-5.048666959628463">
        <ele>1046.05</ele>
        <time>2025-05-09T10:32:04Z</time>
      </trkpt>
      <trkpt lat="36.786024989560246" lon="-5.048561012372375">
        <ele>1047.01</ele>
        <time>2025-05-09T10:32:05Z</time>
      </trkpt>
      <trkpt lat="36.786024989560246" lon="-5.048437966033816">
        <ele>1048.45</ele>
        <time>2025-05-09T10:32:06Z</time>
      </trkpt>
      <trkpt lat="36.786052985116839" lon="-5.048348028212786">
        <ele>1049.4200000000001</ele>
        <time>2025-05-09T10:32:07Z</time>
      </trkpt>
      <trkpt lat="36.786110987886786" lon="-5.048261024057865">
        <ele>1049.9000000000001</ele>
        <time>2025-05-09T10:32:08Z</time>
      </trkpt>
      <trkpt lat="36.786210983991623" lon="-5.048226993530989">
        <ele>1050.8599999999999</ele>
        <time>2025-05-09T10:32:09Z</time>
      </trkpt>
      <trkpt lat="36.786323972046375" lon="-5.048225987702608">
        <ele>1051.3399999999999</ele>
        <time>2025-05-09T10:32:10Z</time>
      </trkpt>
      <trkpt lat="36.786467973142862" lon="-5.048240991309285">
        <ele>1051.8199999999999</ele>
        <time>2025-05-09T10:32:11Z</time>
      </trkpt>
      <trkpt lat="36.786614991724491" lon="-5.048254989087582">
        <ele>1052.3</ele>
        <time>2025-05-09T10:32:12Z</time>
      </trkpt>
      <trkpt lat="36.786710964515805" lon="-5.048326989635825">
        <ele>1052.78</ele>
        <time>2025-05-09T10:32:13Z</time>
      </trkpt>
      <trkpt lat="36.786795035004616" lon="-5.048462022095919">
        <ele>1053.26</ele>
        <time>2025-05-09T10:32:14Z</time>
      </trkpt>
      <trkpt lat="36.786878015846014" lon="-5.04859303124249">
        <ele>1054.22</ele>
        <time>2025-05-09T10:32:15Z</time>
      </trkpt>
      <trkpt lat="36.78695697337389" lon="-5.048719011247158">
        <ele>1055.1800000000001</ele>
        <time>2025-05-09T10:32:16Z</time>
      </trkpt>
      <trkpt lat="36.787034003064036" lon="-5.048839962109923">
        <ele>1055.6700000000001</ele>
        <time>2025-05-09T10:32:17Z</time>
      </trkpt>
      <trkpt lat="36.787153026089072" lon="-5.048924032598734">
        <ele>1056.6300000000001</ele>
        <time>2025-05-09T10:32:18Z</time>
      </trkpt>
      <trkpt lat="36.787262996658683" lon="-5.048996033146977">
        <ele>1058.0699999999999</ele>
        <time>2025-05-09T10:32:19Z</time>
      </trkpt>
      <trkpt lat="36.78738503716886" lon="-5.049041965976358">
        <ele>1058.55</ele>
        <time>2025-05-09T10:32:20Z</time>
      </trkpt>
      <trkpt lat="36.787526020780206" lon="-5.049055041745305">
        <ele>1059.51</ele>
        <time>2025-05-09T10:32:21Z</time>
      </trkpt>
      <trkpt lat="36.787667004391551" lon="-5.049055041745305">
        <ele>1060.47</ele>
        <time>2025-05-09T10:32:22Z</time>
      </trkpt>
      <trkpt lat="36.787808993831277" lon="-5.048988992348313">
        <ele>1061.4300000000001</ele>
        <time>2025-05-09T10:32:23Z</time>
      </trkpt>
      <trkpt lat="36.787945032119751" lon="-5.048908023163676">
        <ele>1062.8699999999999</ele>
        <time>2025-05-09T10:32:24Z</time>
      </trkpt>
      <trkpt lat="36.788076041266322" lon="-5.048829987645149">
        <ele>1063.8399999999999</ele>
        <time>2025-05-09T10:32:25Z</time>
      </trkpt>
      <trkpt lat="36.788469990715384" lon="-5.0485959649086">
        <ele>1068.1600000000001</ele>
        <time>2025-05-09T10:32:29Z</time>
      </trkpt>
      <trkpt lat="36.788548026233912" lon="-5.048577021807432">
        <ele>1069.1199999999999</ele>
        <time>2025-05-09T10:32:30Z</time>
      </trkpt>
      <trkpt lat="36.788630001246929" lon="-5.048567969352007">
        <ele>1070.0799999999999</ele>
        <time>2025-05-09T10:32:31Z</time>
      </trkpt>
      <trkpt lat="36.788838962092996" lon="-5.048546008765698">
        <ele>1072.97</ele>
        <time>2025-05-09T10:32:34Z</time>
      </trkpt>
      <trkpt lat="36.788899982348084" lon="-5.048539973795414">
        <ele>1073.9300000000001</ele>
        <time>2025-05-09T10:32:35Z</time>
      </trkpt>
      <trkpt lat="36.788941975682974" lon="-5.048474008217454">
        <ele>1074.8900000000001</ele>
        <time>2025-05-09T10:32:36Z</time>
      </trkpt>
      <trkpt lat="36.78897600620985" lon="-5.048420028761029">
        <ele>1075.3699999999999</ele>
        <time>2025-05-09T10:32:37Z</time>
      </trkpt>
      <trkpt lat="36.789010036736727" lon="-5.048367977142334">
        <ele>1076.3299999999999</ele>
        <time>2025-05-09T10:32:38Z</time>
      </trkpt>
      <trkpt lat="36.789044989272952" lon="-5.048311986029148">
        <ele>1077.29</ele>
        <time>2025-05-09T10:32:39Z</time>
      </trkpt>
      <trkpt lat="36.78906200453639" lon="-5.048243002966046">
        <ele>1077.78</ele>
        <time>2025-05-09T10:32:40Z</time>
      </trkpt>
      <trkpt lat="36.789076002314687" lon="-5.048162033781409">
        <ele>1078.74</ele>
        <time>2025-05-09T10:32:41Z</time>
      </trkpt>
      <trkpt lat="36.789093017578125" lon="-5.048067988827825">
        <ele>1079.22</ele>
        <time>2025-05-09T10:32:42Z</time>
      </trkpt>
      <trkpt lat="36.789079019799829" lon="-5.047962041571736">
        <ele>1079.7</ele>
        <time>2025-05-09T10:32:43Z</time>
      </trkpt>
      <trkpt lat="36.789063010364771" lon="-5.047847963869572">
        <ele>1079.7</ele>
        <time>2025-05-09T10:32:44Z</time>
      </trkpt>
      <trkpt lat="36.78886704146862" lon="-5.046623032540083">
        <ele>1076.3299999999999</ele>
        <time>2025-05-09T10:32:55Z</time>
      </trkpt>
      <trkpt lat="36.788833010941744" lon="-5.046548014506698">
        <ele>1076.3299999999999</ele>
        <time>2025-05-09T10:32:56Z</time>
      </trkpt>
      <trkpt lat="36.78880300372839" lon="-5.046484982594848">
        <ele>1075.8499999999999</ele>
        <time>2025-05-09T10:32:57Z</time>
      </trkpt>
      <trkpt lat="36.788768973201513" lon="-5.046411976218224">
        <ele>1074.8900000000001</ele>
        <time>2025-05-09T10:33:04Z</time>
      </trkpt>
      <trkpt lat="36.788749024271965" lon="-5.046367971226573">
        <ele>1073.45</ele>
        <time>2025-05-09T10:33:30Z</time>
      </trkpt>
      <trkpt lat="36.788681969046593" lon="-5.046221958473325">
        <ele>1071.53</ele>
        <time>2025-05-09T10:33:32Z</time>
      </trkpt>
      <trkpt lat="36.788505027070642" lon="-5.045839995145798">
        <ele>1069.5999999999999</ele>
        <time>2025-05-09T10:33:35Z</time>
      </trkpt>
      <trkpt lat="36.788499997928739" lon="-5.045683002099395">
        <ele>1068.1600000000001</ele>
        <time>2025-05-09T10:33:36Z</time>
      </trkpt>
      <trkpt lat="36.788510978221893" lon="-5.045505976304412">
        <ele>1067.6800000000001</ele>
        <time>2025-05-09T10:33:37Z</time>
      </trkpt>
      <trkpt lat="36.788561018183827" lon="-5.0453270226717">
        <ele>1066.72</ele>
        <time>2025-05-09T10:33:38Z</time>
      </trkpt>
      <trkpt lat="36.788630001246929" lon="-5.045144967734814">
        <ele>1065.76</ele>
        <time>2025-05-09T10:33:39Z</time>
      </trkpt>
      <trkpt lat="36.788708036765456" lon="-5.044959979131818">
        <ele>1064.8</ele>
        <time>2025-05-09T10:33:40Z</time>
      </trkpt>
      <trkpt lat="36.788808032870293" lon="-5.044782031327486">
        <ele>1063.8399999999999</ele>
        <time>2025-05-09T10:33:41Z</time>
      </trkpt>
      <trkpt lat="36.78891004063189" lon="-5.044600982218981">
        <ele>1062.3900000000001</ele>
        <time>2025-05-09T10:33:42Z</time>
      </trkpt>
      <trkpt lat="36.789451008662581" lon="-5.043307989835739">
        <ele>1053.26</ele>
        <time>2025-05-09T10:33:49Z</time>
      </trkpt>
      <trkpt lat="36.790089039131999" lon="-5.042166961356998">
        <ele>1042.6900000000001</ele>
        <time>2025-05-09T10:33:57Z</time>
      </trkpt>
      <trkpt lat="36.790878027677536" lon="-5.040722005069256">
        <ele>1027.79</ele>
        <time>2025-05-09T10:34:09Z</time>
      </trkpt>
      <trkpt lat="36.791113978251815" lon="-5.040097972378135">
        <ele>1022.02</ele>
        <time>2025-05-09T10:34:14Z</time>
      </trkpt>
      <trkpt lat="36.791129987686872" lon="-5.039963023737073">
        <ele>1021.0599999999999</ele>
        <time>2025-05-09T10:34:15Z</time>
      </trkpt>
      <trkpt lat="36.79114599712193" lon="-5.039826985448599">
        <ele>1019.62</ele>
        <time>2025-05-09T10:34:16Z</time>
      </trkpt>
      <trkpt lat="36.791149014607072" lon="-5.038422010838985">
        <ele>1009.52</ele>
        <time>2025-05-09T10:34:26Z</time>
      </trkpt>
      <trkpt lat="36.791425030678511" lon="-5.036844033747912">
        <ele>1009.52</ele>
        <time>2025-05-09T10:34:36Z</time>
      </trkpt>
      <trkpt lat="36.79157498292625" lon="-5.036596013233066">
        <ele>1011.9299999999999</ele>
        <time>2025-05-09T10:34:38Z</time>
      </trkpt>
      <trkpt lat="36.791625022888184" lon="-5.036523006856442">
        <ele>1012.89</ele>
        <time>2025-05-09T10:34:39Z</time>
      </trkpt>
      <trkpt lat="36.791751002892852" lon="-5.036430973559618">
        <ele>1013.37</ele>
        <time>2025-05-09T10:34:40Z</time>
      </trkpt>
      <trkpt lat="36.791857033967972" lon="-5.036352016031742">
        <ele>1013.85</ele>
        <time>2025-05-09T10:34:41Z</time>
      </trkpt>
      <trkpt lat="36.791964992880821" lon="-5.036271968856454">
        <ele>1014.33</ele>
        <time>2025-05-09T10:34:42Z</time>
      </trkpt>
      <trkpt lat="36.792361959815025" lon="-5.035923030227423">
        <ele>1014.33</ele>
        <time>2025-05-09T10:34:46Z</time>
      </trkpt>
      <trkpt lat="36.792441001161933" lon="-5.035837031900883">
        <ele>1014.33</ele>
        <time>2025-05-09T10:34:47Z</time>
      </trkpt>
      <trkpt lat="36.792516019195318" lon="-5.035717003047466">
        <ele>1014.33</ele>
        <time>2025-05-09T10:34:48Z</time>
      </trkpt>
      <trkpt lat="36.792583996430039" lon="-5.035607032477856">
        <ele>1013.85</ele>
        <time>2025-05-09T10:34:49Z</time>
      </trkpt>
      <trkpt lat="36.792655996978283" lon="-5.035493038594723">
        <ele>1013.85</ele>
        <time>2025-05-09T10:34:50Z</time>
      </trkpt>
      <trkpt lat="36.792912986129522" lon="-5.035164970904589">
        <ele>1012.89</ele>
        <time>2025-05-09T10:34:53Z</time>
      </trkpt>
      <trkpt lat="36.793366027995944" lon="-5.034616040065885">
        <ele>1010.48</ele>
        <time>2025-05-09T10:34:58Z</time>
      </trkpt>
      <trkpt lat="36.793438028544188" lon="-5.034491987898946">
        <ele>1010</ele>
        <time>2025-05-09T10:34:59Z</time>
      </trkpt>
      <trkpt lat="36.793492008000612" lon="-5.034399032592773">
        <ele>1009.52</ele>
        <time>2025-05-09T10:35:00Z</time>
      </trkpt>
      <trkpt lat="36.793529978021979" lon="-5.034230975434184">
        <ele>1009.52</ele>
        <time>2025-05-09T10:35:01Z</time>
      </trkpt>
      <trkpt lat="36.793559985235333" lon="-5.034093009307981">
        <ele>1009.04</ele>
        <time>2025-05-09T10:35:02Z</time>
      </trkpt>
      <trkpt lat="36.793590998277068" lon="-5.033954959362745">
        <ele>1009.04</ele>
        <time>2025-05-09T10:35:03Z</time>
      </trkpt>
      <trkpt lat="36.793622011318803" lon="-5.0338139757514">
        <ele>1008.5599999999999</ele>
        <time>2025-05-09T10:35:04Z</time>
      </trkpt>
      <trkpt lat="36.793655036017299" lon="-5.033665029332042">
        <ele>1008.08</ele>
        <time>2025-05-09T10:35:05Z</time>
      </trkpt>
      <trkpt lat="36.793689988553524" lon="-5.033508958294988">
        <ele>1008.08</ele>
        <time>2025-05-09T10:35:06Z</time>
      </trkpt>
      <trkpt lat="36.794357020407915" lon="-5.031831990927458">
        <ele>1001.83</ele>
        <time>2025-05-09T10:35:17Z</time>
      </trkpt>
      <trkpt lat="36.794446036219597" lon="-5.031713973730803">
        <ele>1001.35</ele>
        <time>2025-05-09T10:35:18Z</time>
      </trkpt>
      <trkpt lat="36.794536979869008" lon="-5.031596040353179">
        <ele>1000.39</ele>
        <time>2025-05-09T10:35:19Z</time>
      </trkpt>
      <trkpt lat="36.79511901922524" lon="-5.030770003795624">
        <ele>994.62</ele>
        <time>2025-05-09T10:35:26Z</time>
      </trkpt>
      <trkpt lat="36.795307025313377" lon="-5.030235992744565">
        <ele>991.74000000000001</ele>
        <time>2025-05-09T10:35:30Z</time>
      </trkpt>
      <trkpt lat="36.795338960364461" lon="-5.030100960284472">
        <ele>991.25999999999999</ele>
        <time>2025-05-09T10:35:31Z</time>
      </trkpt>
      <trkpt lat="36.795384977012873" lon="-5.029908008873463">
        <ele>990.29999999999995</ele>
        <time>2025-05-09T10:35:33Z</time>
      </trkpt>
      <trkpt lat="36.795396963134408" lon="-5.029857968911529">
        <ele>988.85000000000002</ele>
        <time>2025-05-09T10:35:39Z</time>
      </trkpt>
      <trkpt lat="36.795396963134408" lon="-5.029857968911529">
        <ele>988.85000000000002</ele>
        <time>2025-05-09T10:35:59Z</time>
      </trkpt>
      <trkpt lat="36.795396963134408" lon="-5.029857968911529">
        <ele>988.37</ele>
        <time>2025-05-09T10:36:43Z</time>
      </trkpt>
      <trkpt lat="36.795396963134408" lon="-5.029857968911529">
        <ele>987.40999999999997</ele>
        <time>2025-05-09T10:37:38Z</time>
      </trkpt>
      <trkpt lat="36.79542001336813" lon="-5.02996601164341">
        <ele>935.98000000000002</ele>
        <time>2025-05-09T10:40:47Z</time>
      </trkpt>
      <trkpt lat="36.795414984226227" lon="-5.029812958091497">
        <ele>971.07000000000005</ele>
        <time>2025-05-09T10:41:02Z</time>
      </trkpt>
      <trkpt lat="36.795414984226227" lon="-5.029781023040414">
        <ele>971.07000000000005</ele>
        <time>2025-05-09T10:41:04Z</time>
      </trkpt>
      <trkpt lat="36.795426970347762" lon="-5.02973198890686">
        <ele>971.07000000000005</ele>
        <time>2025-05-09T10:41:05Z</time>
      </trkpt>
      <trkpt lat="36.7954439856112" lon="-5.029662000015378">
        <ele>971.07000000000005</ele>
        <time>2025-05-09T10:41:06Z</time>
      </trkpt>
      <trkpt lat="36.795477010309696" lon="-5.029587987810373">
        <ele>970.59000000000003</ele>
        <time>2025-05-09T10:41:07Z</time>
      </trkpt>
      <trkpt lat="36.795517997816205" lon="-5.029499977827072">
        <ele>969.63</ele>
        <time>2025-05-09T10:41:08Z</time>
      </trkpt>
      <trkpt lat="36.795560996979475" lon="-5.029409034177661">
        <ele>969.14999999999998</ele>
        <time>2025-05-09T10:41:09Z</time>
      </trkpt>
      <trkpt lat="36.795654958114028" lon="-5.029208036139607">
        <ele>968.17999999999995</ele>
        <time>2025-05-09T10:41:11Z</time>
      </trkpt>
      <trkpt lat="36.795710027217865" lon="-5.029089013114572">
        <ele>967.70000000000005</ele>
        <time>2025-05-09T10:41:12Z</time>
      </trkpt>
      <trkpt lat="36.795746991410851" lon="-5.028954986482859">
        <ele>967.22000000000003</ele>
        <time>2025-05-09T10:41:13Z</time>
      </trkpt>
      <trkpt lat="36.795753026381135" lon="-5.028806962072849">
        <ele>966.74000000000001</ele>
        <time>2025-05-09T10:41:14Z</time>
      </trkpt>
      <trkpt lat="36.795757971704006" lon="-5.02865600399673">
        <ele>966.25999999999999</ele>
        <time>2025-05-09T10:41:15Z</time>
      </trkpt>
      <trkpt lat="36.79576400667429" lon="-5.028493981808424">
        <ele>965.77999999999997</ele>
        <time>2025-05-09T10:41:16Z</time>
      </trkpt>
      <trkpt lat="36.795776998624206" lon="-5.028316034004092">
        <ele>965.29999999999995</ele>
        <time>2025-05-09T10:41:17Z</time>
      </trkpt>
      <trkpt lat="36.795824021100998" lon="-5.028136996552348">
        <ele>964.82000000000005</ele>
        <time>2025-05-09T10:41:18Z</time>
      </trkpt>
      <trkpt lat="36.795895015820861" lon="-5.027971034869552">
        <ele>964.34000000000003</ele>
        <time>2025-05-09T10:41:19Z</time>
      </trkpt>
      <trkpt lat="36.795965004712343" lon="-5.027808006852865">
        <ele>963.86000000000001</ele>
        <time>2025-05-09T10:41:20Z</time>
      </trkpt>
      <trkpt lat="36.796068018302321" lon="-5.027673980221152">
        <ele>963.38</ele>
        <time>2025-05-09T10:41:21Z</time>
      </trkpt>
      <trkpt lat="36.796184023842216" lon="-5.027548000216484">
        <ele>962.89999999999998</ele>
        <time>2025-05-09T10:41:22Z</time>
      </trkpt>
      <trkpt lat="36.796318972483277" lon="-5.027443980798125">
        <ele>962.89999999999998</ele>
        <time>2025-05-09T10:41:23Z</time>
      </trkpt>
      <trkpt lat="36.796578979119658" lon="-5.027287993580103">
        <ele>962.41999999999996</ele>
        <time>2025-05-09T10:41:25Z</time>
      </trkpt>
      <trkpt lat="36.796705964952707" lon="-5.027258992195129">
        <ele>961.94000000000005</ele>
        <time>2025-05-09T10:41:26Z</time>
      </trkpt>
      <trkpt lat="36.796830017119646" lon="-5.027230996638537">
        <ele>960.98000000000002</ele>
        <time>2025-05-09T10:41:27Z</time>
      </trkpt>
      <trkpt lat="36.796951973810792" lon="-5.027203001081944">
        <ele>960.49000000000001</ele>
        <time>2025-05-09T10:41:28Z</time>
      </trkpt>
      <trkpt lat="36.797039983794093" lon="-5.02715396694839">
        <ele>960.00999999999999</ele>
        <time>2025-05-09T10:41:29Z</time>
      </trkpt>
      <trkpt lat="36.797107961028814" lon="-5.027071991935372">
        <ele>959.52999999999997</ele>
        <time>2025-05-09T10:41:30Z</time>
      </trkpt>
      <trkpt lat="36.797179039567709" lon="-5.026984987780452">
        <ele>958.57000000000005</ele>
        <time>2025-05-09T10:41:31Z</time>
      </trkpt>
      <trkpt lat="36.797255985438824" lon="-5.026892032474279">
        <ele>958.09000000000003</ele>
        <time>2025-05-09T10:41:32Z</time>
      </trkpt>
      <trkpt lat="36.797347012907267" lon="-5.026808967813849">
        <ele>957.13</ele>
        <time>2025-05-09T10:41:33Z</time>
      </trkpt>
      <trkpt lat="36.797467963770032" lon="-5.026757000014186">
        <ele>956.64999999999998</ele>
        <time>2025-05-09T10:41:34Z</time>
      </trkpt>
      <trkpt lat="36.797599978744984" lon="-5.026701008901">
        <ele>955.21000000000004</ele>
        <time>2025-05-09T10:41:35Z</time>
      </trkpt>
      <trkpt lat="36.79774196818471" lon="-5.026649041101337">
        <ele>954.25</ele>
        <time>2025-05-09T10:41:36Z</time>
      </trkpt>
      <trkpt lat="36.798190986737609" lon="-5.026452988386154">
        <ele>951.36000000000001</ele>
        <time>2025-05-09T10:41:39Z</time>
      </trkpt>
      <trkpt lat="36.798335993662477" lon="-5.02635701559484">
        <ele>949.91999999999996</ele>
        <time>2025-05-09T10:41:40Z</time>
      </trkpt>
      <trkpt lat="36.798462979495525" lon="-5.026240004226565">
        <ele>948.96000000000004</ele>
        <time>2025-05-09T10:41:41Z</time>
      </trkpt>
      <trkpt lat="36.798582002520561" lon="-5.026128022000194">
        <ele>947.51999999999998</ele>
        <time>2025-05-09T10:41:42Z</time>
      </trkpt>
      <trkpt lat="36.798679986968637" lon="-5.026021990925074">
        <ele>946.55999999999995</ele>
        <time>2025-05-09T10:41:43Z</time>
      </trkpt>
      <trkpt lat="36.798752993345261" lon="-5.025891987606883">
        <ele>945.11000000000001</ele>
        <time>2025-05-09T10:41:44Z</time>
      </trkpt>
      <trkpt lat="36.798787023872137" lon="-5.025738012045622">
        <ele>944.14999999999998</ele>
        <time>2025-05-09T10:41:45Z</time>
      </trkpt>
      <trkpt lat="36.798808984458447" lon="-5.025573978200555">
        <ele>942.71000000000004</ele>
        <time>2025-05-09T10:41:46Z</time>
      </trkpt>
      <trkpt lat="36.798798004165292" lon="-5.025394018739462">
        <ele>941.26999999999998</ele>
        <time>2025-05-09T10:41:47Z</time>
      </trkpt>
      <trkpt lat="36.798776965588331" lon="-5.025204000994563">
        <ele>939.83000000000004</ele>
        <time>2025-05-09T10:41:48Z</time>
      </trkpt>
      <trkpt lat="36.798736983910203" lon="-5.02500400878489">
        <ele>938.38</ele>
        <time>2025-05-09T10:41:49Z</time>
      </trkpt>
      <trkpt lat="36.798671018332243" lon="-5.02480803988874">
        <ele>937.41999999999996</ele>
        <time>2025-05-09T10:41:50Z</time>
      </trkpt>
      <trkpt lat="36.798578985035419" lon="-5.024641994386911">
        <ele>936.46000000000004</ele>
        <time>2025-05-09T10:41:51Z</time>
      </trkpt>
      <trkpt lat="36.798488963395357" lon="-5.024477960541844">
        <ele>935.01999999999998</ele>
        <time>2025-05-09T10:41:52Z</time>
      </trkpt>
      <trkpt lat="36.798416040837765" lon="-5.02431501634419">
        <ele>933.58000000000004</ele>
        <time>2025-05-09T10:41:53Z</time>
      </trkpt>
      <trkpt lat="36.798393996432424" lon="-5.024134973064065">
        <ele>932.13999999999999</ele>
        <time>2025-05-09T10:41:54Z</time>
      </trkpt>
      <trkpt lat="36.798404976725578" lon="-5.023948978632689">
        <ele>931.16999999999996</ele>
        <time>2025-05-09T10:41:55Z</time>
      </trkpt>
      <trkpt lat="36.798461973667145" lon="-5.023761978372932">
        <ele>930.21000000000004</ele>
        <time>2025-05-09T10:41:56Z</time>
      </trkpt>
      <trkpt lat="36.798519976437092" lon="-5.023571960628033">
        <ele>929.25</ele>
        <time>2025-05-09T10:41:57Z</time>
      </trkpt>
      <trkpt lat="36.798580996692181" lon="-5.023390995338559">
        <ele>928.28999999999996</ele>
        <time>2025-05-09T10:41:58Z</time>
      </trkpt>
      <trkpt lat="36.798648973926902" lon="-5.023218998685479">
        <ele>927.33000000000004</ele>
        <time>2025-05-09T10:41:59Z</time>
      </trkpt>
      <trkpt lat="36.798714017495513" lon="-5.023053037002683">
        <ele>926.37</ele>
        <time>2025-05-09T10:42:00Z</time>
      </trkpt>
      <trkpt lat="36.798760034143925" lon="-5.022873999550939">
        <ele>925.40999999999997</ele>
        <time>2025-05-09T10:42:01Z</time>
      </trkpt>
      <trkpt lat="36.798785012215376" lon="-5.022676018998027">
        <ele>923.96000000000004</ele>
        <time>2025-05-09T10:42:02Z</time>
      </trkpt>
      <trkpt lat="36.798960026353598" lon="-5.021380009129643">
        <ele>915.78999999999996</ele>
        <time>2025-05-09T10:42:08Z</time>
      </trkpt>
      <trkpt lat="36.799045018851757" lon="-5.021207006648183">
        <ele>914.83000000000004</ele>
        <time>2025-05-09T10:42:09Z</time>
      </trkpt>
      <trkpt lat="36.799131017178297" lon="-5.021030986681581">
        <ele>913.87</ele>
        <time>2025-05-09T10:42:10Z</time>
      </trkpt>
      <trkpt lat="36.799210980534554" lon="-5.020865024998784">
        <ele>912.90999999999997</ele>
        <time>2025-05-09T10:42:11Z</time>
      </trkpt>
      <trkpt lat="36.799287004396319" lon="-5.020709037780762">
        <ele>911.95000000000005</ele>
        <time>2025-05-09T10:42:12Z</time>
      </trkpt>
      <trkpt lat="36.799336038529873" lon="-5.020538968965411">
        <ele>910.99000000000001</ele>
        <time>2025-05-09T10:42:13Z</time>
      </trkpt>
      <trkpt lat="36.799352969974279" lon="-5.020352974534035">
        <ele>910.02999999999997</ele>
        <time>2025-05-09T10:42:14Z</time>
      </trkpt>
      <trkpt lat="36.799370991066098" lon="-5.02014703117311">
        <ele>909.05999999999995</ele>
        <time>2025-05-09T10:42:15Z</time>
      </trkpt>
      <trkpt lat="36.799479033797979" lon="-5.018927967175841">
        <ele>903.29999999999995</ele>
        <time>2025-05-09T10:42:21Z</time>
      </trkpt>
      <trkpt lat="36.799526978284121" lon="-5.018814979121089">
        <ele>902.33000000000004</ele>
        <time>2025-05-09T10:42:22Z</time>
      </trkpt>
      <trkpt lat="36.79960903711617" lon="-5.018709031865001">
        <ele>900.88999999999999</ele>
        <time>2025-05-09T10:42:23Z</time>
      </trkpt>
      <trkpt lat="36.799922017380595" lon="-5.018379036337137">
        <ele>897.04999999999995</ele>
        <time>2025-05-09T10:42:26Z</time>
      </trkpt>
      <trkpt lat="36.800006004050374" lon="-5.018238974735141">
        <ele>896.09000000000003</ele>
        <time>2025-05-09T10:42:27Z</time>
      </trkpt>
      <trkpt lat="36.800084039568901" lon="-5.018077958375216">
        <ele>895.12</ele>
        <time>2025-05-09T10:42:28Z</time>
      </trkpt>
      <trkpt lat="36.800622995942831" lon="-5.016438039019704">
        <ele>886.95000000000005</ele>
        <time>2025-05-09T10:42:36Z</time>
      </trkpt>
      <trkpt lat="36.800794992595911" lon="-5.015886006876826">
        <ele>883.59000000000003</ele>
        <time>2025-05-09T10:42:39Z</time>
      </trkpt>
      <trkpt lat="36.800851989537477" lon="-5.015511000528932">
        <ele>881.66999999999996</ele>
        <time>2025-05-09T10:42:41Z</time>
      </trkpt>
      <trkpt lat="36.800891971215606" lon="-5.015316959470511">
        <ele>880.71000000000004</ele>
        <time>2025-05-09T10:42:42Z</time>
      </trkpt>
      <trkpt lat="36.800963971763849" lon="-5.015128031373024">
        <ele>879.74000000000001</ele>
        <time>2025-05-09T10:42:43Z</time>
      </trkpt>
      <trkpt lat="36.801190031692386" lon="-5.014534005895257">
        <ele>876.86000000000001</ele>
        <time>2025-05-09T10:42:46Z</time>
      </trkpt>
      <trkpt lat="36.801280975341797" lon="-5.014293026179075">
        <ele>876.38</ele>
        <time>2025-05-09T10:42:47Z</time>
      </trkpt>
      <trkpt lat="36.801350964233279" lon="-5.013909973204136">
        <ele>874.94000000000005</ele>
        <time>2025-05-09T10:42:49Z</time>
      </trkpt>
      <trkpt lat="36.801364040002227" lon="-5.013699000701308">
        <ele>874.46000000000004</ele>
        <time>2025-05-09T10:42:50Z</time>
      </trkpt>
      <trkpt lat="36.801356999203563" lon="-5.013490039855242">
        <ele>873.98000000000002</ele>
        <time>2025-05-09T10:42:51Z</time>
      </trkpt>
      <trkpt lat="36.801350964233279" lon="-5.013279989361763">
        <ele>873.98000000000002</ele>
        <time>2025-05-09T10:42:52Z</time>
      </trkpt>
      <trkpt lat="36.801335038617253" lon="-5.013070022687316">
        <ele>873.98000000000002</ele>
        <time>2025-05-09T10:42:53Z</time>
      </trkpt>
      <trkpt lat="36.80128701031208" lon="-5.012875981628895">
        <ele>873.98000000000002</ele>
        <time>2025-05-09T10:42:54Z</time>
      </trkpt>
      <trkpt lat="36.80117703974247" lon="-5.012529976665974">
        <ele>873.5</ele>
        <time>2025-05-09T10:42:56Z</time>
      </trkpt>
      <trkpt lat="36.80109397508204" lon="-5.012389998883009">
        <ele>873.5</ele>
        <time>2025-05-09T10:42:57Z</time>
      </trkpt>
      <trkpt lat="36.801009988412261" lon="-5.012248009443283">
        <ele>873.5</ele>
        <time>2025-05-09T10:42:58Z</time>
      </trkpt>
      <trkpt lat="36.800909992307425" lon="-5.012097973376513">
        <ele>873.98000000000002</ele>
        <time>2025-05-09T10:42:59Z</time>
      </trkpt>
      <trkpt lat="36.800791975110769" lon="-5.011980039998889">
        <ele>873.98000000000002</ele>
        <time>2025-05-09T10:43:00Z</time>
      </trkpt>
      <trkpt lat="36.800637999549508" lon="-5.011908039450645">
        <ele>873.98000000000002</ele>
        <time>2025-05-09T10:43:01Z</time>
      </trkpt>
      <trkpt lat="36.800486035645008" lon="-5.011851964518428">
        <ele>874.46000000000004</ele>
        <time>2025-05-09T10:43:02Z</time>
      </trkpt>
      <trkpt lat="36.800333987921476" lon="-5.01181298866868">
        <ele>874.94000000000005</ele>
        <time>2025-05-09T10:43:03Z</time>
      </trkpt>
      <trkpt lat="36.799888992682099" lon="-5.011697988957167">
        <ele>875.89999999999998</ele>
        <time>2025-05-09T10:43:06Z</time>
      </trkpt>
      <trkpt lat="36.799764018505812" lon="-5.011641997843981">
        <ele>876.86000000000001</ele>
        <time>2025-05-09T10:43:07Z</time>
      </trkpt>
      <trkpt lat="36.799648012965918" lon="-5.011535966768861">
        <ele>877.82000000000005</ele>
        <time>2025-05-09T10:43:08Z</time>
      </trkpt>
      <trkpt lat="36.799533013254404" lon="-5.011415015906096">
        <ele>878.77999999999997</ele>
        <time>2025-05-09T10:43:09Z</time>
      </trkpt>
      <trkpt lat="36.799431005492806" lon="-5.011270008981228">
        <ele>879.25999999999999</ele>
        <time>2025-05-09T10:43:10Z</time>
      </trkpt>
      <trkpt lat="36.799309970811009" lon="-5.01116800121963">
        <ele>880.22000000000003</ele>
        <time>2025-05-09T10:43:11Z</time>
      </trkpt>
      <trkpt lat="36.799179967492819" lon="-5.011070016771555">
        <ele>880.71000000000004</ele>
        <time>2025-05-09T10:43:12Z</time>
      </trkpt>
      <trkpt lat="36.799026997759938" lon="-5.011005979031324">
        <ele>881.66999999999996</ele>
        <time>2025-05-09T10:43:13Z</time>
      </trkpt>
      <trkpt lat="36.798711000010371" lon="-5.010941019281745">
        <ele>882.63</ele>
        <time>2025-05-09T10:43:15Z</time>
      </trkpt>
      <trkpt lat="36.79840799421072" lon="-5.010902965441346">
        <ele>883.59000000000003</ele>
        <time>2025-05-09T10:43:17Z</time>
      </trkpt>
      <trkpt lat="36.798262987285852" lon="-5.01082300208509">
        <ele>884.54999999999995</ele>
        <time>2025-05-09T10:43:18Z</time>
      </trkpt>
      <trkpt lat="36.798122003674507" lon="-5.010744966566563">
        <ele>885.02999999999997</ele>
        <time>2025-05-09T10:43:19Z</time>
      </trkpt>
      <trkpt lat="36.797989988699555" lon="-5.010663997381926">
        <ele>885.50999999999999</ele>
        <time>2025-05-09T10:43:20Z</time>
      </trkpt>
      <trkpt lat="36.797878006473184" lon="-5.010570036247373">
        <ele>886.47000000000003</ele>
        <time>2025-05-09T10:43:21Z</time>
      </trkpt>
      <trkpt lat="36.797777004539967" lon="-5.010485965758562">
        <ele>886.95000000000005</ele>
        <time>2025-05-09T10:43:22Z</time>
      </trkpt>
      <trkpt lat="36.797724030911922" lon="-5.010367026552558">
        <ele>887.90999999999997</ele>
        <time>2025-05-09T10:43:23Z</time>
      </trkpt>
      <trkpt lat="36.79767700843513" lon="-5.010238029062748">
        <ele>888.39999999999998</ele>
        <time>2025-05-09T10:43:24Z</time>
      </trkpt>
      <trkpt lat="36.79767700843513" lon="-5.010101990774274">
        <ele>889.36000000000001</ele>
        <time>2025-05-09T10:43:25Z</time>
      </trkpt>
      <trkpt lat="36.79767700843513" lon="-5.009951032698154">
        <ele>889.84000000000003</ele>
        <time>2025-05-09T10:43:26Z</time>
      </trkpt>
      <trkpt lat="36.79771900177002" lon="-5.009617013856769">
        <ele>891.27999999999997</ele>
        <time>2025-05-09T10:43:28Z</time>
      </trkpt>
      <trkpt lat="36.79776200093329" lon="-5.009421966969967">
        <ele>892.24000000000001</ele>
        <time>2025-05-09T10:43:29Z</time>
      </trkpt>
      <trkpt lat="36.797850010916591" lon="-5.00927897170186">
        <ele>893.20000000000005</ele>
        <time>2025-05-09T10:43:30Z</time>
      </trkpt>
      <trkpt lat="36.798026030883193" lon="-5.008989041671157">
        <ele>894.63999999999999</ele>
        <time>2025-05-09T10:43:32Z</time>
      </trkpt>
      <trkpt lat="36.798082021996379" lon="-5.008859038352966">
        <ele>895.61000000000001</ele>
        <time>2025-05-09T10:43:33Z</time>
      </trkpt>
      <trkpt lat="36.798114962875843" lon="-5.008735992014408">
        <ele>896.09000000000003</ele>
        <time>2025-05-09T10:43:34Z</time>
      </trkpt>
      <trkpt lat="36.798113035038114" lon="-5.008649993687868">
        <ele>896.57000000000005</ele>
        <time>2025-05-09T10:43:35Z</time>
      </trkpt>
      <trkpt lat="36.798075987026095" lon="-5.008557960391045">
        <ele>897.04999999999995</ele>
        <time>2025-05-09T10:43:36Z</time>
      </trkpt>
      <trkpt lat="36.797995017841458" lon="-5.008494006469846">
        <ele>898.00999999999999</ele>
        <time>2025-05-09T10:43:37Z</time>
      </trkpt>
      <trkpt lat="36.797895021736622" lon="-5.008413959294558">
        <ele>898.97000000000003</ele>
        <time>2025-05-09T10:43:38Z</time>
      </trkpt>
      <trkpt lat="36.79778303951025" lon="-5.008326033130288">
        <ele>899.92999999999995</ele>
        <time>2025-05-09T10:43:39Z</time>
      </trkpt>
      <trkpt lat="36.797665022313595" lon="-5.008231988176704">
        <ele>900.40999999999997</ele>
        <time>2025-05-09T10:43:40Z</time>
      </trkpt>
      <trkpt lat="36.797542981803417" lon="-5.008127968758345">
        <ele>900.88999999999999</ele>
        <time>2025-05-09T10:43:41Z</time>
      </trkpt>
      <trkpt lat="36.797294039279222" lon="-5.007864022627473">
        <ele>902.33000000000004</ele>
        <time>2025-05-09T10:43:43Z</time>
      </trkpt>
      <trkpt lat="36.797152971848845" lon="-5.007764026522636">
        <ele>902.82000000000005</ele>
        <time>2025-05-09T10:43:44Z</time>
      </trkpt>
      <trkpt lat="36.797006959095597" lon="-5.007720021530986">
        <ele>903.29999999999995</ele>
        <time>2025-05-09T10:43:45Z</time>
      </trkpt>
      <trkpt lat="36.79673002101481" lon="-5.007679034024477">
        <ele>904.74000000000001</ele>
        <time>2025-05-09T10:43:47Z</time>
      </trkpt>
      <trkpt lat="36.796605968847871" lon="-5.007642991840839">
        <ele>904.74000000000001</ele>
        <time>2025-05-09T10:43:48Z</time>
      </trkpt>
      <trkpt lat="36.796493986621499" lon="-5.007531009614468">
        <ele>905.22000000000003</ele>
        <time>2025-05-09T10:43:49Z</time>
      </trkpt>
      <trkpt lat="36.796388039365411" lon="-5.007403017953038">
        <ele>905.70000000000005</ele>
        <time>2025-05-09T10:43:50Z</time>
      </trkpt>
      <trkpt lat="36.7963039688766" lon="-5.007229009643197">
        <ele>906.17999999999995</ele>
        <time>2025-05-09T10:43:51Z</time>
      </trkpt>
      <trkpt lat="36.795559991151094" lon="-5.005699982866645">
        <ele>910.50999999999999</ele>
        <time>2025-05-09T10:43:58Z</time>
      </trkpt>
      <trkpt lat="36.794544020667672" lon="-5.003426978364587">
        <ele>919.15999999999997</ele>
        <time>2025-05-09T10:44:07Z</time>
      </trkpt>
      <trkpt lat="36.794478977099061" lon="-5.003156997263432">
        <ele>919.63999999999999</ele>
        <time>2025-05-09T10:44:08Z</time>
      </trkpt>
      <trkpt lat="36.793941026553512" lon="-4.999843966215849">
        <ele>931.64999999999998</ele>
        <time>2025-05-09T10:44:20Z</time>
      </trkpt>
      <trkpt lat="36.793884029611945" lon="-4.999632993713021">
        <ele>932.13999999999999</ele>
        <time>2025-05-09T10:44:21Z</time>
      </trkpt>
      <trkpt lat="36.793801970779896" lon="-4.999431995674968">
        <ele>933.58000000000004</ele>
        <time>2025-05-09T10:44:22Z</time>
      </trkpt>
      <trkpt lat="36.793714966624975" lon="-4.999226974323392">
        <ele>935.01999999999998</ele>
        <time>2025-05-09T10:44:23Z</time>
      </trkpt>
      <trkpt lat="36.793427970260382" lon="-4.998715007677674">
        <ele>938.86000000000001</ele>
        <time>2025-05-09T10:44:26Z</time>
      </trkpt>
      <trkpt lat="36.793291009962559" lon="-4.998566983267665">
        <ele>939.83000000000004</ele>
        <time>2025-05-09T10:44:27Z</time>
      </trkpt>
      <trkpt lat="36.793170981109142" lon="-4.998437985777855">
        <ele>941.26999999999998</ele>
        <time>2025-05-09T10:44:28Z</time>
      </trkpt>
      <trkpt lat="36.793026980012655" lon="-4.998367996886373">
        <ele>942.71000000000004</ele>
        <time>2025-05-09T10:44:29Z</time>
      </trkpt>
      <trkpt lat="36.792871998623013" lon="-4.998307982459664">
        <ele>944.14999999999998</ele>
        <time>2025-05-09T10:44:30Z</time>
      </trkpt>
      <trkpt lat="36.792710982263088" lon="-4.998246962204576">
        <ele>945.59000000000003</ele>
        <time>2025-05-09T10:44:31Z</time>
      </trkpt>
      <trkpt lat="36.792545020580292" lon="-4.998183008283377">
        <ele>947.03999999999996</ele>
        <time>2025-05-09T10:44:32Z</time>
      </trkpt>
      <trkpt lat="36.79219800978899" lon="-4.998049987480044">
        <ele>949.91999999999996</ele>
        <time>2025-05-09T10:44:34Z</time>
      </trkpt>
      <trkpt lat="36.792019978165627" lon="-4.997952003031969">
        <ele>951.36000000000001</ele>
        <time>2025-05-09T10:44:35Z</time>
      </trkpt>
      <trkpt lat="36.790637969970703" lon="-4.997019013389945">
        <ele>961.46000000000004</ele>
        <time>2025-05-09T10:44:43Z</time>
      </trkpt>
      <trkpt lat="36.790507966652513" lon="-4.996863026171923">
        <ele>962.89999999999998</ele>
        <time>2025-05-09T10:44:44Z</time>
      </trkpt>
      <trkpt lat="36.790387015789747" lon="-4.996690023690462">
        <ele>964.34000000000003</ele>
        <time>2025-05-09T10:44:45Z</time>
      </trkpt>
      <trkpt lat="36.790270004421473" lon="-4.996499000117183">
        <ele>965.29999999999995</ele>
        <time>2025-05-09T10:44:46Z</time>
      </trkpt>
      <trkpt lat="36.790165985003114" lon="-4.996294984593988">
        <ele>967.22000000000003</ele>
        <time>2025-05-09T10:44:47Z</time>
      </trkpt>
      <trkpt lat="36.788983969017863" lon="-4.993888037279248">
        <ele>977.32000000000005</ele>
        <time>2025-05-09T10:44:59Z</time>
      </trkpt>
      <trkpt lat="36.788912974298" lon="-4.993716040626168">
        <ele>977.79999999999995</ele>
        <time>2025-05-09T10:45:00Z</time>
      </trkpt>
      <trkpt lat="36.788877015933394" lon="-4.993534991517663">
        <ele>978.27999999999997</ele>
        <time>2025-05-09T10:45:01Z</time>
      </trkpt>
      <trkpt lat="36.788836028426886" lon="-4.993328964337707">
        <ele>978.27999999999997</ele>
        <time>2025-05-09T10:45:02Z</time>
      </trkpt>
      <trkpt lat="36.788823958486319" lon="-4.993147999048233">
        <ele>978.27999999999997</ele>
        <time>2025-05-09T10:45:03Z</time>
      </trkpt>
      <trkpt lat="36.788809960708022" lon="-4.992941971868277">
        <ele>978.27999999999997</ele>
        <time>2025-05-09T10:45:04Z</time>
      </trkpt>
      <trkpt lat="36.788735026493669" lon="-4.992265971377492">
        <ele>975.88</ele>
        <time>2025-05-09T10:45:08Z</time>
      </trkpt>
      <trkpt lat="36.788707030937076" lon="-4.992191959172487">
        <ele>975.38999999999999</ele>
        <time>2025-05-09T10:45:09Z</time>
      </trkpt>
      <trkpt lat="36.788621032610536" lon="-4.992183996364474">
        <ele>974.42999999999995</ele>
        <time>2025-05-09T10:45:10Z</time>
      </trkpt>
      <trkpt lat="36.788527993485332" lon="-4.992176033556461">
        <ele>973.95000000000005</ele>
        <time>2025-05-09T10:45:11Z</time>
      </trkpt>
      <trkpt lat="36.78846001625061" lon="-4.992177961394191">
        <ele>972.99000000000001</ele>
        <time>2025-05-09T10:45:12Z</time>
      </trkpt>
      <trkpt lat="36.788359014317393" lon="-4.992247028276324">
        <ele>972.02999999999997</ele>
        <time>2025-05-09T10:45:13Z</time>
      </trkpt>
      <trkpt lat="36.788250971585512" lon="-4.992320034652948">
        <ele>971.54999999999995</ele>
        <time>2025-05-09T10:45:14Z</time>
      </trkpt>
      <trkpt lat="36.788150975480676" lon="-4.99238801188767">
        <ele>970.59000000000003</ele>
        <time>2025-05-09T10:45:15Z</time>
      </trkpt>
      <trkpt lat="36.788058020174503" lon="-4.992451965808868">
        <ele>969.63</ele>
        <time>2025-05-09T10:45:16Z</time>
      </trkpt>
      <trkpt lat="36.787948971614242" lon="-4.992483984678984">
        <ele>969.14999999999998</ele>
        <time>2025-05-09T10:45:17Z</time>
      </trkpt>
      <trkpt lat="36.78783799521625" lon="-4.992464035749435">
        <ele>968.66999999999996</ele>
        <time>2025-05-09T10:45:18Z</time>
      </trkpt>
      <trkpt lat="36.787585029378533" lon="-4.992420030757785">
        <ele>966.74000000000001</ele>
        <time>2025-05-09T10:45:20Z</time>
      </trkpt>
      <trkpt lat="36.787482015788555" lon="-4.992420030757785">
        <ele>965.77999999999997</ele>
        <time>2025-05-09T10:45:21Z</time>
      </trkpt>
      <trkpt lat="36.78738797083497" lon="-4.99247501604259">
        <ele>964.34000000000003</ele>
        <time>2025-05-09T10:45:22Z</time>
      </trkpt>
      <trkpt lat="36.78729803301394" lon="-4.992527989670634">
        <ele>963.38</ele>
        <time>2025-05-09T10:45:23Z</time>
      </trkpt>
      <trkpt lat="36.787208011373878" lon="-4.992580963298678">
        <ele>961.94000000000005</ele>
        <time>2025-05-09T10:45:24Z</time>
      </trkpt>
      <trkpt lat="36.787111032754183" lon="-4.992620022967458">
        <ele>960.98000000000002</ele>
        <time>2025-05-09T10:45:25Z</time>
      </trkpt>
      <trkpt lat="36.787007013335824" lon="-4.992615999653935">
        <ele>960.00999999999999</ele>
        <time>2025-05-09T10:45:26Z</time>
      </trkpt>
      <trkpt lat="36.786885978654027" lon="-4.992611976340413">
        <ele>958.09000000000003</ele>
        <time>2025-05-09T10:45:27Z</time>
      </trkpt>
      <trkpt lat="36.786452969536185" lon="-4.992607031017542">
        <ele>953.76999999999998</ele>
        <time>2025-05-09T10:45:30Z</time>
      </trkpt>
      <trkpt lat="36.786307962611318" lon="-4.992618011310697">
        <ele>952.79999999999995</ele>
        <time>2025-05-09T10:45:31Z</time>
      </trkpt>
      <trkpt lat="36.786169996485114" lon="-4.992666961625218">
        <ele>951.36000000000001</ele>
        <time>2025-05-09T10:45:32Z</time>
      </trkpt>
      <trkpt lat="36.785903032869101" lon="-4.992799982428551">
        <ele>948.48000000000002</ele>
        <time>2025-05-09T10:45:34Z</time>
      </trkpt>
      <trkpt lat="36.785772023722529" lon="-4.992866031825542">
        <ele>946.55999999999995</ele>
        <time>2025-05-09T10:45:35Z</time>
      </trkpt>
      <trkpt lat="36.785641014575958" lon="-4.992930991575122">
        <ele>944.63</ele>
        <time>2025-05-09T10:45:36Z</time>
      </trkpt>
      <trkpt lat="36.785519979894161" lon="-4.992992011830211">
        <ele>942.71000000000004</ele>
        <time>2025-05-09T10:45:37Z</time>
      </trkpt>
      <trkpt lat="36.785470023751259" lon="-4.993049008771777">
        <ele>940.30999999999995</ele>
        <time>2025-05-09T10:45:38Z</time>
      </trkpt>
      <trkpt lat="36.785423001274467" lon="-4.993156967684627">
        <ele>937.89999999999998</ele>
        <time>2025-05-09T10:45:39Z</time>
      </trkpt>
      <trkpt lat="36.785370027646422" lon="-4.993281019851565">
        <ele>935.5</ele>
        <time>2025-05-09T10:45:40Z</time>
      </trkpt>
      <trkpt lat="36.785309007391334" lon="-4.99341999180615">
        <ele>933.58000000000004</ele>
        <time>2025-05-09T10:45:41Z</time>
      </trkpt>
      <trkpt lat="36.785232983529568" lon="-4.993571033701301">
        <ele>931.64999999999998</ele>
        <time>2025-05-09T10:45:42Z</time>
      </trkpt>
      <trkpt lat="36.785124018788338" lon="-4.993758033961058">
        <ele>929.73000000000002</ele>
        <time>2025-05-09T10:45:43Z</time>
      </trkpt>
      <trkpt lat="36.785009019076824" lon="-4.993862975388765">
        <ele>927.80999999999995</ele>
        <time>2025-05-09T10:45:44Z</time>
      </trkpt>
      <trkpt lat="36.784881027415395" lon="-4.993978980928659">
        <ele>926.85000000000002</ele>
        <time>2025-05-09T10:45:45Z</time>
      </trkpt>
      <trkpt lat="36.784386998042464" lon="-4.994439985603094">
        <ele>921.08000000000004</ele>
        <time>2025-05-09T10:45:49Z</time>
      </trkpt>
      <trkpt lat="36.784282978624105" lon="-4.994576023891568">
        <ele>919.63999999999999</ele>
        <time>2025-05-09T10:45:50Z</time>
      </trkpt>
      <trkpt lat="36.78418398834765" lon="-4.994707033038139">
        <ele>918.20000000000005</ele>
        <time>2025-05-09T10:45:51Z</time>
      </trkpt>
      <trkpt lat="36.784072006121278" lon="-4.994852961972356">
        <ele>916.75</ele>
        <time>2025-05-09T10:45:52Z</time>
      </trkpt>
      <trkpt lat="36.78396999835968" lon="-4.994938038289547">
        <ele>915.30999999999995</ele>
        <time>2025-05-09T10:45:53Z</time>
      </trkpt>
      <trkpt lat="36.783866984769702" lon="-4.995023030787706">
        <ele>913.87</ele>
        <time>2025-05-09T10:45:54Z</time>
      </trkpt>
      <trkpt lat="36.783747961744666" lon="-4.995093019679189">
        <ele>912.42999999999995</ele>
        <time>2025-05-09T10:45:55Z</time>
      </trkpt>
      <trkpt lat="36.783659029752016" lon="-4.995126966387034">
        <ele>910.99000000000001</ele>
        <time>2025-05-09T10:45:56Z</time>
      </trkpt>
      <trkpt lat="36.783535983413458" lon="-4.995173988863826">
        <ele>910.02999999999997</ele>
        <time>2025-05-09T10:45:57Z</time>
      </trkpt>
      <trkpt lat="36.783458031713963" lon="-4.995165020227432">
        <ele>908.10000000000002</ele>
        <time>2025-05-09T10:45:58Z</time>
      </trkpt>
      <trkpt lat="36.783009013161063" lon="-4.995078016072512">
        <ele>902.33000000000004</ele>
        <time>2025-05-09T10:46:03Z</time>
      </trkpt>
      <trkpt lat="36.78293701261282" lon="-4.995053960010409">
        <ele>901.37</ele>
        <time>2025-05-09T10:46:04Z</time>
      </trkpt>
      <trkpt lat="36.782869035378098" lon="-4.995030993595719">
        <ele>900.88999999999999</ele>
        <time>2025-05-09T10:46:05Z</time>
      </trkpt>
      <trkpt lat="36.782784964889288" lon="-4.995002998039126">
        <ele>900.40999999999997</ele>
        <time>2025-05-09T10:46:06Z</time>
      </trkpt>
      <trkpt lat="36.782721010968089" lon="-4.994874000549316">
        <ele>899.45000000000005</ele>
        <time>2025-05-09T10:46:07Z</time>
      </trkpt>
      <trkpt lat="36.782710030674934" lon="-4.994789008051157">
        <ele>898.97000000000003</ele>
        <time>2025-05-09T10:46:08Z</time>
      </trkpt>
      <trkpt lat="36.782716987654567" lon="-4.994595972821116">
        <ele>898.00999999999999</ele>
        <time>2025-05-09T10:46:09Z</time>
      </trkpt>
      <trkpt lat="36.782743977382779" lon="-4.994434034451842">
        <ele>898.00999999999999</ele>
        <time>2025-05-09T10:46:10Z</time>
      </trkpt>
      <trkpt lat="36.782769961282611" lon="-4.994275029748678">
        <ele>897.52999999999997</ele>
        <time>2025-05-09T10:46:11Z</time>
      </trkpt>
      <trkpt lat="36.782798040658236" lon="-4.994105966761708">
        <ele>897.04999999999995</ele>
        <time>2025-05-09T10:46:12Z</time>
      </trkpt>
      <trkpt lat="36.782816983759403" lon="-4.993950985372067">
        <ele>897.04999999999995</ele>
        <time>2025-05-09T10:46:13Z</time>
      </trkpt>
      <trkpt lat="36.7828309815377" lon="-4.99380799010396">
        <ele>896.57000000000005</ele>
        <time>2025-05-09T10:46:14Z</time>
      </trkpt>
      <trkpt lat="36.782844979315996" lon="-4.993670023977757">
        <ele>896.09000000000003</ele>
        <time>2025-05-09T10:46:15Z</time>
      </trkpt>
      <trkpt lat="36.782814972102642" lon="-4.99354999512434">
        <ele>895.61000000000001</ele>
        <time>2025-05-09T10:46:16Z</time>
      </trkpt>
      <trkpt lat="36.782760992646217" lon="-4.993448993191123">
        <ele>894.63999999999999</ele>
        <time>2025-05-09T10:46:17Z</time>
      </trkpt>
      <trkpt lat="36.782698966562748" lon="-4.993371963500977">
        <ele>894.15999999999997</ele>
        <time>2025-05-09T10:46:18Z</time>
      </trkpt>
      <trkpt lat="36.782549014315009" lon="-4.993328964337707">
        <ele>893.20000000000005</ele>
        <time>2025-05-09T10:46:19Z</time>
      </trkpt>
      <trkpt lat="36.782461004331708" lon="-4.993338016793132">
        <ele>892.24000000000001</ele>
        <time>2025-05-09T10:46:20Z</time>
      </trkpt>
      <trkpt lat="36.782325971871614" lon="-4.993351008743048">
        <ele>891.27999999999997</ele>
        <time>2025-05-09T10:46:21Z</time>
      </trkpt>
      <trkpt lat="36.781691964715719" lon="-4.993414962664247">
        <ele>887.90999999999997</ele>
        <time>2025-05-09T10:46:25Z</time>
      </trkpt>
      <trkpt lat="36.78059795871377" lon="-4.993575979024172">
        <ele>885.50999999999999</ele>
        <time>2025-05-09T10:46:33Z</time>
      </trkpt>
      <trkpt lat="36.780525958165526" lon="-4.993581008166075">
        <ele>885.02999999999997</ele>
        <time>2025-05-09T10:46:34Z</time>
      </trkpt>
      <trkpt lat="36.780431997030973" lon="-4.993564998731017">
        <ele>885.02999999999997</ele>
        <time>2025-05-09T10:46:35Z</time>
      </trkpt>
      <trkpt lat="36.78035999648273" lon="-4.993456033989787">
        <ele>885.02999999999997</ele>
        <time>2025-05-09T10:46:36Z</time>
      </trkpt>
      <trkpt lat="36.78035999648273" lon="-4.99335402622819">
        <ele>885.02999999999997</ele>
        <time>2025-05-09T10:46:37Z</time>
      </trkpt>
      <trkpt lat="36.78035999648273" lon="-4.993235003203154">
        <ele>885.99000000000001</ele>
        <time>2025-05-09T10:46:38Z</time>
      </trkpt>
      <trkpt lat="36.78035999648273" lon="-4.992598984390497">
        <ele>889.36000000000001</ele>
        <time>2025-05-09T10:46:42Z</time>
      </trkpt>
      <trkpt lat="36.780333006754518" lon="-4.992444003000855">
        <ele>889.36000000000001</ele>
        <time>2025-05-09T10:46:43Z</time>
      </trkpt>
      <trkpt lat="36.780310040339828" lon="-4.992317017167807">
        <ele>890.32000000000005</ele>
        <time>2025-05-09T10:46:44Z</time>
      </trkpt>
      <trkpt lat="36.780301993712783" lon="-4.992202017456293">
        <ele>891.75999999999999</ele>
        <time>2025-05-09T10:46:45Z</time>
      </trkpt>
      <trkpt lat="36.780324038118124" lon="-4.992076959460974">
        <ele>892.72000000000003</ele>
        <time>2025-05-09T10:46:46Z</time>
      </trkpt>
      <trkpt lat="36.780350022017956" lon="-4.991931030526757">
        <ele>893.67999999999995</ele>
        <time>2025-05-09T10:46:47Z</time>
      </trkpt>
      <trkpt lat="36.780624026432633" lon="-4.990761000663042">
        <ele>899.92999999999995</ele>
        <time>2025-05-09T10:46:53Z</time>
      </trkpt>
      <trkpt lat="36.780699966475368" lon="-4.990395968779922">
        <ele>902.33000000000004</ele>
        <time>2025-05-09T10:46:55Z</time>
      </trkpt>
      <trkpt lat="36.780690997838974" lon="-4.990207040682435">
        <ele>903.29999999999995</ele>
        <time>2025-05-09T10:46:56Z</time>
      </trkpt>
      <trkpt lat="36.78066099062562" lon="-4.989637993276119">
        <ele>906.65999999999997</ele>
        <time>2025-05-09T10:46:59Z</time>
      </trkpt>
      <trkpt lat="36.780686974525452" lon="-4.98953104019165">
        <ele>907.62</ele>
        <time>2025-05-09T10:47:00Z</time>
      </trkpt>
      <trkpt lat="36.780722010880709" lon="-4.989392990246415">
        <ele>908.58000000000004</ele>
        <time>2025-05-09T10:47:01Z</time>
      </trkpt>
      <trkpt lat="36.78076802752912" lon="-4.9892090074718">
        <ele>909.53999999999996</ele>
        <time>2025-05-09T10:47:02Z</time>
      </trkpt>
      <trkpt lat="36.780842961743474" lon="-4.989128960296512">
        <ele>910.02999999999997</ele>
        <time>2025-05-09T10:47:03Z</time>
      </trkpt>
      <trkpt lat="36.780948992818594" lon="-4.989014966413379">
        <ele>910.50999999999999</ele>
        <time>2025-05-09T10:47:04Z</time>
      </trkpt>
      <trkpt lat="36.781066004186869" lon="-4.988888986408711">
        <ele>910.50999999999999</ele>
        <time>2025-05-09T10:47:05Z</time>
      </trkpt>
      <trkpt lat="36.78169397637248" lon="-4.988176021724939">
        <ele>907.13999999999999</ele>
        <time>2025-05-09T10:47:10Z</time>
      </trkpt>
      <trkpt lat="36.781771006062627" lon="-4.98802799731493">
        <ele>905.22000000000003</ele>
        <time>2025-05-09T10:47:11Z</time>
      </trkpt>
      <trkpt lat="36.78190603852272" lon="-4.987768996506929">
        <ele>902.33000000000004</ele>
        <time>2025-05-09T10:47:13Z</time>
      </trkpt>
      <trkpt lat="36.781981978565454" lon="-4.987661959603429">
        <ele>900.88999999999999</ele>
        <time>2025-05-09T10:47:14Z</time>
      </trkpt>
      <trkpt lat="36.782082980498672" lon="-4.987573027610779">
        <ele>899.92999999999995</ele>
        <time>2025-05-09T10:47:15Z</time>
      </trkpt>
      <trkpt lat="36.782966013997793" lon="-4.987086961045861">
        <ele>891.75999999999999</ele>
        <time>2025-05-09T10:47:21Z</time>
      </trkpt>
      <trkpt lat="36.783271031454206" lon="-4.986919993534684">
        <ele>889.36000000000001</ele>
        <time>2025-05-09T10:47:23Z</time>
      </trkpt>
      <trkpt lat="36.783391982316971" lon="-4.986809017136693">
        <ele>887.90999999999997</ele>
        <time>2025-05-09T10:47:24Z</time>
      </trkpt>
      <trkpt lat="36.78349600173533" lon="-4.986664010211825">
        <ele>886.47000000000003</ele>
        <time>2025-05-09T10:47:25Z</time>
      </trkpt>
      <trkpt lat="36.783689958974719" lon="-4.98632999137044">
        <ele>884.54999999999995</ele>
        <time>2025-05-09T10:47:27Z</time>
      </trkpt>
      <trkpt lat="36.783795990049839" lon="-4.98618096113205">
        <ele>883.59000000000003</ele>
        <time>2025-05-09T10:47:28Z</time>
      </trkpt>
      <trkpt lat="36.78390596061945" lon="-4.986070990562439">
        <ele>882.63</ele>
        <time>2025-05-09T10:47:29Z</time>
      </trkpt>
      <trkpt lat="36.784020960330963" lon="-4.986021034419537">
        <ele>881.66999999999996</ele>
        <time>2025-05-09T10:47:30Z</time>
      </trkpt>
      <trkpt lat="36.784132020547986" lon="-4.986002007499337">
        <ele>881.19000000000005</ele>
        <time>2025-05-09T10:47:31Z</time>
      </trkpt>
      <trkpt lat="36.784253977239132" lon="-4.98600603081286">
        <ele>880.22000000000003</ele>
        <time>2025-05-09T10:47:32Z</time>
      </trkpt>
      <trkpt lat="36.784380041062832" lon="-4.986044000834227">
        <ele>879.74000000000001</ele>
        <time>2025-05-09T10:47:33Z</time>
      </trkpt>
      <trkpt lat="36.784514989703894" lon="-4.986084988340735">
        <ele>879.74000000000001</ele>
        <time>2025-05-09T10:47:34Z</time>
      </trkpt>
      <trkpt lat="36.784781031310558" lon="-4.986165035516024">
        <ele>878.77999999999997</ele>
        <time>2025-05-09T10:47:36Z</time>
      </trkpt>
      <trkpt lat="36.784883961081505" lon="-4.986167969182134">
        <ele>879.25999999999999</ele>
        <time>2025-05-09T10:47:37Z</time>
      </trkpt>
      <trkpt lat="36.784980017691851" lon="-4.986117007210851">
        <ele>879.25999999999999</ele>
        <time>2025-05-09T10:47:38Z</time>
      </trkpt>
      <trkpt lat="36.785073978826404" lon="-4.986038971692324">
        <ele>879.25999999999999</ele>
        <time>2025-05-09T10:47:39Z</time>
      </trkpt>
      <trkpt lat="36.78517104126513" lon="-4.985959008336067">
        <ele>879.25999999999999</ele>
        <time>2025-05-09T10:47:40Z</time>
      </trkpt>
      <trkpt lat="36.785273971036077" lon="-4.985911985859275">
        <ele>879.25999999999999</ele>
        <time>2025-05-09T10:47:41Z</time>
      </trkpt>
      <trkpt lat="36.785402968525887" lon="-4.985882984474301">
        <ele>879.25999999999999</ele>
        <time>2025-05-09T10:47:42Z</time>
      </trkpt>
      <trkpt lat="36.785497013479471" lon="-4.985930006951094">
        <ele>878.77999999999997</ele>
        <time>2025-05-09T10:47:43Z</time>
      </trkpt>
      <trkpt lat="36.785610001534224" lon="-4.98598700389266">
        <ele>878.77999999999997</ele>
        <time>2025-05-09T10:47:44Z</time>
      </trkpt>
      <trkpt lat="36.78573003038764" lon="-4.986047018319368">
        <ele>878.77999999999997</ele>
        <time>2025-05-09T10:47:45Z</time>
      </trkpt>
      <trkpt lat="36.785861039534211" lon="-4.986111978068948">
        <ele>878.77999999999997</ele>
        <time>2025-05-09T10:47:46Z</time>
      </trkpt>
      <trkpt lat="36.786280972883105" lon="-4.986238963901997">
        <ele>878.77999999999997</ele>
        <time>2025-05-09T10:47:49Z</time>
      </trkpt>
      <trkpt lat="36.786396978422999" lon="-4.986266037449241">
        <ele>878.77999999999997</ele>
        <time>2025-05-09T10:47:50Z</time>
      </trkpt>
      <trkpt lat="36.786481970921159" lon="-4.986225971952081">
        <ele>878.77999999999997</ele>
        <time>2025-05-09T10:47:51Z</time>
      </trkpt>
      <trkpt lat="36.786582972854376" lon="-4.986162018030882">
        <ele>878.77999999999997</ele>
        <time>2025-05-09T10:47:52Z</time>
      </trkpt>
      <trkpt lat="36.786618009209633" lon="-4.986057998612523">
        <ele>878.77999999999997</ele>
        <time>2025-05-09T10:47:53Z</time>
      </trkpt>
      <trkpt lat="36.786662014201283" lon="-4.985924977809191">
        <ele>878.77999999999997</ele>
        <time>2025-05-09T10:47:54Z</time>
      </trkpt>
      <trkpt lat="36.786711970344186" lon="-4.985776031389833">
        <ele>878.77999999999997</ele>
        <time>2025-05-09T10:47:55Z</time>
      </trkpt>
      <trkpt lat="36.786781959235668" lon="-4.985628006979823">
        <ele>878.29999999999995</ele>
        <time>2025-05-09T10:47:56Z</time>
      </trkpt>
      <trkpt lat="36.786872986704111" lon="-4.985474031418562">
        <ele>878.29999999999995</ele>
        <time>2025-05-09T10:47:57Z</time>
      </trkpt>
      <trkpt lat="36.786969965323806" lon="-4.98532198369503">
        <ele>877.34000000000003</ele>
        <time>2025-05-09T10:47:58Z</time>
      </trkpt>
      <trkpt lat="36.787087982520461" lon="-4.98519298620522">
        <ele>876.86000000000001</ele>
        <time>2025-05-09T10:47:59Z</time>
      </trkpt>
      <trkpt lat="36.787209017202258" lon="-4.985076980665326">
        <ele>876.38</ele>
        <time>2025-05-09T10:48:00Z</time>
      </trkpt>
      <trkpt lat="36.787351006641984" lon="-4.985005985945463">
        <ele>875.89999999999998</ele>
        <time>2025-05-09T10:48:01Z</time>
      </trkpt>
      <trkpt lat="36.787484027445316" lon="-4.984939014539123">
        <ele>875.41999999999996</ele>
        <time>2025-05-09T10:48:02Z</time>
      </trkpt>
      <trkpt lat="36.787620987743139" lon="-4.984939014539123">
        <ele>874.94000000000005</ele>
        <time>2025-05-09T10:48:03Z</time>
      </trkpt>
      <trkpt lat="36.787759037688375" lon="-4.984939014539123">
        <ele>874.46000000000004</ele>
        <time>2025-05-09T10:48:04Z</time>
      </trkpt>
      <trkpt lat="36.78788099437952" lon="-4.984972961246967">
        <ele>873.5</ele>
        <time>2025-05-09T10:48:05Z</time>
      </trkpt>
      <trkpt lat="36.787998005747795" lon="-4.985044961795211">
        <ele>872.52999999999997</ele>
        <time>2025-05-09T10:48:06Z</time>
      </trkpt>
      <trkpt lat="36.788109987974167" lon="-4.985116040334106">
        <ele>871.57000000000005</ele>
        <time>2025-05-09T10:48:07Z</time>
      </trkpt>
      <trkpt lat="36.788219036534429" lon="-4.985167002305389">
        <ele>870.61000000000001</ele>
        <time>2025-05-09T10:48:08Z</time>
      </trkpt>
      <trkpt lat="36.788326995447278" lon="-4.98519298620522">
        <ele>869.64999999999998</ele>
        <time>2025-05-09T10:48:09Z</time>
      </trkpt>
      <trkpt lat="36.788421040400863" lon="-4.985133977606893">
        <ele>868.69000000000005</ele>
        <time>2025-05-09T10:48:10Z</time>
      </trkpt>
      <trkpt lat="36.788520030677319" lon="-4.985071029514074">
        <ele>867.73000000000002</ele>
        <time>2025-05-09T10:48:11Z</time>
      </trkpt>
      <trkpt lat="36.788623966276646" lon="-4.985004980117083">
        <ele>866.76999999999998</ele>
        <time>2025-05-09T10:48:12Z</time>
      </trkpt>
      <trkpt lat="36.788736032322049" lon="-4.984938008710742">
        <ele>865.79999999999995</ele>
        <time>2025-05-09T10:48:13Z</time>
      </trkpt>
      <trkpt lat="36.78884600289166" lon="-4.984921999275684">
        <ele>864.84000000000003</ele>
        <time>2025-05-09T10:48:14Z</time>
      </trkpt>
      <trkpt lat="36.788948010653257" lon="-4.984974972903729">
        <ele>863.88</ele>
        <time>2025-05-09T10:48:15Z</time>
      </trkpt>
      <trkpt lat="36.789026968181133" lon="-4.985039010643959">
        <ele>862.44000000000005</ele>
        <time>2025-05-09T10:48:16Z</time>
      </trkpt>
      <trkpt lat="36.789108021184802" lon="-4.98510698787868">
        <ele>861.48000000000002</ele>
        <time>2025-05-09T10:48:17Z</time>
      </trkpt>
      <trkpt lat="36.789197036996484" lon="-4.985179994255304">
        <ele>860.51999999999998</ele>
        <time>2025-05-09T10:48:18Z</time>
      </trkpt>
      <trkpt lat="36.789270965382457" lon="-4.985220981761813">
        <ele>859.55999999999995</ele>
        <time>2025-05-09T10:48:19Z</time>
      </trkpt>
      <trkpt lat="36.789369033649564" lon="-4.985231040045619">
        <ele>858.59000000000003</ele>
        <time>2025-05-09T10:48:20Z</time>
      </trkpt>
      <trkpt lat="36.789466012269258" lon="-4.985231040045619">
        <ele>858.11000000000001</ele>
        <time>2025-05-09T10:48:21Z</time>
      </trkpt>
      <trkpt lat="36.789544969797134" lon="-4.985142024233937">
        <ele>857.63</ele>
        <time>2025-05-09T10:48:22Z</time>
      </trkpt>
      <trkpt lat="36.789630968123674" lon="-4.985044961795211">
        <ele>856.66999999999996</ele>
        <time>2025-05-09T10:48:23Z</time>
      </trkpt>
      <trkpt lat="36.78968402557075" lon="-4.98491101898253">
        <ele>856.19000000000005</ele>
        <time>2025-05-09T10:48:24Z</time>
      </trkpt>
      <trkpt lat="36.789736999198794" lon="-4.984777998179197">
        <ele>855.23000000000002</ele>
        <time>2025-05-09T10:48:25Z</time>
      </trkpt>
      <trkpt lat="36.789801958948374" lon="-4.984616981819272">
        <ele>854.26999999999998</ele>
        <time>2025-05-09T10:48:26Z</time>
      </trkpt>
      <trkpt lat="36.789863985031843" lon="-4.984559984877706">
        <ele>853.30999999999995</ele>
        <time>2025-05-09T10:48:27Z</time>
      </trkpt>
      <trkpt lat="36.789959035813808" lon="-4.984471974894404">
        <ele>852.83000000000004</ele>
        <time>2025-05-09T10:48:28Z</time>
      </trkpt>
      <trkpt lat="36.790055008605123" lon="-4.984383964911103">
        <ele>851.87</ele>
        <time>2025-05-09T10:48:29Z</time>
      </trkpt>
      <trkpt lat="36.790108988061547" lon="-4.984262008219957">
        <ele>850.89999999999998</ele>
        <time>2025-05-09T10:48:30Z</time>
      </trkpt>
      <trkpt lat="36.790149975568056" lon="-4.984121024608612">
        <ele>850.41999999999996</ele>
        <time>2025-05-09T10:48:31Z</time>
      </trkpt>
      <trkpt lat="36.790236979722977" lon="-4.983821958303452">
        <ele>848.5</ele>
        <time>2025-05-09T10:48:33Z</time>
      </trkpt>
      <trkpt lat="36.790281990543008" lon="-4.983682986348867">
        <ele>847.53999999999996</ele>
        <time>2025-05-09T10:48:34Z</time>
      </trkpt>
      <trkpt lat="36.790429009124637" lon="-4.983464973047376">
        <ele>846.10000000000002</ele>
        <time>2025-05-09T10:48:36Z</time>
      </trkpt>
      <trkpt lat="36.790477959439158" lon="-4.983332036063075">
        <ele>845.62</ele>
        <time>2025-05-09T10:48:37Z</time>
      </trkpt>
      <trkpt lat="36.790469996631145" lon="-4.983176970854402">
        <ele>844.65999999999997</ele>
        <time>2025-05-09T10:48:38Z</time>
      </trkpt>
      <trkpt lat="36.790408976376057" lon="-4.983075968921185">
        <ele>843.69000000000005</ele>
        <time>2025-05-09T10:48:39Z</time>
      </trkpt>
      <trkpt lat="36.790380980819464" lon="-4.983029030263424">
        <ele>842.73000000000002</ele>
        <time>2025-05-09T10:48:40Z</time>
      </trkpt>
      <trkpt lat="36.790279978886247" lon="-4.983003968372941">
        <ele>841.28999999999996</ele>
        <time>2025-05-09T10:48:41Z</time>
      </trkpt>
      <trkpt lat="36.790208984166384" lon="-4.982987036928535">
        <ele>839.85000000000002</ele>
        <time>2025-05-09T10:48:42Z</time>
      </trkpt>
      <trkpt lat="36.790142012760043" lon="-4.983027018606663">
        <ele>837.92999999999995</ele>
        <time>2025-05-09T10:48:43Z</time>
      </trkpt>
      <trkpt lat="36.790072023868561" lon="-4.983069011941552">
        <ele>836.96000000000004</ele>
        <time>2025-05-09T10:48:44Z</time>
      </trkpt>
      <trkpt lat="36.790001029148698" lon="-4.983112011104822">
        <ele>835.51999999999998</ele>
        <time>2025-05-09T10:48:45Z</time>
      </trkpt>
      <trkpt lat="36.789922993630171" lon="-4.98315098695457">
        <ele>834.08000000000004</ele>
        <time>2025-05-09T10:48:46Z</time>
      </trkpt>
      <trkpt lat="36.789840012788773" lon="-4.983192980289459">
        <ele>833.12</ele>
        <time>2025-05-09T10:48:47Z</time>
      </trkpt>
      <trkpt lat="36.789736999198794" lon="-4.983201026916504">
        <ele>831.67999999999995</ele>
        <time>2025-05-09T10:48:48Z</time>
      </trkpt>
      <trkpt lat="36.78964102640748" lon="-4.983156016096473">
        <ele>830.24000000000001</ele>
        <time>2025-05-09T10:48:49Z</time>
      </trkpt>
      <trkpt lat="36.78955402225256" lon="-4.983077980577946">
        <ele>828.78999999999996</ele>
        <time>2025-05-09T10:48:50Z</time>
      </trkpt>
      <trkpt lat="36.789475986734033" lon="-4.982993993908167">
        <ele>827.35000000000002</ele>
        <time>2025-05-09T10:48:51Z</time>
      </trkpt>
      <trkpt lat="36.789397029206157" lon="-4.982907995581627">
        <ele>826.38999999999999</ele>
        <time>2025-05-09T10:48:52Z</time>
      </trkpt>
      <trkpt lat="36.789314970374107" lon="-4.982844963669777">
        <ele>824.95000000000005</ele>
        <time>2025-05-09T10:48:53Z</time>
      </trkpt>
      <trkpt lat="36.789196031168103" lon="-4.982800958678126">
        <ele>823.50999999999999</ele>
        <time>2025-05-09T10:48:54Z</time>
      </trkpt>
      <trkpt lat="36.78906200453639" lon="-4.982751002535224">
        <ele>822.05999999999995</ele>
        <time>2025-05-09T10:48:55Z</time>
      </trkpt>
      <trkpt lat="36.788920015096664" lon="-4.98269802890718">
        <ele>820.62</ele>
        <time>2025-05-09T10:48:56Z</time>
      </trkpt>
      <trkpt lat="36.788771990686655" lon="-4.982642959803343">
        <ele>819.17999999999995</ele>
        <time>2025-05-09T10:48:57Z</time>
      </trkpt>
      <trkpt lat="36.788622038438916" lon="-4.982568025588989">
        <ele>817.25999999999999</ele>
        <time>2025-05-09T10:48:58Z</time>
      </trkpt>
      <trkpt lat="36.788032036274672" lon="-4.982273988425732">
        <ele>810.04999999999995</ele>
        <time>2025-05-09T10:49:02Z</time>
      </trkpt>
      <trkpt lat="36.787894992157817" lon="-4.982177009806037">
        <ele>807.15999999999997</ele>
        <time>2025-05-09T10:49:03Z</time>
      </trkpt>
      <trkpt lat="36.787667004391551" lon="-4.981963019818068">
        <ele>802.36000000000001</ele>
        <time>2025-05-09T10:49:05Z</time>
      </trkpt>
      <trkpt lat="36.787570025771856" lon="-4.981870986521244">
        <ele>800.44000000000005</ele>
        <time>2025-05-09T10:49:06Z</time>
      </trkpt>
      <trkpt lat="36.78753599524498" lon="-4.981741989031434">
        <ele>798.02999999999997</ele>
        <time>2025-05-09T10:49:07Z</time>
      </trkpt>
      <trkpt lat="36.787496013566852" lon="-4.981592958793044">
        <ele>795.63</ele>
        <time>2025-05-09T10:49:08Z</time>
      </trkpt>
      <trkpt lat="36.78745100274682" lon="-4.981421967968345">
        <ele>793.71000000000004</ele>
        <time>2025-05-09T10:49:09Z</time>
      </trkpt>
      <trkpt lat="36.787398029118776" lon="-4.981223987415433">
        <ele>791.29999999999995</ele>
        <time>2025-05-09T10:49:10Z</time>
      </trkpt>
      <trkpt lat="36.78734203800559" lon="-4.981011003255844">
        <ele>789.38</ele>
        <time>2025-05-09T10:49:11Z</time>
      </trkpt>
      <trkpt lat="36.787283029407263" lon="-4.98078896664083">
        <ele>786.98000000000002</ele>
        <time>2025-05-09T10:49:12Z</time>
      </trkpt>
      <trkpt lat="36.786941969767213" lon="-4.979191040620208">
        <ele>773.51999999999998</ele>
        <time>2025-05-09T10:49:19Z</time>
      </trkpt>
      <trkpt lat="36.786837028339505" lon="-4.978804970160127">
        <ele>770.14999999999998</ele>
        <time>2025-05-09T10:49:21Z</time>
      </trkpt>
      <trkpt lat="36.786662014201283" lon="-4.978356035426259">
        <ele>765.35000000000002</ele>
        <time>2025-05-09T10:49:24Z</time>
      </trkpt>
      <trkpt lat="36.786626977846026" lon="-4.978262996301055">
        <ele>764.87</ele>
        <time>2025-05-09T10:49:25Z</time>
      </trkpt>
      <trkpt lat="36.786604011431336" lon="-4.978200970217586">
        <ele>764.87</ele>
        <time>2025-05-09T10:49:26Z</time>
      </trkpt>
      <trkpt lat="36.786625972017646" lon="-4.978029979392886">
        <ele>763.41999999999996</ele>
        <time>2025-05-09T10:49:27Z</time>
      </trkpt>
      <trkpt lat="36.786663020029664" lon="-4.977964013814926">
        <ele>762.46000000000004</ele>
        <time>2025-05-09T10:49:28Z</time>
      </trkpt>
      <trkpt lat="36.786791011691093" lon="-4.977825963869691">
        <ele>761.5</ele>
        <time>2025-05-09T10:49:29Z</time>
      </trkpt>
      <trkpt lat="36.786915985867381" lon="-4.977743988856673">
        <ele>760.53999999999996</ele>
        <time>2025-05-09T10:49:30Z</time>
      </trkpt>
      <trkpt lat="36.787030985578895" lon="-4.977666959166527">
        <ele>759.58000000000004</ele>
        <time>2025-05-09T10:49:31Z</time>
      </trkpt>
      <trkpt lat="36.787161994725466" lon="-4.977579033002257">
        <ele>759.58000000000004</ele>
        <time>2025-05-09T10:49:32Z</time>
      </trkpt>
      <trkpt lat="36.787179009988904" lon="-4.977512983605266">
        <ele>758.62</ele>
        <time>2025-05-09T10:49:33Z</time>
      </trkpt>
      <trkpt lat="36.787211028859019" lon="-4.977381974458695">
        <ele>758.13999999999999</ele>
        <time>2025-05-09T10:49:34Z</time>
      </trkpt>
      <trkpt lat="36.787218991667032" lon="-4.97722003608942">
        <ele>757.65999999999997</ele>
        <time>2025-05-09T10:49:35Z</time>
      </trkpt>
      <trkpt lat="36.787208011373878" lon="-4.977053990587592">
        <ele>756.69000000000005</ele>
        <time>2025-05-09T10:49:36Z</time>
      </trkpt>
      <trkpt lat="36.787210023030639" lon="-4.976884005591273">
        <ele>756.21000000000004</ele>
        <time>2025-05-09T10:49:37Z</time>
      </trkpt>
      <trkpt lat="36.78721597418189" lon="-4.97670697979629">
        <ele>755.73000000000002</ele>
        <time>2025-05-09T10:49:38Z</time>
      </trkpt>
      <trkpt lat="36.787223014980555" lon="-4.976530959829688">
        <ele>754.76999999999998</ele>
        <time>2025-05-09T10:49:39Z</time>
      </trkpt>
      <trkpt lat="36.787243969738483" lon="-4.976349994540215">
        <ele>754.28999999999996</ele>
        <time>2025-05-09T10:49:40Z</time>
      </trkpt>
      <trkpt lat="36.787288980558515" lon="-4.97616701759398">
        <ele>753.80999999999995</ele>
        <time>2025-05-09T10:49:41Z</time>
      </trkpt>
      <trkpt lat="36.787763983011246" lon="-4.974630028009415">
        <ele>747.08000000000004</ele>
        <time>2025-05-09T10:49:50Z</time>
      </trkpt>
      <trkpt lat="36.787842018529773" lon="-4.974468005821109">
        <ele>746.12</ele>
        <time>2025-05-09T10:49:51Z</time>
      </trkpt>
      <trkpt lat="36.788102025166154" lon="-4.974073972553015">
        <ele>743.24000000000001</ele>
        <time>2025-05-09T10:49:54Z</time>
      </trkpt>
      <trkpt lat="36.788217024877667" lon="-4.973952015861869">
        <ele>742.27999999999997</ele>
        <time>2025-05-09T10:49:55Z</time>
      </trkpt>
      <trkpt lat="36.788332024589181" lon="-4.97393298894167">
        <ele>741.30999999999995</ele>
        <time>2025-05-09T10:49:56Z</time>
      </trkpt>
      <trkpt lat="36.788470996543765" lon="-4.973910022526979">
        <ele>740.35000000000002</ele>
        <time>2025-05-09T10:49:57Z</time>
      </trkpt>
      <trkpt lat="36.788575015962124" lon="-4.973930977284908">
        <ele>738.90999999999997</ele>
        <time>2025-05-09T10:49:58Z</time>
      </trkpt>
      <trkpt lat="36.788712982088327" lon="-4.973970958963037">
        <ele>737.95000000000005</ele>
        <time>2025-05-09T10:49:59Z</time>
      </trkpt>
      <trkpt lat="36.788824964314699" lon="-4.974045976996422">
        <ele>736.99000000000001</ele>
        <time>2025-05-09T10:50:00Z</time>
      </trkpt>
      <trkpt lat="36.78893300704658" lon="-4.974116971716285">
        <ele>735.54999999999995</ele>
        <time>2025-05-09T10:50:01Z</time>
      </trkpt>
      <trkpt lat="36.789029985666275" lon="-4.974182015284896">
        <ele>734.58000000000004</ele>
        <time>2025-05-09T10:50:02Z</time>
      </trkpt>
      <trkpt lat="36.789114978164434" lon="-4.974267007783055">
        <ele>733.62</ele>
        <time>2025-05-09T10:50:03Z</time>
      </trkpt>
      <trkpt lat="36.789177004247904" lon="-4.974350994452834">
        <ele>732.65999999999997</ele>
        <time>2025-05-09T10:50:04Z</time>
      </trkpt>
      <trkpt lat="36.789413960650563" lon="-4.974665986374021">
        <ele>728.34000000000003</ele>
        <time>2025-05-09T10:50:08Z</time>
      </trkpt>
      <trkpt lat="36.789457965642214" lon="-4.974724994972348">
        <ele>727.37</ele>
        <time>2025-05-09T10:50:09Z</time>
      </trkpt>
      <trkpt lat="36.789540024474263" lon="-4.974736981093884">
        <ele>725.92999999999995</ele>
        <time>2025-05-09T10:50:10Z</time>
      </trkpt>
      <trkpt lat="36.789608001708984" lon="-4.974747039377689">
        <ele>724.97000000000003</ele>
        <time>2025-05-09T10:50:11Z</time>
      </trkpt>
      <trkpt lat="36.789660975337029" lon="-4.974712003022432">
        <ele>724.49000000000001</ele>
        <time>2025-05-09T10:50:12Z</time>
      </trkpt>
      <trkpt lat="36.789729036390781" lon="-4.974665986374021">
        <ele>724.00999999999999</ele>
        <time>2025-05-09T10:50:13Z</time>
      </trkpt>
      <trkpt lat="36.789759965613484" lon="-4.97459901496768">
        <ele>723.52999999999997</ele>
        <time>2025-05-09T10:50:14Z</time>
      </trkpt>
      <trkpt lat="36.789822997525334" lon="-4.974425006657839">
        <ele>723.04999999999995</ele>
        <time>2025-05-09T10:50:15Z</time>
      </trkpt>
      <trkpt lat="36.789814028888941" lon="-4.974385024979711">
        <ele>722.57000000000005</ele>
        <time>2025-05-09T10:50:16Z</time>
      </trkpt>
      <trkpt lat="36.789787961170077" lon="-4.974271031096578">
        <ele>722.57000000000005</ele>
        <time>2025-05-09T10:50:17Z</time>
      </trkpt>
      <trkpt lat="36.789760971441865" lon="-4.974154019728303">
        <ele>722.57000000000005</ele>
        <time>2025-05-09T10:50:18Z</time>
      </trkpt>
      <trkpt lat="36.789735993370414" lon="-4.97404002584517">
        <ele>722.09000000000003</ele>
        <time>2025-05-09T10:50:19Z</time>
      </trkpt>
      <trkpt lat="36.789717972278595" lon="-4.973937012255192">
        <ele>721.61000000000001</ele>
        <time>2025-05-09T10:50:20Z</time>
      </trkpt>
      <trkpt lat="36.789731970056891" lon="-4.973821006715298">
        <ele>720.64999999999998</ele>
        <time>2025-05-09T10:50:21Z</time>
      </trkpt>
      <trkpt lat="36.789746973663568" lon="-4.97369896620512">
        <ele>720.15999999999997</ele>
        <time>2025-05-09T10:50:22Z</time>
      </trkpt>
      <trkpt lat="36.789775975048542" lon="-4.973581032827497">
        <ele>719.67999999999995</ele>
        <time>2025-05-09T10:50:23Z</time>
      </trkpt>
      <trkpt lat="36.789839006960392" lon="-4.973472990095615">
        <ele>718.72000000000003</ele>
        <time>2025-05-09T10:50:24Z</time>
      </trkpt>
      <trkpt lat="36.789916036650538" lon="-4.973343992605805">
        <ele>718.24000000000001</ele>
        <time>2025-05-09T10:50:25Z</time>
      </trkpt>
      <trkpt lat="36.790004968643188" lon="-4.973193034529686">
        <ele>717.27999999999997</ele>
        <time>2025-05-09T10:50:26Z</time>
      </trkpt>
      <trkpt lat="36.790098007768393" lon="-4.973036963492632">
        <ele>715.84000000000003</ele>
        <time>2025-05-09T10:50:27Z</time>
      </trkpt>
      <trkpt lat="36.790189035236835" lon="-4.97288198210299">
        <ele>714.39999999999998</ele>
        <time>2025-05-09T10:50:28Z</time>
      </trkpt>
      <trkpt lat="36.790276961401105" lon="-4.972734041512013">
        <ele>712.95000000000005</ele>
        <time>2025-05-09T10:50:29Z</time>
      </trkpt>
      <trkpt lat="36.790352985262871" lon="-4.972604960203171">
        <ele>711.99000000000001</ele>
        <time>2025-05-09T10:50:30Z</time>
      </trkpt>
      <trkpt lat="36.790424985811114" lon="-4.972500018775463">
        <ele>710.54999999999995</ele>
        <time>2025-05-09T10:50:31Z</time>
      </trkpt>
      <trkpt lat="36.790515007451177" lon="-4.97238501906395">
        <ele>709.11000000000001</ele>
        <time>2025-05-09T10:50:32Z</time>
      </trkpt>
      <trkpt lat="36.79064903408289" lon="-4.972346965223551">
        <ele>707.66999999999996</ele>
        <time>2025-05-09T10:50:33Z</time>
      </trkpt>
      <trkpt lat="36.790752969682217" lon="-4.972382001578808">
        <ele>706.23000000000002</ele>
        <time>2025-05-09T10:50:34Z</time>
      </trkpt>
      <trkpt lat="36.790869981050491" lon="-4.972435981035233">
        <ele>705.25999999999999</ele>
        <time>2025-05-09T10:50:35Z</time>
      </trkpt>
      <trkpt lat="36.790970982983708" lon="-4.972509993240237">
        <ele>704.29999999999995</ele>
        <time>2025-05-09T10:50:36Z</time>
      </trkpt>
      <trkpt lat="36.791081037372351" lon="-4.972590962424874">
        <ele>703.82000000000005</ele>
        <time>2025-05-09T10:50:37Z</time>
      </trkpt>
      <trkpt lat="36.792082004249096" lon="-4.973326977342367">
        <ele>695.16999999999996</ele>
        <time>2025-05-09T10:50:44Z</time>
      </trkpt>
      <trkpt lat="36.792197003960609" lon="-4.973410964012146">
        <ele>694.21000000000004</ele>
        <time>2025-05-09T10:50:45Z</time>
      </trkpt>
      <trkpt lat="36.792305968701839" lon="-4.97339797206223">
        <ele>693.25</ele>
        <time>2025-05-09T10:50:46Z</time>
      </trkpt>
      <trkpt lat="36.792395990341902" lon="-4.973381962627173">
        <ele>692.28999999999996</ele>
        <time>2025-05-09T10:50:47Z</time>
      </trkpt>
      <trkpt lat="36.792475031688809" lon="-4.973306022584438">
        <ele>691.80999999999995</ele>
        <time>2025-05-09T10:50:48Z</time>
      </trkpt>
      <trkpt lat="36.792530016973615" lon="-4.973180964589119">
        <ele>690.84000000000003</ele>
        <time>2025-05-09T10:50:49Z</time>
      </trkpt>
      <trkpt lat="36.792558012530208" lon="-4.973022965714335">
        <ele>689.88</ele>
        <time>2025-05-09T10:50:50Z</time>
      </trkpt>
      <trkpt lat="36.792588019743562" lon="-4.972851974889636">
        <ele>688.44000000000005</ele>
        <time>2025-05-09T10:50:51Z</time>
      </trkpt>
      <trkpt lat="36.792620038613677" lon="-4.97266598045826">
        <ele>687.96000000000004</ele>
        <time>2025-05-09T10:50:52Z</time>
      </trkpt>
      <trkpt lat="36.792651973664761" lon="-4.972485015168786">
        <ele>686.51999999999998</ele>
        <time>2025-05-09T10:50:53Z</time>
      </trkpt>
      <trkpt lat="36.79267100058496" lon="-4.972312012687326">
        <ele>685.55999999999995</ele>
        <time>2025-05-09T10:50:54Z</time>
      </trkpt>
      <trkpt lat="36.792644010856748" lon="-4.972164994105697">
        <ele>684.60000000000002</ele>
        <time>2025-05-09T10:50:55Z</time>
      </trkpt>
      <trkpt lat="36.792616015300155" lon="-4.972016969695687">
        <ele>683.63</ele>
        <time>2025-05-09T10:50:56Z</time>
      </trkpt>
      <trkpt lat="36.792588019743562" lon="-4.971862994134426">
        <ele>682.66999999999996</ele>
        <time>2025-05-09T10:50:57Z</time>
      </trkpt>
      <trkpt lat="36.792580978944898" lon="-4.971714969724417">
        <ele>681.71000000000004</ele>
        <time>2025-05-09T10:50:58Z</time>
      </trkpt>
      <trkpt lat="36.792618026956916" lon="-4.971556970849633">
        <ele>680.75</ele>
        <time>2025-05-09T10:50:59Z</time>
      </trkpt>
      <trkpt lat="36.792659014463425" lon="-4.971390003338456">
        <ele>679.78999999999996</ele>
        <time>2025-05-09T10:51:00Z</time>
      </trkpt>
      <trkpt lat="36.792724980041385" lon="-4.971230998635292">
        <ele>678.83000000000004</ele>
        <time>2025-05-09T10:51:01Z</time>
      </trkpt>
      <trkpt lat="36.792787006124854" lon="-4.971080962568522">
        <ele>678.35000000000002</ele>
        <time>2025-05-09T10:51:02Z</time>
      </trkpt>
      <trkpt lat="36.792806033045053" lon="-4.970934027805924">
        <ele>677.38999999999999</ele>
        <time>2025-05-09T10:51:03Z</time>
      </trkpt>
      <trkpt lat="36.792806033045053" lon="-4.970800001174212">
        <ele>676.41999999999996</ele>
        <time>2025-05-09T10:51:04Z</time>
      </trkpt>
      <trkpt lat="36.792735960334539" lon="-4.97071199119091">
        <ele>676.90999999999997</ele>
        <time>2025-05-09T10:51:05Z</time>
      </trkpt>
      <trkpt lat="36.792646022513509" lon="-4.97062599286437">
        <ele>675.94000000000005</ele>
        <time>2025-05-09T10:51:06Z</time>
      </trkpt>
      <trkpt lat="36.792548038065434" lon="-4.970533037558198">
        <ele>675.94000000000005</ele>
        <time>2025-05-09T10:51:07Z</time>
      </trkpt>
      <trkpt lat="36.792457010596991" lon="-4.970447039231658">
        <ele>674.5</ele>
        <time>2025-05-09T10:51:08Z</time>
      </trkpt>
      <trkpt lat="36.792387021705508" lon="-4.970341008156538">
        <ele>673.53999999999996</ele>
        <time>2025-05-09T10:51:09Z</time>
      </trkpt>
      <trkpt lat="36.792355002835393" lon="-4.970198012888432">
        <ele>673.05999999999995</ele>
        <time>2025-05-09T10:51:10Z</time>
      </trkpt>
      <trkpt lat="36.792342010885477" lon="-4.970028027892113">
        <ele>671.62</ele>
        <time>2025-05-09T10:51:11Z</time>
      </trkpt>
      <trkpt lat="36.792328013107181" lon="-4.969841027632356">
        <ele>670.17999999999995</ele>
        <time>2025-05-09T10:51:12Z</time>
      </trkpt>
      <trkpt lat="36.792313009500504" lon="-4.969655033200979">
        <ele>668.73000000000002</ele>
        <time>2025-05-09T10:51:13Z</time>
      </trkpt>
      <trkpt lat="36.792278978973627" lon="-4.969490999355912">
        <ele>667.76999999999998</ele>
        <time>2025-05-09T10:51:14Z</time>
      </trkpt>
      <trkpt lat="36.792191974818707" lon="-4.969368958845735">
        <ele>666.80999999999995</ele>
        <time>2025-05-09T10:51:15Z</time>
      </trkpt>
      <trkpt lat="36.792086027562618" lon="-4.969264017418027">
        <ele>665.37</ele>
        <time>2025-05-09T10:51:16Z</time>
      </trkpt>
      <trkpt lat="36.791968010365963" lon="-4.969200985506177">
        <ele>663.92999999999995</ele>
        <time>2025-05-09T10:51:17Z</time>
      </trkpt>
      <trkpt lat="36.791827026754618" lon="-4.969149017706513">
        <ele>662.49000000000001</ele>
        <time>2025-05-09T10:51:18Z</time>
      </trkpt>
      <trkpt lat="36.791685037314892" lon="-4.969097971916199">
        <ele>660.55999999999995</ele>
        <time>2025-05-09T10:51:19Z</time>
      </trkpt>
      <trkpt lat="36.79155302233994" lon="-4.969036029651761">
        <ele>659.12</ele>
        <time>2025-05-09T10:51:20Z</time>
      </trkpt>
      <trkpt lat="36.791455037891865" lon="-4.968953970819712">
        <ele>657.67999999999995</ele>
        <time>2025-05-09T10:51:21Z</time>
      </trkpt>
      <trkpt lat="36.791397035121918" lon="-4.968825979158282">
        <ele>656.24000000000001</ele>
        <time>2025-05-09T10:51:22Z</time>
      </trkpt>
      <trkpt lat="36.791356969624758" lon="-4.968693964183331">
        <ele>654.79999999999995</ele>
        <time>2025-05-09T10:51:23Z</time>
      </trkpt>
      <trkpt lat="36.791331991553307" lon="-4.968533031642437">
        <ele>653.83000000000004</ele>
        <time>2025-05-09T10:51:24Z</time>
      </trkpt>
      <trkpt lat="36.791303995996714" lon="-4.968352988362312">
        <ele>652.38999999999999</ele>
        <time>2025-05-09T10:51:25Z</time>
      </trkpt>
      <trkpt lat="36.791303995996714" lon="-4.968157019466162">
        <ele>651.42999999999995</ele>
        <time>2025-05-09T10:51:26Z</time>
      </trkpt>
      <trkpt lat="36.791303995996714" lon="-4.967171978205442">
        <ele>646.62</ele>
        <time>2025-05-09T10:51:31Z</time>
      </trkpt>
      <trkpt lat="36.791350012645125" lon="-4.96697299182415">
        <ele>645.65999999999997</ele>
        <time>2025-05-09T10:51:32Z</time>
      </trkpt>
      <trkpt lat="36.791386976838112" lon="-4.966817004606128">
        <ele>644.70000000000005</ele>
        <time>2025-05-09T10:51:33Z</time>
      </trkpt>
      <trkpt lat="36.791457971557975" lon="-4.966709967702627">
        <ele>644.22000000000003</ele>
        <time>2025-05-09T10:51:34Z</time>
      </trkpt>
      <trkpt lat="36.791540030390024" lon="-4.966593040153384">
        <ele>643.25999999999999</ele>
        <time>2025-05-09T10:51:35Z</time>
      </trkpt>
      <trkpt lat="36.791665004566312" lon="-4.96650000102818">
        <ele>642.29999999999995</ele>
        <time>2025-05-09T10:51:36Z</time>
      </trkpt>
      <trkpt lat="36.791799031198025" lon="-4.966400004923344">
        <ele>641.82000000000005</ele>
        <time>2025-05-09T10:51:37Z</time>
      </trkpt>
      <trkpt lat="36.792227011173964" lon="-4.966032039374113">
        <ele>637.97000000000003</ele>
        <time>2025-05-09T10:51:41Z</time>
      </trkpt>
      <trkpt lat="36.79226397536695" lon="-4.965921984985471">
        <ele>637.00999999999999</ele>
        <time>2025-05-09T10:51:42Z</time>
      </trkpt>
      <trkpt lat="36.792230028659105" lon="-4.965810002759099">
        <ele>636.04999999999995</ele>
        <time>2025-05-09T10:51:43Z</time>
      </trkpt>
      <trkpt lat="36.792175965383649" lon="-4.965676981955767">
        <ele>636.52999999999997</ele>
        <time>2025-05-09T10:51:44Z</time>
      </trkpt>
      <trkpt lat="36.792120980098844" lon="-4.965540021657944">
        <ele>635.57000000000005</ele>
        <time>2025-05-09T10:51:45Z</time>
      </trkpt>
      <trkpt lat="36.792062977328897" lon="-4.965399038046598">
        <ele>635.09000000000003</ele>
        <time>2025-05-09T10:51:46Z</time>
      </trkpt>
      <trkpt lat="36.792003968730569" lon="-4.96525201946497">
        <ele>634.13</ele>
        <time>2025-05-09T10:51:47Z</time>
      </trkpt>
      <trkpt lat="36.791797019541264" lon="-4.964505024254322">
        <ele>630.27999999999997</ele>
        <time>2025-05-09T10:51:52Z</time>
      </trkpt>
      <trkpt lat="36.791797019541264" lon="-4.964377032592893">
        <ele>629.79999999999995</ele>
        <time>2025-05-09T10:51:53Z</time>
      </trkpt>
      <trkpt lat="36.791815040633082" lon="-4.964264966547489">
        <ele>628.84000000000003</ele>
        <time>2025-05-09T10:51:54Z</time>
      </trkpt>
      <trkpt lat="36.791843036189675" lon="-4.964143009856343">
        <ele>628.36000000000001</ele>
        <time>2025-05-09T10:51:55Z</time>
      </trkpt>
      <trkpt lat="36.791873965412378" lon="-4.964012000709772">
        <ele>627.88</ele>
        <time>2025-05-09T10:51:56Z</time>
      </trkpt>
      <trkpt lat="36.791943032294512" lon="-4.963550996035337">
        <ele>624.99000000000001</ele>
        <time>2025-05-09T10:51:59Z</time>
      </trkpt>
      <trkpt lat="36.791938003152609" lon="-4.963385034352541">
        <ele>624.50999999999999</ele>
        <time>2025-05-09T10:52:00Z</time>
      </trkpt>
      <trkpt lat="36.791932974010706" lon="-4.963218988850713">
        <ele>623.54999999999995</ele>
        <time>2025-05-09T10:52:01Z</time>
      </trkpt>
      <trkpt lat="36.791928028687835" lon="-4.963045986369252">
        <ele>622.59000000000003</ele>
        <time>2025-05-09T10:52:02Z</time>
      </trkpt>
      <trkpt lat="36.791930962353945" lon="-4.962865021079779">
        <ele>621.63</ele>
        <time>2025-05-09T10:52:03Z</time>
      </trkpt>
      <trkpt lat="36.791942026466131" lon="-4.96267500333488">
        <ele>620.66999999999996</ele>
        <time>2025-05-09T10:52:04Z</time>
      </trkpt>
      <trkpt lat="36.791952000930905" lon="-4.962484985589981">
        <ele>619.71000000000004</ele>
        <time>2025-05-09T10:52:05Z</time>
      </trkpt>
      <trkpt lat="36.791961975395679" lon="-4.962301002815366">
        <ele>619.23000000000002</ele>
        <time>2025-05-09T10:52:06Z</time>
      </trkpt>
      <trkpt lat="36.791961975395679" lon="-4.962120037525892">
        <ele>618.75</ele>
        <time>2025-05-09T10:52:07Z</time>
      </trkpt>
      <trkpt lat="36.791936997324228" lon="-4.961936976760626">
        <ele>618.75</ele>
        <time>2025-05-09T10:52:08Z</time>
      </trkpt>
      <trkpt lat="36.791890980675817" lon="-4.961748970672488">
        <ele>618.25999999999999</ele>
        <time>2025-05-09T10:52:09Z</time>
      </trkpt>
      <trkpt lat="36.791828032582998" lon="-4.961565993726254">
        <ele>618.25999999999999</ele>
        <time>2025-05-09T10:52:10Z</time>
      </trkpt>
      <trkpt lat="36.791668022051454" lon="-4.961068024858832">
        <ele>616.82000000000005</ele>
        <time>2025-05-09T10:52:13Z</time>
      </trkpt>
      <trkpt lat="36.791668022051454" lon="-4.960937015712261">
        <ele>616.82000000000005</ele>
        <time>2025-05-09T10:52:14Z</time>
      </trkpt>
      <trkpt lat="36.791705992072821" lon="-4.960818998515606">
        <ele>616.34000000000003</ele>
        <time>2025-05-09T10:52:15Z</time>
      </trkpt>
      <trkpt lat="36.791759971529245" lon="-4.960692012682557">
        <ele>615.86000000000001</ele>
        <time>2025-05-09T10:52:16Z</time>
      </trkpt>
      <trkpt lat="36.791816968470812" lon="-4.960558991879225">
        <ele>615.38</ele>
        <time>2025-05-09T10:52:17Z</time>
      </trkpt>
      <trkpt lat="36.791863990947604" lon="-4.960431000217795">
        <ele>614.89999999999998</ele>
        <time>2025-05-09T10:52:18Z</time>
      </trkpt>
      <trkpt lat="36.791877988725901" lon="-4.960285993292928">
        <ele>613.94000000000005</ele>
        <time>2025-05-09T10:52:19Z</time>
      </trkpt>
      <trkpt lat="36.791858961805701" lon="-4.96013998053968">
        <ele>612.98000000000002</ele>
        <time>2025-05-09T10:52:20Z</time>
      </trkpt>
      <trkpt lat="36.791820991784334" lon="-4.959978964179754">
        <ele>612.01999999999998</ele>
        <time>2025-05-09T10:52:21Z</time>
      </trkpt>
      <trkpt lat="36.791773969307542" lon="-4.959831023588777">
        <ele>611.05999999999995</ele>
        <time>2025-05-09T10:52:22Z</time>
      </trkpt>
      <trkpt lat="36.791703980416059" lon="-4.959690039977431">
        <ele>610.57000000000005</ele>
        <time>2025-05-09T10:52:23Z</time>
      </trkpt>
      <trkpt lat="36.7916189879179" lon="-4.959569005295634">
        <ele>609.61000000000001</ele>
        <time>2025-05-09T10:52:24Z</time>
      </trkpt>
      <trkpt lat="36.791503988206387" lon="-4.959455011412501">
        <ele>608.64999999999998</ele>
        <time>2025-05-09T10:52:25Z</time>
      </trkpt>
      <trkpt lat="36.791384965181351" lon="-4.959335988387466">
        <ele>607.69000000000005</ele>
        <time>2025-05-09T10:52:26Z</time>
      </trkpt>
      <trkpt lat="36.791260996833444" lon="-4.959211014211178">
        <ele>606.25</ele>
        <time>2025-05-09T10:52:27Z</time>
      </trkpt>
      <trkpt lat="36.791126970201731" lon="-4.959144964814186">
        <ele>605.28999999999996</ele>
        <time>2025-05-09T10:52:28Z</time>
      </trkpt>
      <trkpt lat="36.790983974933624" lon="-4.959101965650916">
        <ele>603.85000000000002</ele>
        <time>2025-05-09T10:52:29Z</time>
      </trkpt>
      <trkpt lat="36.79084500297904" lon="-4.959071036428213">
        <ele>602.88</ele>
        <time>2025-05-09T10:52:30Z</time>
      </trkpt>
      <trkpt lat="36.790725979954004" lon="-4.95904496870935">
        <ele>601.91999999999996</ele>
        <time>2025-05-09T10:52:31Z</time>
      </trkpt>
      <trkpt lat="36.790636964142323" lon="-4.958965005353093">
        <ele>600.48000000000002</ele>
        <time>2025-05-09T10:52:32Z</time>
      </trkpt>
      <trkpt lat="36.790567981079221" lon="-4.958887975662947">
        <ele>600</ele>
        <time>2025-05-09T10:52:33Z</time>
      </trkpt>
      <trkpt lat="36.790519030764699" lon="-4.958779010921717">
        <ele>598.55999999999995</ele>
        <time>2025-05-09T10:52:34Z</time>
      </trkpt>
      <trkpt lat="36.790493968874216" lon="-4.958643978461623">
        <ele>597.60000000000002</ele>
        <time>2025-05-09T10:52:35Z</time>
      </trkpt>
      <trkpt lat="36.790488017722964" lon="-4.958499977365136">
        <ele>596.63999999999999</ele>
        <time>2025-05-09T10:52:36Z</time>
      </trkpt>
      <trkpt lat="36.790488017722964" lon="-4.958375003188849">
        <ele>595.66999999999996</ele>
        <time>2025-05-09T10:52:37Z</time>
      </trkpt>
      <trkpt lat="36.79052297025919" lon="-4.958193032070994">
        <ele>594.71000000000004</ele>
        <time>2025-05-09T10:52:38Z</time>
      </trkpt>
      <trkpt lat="36.790554989129305" lon="-4.958024974912405">
        <ele>593.26999999999998</ele>
        <time>2025-05-09T10:52:39Z</time>
      </trkpt>
      <trkpt lat="36.790647022426128" lon="-4.957543015480042">
        <ele>589.42999999999995</ele>
        <time>2025-05-09T10:52:42Z</time>
      </trkpt>
      <trkpt lat="36.790641993284225" lon="-4.957386022433639">
        <ele>588.46000000000004</ele>
        <time>2025-05-09T10:52:43Z</time>
      </trkpt>
      <trkpt lat="36.790607040748" lon="-4.957237998023629">
        <ele>587.01999999999998</ele>
        <time>2025-05-09T10:52:44Z</time>
      </trkpt>
      <trkpt lat="36.790546020492911" lon="-4.957103971391916">
        <ele>586.05999999999995</ele>
        <time>2025-05-09T10:52:45Z</time>
      </trkpt>
      <trkpt lat="36.790485000237823" lon="-4.956971034407616">
        <ele>584.62</ele>
        <time>2025-05-09T10:52:46Z</time>
      </trkpt>
      <trkpt lat="36.790429009124637" lon="-4.956848993897438">
        <ele>583.65999999999997</ele>
        <time>2025-05-09T10:52:47Z</time>
      </trkpt>
      <trkpt lat="36.790380980819464" lon="-4.956743968650699">
        <ele>582.70000000000005</ele>
        <time>2025-05-09T10:52:48Z</time>
      </trkpt>
      <trkpt lat="36.790380980819464" lon="-4.95663701556623">
        <ele>581.73000000000002</ele>
        <time>2025-05-09T10:52:49Z</time>
      </trkpt>
      <trkpt lat="36.790400007739663" lon="-4.956541964784265">
        <ele>581.25</ele>
        <time>2025-05-09T10:52:50Z</time>
      </trkpt>
      <trkpt lat="36.790450969710946" lon="-4.956459989771247">
        <ele>579.80999999999995</ele>
        <time>2025-05-09T10:52:51Z</time>
      </trkpt>
      <trkpt lat="36.790505032986403" lon="-4.956385977566242">
        <ele>578.85000000000002</ele>
        <time>2025-05-09T10:52:52Z</time>
      </trkpt>
      <trkpt lat="36.790577033534646" lon="-4.956325041130185">
        <ele>577.88999999999999</ele>
        <time>2025-05-09T10:52:53Z</time>
      </trkpt>
      <trkpt lat="36.790651967749" lon="-4.956262009218335">
        <ele>577.40999999999997</ele>
        <time>2025-05-09T10:52:54Z</time>
      </trkpt>
      <trkpt lat="36.790725979954004" lon="-4.956199983134866">
        <ele>576.45000000000005</ele>
        <time>2025-05-09T10:52:55Z</time>
      </trkpt>
      <trkpt lat="36.79077903740108" lon="-4.956118008121848">
        <ele>575.49000000000001</ele>
        <time>2025-05-09T10:52:56Z</time>
      </trkpt>
      <trkpt lat="36.790806027129292" lon="-4.956010971218348">
        <ele>574.52999999999997</ele>
        <time>2025-05-09T10:52:57Z</time>
      </trkpt>
      <trkpt lat="36.790833016857505" lon="-4.955898988991976">
        <ele>573.55999999999995</ele>
        <time>2025-05-09T10:52:58Z</time>
      </trkpt>
      <trkpt lat="36.790861012414098" lon="-4.955784995108843">
        <ele>572.60000000000002</ele>
        <time>2025-05-09T10:52:59Z</time>
      </trkpt>
      <trkpt lat="36.79088699631393" lon="-4.955676030367613">
        <ele>571.63999999999999</ele>
        <time>2025-05-09T10:53:00Z</time>
      </trkpt>
      <trkpt lat="36.790911974385381" lon="-4.955566981807351">
        <ele>570.67999999999995</ele>
        <time>2025-05-09T10:53:01Z</time>
      </trkpt>
      <trkpt lat="36.790938964113593" lon="-4.955452987924218">
        <ele>569.24000000000001</ele>
        <time>2025-05-09T10:53:02Z</time>
      </trkpt>
      <trkpt lat="36.790965031832457" lon="-4.955341005697846">
        <ele>568.27999999999997</ele>
        <time>2025-05-09T10:53:03Z</time>
      </trkpt>
      <trkpt lat="36.790990009903908" lon="-4.955234974622726">
        <ele>567.32000000000005</ele>
        <time>2025-05-09T10:53:04Z</time>
      </trkpt>
      <trkpt lat="36.791065027937293" lon="-4.954915959388018">
        <ele>565.38999999999999</ele>
        <time>2025-05-09T10:53:07Z</time>
      </trkpt>
      <trkpt lat="36.791346995159984" lon="-4.953739978373051">
        <ele>559.13999999999999</ele>
        <time>2025-05-09T10:53:18Z</time>
      </trkpt>
      <trkpt lat="36.791407009586692" lon="-4.95345700532198">
        <ele>559.13999999999999</ele>
        <time>2025-05-09T10:53:21Z</time>
      </trkpt>
      <trkpt lat="36.791423019021749" lon="-4.953259024769068">
        <ele>558.65999999999997</ele>
        <time>2025-05-09T10:53:23Z</time>
      </trkpt>
      <trkpt lat="36.791431987658143" lon="-4.953117035329342">
        <ele>558.65999999999997</ele>
        <time>2025-05-09T10:53:24Z</time>
      </trkpt>
      <trkpt lat="36.791413966566324" lon="-4.953064983710647">
        <ele>558.17999999999995</ele>
        <time>2025-05-09T10:53:25Z</time>
      </trkpt>
      <trkpt lat="36.791346995159984" lon="-4.952879995107651">
        <ele>557.70000000000005</ele>
        <time>2025-05-09T10:53:27Z</time>
      </trkpt>
      <trkpt lat="36.791152032092214" lon="-4.952338021248579">
        <ele>555.29999999999995</ele>
        <time>2025-05-09T10:53:32Z</time>
      </trkpt>
      <trkpt lat="36.791113978251815" lon="-4.952226039022207">
        <ele>554.34000000000003</ele>
        <time>2025-05-09T10:53:33Z</time>
      </trkpt>
      <trkpt lat="36.79108296521008" lon="-4.952134005725384">
        <ele>553.86000000000001</ele>
        <time>2025-05-09T10:53:34Z</time>
      </trkpt>
      <trkpt lat="36.791053041815758" lon="-4.95204096660018">
        <ele>552.89999999999998</ele>
        <time>2025-05-09T10:53:35Z</time>
      </trkpt>
      <trkpt lat="36.791019011288881" lon="-4.951928984373808">
        <ele>552.40999999999997</ele>
        <time>2025-05-09T10:53:36Z</time>
      </trkpt>
      <trkpt lat="36.790782976895571" lon="-4.951079981401563">
        <ele>548.09000000000003</ele>
        <time>2025-05-09T10:53:44Z</time>
      </trkpt>
      <trkpt lat="36.790653979405761" lon="-4.950662981718779">
        <ele>545.69000000000005</ele>
        <time>2025-05-09T10:53:49Z</time>
      </trkpt>
      <trkpt lat="36.790634030476213" lon="-4.950606990605593">
        <ele>544.72000000000003</ele>
        <time>2025-05-09T10:53:50Z</time>
      </trkpt>
      <trkpt lat="36.790455998852849" lon="-4.95027800090611">
        <ele>540.39999999999998</ele>
        <time>2025-05-09T10:53:58Z</time>
      </trkpt>
      <trkpt lat="36.790433032438159" lon="-4.950242964550853">
        <ele>540.39999999999998</ele>
        <time>2025-05-09T10:53:59Z</time>
      </trkpt>
      <trkpt lat="36.790417023003101" lon="-4.950216980651021">
        <ele>540.39999999999998</ele>
        <time>2025-05-09T10:54:00Z</time>
      </trkpt>
      <trkpt lat="36.790358014404774" lon="-4.950124025344849">
        <ele>539.91999999999996</ele>
        <time>2025-05-09T10:54:03Z</time>
      </trkpt>
      <trkpt lat="36.790362959727645" lon="-4.950067028403282">
        <ele>540.39999999999998</ele>
        <time>2025-05-09T10:54:04Z</time>
      </trkpt>
      <trkpt lat="36.790377041324973" lon="-4.950053030624986">
        <ele>540.39999999999998</ele>
        <time>2025-05-09T10:54:05Z</time>
      </trkpt>
      <trkpt lat="36.790395984426141" lon="-4.950034003704786">
        <ele>540.39999999999998</ele>
        <time>2025-05-09T10:54:06Z</time>
      </trkpt>
      <trkpt lat="36.790417023003101" lon="-4.950012965127826">
        <ele>540.39999999999998</ele>
        <time>2025-05-09T10:54:07Z</time>
      </trkpt>
      <trkpt lat="36.790442001074553" lon="-4.949987987056375">
        <ele>539.91999999999996</ele>
        <time>2025-05-09T10:54:08Z</time>
      </trkpt>
      <trkpt lat="36.790468990802765" lon="-4.949960997328162">
        <ele>539.91999999999996</ele>
        <time>2025-05-09T10:54:09Z</time>
      </trkpt>
      <trkpt lat="36.790527999401093" lon="-4.949724962934852">
        <ele>539.44000000000005</ele>
        <time>2025-05-09T10:54:14Z</time>
      </trkpt>
      <trkpt lat="36.79060603491962" lon="-4.949715994298458">
        <ele>539.44000000000005</ele>
        <time>2025-05-09T10:54:15Z</time>
      </trkpt>
      <trkpt lat="36.790634030476213" lon="-4.949733009561896">
        <ele>539.91999999999996</ele>
        <time>2025-05-09T10:54:16Z</time>
      </trkpt>
      <trkpt lat="36.79065297357738" lon="-4.949799980968237">
        <ele>539.91999999999996</ele>
        <time>2025-05-09T10:54:17Z</time>
      </trkpt>
      <trkpt lat="36.79064903408289" lon="-4.949826970696449">
        <ele>539.91999999999996</ele>
        <time>2025-05-09T10:54:18Z</time>
      </trkpt>
      <trkpt lat="36.790644004940987" lon="-4.949857983738184">
        <ele>539.91999999999996</ele>
        <time>2025-05-09T10:54:19Z</time>
      </trkpt>
      <trkpt lat="36.790639981627464" lon="-4.949890002608299">
        <ele>539.91999999999996</ele>
        <time>2025-05-09T10:54:20Z</time>
      </trkpt>
      <trkpt lat="36.790658002719283" lon="-4.949982035905123">
        <ele>540.39999999999998</ele>
        <time>2025-05-09T10:54:31Z</time>
      </trkpt>
      <trkpt lat="36.790723968297243" lon="-4.950268026441336">
        <ele>542.32000000000005</ele>
        <time>2025-05-09T10:54:42Z</time>
      </trkpt>
      <trkpt lat="36.790742995217443" lon="-4.950354024767876">
        <ele>543.75999999999999</ele>
        <time>2025-05-09T10:54:55Z</time>
      </trkpt>
      <trkpt lat="36.790742995217443" lon="-4.950354024767876">
        <ele>543.75999999999999</ele>
        <time>2025-05-09T10:54:58Z</time>
      </trkpt>
      <trkpt lat="36.790736960247159" lon="-4.950325023382902">
        <ele>544.24000000000001</ele>
        <time>2025-05-09T10:55:01Z</time>
      </trkpt>
      <trkpt lat="36.790730003267527" lon="-4.950295016169548">
        <ele>544.24000000000001</ele>
        <time>2025-05-09T10:55:02Z</time>
      </trkpt>
      <trkpt lat="36.790613997727633" lon="-4.949898971244693">
        <ele>546.16999999999996</ele>
        <time>2025-05-09T10:55:13Z</time>
      </trkpt>
      <trkpt lat="36.790594970807433" lon="-4.949898971244693">
        <ele>546.16999999999996</ele>
        <time>2025-05-09T10:55:14Z</time>
      </trkpt>
      <trkpt lat="36.790577033534646" lon="-4.949898971244693">
        <ele>546.64999999999998</ele>
        <time>2025-05-09T10:55:15Z</time>
      </trkpt>
      <trkpt lat="36.790561024099588" lon="-4.949898971244693">
        <ele>546.64999999999998</ele>
        <time>2025-05-09T10:55:16Z</time>
      </trkpt>
      <trkpt lat="36.790546020492911" lon="-4.949898971244693">
        <ele>546.64999999999998</ele>
        <time>2025-05-09T10:55:17Z</time>
      </trkpt>
      <trkpt lat="36.790466979146004" lon="-4.949963008984923">
        <ele>547.13</ele>
        <time>2025-05-09T10:55:20Z</time>
      </trkpt>
      <trkpt lat="36.790530011057854" lon="-4.949896959587932">
        <ele>547.61000000000001</ele>
        <time>2025-05-09T10:55:21Z</time>
      </trkpt>
      <trkpt lat="36.790518024936318" lon="-4.949866030365229">
        <ele>547.61000000000001</ele>
        <time>2025-05-09T10:55:22Z</time>
      </trkpt>
      <trkpt lat="36.790503021329641" lon="-4.94982797652483">
        <ele>548.09000000000003</ele>
        <time>2025-05-09T10:55:23Z</time>
      </trkpt>
      <trkpt lat="36.790488017722964" lon="-4.949791012331843">
        <ele>548.09000000000003</ele>
        <time>2025-05-09T10:55:24Z</time>
      </trkpt>
      <trkpt lat="36.790496986359358" lon="-4.949777014553547">
        <ele>548.09000000000003</ele>
        <time>2025-05-09T10:55:25Z</time>
      </trkpt>
      <trkpt lat="36.790521964430809" lon="-4.949735021218658">
        <ele>548.57000000000005</ele>
        <time>2025-05-09T10:55:26Z</time>
      </trkpt>
      <trkpt lat="36.79054300300777" lon="-4.949593031778932">
        <ele>549.04999999999995</ele>
        <time>2025-05-09T10:55:33Z</time>
      </trkpt>
      <trkpt lat="36.790505032986403" lon="-4.949280973523855">
        <ele>548.57000000000005</ele>
        <time>2025-05-09T10:55:39Z</time>
      </trkpt>
      <trkpt lat="36.79050100967288" lon="-4.949248032644391">
        <ele>548.57000000000005</ele>
        <time>2025-05-09T10:55:40Z</time>
      </trkpt>
      <trkpt lat="36.790497992187738" lon="-4.949223976582289">
        <ele>548.57000000000005</ele>
        <time>2025-05-09T10:55:41Z</time>
      </trkpt>
      <trkpt lat="36.790488017722964" lon="-4.949083998799324">
        <ele>549.04999999999995</ele>
        <time>2025-05-09T10:55:44Z</time>
      </trkpt>
      <trkpt lat="36.790488017722964" lon="-4.948970004916191">
        <ele>549.04999999999995</ele>
        <time>2025-05-09T10:55:46Z</time>
      </trkpt>
      <trkpt lat="36.790488017722964" lon="-4.948914013803005">
        <ele>549.52999999999997</ele>
        <time>2025-05-09T10:55:47Z</time>
      </trkpt>
      <trkpt lat="36.790488017722964" lon="-4.948761966079474">
        <ele>550.97000000000003</ele>
        <time>2025-05-09T10:55:54Z</time>
      </trkpt>
      <trkpt lat="36.790404031053185" lon="-4.94817104190588">
        <ele>554.82000000000005</ele>
        <time>2025-05-09T10:56:03Z</time>
      </trkpt>
      <trkpt lat="36.790381986647844" lon="-4.948114966973662">
        <ele>555.29999999999995</ele>
        <time>2025-05-09T10:56:04Z</time>
      </trkpt>
      <trkpt lat="36.790340999141335" lon="-4.948009019717574">
        <ele>556.74000000000001</ele>
        <time>2025-05-09T10:56:10Z</time>
      </trkpt>
      <trkpt lat="36.790317026898265" lon="-4.947945987805724">
        <ele>557.70000000000005</ele>
        <time>2025-05-09T10:56:11Z</time>
      </trkpt>
      <trkpt lat="36.790317026898265" lon="-4.947945987805724">
        <ele>558.17999999999995</ele>
        <time>2025-05-09T10:56:12Z</time>
      </trkpt>
      <trkpt lat="36.790317026898265" lon="-4.947945987805724">
        <ele>558.65999999999997</ele>
        <time>2025-05-09T10:56:13Z</time>
      </trkpt>
      <trkpt lat="36.790218036621809" lon="-4.947911035269499">
        <ele>559.13999999999999</ele>
        <time>2025-05-09T10:56:14Z</time>
      </trkpt>
      <trkpt lat="36.79017998278141" lon="-4.947925033047795">
        <ele>559.62</ele>
        <time>2025-05-09T10:56:15Z</time>
      </trkpt>
      <trkpt lat="36.790142012760043" lon="-4.947939030826092">
        <ele>560.11000000000001</ele>
        <time>2025-05-09T10:56:16Z</time>
      </trkpt>
      <trkpt lat="36.790004968643188" lon="-4.947989992797375">
        <ele>561.54999999999995</ele>
        <time>2025-05-09T10:56:25Z</time>
      </trkpt>
      <trkpt lat="36.789987031370401" lon="-4.947997033596039">
        <ele>562.02999999999997</ele>
        <time>2025-05-09T10:56:27Z</time>
      </trkpt>
      <trkpt lat="36.789980996400118" lon="-4.948068028315902">
        <ele>562.02999999999997</ele>
        <time>2025-05-09T10:56:28Z</time>
      </trkpt>
      <trkpt lat="36.790055008605123" lon="-4.948217980563641">
        <ele>560.59000000000003</ele>
        <time>2025-05-09T10:56:33Z</time>
      </trkpt>
      <trkpt lat="36.790065988898277" lon="-4.948270032182336">
        <ele>560.59000000000003</ele>
        <time>2025-05-09T10:56:34Z</time>
      </trkpt>
      <trkpt lat="36.790065988898277" lon="-4.948270032182336">
        <ele>560.59000000000003</ele>
        <time>2025-05-09T10:56:47Z</time>
      </trkpt>
      <trkpt lat="36.790065988898277" lon="-4.948270032182336">
        <ele>559.62</ele>
        <time>2025-05-09T10:56:49Z</time>
      </trkpt>
      <trkpt lat="36.790079986676574" lon="-4.948268020525575">
        <ele>558.65999999999997</ele>
        <time>2025-05-09T10:56:52Z</time>
      </trkpt>
      <trkpt lat="36.790143018588424" lon="-4.948343960568309">
        <ele>558.65999999999997</ele>
        <time>2025-05-09T10:56:53Z</time>
      </trkpt>
      <trkpt lat="36.790177971124649" lon="-4.94838603772223">
        <ele>558.65999999999997</ele>
        <time>2025-05-09T10:56:54Z</time>
      </trkpt>
      <trkpt lat="36.790218036621809" lon="-4.948434988036752">
        <ele>558.17999999999995</ele>
        <time>2025-05-09T10:56:55Z</time>
      </trkpt>
      <trkpt lat="36.790260029956698" lon="-4.948486033827066">
        <ele>558.17999999999995</ele>
        <time>2025-05-09T10:56:56Z</time>
      </trkpt>
      <trkpt lat="36.790429009124637" lon="-4.94868996553123">
        <ele>556.74000000000001</ele>
        <time>2025-05-09T10:57:04Z</time>
      </trkpt>
      <trkpt lat="36.790488017722964" lon="-4.948761966079474">
        <ele>556.25999999999999</ele>
        <time>2025-05-09T10:57:18Z</time>
      </trkpt>
      <trkpt lat="36.790488017722964" lon="-4.948768001049757">
        <ele>555.77999999999997</ele>
        <time>2025-05-09T10:57:19Z</time>
      </trkpt>
      <trkpt lat="36.790473014116287" lon="-4.948743022978306">
        <ele>555.77999999999997</ele>
        <time>2025-05-09T10:57:20Z</time>
      </trkpt>
      <trkpt lat="36.790488017722964" lon="-4.948896998539567">
        <ele>554.82000000000005</ele>
        <time>2025-05-09T10:57:23Z</time>
      </trkpt>
      <trkpt lat="36.790496986359358" lon="-4.949221964925528">
        <ele>552.89999999999998</ele>
        <time>2025-05-09T10:57:28Z</time>
      </trkpt>
      <trkpt lat="36.790505032986403" lon="-4.949278961867094">
        <ele>552.89999999999998</ele>
        <time>2025-05-09T10:57:29Z</time>
      </trkpt>
      <trkpt lat="36.790531016886234" lon="-4.949491024017334">
        <ele>551.92999999999995</ele>
        <time>2025-05-09T10:57:35Z</time>
      </trkpt>
      <trkpt lat="36.790535962209105" lon="-4.949533017352223">
        <ele>551.45000000000005</ele>
        <time>2025-05-09T10:57:36Z</time>
      </trkpt>
      <trkpt lat="36.790538979694247" lon="-4.949564030393958">
        <ele>551.45000000000005</ele>
        <time>2025-05-09T10:57:37Z</time>
      </trkpt>
      <trkpt lat="36.790654985234141" lon="-4.949779026210308">
        <ele>550.97000000000003</ele>
        <time>2025-05-09T10:57:42Z</time>
      </trkpt>
      <trkpt lat="36.79064903408289" lon="-4.949824037030339">
        <ele>551.45000000000005</ele>
        <time>2025-05-09T10:57:43Z</time>
      </trkpt>
      <trkpt lat="36.790644004940987" lon="-4.949861001223326">
        <ele>551.45000000000005</ele>
        <time>2025-05-09T10:57:44Z</time>
      </trkpt>
      <trkpt lat="36.790531016886234" lon="-4.949898971244693">
        <ele>551.45000000000005</ele>
        <time>2025-05-09T10:57:45Z</time>
      </trkpt>
      <trkpt lat="36.790531016886234" lon="-4.949898971244693">
        <ele>551.45000000000005</ele>
        <time>2025-05-09T10:57:46Z</time>
      </trkpt>
      <trkpt lat="36.79054400883615" lon="-4.949898971244693">
        <ele>551.45000000000005</ele>
        <time>2025-05-09T10:57:47Z</time>
      </trkpt>
      <trkpt lat="36.790517019107938" lon="-4.949912969022989">
        <ele>551.45000000000005</ele>
        <time>2025-05-09T10:57:48Z</time>
      </trkpt>
      <trkpt lat="36.790449041873217" lon="-4.949981030076742">
        <ele>552.89999999999998</ele>
        <time>2025-05-09T10:57:59Z</time>
      </trkpt>
      <trkpt lat="36.790331024676561" lon="-4.950087983161211">
        <ele>552.89999999999998</ele>
        <time>2025-05-09T10:58:02Z</time>
      </trkpt>
      <trkpt lat="36.790276039391756" lon="-4.950053030624986">
        <ele>552.89999999999998</ele>
        <time>2025-05-09T10:58:03Z</time>
      </trkpt>
      <trkpt lat="36.790206972509623" lon="-4.950010031461716">
        <ele>552.89999999999998</ele>
        <time>2025-05-09T10:58:04Z</time>
      </trkpt>
      <trkpt lat="36.789988037198782" lon="-4.949873993173242">
        <ele>551.45000000000005</ele>
        <time>2025-05-09T10:58:07Z</time>
      </trkpt>
      <trkpt lat="36.789913019165397" lon="-4.949836023151875">
        <ele>550.97000000000003</ele>
        <time>2025-05-09T10:58:08Z</time>
      </trkpt>
      <trkpt lat="36.789763988927007" lon="-4.949765028432012">
        <ele>550.00999999999999</ele>
        <time>2025-05-09T10:58:10Z</time>
      </trkpt>
      <trkpt lat="36.789519991725683" lon="-4.949671989306808">
        <ele>549.04999999999995</ele>
        <time>2025-05-09T10:58:13Z</time>
      </trkpt>
      <trkpt lat="36.788793029263616" lon="-4.949374012649059">
        <ele>546.16999999999996</ele>
        <time>2025-05-09T10:58:22Z</time>
      </trkpt>
      <trkpt lat="36.788174025714397" lon="-4.949091039597988">
        <ele>547.61000000000001</ele>
        <time>2025-05-09T10:58:28Z</time>
      </trkpt>
      <trkpt lat="36.788074029609561" lon="-4.949045022949576">
        <ele>548.09000000000003</ele>
        <time>2025-05-09T10:58:29Z</time>
      </trkpt>
      <trkpt lat="36.788002029061317" lon="-4.948942009359598">
        <ele>548.57000000000005</ele>
        <time>2025-05-09T10:58:30Z</time>
      </trkpt>
      <trkpt lat="36.787932040169835" lon="-4.948830027133226">
        <ele>549.04999999999995</ele>
        <time>2025-05-09T10:58:31Z</time>
      </trkpt>
      <trkpt lat="36.787848975509405" lon="-4.948697006329894">
        <ele>550.00999999999999</ele>
        <time>2025-05-09T10:58:32Z</time>
      </trkpt>
      <trkpt lat="36.7877939902246" lon="-4.948573959991336">
        <ele>550.97000000000003</ele>
        <time>2025-05-09T10:58:33Z</time>
      </trkpt>
      <trkpt lat="36.787135004997253" lon="-4.947299994528294">
        <ele>559.13999999999999</ele>
        <time>2025-05-09T10:58:41Z</time>
      </trkpt>
      <trkpt lat="36.785929016768932" lon="-4.94604698382318">
        <ele>567.32000000000005</ele>
        <time>2025-05-09T10:58:50Z</time>
      </trkpt>
      <trkpt lat="36.785030979663134" lon="-4.945238968357444">
        <ele>575.97000000000003</ele>
        <time>2025-05-09T10:58:56Z</time>
      </trkpt>
      <trkpt lat="36.784879015758634" lon="-4.945177026093006">
        <ele>576.92999999999995</ele>
        <time>2025-05-09T10:58:57Z</time>
      </trkpt>
      <trkpt lat="36.784729985520244" lon="-4.945130003616214">
        <ele>578.37</ele>
        <time>2025-05-09T10:58:58Z</time>
      </trkpt>
      <trkpt lat="36.784609034657478" lon="-4.945092033594847">
        <ele>579.33000000000004</ele>
        <time>2025-05-09T10:58:59Z</time>
      </trkpt>
      <trkpt lat="36.784469978883862" lon="-4.944988014176488">
        <ele>579.80999999999995</ele>
        <time>2025-05-09T10:59:00Z</time>
      </trkpt>
      <trkpt lat="36.784371994435787" lon="-4.944855999201536">
        <ele>580.76999999999998</ele>
        <time>2025-05-09T10:59:01Z</time>
      </trkpt>
      <trkpt lat="36.784274009987712" lon="-4.94469397701323">
        <ele>582.22000000000003</ele>
        <time>2025-05-09T10:59:02Z</time>
      </trkpt>
      <trkpt lat="36.784172002226114" lon="-4.944527009502053">
        <ele>583.17999999999995</ele>
        <time>2025-05-09T10:59:03Z</time>
      </trkpt>
      <trkpt lat="36.784068988636136" lon="-4.944356018677354">
        <ele>584.13999999999999</ele>
        <time>2025-05-09T10:59:04Z</time>
      </trkpt>
      <trkpt lat="36.783978966996074" lon="-4.944170024245977">
        <ele>585.10000000000002</ele>
        <time>2025-05-09T10:59:05Z</time>
      </trkpt>
      <trkpt lat="36.783932028338313" lon="-4.943953016772866">
        <ele>586.53999999999996</ele>
        <time>2025-05-09T10:59:06Z</time>
      </trkpt>
      <trkpt lat="36.783815016970038" lon="-4.943333007395268">
        <ele>590.38999999999999</ele>
        <time>2025-05-09T10:59:09Z</time>
      </trkpt>
      <trkpt lat="36.783833038061857" lon="-4.943125974386931">
        <ele>591.83000000000004</ele>
        <time>2025-05-09T10:59:10Z</time>
      </trkpt>
      <trkpt lat="36.783849969506264" lon="-4.942732024937868">
        <ele>595.19000000000005</ele>
        <time>2025-05-09T10:59:12Z</time>
      </trkpt>
      <trkpt lat="36.783835971727967" lon="-4.942538989707828">
        <ele>596.14999999999998</ele>
        <time>2025-05-09T10:59:13Z</time>
      </trkpt>
      <trkpt lat="36.78377402946353" lon="-4.942343020811677">
        <ele>597.60000000000002</ele>
        <time>2025-05-09T10:59:14Z</time>
      </trkpt>
      <trkpt lat="36.78371099755168" lon="-4.942145962268114">
        <ele>599.03999999999996</ele>
        <time>2025-05-09T10:59:15Z</time>
      </trkpt>
      <trkpt lat="36.783630028367043" lon="-4.941971031948924">
        <ele>600</ele>
        <time>2025-05-09T10:59:16Z</time>
      </trkpt>
      <trkpt lat="36.783535983413458" lon="-4.941809009760618">
        <ele>600.96000000000004</ele>
        <time>2025-05-09T10:59:17Z</time>
      </trkpt>
      <trkpt lat="36.78341000340879" lon="-4.94168302975595">
        <ele>601.91999999999996</ele>
        <time>2025-05-09T10:59:18Z</time>
      </trkpt>
      <trkpt lat="36.783270025625825" lon="-4.941572975367308">
        <ele>602.88</ele>
        <time>2025-05-09T10:59:19Z</time>
      </trkpt>
      <trkpt lat="36.783098028972745" lon="-4.941499968990684">
        <ele>603.36000000000001</ele>
        <time>2025-05-09T10:59:20Z</time>
      </trkpt>
      <trkpt lat="36.78291798569262" lon="-4.941423023119569">
        <ele>604.33000000000004</ele>
        <time>2025-05-09T10:59:21Z</time>
      </trkpt>
      <trkpt lat="36.781716020777822" lon="-4.94078197516501">
        <ele>604.80999999999995</ele>
        <time>2025-05-09T10:59:28Z</time>
      </trkpt>
      <trkpt lat="36.781101040542126" lon="-4.940390037372708">
        <ele>601.44000000000005</ele>
        <time>2025-05-09T10:59:32Z</time>
      </trkpt>
      <trkpt lat="36.78096299059689" lon="-4.940391965210438">
        <ele>600.48000000000002</ele>
        <time>2025-05-09T10:59:33Z</time>
      </trkpt>
      <trkpt lat="36.780831981450319" lon="-4.940435970202088">
        <ele>600</ele>
        <time>2025-05-09T10:59:34Z</time>
      </trkpt>
      <trkpt lat="36.780707007274032" lon="-4.94050201959908">
        <ele>599.03999999999996</ele>
        <time>2025-05-09T10:59:35Z</time>
      </trkpt>
      <trkpt lat="36.780570968985558" lon="-4.940573014318943">
        <ele>597.60000000000002</ele>
        <time>2025-05-09T10:59:36Z</time>
      </trkpt>
      <trkpt lat="36.780439959838986" lon="-4.940641997382045">
        <ele>597.12</ele>
        <time>2025-05-09T10:59:37Z</time>
      </trkpt>
      <trkpt lat="36.780312974005938" lon="-4.940632022917271">
        <ele>596.14999999999998</ele>
        <time>2025-05-09T10:59:38Z</time>
      </trkpt>
      <trkpt lat="36.780181964859366" lon="-4.94060997851193">
        <ele>595.66999999999996</ele>
        <time>2025-05-09T10:59:39Z</time>
      </trkpt>
      <trkpt lat="36.780069982632995" lon="-4.940531020984054">
        <ele>594.71000000000004</ele>
        <time>2025-05-09T10:59:40Z</time>
      </trkpt>
      <trkpt lat="36.779939979314804" lon="-4.940429013222456">
        <ele>593.26999999999998</ele>
        <time>2025-05-09T10:59:41Z</time>
      </trkpt>
      <trkpt lat="36.779806958511472" lon="-4.940323987975717">
        <ele>592.30999999999995</ele>
        <time>2025-05-09T10:59:42Z</time>
      </trkpt>
      <trkpt lat="36.779669998213649" lon="-4.940256010740995">
        <ele>590.38999999999999</ele>
        <time>2025-05-09T10:59:43Z</time>
      </trkpt>
      <trkpt lat="36.77956597879529" lon="-4.940220974385738">
        <ele>589.42999999999995</ele>
        <time>2025-05-09T10:59:44Z</time>
      </trkpt>
      <trkpt lat="36.779443016275764" lon="-4.940251987427473">
        <ele>587.98000000000002</ele>
        <time>2025-05-09T10:59:45Z</time>
      </trkpt>
      <trkpt lat="36.77932801656425" lon="-4.94030999019742">
        <ele>587.01999999999998</ele>
        <time>2025-05-09T10:59:46Z</time>
      </trkpt>
      <trkpt lat="36.779198013246059" lon="-4.940400011837483">
        <ele>585.58000000000004</ele>
        <time>2025-05-09T10:59:47Z</time>
      </trkpt>
      <trkpt lat="36.779069015756249" lon="-4.940488021820784">
        <ele>584.13999999999999</ele>
        <time>2025-05-09T10:59:48Z</time>
      </trkpt>
      <trkpt lat="36.778915962204337" lon="-4.940531020984054">
        <ele>582.70000000000005</ele>
        <time>2025-05-09T10:59:49Z</time>
      </trkpt>
      <trkpt lat="36.778755029663444" lon="-4.94056798517704">
        <ele>581.25</ele>
        <time>2025-05-09T10:59:50Z</time>
      </trkpt>
      <trkpt lat="36.778584038838744" lon="-4.940606961026788">
        <ele>580.28999999999996</ele>
        <time>2025-05-09T10:59:51Z</time>
      </trkpt>
      <trkpt lat="36.778012979775667" lon="-4.940626993775368">
        <ele>576.45000000000005</ele>
        <time>2025-05-09T10:59:54Z</time>
      </trkpt>
      <trkpt lat="36.77782204002142" lon="-4.940571002662182">
        <ele>575.97000000000003</ele>
        <time>2025-05-09T10:59:55Z</time>
      </trkpt>
      <trkpt lat="36.77763101644814" lon="-4.940515011548996">
        <ele>575.00999999999999</ele>
        <time>2025-05-09T10:59:56Z</time>
      </trkpt>
      <trkpt lat="36.777448039501905" lon="-4.940436976030469">
        <ele>574.52999999999997</ele>
        <time>2025-05-09T10:59:57Z</time>
      </trkpt>
      <trkpt lat="36.777280988171697" lon="-4.940317030996084">
        <ele>574.03999999999996</ele>
        <time>2025-05-09T10:59:58Z</time>
      </trkpt>
      <trkpt lat="36.777116032317281" lon="-4.940198007971048">
        <ele>573.55999999999995</ele>
        <time>2025-05-09T10:59:59Z</time>
      </trkpt>
      <trkpt lat="36.776956021785736" lon="-4.940078984946013">
        <ele>573.55999999999995</ele>
        <time>2025-05-09T11:00:00Z</time>
      </trkpt>
      <trkpt lat="36.776675982400775" lon="-4.939819984138012">
        <ele>574.03999999999996</ele>
        <time>2025-05-09T11:00:02Z</time>
      </trkpt>
      <trkpt lat="36.776583027094603" lon="-4.939645975828171">
        <ele>574.52999999999997</ele>
        <time>2025-05-09T11:00:03Z</time>
      </trkpt>
      <trkpt lat="36.776489987969398" lon="-4.939464004710317">
        <ele>575.00999999999999</ele>
        <time>2025-05-09T11:00:04Z</time>
      </trkpt>
      <trkpt lat="36.776211960241199" lon="-4.938919013366103">
        <ele>575.97000000000003</ele>
        <time>2025-05-09T11:00:07Z</time>
      </trkpt>
      <trkpt lat="36.776094026863575" lon="-4.938764031976461">
        <ele>575.97000000000003</ele>
        <time>2025-05-09T11:00:08Z</time>
      </trkpt>
      <trkpt lat="36.775965029373765" lon="-4.938625982031226">
        <ele>575.97000000000003</ele>
        <time>2025-05-09T11:00:09Z</time>
      </trkpt>
      <trkpt lat="36.774984011426568" lon="-4.938014019280672">
        <ele>577.40999999999997</ele>
        <time>2025-05-09T11:00:15Z</time>
      </trkpt>
      <trkpt lat="36.77468997426331" lon="-4.937917040660977">
        <ele>578.37</ele>
        <time>2025-05-09T11:00:17Z</time>
      </trkpt>
      <trkpt lat="36.77453700453043" lon="-4.937888039276004">
        <ele>579.33000000000004</ele>
        <time>2025-05-09T11:00:18Z</time>
      </trkpt>
      <trkpt lat="36.774379005655646" lon="-4.937857026234269">
        <ele>579.80999999999995</ele>
        <time>2025-05-09T11:00:19Z</time>
      </trkpt>
      <trkpt lat="36.772877974435687" lon="-4.937799023464322">
        <ele>584.13999999999999</ele>
        <time>2025-05-09T11:00:27Z</time>
      </trkpt>
      <trkpt lat="36.770974025130272" lon="-4.937447989359498">
        <ele>591.35000000000002</ele>
        <time>2025-05-09T11:00:36Z</time>
      </trkpt>
      <trkpt lat="36.768523994833231" lon="-4.936861004680395">
        <ele>611.53999999999996</ele>
        <time>2025-05-09T11:00:48Z</time>
      </trkpt>
      <trkpt lat="36.768355015665293" lon="-4.93678699247539">
        <ele>612.98000000000002</ele>
        <time>2025-05-09T11:00:49Z</time>
      </trkpt>
      <trkpt lat="36.768200034275651" lon="-4.936676016077399">
        <ele>614.41999999999996</ele>
        <time>2025-05-09T11:00:50Z</time>
      </trkpt>
      <trkpt lat="36.768058966845274" lon="-4.936556993052363">
        <ele>616.34000000000003</ele>
        <time>2025-05-09T11:00:51Z</time>
      </trkpt>
      <trkpt lat="36.767946984618902" lon="-4.936397988349199">
        <ele>617.77999999999997</ele>
        <time>2025-05-09T11:00:52Z</time>
      </trkpt>
      <trkpt lat="36.767828967422247" lon="-4.936230015009642">
        <ele>618.25999999999999</ele>
        <time>2025-05-09T11:00:53Z</time>
      </trkpt>
      <trkpt lat="36.767757972702384" lon="-4.936058018356562">
        <ele>619.71000000000004</ele>
        <time>2025-05-09T11:00:54Z</time>
      </trkpt>
      <trkpt lat="36.767679015174508" lon="-4.935865988954902">
        <ele>621.14999999999998</ele>
        <time>2025-05-09T11:00:55Z</time>
      </trkpt>
      <trkpt lat="36.767364023253322" lon="-4.935115976259112">
        <ele>624.02999999999997</ele>
        <time>2025-05-09T11:00:59Z</time>
      </trkpt>
      <trkpt lat="36.767258998006582" lon="-4.934969963505864">
        <ele>624.50999999999999</ele>
        <time>2025-05-09T11:01:00Z</time>
      </trkpt>
      <trkpt lat="36.767141986638308" lon="-4.934813976287842">
        <ele>624.50999999999999</ele>
        <time>2025-05-09T11:01:01Z</time>
      </trkpt>
      <trkpt lat="36.767022041603923" lon="-4.934724038466811">
        <ele>624.99000000000001</ele>
        <time>2025-05-09T11:01:02Z</time>
      </trkpt>
      <trkpt lat="36.766894971951842" lon="-4.934627981856465">
        <ele>625.47000000000003</ele>
        <time>2025-05-09T11:01:03Z</time>
      </trkpt>
      <trkpt lat="36.766767986118793" lon="-4.934534020721912">
        <ele>625.96000000000004</ele>
        <time>2025-05-09T11:01:04Z</time>
      </trkpt>
      <trkpt lat="36.76577003672719" lon="-4.933844022452831">
        <ele>630.27999999999997</ele>
        <time>2025-05-09T11:01:12Z</time>
      </trkpt>
      <trkpt lat="36.765675991773605" lon="-4.933738997206092">
        <ele>630.75999999999999</ele>
        <time>2025-05-09T11:01:13Z</time>
      </trkpt>
      <trkpt lat="36.76559804007411" lon="-4.933621985837817">
        <ele>631.72000000000003</ele>
        <time>2025-05-09T11:01:14Z</time>
      </trkpt>
      <trkpt lat="36.765524027869105" lon="-4.933490976691246">
        <ele>632.20000000000005</ele>
        <time>2025-05-09T11:01:15Z</time>
      </trkpt>
      <trkpt lat="36.765451021492481" lon="-4.933358961716294">
        <ele>632.67999999999995</ele>
        <time>2025-05-09T11:01:16Z</time>
      </trkpt>
      <trkpt lat="36.765235019847751" lon="-4.932973980903626">
        <ele>633.16999999999996</ele>
        <time>2025-05-09T11:01:19Z</time>
      </trkpt>
      <trkpt lat="36.765146004036069" lon="-4.932883037254214">
        <ele>633.16999999999996</ele>
        <time>2025-05-09T11:01:20Z</time>
      </trkpt>
      <trkpt lat="36.765052964910865" lon="-4.932821011170745">
        <ele>633.16999999999996</ele>
        <time>2025-05-09T11:01:21Z</time>
      </trkpt>
      <trkpt lat="36.764946011826396" lon="-4.932783041149378">
        <ele>632.67999999999995</ele>
        <time>2025-05-09T11:01:22Z</time>
      </trkpt>
      <trkpt lat="36.764840986579657" lon="-4.932758985087276">
        <ele>632.67999999999995</ele>
        <time>2025-05-09T11:01:23Z</time>
      </trkpt>
      <trkpt lat="36.764732021838427" lon="-4.932779017835856">
        <ele>632.67999999999995</ele>
        <time>2025-05-09T11:01:24Z</time>
      </trkpt>
      <trkpt lat="36.764625990763307" lon="-4.932798966765404">
        <ele>632.20000000000005</ele>
        <time>2025-05-09T11:01:25Z</time>
      </trkpt>
      <trkpt lat="36.764518031850457" lon="-4.932826962321997">
        <ele>632.20000000000005</ele>
        <time>2025-05-09T11:01:26Z</time>
      </trkpt>
      <trkpt lat="36.764437984675169" lon="-4.932928970083594">
        <ele>632.20000000000005</ele>
        <time>2025-05-09T11:01:27Z</time>
      </trkpt>
      <trkpt lat="36.764361038804054" lon="-4.933042963966727">
        <ele>632.67999999999995</ele>
        <time>2025-05-09T11:01:28Z</time>
      </trkpt>
      <trkpt lat="36.764300018548965" lon="-4.933182019740343">
        <ele>632.67999999999995</ele>
        <time>2025-05-09T11:01:29Z</time>
      </trkpt>
      <trkpt lat="36.764240004122257" lon="-4.933319985866547">
        <ele>633.64999999999998</ele>
        <time>2025-05-09T11:01:30Z</time>
      </trkpt>
      <trkpt lat="36.763546988368034" lon="-4.934805007651448">
        <ele>641.34000000000003</ele>
        <time>2025-05-09T11:01:41Z</time>
      </trkpt>
      <trkpt lat="36.763465013355017" lon="-4.934920007362962">
        <ele>642.29999999999995</ele>
        <time>2025-05-09T11:01:42Z</time>
      </trkpt>
      <trkpt lat="36.763125965371728" lon="-4.935394003987312">
        <ele>644.22000000000003</ele>
        <time>2025-05-09T11:01:46Z</time>
      </trkpt>
      <trkpt lat="36.762963021174073" lon="-4.935622997581959">
        <ele>645.17999999999995</ele>
        <time>2025-05-09T11:01:48Z</time>
      </trkpt>
      <trkpt lat="36.762872999534011" lon="-4.935719976201654">
        <ele>645.65999999999997</ele>
        <time>2025-05-09T11:01:49Z</time>
      </trkpt>
      <trkpt lat="36.762775015085936" lon="-4.935823995620012">
        <ele>646.13999999999999</ele>
        <time>2025-05-09T11:01:50Z</time>
      </trkpt>
      <trkpt lat="36.761654019355774" lon="-4.936557998880744">
        <ele>653.83000000000004</ele>
        <time>2025-05-09T11:02:00Z</time>
      </trkpt>
      <trkpt lat="36.761537007987499" lon="-4.936618013307452">
        <ele>654.79999999999995</ele>
        <time>2025-05-09T11:02:01Z</time>
      </trkpt>
      <trkpt lat="36.761439023539424" lon="-4.936713986098766">
        <ele>655.27999999999997</ele>
        <time>2025-05-09T11:02:02Z</time>
      </trkpt>
      <trkpt lat="36.761351013556123" lon="-4.936825968325138">
        <ele>655.75999999999999</ele>
        <time>2025-05-09T11:02:03Z</time>
      </trkpt>
      <trkpt lat="36.761263003572822" lon="-4.936938034370542">
        <ele>656.72000000000003</ele>
        <time>2025-05-09T11:02:04Z</time>
      </trkpt>
      <trkpt lat="36.76117499358952" lon="-4.937050016596913">
        <ele>657.67999999999995</ele>
        <time>2025-05-09T11:02:05Z</time>
      </trkpt>
      <trkpt lat="36.761085977777839" lon="-4.937163004651666">
        <ele>658.15999999999997</ele>
        <time>2025-05-09T11:02:06Z</time>
      </trkpt>
      <trkpt lat="36.760994028300047" lon="-4.937263000756502">
        <ele>659.12</ele>
        <time>2025-05-09T11:02:07Z</time>
      </trkpt>
      <trkpt lat="36.760882968083024" lon="-4.9373459815979">
        <ele>660.08000000000004</ele>
        <time>2025-05-09T11:02:08Z</time>
      </trkpt>
      <trkpt lat="36.760756988078356" lon="-4.937381017953157">
        <ele>660.55999999999995</ele>
        <time>2025-05-09T11:02:09Z</time>
      </trkpt>
      <trkpt lat="36.760610975325108" lon="-4.937401972711086">
        <ele>661.51999999999998</ele>
        <time>2025-05-09T11:02:10Z</time>
      </trkpt>
      <trkpt lat="36.760432021692395" lon="-4.937383029609919">
        <ele>662.49000000000001</ele>
        <time>2025-05-09T11:02:11Z</time>
      </trkpt>
      <trkpt lat="36.760244015604258" lon="-4.937340030446649">
        <ele>663.45000000000005</ele>
        <time>2025-05-09T11:02:12Z</time>
      </trkpt>
      <trkpt lat="36.759892981499434" lon="-4.93725897744298">
        <ele>665.37</ele>
        <time>2025-05-09T11:02:14Z</time>
      </trkpt>
      <trkpt lat="36.759764989838004" lon="-4.937252020463347">
        <ele>666.33000000000004</ele>
        <time>2025-05-09T11:02:15Z</time>
      </trkpt>
      <trkpt lat="36.75964898429811" lon="-4.937304994091392">
        <ele>667.76999999999998</ele>
        <time>2025-05-09T11:02:16Z</time>
      </trkpt>
      <trkpt lat="36.759546976536512" lon="-4.937400966882706">
        <ele>668.73000000000002</ele>
        <time>2025-05-09T11:02:17Z</time>
      </trkpt>
      <trkpt lat="36.759444968774915" lon="-4.93749501183629">
        <ele>669.70000000000005</ele>
        <time>2025-05-09T11:02:18Z</time>
      </trkpt>
      <trkpt lat="36.759340027347207" lon="-4.937577992677689">
        <ele>670.65999999999997</ele>
        <time>2025-05-09T11:02:19Z</time>
      </trkpt>
      <trkpt lat="36.759202983230352" lon="-4.93764596991241">
        <ele>671.62</ele>
        <time>2025-05-09T11:02:20Z</time>
      </trkpt>
      <trkpt lat="36.759081026539207" lon="-4.937680000439286">
        <ele>672.58000000000004</ele>
        <time>2025-05-09T11:02:21Z</time>
      </trkpt>
      <trkpt lat="36.758674001321197" lon="-4.937771027907729">
        <ele>675.94000000000005</ele>
        <time>2025-05-09T11:02:24Z</time>
      </trkpt>
      <trkpt lat="36.758537963032722" lon="-4.937761975452304">
        <ele>676.90999999999997</ele>
        <time>2025-05-09T11:02:25Z</time>
      </trkpt>
      <trkpt lat="36.758394967764616" lon="-4.937743032351136">
        <ele>677.87</ele>
        <time>2025-05-09T11:02:26Z</time>
      </trkpt>
      <trkpt lat="36.758097996935248" lon="-4.937648987397552">
        <ele>680.26999999999998</ele>
        <time>2025-05-09T11:02:28Z</time>
      </trkpt>
      <trkpt lat="36.757947038859129" lon="-4.937611017376185">
        <ele>681.23000000000002</ele>
        <time>2025-05-09T11:02:29Z</time>
      </trkpt>
      <trkpt lat="36.757801026105881" lon="-4.937585033476353">
        <ele>682.66999999999996</ele>
        <time>2025-05-09T11:02:30Z</time>
      </trkpt>
      <trkpt lat="36.757666999474168" lon="-4.93755997158587">
        <ele>683.63</ele>
        <time>2025-05-09T11:02:31Z</time>
      </trkpt>
      <trkpt lat="36.75754202529788" lon="-4.937532981857657">
        <ele>685.08000000000004</ele>
        <time>2025-05-09T11:02:32Z</time>
      </trkpt>
      <trkpt lat="36.757437000051141" lon="-4.937457963824272">
        <ele>686.03999999999996</ele>
        <time>2025-05-09T11:02:33Z</time>
      </trkpt>
      <trkpt lat="36.757361982017756" lon="-4.937355034053326">
        <ele>687</ele>
        <time>2025-05-09T11:02:34Z</time>
      </trkpt>
      <trkpt lat="36.757300961762667" lon="-4.937232993543148">
        <ele>688.44000000000005</ele>
        <time>2025-05-09T11:02:35Z</time>
      </trkpt>
      <trkpt lat="36.757302973419428" lon="-4.937102990224958">
        <ele>689.39999999999998</ele>
        <time>2025-05-09T11:02:36Z</time>
      </trkpt>
      <trkpt lat="36.757314037531614" lon="-4.936962006613612">
        <ele>690.84000000000003</ele>
        <time>2025-05-09T11:02:37Z</time>
      </trkpt>
      <trkpt lat="36.757383020594716" lon="-4.936852036044002">
        <ele>691.80999999999995</ele>
        <time>2025-05-09T11:02:38Z</time>
      </trkpt>
      <trkpt lat="36.757469018921256" lon="-4.936719015240669">
        <ele>692.76999999999998</ele>
        <time>2025-05-09T11:02:39Z</time>
      </trkpt>
      <trkpt lat="36.757586030289531" lon="-4.93659202940762">
        <ele>693.73000000000002</ele>
        <time>2025-05-09T11:02:40Z</time>
      </trkpt>
      <trkpt lat="36.757850982248783" lon="-4.936351971700788">
        <ele>695.64999999999998</ele>
        <time>2025-05-09T11:02:42Z</time>
      </trkpt>
      <trkpt lat="36.758146025240421" lon="-4.936127001419663">
        <ele>698.04999999999995</ele>
        <time>2025-05-09T11:02:44Z</time>
      </trkpt>
      <trkpt lat="36.758254989981651" lon="-4.935985011979938">
        <ele>699.5</ele>
        <time>2025-05-09T11:02:45Z</time>
      </trkpt>
      <trkpt lat="36.758347023278475" lon="-4.935846962034702">
        <ele>700.46000000000004</ele>
        <time>2025-05-09T11:02:46Z</time>
      </trkpt>
      <trkpt lat="36.758365966379642" lon="-4.935715030878782">
        <ele>701.89999999999998</ele>
        <time>2025-05-09T11:02:47Z</time>
      </trkpt>
      <trkpt lat="36.758332019671798" lon="-4.935635989531875">
        <ele>702.86000000000001</ele>
        <time>2025-05-09T11:02:48Z</time>
      </trkpt>
      <trkpt lat="36.75829597748816" lon="-4.935558959841728">
        <ele>703.82000000000005</ele>
        <time>2025-05-09T11:02:49Z</time>
      </trkpt>
      <trkpt lat="36.758216014131904" lon="-4.935478996485472">
        <ele>704.77999999999997</ele>
        <time>2025-05-09T11:02:50Z</time>
      </trkpt>
      <trkpt lat="36.75812398083508" lon="-4.935478996485472">
        <ele>705.75</ele>
        <time>2025-05-09T11:02:51Z</time>
      </trkpt>
      <trkpt lat="36.758011998608708" lon="-4.935478996485472">
        <ele>706.71000000000004</ele>
        <time>2025-05-09T11:02:52Z</time>
      </trkpt>
      <trkpt lat="36.757901022210717" lon="-4.935458963736892">
        <ele>707.66999999999996</ele>
        <time>2025-05-09T11:02:53Z</time>
      </trkpt>
      <trkpt lat="36.75779901444912" lon="-4.935439014807344">
        <ele>708.14999999999998</ele>
        <time>2025-05-09T11:02:54Z</time>
      </trkpt>
      <trkpt lat="36.757755009457469" lon="-4.935352010652423">
        <ele>709.11000000000001</ele>
        <time>2025-05-09T11:02:55Z</time>
      </trkpt>
      <trkpt lat="36.757721984758973" lon="-4.935265006497502">
        <ele>710.07000000000005</ele>
        <time>2025-05-09T11:02:56Z</time>
      </trkpt>
      <trkpt lat="36.757747968658805" lon="-4.935138020664454">
        <ele>711.02999999999997</ele>
        <time>2025-05-09T11:02:57Z</time>
      </trkpt>
      <trkpt lat="36.757776970043778" lon="-4.934991002082825">
        <ele>712.47000000000003</ele>
        <time>2025-05-09T11:02:58Z</time>
      </trkpt>
      <trkpt lat="36.757809994742274" lon="-4.934824034571648">
        <ele>713.44000000000005</ele>
        <time>2025-05-09T11:02:59Z</time>
      </trkpt>
      <trkpt lat="36.757846958935261" lon="-4.934642985463142">
        <ele>714.39999999999998</ele>
        <time>2025-05-09T11:03:00Z</time>
      </trkpt>
      <trkpt lat="36.75786598585546" lon="-4.934456991031766">
        <ele>715.84000000000003</ele>
        <time>2025-05-09T11:03:01Z</time>
      </trkpt>
      <trkpt lat="36.757840001955628" lon="-4.93429102934897">
        <ele>716.79999999999995</ele>
        <time>2025-05-09T11:03:02Z</time>
      </trkpt>
      <trkpt lat="36.757788034155965" lon="-4.934150967746973">
        <ele>717.75999999999999</ele>
        <time>2025-05-09T11:03:03Z</time>
      </trkpt>
      <trkpt lat="36.757692983374" lon="-4.93405600078404">
        <ele>718.72000000000003</ele>
        <time>2025-05-09T11:03:04Z</time>
      </trkpt>
      <trkpt lat="36.75758502446115" lon="-4.934015013277531">
        <ele>719.67999999999995</ele>
        <time>2025-05-09T11:03:05Z</time>
      </trkpt>
      <trkpt lat="36.757470024749637" lon="-4.934005960822105">
        <ele>720.64999999999998</ele>
        <time>2025-05-09T11:03:06Z</time>
      </trkpt>
      <trkpt lat="36.757339015603065" lon="-4.934021970257163">
        <ele>721.13</ele>
        <time>2025-05-09T11:03:07Z</time>
      </trkpt>
      <trkpt lat="36.75719803199172" lon="-4.934039991348982">
        <ele>722.09000000000003</ele>
        <time>2025-05-09T11:03:08Z</time>
      </trkpt>
      <trkpt lat="36.757062999531627" lon="-4.93405700661242">
        <ele>723.52999999999997</ele>
        <time>2025-05-09T11:03:09Z</time>
      </trkpt>
      <trkpt lat="36.756951017305255" lon="-4.934032028540969">
        <ele>724.49000000000001</ele>
        <time>2025-05-09T11:03:10Z</time>
      </trkpt>
      <trkpt lat="36.756842974573374" lon="-4.933976959437132">
        <ele>725.92999999999995</ele>
        <time>2025-05-09T11:03:11Z</time>
      </trkpt>
      <trkpt lat="36.756793018430471" lon="-4.933861959725618">
        <ele>726.88999999999999</ele>
        <time>2025-05-09T11:03:12Z</time>
      </trkpt>
      <trkpt lat="36.756774997338653" lon="-4.933738997206092">
        <ele>727.86000000000001</ele>
        <time>2025-05-09T11:03:13Z</time>
      </trkpt>
      <trkpt lat="36.756768962368369" lon="-4.933564988896251">
        <ele>728.82000000000005</ele>
        <time>2025-05-09T11:03:14Z</time>
      </trkpt>
      <trkpt lat="36.756762005388737" lon="-4.933372037485242">
        <ele>730.25999999999999</ele>
        <time>2025-05-09T11:03:15Z</time>
      </trkpt>
      <trkpt lat="36.756773991510272" lon="-4.933177996426821">
        <ele>731.22000000000003</ele>
        <time>2025-05-09T11:03:16Z</time>
      </trkpt>
      <trkpt lat="36.756840962916613" lon="-4.93298496119678">
        <ele>732.65999999999997</ele>
        <time>2025-05-09T11:03:17Z</time>
      </trkpt>
      <trkpt lat="36.756905000656843" lon="-4.932799972593784">
        <ele>733.62</ele>
        <time>2025-05-09T11:03:18Z</time>
      </trkpt>
      <trkpt lat="36.756937019526958" lon="-4.93261800147593">
        <ele>735.07000000000005</ele>
        <time>2025-05-09T11:03:19Z</time>
      </trkpt>
      <trkpt lat="36.756950011476874" lon="-4.932432007044554">
        <ele>736.50999999999999</ele>
        <time>2025-05-09T11:03:20Z</time>
      </trkpt>
      <trkpt lat="36.756917992606759" lon="-4.932257998734713">
        <ele>737.47000000000003</ele>
        <time>2025-05-09T11:03:21Z</time>
      </trkpt>
      <trkpt lat="36.756849009543657" lon="-4.932093964889646">
        <ele>738.90999999999997</ele>
        <time>2025-05-09T11:03:22Z</time>
      </trkpt>
      <trkpt lat="36.756754964590073" lon="-4.931925991550088">
        <ele>739.87</ele>
        <time>2025-05-09T11:03:23Z</time>
      </trkpt>
      <trkpt lat="36.756649017333984" lon="-4.931756006553769">
        <ele>741.30999999999995</ele>
        <time>2025-05-09T11:03:24Z</time>
      </trkpt>
      <trkpt lat="36.756014004349709" lon="-4.930841960012913">
        <ele>748.03999999999996</ele>
        <time>2025-05-09T11:03:30Z</time>
      </trkpt>
      <trkpt lat="36.755905961617827" lon="-4.930755961686373">
        <ele>749</ele>
        <time>2025-05-09T11:03:31Z</time>
      </trkpt>
      <trkpt lat="36.755789034068584" lon="-4.930737018585205">
        <ele>750.45000000000005</ele>
        <time>2025-05-09T11:03:32Z</time>
      </trkpt>
      <trkpt lat="36.755669005215168" lon="-4.930753028020263">
        <ele>751.88999999999999</ele>
        <time>2025-05-09T11:03:33Z</time>
      </trkpt>
      <trkpt lat="36.755533972755075" lon="-4.93077096529305">
        <ele>753.33000000000004</ele>
        <time>2025-05-09T11:03:34Z</time>
      </trkpt>
      <trkpt lat="36.755379997193813" lon="-4.93079200387001">
        <ele>755.25</ele>
        <time>2025-05-09T11:03:35Z</time>
      </trkpt>
      <trkpt lat="36.755215963348746" lon="-4.93081396445632">
        <ele>756.69000000000005</ele>
        <time>2025-05-09T11:03:36Z</time>
      </trkpt>
      <trkpt lat="36.75505100749433" lon="-4.930804995819926">
        <ele>758.13999999999999</ele>
        <time>2025-05-09T11:03:37Z</time>
      </trkpt>
      <trkpt lat="36.75487901084125" lon="-4.930764008313417">
        <ele>759.58000000000004</ele>
        <time>2025-05-09T11:03:38Z</time>
      </trkpt>
      <trkpt lat="36.754713971167803" lon="-4.9306820333004">
        <ele>761.01999999999998</ele>
        <time>2025-05-09T11:03:39Z</time>
      </trkpt>
      <trkpt lat="36.754552032798529" lon="-4.93059997446835">
        <ele>762.46000000000004</ele>
        <time>2025-05-09T11:03:40Z</time>
      </trkpt>
      <trkpt lat="36.754393028095365" lon="-4.93055404163897">
        <ele>763.89999999999998</ele>
        <time>2025-05-09T11:03:41Z</time>
      </trkpt>
      <trkpt lat="36.754238968715072" lon="-4.930570973083377">
        <ele>765.35000000000002</ele>
        <time>2025-05-09T11:03:42Z</time>
      </trkpt>
      <trkpt lat="36.754091028124094" lon="-4.930628975853324">
        <ele>766.30999999999995</ele>
        <time>2025-05-09T11:03:43Z</time>
      </trkpt>
      <trkpt lat="36.753957001492381" lon="-4.93068597279489">
        <ele>767.75</ele>
        <time>2025-05-09T11:03:44Z</time>
      </trkpt>
      <trkpt lat="36.753837978467345" lon="-4.930737018585205">
        <ele>769.19000000000005</ele>
        <time>2025-05-09T11:03:45Z</time>
      </trkpt>
      <trkpt lat="36.753723984584212" lon="-4.930691001936793">
        <ele>770.14999999999998</ele>
        <time>2025-05-09T11:03:46Z</time>
      </trkpt>
      <trkpt lat="36.753618959337473" lon="-4.930645991116762">
        <ele>771.11000000000001</ele>
        <time>2025-05-09T11:03:47Z</time>
      </trkpt>
      <trkpt lat="36.753516029566526" lon="-4.930539960041642">
        <ele>771.60000000000002</ele>
        <time>2025-05-09T11:03:48Z</time>
      </trkpt>
      <trkpt lat="36.753403041511774" lon="-4.930423032492399">
        <ele>772.55999999999995</ele>
        <time>2025-05-09T11:03:49Z</time>
      </trkpt>
      <trkpt lat="36.753282006829977" lon="-4.930296968668699">
        <ele>773.03999999999996</ele>
        <time>2025-05-09T11:03:50Z</time>
      </trkpt>
      <trkpt lat="36.753154015168548" lon="-4.930164031684399">
        <ele>773.51999999999998</ele>
        <time>2025-05-09T11:03:51Z</time>
      </trkpt>
      <trkpt lat="36.753015965223312" lon="-4.93003997951746">
        <ele>774</ele>
        <time>2025-05-09T11:03:52Z</time>
      </trkpt>
      <trkpt lat="36.752856038510799" lon="-4.929981976747513">
        <ele>774</ele>
        <time>2025-05-09T11:03:53Z</time>
      </trkpt>
      <trkpt lat="36.752692004665732" lon="-4.929921962320805">
        <ele>774</ele>
        <time>2025-05-09T11:03:54Z</time>
      </trkpt>
      <trkpt lat="36.752539034932852" lon="-4.929878963157535">
        <ele>774</ele>
        <time>2025-05-09T11:03:55Z</time>
      </trkpt>
      <trkpt lat="36.752394028007984" lon="-4.929906958714128">
        <ele>774</ele>
        <time>2025-05-09T11:03:56Z</time>
      </trkpt>
      <trkpt lat="36.752252038568258" lon="-4.929962027817965">
        <ele>774</ele>
        <time>2025-05-09T11:03:57Z</time>
      </trkpt>
      <trkpt lat="36.751990020275116" lon="-4.930065041407943">
        <ele>774.48000000000002</ele>
        <time>2025-05-09T11:03:59Z</time>
      </trkpt>
      <trkpt lat="36.751874014735222" lon="-4.930050037801266">
        <ele>774.96000000000004</ele>
        <time>2025-05-09T11:04:00Z</time>
      </trkpt>
      <trkpt lat="36.75176203250885" lon="-4.930013995617628">
        <ele>775.91999999999996</ele>
        <time>2025-05-09T11:04:01Z</time>
      </trkpt>
      <trkpt lat="36.751662958413363" lon="-4.929921040311456">
        <ele>775.91999999999996</ele>
        <time>2025-05-09T11:04:02Z</time>
      </trkpt>
      <trkpt lat="36.751553993672132" lon="-4.929818026721478">
        <ele>776.39999999999998</ele>
        <time>2025-05-09T11:04:03Z</time>
      </trkpt>
      <trkpt lat="36.751434970647097" lon="-4.929706966504455">
        <ele>776.88</ele>
        <time>2025-05-09T11:04:04Z</time>
      </trkpt>
      <trkpt lat="36.75129197537899" lon="-4.929611999541521">
        <ele>777.84000000000003</ele>
        <time>2025-05-09T11:04:05Z</time>
      </trkpt>
      <trkpt lat="36.751005984842777" lon="-4.929420975968242">
        <ele>779.28999999999996</ele>
        <time>2025-05-09T11:04:07Z</time>
      </trkpt>
      <trkpt lat="36.750885033980012" lon="-4.929312011227012">
        <ele>780.25</ele>
        <time>2025-05-09T11:04:08Z</time>
      </trkpt>
      <trkpt lat="36.750790989026427" lon="-4.929173961281776">
        <ele>781.21000000000004</ele>
        <time>2025-05-09T11:04:09Z</time>
      </trkpt>
      <trkpt lat="36.750616980716586" lon="-4.928918983787298">
        <ele>782.64999999999998</ele>
        <time>2025-05-09T11:04:11Z</time>
      </trkpt>
      <trkpt lat="36.750509021803737" lon="-4.9288360029459">
        <ele>783.61000000000001</ele>
        <time>2025-05-09T11:04:12Z</time>
      </trkpt>
      <trkpt lat="36.750392010435462" lon="-4.928790992125869">
        <ele>784.09000000000003</ele>
        <time>2025-05-09T11:04:13Z</time>
      </trkpt>
      <trkpt lat="36.750264018774033" lon="-4.928813958540559">
        <ele>785.04999999999995</ele>
        <time>2025-05-09T11:04:14Z</time>
      </trkpt>
      <trkpt lat="36.750124963000417" lon="-4.928853018209338">
        <ele>785.52999999999997</ele>
        <time>2025-05-09T11:04:15Z</time>
      </trkpt>
      <trkpt lat="36.749977022409439" lon="-4.928911020979285">
        <ele>786.5</ele>
        <time>2025-05-09T11:04:16Z</time>
      </trkpt>
      <trkpt lat="36.749819023534656" lon="-4.928972963243723">
        <ele>786.98000000000002</ele>
        <time>2025-05-09T11:04:17Z</time>
      </trkpt>
      <trkpt lat="36.74965800717473" lon="-4.929017974063754">
        <ele>788.41999999999996</ele>
        <time>2025-05-09T11:04:18Z</time>
      </trkpt>
      <trkpt lat="36.749491039663553" lon="-4.929006993770599">
        <ele>789.38</ele>
        <time>2025-05-09T11:04:19Z</time>
      </trkpt>
      <trkpt lat="36.748801041394472" lon="-4.929003976285458">
        <ele>793.22000000000003</ele>
        <time>2025-05-09T11:04:23Z</time>
      </trkpt>
      <trkpt lat="36.748644970357418" lon="-4.929056027904153">
        <ele>794.19000000000005</ele>
        <time>2025-05-09T11:04:24Z</time>
      </trkpt>
      <trkpt lat="36.748492000624537" lon="-4.929109001532197">
        <ele>794.66999999999996</ele>
        <time>2025-05-09T11:04:25Z</time>
      </trkpt>
      <trkpt lat="36.748355040326715" lon="-4.929216960445046">
        <ele>795.63</ele>
        <time>2025-05-09T11:04:26Z</time>
      </trkpt>
      <trkpt lat="36.748214978724718" lon="-4.929327014833689">
        <ele>796.59000000000003</ele>
        <time>2025-05-09T11:04:27Z</time>
      </trkpt>
      <trkpt lat="36.747930999845266" lon="-4.929550979286432">
        <ele>798.50999999999999</ele>
        <time>2025-05-09T11:04:29Z</time>
      </trkpt>
      <trkpt lat="36.747786998748779" lon="-4.929663967341185">
        <ele>798.99000000000001</ele>
        <time>2025-05-09T11:04:30Z</time>
      </trkpt>
      <trkpt lat="36.747336974367499" lon="-4.929835963994265">
        <ele>801.88</ele>
        <time>2025-05-09T11:04:33Z</time>
      </trkpt>
      <trkpt lat="36.747204037383199" lon="-4.929857002571225">
        <ele>802.84000000000003</ele>
        <time>2025-05-09T11:04:34Z</time>
      </trkpt>
      <trkpt lat="36.747070010751486" lon="-4.929836969822645">
        <ele>803.79999999999995</ele>
        <time>2025-05-09T11:04:35Z</time>
      </trkpt>
      <trkpt lat="36.746955011039972" lon="-4.929751977324486">
        <ele>804.75999999999999</ele>
        <time>2025-05-09T11:04:36Z</time>
      </trkpt>
      <trkpt lat="36.746854009106755" lon="-4.929636977612972">
        <ele>805.72000000000003</ele>
        <time>2025-05-09T11:04:37Z</time>
      </trkpt>
      <trkpt lat="36.746773961931467" lon="-4.929481996223331">
        <ele>806.67999999999995</ele>
        <time>2025-05-09T11:04:38Z</time>
      </trkpt>
      <trkpt lat="36.746698021888733" lon="-4.929315028712153">
        <ele>808.13</ele>
        <time>2025-05-09T11:04:39Z</time>
      </trkpt>
      <trkpt lat="36.746620992198586" lon="-4.929145965725184">
        <ele>809.09000000000003</ele>
        <time>2025-05-09T11:04:40Z</time>
      </trkpt>
      <trkpt lat="36.746559971943498" lon="-4.928972963243723">
        <ele>810.52999999999997</ele>
        <time>2025-05-09T11:04:41Z</time>
      </trkpt>
      <trkpt lat="36.746543040499091" lon="-4.928783029317856">
        <ele>811.49000000000001</ele>
        <time>2025-05-09T11:04:42Z</time>
      </trkpt>
      <trkpt lat="36.746527031064034" lon="-4.928604997694492">
        <ele>812.92999999999995</ele>
        <time>2025-05-09T11:04:43Z</time>
      </trkpt>
      <trkpt lat="36.746500041335821" lon="-4.928443981334567">
        <ele>813.88999999999999</ele>
        <time>2025-05-09T11:04:44Z</time>
      </trkpt>
      <trkpt lat="36.7464579641819" lon="-4.92829998023808">
        <ele>814.85000000000002</ele>
        <time>2025-05-09T11:04:45Z</time>
      </trkpt>
      <trkpt lat="36.746379006654024" lon="-4.928174000233412">
        <ele>815.82000000000005</ele>
        <time>2025-05-09T11:04:46Z</time>
      </trkpt>
      <trkpt lat="36.746269958093762" lon="-4.928090013563633">
        <ele>816.77999999999997</ele>
        <time>2025-05-09T11:04:47Z</time>
      </trkpt>
      <trkpt lat="36.746144983917475" lon="-4.928004015237093">
        <ele>817.25999999999999</ele>
        <time>2025-05-09T11:04:48Z</time>
      </trkpt>
      <trkpt lat="36.746011041104794" lon="-4.927934026345611">
        <ele>818.22000000000003</ele>
        <time>2025-05-09T11:04:49Z</time>
      </trkpt>
      <trkpt lat="36.745878020301461" lon="-4.927875017747283">
        <ele>818.70000000000005</ele>
        <time>2025-05-09T11:04:50Z</time>
      </trkpt>
      <trkpt lat="36.745749022811651" lon="-4.927819026634097">
        <ele>819.17999999999995</ele>
        <time>2025-05-09T11:04:51Z</time>
      </trkpt>
      <trkpt lat="36.745620025321841" lon="-4.927838975563645">
        <ele>819.65999999999997</ele>
        <time>2025-05-09T11:04:52Z</time>
      </trkpt>
      <trkpt lat="36.745493961498141" lon="-4.927858002483845">
        <ele>820.13999999999999</ele>
        <time>2025-05-09T11:04:53Z</time>
      </trkpt>
      <trkpt lat="36.745394971221685" lon="-4.927965039387345">
        <ele>820.13999999999999</ele>
        <time>2025-05-09T11:04:54Z</time>
      </trkpt>
      <trkpt lat="36.745297992601991" lon="-4.928097976371646">
        <ele>820.13999999999999</ele>
        <time>2025-05-09T11:04:55Z</time>
      </trkpt>
      <trkpt lat="36.745250970125198" lon="-4.928238959982991">
        <ele>820.13999999999999</ele>
        <time>2025-05-09T11:04:56Z</time>
      </trkpt>
      <trkpt lat="36.745197996497154" lon="-4.928399976342917">
        <ele>819.65999999999997</ele>
        <time>2025-05-09T11:04:57Z</time>
      </trkpt>
      <trkpt lat="36.745153991505504" lon="-4.9285579752177">
        <ele>818.70000000000005</ele>
        <time>2025-05-09T11:04:58Z</time>
      </trkpt>
      <trkpt lat="36.745084002614021" lon="-4.928698958829045">
        <ele>818.22000000000003</ele>
        <time>2025-05-09T11:04:59Z</time>
      </trkpt>
      <trkpt lat="36.744975037872791" lon="-4.928776994347572">
        <ele>817.25999999999999</ele>
        <time>2025-05-09T11:05:00Z</time>
      </trkpt>
      <trkpt lat="36.744859032332897" lon="-4.928805995732546">
        <ele>816.77999999999997</ele>
        <time>2025-05-09T11:05:01Z</time>
      </trkpt>
      <trkpt lat="36.744732968509197" lon="-4.928805995732546">
        <ele>815.82000000000005</ele>
        <time>2025-05-09T11:05:02Z</time>
      </trkpt>
      <trkpt lat="36.744618974626064" lon="-4.928758973255754">
        <ele>814.85000000000002</ele>
        <time>2025-05-09T11:05:03Z</time>
      </trkpt>
      <trkpt lat="36.744498023763299" lon="-4.928658977150917">
        <ele>813.88999999999999</ele>
        <time>2025-05-09T11:05:04Z</time>
      </trkpt>
      <trkpt lat="36.744366008788347" lon="-4.928551018238068">
        <ele>812.92999999999995</ele>
        <time>2025-05-09T11:05:05Z</time>
      </trkpt>
      <trkpt lat="36.743417009711266" lon="-4.927681982517242">
        <ele>803.32000000000005</ele>
        <time>2025-05-09T11:05:12Z</time>
      </trkpt>
      <trkpt lat="36.743310978636146" lon="-4.927534963935614">
        <ele>801.88</ele>
        <time>2025-05-09T11:05:13Z</time>
      </trkpt>
      <trkpt lat="36.743106041103601" lon="-4.92720102891326">
        <ele>798.99000000000001</ele>
        <time>2025-05-09T11:05:15Z</time>
      </trkpt>
      <trkpt lat="36.742812003940344" lon="-4.926685960963368">
        <ele>795.14999999999998</ele>
        <time>2025-05-09T11:05:18Z</time>
      </trkpt>
      <trkpt lat="36.742735980078578" lon="-4.926488986238837">
        <ele>793.22000000000003</ele>
        <time>2025-05-09T11:05:19Z</time>
      </trkpt>
      <trkpt lat="36.742699015885592" lon="-4.926295028999448">
        <ele>791.77999999999997</ele>
        <time>2025-05-09T11:05:20Z</time>
      </trkpt>
      <trkpt lat="36.742691975086927" lon="-4.926075004041195">
        <ele>790.34000000000003</ele>
        <time>2025-05-09T11:05:21Z</time>
      </trkpt>
      <trkpt lat="36.742686023935676" lon="-4.925861014053226">
        <ele>789.38</ele>
        <time>2025-05-09T11:05:22Z</time>
      </trkpt>
      <trkpt lat="36.742680994793773" lon="-4.925694968551397">
        <ele>787.46000000000004</ele>
        <time>2025-05-09T11:05:23Z</time>
      </trkpt>
      <trkpt lat="36.742766993120313" lon="-4.925509979948402">
        <ele>786.01999999999998</ele>
        <time>2025-05-09T11:05:24Z</time>
      </trkpt>
      <trkpt lat="36.742831030860543" lon="-4.925373019650579">
        <ele>784.09000000000003</ele>
        <time>2025-05-09T11:05:25Z</time>
      </trkpt>
      <trkpt lat="36.742956005036831" lon="-4.925281992182136">
        <ele>783.13</ele>
        <time>2025-05-09T11:05:26Z</time>
      </trkpt>
      <trkpt lat="36.743066981434822" lon="-4.925201022997499">
        <ele>782.16999999999996</ele>
        <time>2025-05-09T11:05:27Z</time>
      </trkpt>
      <trkpt lat="36.743218023329973" lon="-4.925181996077299">
        <ele>780.73000000000002</ele>
        <time>2025-05-09T11:05:28Z</time>
      </trkpt>
      <trkpt lat="36.74336101859808" lon="-4.92516397498548">
        <ele>779.76999999999998</ele>
        <time>2025-05-09T11:05:29Z</time>
      </trkpt>
      <trkpt lat="36.743496973067522" lon="-4.925146959722042">
        <ele>778.32000000000005</ele>
        <time>2025-05-09T11:05:30Z</time>
      </trkpt>
      <trkpt lat="36.743622031062841" lon="-4.925105972215533">
        <ele>776.88</ele>
        <time>2025-05-09T11:05:31Z</time>
      </trkpt>
      <trkpt lat="36.743692019954324" lon="-4.925017962232232">
        <ele>775.44000000000005</ele>
        <time>2025-05-09T11:05:32Z</time>
      </trkpt>
      <trkpt lat="36.743735019117594" lon="-4.924919977784157">
        <ele>774.48000000000002</ele>
        <time>2025-05-09T11:05:33Z</time>
      </trkpt>
      <trkpt lat="36.74374901689589" lon="-4.92481897585094">
        <ele>773.51999999999998</ele>
        <time>2025-05-09T11:05:34Z</time>
      </trkpt>
      <trkpt lat="36.743738958612084" lon="-4.924678998067975">
        <ele>772.55999999999995</ele>
        <time>2025-05-09T11:05:35Z</time>
      </trkpt>
      <trkpt lat="36.743718003854156" lon="-4.924546983093023">
        <ele>771.60000000000002</ele>
        <time>2025-05-09T11:05:36Z</time>
      </trkpt>
      <trkpt lat="36.743661006912589" lon="-4.924413962289691">
        <ele>770.63</ele>
        <time>2025-05-09T11:05:37Z</time>
      </trkpt>
      <trkpt lat="36.743603004142642" lon="-4.924278007820249">
        <ele>769.66999999999996</ele>
        <time>2025-05-09T11:05:38Z</time>
      </trkpt>
      <trkpt lat="36.74349001608789" lon="-4.924187986180186">
        <ele>768.71000000000004</ele>
        <time>2025-05-09T11:05:39Z</time>
      </trkpt>
      <trkpt lat="36.743378033861518" lon="-4.924106011167169">
        <ele>768.23000000000002</ele>
        <time>2025-05-09T11:05:40Z</time>
      </trkpt>
      <trkpt lat="36.743230009451509" lon="-4.924095030874014">
        <ele>767.26999999999998</ele>
        <time>2025-05-09T11:05:41Z</time>
      </trkpt>
      <trkpt lat="36.743075028061867" lon="-4.924085978418589">
        <ele>766.30999999999995</ele>
        <time>2025-05-09T11:05:42Z</time>
      </trkpt>
      <trkpt lat="36.742001976817846" lon="-4.924111040309072">
        <ele>759.58000000000004</ele>
        <time>2025-05-09T11:05:48Z</time>
      </trkpt>
      <trkpt lat="36.741831991821527" lon="-4.924120008945465">
        <ele>758.62</ele>
        <time>2025-05-09T11:05:49Z</time>
      </trkpt>
      <trkpt lat="36.741542983800173" lon="-4.924192009493709">
        <ele>756.21000000000004</ele>
        <time>2025-05-09T11:05:51Z</time>
      </trkpt>
      <trkpt lat="36.741423038765788" lon="-4.92417499423027">
        <ele>755.25</ele>
        <time>2025-05-09T11:05:52Z</time>
      </trkpt>
      <trkpt lat="36.741334022954106" lon="-4.924125038087368">
        <ele>754.28999999999996</ele>
        <time>2025-05-09T11:05:53Z</time>
      </trkpt>
      <trkpt lat="36.741139981895685" lon="-4.923977013677359">
        <ele>751.88999999999999</ele>
        <time>2025-05-09T11:05:55Z</time>
      </trkpt>
      <trkpt lat="36.741030011326075" lon="-4.923935020342469">
        <ele>750.92999999999995</ele>
        <time>2025-05-09T11:05:56Z</time>
      </trkpt>
      <trkpt lat="36.740910988301039" lon="-4.923932002857328">
        <ele>749.49000000000001</ele>
        <time>2025-05-09T11:05:57Z</time>
      </trkpt>
      <trkpt lat="36.740801017731428" lon="-4.923996040597558">
        <ele>748.51999999999998</ele>
        <time>2025-05-09T11:05:58Z</time>
      </trkpt>
      <trkpt lat="36.740685012191534" lon="-4.924063012003899">
        <ele>747.55999999999995</ele>
        <time>2025-05-09T11:05:59Z</time>
      </trkpt>
      <trkpt lat="36.740564983338118" lon="-4.924131995067">
        <ele>746.12</ele>
        <time>2025-05-09T11:06:00Z</time>
      </trkpt>
      <trkpt lat="36.740443026646972" lon="-4.924160996451974">
        <ele>744.67999999999995</ele>
        <time>2025-05-09T11:06:01Z</time>
      </trkpt>
      <trkpt lat="36.740316040813923" lon="-4.92415202781558">
        <ele>743.72000000000003</ele>
        <time>2025-05-09T11:06:02Z</time>
      </trkpt>
      <trkpt lat="36.740180002525449" lon="-4.924097964540124">
        <ele>742.75999999999999</ele>
        <time>2025-05-09T11:06:03Z</time>
      </trkpt>
      <trkpt lat="36.740042958408594" lon="-4.924042979255319">
        <ele>741.78999999999996</ele>
        <time>2025-05-09T11:06:04Z</time>
      </trkpt>
      <trkpt lat="36.739060012623668" lon="-4.92337703704834">
        <ele>733.62</ele>
        <time>2025-05-09T11:06:13Z</time>
      </trkpt>
      <trkpt lat="36.738480990752578" lon="-4.922864986583591">
        <ele>730.25999999999999</ele>
        <time>2025-05-09T11:06:21Z</time>
      </trkpt>
      <trkpt lat="36.738172033801675" lon="-4.922599028795958">
        <ele>727.37</ele>
        <time>2025-05-09T11:06:30Z</time>
      </trkpt>
      <trkpt lat="36.738000959157944" lon="-4.922475982457399">
        <ele>726.40999999999997</ele>
        <time>2025-05-09T11:06:34Z</time>
      </trkpt>
      <trkpt lat="36.737960977479815" lon="-4.922437006607652">
        <ele>726.40999999999997</ele>
        <time>2025-05-09T11:06:35Z</time>
      </trkpt>
      <trkpt lat="36.73788302578032" lon="-4.922361988574266">
        <ele>725.45000000000005</ele>
        <time>2025-05-09T11:06:37Z</time>
      </trkpt>
      <trkpt lat="36.737845977768302" lon="-4.922326030209661">
        <ele>725.45000000000005</ele>
        <time>2025-05-09T11:06:38Z</time>
      </trkpt>
      <trkpt lat="36.737665012478828" lon="-4.922151016071439">
        <ele>724.00999999999999</ele>
        <time>2025-05-09T11:06:47Z</time>
      </trkpt>
      <trkpt lat="36.737769031897187" lon="-4.922097036615014">
        <ele>724.49000000000001</ele>
        <time>2025-05-09T11:10:57Z</time>
      </trkpt>
      <trkpt lat="36.737664006650448" lon="-4.92200399748981">
        <ele>711.50999999999999</ele>
        <time>2025-05-09T11:11:32Z</time>
      </trkpt>
      <trkpt lat="36.737716980278492" lon="-4.922031993046403">
        <ele>712.95000000000005</ele>
        <time>2025-05-09T11:12:16Z</time>
      </trkpt>
      <trkpt lat="36.737615978345275" lon="-4.921681964769959">
        <ele>726.40999999999997</ele>
        <time>2025-05-09T11:12:26Z</time>
      </trkpt>
      <trkpt lat="36.73762402497232" lon="-4.921670984476805">
        <ele>728.82000000000005</ele>
        <time>2025-05-09T11:12:27Z</time>
      </trkpt>
      <trkpt lat="36.737655960023403" lon="-4.921623962000012">
        <ele>729.77999999999997</ele>
        <time>2025-05-09T11:12:28Z</time>
      </trkpt>
      <trkpt lat="36.73768999055028" lon="-4.921575011685491">
        <ele>730.25999999999999</ele>
        <time>2025-05-09T11:12:29Z</time>
      </trkpt>
      <trkpt lat="36.737722009420395" lon="-4.921527989208698">
        <ele>730.25999999999999</ele>
        <time>2025-05-09T11:12:30Z</time>
      </trkpt>
      <trkpt lat="36.737807001918554" lon="-4.921405026689172">
        <ele>729.77999999999997</ele>
        <time>2025-05-09T11:12:33Z</time>
      </trkpt>
      <trkpt lat="36.737850001081824" lon="-4.921323973685503">
        <ele>729.29999999999995</ele>
        <time>2025-05-09T11:12:34Z</time>
      </trkpt>
      <trkpt lat="36.737820999696851" lon="-4.921124987304211">
        <ele>728.82000000000005</ele>
        <time>2025-05-09T11:12:36Z</time>
      </trkpt>
      <trkpt lat="36.737802978605032" lon="-4.921002024784684">
        <ele>728.34000000000003</ele>
        <time>2025-05-09T11:12:37Z</time>
      </trkpt>
      <trkpt lat="36.73764799721539" lon="-4.920124020427465">
        <ele>724.00999999999999</ele>
        <time>2025-05-09T11:12:43Z</time>
      </trkpt>
      <trkpt lat="36.737615978345275" lon="-4.919986976310611">
        <ele>723.04999999999995</ele>
        <time>2025-05-09T11:12:44Z</time>
      </trkpt>
      <trkpt lat="36.737565016373992" lon="-4.919895026832819">
        <ele>722.09000000000003</ele>
        <time>2025-05-09T11:12:45Z</time>
      </trkpt>
      <trkpt lat="36.737520005553961" lon="-4.91981296800077">
        <ele>721.13</ele>
        <time>2025-05-09T11:12:46Z</time>
      </trkpt>
      <trkpt lat="36.737450016662478" lon="-4.919743984937668">
        <ele>720.15999999999997</ele>
        <time>2025-05-09T11:12:47Z</time>
      </trkpt>
      <trkpt lat="36.737406011670828" lon="-4.919707020744681">
        <ele>719.67999999999995</ele>
        <time>2025-05-09T11:12:48Z</time>
      </trkpt>
      <trkpt lat="36.737380027770996" lon="-4.919685982167721">
        <ele>718.72000000000003</ele>
        <time>2025-05-09T11:12:49Z</time>
      </trkpt>
      <trkpt lat="36.737381033599377" lon="-4.91968103684485">
        <ele>718.24000000000001</ele>
        <time>2025-05-09T11:12:50Z</time>
      </trkpt>
      <trkpt lat="36.737385978922248" lon="-4.919652035459876">
        <ele>717.27999999999997</ele>
        <time>2025-05-09T11:12:51Z</time>
      </trkpt>
      <trkpt lat="36.737264022231102" lon="-4.919494036585093">
        <ele>712.95000000000005</ele>
        <time>2025-05-09T11:12:57Z</time>
      </trkpt>
      <trkpt lat="36.737212976440787" lon="-4.91946998052299">
        <ele>711.99000000000001</ele>
        <time>2025-05-09T11:12:58Z</time>
      </trkpt>
      <trkpt lat="36.736734034493566" lon="-4.919206034392119">
        <ele>707.19000000000005</ele>
        <time>2025-05-09T11:13:06Z</time>
      </trkpt>
      <trkpt lat="36.736686006188393" lon="-4.919153982773423">
        <ele>706.71000000000004</ele>
        <time>2025-05-09T11:13:07Z</time>
      </trkpt>
      <trkpt lat="36.736640995368361" lon="-4.919106038287282">
        <ele>706.23000000000002</ele>
        <time>2025-05-09T11:13:08Z</time>
      </trkpt>
      <trkpt lat="36.736596990376711" lon="-4.919058009982109">
        <ele>705.75</ele>
        <time>2025-05-09T11:13:09Z</time>
      </trkpt>
      <trkpt lat="36.736553991213441" lon="-4.919010987505317">
        <ele>704.77999999999997</ele>
        <time>2025-05-09T11:13:10Z</time>
      </trkpt>
      <trkpt lat="36.736513003706932" lon="-4.918966982513666">
        <ele>704.29999999999995</ele>
        <time>2025-05-09T11:13:11Z</time>
      </trkpt>
      <trkpt lat="36.736476039513946" lon="-4.918927000835538">
        <ele>703.82000000000005</ele>
        <time>2025-05-09T11:13:12Z</time>
      </trkpt>
      <trkpt lat="36.73644402064383" lon="-4.918891964480281">
        <ele>703.34000000000003</ele>
        <time>2025-05-09T11:13:13Z</time>
      </trkpt>
      <trkpt lat="36.736318040639162" lon="-4.918755004182458">
        <ele>699.5</ele>
        <time>2025-05-09T11:13:19Z</time>
      </trkpt>
      <trkpt lat="36.736286021769047" lon="-4.918720973655582">
        <ele>699.01999999999998</ele>
        <time>2025-05-09T11:13:20Z</time>
      </trkpt>
      <trkpt lat="36.736318040639162" lon="-4.918679986149073">
        <ele>698.04999999999995</ele>
        <time>2025-05-09T11:13:21Z</time>
      </trkpt>
      <trkpt lat="36.736335977911949" lon="-4.918656013906002">
        <ele>697.57000000000005</ele>
        <time>2025-05-09T11:13:22Z</time>
      </trkpt>
      <trkpt lat="36.736355004832149" lon="-4.918632041662931">
        <ele>697.09000000000003</ele>
        <time>2025-05-09T11:13:23Z</time>
      </trkpt>
      <trkpt lat="36.7363799829036" lon="-4.918601028621197">
        <ele>696.61000000000001</ele>
        <time>2025-05-09T11:13:24Z</time>
      </trkpt>
      <trkpt lat="36.736402027308941" lon="-4.918572027236223">
        <ele>696.13</ele>
        <time>2025-05-09T11:13:25Z</time>
      </trkpt>
      <trkpt lat="36.736435974016786" lon="-4.918528022244573">
        <ele>695.64999999999998</ele>
        <time>2025-05-09T11:13:26Z</time>
      </trkpt>
      <trkpt lat="36.736418958753347" lon="-4.918508995324373">
        <ele>695.16999999999996</ele>
        <time>2025-05-09T11:13:27Z</time>
      </trkpt>
      <trkpt lat="36.736391969025135" lon="-4.918478988111019">
        <ele>694.69000000000005</ele>
        <time>2025-05-09T11:13:28Z</time>
      </trkpt>
      <trkpt lat="36.736359028145671" lon="-4.918442023918033">
        <ele>694.21000000000004</ele>
        <time>2025-05-09T11:13:29Z</time>
      </trkpt>
      <trkpt lat="36.736286021769047" lon="-4.918361976742744">
        <ele>693.73000000000002</ele>
        <time>2025-05-09T11:13:31Z</time>
      </trkpt>
      <trkpt lat="36.736254002898932" lon="-4.918327024206519">
        <ele>693.25</ele>
        <time>2025-05-09T11:13:32Z</time>
      </trkpt>
      <trkpt lat="36.73622902482748" lon="-4.918276984244585">
        <ele>693.25</ele>
        <time>2025-05-09T11:13:33Z</time>
      </trkpt>
      <trkpt lat="36.73625098541379" lon="-4.918231973424554">
        <ele>693.25</ele>
        <time>2025-05-09T11:13:34Z</time>
      </trkpt>
      <trkpt lat="36.736273029819131" lon="-4.918188974261284">
        <ele>693.25</ele>
        <time>2025-05-09T11:13:35Z</time>
      </trkpt>
      <trkpt lat="36.736289961263537" lon="-4.918155027553439">
        <ele>693.25</ele>
        <time>2025-05-09T11:13:36Z</time>
      </trkpt>
      <trkpt lat="36.736303037032485" lon="-4.918129965662956">
        <ele>693.25</ele>
        <time>2025-05-09T11:13:37Z</time>
      </trkpt>
      <trkpt lat="36.736317034810781" lon="-4.918067017570138">
        <ele>693.25</ele>
        <time>2025-05-09T11:13:38Z</time>
      </trkpt>
      <trkpt lat="36.736297002062201" lon="-4.918052013963461">
        <ele>693.25</ele>
        <time>2025-05-09T11:13:39Z</time>
      </trkpt>
      <trkpt lat="36.736275963485241" lon="-4.918036004528403">
        <ele>693.25</ele>
        <time>2025-05-09T11:13:40Z</time>
      </trkpt>
      <trkpt lat="36.736256014555693" lon="-4.918019995093346">
        <ele>693.25</ele>
        <time>2025-05-09T11:13:41Z</time>
      </trkpt>
      <trkpt lat="36.736234975978732" lon="-4.918003985658288">
        <ele>693.25</ele>
        <time>2025-05-09T11:13:42Z</time>
      </trkpt>
      <trkpt lat="36.73612299375236" lon="-4.91794497705996">
        <ele>691.80999999999995</ele>
        <time>2025-05-09T11:13:48Z</time>
      </trkpt>
      <trkpt lat="36.736108995974064" lon="-4.91796400398016">
        <ele>691.80999999999995</ele>
        <time>2025-05-09T11:13:49Z</time>
      </trkpt>
      <trkpt lat="36.736087035387754" lon="-4.917995017021895">
        <ele>691.80999999999995</ele>
        <time>2025-05-09T11:13:50Z</time>
      </trkpt>
      <trkpt lat="36.735940016806126" lon="-4.91811303421855">
        <ele>691.33000000000004</ele>
        <time>2025-05-09T11:13:55Z</time>
      </trkpt>
      <trkpt lat="36.735920989885926" lon="-4.918119991198182">
        <ele>691.33000000000004</ele>
        <time>2025-05-09T11:13:56Z</time>
      </trkpt>
      <trkpt lat="36.735851000994444" lon="-4.918173970654607">
        <ele>691.33000000000004</ele>
        <time>2025-05-09T11:13:57Z</time>
      </trkpt>
      <trkpt lat="36.735900035127997" lon="-4.918076992034912">
        <ele>691.33000000000004</ele>
        <time>2025-05-09T11:13:58Z</time>
      </trkpt>
      <trkpt lat="36.735883019864559" lon="-4.918031981214881">
        <ele>691.33000000000004</ele>
        <time>2025-05-09T11:13:59Z</time>
      </trkpt>
      <trkpt lat="36.735858963802457" lon="-4.917968027293682">
        <ele>691.33000000000004</ele>
        <time>2025-05-09T11:14:00Z</time>
      </trkpt>
      <trkpt lat="36.735814958810806" lon="-4.917869037017226">
        <ele>691.33000000000004</ele>
        <time>2025-05-09T11:14:01Z</time>
      </trkpt>
      <trkpt lat="36.735759973526001" lon="-4.91777298040688">
        <ele>691.33000000000004</ele>
        <time>2025-05-09T11:14:02Z</time>
      </trkpt>
      <trkpt lat="36.73569199629128" lon="-4.917672984302044">
        <ele>691.33000000000004</ele>
        <time>2025-05-09T11:14:03Z</time>
      </trkpt>
      <trkpt lat="36.735484041273594" lon="-4.917381964623928">
        <ele>692.28999999999996</ele>
        <time>2025-05-09T11:14:06Z</time>
      </trkpt>
      <trkpt lat="36.73496201634407" lon="-4.916796991601586">
        <ele>694.21000000000004</ele>
        <time>2025-05-09T11:14:14Z</time>
      </trkpt>
      <trkpt lat="36.734904013574123" lon="-4.916687021031976">
        <ele>694.21000000000004</ele>
        <time>2025-05-09T11:14:15Z</time>
      </trkpt>
      <trkpt lat="36.734841987490654" lon="-4.916561963036656">
        <ele>693.73000000000002</ele>
        <time>2025-05-09T11:14:16Z</time>
      </trkpt>
      <trkpt lat="36.734662028029561" lon="-4.916202966123819">
        <ele>694.21000000000004</ele>
        <time>2025-05-09T11:14:19Z</time>
      </trkpt>
      <trkpt lat="36.734586004167795" lon="-4.916121996939182">
        <ele>694.21000000000004</ele>
        <time>2025-05-09T11:14:20Z</time>
      </trkpt>
      <trkpt lat="36.73448801971972" lon="-4.916072962805629">
        <ele>694.21000000000004</ele>
        <time>2025-05-09T11:14:21Z</time>
      </trkpt>
      <trkpt lat="36.734376959502697" lon="-4.916039016097784">
        <ele>694.69000000000005</ele>
        <time>2025-05-09T11:14:22Z</time>
      </trkpt>
      <trkpt lat="36.734260031953454" lon="-4.91600900888443">
        <ele>694.69000000000005</ele>
        <time>2025-05-09T11:14:23Z</time>
      </trkpt>
      <trkpt lat="36.733709005638957" lon="-4.915838018059731">
        <ele>694.69000000000005</ele>
        <time>2025-05-09T11:14:28Z</time>
      </trkpt>
      <trkpt lat="36.733610015362501" lon="-4.915765011683106">
        <ele>694.69000000000005</ele>
        <time>2025-05-09T11:14:29Z</time>
      </trkpt>
      <trkpt lat="36.733515970408916" lon="-4.915674990043044">
        <ele>694.21000000000004</ele>
        <time>2025-05-09T11:14:30Z</time>
      </trkpt>
      <trkpt lat="36.733010960742831" lon="-4.915252961218357">
        <ele>691.80999999999995</ele>
        <time>2025-05-09T11:14:35Z</time>
      </trkpt>
      <trkpt lat="36.732898978516459" lon="-4.915213985368609">
        <ele>690.84000000000003</ele>
        <time>2025-05-09T11:14:36Z</time>
      </trkpt>
      <trkpt lat="36.73279101960361" lon="-4.915176015347242">
        <ele>690.36000000000001</ele>
        <time>2025-05-09T11:14:37Z</time>
      </trkpt>
      <trkpt lat="36.73218802548945" lon="-4.915051963180304">
        <ele>685.55999999999995</ele>
        <time>2025-05-09T11:14:44Z</time>
      </trkpt>
      <trkpt lat="36.732099009677768" lon="-4.915007036179304">
        <ele>685.08000000000004</ele>
        <time>2025-05-09T11:14:45Z</time>
      </trkpt>
      <trkpt lat="36.732021979987621" lon="-4.914968982338905">
        <ele>684.60000000000002</ele>
        <time>2025-05-09T11:14:46Z</time>
      </trkpt>
      <trkpt lat="36.731966994702816" lon="-4.914917014539242">
        <ele>684.12</ele>
        <time>2025-05-09T11:14:47Z</time>
      </trkpt>
      <trkpt lat="36.73199599608779" lon="-4.914832022041082">
        <ele>684.12</ele>
        <time>2025-05-09T11:14:48Z</time>
      </trkpt>
      <trkpt lat="36.731979986652732" lon="-4.914730014279485">
        <ele>683.63</ele>
        <time>2025-05-09T11:14:49Z</time>
      </trkpt>
      <trkpt lat="36.731989039108157" lon="-4.914648039266467">
        <ele>683.14999999999998</ele>
        <time>2025-05-09T11:14:50Z</time>
      </trkpt>
      <trkpt lat="36.732036983594298" lon="-4.91452700458467">
        <ele>682.19000000000005</ele>
        <time>2025-05-09T11:14:51Z</time>
      </trkpt>
      <trkpt lat="36.732091968879104" lon="-4.914389038458467">
        <ele>681.23000000000002</ele>
        <time>2025-05-09T11:14:52Z</time>
      </trkpt>
      <trkpt lat="36.732163969427347" lon="-4.914265992119908">
        <ele>680.75</ele>
        <time>2025-05-09T11:14:53Z</time>
      </trkpt>
      <trkpt lat="36.732634026557207" lon="-4.913427969440818">
        <ele>673.53999999999996</ele>
        <time>2025-05-09T11:15:00Z</time>
      </trkpt>
      <trkpt lat="36.732812980189919" lon="-4.912999989464879">
        <ele>670.65999999999997</ele>
        <time>2025-05-09T11:15:03Z</time>
      </trkpt>
      <trkpt lat="36.732851034030318" lon="-4.912839978933334">
        <ele>670.17999999999995</ele>
        <time>2025-05-09T11:15:04Z</time>
      </trkpt>
      <trkpt lat="36.732881963253021" lon="-4.912673011422157">
        <ele>669.22000000000003</ele>
        <time>2025-05-09T11:15:05Z</time>
      </trkpt>
      <trkpt lat="36.733106011524796" lon="-4.911657962948084">
        <ele>663.92999999999995</ele>
        <time>2025-05-09T11:15:11Z</time>
      </trkpt>
      <trkpt lat="36.733797015622258" lon="-4.910017037764192">
        <ele>657.67999999999995</ele>
        <time>2025-05-09T11:15:22Z</time>
      </trkpt>
      <trkpt lat="36.734055010601878" lon="-4.909128975123167">
        <ele>656.24000000000001</ele>
        <time>2025-05-09T11:15:28Z</time>
      </trkpt>
      <trkpt lat="36.734032966196537" lon="-4.908985979855061">
        <ele>655.27999999999997</ele>
        <time>2025-05-09T11:15:29Z</time>
      </trkpt>
      <trkpt lat="36.734012011438608" lon="-4.908850025385618">
        <ele>654.79999999999995</ele>
        <time>2025-05-09T11:15:30Z</time>
      </trkpt>
      <trkpt lat="36.733936993405223" lon="-4.908754974603653">
        <ele>653.83000000000004</ele>
        <time>2025-05-09T11:15:31Z</time>
      </trkpt>
      <trkpt lat="36.733846971765161" lon="-4.908651039004326">
        <ele>653.35000000000002</ele>
        <time>2025-05-09T11:15:32Z</time>
      </trkpt>
      <trkpt lat="36.733712023124099" lon="-4.908589012920857">
        <ele>652.38999999999999</ele>
        <time>2025-05-09T11:15:33Z</time>
      </trkpt>
      <trkpt lat="36.733567016199231" lon="-4.908522041514516">
        <ele>651.90999999999997</ele>
        <time>2025-05-09T11:15:34Z</time>
      </trkpt>
      <trkpt lat="36.732950024306774" lon="-4.908290030434728">
        <ele>648.07000000000005</ele>
        <time>2025-05-09T11:15:38Z</time>
      </trkpt>
      <trkpt lat="36.732786996290088" lon="-4.908275026828051">
        <ele>647.10000000000002</ele>
        <time>2025-05-09T11:15:39Z</time>
      </trkpt>
      <trkpt lat="36.732627991586924" lon="-4.908293969929218">
        <ele>645.65999999999997</ele>
        <time>2025-05-09T11:15:40Z</time>
      </trkpt>
      <trkpt lat="36.732488013803959" lon="-4.908354990184307">
        <ele>644.70000000000005</ele>
        <time>2025-05-09T11:15:41Z</time>
      </trkpt>
      <trkpt lat="36.732375025749207" lon="-4.908462027087808">
        <ele>643.25999999999999</ele>
        <time>2025-05-09T11:15:42Z</time>
      </trkpt>
      <trkpt lat="36.732261031866074" lon="-4.908568980172277">
        <ele>641.82000000000005</ele>
        <time>2025-05-09T11:15:43Z</time>
      </trkpt>
      <trkpt lat="36.732147037982941" lon="-4.908677022904158">
        <ele>640.38</ele>
        <time>2025-05-09T11:15:44Z</time>
      </trkpt>
      <trkpt lat="36.732014017179608" lon="-4.908751035109162">
        <ele>639.40999999999997</ele>
        <time>2025-05-09T11:15:45Z</time>
      </trkpt>
      <trkpt lat="36.731873033568263" lon="-4.908804008737207">
        <ele>638.45000000000005</ele>
        <time>2025-05-09T11:15:46Z</time>
      </trkpt>
      <trkpt lat="36.731300968676805" lon="-4.908881038427353">
        <ele>634.13</ele>
        <time>2025-05-09T11:15:50Z</time>
      </trkpt>
      <trkpt lat="36.731184963136911" lon="-4.908871985971928">
        <ele>632.67999999999995</ele>
        <time>2025-05-09T11:15:51Z</time>
      </trkpt>
      <trkpt lat="36.731113968417048" lon="-4.908806020393968">
        <ele>631.72000000000003</ele>
        <time>2025-05-09T11:15:52Z</time>
      </trkpt>
      <trkpt lat="36.731068035587668" lon="-4.908735025674105">
        <ele>631.24000000000001</ele>
        <time>2025-05-09T11:15:53Z</time>
      </trkpt>
      <trkpt lat="36.731054037809372" lon="-4.908619020134211">
        <ele>630.27999999999997</ele>
        <time>2025-05-09T11:15:54Z</time>
      </trkpt>
      <trkpt lat="36.73107398673892" lon="-4.908526986837387">
        <ele>629.32000000000005</ele>
        <time>2025-05-09T11:15:55Z</time>
      </trkpt>
      <trkpt lat="36.73111598007381" lon="-4.908412992954254">
        <ele>627.88</ele>
        <time>2025-05-09T11:15:56Z</time>
      </trkpt>
      <trkpt lat="36.731157973408699" lon="-4.908346021547914">
        <ele>626.44000000000005</ele>
        <time>2025-05-09T11:15:57Z</time>
      </trkpt>
      <trkpt lat="36.731251012533903" lon="-4.908300004899502">
        <ele>624.99000000000001</ele>
        <time>2025-05-09T11:15:58Z</time>
      </trkpt>
      <trkpt lat="36.731340028345585" lon="-4.908289024606347">
        <ele>624.02999999999997</ele>
        <time>2025-05-09T11:15:59Z</time>
      </trkpt>
      <trkpt lat="36.731458967551589" lon="-4.908282989636064">
        <ele>623.07000000000005</ele>
        <time>2025-05-09T11:16:00Z</time>
      </trkpt>
      <trkpt lat="36.731586959213018" lon="-4.908277038484812">
        <ele>622.11000000000001</ele>
        <time>2025-05-09T11:16:01Z</time>
      </trkpt>
      <trkpt lat="36.73171604052186" lon="-4.908271003514528">
        <ele>621.14999999999998</ele>
        <time>2025-05-09T11:16:02Z</time>
      </trkpt>
      <trkpt lat="36.73182399943471" lon="-4.908179976046085">
        <ele>620.19000000000005</ele>
        <time>2025-05-09T11:16:03Z</time>
      </trkpt>
      <trkpt lat="36.731922989711165" lon="-4.908098001033068">
        <ele>619.23000000000002</ele>
        <time>2025-05-09T11:16:04Z</time>
      </trkpt>
      <trkpt lat="36.731986021623015" lon="-4.908001022413373">
        <ele>618.75</ele>
        <time>2025-05-09T11:16:05Z</time>
      </trkpt>
      <trkpt lat="36.73201996833086" lon="-4.907855009660125">
        <ele>618.75</ele>
        <time>2025-05-09T11:16:06Z</time>
      </trkpt>
      <trkpt lat="36.732057016342878" lon="-4.907696004956961">
        <ele>618.25999999999999</ele>
        <time>2025-05-09T11:16:07Z</time>
      </trkpt>
      <trkpt lat="36.732093980535865" lon="-4.907539011910558">
        <ele>617.77999999999997</ele>
        <time>2025-05-09T11:16:08Z</time>
      </trkpt>
      <trkpt lat="36.732122981920838" lon="-4.90741303190589">
        <ele>617.77999999999997</ele>
        <time>2025-05-09T11:16:09Z</time>
      </trkpt>
      <trkpt lat="36.73221099190414" lon="-4.907296020537615">
        <ele>617.29999999999995</ele>
        <time>2025-05-09T11:16:10Z</time>
      </trkpt>
      <trkpt lat="36.732288021594286" lon="-4.907233994454145">
        <ele>617.29999999999995</ele>
        <time>2025-05-09T11:16:11Z</time>
      </trkpt>
      <trkpt lat="36.732381982728839" lon="-4.907226031646133">
        <ele>616.82000000000005</ele>
        <time>2025-05-09T11:16:12Z</time>
      </trkpt>
      <trkpt lat="36.732483990490437" lon="-4.907255033031106">
        <ele>616.82000000000005</ele>
        <time>2025-05-09T11:16:13Z</time>
      </trkpt>
      <trkpt lat="36.732572000473738" lon="-4.907312029972673">
        <ele>616.34000000000003</ele>
        <time>2025-05-09T11:16:14Z</time>
      </trkpt>
      <trkpt lat="36.732668979093432" lon="-4.907388975843787">
        <ele>615.38</ele>
        <time>2025-05-09T11:16:15Z</time>
      </trkpt>
      <trkpt lat="36.732771992683411" lon="-4.907469023019075">
        <ele>614.89999999999998</ele>
        <time>2025-05-09T11:16:16Z</time>
      </trkpt>
      <trkpt lat="36.732880035415292" lon="-4.907555021345615">
        <ele>613.94000000000005</ele>
        <time>2025-05-09T11:16:17Z</time>
      </trkpt>
      <trkpt lat="36.733019007369876" lon="-4.90758896805346">
        <ele>613.46000000000004</ele>
        <time>2025-05-09T11:16:18Z</time>
      </trkpt>
      <trkpt lat="36.733160996809602" lon="-4.907596008852124">
        <ele>612.5</ele>
        <time>2025-05-09T11:16:19Z</time>
      </trkpt>
      <trkpt lat="36.733302986249328" lon="-4.907602965831757">
        <ele>611.53999999999996</ele>
        <time>2025-05-09T11:16:20Z</time>
      </trkpt>
      <trkpt lat="36.733442964032292" lon="-4.907590979710221">
        <ele>610.57000000000005</ele>
        <time>2025-05-09T11:16:21Z</time>
      </trkpt>
      <trkpt lat="36.733583025634289" lon="-4.907562984153628">
        <ele>609.61000000000001</ele>
        <time>2025-05-09T11:16:22Z</time>
      </trkpt>
      <trkpt lat="36.733709005638957" lon="-4.907524008303881">
        <ele>608.64999999999998</ele>
        <time>2025-05-09T11:16:23Z</time>
      </trkpt>
      <trkpt lat="36.733807995915413" lon="-4.90743700414896">
        <ele>607.69000000000005</ele>
        <time>2025-05-09T11:16:24Z</time>
      </trkpt>
      <trkpt lat="36.733883013948798" lon="-4.90737003274262">
        <ele>607.21000000000004</ele>
        <time>2025-05-09T11:16:25Z</time>
      </trkpt>
      <trkpt lat="36.733883013948798" lon="-4.907275987789035">
        <ele>606.73000000000002</ele>
        <time>2025-05-09T11:16:26Z</time>
      </trkpt>
      <trkpt lat="36.733883013948798" lon="-4.907171968370676">
        <ele>605.76999999999998</ele>
        <time>2025-05-09T11:16:27Z</time>
      </trkpt>
      <trkpt lat="36.733839008957148" lon="-4.90706903859973">
        <ele>605.28999999999996</ele>
        <time>2025-05-09T11:16:28Z</time>
      </trkpt>
      <trkpt lat="36.733758039772511" lon="-4.906987985596061">
        <ele>604.33000000000004</ele>
        <time>2025-05-09T11:16:29Z</time>
      </trkpt>
      <trkpt lat="36.733667012304068" lon="-4.906906010583043">
        <ele>603.36000000000001</ele>
        <time>2025-05-09T11:16:30Z</time>
      </trkpt>
      <trkpt lat="36.733566010370851" lon="-4.906828980892897">
        <ele>602.39999999999998</ele>
        <time>2025-05-09T11:16:31Z</time>
      </trkpt>
      <trkpt lat="36.733431983739138" lon="-4.906725967302918">
        <ele>601.91999999999996</ele>
        <time>2025-05-09T11:16:32Z</time>
      </trkpt>
      <trkpt lat="36.733410023152828" lon="-4.906627982854843">
        <ele>601.44000000000005</ele>
        <time>2025-05-09T11:16:33Z</time>
      </trkpt>
      <trkpt lat="36.73339300788939" lon="-4.906492028385401">
        <ele>600.96000000000004</ele>
        <time>2025-05-09T11:16:34Z</time>
      </trkpt>
      <trkpt lat="36.733404994010925" lon="-4.906347021460533">
        <ele>600.96000000000004</ele>
        <time>2025-05-09T11:16:35Z</time>
      </trkpt>
      <trkpt lat="36.73343600705266" lon="-4.906198997050524">
        <ele>600.96000000000004</ele>
        <time>2025-05-09T11:16:36Z</time>
      </trkpt>
      <trkpt lat="36.733487974852324" lon="-4.906048038974404">
        <ele>600.96000000000004</ele>
        <time>2025-05-09T11:16:37Z</time>
      </trkpt>
      <trkpt lat="36.733546983450651" lon="-4.905887022614479">
        <ele>601.44000000000005</ele>
        <time>2025-05-09T11:16:38Z</time>
      </trkpt>
      <trkpt lat="36.733625018969178" lon="-4.905674960464239">
        <ele>601.44000000000005</ele>
        <time>2025-05-09T11:16:39Z</time>
      </trkpt>
      <trkpt lat="36.733629964292049" lon="-4.905533976852894">
        <ele>601.91999999999996</ele>
        <time>2025-05-09T11:16:40Z</time>
      </trkpt>
      <trkpt lat="36.733637005090714" lon="-4.905346976593137">
        <ele>602.39999999999998</ele>
        <time>2025-05-09T11:16:41Z</time>
      </trkpt>
      <trkpt lat="36.733643040060997" lon="-4.905171962454915">
        <ele>602.88</ele>
        <time>2025-05-09T11:16:42Z</time>
      </trkpt>
      <trkpt lat="36.733666006475687" lon="-4.905011029914022">
        <ele>602.39999999999998</ele>
        <time>2025-05-09T11:16:43Z</time>
      </trkpt>
      <trkpt lat="36.733718980103731" lon="-4.904851019382477">
        <ele>602.39999999999998</ele>
        <time>2025-05-09T11:16:44Z</time>
      </trkpt>
      <trkpt lat="36.733826017007232" lon="-4.904744988307357">
        <ele>602.39999999999998</ele>
        <time>2025-05-09T11:16:45Z</time>
      </trkpt>
      <trkpt lat="36.733943028375506" lon="-4.904627976939082">
        <ele>601.91999999999996</ele>
        <time>2025-05-09T11:16:46Z</time>
      </trkpt>
      <trkpt lat="36.734065990895033" lon="-4.904505014419556">
        <ele>601.91999999999996</ele>
        <time>2025-05-09T11:16:47Z</time>
      </trkpt>
      <trkpt lat="36.734691029414535" lon="-4.903861032798886">
        <ele>598.55999999999995</ele>
        <time>2025-05-09T11:16:52Z</time>
      </trkpt>
      <trkpt lat="36.734824972227216" lon="-4.903771011158824">
        <ele>597.12</ele>
        <time>2025-05-09T11:16:53Z</time>
      </trkpt>
      <trkpt lat="36.734968973323703" lon="-4.903691969811916">
        <ele>596.14999999999998</ele>
        <time>2025-05-09T11:16:54Z</time>
      </trkpt>
      <trkpt lat="36.735384967178106" lon="-4.903494995087385">
        <ele>594.23000000000002</ele>
        <time>2025-05-09T11:16:57Z</time>
      </trkpt>
      <trkpt lat="36.735490998253226" lon="-4.903430035337806">
        <ele>593.75</ele>
        <time>2025-05-09T11:16:58Z</time>
      </trkpt>
      <trkpt lat="36.735566016286612" lon="-4.903336996212602">
        <ele>593.26999999999998</ele>
        <time>2025-05-09T11:16:59Z</time>
      </trkpt>
      <trkpt lat="36.735621001571417" lon="-4.903223002329469">
        <ele>593.26999999999998</ele>
        <time>2025-05-09T11:17:00Z</time>
      </trkpt>
      <trkpt lat="36.735621001571417" lon="-4.903102973476052">
        <ele>592.78999999999996</ele>
        <time>2025-05-09T11:17:01Z</time>
      </trkpt>
      <trkpt lat="36.735573979094625" lon="-4.902970036491752">
        <ele>592.30999999999995</ele>
        <time>2025-05-09T11:17:02Z</time>
      </trkpt>
      <trkpt lat="36.735492004081607" lon="-4.902876997366548">
        <ele>591.83000000000004</ele>
        <time>2025-05-09T11:17:03Z</time>
      </trkpt>
      <trkpt lat="36.735393013805151" lon="-4.902840033173561">
        <ele>591.35000000000002</ele>
        <time>2025-05-09T11:17:04Z</time>
      </trkpt>
      <trkpt lat="36.735273990780115" lon="-4.902830980718136">
        <ele>590.87</ele>
        <time>2025-05-09T11:17:05Z</time>
      </trkpt>
      <trkpt lat="36.735145999118686" lon="-4.902850007638335">
        <ele>590.87</ele>
        <time>2025-05-09T11:17:06Z</time>
      </trkpt>
      <trkpt lat="36.735011972486973" lon="-4.902870040386915">
        <ele>590.38999999999999</ele>
        <time>2025-05-09T11:17:07Z</time>
      </trkpt>
      <trkpt lat="36.734480978921056" lon="-4.902823017910123">
        <ele>590.38999999999999</ele>
        <time>2025-05-09T11:17:11Z</time>
      </trkpt>
      <trkpt lat="36.734390035271645" lon="-4.902740037068725">
        <ele>589.90999999999997</ele>
        <time>2025-05-09T11:17:12Z</time>
      </trkpt>
      <trkpt lat="36.734310993924737" lon="-4.902650015428662">
        <ele>588.95000000000005</ele>
        <time>2025-05-09T11:17:13Z</time>
      </trkpt>
      <trkpt lat="36.734285010024905" lon="-4.902541972696781">
        <ele>588.46000000000004</ele>
        <time>2025-05-09T11:17:14Z</time>
      </trkpt>
      <trkpt lat="36.734276041388512" lon="-4.902389002963901">
        <ele>587.98000000000002</ele>
        <time>2025-05-09T11:17:15Z</time>
      </trkpt>
      <trkpt lat="36.734275035560131" lon="-4.902225974947214">
        <ele>587.5</ele>
        <time>2025-05-09T11:17:16Z</time>
      </trkpt>
      <trkpt lat="36.734292972832918" lon="-4.902051966637373">
        <ele>587.5</ele>
        <time>2025-05-09T11:17:17Z</time>
      </trkpt>
      <trkpt lat="36.734345024451613" lon="-4.901687018573284">
        <ele>587.01999999999998</ele>
        <time>2025-05-09T11:17:19Z</time>
      </trkpt>
      <trkpt lat="36.734354998916388" lon="-4.901498006656766">
        <ele>587.01999999999998</ele>
        <time>2025-05-09T11:17:20Z</time>
      </trkpt>
      <trkpt lat="36.734327003359795" lon="-4.901319975033402">
        <ele>586.53999999999996</ele>
        <time>2025-05-09T11:17:21Z</time>
      </trkpt>
      <trkpt lat="36.734290961176157" lon="-4.901125011965632">
        <ele>586.53999999999996</ele>
        <time>2025-05-09T11:17:22Z</time>
      </trkpt>
      <trkpt lat="36.734256008639932" lon="-4.901003977283835">
        <ele>586.53999999999996</ele>
        <time>2025-05-09T11:17:23Z</time>
      </trkpt>
      <trkpt lat="36.734217032790184" lon="-4.900869028642774">
        <ele>586.53999999999996</ele>
        <time>2025-05-09T11:17:24Z</time>
      </trkpt>
      <trkpt lat="36.734204962849617" lon="-4.900743970647454">
        <ele>587.01999999999998</ele>
        <time>2025-05-09T11:17:25Z</time>
      </trkpt>
      <trkpt lat="36.734204962849617" lon="-4.900631988421083">
        <ele>587.5</ele>
        <time>2025-05-09T11:17:26Z</time>
      </trkpt>
      <trkpt lat="36.734246034175158" lon="-4.900543978437781">
        <ele>588.46000000000004</ele>
        <time>2025-05-09T11:17:27Z</time>
      </trkpt>
      <trkpt lat="36.734296996146441" lon="-4.900435013696551">
        <ele>588.46000000000004</ele>
        <time>2025-05-09T11:17:28Z</time>
      </trkpt>
      <trkpt lat="36.734350975602865" lon="-4.900319008156657">
        <ele>588.46000000000004</ele>
        <time>2025-05-09T11:17:29Z</time>
      </trkpt>
      <trkpt lat="36.734434962272644" lon="-4.90023996680975">
        <ele>587.98000000000002</ele>
        <time>2025-05-09T11:17:30Z</time>
      </trkpt>
      <trkpt lat="36.734520960599184" lon="-4.900165032595396">
        <ele>587.5</ele>
        <time>2025-05-09T11:17:31Z</time>
      </trkpt>
      <trkpt lat="36.734613999724388" lon="-4.900139970704913">
        <ele>587.01999999999998</ele>
        <time>2025-05-09T11:17:32Z</time>
      </trkpt>
      <trkpt lat="36.734724976122379" lon="-4.900113986805081">
        <ele>586.53999999999996</ele>
        <time>2025-05-09T11:17:33Z</time>
      </trkpt>
      <trkpt lat="36.734846010804176" lon="-4.900084985420108">
        <ele>586.05999999999995</ele>
        <time>2025-05-09T11:17:34Z</time>
      </trkpt>
      <trkpt lat="36.734965033829212" lon="-4.900057995691896">
        <ele>585.58000000000004</ele>
        <time>2025-05-09T11:17:35Z</time>
      </trkpt>
      <trkpt lat="36.735093025490642" lon="-4.900027988478541">
        <ele>584.62</ele>
        <time>2025-05-09T11:17:36Z</time>
      </trkpt>
      <trkpt lat="36.735231997445226" lon="-4.899974009022117">
        <ele>584.13999999999999</ele>
        <time>2025-05-09T11:17:37Z</time>
      </trkpt>
      <trkpt lat="36.735489992424846" lon="-4.899804024025798">
        <ele>582.22000000000003</ele>
        <time>2025-05-09T11:17:39Z</time>
      </trkpt>
      <trkpt lat="36.735610021278262" lon="-4.899696987122297">
        <ele>581.25</ele>
        <time>2025-05-09T11:17:40Z</time>
      </trkpt>
      <trkpt lat="36.735697025433183" lon="-4.899536976590753">
        <ele>580.28999999999996</ele>
        <time>2025-05-09T11:17:41Z</time>
      </trkpt>
      <trkpt lat="36.735776988789439" lon="-4.899376966059208">
        <ele>579.33000000000004</ele>
        <time>2025-05-09T11:17:42Z</time>
      </trkpt>
      <trkpt lat="36.735811019316316" lon="-4.899192983284593">
        <ele>578.37</ele>
        <time>2025-05-09T11:17:43Z</time>
      </trkpt>
      <trkpt lat="36.735834991559386" lon="-4.899004977196455">
        <ele>576.92999999999995</ele>
        <time>2025-05-09T11:17:44Z</time>
      </trkpt>
      <trkpt lat="36.735803978517652" lon="-4.898811019957066">
        <ele>575.97000000000003</ele>
        <time>2025-05-09T11:17:45Z</time>
      </trkpt>
      <trkpt lat="36.735771037638187" lon="-4.898613039404154">
        <ele>575.00999999999999</ele>
        <time>2025-05-09T11:17:46Z</time>
      </trkpt>
      <trkpt lat="36.735732983797789" lon="-4.898418998345733">
        <ele>574.03999999999996</ele>
        <time>2025-05-09T11:17:47Z</time>
      </trkpt>
      <trkpt lat="36.735680010169744" lon="-4.898231998085976">
        <ele>573.08000000000004</ele>
        <time>2025-05-09T11:17:48Z</time>
      </trkpt>
      <trkpt lat="36.735445987433195" lon="-4.89733899012208">
        <ele>567.79999999999995</ele>
        <time>2025-05-09T11:17:53Z</time>
      </trkpt>
      <trkpt lat="36.735438024625182" lon="-4.897183002904058">
        <ele>566.83000000000004</ele>
        <time>2025-05-09T11:17:54Z</time>
      </trkpt>
      <trkpt lat="36.73547800630331" lon="-4.897031961008906">
        <ele>565.87</ele>
        <time>2025-05-09T11:17:55Z</time>
      </trkpt>
      <trkpt lat="36.735524022951722" lon="-4.89688603207469">
        <ele>564.42999999999995</ele>
        <time>2025-05-09T11:17:56Z</time>
      </trkpt>
      <trkpt lat="36.735622007399797" lon="-4.896772960200906">
        <ele>562.99000000000001</ele>
        <time>2025-05-09T11:17:57Z</time>
      </trkpt>
      <trkpt lat="36.735742036253214" lon="-4.896701965481043">
        <ele>562.02999999999997</ele>
        <time>2025-05-09T11:17:58Z</time>
      </trkpt>
      <trkpt lat="36.735870027914643" lon="-4.896643040701747">
        <ele>560.59000000000003</ele>
        <time>2025-05-09T11:17:59Z</time>
      </trkpt>
      <trkpt lat="36.735988967120647" lon="-4.896576991304755">
        <ele>559.62</ele>
        <time>2025-05-09T11:18:00Z</time>
      </trkpt>
      <trkpt lat="36.736092986539006" lon="-4.896512031555176">
        <ele>558.65999999999997</ele>
        <time>2025-05-09T11:18:01Z</time>
      </trkpt>
      <trkpt lat="36.736157024279237" lon="-4.896396026015282">
        <ele>557.70000000000005</ele>
        <time>2025-05-09T11:18:02Z</time>
      </trkpt>
      <trkpt lat="36.736194994300604" lon="-4.896278008818626">
        <ele>556.74000000000001</ele>
        <time>2025-05-09T11:18:03Z</time>
      </trkpt>
      <trkpt lat="36.736175967380404" lon="-4.896142976358533">
        <ele>556.25999999999999</ele>
        <time>2025-05-09T11:18:04Z</time>
      </trkpt>
      <trkpt lat="36.736115030944347" lon="-4.8960289824754">
        <ele>555.77999999999997</ele>
        <time>2025-05-09T11:18:05Z</time>
      </trkpt>
      <trkpt lat="36.736043030396104" lon="-4.895900990813971">
        <ele>555.29999999999995</ele>
        <time>2025-05-09T11:18:06Z</time>
      </trkpt>
      <trkpt lat="36.735957032069564" lon="-4.895771993324161">
        <ele>554.82000000000005</ele>
        <time>2025-05-09T11:18:07Z</time>
      </trkpt>
      <trkpt lat="36.735377004370093" lon="-4.894736995920539">
        <ele>554.82000000000005</ele>
        <time>2025-05-09T11:18:13Z</time>
      </trkpt>
      <trkpt lat="36.734515009447932" lon="-4.892865987494588">
        <ele>554.34000000000003</ele>
        <time>2025-05-09T11:18:23Z</time>
      </trkpt>
      <trkpt lat="36.734480978921056" lon="-4.892684016376734">
        <ele>554.82000000000005</ele>
        <time>2025-05-09T11:18:24Z</time>
      </trkpt>
      <trkpt lat="36.734462035819888" lon="-4.892502967268229">
        <ele>555.29999999999995</ele>
        <time>2025-05-09T11:18:25Z</time>
      </trkpt>
      <trkpt lat="36.734462035819888" lon="-4.892315967008472">
        <ele>554.82000000000005</ele>
        <time>2025-05-09T11:18:26Z</time>
      </trkpt>
      <trkpt lat="36.734483996406198" lon="-4.892124021425843">
        <ele>554.82000000000005</ele>
        <time>2025-05-09T11:18:27Z</time>
      </trkpt>
      <trkpt lat="36.734517021104693" lon="-4.891926040872932">
        <ele>554.82000000000005</ele>
        <time>2025-05-09T11:18:28Z</time>
      </trkpt>
      <trkpt lat="36.734914993867278" lon="-4.890665989369154">
        <ele>550.00999999999999</ele>
        <time>2025-05-09T11:18:35Z</time>
      </trkpt>
      <trkpt lat="36.734998980537057" lon="-4.890554007142782">
        <ele>549.04999999999995</ele>
        <time>2025-05-09T11:18:36Z</time>
      </trkpt>
      <trkpt lat="36.735102999955416" lon="-4.890462979674339">
        <ele>548.09000000000003</ele>
        <time>2025-05-09T11:18:37Z</time>
      </trkpt>
      <trkpt lat="36.735206013545394" lon="-4.890372036024928">
        <ele>547.13</ele>
        <time>2025-05-09T11:18:38Z</time>
      </trkpt>
      <trkpt lat="36.73530600965023" lon="-4.890284026041627">
        <ele>546.16999999999996</ele>
        <time>2025-05-09T11:18:39Z</time>
      </trkpt>
      <trkpt lat="36.735400976613164" lon="-4.890200961381197">
        <ele>545.20000000000005</ele>
        <time>2025-05-09T11:18:40Z</time>
      </trkpt>
      <trkpt lat="36.735475994646549" lon="-4.890128960832954">
        <ele>544.24000000000001</ele>
        <time>2025-05-09T11:18:41Z</time>
      </trkpt>
      <trkpt lat="36.735642040148377" lon="-4.889773987233639">
        <ele>542.79999999999995</ele>
        <time>2025-05-09T11:18:44Z</time>
      </trkpt>
      <trkpt lat="36.735651008784771" lon="-4.889650018885732">
        <ele>542.32000000000005</ele>
        <time>2025-05-09T11:18:45Z</time>
      </trkpt>
      <trkpt lat="36.735664000734687" lon="-4.889473998919129">
        <ele>542.32000000000005</ele>
        <time>2025-05-09T11:18:46Z</time>
      </trkpt>
      <trkpt lat="36.735630976036191" lon="-4.889380959793925">
        <ele>542.32000000000005</ele>
        <time>2025-05-09T11:18:47Z</time>
      </trkpt>
      <trkpt lat="36.735578002408147" lon="-4.889233019202948">
        <ele>542.32000000000005</ele>
        <time>2025-05-09T11:18:48Z</time>
      </trkpt>
      <trkpt lat="36.735522011294961" lon="-4.889077031984925">
        <ele>542.32000000000005</ele>
        <time>2025-05-09T11:18:49Z</time>
      </trkpt>
      <trkpt lat="36.735461996868253" lon="-4.888907968997955">
        <ele>542.79999999999995</ele>
        <time>2025-05-09T11:18:50Z</time>
      </trkpt>
      <trkpt lat="36.735420003533363" lon="-4.888730021193624">
        <ele>542.79999999999995</ele>
        <time>2025-05-09T11:18:51Z</time>
      </trkpt>
      <trkpt lat="36.735300980508327" lon="-4.887973973527551">
        <ele>545.69000000000005</ele>
        <time>2025-05-09T11:18:55Z</time>
      </trkpt>
      <trkpt lat="36.73524297773838" lon="-4.887789990752935">
        <ele>546.16999999999996</ele>
        <time>2025-05-09T11:18:56Z</time>
      </trkpt>
      <trkpt lat="36.735033011063933" lon="-4.886985998600721">
        <ele>550.97000000000003</ele>
        <time>2025-05-09T11:19:00Z</time>
      </trkpt>
      <trkpt lat="36.734999986365438" lon="-4.886794975027442">
        <ele>551.92999999999995</ele>
        <time>2025-05-09T11:19:01Z</time>
      </trkpt>
      <trkpt lat="36.735017001628876" lon="-4.88661602139473">
        <ele>552.89999999999998</ele>
        <time>2025-05-09T11:19:02Z</time>
      </trkpt>
      <trkpt lat="36.735032005235553" lon="-4.88644695840776">
        <ele>553.86000000000001</ele>
        <time>2025-05-09T11:19:03Z</time>
      </trkpt>
      <trkpt lat="36.735046003013849" lon="-4.886293988674879">
        <ele>554.34000000000003</ele>
        <time>2025-05-09T11:19:04Z</time>
      </trkpt>
      <trkpt lat="36.735063018277287" lon="-4.886104976758361">
        <ele>555.29999999999995</ele>
        <time>2025-05-09T11:19:05Z</time>
      </trkpt>
      <trkpt lat="36.735034016892314" lon="-4.88601797260344">
        <ele>555.77999999999997</ele>
        <time>2025-05-09T11:19:06Z</time>
      </trkpt>
      <trkpt lat="36.734943995252252" lon="-4.885911019518971">
        <ele>556.25999999999999</ele>
        <time>2025-05-09T11:19:07Z</time>
      </trkpt>
      <trkpt lat="36.734843999147415" lon="-4.885825021192431">
        <ele>556.74000000000001</ele>
        <time>2025-05-09T11:19:08Z</time>
      </trkpt>
      <trkpt lat="36.734735034406185" lon="-4.885732987895608">
        <ele>556.74000000000001</ele>
        <time>2025-05-09T11:19:09Z</time>
      </trkpt>
      <trkpt lat="36.734647024422884" lon="-4.885614970698953">
        <ele>557.22000000000003</ele>
        <time>2025-05-09T11:19:10Z</time>
      </trkpt>
      <trkpt lat="36.734566977247596" lon="-4.885493014007807">
        <ele>557.70000000000005</ele>
        <time>2025-05-09T11:19:11Z</time>
      </trkpt>
      <trkpt lat="36.734533030539751" lon="-4.88532898016274">
        <ele>558.65999999999997</ele>
        <time>2025-05-09T11:19:12Z</time>
      </trkpt>
      <trkpt lat="36.734496988356113" lon="-4.885155977681279">
        <ele>559.62</ele>
        <time>2025-05-09T11:19:13Z</time>
      </trkpt>
      <trkpt lat="36.734458012506366" lon="-4.884981969371438">
        <ele>561.07000000000005</ele>
        <time>2025-05-09T11:19:14Z</time>
      </trkpt>
      <trkpt lat="36.734376959502697" lon="-4.884850960224867">
        <ele>562.02999999999997</ele>
        <time>2025-05-09T11:19:15Z</time>
      </trkpt>
      <trkpt lat="36.734204040840268" lon="-4.884573016315699">
        <ele>563.95000000000005</ele>
        <time>2025-05-09T11:19:17Z</time>
      </trkpt>
      <trkpt lat="36.734143020585179" lon="-4.884402025490999">
        <ele>564.42999999999995</ele>
        <time>2025-05-09T11:19:18Z</time>
      </trkpt>
      <trkpt lat="36.734087029471993" lon="-4.884209996089339">
        <ele>565.38999999999999</ele>
        <time>2025-05-09T11:19:19Z</time>
      </trkpt>
      <trkpt lat="36.734029026702046" lon="-4.884011009708047">
        <ele>566.35000000000002</ele>
        <time>2025-05-09T11:19:20Z</time>
      </trkpt>
      <trkpt lat="36.733960965648293" lon="-4.883809005841613">
        <ele>567.32000000000005</ele>
        <time>2025-05-09T11:19:21Z</time>
      </trkpt>
      <trkpt lat="36.733890976756811" lon="-4.883599039167166">
        <ele>568.75999999999999</ele>
        <time>2025-05-09T11:19:22Z</time>
      </trkpt>
      <trkpt lat="36.733825011178851" lon="-4.883398963138461">
        <ele>569.72000000000003</ele>
        <time>2025-05-09T11:19:23Z</time>
      </trkpt>
      <trkpt lat="36.733711017295718" lon="-4.883057987317443">
        <ele>571.63999999999999</ele>
        <time>2025-05-09T11:19:25Z</time>
      </trkpt>
      <trkpt lat="36.733711017295718" lon="-4.882907029241324">
        <ele>572.12</ele>
        <time>2025-05-09T11:19:26Z</time>
      </trkpt>
      <trkpt lat="36.733712023124099" lon="-4.882778031751514">
        <ele>572.60000000000002</ele>
        <time>2025-05-09T11:19:27Z</time>
      </trkpt>
      <trkpt lat="36.733768014237285" lon="-4.882650962099433">
        <ele>572.60000000000002</ele>
        <time>2025-05-09T11:19:28Z</time>
      </trkpt>
      <trkpt lat="36.733835991472006" lon="-4.882562030106783">
        <ele>572.60000000000002</ele>
        <time>2025-05-09T11:19:29Z</time>
      </trkpt>
      <trkpt lat="36.733944034203887" lon="-4.88249396905303">
        <ele>572.60000000000002</ele>
        <time>2025-05-09T11:19:30Z</time>
      </trkpt>
      <trkpt lat="36.734054004773498" lon="-4.882489023730159">
        <ele>572.12</ele>
        <time>2025-05-09T11:19:31Z</time>
      </trkpt>
      <trkpt lat="36.734140003100038" lon="-4.882500004023314">
        <ele>572.12</ele>
        <time>2025-05-09T11:19:32Z</time>
      </trkpt>
      <trkpt lat="36.734263971447945" lon="-4.882591031491756">
        <ele>572.12</ele>
        <time>2025-05-09T11:19:33Z</time>
      </trkpt>
      <trkpt lat="36.734374025836587" lon="-4.882673006504774">
        <ele>571.63999999999999</ele>
        <time>2025-05-09T11:19:34Z</time>
      </trkpt>
      <trkpt lat="36.734486008062959" lon="-4.882754981517792">
        <ele>571.63999999999999</ele>
        <time>2025-05-09T11:19:35Z</time>
      </trkpt>
      <trkpt lat="36.734592961147428" lon="-4.88283502869308">
        <ele>571.63999999999999</ele>
        <time>2025-05-09T11:19:36Z</time>
      </trkpt>
      <trkpt lat="36.734716007485986" lon="-4.882865035906434">
        <ele>571.15999999999997</ele>
        <time>2025-05-09T11:19:37Z</time>
      </trkpt>
      <trkpt lat="36.734828995540738" lon="-4.882865035906434">
        <ele>571.15999999999997</ele>
        <time>2025-05-09T11:19:38Z</time>
      </trkpt>
      <trkpt lat="36.734937960281968" lon="-4.882797980681062">
        <ele>570.67999999999995</ele>
        <time>2025-05-09T11:19:39Z</time>
      </trkpt>
      <trkpt lat="36.735038040205836" lon="-4.882707037031651">
        <ele>570.20000000000005</ele>
        <time>2025-05-09T11:19:40Z</time>
      </trkpt>
      <trkpt lat="36.735114986076951" lon="-4.882578039541841">
        <ele>569.72000000000003</ele>
        <time>2025-05-09T11:19:41Z</time>
      </trkpt>
      <trkpt lat="36.735172988846898" lon="-4.882419034838677">
        <ele>568.75999999999999</ele>
        <time>2025-05-09T11:19:42Z</time>
      </trkpt>
      <trkpt lat="36.735212970525026" lon="-4.882245026528835">
        <ele>567.79999999999995</ele>
        <time>2025-05-09T11:19:43Z</time>
      </trkpt>
      <trkpt lat="36.735225962474942" lon="-4.882052997127175">
        <ele>566.83000000000004</ele>
        <time>2025-05-09T11:19:44Z</time>
      </trkpt>
      <trkpt lat="36.735247001051903" lon="-4.881844036281109">
        <ele>565.87</ele>
        <time>2025-05-09T11:19:45Z</time>
      </trkpt>
      <trkpt lat="36.735338028520346" lon="-4.881423013284802">
        <ele>562.50999999999999</ele>
        <time>2025-05-09T11:19:47Z</time>
      </trkpt>
      <trkpt lat="36.735396031290293" lon="-4.88122696056962">
        <ele>561.07000000000005</ele>
        <time>2025-05-09T11:19:48Z</time>
      </trkpt>
      <trkpt lat="36.735726026818156" lon="-4.880464039742947">
        <ele>555.29999999999995</ele>
        <time>2025-05-09T11:19:53Z</time>
      </trkpt>
      <trkpt lat="36.735786963254213" lon="-4.880374018102884">
        <ele>554.82000000000005</ele>
        <time>2025-05-09T11:19:54Z</time>
      </trkpt>
      <trkpt lat="36.735849995166063" lon="-4.88032003864646">
        <ele>554.34000000000003</ele>
        <time>2025-05-09T11:19:55Z</time>
      </trkpt>
      <trkpt lat="36.735917972400784" lon="-4.880293970927596">
        <ele>553.86000000000001</ele>
        <time>2025-05-09T11:19:56Z</time>
      </trkpt>
      <trkpt lat="36.735986033454537" lon="-4.880268992856145">
        <ele>553.38</ele>
        <time>2025-05-09T11:19:57Z</time>
      </trkpt>
      <trkpt lat="36.73605996184051" lon="-4.880287013947964">
        <ele>552.89999999999998</ele>
        <time>2025-05-09T11:19:58Z</time>
      </trkpt>
      <trkpt lat="36.736106984317303" lon="-4.880336970090866">
        <ele>552.40999999999997</ele>
        <time>2025-05-09T11:19:59Z</time>
      </trkpt>
      <trkpt lat="36.736159035935998" lon="-4.880406958982348">
        <ele>551.45000000000005</ele>
        <time>2025-05-09T11:20:00Z</time>
      </trkpt>
      <trkpt lat="36.736202035099268" lon="-4.880466973409057">
        <ele>550.97000000000003</ele>
        <time>2025-05-09T11:20:01Z</time>
      </trkpt>
      <trkpt lat="36.73623195849359" lon="-4.880571998655796">
        <ele>550.00999999999999</ele>
        <time>2025-05-09T11:20:02Z</time>
      </trkpt>
      <trkpt lat="36.736264983192086" lon="-4.880685992538929">
        <ele>549.52999999999997</ele>
        <time>2025-05-09T11:20:03Z</time>
      </trkpt>
      <trkpt lat="36.736300019547343" lon="-4.880806021392345">
        <ele>548.57000000000005</ele>
        <time>2025-05-09T11:20:04Z</time>
      </trkpt>
      <trkpt lat="36.73633698374033" lon="-4.880934013053775">
        <ele>548.09000000000003</ele>
        <time>2025-05-09T11:20:05Z</time>
      </trkpt>
      <trkpt lat="36.736374031752348" lon="-4.881059993058443">
        <ele>547.13</ele>
        <time>2025-05-09T11:20:06Z</time>
      </trkpt>
      <trkpt lat="36.736431028693914" lon="-4.881177004426718">
        <ele>546.16999999999996</ele>
        <time>2025-05-09T11:20:07Z</time>
      </trkpt>
      <trkpt lat="36.736510992050171" lon="-4.88124598748982">
        <ele>545.20000000000005</ele>
        <time>2025-05-09T11:20:08Z</time>
      </trkpt>
      <trkpt lat="36.736591961234808" lon="-4.881297033280134">
        <ele>544.24000000000001</ele>
        <time>2025-05-09T11:20:09Z</time>
      </trkpt>
      <trkpt lat="36.736671002581716" lon="-4.881308013573289">
        <ele>543.75999999999999</ele>
        <time>2025-05-09T11:20:10Z</time>
      </trkpt>
      <trkpt lat="36.736760018393397" lon="-4.881281023845077">
        <ele>543.27999999999997</ele>
        <time>2025-05-09T11:20:11Z</time>
      </trkpt>
      <trkpt lat="36.73685004003346" lon="-4.881247999146581">
        <ele>543.27999999999997</ele>
        <time>2025-05-09T11:20:12Z</time>
      </trkpt>
      <trkpt lat="36.736922962591052" lon="-4.881143979728222">
        <ele>542.79999999999995</ele>
        <time>2025-05-09T11:20:13Z</time>
      </trkpt>
      <trkpt lat="36.73700300976634" lon="-4.88103199750185">
        <ele>542.32000000000005</ele>
        <time>2025-05-09T11:20:14Z</time>
      </trkpt>
      <trkpt lat="36.737083978950977" lon="-4.880916997790337">
        <ele>542.32000000000005</ele>
        <time>2025-05-09T11:20:15Z</time>
      </trkpt>
      <trkpt lat="36.737234015017748" lon="-4.88070703111589">
        <ele>541.84000000000003</ele>
        <time>2025-05-09T11:20:17Z</time>
      </trkpt>
      <trkpt lat="36.737315990030766" lon="-4.880590019747615">
        <ele>541.84000000000003</ele>
        <time>2025-05-09T11:20:18Z</time>
      </trkpt>
      <trkpt lat="36.737380027770996" lon="-4.880568981170654">
        <ele>541.84000000000003</ele>
        <time>2025-05-09T11:20:19Z</time>
      </trkpt>
      <trkpt lat="36.73749502748251" lon="-4.880592031404376">
        <ele>541.84000000000003</ele>
        <time>2025-05-09T11:20:20Z</time>
      </trkpt>
      <trkpt lat="36.737595023587346" lon="-4.880611980333924">
        <ele>541.84000000000003</ele>
        <time>2025-05-09T11:20:21Z</time>
      </trkpt>
      <trkpt lat="36.737684961408377" lon="-4.880676018074155">
        <ele>541.36000000000001</ele>
        <time>2025-05-09T11:20:22Z</time>
      </trkpt>
      <trkpt lat="36.737786969169974" lon="-4.880748018622398">
        <ele>540.88</ele>
        <time>2025-05-09T11:20:23Z</time>
      </trkpt>
      <trkpt lat="36.737896017730236" lon="-4.880823036655784">
        <ele>540.39999999999998</ele>
        <time>2025-05-09T11:20:24Z</time>
      </trkpt>
      <trkpt lat="36.738125011324883" lon="-4.880972988903523">
        <ele>539.44000000000005</ele>
        <time>2025-05-09T11:20:26Z</time>
      </trkpt>
      <trkpt lat="36.738245040178299" lon="-4.881042977795005">
        <ele>538.96000000000004</ele>
        <time>2025-05-09T11:20:27Z</time>
      </trkpt>
      <trkpt lat="36.738370014354587" lon="-4.881084971129894">
        <ele>537.99000000000001</ele>
        <time>2025-05-09T11:20:28Z</time>
      </trkpt>
      <trkpt lat="36.738490965217352" lon="-4.881093017756939">
        <ele>537.02999999999997</ele>
        <time>2025-05-09T11:20:29Z</time>
      </trkpt>
      <trkpt lat="36.738603031262755" lon="-4.881068039685488">
        <ele>536.54999999999995</ele>
        <time>2025-05-09T11:20:30Z</time>
      </trkpt>
      <trkpt lat="36.738697998225689" lon="-4.88100802525878">
        <ele>535.59000000000003</ele>
        <time>2025-05-09T11:20:31Z</time>
      </trkpt>
      <trkpt lat="36.738787014037371" lon="-4.880940970033407">
        <ele>534.63</ele>
        <time>2025-05-09T11:20:32Z</time>
      </trkpt>
      <trkpt lat="36.738836970180273" lon="-4.880834016948938">
        <ele>533.66999999999996</ele>
        <time>2025-05-09T11:20:33Z</time>
      </trkpt>
      <trkpt lat="36.738882986828685" lon="-4.880717005580664">
        <ele>533.19000000000005</ele>
        <time>2025-05-09T11:20:34Z</time>
      </trkpt>
      <trkpt lat="36.738910982385278" lon="-4.880591025575995">
        <ele>531.75</ele>
        <time>2025-05-09T11:20:35Z</time>
      </trkpt>
      <trkpt lat="36.738908970728517" lon="-4.880450963973999">
        <ele>530.78999999999996</ele>
        <time>2025-05-09T11:20:36Z</time>
      </trkpt>
      <trkpt lat="36.738869994878769" lon="-4.880304029211402">
        <ele>529.82000000000005</ele>
        <time>2025-05-09T11:20:37Z</time>
      </trkpt>
      <trkpt lat="36.738796988502145" lon="-4.880139995366335">
        <ele>528.86000000000001</ele>
        <time>2025-05-09T11:20:38Z</time>
      </trkpt>
      <trkpt lat="36.738703027367592" lon="-4.880035975947976">
        <ele>527.41999999999996</ele>
        <time>2025-05-09T11:20:39Z</time>
      </trkpt>
      <trkpt lat="36.738604959100485" lon="-4.879927011206746">
        <ele>526.46000000000004</ele>
        <time>2025-05-09T11:20:40Z</time>
      </trkpt>
      <trkpt lat="36.73846397548914" lon="-4.87967798486352">
        <ele>524.05999999999995</ele>
        <time>2025-05-09T11:20:42Z</time>
      </trkpt>
      <trkpt lat="36.738409996032715" lon="-4.879580000415444">
        <ele>523.58000000000004</ele>
        <time>2025-05-09T11:20:43Z</time>
      </trkpt>
      <trkpt lat="36.73839901573956" lon="-4.879453014582396">
        <ele>522.61000000000001</ele>
        <time>2025-05-09T11:20:44Z</time>
      </trkpt>
      <trkpt lat="36.738389041274786" lon="-4.879345977678895">
        <ele>521.64999999999998</ele>
        <time>2025-05-09T11:20:45Z</time>
      </trkpt>
      <trkpt lat="36.738445032387972" lon="-4.87922603264451">
        <ele>520.69000000000005</ele>
        <time>2025-05-09T11:20:46Z</time>
      </trkpt>
      <trkpt lat="36.738499011844397" lon="-4.879109021276236">
        <ele>519.73000000000002</ele>
        <time>2025-05-09T11:20:47Z</time>
      </trkpt>
      <trkpt lat="36.738558020442724" lon="-4.87901397049427">
        <ele>518.76999999999998</ele>
        <time>2025-05-09T11:20:48Z</time>
      </trkpt>
      <trkpt lat="36.738665979355574" lon="-4.878955967724323">
        <ele>518.28999999999996</ele>
        <time>2025-05-09T11:20:49Z</time>
      </trkpt>
      <trkpt lat="36.738783996552229" lon="-4.878894025459886">
        <ele>516.85000000000002</ele>
        <time>2025-05-09T11:20:50Z</time>
      </trkpt>
      <trkpt lat="36.73891399987042" lon="-4.878843985497952">
        <ele>515.88</ele>
        <time>2025-05-09T11:20:51Z</time>
      </trkpt>
      <trkpt lat="36.739160008728504" lon="-4.878766033798456">
        <ele>513.96000000000004</ele>
        <time>2025-05-09T11:20:53Z</time>
      </trkpt>
      <trkpt lat="36.739268973469734" lon="-4.878724040463567">
        <ele>512.51999999999998</ele>
        <time>2025-05-09T11:20:54Z</time>
      </trkpt>
      <trkpt lat="36.739362012594938" lon="-4.878617003560066">
        <ele>511.56</ele>
        <time>2025-05-09T11:20:55Z</time>
      </trkpt>
      <trkpt lat="36.739434013143182" lon="-4.878523964434862">
        <ele>510.60000000000002</ele>
        <time>2025-05-09T11:20:56Z</time>
      </trkpt>
      <trkpt lat="36.739487992599607" lon="-4.878427991643548">
        <ele>510.12</ele>
        <time>2025-05-09T11:20:57Z</time>
      </trkpt>
      <trkpt lat="36.739525962620974" lon="-4.87834501080215">
        <ele>509.16000000000003</ele>
        <time>2025-05-09T11:20:58Z</time>
      </trkpt>
      <trkpt lat="36.739525962620974" lon="-4.878244008868933">
        <ele>508.67000000000002</ele>
        <time>2025-05-09T11:20:59Z</time>
      </trkpt>
      <trkpt lat="36.739525962620974" lon="-4.878122974187136">
        <ele>508.19</ele>
        <time>2025-05-09T11:21:00Z</time>
      </trkpt>
      <trkpt lat="36.739482041448355" lon="-4.878022978082299">
        <ele>507.23000000000002</ele>
        <time>2025-05-09T11:21:01Z</time>
      </trkpt>
      <trkpt lat="36.739413980394602" lon="-4.877907978370786">
        <ele>506.75</ele>
        <time>2025-05-09T11:21:02Z</time>
      </trkpt>
      <trkpt lat="36.739319013431668" lon="-4.877824997529388">
        <ele>506.26999999999998</ele>
        <time>2025-05-09T11:21:03Z</time>
      </trkpt>
      <trkpt lat="36.739202002063394" lon="-4.877795996144414">
        <ele>505.79000000000002</ele>
        <time>2025-05-09T11:21:04Z</time>
      </trkpt>
      <trkpt lat="36.739071998745203" lon="-4.877789039164782">
        <ele>505.31</ele>
        <time>2025-05-09T11:21:05Z</time>
      </trkpt>
      <trkpt lat="36.738935960456729" lon="-4.877780992537737">
        <ele>504.82999999999998</ele>
        <time>2025-05-09T11:21:06Z</time>
      </trkpt>
      <trkpt lat="36.738796988502145" lon="-4.87778602167964">
        <ele>504.82999999999998</ele>
        <time>2025-05-09T11:21:07Z</time>
      </trkpt>
      <trkpt lat="36.737995008006692" lon="-4.87778602167964">
        <ele>500.01999999999998</ele>
        <time>2025-05-09T11:21:13Z</time>
      </trkpt>
      <trkpt lat="36.737894006073475" lon="-4.877735981717706">
        <ele>499.06</ele>
        <time>2025-05-09T11:21:14Z</time>
      </trkpt>
      <trkpt lat="36.737831979990005" lon="-4.877670016139746">
        <ele>498.10000000000002</ele>
        <time>2025-05-09T11:21:15Z</time>
      </trkpt>
      <trkpt lat="36.737785963341594" lon="-4.877569014206529">
        <ele>497.62</ele>
        <time>2025-05-09T11:21:16Z</time>
      </trkpt>
      <trkpt lat="36.737735001370311" lon="-4.877454014495015">
        <ele>497.13999999999999</ele>
        <time>2025-05-09T11:21:17Z</time>
      </trkpt>
      <trkpt lat="36.737678004428744" lon="-4.877329040318728">
        <ele>496.66000000000003</ele>
        <time>2025-05-09T11:21:18Z</time>
      </trkpt>
      <trkpt lat="36.737620001658797" lon="-4.877199959009886">
        <ele>496.18000000000001</ele>
        <time>2025-05-09T11:21:19Z</time>
      </trkpt>
      <trkpt lat="36.737559987232089" lon="-4.877068027853966">
        <ele>495.22000000000003</ele>
        <time>2025-05-09T11:21:20Z</time>
      </trkpt>
      <trkpt lat="36.737460996955633" lon="-4.876966020092368">
        <ele>494.25999999999999</ele>
        <time>2025-05-09T11:21:21Z</time>
      </trkpt>
      <trkpt lat="36.737358989194036" lon="-4.876871975138784">
        <ele>493.29000000000002</ele>
        <time>2025-05-09T11:21:22Z</time>
      </trkpt>
      <trkpt lat="36.737272990867496" lon="-4.876792011782527">
        <ele>492.32999999999998</ele>
        <time>2025-05-09T11:21:23Z</time>
      </trkpt>
      <trkpt lat="36.73715204000473" lon="-4.876792011782527">
        <ele>491.85000000000002</ele>
        <time>2025-05-09T11:21:24Z</time>
      </trkpt>
      <trkpt lat="36.737039973959327" lon="-4.876792011782527">
        <ele>490.88999999999999</ele>
        <time>2025-05-09T11:21:25Z</time>
      </trkpt>
      <trkpt lat="36.736935032531619" lon="-4.876812966540456">
        <ele>490.41000000000003</ele>
        <time>2025-05-09T11:21:26Z</time>
      </trkpt>
      <trkpt lat="36.73683101311326" lon="-4.876869041472673">
        <ele>489.93000000000001</ele>
        <time>2025-05-09T11:21:27Z</time>
      </trkpt>
      <trkpt lat="36.736725987866521" lon="-4.87692603841424">
        <ele>489.44999999999999</ele>
        <time>2025-05-09T11:21:28Z</time>
      </trkpt>
      <trkpt lat="36.736618028953671" lon="-4.876957973465323">
        <ele>488.49000000000001</ele>
        <time>2025-05-09T11:21:29Z</time>
      </trkpt>
      <trkpt lat="36.736478973180056" lon="-4.876985969021916">
        <ele>488.00999999999999</ele>
        <time>2025-05-09T11:21:30Z</time>
      </trkpt>
      <trkpt lat="36.736383000388741" lon="-4.876985969021916">
        <ele>487.05000000000001</ele>
        <time>2025-05-09T11:21:31Z</time>
      </trkpt>
      <trkpt lat="36.736038001254201" lon="-4.876925032585859">
        <ele>485.12</ele>
        <time>2025-05-09T11:21:34Z</time>
      </trkpt>
      <trkpt lat="36.735963989049196" lon="-4.876899970695376">
        <ele>484.16000000000003</ele>
        <time>2025-05-09T11:21:35Z</time>
      </trkpt>
      <trkpt lat="36.735898023471236" lon="-4.876768039539456">
        <ele>483.68000000000001</ele>
        <time>2025-05-09T11:21:36Z</time>
      </trkpt>
      <trkpt lat="36.735847983509302" lon="-4.876667959615588">
        <ele>482.72000000000003</ele>
        <time>2025-05-09T11:21:37Z</time>
      </trkpt>
      <trkpt lat="36.735812025144696" lon="-4.876567041501403">
        <ele>482.24000000000001</ele>
        <time>2025-05-09T11:21:38Z</time>
      </trkpt>
      <trkpt lat="36.73580196686089" lon="-4.876439971849322">
        <ele>482.24000000000001</ele>
        <time>2025-05-09T11:21:39Z</time>
      </trkpt>
      <trkpt lat="36.735795009881258" lon="-4.876303011551499">
        <ele>481.75999999999999</ele>
        <time>2025-05-09T11:21:40Z</time>
      </trkpt>
      <trkpt lat="36.735815964639187" lon="-4.876164961606264">
        <ele>481.27999999999997</ele>
        <time>2025-05-09T11:21:41Z</time>
      </trkpt>
      <trkpt lat="36.735835997387767" lon="-4.876040993258357">
        <ele>480.80000000000001</ele>
        <time>2025-05-09T11:21:42Z</time>
      </trkpt>
      <trkpt lat="36.735903974622488" lon="-4.875928005203605">
        <ele>480.80000000000001</ele>
        <time>2025-05-09T11:21:43Z</time>
      </trkpt>
      <trkpt lat="36.73597102984786" lon="-4.875820968300104">
        <ele>480.31999999999999</ele>
        <time>2025-05-09T11:21:44Z</time>
      </trkpt>
      <trkpt lat="36.736060967668891" lon="-4.875730024650693">
        <ele>480.31999999999999</ele>
        <time>2025-05-09T11:21:45Z</time>
      </trkpt>
      <trkpt lat="36.736153000965714" lon="-4.87563899718225">
        <ele>480.31999999999999</ele>
        <time>2025-05-09T11:21:46Z</time>
      </trkpt>
      <trkpt lat="36.736975014209747" lon="-4.874725034460425">
        <ele>477.43000000000001</ele>
        <time>2025-05-09T11:21:54Z</time>
      </trkpt>
      <trkpt lat="36.737229991704226" lon="-4.874410964548588">
        <ele>475.02999999999997</ele>
        <time>2025-05-09T11:21:57Z</time>
      </trkpt>
      <trkpt lat="36.737252036109567" lon="-4.874304011464119">
        <ele>474.06999999999999</ele>
        <time>2025-05-09T11:21:58Z</time>
      </trkpt>
      <trkpt lat="36.737269973382354" lon="-4.874210972338915">
        <ele>473.11000000000001</ele>
        <time>2025-05-09T11:21:59Z</time>
      </trkpt>
      <trkpt lat="36.737252958118916" lon="-4.874136038124561">
        <ele>472.63</ele>
        <time>2025-05-09T11:22:00Z</time>
      </trkpt>
      <trkpt lat="36.737223034724593" lon="-4.874044004827738">
        <ele>471.66000000000003</ele>
        <time>2025-05-09T11:22:01Z</time>
      </trkpt>
      <trkpt lat="36.737185986712575" lon="-4.873937973752618">
        <ele>470.69999999999999</ele>
        <time>2025-05-09T11:22:02Z</time>
      </trkpt>
      <trkpt lat="36.737106023356318" lon="-4.873916013166308">
        <ele>469.74000000000001</ele>
        <time>2025-05-09T11:22:03Z</time>
      </trkpt>
      <trkpt lat="36.737018013373017" lon="-4.873892962932587">
        <ele>468.77999999999997</ele>
        <time>2025-05-09T11:22:04Z</time>
      </trkpt>
      <trkpt lat="36.736919023096561" lon="-4.873895980417728">
        <ele>467.81999999999999</ele>
        <time>2025-05-09T11:22:05Z</time>
      </trkpt>
      <trkpt lat="36.736832018941641" lon="-4.873957000672817">
        <ele>467.33999999999997</ele>
        <time>2025-05-09T11:22:06Z</time>
      </trkpt>
      <trkpt lat="36.736736968159676" lon="-4.874022966250777">
        <ele>466.38</ele>
        <time>2025-05-09T11:22:07Z</time>
      </trkpt>
      <trkpt lat="36.736632026731968" lon="-4.874088009819388">
        <ele>465.42000000000002</ele>
        <time>2025-05-09T11:22:08Z</time>
      </trkpt>
      <trkpt lat="36.736506968736649" lon="-4.874121034517884">
        <ele>464.44999999999999</ele>
        <time>2025-05-09T11:22:09Z</time>
      </trkpt>
      <trkpt lat="36.736070020124316" lon="-4.874179037287831">
        <ele>463.49000000000001</ele>
        <time>2025-05-09T11:22:12Z</time>
      </trkpt>
      <trkpt lat="36.735621001571417" lon="-4.874238967895508">
        <ele>462.05000000000001</ele>
        <time>2025-05-09T11:22:15Z</time>
      </trkpt>
      <trkpt lat="36.735470965504646" lon="-4.874260006472468">
        <ele>461.56999999999999</ele>
        <time>2025-05-09T11:22:16Z</time>
      </trkpt>
      <trkpt lat="36.734763029962778" lon="-4.874539040029049">
        <ele>457.24000000000001</ele>
        <time>2025-05-09T11:22:22Z</time>
      </trkpt>
      <trkpt lat="36.734664039686322" lon="-4.874509032815695">
        <ele>456.75999999999999</ele>
        <time>2025-05-09T11:22:23Z</time>
      </trkpt>
      <trkpt lat="36.734576029703021" lon="-4.874481959268451">
        <ele>455.80000000000001</ele>
        <time>2025-05-09T11:22:24Z</time>
      </trkpt>
      <trkpt lat="36.7344890255481" lon="-4.874454969540238">
        <ele>454.83999999999997</ele>
        <time>2025-05-09T11:22:25Z</time>
      </trkpt>
      <trkpt lat="36.734417024999857" lon="-4.874386992305517">
        <ele>453.88</ele>
        <time>2025-05-09T11:22:26Z</time>
      </trkpt>
      <trkpt lat="36.734358016401529" lon="-4.874298982322216">
        <ele>452.92000000000002</ele>
        <time>2025-05-09T11:22:27Z</time>
      </trkpt>
      <trkpt lat="36.734308982267976" lon="-4.874178031459451">
        <ele>452.44</ele>
        <time>2025-05-09T11:22:28Z</time>
      </trkpt>
      <trkpt lat="36.734257014468312" lon="-4.87404802814126">
        <ele>451.48000000000002</ele>
        <time>2025-05-09T11:22:29Z</time>
      </trkpt>
      <trkpt lat="36.734203035011888" lon="-4.873911989852786">
        <ele>450.51999999999998</ele>
        <time>2025-05-09T11:22:30Z</time>
      </trkpt>
      <trkpt lat="36.734135979786515" lon="-4.873783998191357">
        <ele>449.55000000000001</ele>
        <time>2025-05-09T11:22:31Z</time>
      </trkpt>
      <trkpt lat="36.734042018651962" lon="-4.873690037056804">
        <ele>448.58999999999997</ele>
        <time>2025-05-09T11:22:32Z</time>
      </trkpt>
      <trkpt lat="36.733945040032268" lon="-4.873593980446458">
        <ele>447.63</ele>
        <time>2025-05-09T11:22:33Z</time>
      </trkpt>
      <trkpt lat="36.73384303227067" lon="-4.873494990170002">
        <ele>446.67000000000002</ele>
        <time>2025-05-09T11:22:34Z</time>
      </trkpt>
      <trkpt lat="36.733732977882028" lon="-4.873411003500223">
        <ele>445.70999999999998</ele>
        <time>2025-05-09T11:22:35Z</time>
      </trkpt>
      <trkpt lat="36.732911970466375" lon="-4.872841034084559">
        <ele>439.45999999999998</ele>
        <time>2025-05-09T11:22:42Z</time>
      </trkpt>
      <trkpt lat="36.732784984633327" lon="-4.872805997729302">
        <ele>438.5</ele>
        <time>2025-05-09T11:22:43Z</time>
      </trkpt>
      <trkpt lat="36.732665039598942" lon="-4.872811026871204">
        <ele>437.54000000000002</ele>
        <time>2025-05-09T11:22:44Z</time>
      </trkpt>
      <trkpt lat="36.732171010226011" lon="-4.872788982465863">
        <ele>433.69</ele>
        <time>2025-05-09T11:22:48Z</time>
      </trkpt>
      <trkpt lat="36.732079982757568" lon="-4.87278001382947">
        <ele>432.73000000000002</ele>
        <time>2025-05-09T11:22:49Z</time>
      </trkpt>
      <trkpt lat="36.731972023844719" lon="-4.872680017724633">
        <ele>431.76999999999998</ele>
        <time>2025-05-09T11:22:50Z</time>
      </trkpt>
      <trkpt lat="36.731880996376276" lon="-4.872595025226474">
        <ele>430.81</ele>
        <time>2025-05-09T11:22:51Z</time>
      </trkpt>
      <trkpt lat="36.731796003878117" lon="-4.872511960566044">
        <ele>429.85000000000002</ele>
        <time>2025-05-09T11:22:52Z</time>
      </trkpt>
      <trkpt lat="36.731730038300157" lon="-4.872380029410124">
        <ele>428.88999999999999</ele>
        <time>2025-05-09T11:22:53Z</time>
      </trkpt>
      <trkpt lat="36.731660971418023" lon="-4.872240973636508">
        <ele>427.92000000000002</ele>
        <time>2025-05-09T11:22:54Z</time>
      </trkpt>
      <trkpt lat="36.731592994183302" lon="-4.87209496088326">
        <ele>427.44</ele>
        <time>2025-05-09T11:22:55Z</time>
      </trkpt>
      <trkpt lat="36.731408005580306" lon="-4.871647031977773">
        <ele>425.04000000000002</ele>
        <time>2025-05-09T11:22:58Z</time>
      </trkpt>
      <trkpt lat="36.731324018910527" lon="-4.871534965932369">
        <ele>424.07999999999998</ele>
        <time>2025-05-09T11:22:59Z</time>
      </trkpt>
      <trkpt lat="36.731243971735239" lon="-4.8714280128479">
        <ele>423.12</ele>
        <time>2025-05-09T11:23:00Z</time>
      </trkpt>
      <trkpt lat="36.731149004772305" lon="-4.871359029784799">
        <ele>422.16000000000003</ele>
        <time>2025-05-09T11:23:01Z</time>
      </trkpt>
      <trkpt lat="36.731057977303863" lon="-4.871291974559426">
        <ele>421.19</ele>
        <time>2025-05-09T11:23:02Z</time>
      </trkpt>
      <trkpt lat="36.730966027826071" lon="-4.871223997324705">
        <ele>420.23000000000002</ele>
        <time>2025-05-09T11:23:03Z</time>
      </trkpt>
      <trkpt lat="36.730880029499531" lon="-4.871142022311688">
        <ele>419.26999999999998</ele>
        <time>2025-05-09T11:23:04Z</time>
      </trkpt>
      <trkpt lat="36.730799982324243" lon="-4.871043032035232">
        <ele>418.79000000000002</ele>
        <time>2025-05-09T11:23:05Z</time>
      </trkpt>
      <trkpt lat="36.730726975947618" lon="-4.870953010395169">
        <ele>418.31</ele>
        <time>2025-05-09T11:23:06Z</time>
      </trkpt>
      <trkpt lat="36.730676013976336" lon="-4.870830969884992">
        <ele>417.82999999999998</ele>
        <time>2025-05-09T11:23:07Z</time>
      </trkpt>
      <trkpt lat="36.73062102869153" lon="-4.870701972395182">
        <ele>417.35000000000002</ele>
        <time>2025-05-09T11:23:08Z</time>
      </trkpt>
      <trkpt lat="36.730565959587693" lon="-4.870570963248611">
        <ele>416.38999999999999</ele>
        <time>2025-05-09T11:23:09Z</time>
      </trkpt>
      <trkpt lat="36.730508962646127" lon="-4.87043802626431">
        <ele>415.91000000000003</ele>
        <time>2025-05-09T11:23:10Z</time>
      </trkpt>
      <trkpt lat="36.730424975976348" lon="-4.870308022946119">
        <ele>414.94999999999999</ele>
        <time>2025-05-09T11:23:11Z</time>
      </trkpt>
      <trkpt lat="36.730094980448484" lon="-4.869867973029614">
        <ele>412.06</ele>
        <time>2025-05-09T11:23:15Z</time>
      </trkpt>
      <trkpt lat="36.73004200682044" lon="-4.869796978309751">
        <ele>411.10000000000002</ele>
        <time>2025-05-09T11:23:16Z</time>
      </trkpt>
      <trkpt lat="36.730045024305582" lon="-4.869680972769857">
        <ele>410.62</ele>
        <time>2025-05-09T11:23:17Z</time>
      </trkpt>
      <trkpt lat="36.730048041790724" lon="-4.869562033563852">
        <ele>409.66000000000003</ele>
        <time>2025-05-09T11:23:18Z</time>
      </trkpt>
      <trkpt lat="36.730051981285214" lon="-4.869437981396914">
        <ele>409.18000000000001</ele>
        <time>2025-05-09T11:23:19Z</time>
      </trkpt>
      <trkpt lat="36.730056004598737" lon="-4.869306972250342">
        <ele>408.22000000000003</ele>
        <time>2025-05-09T11:23:20Z</time>
      </trkpt>
      <trkpt lat="36.730059022083879" lon="-4.869174035266042">
        <ele>407.74000000000001</ele>
        <time>2025-05-09T11:23:21Z</time>
      </trkpt>
      <trkpt lat="36.730062961578369" lon="-4.869025005027652">
        <ele>407.25999999999999</ele>
        <time>2025-05-09T11:23:22Z</time>
      </trkpt>
      <trkpt lat="36.730008982121944" lon="-4.868916040286422">
        <ele>406.29000000000002</ele>
        <time>2025-05-09T11:23:23Z</time>
      </trkpt>
      <trkpt lat="36.729948967695236" lon="-4.868801962584257">
        <ele>405.81</ele>
        <time>2025-05-09T11:23:24Z</time>
      </trkpt>
      <trkpt lat="36.729866992682219" lon="-4.868706995621324">
        <ele>404.85000000000002</ele>
        <time>2025-05-09T11:23:25Z</time>
      </trkpt>
      <trkpt lat="36.729770014062524" lon="-4.868624014779925">
        <ele>404.37</ele>
        <time>2025-05-09T11:23:26Z</time>
      </trkpt>
      <trkpt lat="36.729656020179391" lon="-4.868553020060062">
        <ele>403.88999999999999</ele>
        <time>2025-05-09T11:23:27Z</time>
      </trkpt>
      <trkpt lat="36.729196021333337" lon="-4.868157980963588">
        <ele>401.49000000000001</ele>
        <time>2025-05-09T11:23:32Z</time>
      </trkpt>
      <trkpt lat="36.729141036048532" lon="-4.868081035092473">
        <ele>401.00999999999999</ele>
        <time>2025-05-09T11:23:33Z</time>
      </trkpt>
      <trkpt lat="36.729141036048532" lon="-4.867985984310508">
        <ele>401.00999999999999</ele>
        <time>2025-05-09T11:23:34Z</time>
      </trkpt>
      <trkpt lat="36.729141036048532" lon="-4.867887999862433">
        <ele>401.49000000000001</ele>
        <time>2025-05-09T11:23:35Z</time>
      </trkpt>
      <trkpt lat="36.729170037433505" lon="-4.867806024849415">
        <ele>401.97000000000003</ele>
        <time>2025-05-09T11:23:36Z</time>
      </trkpt>
      <trkpt lat="36.729205995798111" lon="-4.867706028744578">
        <ele>401.97000000000003</ele>
        <time>2025-05-09T11:23:37Z</time>
      </trkpt>
      <trkpt lat="36.729247989133" lon="-4.867587005719543">
        <ele>401.97000000000003</ele>
        <time>2025-05-09T11:23:38Z</time>
      </trkpt>
      <trkpt lat="36.729291994124651" lon="-4.867509976029396">
        <ele>401.49000000000001</ele>
        <time>2025-05-09T11:23:39Z</time>
      </trkpt>
      <trkpt lat="36.729578990489244" lon="-4.866950986906886">
        <ele>398.12</ele>
        <time>2025-05-09T11:23:44Z</time>
      </trkpt>
      <trkpt lat="36.729621989652514" lon="-4.866811009123921">
        <ele>397.16000000000003</ele>
        <time>2025-05-09T11:23:45Z</time>
      </trkpt>
      <trkpt lat="36.729628024622798" lon="-4.866675976663828">
        <ele>396.68000000000001</ele>
        <time>2025-05-09T11:23:46Z</time>
      </trkpt>
      <trkpt lat="36.729618972167373" lon="-4.866541028022766">
        <ele>395.72000000000003</ele>
        <time>2025-05-09T11:23:47Z</time>
      </trkpt>
      <trkpt lat="36.72961100935936" lon="-4.866413958370686">
        <ele>395.24000000000001</ele>
        <time>2025-05-09T11:23:48Z</time>
      </trkpt>
      <trkpt lat="36.729602962732315" lon="-4.866289990022779">
        <ele>394.27999999999997</ele>
        <time>2025-05-09T11:23:49Z</time>
      </trkpt>
      <trkpt lat="36.729478994384408" lon="-4.865456996485591">
        <ele>388.02999999999997</ele>
        <time>2025-05-09T11:23:57Z</time>
      </trkpt>
      <trkpt lat="36.729456027969718" lon="-4.865375021472573">
        <ele>387.55000000000001</ele>
        <time>2025-05-09T11:23:58Z</time>
      </trkpt>
      <trkpt lat="36.729432977735996" lon="-4.865293968468905">
        <ele>386.58999999999997</ele>
        <time>2025-05-09T11:23:59Z</time>
      </trkpt>
      <trkpt lat="36.729291994124651" lon="-4.865008983761072">
        <ele>382.74000000000001</ele>
        <time>2025-05-09T11:24:03Z</time>
      </trkpt>
      <trkpt lat="36.729256035760045" lon="-4.864941006526351">
        <ele>382.25999999999999</ele>
        <time>2025-05-09T11:24:04Z</time>
      </trkpt>
      <trkpt lat="36.729041961953044" lon="-4.86483396962285">
        <ele>379.86000000000001</ele>
        <time>2025-05-09T11:24:07Z</time>
      </trkpt>
      <trkpt lat="36.729012038558722" lon="-4.864757023751736">
        <ele>378.89999999999998</ele>
        <time>2025-05-09T11:24:08Z</time>
      </trkpt>
      <trkpt lat="36.729012038558722" lon="-4.864692986011505">
        <ele>378.89999999999998</ele>
        <time>2025-05-09T11:24:09Z</time>
      </trkpt>
      <trkpt lat="36.729012038558722" lon="-4.864689968526363">
        <ele>378.42000000000002</ele>
        <time>2025-05-09T11:24:10Z</time>
      </trkpt>
      <trkpt lat="36.729026036337018" lon="-4.864514032378793">
        <ele>377.94</ele>
        <time>2025-05-09T11:24:11Z</time>
      </trkpt>
      <trkpt lat="36.728983959183097" lon="-4.864438008517027">
        <ele>377.44999999999999</ele>
        <time>2025-05-09T11:24:12Z</time>
      </trkpt>
      <trkpt lat="36.728939032182097" lon="-4.864354021847248">
        <ele>377.44999999999999</ele>
        <time>2025-05-09T11:24:13Z</time>
      </trkpt>
      <trkpt lat="36.728891003876925" lon="-4.864266011863947">
        <ele>377.44999999999999</ele>
        <time>2025-05-09T11:24:14Z</time>
      </trkpt>
      <trkpt lat="36.728791007772088" lon="-4.864096026867628">
        <ele>377.44999999999999</ele>
        <time>2025-05-09T11:24:16Z</time>
      </trkpt>
      <trkpt lat="36.728576011955738" lon="-4.863814981654286">
        <ele>378.42000000000002</ele>
        <time>2025-05-09T11:24:20Z</time>
      </trkpt>
      <trkpt lat="36.728058010339737" lon="-4.863195978105068">
        <ele>379.38</ele>
        <time>2025-05-09T11:24:30Z</time>
      </trkpt>
      <trkpt lat="36.72748401761055" lon="-4.86248997040093">
        <ele>378.89999999999998</ele>
        <time>2025-05-09T11:24:41Z</time>
      </trkpt>
      <trkpt lat="36.727424003183842" lon="-4.862334989011288">
        <ele>378.89999999999998</ele>
        <time>2025-05-09T11:24:43Z</time>
      </trkpt>
      <trkpt lat="36.727273967117071" lon="-4.861943973228335">
        <ele>379.38</ele>
        <time>2025-05-09T11:24:48Z</time>
      </trkpt>
      <trkpt lat="36.727276984602213" lon="-4.861892005428672">
        <ele>378.89999999999998</ele>
        <time>2025-05-09T11:24:49Z</time>
      </trkpt>
      <trkpt lat="36.727281007915735" lon="-4.861827967688441">
        <ele>379.38</ele>
        <time>2025-05-09T11:24:50Z</time>
      </trkpt>
      <trkpt lat="36.727288970723748" lon="-4.861681032925844">
        <ele>379.86000000000001</ele>
        <time>2025-05-09T11:24:52Z</time>
      </trkpt>
      <trkpt lat="36.727295005694032" lon="-4.861579025164247">
        <ele>379.86000000000001</ele>
        <time>2025-05-09T11:24:53Z</time>
      </trkpt>
      <trkpt lat="36.727292994037271" lon="-4.861538037657738">
        <ele>380.33999999999997</ele>
        <time>2025-05-09T11:24:54Z</time>
      </trkpt>
      <trkpt lat="36.727282013744116" lon="-4.861294040456414">
        <ele>380.33999999999997</ele>
        <time>2025-05-09T11:24:57Z</time>
      </trkpt>
      <trkpt lat="36.727273967117071" lon="-4.861127994954586">
        <ele>380.81999999999999</ele>
        <time>2025-05-09T11:24:59Z</time>
      </trkpt>
      <trkpt lat="36.727362982928753" lon="-4.860282009467483">
        <ele>381.30000000000001</ele>
        <time>2025-05-09T11:25:08Z</time>
      </trkpt>
      <trkpt lat="36.72739801928401" lon="-4.860207997262478">
        <ele>381.30000000000001</ele>
        <time>2025-05-09T11:25:09Z</time>
      </trkpt>
      <trkpt lat="36.727434983476996" lon="-4.860129039734602">
        <ele>380.81999999999999</ele>
        <time>2025-05-09T11:25:10Z</time>
      </trkpt>
      <trkpt lat="36.727473037317395" lon="-4.860048992559314">
        <ele>380.33999999999997</ele>
        <time>2025-05-09T11:25:11Z</time>
      </trkpt>
      <trkpt lat="36.727510001510382" lon="-4.859969029203057">
        <ele>379.86000000000001</ele>
        <time>2025-05-09T11:25:12Z</time>
      </trkpt>
      <trkpt lat="36.727703036740422" lon="-4.85954700037837">
        <ele>377.94</ele>
        <time>2025-05-09T11:25:21Z</time>
      </trkpt>
      <trkpt lat="36.727713011205196" lon="-4.859519004821777">
        <ele>377.94</ele>
        <time>2025-05-09T11:25:29Z</time>
      </trkpt>
      <trkpt lat="36.727722985669971" lon="-4.859490003436804">
        <ele>377.94</ele>
        <time>2025-05-09T11:25:30Z</time>
      </trkpt>
      <trkpt lat="36.727855000644922" lon="-4.859126983210445">
        <ele>375.05000000000001</ele>
        <time>2025-05-09T11:25:39Z</time>
      </trkpt>
      <trkpt lat="36.727919038385153" lon="-4.85894400626421">
        <ele>374.08999999999997</ele>
        <time>2025-05-09T11:25:42Z</time>
      </trkpt>
      <trkpt lat="36.727962037548423" lon="-4.858820959925652">
        <ele>373.13</ele>
        <time>2025-05-09T11:25:44Z</time>
      </trkpt>
      <trkpt lat="36.728024985641241" lon="-4.858638988807797">
        <ele>372.17000000000002</ele>
        <time>2025-05-09T11:25:47Z</time>
      </trkpt>
      <trkpt lat="36.728035965934396" lon="-4.858573023229837">
        <ele>371.69</ele>
        <time>2025-05-09T11:25:48Z</time>
      </trkpt>
      <trkpt lat="36.728083994239569" lon="-4.85829901881516">
        <ele>370.24000000000001</ele>
        <time>2025-05-09T11:25:52Z</time>
      </trkpt>
      <trkpt lat="36.728110983967781" lon="-4.85808502882719">
        <ele>369.27999999999997</ele>
        <time>2025-05-09T11:25:55Z</time>
      </trkpt>
      <trkpt lat="36.728110983967781" lon="-4.858010010793805">
        <ele>369.27999999999997</ele>
        <time>2025-05-09T11:25:56Z</time>
      </trkpt>
      <trkpt lat="36.728110983967781" lon="-4.857940021902323">
        <ele>369.27999999999997</ele>
        <time>2025-05-09T11:25:57Z</time>
      </trkpt>
      <trkpt lat="36.728110983967781" lon="-4.85787196084857">
        <ele>369.27999999999997</ele>
        <time>2025-05-09T11:25:58Z</time>
      </trkpt>
      <trkpt lat="36.728110983967781" lon="-4.857801971957088">
        <ele>369.27999999999997</ele>
        <time>2025-05-09T11:25:59Z</time>
      </trkpt>
      <trkpt lat="36.728092962875962" lon="-4.857726031914353">
        <ele>369.27999999999997</ele>
        <time>2025-05-09T11:26:00Z</time>
      </trkpt>
      <trkpt lat="36.728075025603175" lon="-4.857650008052588">
        <ele>369.27999999999997</ele>
        <time>2025-05-09T11:26:01Z</time>
      </trkpt>
      <trkpt lat="36.728026997298002" lon="-4.857451021671295">
        <ele>368.80000000000001</ele>
        <time>2025-05-09T11:26:04Z</time>
      </trkpt>
      <trkpt lat="36.728014005348086" lon="-4.857395030558109">
        <ele>368.80000000000001</ele>
        <time>2025-05-09T11:26:05Z</time>
      </trkpt>
      <trkpt lat="36.72800101339817" lon="-4.857339961454272">
        <ele>368.80000000000001</ele>
        <time>2025-05-09T11:26:06Z</time>
      </trkpt>
      <trkpt lat="36.727988021448255" lon="-4.857284976169467">
        <ele>368.80000000000001</ele>
        <time>2025-05-09T11:26:07Z</time>
      </trkpt>
      <trkpt lat="36.727974023669958" lon="-4.857227979227901">
        <ele>368.80000000000001</ele>
        <time>2025-05-09T11:26:08Z</time>
      </trkpt>
      <trkpt lat="36.727961031720042" lon="-4.857172993943095">
        <ele>369.75999999999999</ele>
        <time>2025-05-09T11:26:09Z</time>
      </trkpt>
      <trkpt lat="36.727930018678308" lon="-4.857041984796524">
        <ele>368.80000000000001</ele>
        <time>2025-05-09T11:26:16Z</time>
      </trkpt>
      <trkpt lat="36.727909985929728" lon="-4.856957998126745">
        <ele>367.83999999999997</ele>
        <time>2025-05-09T11:26:20Z</time>
      </trkpt>
      <trkpt lat="36.727897999808192" lon="-4.856892032548785">
        <ele>367.36000000000001</ele>
        <time>2025-05-09T11:26:21Z</time>
      </trkpt>
      <trkpt lat="36.727985003963113" lon="-4.856631020084024">
        <ele>364.95999999999998</ele>
        <time>2025-05-09T11:26:26Z</time>
      </trkpt>
      <trkpt lat="36.727961031720042" lon="-4.856621967628598">
        <ele>365.44</ele>
        <time>2025-05-09T11:26:27Z</time>
      </trkpt>
      <trkpt lat="36.727961031720042" lon="-4.856605036184192">
        <ele>365.44</ele>
        <time>2025-05-09T11:26:28Z</time>
      </trkpt>
      <trkpt lat="36.727961031720042" lon="-4.856582991778851">
        <ele>365.44</ele>
        <time>2025-05-09T11:26:29Z</time>
      </trkpt>
      <trkpt lat="36.727961031720042" lon="-4.856578968465328">
        <ele>365.44</ele>
        <time>2025-05-09T11:26:30Z</time>
      </trkpt>
      <trkpt lat="36.727961031720042" lon="-4.856578968465328">
        <ele>364.48000000000002</ele>
        <time>2025-05-09T11:26:42Z</time>
      </trkpt>
      <trkpt lat="36.727961031720042" lon="-4.856621967628598">
        <ele>367.83999999999997</ele>
        <time>2025-05-09T11:26:58Z</time>
      </trkpt>
      <trkpt lat="36.72793697565794" lon="-4.856533035635948">
        <ele>369.75999999999999</ele>
        <time>2025-05-09T11:26:59Z</time>
      </trkpt>
      <trkpt lat="36.727961031720042" lon="-4.856578968465328">
        <ele>370.73000000000002</ele>
        <time>2025-05-09T11:27:00Z</time>
      </trkpt>
      <trkpt lat="36.727981986477971" lon="-4.85662498511374">
        <ele>369.75999999999999</ele>
        <time>2025-05-09T11:27:01Z</time>
      </trkpt>
      <trkpt lat="36.728008976206183" lon="-4.856681982055306">
        <ele>369.27999999999997</ele>
        <time>2025-05-09T11:27:02Z</time>
      </trkpt>
      <trkpt lat="36.728035965934396" lon="-4.856739984825254">
        <ele>367.36000000000001</ele>
        <time>2025-05-09T11:27:03Z</time>
      </trkpt>
      <trkpt lat="36.728144008666277" lon="-4.856965038925409">
        <ele>362.06999999999999</ele>
        <time>2025-05-09T11:27:07Z</time>
      </trkpt>
      <trkpt lat="36.728242998942733" lon="-4.857141980901361">
        <ele>358.23000000000002</ele>
        <time>2025-05-09T11:27:11Z</time>
      </trkpt>
      <trkpt lat="36.728268982842565" lon="-4.857187997549772">
        <ele>357.26999999999998</ele>
        <time>2025-05-09T11:27:12Z</time>
      </trkpt>
      <trkpt lat="36.728291027247906" lon="-4.857225967571139">
        <ele>356.79000000000002</ele>
        <time>2025-05-09T11:27:13Z</time>
      </trkpt>
      <trkpt lat="36.728309970349073" lon="-4.857259998098016">
        <ele>355.82999999999998</ele>
        <time>2025-05-09T11:27:14Z</time>
      </trkpt>
      <trkpt lat="36.728336960077286" lon="-4.857298973947763">
        <ele>354.86000000000001</ele>
        <time>2025-05-09T11:27:15Z</time>
      </trkpt>
      <trkpt lat="36.728369984775782" lon="-4.857329986989498">
        <ele>353.89999999999998</ele>
        <time>2025-05-09T11:27:16Z</time>
      </trkpt>
      <trkpt lat="36.728404015302658" lon="-4.857361000031233">
        <ele>352.94</ele>
        <time>2025-05-09T11:27:17Z</time>
      </trkpt>
      <trkpt lat="36.728443996980786" lon="-4.8573989700526">
        <ele>351.98000000000002</ele>
        <time>2025-05-09T11:27:18Z</time>
      </trkpt>
      <trkpt lat="36.728490013629198" lon="-4.85744196921587">
        <ele>351.01999999999998</ele>
        <time>2025-05-09T11:27:19Z</time>
      </trkpt>
      <trkpt lat="36.728581041097641" lon="-4.857526961714029">
        <ele>349.57999999999998</ele>
        <time>2025-05-09T11:27:21Z</time>
      </trkpt>
      <trkpt lat="36.72862202860415" lon="-4.857566021382809">
        <ele>349.10000000000002</ele>
        <time>2025-05-09T11:27:22Z</time>
      </trkpt>
      <trkpt lat="36.72866896726191" lon="-4.857609020546079">
        <ele>348.13</ele>
        <time>2025-05-09T11:27:23Z</time>
      </trkpt>
      <trkpt lat="36.728791007772088" lon="-4.857731983065605">
        <ele>344.76999999999998</ele>
        <time>2025-05-09T11:27:29Z</time>
      </trkpt>
      <trkpt lat="36.728828977793455" lon="-4.857770036906004">
        <ele>344.29000000000002</ele>
        <time>2025-05-09T11:27:30Z</time>
      </trkpt>
      <trkpt lat="36.728870971128345" lon="-4.857812030240893">
        <ele>343.32999999999998</ele>
        <time>2025-05-09T11:27:31Z</time>
      </trkpt>
      <trkpt lat="36.728973984718323" lon="-4.85791496001184">
        <ele>342.37</ele>
        <time>2025-05-09T11:27:33Z</time>
      </trkpt>
      <trkpt lat="36.729194009676576" lon="-4.858181001618505">
        <ele>340.92000000000002</ele>
        <time>2025-05-09T11:27:37Z</time>
      </trkpt>
      <trkpt lat="36.729240026324987" lon="-4.85825601965189">
        <ele>340.44</ele>
        <time>2025-05-09T11:27:38Z</time>
      </trkpt>
      <trkpt lat="36.729486035183072" lon="-4.858652986586094">
        <ele>338.51999999999998</ele>
        <time>2025-05-09T11:27:43Z</time>
      </trkpt>
      <trkpt lat="36.729726009070873" lon="-4.858958004042506">
        <ele>337.56</ele>
        <time>2025-05-09T11:27:47Z</time>
      </trkpt>
      <trkpt lat="36.729786023497581" lon="-4.859022041782737">
        <ele>337.07999999999998</ele>
        <time>2025-05-09T11:27:48Z</time>
      </trkpt>
      <trkpt lat="36.729908986017108" lon="-4.859109967947006">
        <ele>336.12</ele>
        <time>2025-05-09T11:27:50Z</time>
      </trkpt>
      <trkpt lat="36.729972017928958" lon="-4.859131006523967">
        <ele>335.63999999999999</ele>
        <time>2025-05-09T11:27:51Z</time>
      </trkpt>
      <trkpt lat="36.730028009042144" lon="-4.859150033444166">
        <ele>335.16000000000003</ele>
        <time>2025-05-09T11:27:52Z</time>
      </trkpt>
      <trkpt lat="36.730073019862175" lon="-4.859165037050843">
        <ele>334.68000000000001</ele>
        <time>2025-05-09T11:27:53Z</time>
      </trkpt>
      <trkpt lat="36.730105960741639" lon="-4.859176017343998">
        <ele>334.68000000000001</ele>
        <time>2025-05-09T11:27:54Z</time>
      </trkpt>
      <trkpt lat="36.730393040925264" lon="-4.859128994867206">
        <ele>331.79000000000002</ele>
        <time>2025-05-09T11:28:01Z</time>
      </trkpt>
      <trkpt lat="36.730412989854813" lon="-4.859119020402432">
        <ele>331.31</ele>
        <time>2025-05-09T11:28:02Z</time>
      </trkpt>
      <trkpt lat="36.73042899928987" lon="-4.859110973775387">
        <ele>331.31</ele>
        <time>2025-05-09T11:28:03Z</time>
      </trkpt>
      <trkpt lat="36.730444002896547" lon="-4.859104016795754">
        <ele>330.82999999999998</ele>
        <time>2025-05-09T11:28:04Z</time>
      </trkpt>
      <trkpt lat="36.730555985122919" lon="-4.859035033732653">
        <ele>330.82999999999998</ele>
        <time>2025-05-09T11:28:05Z</time>
      </trkpt>
      <trkpt lat="36.730552967637777" lon="-4.858998991549015">
        <ele>330.35000000000002</ele>
        <time>2025-05-09T11:28:06Z</time>
      </trkpt>
      <trkpt lat="36.730551039800048" lon="-4.8589669726789">
        <ele>330.35000000000002</ele>
        <time>2025-05-09T11:28:07Z</time>
      </trkpt>
      <trkpt lat="36.730551039800048" lon="-4.8589669726789">
        <ele>330.35000000000002</ele>
        <time>2025-05-09T11:28:17Z</time>
      </trkpt>
      <trkpt lat="36.730551039800048" lon="-4.8589669726789">
        <ele>330.35000000000002</ele>
        <time>2025-05-09T11:29:04Z</time>
      </trkpt>
      <trkpt lat="36.730551039800048" lon="-4.8589669726789">
        <ele>331.31</ele>
        <time>2025-05-09T11:29:53Z</time>
      </trkpt>
      <trkpt lat="36.730551039800048" lon="-4.8589669726789">
        <ele>331.31</ele>
        <time>2025-05-09T11:30:40Z</time>
      </trkpt>
      <trkpt lat="36.730551039800048" lon="-4.8589669726789">
        <ele>332.75</ele>
        <time>2025-05-09T11:31:33Z</time>
      </trkpt>
      <trkpt lat="36.730551039800048" lon="-4.8589669726789">
        <ele>333.23000000000002</ele>
        <time>2025-05-09T11:32:14Z</time>
      </trkpt>
      <trkpt lat="36.730551039800048" lon="-4.8589669726789">
        <ele>334.19999999999999</ele>
        <time>2025-05-09T11:32:59Z</time>
      </trkpt>
      <trkpt lat="36.730551039800048" lon="-4.8589669726789">
        <ele>335.16000000000003</ele>
        <time>2025-05-09T11:33:40Z</time>
      </trkpt>
      <trkpt lat="36.7305379640311" lon="-4.858720963820815">
        <ele>335.16000000000003</ele>
        <time>2025-05-09T11:33:46Z</time>
      </trkpt>
      <trkpt lat="36.730550033971667" lon="-4.858498005196452">
        <ele>334.19999999999999</ele>
        <time>2025-05-09T11:33:48Z</time>
      </trkpt>
      <trkpt lat="36.730555985122919" lon="-4.858371019363403">
        <ele>333.70999999999998</ele>
        <time>2025-05-09T11:33:49Z</time>
      </trkpt>
      <trkpt lat="36.730532012879848" lon="-4.858234981074929">
        <ele>333.70999999999998</ele>
        <time>2025-05-09T11:33:50Z</time>
      </trkpt>
      <trkpt lat="36.730368984863162" lon="-4.857055982574821">
        <ele>333.23000000000002</ele>
        <time>2025-05-09T11:33:57Z</time>
      </trkpt>
      <trkpt lat="36.73025700263679" lon="-4.856493975967169">
        <ele>333.70999999999998</ele>
        <time>2025-05-09T11:34:00Z</time>
      </trkpt>
      <trkpt lat="36.730267982929945" lon="-4.856362966820598">
        <ele>333.70999999999998</ele>
        <time>2025-05-09T11:34:01Z</time>
      </trkpt>
      <trkpt lat="36.73030000180006" lon="-4.85621795989573">
        <ele>333.70999999999998</ele>
        <time>2025-05-09T11:34:02Z</time>
      </trkpt>
      <trkpt lat="36.730370996519923" lon="-4.856092985719442">
        <ele>333.70999999999998</ele>
        <time>2025-05-09T11:34:03Z</time>
      </trkpt>
      <trkpt lat="36.73044802621007" lon="-4.855955019593239">
        <ele>333.70999999999998</ele>
        <time>2025-05-09T11:34:04Z</time>
      </trkpt>
      <trkpt lat="36.730551961809397" lon="-4.85582803376019">
        <ele>334.19999999999999</ele>
        <time>2025-05-09T11:34:05Z</time>
      </trkpt>
      <trkpt lat="36.730669979006052" lon="-4.855702975764871">
        <ele>334.19999999999999</ele>
        <time>2025-05-09T11:34:06Z</time>
      </trkpt>
      <trkpt lat="36.730785984545946" lon="-4.855578001588583">
        <ele>333.70999999999998</ele>
        <time>2025-05-09T11:34:07Z</time>
      </trkpt>
      <trkpt lat="36.730833007022738" lon="-4.855413967743516">
        <ele>333.70999999999998</ele>
        <time>2025-05-09T11:34:08Z</time>
      </trkpt>
      <trkpt lat="36.730876006186008" lon="-4.855245994403958">
        <ele>334.19999999999999</ele>
        <time>2025-05-09T11:34:09Z</time>
      </trkpt>
      <trkpt lat="36.73092101700604" lon="-4.855071986094117">
        <ele>334.68000000000001</ele>
        <time>2025-05-09T11:34:10Z</time>
      </trkpt>
      <trkpt lat="36.731005003675818" lon="-4.854740984737873">
        <ele>336.12</ele>
        <time>2025-05-09T11:34:12Z</time>
      </trkpt>
      <trkpt lat="36.73107298091054" lon="-4.854591032490134">
        <ele>337.07999999999998</ele>
        <time>2025-05-09T11:34:13Z</time>
      </trkpt>
      <trkpt lat="36.731169037520885" lon="-4.854465974494815">
        <ele>337.56</ele>
        <time>2025-05-09T11:34:14Z</time>
      </trkpt>
      <trkpt lat="36.731282025575638" lon="-4.854335971176624">
        <ele>338.51999999999998</ele>
        <time>2025-05-09T11:34:15Z</time>
      </trkpt>
      <trkpt lat="36.731415968388319" lon="-4.854222983121872">
        <ele>339.48000000000002</ele>
        <time>2025-05-09T11:34:16Z</time>
      </trkpt>
      <trkpt lat="36.732368990778923" lon="-4.853494009003043">
        <ele>345.25</ele>
        <time>2025-05-09T11:34:22Z</time>
      </trkpt>
      <trkpt lat="36.732491031289101" lon="-4.853332992643118">
        <ele>345.73000000000002</ele>
        <time>2025-05-09T11:34:23Z</time>
      </trkpt>
      <trkpt lat="36.732603013515472" lon="-4.85316401347518">
        <ele>346.69</ele>
        <time>2025-05-09T11:34:24Z</time>
      </trkpt>
      <trkpt lat="36.733031999319792" lon="-4.852458005771041">
        <ele>349.10000000000002</ele>
        <time>2025-05-09T11:34:28Z</time>
      </trkpt>
      <trkpt lat="36.733099976554513" lon="-4.852281985804439">
        <ele>349.57999999999998</ele>
        <time>2025-05-09T11:34:29Z</time>
      </trkpt>
      <trkpt lat="36.733271973207593" lon="-4.851832967251539">
        <ele>350.06</ele>
        <time>2025-05-09T11:34:32Z</time>
      </trkpt>
      <trkpt lat="36.733657959848642" lon="-4.850907018408179">
        <ele>348.62</ele>
        <time>2025-05-09T11:34:37Z</time>
      </trkpt>
      <trkpt lat="36.733775977045298" lon="-4.850249961018562">
        <ele>346.69</ele>
        <time>2025-05-09T11:34:40Z</time>
      </trkpt>
      <trkpt lat="36.733775977045298" lon="-4.850056003779173">
        <ele>346.20999999999998</ele>
        <time>2025-05-09T11:34:41Z</time>
      </trkpt>
      <trkpt lat="36.733788968995214" lon="-4.84970698133111">
        <ele>345.73000000000002</ele>
        <time>2025-05-09T11:34:43Z</time>
      </trkpt>
      <trkpt lat="36.733830962330103" lon="-4.849545964971185">
        <ele>345.73000000000002</ele>
        <time>2025-05-09T11:34:44Z</time>
      </trkpt>
      <trkpt lat="36.733899023383856" lon="-4.849382014945149">
        <ele>345.25</ele>
        <time>2025-05-09T11:34:45Z</time>
      </trkpt>
      <trkpt lat="36.734716007485986" lon="-4.848386999219656">
        <ele>344.76999999999998</ele>
        <time>2025-05-09T11:34:51Z</time>
      </trkpt>
      <trkpt lat="36.734836036339402" lon="-4.848190024495125">
        <ele>344.76999999999998</ele>
        <time>2025-05-09T11:34:52Z</time>
      </trkpt>
      <trkpt lat="36.734955981373787" lon="-4.847991038113833">
        <ele>344.76999999999998</ele>
        <time>2025-05-09T11:34:53Z</time>
      </trkpt>
      <trkpt lat="36.73519897274673" lon="-4.847588036209345">
        <ele>345.25</ele>
        <time>2025-05-09T11:34:55Z</time>
      </trkpt>
      <trkpt lat="36.735561992973089" lon="-4.846975989639759">
        <ele>346.69</ele>
        <time>2025-05-09T11:34:58Z</time>
      </trkpt>
      <trkpt lat="36.73567003570497" lon="-4.84678303822875">
        <ele>347.17000000000002</ele>
        <time>2025-05-09T11:34:59Z</time>
      </trkpt>
      <trkpt lat="36.735765002667904" lon="-4.846593020483851">
        <ele>348.13</ele>
        <time>2025-05-09T11:35:00Z</time>
      </trkpt>
      <trkpt lat="36.735869022086263" lon="-4.846405014395714">
        <ele>348.62</ele>
        <time>2025-05-09T11:35:01Z</time>
      </trkpt>
      <trkpt lat="36.735995002090931" lon="-4.846232011914253">
        <ele>349.10000000000002</ele>
        <time>2025-05-09T11:35:02Z</time>
      </trkpt>
      <trkpt lat="36.736144032329321" lon="-4.846068983897567">
        <ele>350.06</ele>
        <time>2025-05-09T11:35:03Z</time>
      </trkpt>
      <trkpt lat="36.736298007890582" lon="-4.845905033871532">
        <ele>350.06</ele>
        <time>2025-05-09T11:35:04Z</time>
      </trkpt>
      <trkpt lat="36.736903013661504" lon="-4.845317965373397">
        <ele>350.54000000000002</ele>
        <time>2025-05-09T11:35:08Z</time>
      </trkpt>
      <trkpt lat="36.737060006707907" lon="-4.84521503560245">
        <ele>350.54000000000002</ele>
        <time>2025-05-09T11:35:09Z</time>
      </trkpt>
      <trkpt lat="36.737252036109567" lon="-4.845100035890937">
        <ele>351.01999999999998</ele>
        <time>2025-05-09T11:35:10Z</time>
      </trkpt>
      <trkpt lat="36.73811998218298" lon="-4.844799041748047">
        <ele>354.38</ele>
        <time>2025-05-09T11:35:15Z</time>
      </trkpt>
      <trkpt lat="36.738277981057763" lon="-4.844799041748047">
        <ele>354.86000000000001</ele>
        <time>2025-05-09T11:35:16Z</time>
      </trkpt>
      <trkpt lat="36.738433968275785" lon="-4.844846986234188">
        <ele>355.82999999999998</ele>
        <time>2025-05-09T11:35:17Z</time>
      </trkpt>
      <trkpt lat="36.738587021827698" lon="-4.844930972903967">
        <ele>356.31</ele>
        <time>2025-05-09T11:35:18Z</time>
      </trkpt>
      <trkpt lat="36.738736974075437" lon="-4.84502300620079">
        <ele>357.26999999999998</ele>
        <time>2025-05-09T11:35:19Z</time>
      </trkpt>
      <trkpt lat="36.738861026242375" lon="-4.845100035890937">
        <ele>358.23000000000002</ele>
        <time>2025-05-09T11:35:20Z</time>
      </trkpt>
      <trkpt lat="36.739032017067075" lon="-4.845118978992105">
        <ele>358.23000000000002</ele>
        <time>2025-05-09T11:35:21Z</time>
      </trkpt>
      <trkpt lat="36.73915003426373" lon="-4.845057958737016">
        <ele>358.70999999999998</ele>
        <time>2025-05-09T11:35:22Z</time>
      </trkpt>
      <trkpt lat="36.739275008440018" lon="-4.844976989552379">
        <ele>359.19</ele>
        <time>2025-05-09T11:35:23Z</time>
      </trkpt>
      <trkpt lat="36.739406017586589" lon="-4.844890991225839">
        <ele>359.67000000000002</ele>
        <time>2025-05-09T11:35:24Z</time>
      </trkpt>
      <trkpt lat="36.739550018683076" lon="-4.844797030091286">
        <ele>360.14999999999998</ele>
        <time>2025-05-09T11:35:25Z</time>
      </trkpt>
      <trkpt lat="36.739714974537492" lon="-4.844715977087617">
        <ele>360.63</ele>
        <time>2025-05-09T11:35:26Z</time>
      </trkpt>
      <trkpt lat="36.739888982847333" lon="-4.844649005681276">
        <ele>361.58999999999997</ele>
        <time>2025-05-09T11:35:27Z</time>
      </trkpt>
      <trkpt lat="36.740369014441967" lon="-4.844501987099648">
        <ele>363.51999999999998</ele>
        <time>2025-05-09T11:35:30Z</time>
      </trkpt>
      <trkpt lat="36.740520978346467" lon="-4.844519002363086">
        <ele>364.48000000000002</ele>
        <time>2025-05-09T11:35:31Z</time>
      </trkpt>
      <trkpt lat="36.740670008584857" lon="-4.84459200873971">
        <ele>365.44</ele>
        <time>2025-05-09T11:35:32Z</time>
      </trkpt>
      <trkpt lat="36.740830019116402" lon="-4.84467800706625">
        <ele>366.39999999999998</ele>
        <time>2025-05-09T11:35:33Z</time>
      </trkpt>
      <trkpt lat="36.740997992455959" lon="-4.844767022877932">
        <ele>367.36000000000001</ele>
        <time>2025-05-09T11:35:34Z</time>
      </trkpt>
      <trkpt lat="36.741162026301026" lon="-4.844854027032852">
        <ele>367.83999999999997</ele>
        <time>2025-05-09T11:35:35Z</time>
      </trkpt>
      <trkpt lat="36.741329999640584" lon="-4.844881016761065">
        <ele>368.80000000000001</ele>
        <time>2025-05-09T11:35:36Z</time>
      </trkpt>
      <trkpt lat="36.74149202182889" lon="-4.844899959862232">
        <ele>369.27999999999997</ele>
        <time>2025-05-09T11:35:37Z</time>
      </trkpt>
      <trkpt lat="36.741629987955093" lon="-4.844949999824166">
        <ele>370.24000000000001</ele>
        <time>2025-05-09T11:35:38Z</time>
      </trkpt>
      <trkpt lat="36.741752028465271" lon="-4.845010014250875">
        <ele>370.73000000000002</ele>
        <time>2025-05-09T11:35:39Z</time>
      </trkpt>
      <trkpt lat="36.741867028176785" lon="-4.845073968172073">
        <ele>371.69</ele>
        <time>2025-05-09T11:35:40Z</time>
      </trkpt>
      <trkpt lat="36.742540011182427" lon="-4.845532961189747">
        <ele>375.05000000000001</ele>
        <time>2025-05-09T11:35:46Z</time>
      </trkpt>
      <trkpt lat="36.742655010893941" lon="-4.845564980059862">
        <ele>375.52999999999997</ele>
        <time>2025-05-09T11:35:47Z</time>
      </trkpt>
      <trkpt lat="36.742760958150029" lon="-4.845553999766707">
        <ele>376.00999999999999</ele>
        <time>2025-05-09T11:35:48Z</time>
      </trkpt>
      <trkpt lat="36.742857014760375" lon="-4.845532961189747">
        <ele>376.00999999999999</ele>
        <time>2025-05-09T11:35:49Z</time>
      </trkpt>
      <trkpt lat="36.742923986166716" lon="-4.845465989783406">
        <ele>376.00999999999999</ele>
        <time>2025-05-09T11:35:50Z</time>
      </trkpt>
      <trkpt lat="36.742991963401437" lon="-4.845384014770389">
        <ele>376.49000000000001</ele>
        <time>2025-05-09T11:35:51Z</time>
      </trkpt>
      <trkpt lat="36.743066981434822" lon="-4.845292987301946">
        <ele>376.49000000000001</ele>
        <time>2025-05-09T11:35:52Z</time>
      </trkpt>
      <trkpt lat="36.743079973384738" lon="-4.84517396427691">
        <ele>376.97000000000003</ele>
        <time>2025-05-09T11:35:53Z</time>
      </trkpt>
      <trkpt lat="36.743054995313287" lon="-4.845043960958719">
        <ele>377.44999999999999</ele>
        <time>2025-05-09T11:35:54Z</time>
      </trkpt>
      <trkpt lat="36.742987018078566" lon="-4.844928961247206">
        <ele>377.94</ele>
        <time>2025-05-09T11:35:55Z</time>
      </trkpt>
      <trkpt lat="36.742905965074897" lon="-4.844794012606144">
        <ele>378.42000000000002</ele>
        <time>2025-05-09T11:35:56Z</time>
      </trkpt>
      <trkpt lat="36.742816027253866" lon="-4.844641964882612">
        <ele>379.38</ele>
        <time>2025-05-09T11:35:57Z</time>
      </trkpt>
      <trkpt lat="36.742542022839189" lon="-4.844181966036558">
        <ele>381.77999999999997</ele>
        <time>2025-05-09T11:36:00Z</time>
      </trkpt>
      <trkpt lat="36.742484020069242" lon="-4.844051962718368">
        <ele>382.74000000000001</ele>
        <time>2025-05-09T11:36:01Z</time>
      </trkpt>
      <trkpt lat="36.742469016462564" lon="-4.843907961621881">
        <ele>383.69999999999999</ele>
        <time>2025-05-09T11:36:02Z</time>
      </trkpt>
      <trkpt lat="36.74250103533268" lon="-4.843794973567128">
        <ele>384.18000000000001</ele>
        <time>2025-05-09T11:36:03Z</time>
      </trkpt>
      <trkpt lat="36.742555014789104" lon="-4.84369195997715">
        <ele>384.66000000000003</ele>
        <time>2025-05-09T11:36:04Z</time>
      </trkpt>
      <trkpt lat="36.74263397231698" lon="-4.843584001064301">
        <ele>385.14999999999998</ele>
        <time>2025-05-09T11:36:05Z</time>
      </trkpt>
      <trkpt lat="36.742727011442184" lon="-4.84347403049469">
        <ele>385.14999999999998</ele>
        <time>2025-05-09T11:36:06Z</time>
      </trkpt>
      <trkpt lat="36.742853997275233" lon="-4.843389037996531">
        <ele>385.63</ele>
        <time>2025-05-09T11:36:07Z</time>
      </trkpt>
      <trkpt lat="36.743895029649138" lon="-4.842612035572529">
        <ele>388.02999999999997</ele>
        <time>2025-05-09T11:36:14Z</time>
      </trkpt>
      <trkpt lat="36.744032995775342" lon="-4.842517990618944">
        <ele>388.50999999999999</ele>
        <time>2025-05-09T11:36:15Z</time>
      </trkpt>
      <trkpt lat="36.744188982993364" lon="-4.842468034476042">
        <ele>389.47000000000003</ele>
        <time>2025-05-09T11:36:16Z</time>
      </trkpt>
      <trkpt lat="36.744646970182657" lon="-4.842311963438988">
        <ele>391.38999999999999</ele>
        <time>2025-05-09T11:36:19Z</time>
      </trkpt>
      <trkpt lat="36.745861005038023" lon="-4.841661024838686">
        <ele>392.83999999999997</ele>
        <time>2025-05-09T11:36:27Z</time>
      </trkpt>
      <trkpt lat="36.747144022956491" lon="-4.841087032109499">
        <ele>389.47000000000003</ele>
        <time>2025-05-09T11:36:35Z</time>
      </trkpt>
      <trkpt lat="36.747271008789539" lon="-4.840955017134547">
        <ele>388.99000000000001</ele>
        <time>2025-05-09T11:36:36Z</time>
      </trkpt>
      <trkpt lat="36.747383996844292" lon="-4.840839011594653">
        <ele>388.02999999999997</ele>
        <time>2025-05-09T11:36:37Z</time>
      </trkpt>
      <trkpt lat="36.748179020360112" lon="-4.839926976710558">
        <ele>389.47000000000003</ele>
        <time>2025-05-09T11:36:45Z</time>
      </trkpt>
      <trkpt lat="36.74828102812171" lon="-4.839798985049129">
        <ele>390.43000000000001</ele>
        <time>2025-05-09T11:36:46Z</time>
      </trkpt>
      <trkpt lat="36.74839099869132" lon="-4.839743999764323">
        <ele>390.43000000000001</ele>
        <time>2025-05-09T11:36:47Z</time>
      </trkpt>
      <trkpt lat="36.748509015887976" lon="-4.839722961187363">
        <ele>390.91000000000003</ele>
        <time>2025-05-09T11:36:48Z</time>
      </trkpt>
      <trkpt lat="36.748614963144064" lon="-4.839740982279182">
        <ele>390.91000000000003</ele>
        <time>2025-05-09T11:36:49Z</time>
      </trkpt>
      <trkpt lat="36.748710013926029" lon="-4.839756991714239">
        <ele>390.91000000000003</ele>
        <time>2025-05-09T11:36:50Z</time>
      </trkpt>
      <trkpt lat="36.748767010867596" lon="-4.83984399586916">
        <ele>390.91000000000003</ele>
        <time>2025-05-09T11:36:51Z</time>
      </trkpt>
      <trkpt lat="36.748830964788795" lon="-4.839941980317235">
        <ele>390.91000000000003</ele>
        <time>2025-05-09T11:36:52Z</time>
      </trkpt>
      <trkpt lat="36.74890698865056" lon="-4.84005999751389">
        <ele>390.43000000000001</ele>
        <time>2025-05-09T11:36:53Z</time>
      </trkpt>
      <trkpt lat="36.748985024169087" lon="-4.840179020538926">
        <ele>389.47000000000003</ele>
        <time>2025-05-09T11:36:54Z</time>
      </trkpt>
      <trkpt lat="36.749085020273924" lon="-4.840268036350608">
        <ele>388.50999999999999</ele>
        <time>2025-05-09T11:36:55Z</time>
      </trkpt>
      <trkpt lat="36.749301021918654" lon="-4.840455036610365">
        <ele>386.58999999999997</ele>
        <time>2025-05-09T11:36:57Z</time>
      </trkpt>
      <trkpt lat="36.74940001219511" lon="-4.840554026886821">
        <ele>385.14999999999998</ele>
        <time>2025-05-09T11:36:58Z</time>
      </trkpt>
      <trkpt lat="36.749492967501283" lon="-4.840645976364613">
        <ele>384.18000000000001</ele>
        <time>2025-05-09T11:36:59Z</time>
      </trkpt>
      <trkpt lat="36.749576032161713" lon="-4.840729963034391">
        <ele>382.74000000000001</ele>
        <time>2025-05-09T11:37:00Z</time>
      </trkpt>
      <trkpt lat="36.749667981639504" lon="-4.840769022703171">
        <ele>381.77999999999997</ele>
        <time>2025-05-09T11:37:01Z</time>
      </trkpt>
      <trkpt lat="36.74976403824985" lon="-4.840774973854423">
        <ele>380.81999999999999</ele>
        <time>2025-05-09T11:37:02Z</time>
      </trkpt>
      <trkpt lat="36.749866968020797" lon="-4.840782014653087">
        <ele>380.33999999999997</ele>
        <time>2025-05-09T11:37:03Z</time>
      </trkpt>
      <trkpt lat="36.749974004924297" lon="-4.840804981067777">
        <ele>379.38</ele>
        <time>2025-05-09T11:37:04Z</time>
      </trkpt>
      <trkpt lat="36.750080035999417" lon="-4.84085300937295">
        <ele>378.89999999999998</ele>
        <time>2025-05-09T11:37:05Z</time>
      </trkpt>
      <trkpt lat="36.750191012397408" lon="-4.840902965515852">
        <ele>377.94</ele>
        <time>2025-05-09T11:37:06Z</time>
      </trkpt>
      <trkpt lat="36.750300982967019" lon="-4.840954011306167">
        <ele>376.97000000000003</ele>
        <time>2025-05-09T11:37:07Z</time>
      </trkpt>
      <trkpt lat="36.75040801987052" lon="-4.841000027954578">
        <ele>376.49000000000001</ele>
        <time>2025-05-09T11:37:08Z</time>
      </trkpt>
      <trkpt lat="36.750515978783369" lon="-4.840963985770941">
        <ele>375.52999999999997</ele>
        <time>2025-05-09T11:37:09Z</time>
      </trkpt>
      <trkpt lat="36.750622009858489" lon="-4.840915035456419">
        <ele>374.56999999999999</ele>
        <time>2025-05-09T11:37:10Z</time>
      </trkpt>
      <trkpt lat="36.750721000134945" lon="-4.840823002159596">
        <ele>373.61000000000001</ele>
        <time>2025-05-09T11:37:11Z</time>
      </trkpt>
      <trkpt lat="36.75081797875464" lon="-4.840731974691153">
        <ele>373.13</ele>
        <time>2025-05-09T11:37:12Z</time>
      </trkpt>
      <trkpt lat="36.751015959307551" lon="-4.840587973594666">
        <ele>372.17000000000002</ele>
        <time>2025-05-09T11:37:14Z</time>
      </trkpt>
      <trkpt lat="36.751113021746278" lon="-4.840528964996338">
        <ele>372.17000000000002</ele>
        <time>2025-05-09T11:37:15Z</time>
      </trkpt>
      <trkpt lat="36.751231960952282" lon="-4.840542040765286">
        <ele>372.17000000000002</ele>
        <time>2025-05-09T11:37:16Z</time>
      </trkpt>
      <trkpt lat="36.751328017562628" lon="-4.840570036321878">
        <ele>372.17000000000002</ele>
        <time>2025-05-09T11:37:17Z</time>
      </trkpt>
      <trkpt lat="36.751414015889168" lon="-4.840645976364613">
        <ele>371.69</ele>
        <time>2025-05-09T11:37:18Z</time>
      </trkpt>
      <trkpt lat="36.751502025872469" lon="-4.840728035196662">
        <ele>371.20999999999998</ele>
        <time>2025-05-09T11:37:19Z</time>
      </trkpt>
      <trkpt lat="36.751562040299177" lon="-4.840856026858091">
        <ele>371.20999999999998</ele>
        <time>2025-05-09T11:37:20Z</time>
      </trkpt>
      <trkpt lat="36.751619959250093" lon="-4.840981001034379">
        <ele>370.24000000000001</ele>
        <time>2025-05-09T11:37:21Z</time>
      </trkpt>
      <trkpt lat="36.751681985333562" lon="-4.841098012402654">
        <ele>369.75999999999999</ele>
        <time>2025-05-09T11:37:22Z</time>
      </trkpt>
      <trkpt lat="36.751743005588651" lon="-4.841200020164251">
        <ele>368.80000000000001</ele>
        <time>2025-05-09T11:37:23Z</time>
      </trkpt>
      <trkpt lat="36.751825986430049" lon="-4.841269003227353">
        <ele>367.83999999999997</ele>
        <time>2025-05-09T11:37:24Z</time>
      </trkpt>
      <trkpt lat="36.751922965049744" lon="-4.841291969642043">
        <ele>367.36000000000001</ele>
        <time>2025-05-09T11:37:25Z</time>
      </trkpt>
      <trkpt lat="36.752028996124864" lon="-4.841316025704145">
        <ele>367.36000000000001</ele>
        <time>2025-05-09T11:37:26Z</time>
      </trkpt>
      <trkpt lat="36.752138966694474" lon="-4.841291969642043">
        <ele>367.36000000000001</ele>
        <time>2025-05-09T11:37:27Z</time>
      </trkpt>
      <trkpt lat="36.752252038568258" lon="-4.841247964650393">
        <ele>367.36000000000001</ele>
        <time>2025-05-09T11:37:28Z</time>
      </trkpt>
      <trkpt lat="36.75236402079463" lon="-4.841185016557574">
        <ele>367.36000000000001</ele>
        <time>2025-05-09T11:37:29Z</time>
      </trkpt>
      <trkpt lat="36.752455970272422" lon="-4.841080997139216">
        <ele>367.36000000000001</ele>
        <time>2025-05-09T11:37:30Z</time>
      </trkpt>
      <trkpt lat="36.752546997740865" lon="-4.840978989377618">
        <ele>366.88</ele>
        <time>2025-05-09T11:37:31Z</time>
      </trkpt>
      <trkpt lat="36.752636013552547" lon="-4.840878993272781">
        <ele>366.88</ele>
        <time>2025-05-09T11:37:32Z</time>
      </trkpt>
      <trkpt lat="36.752695022150874" lon="-4.840751001611352">
        <ele>366.88</ele>
        <time>2025-05-09T11:37:33Z</time>
      </trkpt>
      <trkpt lat="36.752725029364228" lon="-4.840603983029723">
        <ele>367.36000000000001</ele>
        <time>2025-05-09T11:37:34Z</time>
      </trkpt>
      <trkpt lat="36.752753024920821" lon="-4.840462999418378">
        <ele>367.83999999999997</ele>
        <time>2025-05-09T11:37:35Z</time>
      </trkpt>
      <trkpt lat="36.752779008820653" lon="-4.840332996100187">
        <ele>368.31999999999999</ele>
        <time>2025-05-09T11:37:36Z</time>
      </trkpt>
      <trkpt lat="36.752824019640684" lon="-4.840225959196687">
        <ele>368.31999999999999</ele>
        <time>2025-05-09T11:37:37Z</time>
      </trkpt>
      <trkpt lat="36.752884034067392" lon="-4.840118000283837">
        <ele>368.31999999999999</ele>
        <time>2025-05-09T11:37:38Z</time>
      </trkpt>
      <trkpt lat="36.752971960231662" lon="-4.840032001957297">
        <ele>367.83999999999997</ele>
        <time>2025-05-09T11:37:39Z</time>
      </trkpt>
      <trkpt lat="36.753076985478401" lon="-4.839946003630757">
        <ele>367.36000000000001</ele>
        <time>2025-05-09T11:37:40Z</time>
      </trkpt>
      <trkpt lat="36.75320397131145" lon="-4.839896969497204">
        <ele>366.88</ele>
        <time>2025-05-09T11:37:41Z</time>
      </trkpt>
      <trkpt lat="36.753345038741827" lon="-4.839841984212399">
        <ele>366.88</ele>
        <time>2025-05-09T11:37:42Z</time>
      </trkpt>
      <trkpt lat="36.753468001261353" lon="-4.839804014191032">
        <ele>366.39999999999998</ele>
        <time>2025-05-09T11:37:43Z</time>
      </trkpt>
      <trkpt lat="36.753874020650983" lon="-4.839645009487867">
        <ele>365.44</ele>
        <time>2025-05-09T11:37:46Z</time>
      </trkpt>
      <trkpt lat="36.754119023680687" lon="-4.839506037533283">
        <ele>364.95999999999998</ele>
        <time>2025-05-09T11:37:48Z</time>
      </trkpt>
      <trkpt lat="36.75434198230505" lon="-4.839379973709583">
        <ele>365.44</ele>
        <time>2025-05-09T11:37:50Z</time>
      </trkpt>
      <trkpt lat="36.754441978409886" lon="-4.839304033666849">
        <ele>364.95999999999998</ele>
        <time>2025-05-09T11:37:51Z</time>
      </trkpt>
      <trkpt lat="36.754539962857962" lon="-4.839204959571362">
        <ele>364.95999999999998</ele>
        <time>2025-05-09T11:37:52Z</time>
      </trkpt>
      <trkpt lat="36.754625039175153" lon="-4.839067999273539">
        <ele>364.95999999999998</ele>
        <time>2025-05-09T11:37:53Z</time>
      </trkpt>
      <trkpt lat="36.754717994481325" lon="-4.838891979306936">
        <ele>364.95999999999998</ele>
        <time>2025-05-09T11:37:54Z</time>
      </trkpt>
      <trkpt lat="36.754825031384826" lon="-4.83868402428925">
        <ele>364.48000000000002</ele>
        <time>2025-05-09T11:37:55Z</time>
      </trkpt>
      <trkpt lat="36.755334986373782" lon="-4.837682973593473">
        <ele>365.44</ele>
        <time>2025-05-09T11:38:00Z</time>
      </trkpt>
      <trkpt lat="36.755432970821857" lon="-4.837608961388469">
        <ele>365.92000000000002</ele>
        <time>2025-05-09T11:38:01Z</time>
      </trkpt>
      <trkpt lat="36.755533972755075" lon="-4.837575014680624">
        <ele>366.88</ele>
        <time>2025-05-09T11:38:02Z</time>
      </trkpt>
      <trkpt lat="36.755634974688292" lon="-4.837603010237217">
        <ele>367.36000000000001</ele>
        <time>2025-05-09T11:38:03Z</time>
      </trkpt>
      <trkpt lat="36.755747962743044" lon="-4.8376539722085">
        <ele>367.83999999999997</ele>
        <time>2025-05-09T11:38:04Z</time>
      </trkpt>
      <trkpt lat="36.755830021575093" lon="-4.837756985798478">
        <ele>368.31999999999999</ele>
        <time>2025-05-09T11:38:05Z</time>
      </trkpt>
      <trkpt lat="36.755921971052885" lon="-4.837873997166753">
        <ele>368.31999999999999</ele>
        <time>2025-05-09T11:38:06Z</time>
      </trkpt>
      <trkpt lat="36.75601601600647" lon="-4.837993020191789">
        <ele>367.83999999999997</ele>
        <time>2025-05-09T11:38:07Z</time>
      </trkpt>
      <trkpt lat="36.756132021546364" lon="-4.838089998811483">
        <ele>367.36000000000001</ele>
        <time>2025-05-09T11:38:08Z</time>
      </trkpt>
      <trkpt lat="36.756260013207793" lon="-4.83814800158143">
        <ele>366.88</ele>
        <time>2025-05-09T11:38:09Z</time>
      </trkpt>
      <trkpt lat="36.756394039839506" lon="-4.838161999359727">
        <ele>365.92000000000002</ele>
        <time>2025-05-09T11:38:10Z</time>
      </trkpt>
      <trkpt lat="36.756531000137329" lon="-4.838151019066572">
        <ele>364.95999999999998</ele>
        <time>2025-05-09T11:38:11Z</time>
      </trkpt>
      <trkpt lat="36.756673995405436" lon="-4.838140038773418">
        <ele>364</ele>
        <time>2025-05-09T11:38:12Z</time>
      </trkpt>
      <trkpt lat="36.756824031472206" lon="-4.838127968832851">
        <ele>363.04000000000002</ele>
        <time>2025-05-09T11:38:13Z</time>
      </trkpt>
      <trkpt lat="36.757462983950973" lon="-4.838048005476594">
        <ele>358.23000000000002</ele>
        <time>2025-05-09T11:38:17Z</time>
      </trkpt>
      <trkpt lat="36.757586030289531" lon="-4.837977010756731">
        <ele>357.26999999999998</ele>
        <time>2025-05-09T11:38:18Z</time>
      </trkpt>
      <trkpt lat="36.757674962282181" lon="-4.837856981903315">
        <ele>356.79000000000002</ele>
        <time>2025-05-09T11:38:19Z</time>
      </trkpt>
      <trkpt lat="36.757765989750624" lon="-4.837709041312337">
        <ele>356.31</ele>
        <time>2025-05-09T11:38:20Z</time>
      </trkpt>
      <trkpt lat="36.757863974198699" lon="-4.837550036609173">
        <ele>356.31</ele>
        <time>2025-05-09T11:38:21Z</time>
      </trkpt>
      <trkpt lat="36.757960030809045" lon="-4.837386002764106">
        <ele>355.82999999999998</ele>
        <time>2025-05-09T11:38:22Z</time>
      </trkpt>
      <trkpt lat="36.75799498334527" lon="-4.837195985019207">
        <ele>356.31</ele>
        <time>2025-05-09T11:38:23Z</time>
      </trkpt>
      <trkpt lat="36.757979979738593" lon="-4.836966991424561">
        <ele>356.31</ele>
        <time>2025-05-09T11:38:24Z</time>
      </trkpt>
      <trkpt lat="36.757970005273819" lon="-4.836796000599861">
        <ele>356.79000000000002</ele>
        <time>2025-05-09T11:38:25Z</time>
      </trkpt>
      <trkpt lat="36.757961036637425" lon="-4.836628027260304">
        <ele>357.26999999999998</ele>
        <time>2025-05-09T11:38:26Z</time>
      </trkpt>
      <trkpt lat="36.757991965860128" lon="-4.836494000628591">
        <ele>357.75</ele>
        <time>2025-05-09T11:38:27Z</time>
      </trkpt>
      <trkpt lat="36.758043011650443" lon="-4.836359973996878">
        <ele>357.75</ele>
        <time>2025-05-09T11:38:28Z</time>
      </trkpt>
      <trkpt lat="36.758131021633744" lon="-4.836236005648971">
        <ele>358.23000000000002</ele>
        <time>2025-05-09T11:38:29Z</time>
      </trkpt>
      <trkpt lat="36.758244009688497" lon="-4.836124023422599">
        <ele>358.23000000000002</ele>
        <time>2025-05-09T11:38:30Z</time>
      </trkpt>
      <trkpt lat="36.758363032713532" lon="-4.836013969033957">
        <ele>359.19</ele>
        <time>2025-05-09T11:38:31Z</time>
      </trkpt>
      <trkpt lat="36.75851097330451" lon="-4.835940040647984">
        <ele>359.67000000000002</ele>
        <time>2025-05-09T11:38:32Z</time>
      </trkpt>
      <trkpt lat="36.758655980229378" lon="-4.835867034271359">
        <ele>359.67000000000002</ele>
        <time>2025-05-09T11:38:33Z</time>
      </trkpt>
      <trkpt lat="36.758777014911175" lon="-4.835771983489394">
        <ele>360.14999999999998</ele>
        <time>2025-05-09T11:38:34Z</time>
      </trkpt>
      <trkpt lat="36.758890002965927" lon="-4.835665030404925">
        <ele>360.14999999999998</ele>
        <time>2025-05-09T11:38:35Z</time>
      </trkpt>
      <trkpt lat="36.758974995464087" lon="-4.835513988509774">
        <ele>360.14999999999998</ele>
        <time>2025-05-09T11:38:36Z</time>
      </trkpt>
      <trkpt lat="36.75906996242702" lon="-4.835350038483739">
        <ele>359.67000000000002</ele>
        <time>2025-05-09T11:38:37Z</time>
      </trkpt>
      <trkpt lat="36.759376991540194" lon="-4.834779985249043">
        <ele>358.70999999999998</ele>
        <time>2025-05-09T11:38:40Z</time>
      </trkpt>
      <trkpt lat="36.759460978209972" lon="-4.834559038281441">
        <ele>358.23000000000002</ele>
        <time>2025-05-09T11:38:41Z</time>
      </trkpt>
      <trkpt lat="36.759589975699782" lon="-4.834142960608006">
        <ele>357.26999999999998</ele>
        <time>2025-05-09T11:38:43Z</time>
      </trkpt>
      <trkpt lat="36.759602967649698" lon="-4.833953026682138">
        <ele>356.31</ele>
        <time>2025-05-09T11:38:44Z</time>
      </trkpt>
      <trkpt lat="36.759627023711801" lon="-4.833608027547598">
        <ele>355.82999999999998</ele>
        <time>2025-05-09T11:38:46Z</time>
      </trkpt>
      <trkpt lat="36.759658036753535" lon="-4.833470983430743">
        <ele>355.33999999999997</ele>
        <time>2025-05-09T11:38:47Z</time>
      </trkpt>
      <trkpt lat="36.759702041745186" lon="-4.833365958184004">
        <ele>354.86000000000001</ele>
        <time>2025-05-09T11:38:48Z</time>
      </trkpt>
      <trkpt lat="36.759739005938172" lon="-4.833276020362973">
        <ele>354.38</ele>
        <time>2025-05-09T11:38:49Z</time>
      </trkpt>
      <trkpt lat="36.759821986779571" lon="-4.833228997886181">
        <ele>353.42000000000002</ele>
        <time>2025-05-09T11:38:50Z</time>
      </trkpt>
      <trkpt lat="36.759920977056026" lon="-4.833190022036433">
        <ele>352.94</ele>
        <time>2025-05-09T11:38:51Z</time>
      </trkpt>
      <trkpt lat="36.760027008131146" lon="-4.833190022036433">
        <ele>351.98000000000002</ele>
        <time>2025-05-09T11:38:52Z</time>
      </trkpt>
      <trkpt lat="36.760144019499421" lon="-4.833246013149619">
        <ele>351.5</ele>
        <time>2025-05-09T11:38:53Z</time>
      </trkpt>
      <trkpt lat="36.760261030867696" lon="-4.833308039233089">
        <ele>351.01999999999998</ele>
        <time>2025-05-09T11:38:54Z</time>
      </trkpt>
      <trkpt lat="36.760362032800913" lon="-4.833362018689513">
        <ele>350.06</ele>
        <time>2025-05-09T11:38:55Z</time>
      </trkpt>
      <trkpt lat="36.760475020855665" lon="-4.83346201479435">
        <ele>349.10000000000002</ele>
        <time>2025-05-09T11:38:56Z</time>
      </trkpt>
      <trkpt lat="36.760533023625612" lon="-4.833511970937252">
        <ele>348.62</ele>
        <time>2025-05-09T11:38:57Z</time>
      </trkpt>
      <trkpt lat="36.760585997253656" lon="-4.833658989518881">
        <ele>347.64999999999998</ele>
        <time>2025-05-09T11:38:58Z</time>
      </trkpt>
      <trkpt lat="36.760634025558829" lon="-4.833793016150594">
        <ele>346.69</ele>
        <time>2025-05-09T11:38:59Z</time>
      </trkpt>
      <trkpt lat="36.760685993358493" lon="-4.833937017247081">
        <ele>345.73000000000002</ele>
        <time>2025-05-09T11:39:00Z</time>
      </trkpt>
      <trkpt lat="36.76074399612844" lon="-4.834075989201665">
        <ele>344.76999999999998</ele>
        <time>2025-05-09T11:39:01Z</time>
      </trkpt>
      <trkpt lat="36.760824965313077" lon="-4.834197023883462">
        <ele>343.81</ele>
        <time>2025-05-09T11:39:02Z</time>
      </trkpt>
      <trkpt lat="36.760910041630268" lon="-4.834324009716511">
        <ele>342.85000000000002</ele>
        <time>2025-05-09T11:39:03Z</time>
      </trkpt>
      <trkpt lat="36.76113199442625" lon="-4.83470899052918">
        <ele>340.44</ele>
        <time>2025-05-09T11:39:06Z</time>
      </trkpt>
      <trkpt lat="36.761178011074662" lon="-4.834846034646034">
        <ele>339.48000000000002</ele>
        <time>2025-05-09T11:39:07Z</time>
      </trkpt>
      <trkpt lat="36.761270966380835" lon="-4.835123978555203">
        <ele>337.56</ele>
        <time>2025-05-09T11:39:09Z</time>
      </trkpt>
      <trkpt lat="36.761320000514388" lon="-4.835240989923477">
        <ele>336.60000000000002</ele>
        <time>2025-05-09T11:39:10Z</time>
      </trkpt>
      <trkpt lat="36.761405998840928" lon="-4.835315002128482">
        <ele>336.12</ele>
        <time>2025-05-09T11:39:11Z</time>
      </trkpt>
      <trkpt lat="36.761499037966132" lon="-4.835362024605274">
        <ele>335.63999999999999</ele>
        <time>2025-05-09T11:39:12Z</time>
      </trkpt>
      <trkpt lat="36.761606996878982" lon="-4.835373004898429">
        <ele>334.68000000000001</ele>
        <time>2025-05-09T11:39:13Z</time>
      </trkpt>
      <trkpt lat="36.761715961620212" lon="-4.835369987413287">
        <ele>334.19999999999999</ele>
        <time>2025-05-09T11:39:14Z</time>
      </trkpt>
      <trkpt lat="36.761940009891987" lon="-4.835324976593256">
        <ele>332.75</ele>
        <time>2025-05-09T11:39:16Z</time>
      </trkpt>
      <trkpt lat="36.762221977114677" lon="-4.835207965224981">
        <ele>331.79000000000002</ele>
        <time>2025-05-09T11:39:19Z</time>
      </trkpt>
      <trkpt lat="36.762314010411501" lon="-4.835143005475402">
        <ele>331.31</ele>
        <time>2025-05-09T11:39:20Z</time>
      </trkpt>
      <trkpt lat="36.762341000139713" lon="-4.835103023797274">
        <ele>331.79000000000002</ele>
        <time>2025-05-09T11:39:21Z</time>
      </trkpt>
      <trkpt lat="36.762351980432868" lon="-4.835028005763888">
        <ele>332.26999999999998</ele>
        <time>2025-05-09T11:39:22Z</time>
      </trkpt>
      <trkpt lat="36.76233597099781" lon="-4.834886016324163">
        <ele>332.75</ele>
        <time>2025-05-09T11:39:23Z</time>
      </trkpt>
      <trkpt lat="36.762299006804824" lon="-4.834806974977255">
        <ele>333.23000000000002</ele>
        <time>2025-05-09T11:39:24Z</time>
      </trkpt>
      <trkpt lat="36.762242009863257" lon="-4.83468602411449">
        <ele>334.68000000000001</ele>
        <time>2025-05-09T11:39:25Z</time>
      </trkpt>
      <trkpt lat="36.762159029021859" lon="-4.834443032741547">
        <ele>335.63999999999999</ele>
        <time>2025-05-09T11:39:27Z</time>
      </trkpt>
      <trkpt lat="36.762143019586802" lon="-4.834305988624692">
        <ele>336.12</ele>
        <time>2025-05-09T11:39:28Z</time>
      </trkpt>
      <trkpt lat="36.762196999043226" lon="-4.83417296782136">
        <ele>337.07999999999998</ele>
        <time>2025-05-09T11:39:29Z</time>
      </trkpt>
      <trkpt lat="36.762275034561753" lon="-4.83404497615993">
        <ele>337.56</ele>
        <time>2025-05-09T11:39:30Z</time>
      </trkpt>
      <trkpt lat="36.762395985424519" lon="-4.83391497284174">
        <ele>337.56</ele>
        <time>2025-05-09T11:39:31Z</time>
      </trkpt>
      <trkpt lat="36.762540992349386" lon="-4.833759991452098">
        <ele>338.04000000000002</ele>
        <time>2025-05-09T11:39:32Z</time>
      </trkpt>
      <trkpt lat="36.762853972613811" lon="-4.833409041166306">
        <ele>338.51999999999998</ele>
        <time>2025-05-09T11:39:34Z</time>
      </trkpt>
      <trkpt lat="36.76299998536706" lon="-4.833213994279504">
        <ele>339</ele>
        <time>2025-05-09T11:39:35Z</time>
      </trkpt>
      <trkpt lat="36.763124037533998" lon="-4.833007967099547">
        <ele>339.48000000000002</ele>
        <time>2025-05-09T11:39:36Z</time>
      </trkpt>
      <trkpt lat="36.763432994484901" lon="-4.832471022382379">
        <ele>341.88999999999999</ele>
        <time>2025-05-09T11:39:39Z</time>
      </trkpt>
      <trkpt lat="36.763547994196415" lon="-4.832382006570697">
        <ele>342.85000000000002</ele>
        <time>2025-05-09T11:39:40Z</time>
      </trkpt>
      <trkpt lat="36.763670034706593" lon="-4.832310006022453">
        <ele>343.32999999999998</ele>
        <time>2025-05-09T11:39:41Z</time>
      </trkpt>
      <trkpt lat="36.763801965862513" lon="-4.832231970503926">
        <ele>343.81</ele>
        <time>2025-05-09T11:39:42Z</time>
      </trkpt>
      <trkpt lat="36.763939009979367" lon="-4.832144966349006">
        <ele>344.29000000000002</ele>
        <time>2025-05-09T11:39:43Z</time>
      </trkpt>
      <trkpt lat="36.7640720307827" lon="-4.832012029364705">
        <ele>344.76999999999998</ele>
        <time>2025-05-09T11:39:44Z</time>
      </trkpt>
      <trkpt lat="36.76420396193862" lon="-4.831880014389753">
        <ele>344.76999999999998</ele>
        <time>2025-05-09T11:39:45Z</time>
      </trkpt>
      <trkpt lat="36.764328014105558" lon="-4.831756968051195">
        <ele>345.25</ele>
        <time>2025-05-09T11:39:46Z</time>
      </trkpt>
      <trkpt lat="36.764475032687187" lon="-4.831681028008461">
        <ele>345.73000000000002</ele>
        <time>2025-05-09T11:39:47Z</time>
      </trkpt>
      <trkpt lat="36.764639988541603" lon="-4.831634005531669">
        <ele>346.20999999999998</ele>
        <time>2025-05-09T11:39:48Z</time>
      </trkpt>
      <trkpt lat="36.764820031821728" lon="-4.831611961126328">
        <ele>346.69</ele>
        <time>2025-05-09T11:39:49Z</time>
      </trkpt>
      <trkpt lat="36.76499898545444" lon="-4.831588994711638">
        <ele>347.64999999999998</ele>
        <time>2025-05-09T11:39:50Z</time>
      </trkpt>
      <trkpt lat="36.765165030956268" lon="-4.831568039953709">
        <ele>348.62</ele>
        <time>2025-05-09T11:39:51Z</time>
      </trkpt>
      <trkpt lat="36.765293022617698" lon="-4.83152998611331">
        <ele>349.10000000000002</ele>
        <time>2025-05-09T11:39:52Z</time>
      </trkpt>
      <trkpt lat="36.765359994024038" lon="-4.831438036635518">
        <ele>350.06</ele>
        <time>2025-05-09T11:39:53Z</time>
      </trkpt>
      <trkpt lat="36.765407016500831" lon="-4.831350026652217">
        <ele>350.54000000000002</ele>
        <time>2025-05-09T11:39:54Z</time>
      </trkpt>
      <trkpt lat="36.765454960986972" lon="-4.831261010840535">
        <ele>351.5</ele>
        <time>2025-05-09T11:39:55Z</time>
      </trkpt>
      <trkpt lat="36.765515981242061" lon="-4.831180041655898">
        <ele>352.45999999999998</ele>
        <time>2025-05-09T11:39:56Z</time>
      </trkpt>
      <trkpt lat="36.765613965690136" lon="-4.831123966723681">
        <ele>352.94</ele>
        <time>2025-05-09T11:39:57Z</time>
      </trkpt>
      <trkpt lat="36.765727959573269" lon="-4.831118015572429">
        <ele>353.89999999999998</ele>
        <time>2025-05-09T11:39:58Z</time>
      </trkpt>
      <trkpt lat="36.765868021175265" lon="-4.831132013350725">
        <ele>354.38</ele>
        <time>2025-05-09T11:39:59Z</time>
      </trkpt>
      <trkpt lat="36.766015961766243" lon="-4.831147016957402">
        <ele>355.33999999999997</ele>
        <time>2025-05-09T11:40:00Z</time>
      </trkpt>
      <trkpt lat="36.766167003661394" lon="-4.831184986978769">
        <ele>355.82999999999998</ele>
        <time>2025-05-09T11:40:01Z</time>
      </trkpt>
      <trkpt lat="36.766331037506461" lon="-4.831238966435194">
        <ele>356.31</ele>
        <time>2025-05-09T11:40:02Z</time>
      </trkpt>
      <trkpt lat="36.766491970047355" lon="-4.831317001953721">
        <ele>356.79000000000002</ele>
        <time>2025-05-09T11:40:03Z</time>
      </trkpt>
      <trkpt lat="36.766651980578899" lon="-4.831408029422164">
        <ele>357.26999999999998</ele>
        <time>2025-05-09T11:40:04Z</time>
      </trkpt>
      <trkpt lat="36.767177022993565" lon="-4.831687984988093">
        <ele>359.67000000000002</ele>
        <time>2025-05-09T11:40:08Z</time>
      </trkpt>
      <trkpt lat="36.767256986349821" lon="-4.831725033000112">
        <ele>359.67000000000002</ele>
        <time>2025-05-09T11:40:09Z</time>
      </trkpt>
      <trkpt lat="36.767330998554826" lon="-4.831697037443519">
        <ele>360.14999999999998</ele>
        <time>2025-05-09T11:40:10Z</time>
      </trkpt>
      <trkpt lat="36.767407022416592" lon="-4.831654038280249">
        <ele>360.63</ele>
        <time>2025-05-09T11:40:11Z</time>
      </trkpt>
      <trkpt lat="36.767458990216255" lon="-4.831570973619819">
        <ele>360.63</ele>
        <time>2025-05-09T11:40:12Z</time>
      </trkpt>
      <trkpt lat="36.76751003600657" lon="-4.831467960029841">
        <ele>360.63</ele>
        <time>2025-05-09T11:40:13Z</time>
      </trkpt>
      <trkpt lat="36.767528979107738" lon="-4.831309039145708">
        <ele>360.63</ele>
        <time>2025-05-09T11:40:14Z</time>
      </trkpt>
      <trkpt lat="36.767483968287706" lon="-4.831140981987119">
        <ele>360.63</ele>
        <time>2025-05-09T11:40:15Z</time>
      </trkpt>
      <trkpt lat="36.767434012144804" lon="-4.830954987555742">
        <ele>361.11000000000001</ele>
        <time>2025-05-09T11:40:16Z</time>
      </trkpt>
      <trkpt lat="36.76738397218287" lon="-4.830773016437888">
        <ele>361.58999999999997</ele>
        <time>2025-05-09T11:40:17Z</time>
      </trkpt>
      <trkpt lat="36.767335021868348" lon="-4.830593978986144">
        <ele>362.55000000000001</ele>
        <time>2025-05-09T11:40:18Z</time>
      </trkpt>
      <trkpt lat="36.7673409730196" lon="-4.830416031181812">
        <ele>363.04000000000002</ele>
        <time>2025-05-09T11:40:19Z</time>
      </trkpt>
      <trkpt lat="36.767348013818264" lon="-4.830216960981488">
        <ele>364</ele>
        <time>2025-05-09T11:40:20Z</time>
      </trkpt>
      <trkpt lat="36.767346002161503" lon="-4.829775989055634">
        <ele>364.95999999999998</ele>
        <time>2025-05-09T11:40:22Z</time>
      </trkpt>
      <trkpt lat="36.76731800660491" lon="-4.82953199185431">
        <ele>365.44</ele>
        <time>2025-05-09T11:40:23Z</time>
      </trkpt>
      <trkpt lat="36.767248017713428" lon="-4.829313978552818">
        <ele>366.39999999999998</ele>
        <time>2025-05-09T11:40:24Z</time>
      </trkpt>
      <trkpt lat="36.767121031880379" lon="-4.828920029103756">
        <ele>368.31999999999999</ele>
        <time>2025-05-09T11:40:26Z</time>
      </trkpt>
      <trkpt lat="36.76710301078856" lon="-4.828720958903432">
        <ele>368.80000000000001</ele>
        <time>2025-05-09T11:40:27Z</time>
      </trkpt>
      <trkpt lat="36.767128994688392" lon="-4.828589027747512">
        <ele>369.75999999999999</ele>
        <time>2025-05-09T11:40:28Z</time>
      </trkpt>
      <trkpt lat="36.767165036872029" lon="-4.828471010550857">
        <ele>370.73000000000002</ele>
        <time>2025-05-09T11:40:29Z</time>
      </trkpt>
      <trkpt lat="36.767204012721777" lon="-4.828398004174233">
        <ele>371.69</ele>
        <time>2025-05-09T11:40:30Z</time>
      </trkpt>
      <trkpt lat="36.767295962199569" lon="-4.828363973647356">
        <ele>372.17000000000002</ele>
        <time>2025-05-09T11:40:31Z</time>
      </trkpt>
      <trkpt lat="36.767396964132786" lon="-4.828347964212298">
        <ele>372.64999999999998</ele>
        <time>2025-05-09T11:40:32Z</time>
      </trkpt>
      <trkpt lat="36.767529984936118" lon="-4.82837101444602">
        <ele>373.13</ele>
        <time>2025-05-09T11:40:33Z</time>
      </trkpt>
      <trkpt lat="36.768638994544744" lon="-4.828594978898764">
        <ele>374.56999999999999</ele>
        <time>2025-05-09T11:40:39Z</time>
      </trkpt>
      <trkpt lat="36.768815014511347" lon="-4.828677037730813">
        <ele>374.56999999999999</ele>
        <time>2025-05-09T11:40:40Z</time>
      </trkpt>
      <trkpt lat="36.768986005336046" lon="-4.828791031613946">
        <ele>375.05000000000001</ele>
        <time>2025-05-09T11:40:41Z</time>
      </trkpt>
      <trkpt lat="36.769998036324978" lon="-4.829446999356151">
        <ele>376.00999999999999</ele>
        <time>2025-05-09T11:40:47Z</time>
      </trkpt>
      <trkpt lat="36.770125022158027" lon="-4.829499972984195">
        <ele>376.00999999999999</ele>
        <time>2025-05-09T11:40:48Z</time>
      </trkpt>
      <trkpt lat="36.770259970799088" lon="-4.829474994912744">
        <ele>376.00999999999999</ele>
        <time>2025-05-09T11:40:49Z</time>
      </trkpt>
      <trkpt lat="36.770359966903925" lon="-4.829456973820925">
        <ele>376.49000000000001</ele>
        <time>2025-05-09T11:40:50Z</time>
      </trkpt>
      <trkpt lat="36.77039097994566" lon="-4.829393019899726">
        <ele>376.49000000000001</ele>
        <time>2025-05-09T11:40:51Z</time>
      </trkpt>
      <trkpt lat="36.770441019907594" lon="-4.829287994652987">
        <ele>376.97000000000003</ele>
        <time>2025-05-09T11:40:52Z</time>
      </trkpt>
      <trkpt lat="36.77049801684916" lon="-4.829166037961841">
        <ele>377.44999999999999</ele>
        <time>2025-05-09T11:40:53Z</time>
      </trkpt>
      <trkpt lat="36.770597007125616" lon="-4.82903896830976">
        <ele>377.94</ele>
        <time>2025-05-09T11:40:54Z</time>
      </trkpt>
      <trkpt lat="36.770726004615426" lon="-4.828987000510097">
        <ele>378.42000000000002</ele>
        <time>2025-05-09T11:40:55Z</time>
      </trkpt>
      <trkpt lat="36.770836981013417" lon="-4.828992029652">
        <ele>378.42000000000002</ele>
        <time>2025-05-09T11:40:56Z</time>
      </trkpt>
      <trkpt lat="36.770960027351975" lon="-4.828996974974871">
        <ele>378.89999999999998</ele>
        <time>2025-05-09T11:40:57Z</time>
      </trkpt>
      <trkpt lat="36.771094975993037" lon="-4.829002004116774">
        <ele>379.38</ele>
        <time>2025-05-09T11:40:58Z</time>
      </trkpt>
      <trkpt lat="36.772096026688814" lon="-4.828812992200255">
        <ele>380.81999999999999</ele>
        <time>2025-05-09T11:41:04Z</time>
      </trkpt>
      <trkpt lat="36.772234998643398" lon="-4.82873504050076">
        <ele>381.30000000000001</ele>
        <time>2025-05-09T11:41:05Z</time>
      </trkpt>
      <trkpt lat="36.772306999191642" lon="-4.828634960576892">
        <ele>381.30000000000001</ele>
        <time>2025-05-09T11:41:06Z</time>
      </trkpt>
      <trkpt lat="36.772361984476447" lon="-4.828528007492423">
        <ele>381.77999999999997</ele>
        <time>2025-05-09T11:41:07Z</time>
      </trkpt>
      <trkpt lat="36.772392997518182" lon="-4.828375959768891">
        <ele>382.25999999999999</ele>
        <time>2025-05-09T11:41:08Z</time>
      </trkpt>
      <trkpt lat="36.772442031651735" lon="-4.82819801196456">
        <ele>382.25999999999999</ele>
        <time>2025-05-09T11:41:09Z</time>
      </trkpt>
      <trkpt lat="36.772515960037708" lon="-4.828074965626001">
        <ele>382.74000000000001</ele>
        <time>2025-05-09T11:41:10Z</time>
      </trkpt>
      <trkpt lat="36.77262500859797" lon="-4.82798301614821">
        <ele>383.22000000000003</ele>
        <time>2025-05-09T11:41:11Z</time>
      </trkpt>
      <trkpt lat="36.772747971117496" lon="-4.827923001721501">
        <ele>383.22000000000003</ele>
        <time>2025-05-09T11:41:12Z</time>
      </trkpt>
      <trkpt lat="36.77288300357759" lon="-4.827858963981271">
        <ele>383.69999999999999</ele>
        <time>2025-05-09T11:41:13Z</time>
      </trkpt>
      <trkpt lat="36.773022981360555" lon="-4.82779098674655">
        <ele>383.69999999999999</ele>
        <time>2025-05-09T11:41:14Z</time>
      </trkpt>
      <trkpt lat="36.773156002163887" lon="-4.827709011733532">
        <ele>383.22000000000003</ele>
        <time>2025-05-09T11:41:15Z</time>
      </trkpt>
      <trkpt lat="36.773272007703781" lon="-4.827571967616677">
        <ele>383.22000000000003</ele>
        <time>2025-05-09T11:41:16Z</time>
      </trkpt>
      <trkpt lat="36.773536959663033" lon="-4.82729603536427">
        <ele>383.22000000000003</ele>
        <time>2025-05-09T11:41:18Z</time>
      </trkpt>
      <trkpt lat="36.77410701289773" lon="-4.826917005702853">
        <ele>384.18000000000001</ele>
        <time>2025-05-09T11:41:22Z</time>
      </trkpt>
      <trkpt lat="36.774229975417256" lon="-4.826890015974641">
        <ele>384.66000000000003</ele>
        <time>2025-05-09T11:41:23Z</time>
      </trkpt>
      <trkpt lat="36.774336006492376" lon="-4.826902002096176">
        <ele>385.14999999999998</ele>
        <time>2025-05-09T11:41:24Z</time>
      </trkpt>
      <trkpt lat="36.774433990940452" lon="-4.826941983774304">
        <ele>385.14999999999998</ele>
        <time>2025-05-09T11:41:25Z</time>
      </trkpt>
      <trkpt lat="36.774526024237275" lon="-4.827034017071128">
        <ele>384.66000000000003</ele>
        <time>2025-05-09T11:41:26Z</time>
      </trkpt>
      <trkpt lat="36.774633983150125" lon="-4.827141975983977">
        <ele>384.18000000000001</ele>
        <time>2025-05-09T11:41:27Z</time>
      </trkpt>
      <trkpt lat="36.774867000058293" lon="-4.827374992892146">
        <ele>382.74000000000001</ele>
        <time>2025-05-09T11:41:29Z</time>
      </trkpt>
      <trkpt lat="36.775003038346767" lon="-4.827417992055416">
        <ele>382.25999999999999</ele>
        <time>2025-05-09T11:41:30Z</time>
      </trkpt>
      <trkpt lat="36.7751619592309" lon="-4.82746803201735">
        <ele>381.30000000000001</ele>
        <time>2025-05-09T11:41:31Z</time>
      </trkpt>
      <trkpt lat="36.775618018582463" lon="-4.827627958729863">
        <ele>379.38</ele>
        <time>2025-05-09T11:41:34Z</time>
      </trkpt>
      <trkpt lat="36.775742992758751" lon="-4.827702976763248">
        <ele>378.89999999999998</ele>
        <time>2025-05-09T11:41:35Z</time>
      </trkpt>
      <trkpt lat="36.775835026055574" lon="-4.827805990353227">
        <ele>377.94</ele>
        <time>2025-05-09T11:41:36Z</time>
      </trkpt>
      <trkpt lat="36.775926975533366" lon="-4.827927025035024">
        <ele>377.44999999999999</ele>
        <time>2025-05-09T11:41:37Z</time>
      </trkpt>
      <trkpt lat="36.776018003001809" lon="-4.828044958412647">
        <ele>376.49000000000001</ele>
        <time>2025-05-09T11:41:38Z</time>
      </trkpt>
      <trkpt lat="36.776078017428517" lon="-4.828171022236347">
        <ele>375.52999999999997</ele>
        <time>2025-05-09T11:41:39Z</time>
      </trkpt>
      <trkpt lat="36.7761289793998" lon="-4.828317034989595">
        <ele>374.56999999999999</ele>
        <time>2025-05-09T11:41:40Z</time>
      </trkpt>
      <trkpt lat="36.776180025190115" lon="-4.828463969752193">
        <ele>373.61000000000001</ele>
        <time>2025-05-09T11:41:41Z</time>
      </trkpt>
      <trkpt lat="36.776292007416487" lon="-4.828729005530477">
        <ele>372.17000000000002</ele>
        <time>2025-05-09T11:41:43Z</time>
      </trkpt>
      <trkpt lat="36.776351016014814" lon="-4.828860014677048">
        <ele>371.69</ele>
        <time>2025-05-09T11:41:44Z</time>
      </trkpt>
      <trkpt lat="36.776438020169735" lon="-4.828964034095407">
        <ele>371.20999999999998</ele>
        <time>2025-05-09T11:41:45Z</time>
      </trkpt>
      <trkpt lat="36.777107985690236" lon="-4.829740030691028">
        <ele>366.88</ele>
        <time>2025-05-09T11:41:52Z</time>
      </trkpt>
      <trkpt lat="36.777216028422117" lon="-4.829813037067652">
        <ele>366.39999999999998</ele>
        <time>2025-05-09T11:41:53Z</time>
      </trkpt>
      <trkpt lat="36.777325998991728" lon="-4.829862993210554">
        <ele>365.44</ele>
        <time>2025-05-09T11:41:54Z</time>
      </trkpt>
      <trkpt lat="36.777440998703241" lon="-4.829879002645612">
        <ele>364.48000000000002</ele>
        <time>2025-05-09T11:41:55Z</time>
      </trkpt>
      <trkpt lat="36.777540994808078" lon="-4.829868022352457">
        <ele>364</ele>
        <time>2025-05-09T11:41:56Z</time>
      </trkpt>
      <trkpt lat="36.777634033933282" lon="-4.829834997653961">
        <ele>363.04000000000002</ele>
        <time>2025-05-09T11:41:57Z</time>
      </trkpt>
      <trkpt lat="36.777701005339622" lon="-4.829804990440607">
        <ele>362.06999999999999</ele>
        <time>2025-05-09T11:41:58Z</time>
      </trkpt>
      <trkpt lat="36.777758002281189" lon="-4.829571973532438">
        <ele>361.11000000000001</ele>
        <time>2025-05-09T11:41:59Z</time>
      </trkpt>
      <trkpt lat="36.777725983411074" lon="-4.829514976590872">
        <ele>361.11000000000001</ele>
        <time>2025-05-09T11:42:00Z</time>
      </trkpt>
      <trkpt lat="36.777682984247804" lon="-4.829443981871009">
        <ele>360.63</ele>
        <time>2025-05-09T11:42:01Z</time>
      </trkpt>
      <trkpt lat="36.77763001061976" lon="-4.829354966059327">
        <ele>360.14999999999998</ele>
        <time>2025-05-09T11:42:02Z</time>
      </trkpt>
      <trkpt lat="36.777563039213419" lon="-4.829242983832955">
        <ele>360.14999999999998</ele>
        <time>2025-05-09T11:42:03Z</time>
      </trkpt>
      <trkpt lat="36.776926014572382" lon="-4.828160963952541">
        <ele>357.26999999999998</ele>
        <time>2025-05-09T11:42:10Z</time>
      </trkpt>
      <trkpt lat="36.776317991316319" lon="-4.826638977974653">
        <ele>354.86000000000001</ele>
        <time>2025-05-09T11:42:17Z</time>
      </trkpt>
      <trkpt lat="36.77602001465857" lon="-4.824798982590437">
        <ele>351.01999999999998</ele>
        <time>2025-05-09T11:42:25Z</time>
      </trkpt>
      <trkpt lat="36.775879031047225" lon="-4.824363039806485">
        <ele>349.10000000000002</ele>
        <time>2025-05-09T11:42:27Z</time>
      </trkpt>
      <trkpt lat="36.775803007185459" lon="-4.824147960171104">
        <ele>348.13</ele>
        <time>2025-05-09T11:42:28Z</time>
      </trkpt>
      <trkpt lat="36.775696976110339" lon="-4.823942016810179">
        <ele>346.69</ele>
        <time>2025-05-09T11:42:29Z</time>
      </trkpt>
      <trkpt lat="36.775574013590813" lon="-4.823758034035564">
        <ele>345.25</ele>
        <time>2025-05-09T11:42:30Z</time>
      </trkpt>
      <trkpt lat="36.775449961423874" lon="-4.823572039604187">
        <ele>344.29000000000002</ele>
        <time>2025-05-09T11:42:31Z</time>
      </trkpt>
      <trkpt lat="36.775307971984148" lon="-4.823399037122726">
        <ele>342.85000000000002</ele>
        <time>2025-05-09T11:42:32Z</time>
      </trkpt>
      <trkpt lat="36.775152990594506" lon="-4.823247995227575">
        <ele>341.41000000000003</ele>
        <time>2025-05-09T11:42:33Z</time>
      </trkpt>
      <trkpt lat="36.774994991719723" lon="-4.823095025494695">
        <ele>339.95999999999998</ele>
        <time>2025-05-09T11:42:34Z</time>
      </trkpt>
      <trkpt lat="36.774833975359797" lon="-4.822939960286021">
        <ele>338.51999999999998</ele>
        <time>2025-05-09T11:42:35Z</time>
      </trkpt>
      <trkpt lat="36.773898974061012" lon="-4.82207503169775">
        <ele>329.38999999999999</ele>
        <time>2025-05-09T11:42:41Z</time>
      </trkpt>
      <trkpt lat="36.773803001269698" lon="-4.821912003681064">
        <ele>327.94999999999999</ele>
        <time>2025-05-09T11:42:42Z</time>
      </trkpt>
      <trkpt lat="36.773728989064693" lon="-4.821742018684745">
        <ele>326.5</ele>
        <time>2025-05-09T11:42:43Z</time>
      </trkpt>
      <trkpt lat="36.773672997951508" lon="-4.821545965969563">
        <ele>325.54000000000002</ele>
        <time>2025-05-09T11:42:44Z</time>
      </trkpt>
      <trkpt lat="36.773651037365198" lon="-4.821348991245031">
        <ele>324.10000000000002</ele>
        <time>2025-05-09T11:42:45Z</time>
      </trkpt>
      <trkpt lat="36.773672997951508" lon="-4.821162996813655">
        <ele>322.66000000000003</ele>
        <time>2025-05-09T11:42:46Z</time>
      </trkpt>
      <trkpt lat="36.773735024034977" lon="-4.820957975462079">
        <ele>320.74000000000001</ele>
        <time>2025-05-09T11:42:47Z</time>
      </trkpt>
      <trkpt lat="36.773797972127795" lon="-4.820748008787632">
        <ele>319.30000000000001</ele>
        <time>2025-05-09T11:42:48Z</time>
      </trkpt>
      <trkpt lat="36.773873995989561" lon="-4.820541981607676">
        <ele>317.37</ele>
        <time>2025-05-09T11:42:49Z</time>
      </trkpt>
      <trkpt lat="36.774329971522093" lon="-4.819469014182687">
        <ele>307.75999999999999</ele>
        <time>2025-05-09T11:42:54Z</time>
      </trkpt>
      <trkpt lat="36.774395015090704" lon="-4.819263992831111">
        <ele>305.83999999999997</ele>
        <time>2025-05-09T11:42:55Z</time>
      </trkpt>
      <trkpt lat="36.774385962635279" lon="-4.819058971479535">
        <ele>304.38999999999999</ele>
        <time>2025-05-09T11:42:56Z</time>
      </trkpt>
      <trkpt lat="36.774375988170505" lon="-4.818851016461849">
        <ele>302.47000000000003</ele>
        <time>2025-05-09T11:42:57Z</time>
      </trkpt>
      <trkpt lat="36.774333994835615" lon="-4.818666027858853">
        <ele>301.02999999999997</ele>
        <time>2025-05-09T11:42:58Z</time>
      </trkpt>
      <trkpt lat="36.774270040914416" lon="-4.818462012335658">
        <ele>299.58999999999997</ele>
        <time>2025-05-09T11:42:59Z</time>
      </trkpt>
      <trkpt lat="36.774169038981199" lon="-4.818296972662211">
        <ele>298.14999999999998</ele>
        <time>2025-05-09T11:43:00Z</time>
      </trkpt>
      <trkpt lat="36.774048004299402" lon="-4.818154983222485">
        <ele>296.69999999999999</ele>
        <time>2025-05-09T11:43:01Z</time>
      </trkpt>
      <trkpt lat="36.773896962404251" lon="-4.818025985732675">
        <ele>295.25999999999999</ele>
        <time>2025-05-09T11:43:02Z</time>
      </trkpt>
      <trkpt lat="36.773741981014609" lon="-4.817906962707639">
        <ele>293.81999999999999</ele>
        <time>2025-05-09T11:43:03Z</time>
      </trkpt>
      <trkpt lat="36.773106968030334" lon="-4.817406982183456">
        <ele>288.05000000000001</ele>
        <time>2025-05-09T11:43:07Z</time>
      </trkpt>
      <trkpt lat="36.772965984418988" lon="-4.817259041592479">
        <ele>286.61000000000001</ele>
        <time>2025-05-09T11:43:08Z</time>
      </trkpt>
      <trkpt lat="36.772869005799294" lon="-4.817072963342071">
        <ele>285.17000000000002</ele>
        <time>2025-05-09T11:43:09Z</time>
      </trkpt>
      <trkpt lat="36.772779989987612" lon="-4.816871965304017">
        <ele>283.73000000000002</ele>
        <time>2025-05-09T11:43:10Z</time>
      </trkpt>
      <trkpt lat="36.772698014974594" lon="-4.816670967265964">
        <ele>282.76999999999998</ele>
        <time>2025-05-09T11:43:11Z</time>
      </trkpt>
      <trkpt lat="36.772676976397634" lon="-4.816439962014556">
        <ele>281.31999999999999</ele>
        <time>2025-05-09T11:43:12Z</time>
      </trkpt>
      <trkpt lat="36.772656021639705" lon="-4.816201999783516">
        <ele>279.88</ele>
        <time>2025-05-09T11:43:13Z</time>
      </trkpt>
      <trkpt lat="36.772490981966257" lon="-4.814702980220318">
        <ele>270.26999999999998</ele>
        <time>2025-05-09T11:43:19Z</time>
      </trkpt>
      <trkpt lat="36.772457035258412" lon="-4.814456971362233">
        <ele>268.35000000000002</ele>
        <time>2025-05-09T11:43:20Z</time>
      </trkpt>
      <trkpt lat="36.772380005568266" lon="-4.814220014959574">
        <ele>266.42000000000002</ele>
        <time>2025-05-09T11:43:21Z</time>
      </trkpt>
      <trkpt lat="36.772291995584965" lon="-4.814007030799985">
        <ele>264.5</ele>
        <time>2025-05-09T11:43:22Z</time>
      </trkpt>
      <trkpt lat="36.772152017802" lon="-4.813787005841732">
        <ele>262.57999999999998</ele>
        <time>2025-05-09T11:43:23Z</time>
      </trkpt>
      <trkpt lat="36.772021008655429" lon="-4.813579972833395">
        <ele>260.64999999999998</ele>
        <time>2025-05-09T11:43:24Z</time>
      </trkpt>
      <trkpt lat="36.771883964538574" lon="-4.813363971188664">
        <ele>258.73000000000002</ele>
        <time>2025-05-09T11:43:25Z</time>
      </trkpt>
      <trkpt lat="36.771730994805694" lon="-4.813186023384333">
        <ele>256.81</ele>
        <time>2025-05-09T11:43:26Z</time>
      </trkpt>
      <trkpt lat="36.769731994718313" lon="-4.81073297560215">
        <ele>237.09999999999999</ele>
        <time>2025-05-09T11:43:39Z</time>
      </trkpt>
      <trkpt lat="36.7696169950068" lon="-4.810523008927703">
        <ele>236.13999999999999</ele>
        <time>2025-05-09T11:43:40Z</time>
      </trkpt>
      <trkpt lat="36.769543988630176" lon="-4.810290997847915">
        <ele>235.18000000000001</ele>
        <time>2025-05-09T11:43:41Z</time>
      </trkpt>
      <trkpt lat="36.769471988081932" lon="-4.810054963454604">
        <ele>234.22</ele>
        <time>2025-05-09T11:43:42Z</time>
      </trkpt>
      <trkpt lat="36.769400993362069" lon="-4.809819012880325">
        <ele>233.74000000000001</ele>
        <time>2025-05-09T11:43:43Z</time>
      </trkpt>
      <trkpt lat="36.769375009462237" lon="-4.809575015679002">
        <ele>232.78</ele>
        <time>2025-05-09T11:43:44Z</time>
      </trkpt>
      <trkpt lat="36.769351959228516" lon="-4.809323977679014">
        <ele>231.81</ele>
        <time>2025-05-09T11:43:45Z</time>
      </trkpt>
      <trkpt lat="36.769333016127348" lon="-4.809072017669678">
        <ele>231.33000000000001</ele>
        <time>2025-05-09T11:43:46Z</time>
      </trkpt>
      <trkpt lat="36.769355982542038" lon="-4.808813016861677">
        <ele>229.88999999999999</ele>
        <time>2025-05-09T11:43:47Z</time>
      </trkpt>
      <trkpt lat="36.769388001412153" lon="-4.808558039367199">
        <ele>228.93000000000001</ele>
        <time>2025-05-09T11:43:48Z</time>
      </trkpt>
      <trkpt lat="36.769447010010481" lon="-4.808299960568547">
        <ele>227.49000000000001</ele>
        <time>2025-05-09T11:43:49Z</time>
      </trkpt>
      <trkpt lat="36.769520016387105" lon="-4.808049006387591">
        <ele>225.56999999999999</ele>
        <time>2025-05-09T11:43:50Z</time>
      </trkpt>
      <trkpt lat="36.769622024148703" lon="-4.807807020843029">
        <ele>224.12</ele>
        <time>2025-05-09T11:43:51Z</time>
      </trkpt>
      <trkpt lat="36.76974699832499" lon="-4.807576015591621">
        <ele>222.19999999999999</ele>
        <time>2025-05-09T11:43:52Z</time>
      </trkpt>
      <trkpt lat="36.769871972501278" lon="-4.807340987026691">
        <ele>220.28</ele>
        <time>2025-05-09T11:43:53Z</time>
      </trkpt>
      <trkpt lat="36.769998036324978" lon="-4.807107970118523">
        <ele>218.36000000000001</ele>
        <time>2025-05-09T11:43:54Z</time>
      </trkpt>
      <trkpt lat="36.770543027669191" lon="-4.805806009098887">
        <ele>207.30000000000001</ele>
        <time>2025-05-09T11:44:00Z</time>
      </trkpt>
      <trkpt lat="36.770558031275868" lon="-4.805613979697228">
        <ele>205.38</ele>
        <time>2025-05-09T11:44:01Z</time>
      </trkpt>
      <trkpt lat="36.770570017397404" lon="-4.805223969742656">
        <ele>202.97999999999999</ele>
        <time>2025-05-09T11:44:03Z</time>
      </trkpt>
      <trkpt lat="36.770574962720275" lon="-4.805037975311279">
        <ele>201.53</ele>
        <time>2025-05-09T11:44:04Z</time>
      </trkpt>
      <trkpt lat="36.770536992698908" lon="-4.804857010021806">
        <ele>200.09</ele>
        <time>2025-05-09T11:44:05Z</time>
      </trkpt>
      <trkpt lat="36.77049801684916" lon="-4.80467202141881">
        <ele>198.65000000000001</ele>
        <time>2025-05-09T11:44:06Z</time>
      </trkpt>
      <trkpt lat="36.770425010472536" lon="-4.804509999230504">
        <ele>197.21000000000001</ele>
        <time>2025-05-09T11:44:07Z</time>
      </trkpt>
      <trkpt lat="36.770339012145996" lon="-4.804349988698959">
        <ele>195.77000000000001</ele>
        <time>2025-05-09T11:44:08Z</time>
      </trkpt>
      <trkpt lat="36.770251002162695" lon="-4.804184027016163">
        <ele>194.31999999999999</ele>
        <time>2025-05-09T11:44:09Z</time>
      </trkpt>
      <trkpt lat="36.770156035199761" lon="-4.804014964029193">
        <ele>192.88</ele>
        <time>2025-05-09T11:44:10Z</time>
      </trkpt>
      <trkpt lat="36.770026031881571" lon="-4.803860988467932">
        <ele>191.44</ele>
        <time>2025-05-09T11:44:11Z</time>
      </trkpt>
      <trkpt lat="36.769895022735" lon="-4.80370600707829">
        <ele>190.47999999999999</ele>
        <time>2025-05-09T11:44:12Z</time>
      </trkpt>
      <trkpt lat="36.768925990909338" lon="-4.802579982206225">
        <ele>187.11000000000001</ele>
        <time>2025-05-09T11:44:19Z</time>
      </trkpt>
      <trkpt lat="36.768816020339727" lon="-4.802398011088371">
        <ele>187.59</ele>
        <time>2025-05-09T11:44:20Z</time>
      </trkpt>
      <trkpt lat="36.768709989264607" lon="-4.802208999171853">
        <ele>188.08000000000001</ele>
        <time>2025-05-09T11:44:21Z</time>
      </trkpt>
      <trkpt lat="36.768609993159771" lon="-4.802017975598574">
        <ele>189.03999999999999</ele>
        <time>2025-05-09T11:44:22Z</time>
      </trkpt>
      <trkpt lat="36.768534975126386" lon="-4.801804991438985">
        <ele>190</ele>
        <time>2025-05-09T11:44:23Z</time>
      </trkpt>
      <trkpt lat="36.768477978184819" lon="-4.801585972309113">
        <ele>190.96000000000001</ele>
        <time>2025-05-09T11:44:24Z</time>
      </trkpt>
      <trkpt lat="36.768442019820213" lon="-4.801357984542847">
        <ele>191.91999999999999</ele>
        <time>2025-05-09T11:44:25Z</time>
      </trkpt>
      <trkpt lat="36.768405977636576" lon="-4.801126979291439">
        <ele>193.36000000000001</ele>
        <time>2025-05-09T11:44:26Z</time>
      </trkpt>
      <trkpt lat="36.768387034535408" lon="-4.80089102871716">
        <ele>194.80000000000001</ele>
        <time>2025-05-09T11:44:27Z</time>
      </trkpt>
      <trkpt lat="36.768408995121717" lon="-4.800648959353566">
        <ele>196.25</ele>
        <time>2025-05-09T11:44:28Z</time>
      </trkpt>
      <trkpt lat="36.768433973193169" lon="-4.800403034314513">
        <ele>197.21000000000001</ele>
        <time>2025-05-09T11:44:29Z</time>
      </trkpt>
      <trkpt lat="36.76871401257813" lon="-4.798521967604756">
        <ele>207.30000000000001</ele>
        <time>2025-05-09T11:44:37Z</time>
      </trkpt>
      <trkpt lat="36.768818031996489" lon="-4.796459013596177">
        <ele>207.78</ele>
        <time>2025-05-09T11:44:46Z</time>
      </trkpt>
      <trkpt lat="36.768708983436227" lon="-4.795011961832643">
        <ele>205.86000000000001</ele>
        <time>2025-05-09T11:44:52Z</time>
      </trkpt>
      <trkpt lat="36.768729016184807" lon="-4.794771987944841">
        <ele>205.86000000000001</ele>
        <time>2025-05-09T11:44:53Z</time>
      </trkpt>
      <trkpt lat="36.768773021176457" lon="-4.794521033763886">
        <ele>205.86000000000001</ele>
        <time>2025-05-09T11:44:54Z</time>
      </trkpt>
      <trkpt lat="36.768828006461263" lon="-4.794277958571911">
        <ele>205.86000000000001</ele>
        <time>2025-05-09T11:44:55Z</time>
      </trkpt>
      <trkpt lat="36.768897995352745" lon="-4.794033961370587">
        <ele>205.86000000000001</ele>
        <time>2025-05-09T11:44:56Z</time>
      </trkpt>
      <trkpt lat="36.768987011164427" lon="-4.793804967775941">
        <ele>205.86000000000001</ele>
        <time>2025-05-09T11:44:57Z</time>
      </trkpt>
      <trkpt lat="36.769845988601446" lon="-4.791412018239498">
        <ele>210.19</ele>
        <time>2025-05-09T11:45:07Z</time>
      </trkpt>
      <trkpt lat="36.770234992727637" lon="-4.788928041234613">
        <ele>214.50999999999999</ele>
        <time>2025-05-09T11:45:17Z</time>
      </trkpt>
      <trkpt lat="36.770704966038465" lon="-4.787359032779932">
        <ele>215.94999999999999</ele>
        <time>2025-05-09T11:45:24Z</time>
      </trkpt>
      <trkpt lat="36.771064968779683" lon="-4.786467030644417">
        <ele>212.59</ele>
        <time>2025-05-09T11:45:28Z</time>
      </trkpt>
      <trkpt lat="36.771133029833436" lon="-4.78624097071588">
        <ele>212.11000000000001</ele>
        <time>2025-05-09T11:45:29Z</time>
      </trkpt>
      <trkpt lat="36.771149039268494" lon="-4.785997979342938">
        <ele>212.11000000000001</ele>
        <time>2025-05-09T11:45:30Z</time>
      </trkpt>
      <trkpt lat="36.77116496488452" lon="-4.785755993798375">
        <ele>212.11000000000001</ele>
        <time>2025-05-09T11:45:31Z</time>
      </trkpt>
      <trkpt lat="36.771173011511564" lon="-4.785515014082193">
        <ele>212.59</ele>
        <time>2025-05-09T11:45:32Z</time>
      </trkpt>
      <trkpt lat="36.771161025390029" lon="-4.785270011052489">
        <ele>212.59</ele>
        <time>2025-05-09T11:45:33Z</time>
      </trkpt>
      <trkpt lat="36.770917028188705" lon="-4.782183961942792">
        <ele>200.09</ele>
        <time>2025-05-09T11:45:45Z</time>
      </trkpt>
      <trkpt lat="36.770345969125628" lon="-4.779896037653089">
        <ele>187.11000000000001</ele>
        <time>2025-05-09T11:45:54Z</time>
      </trkpt>
      <trkpt lat="36.769505012780428" lon="-4.777471991255879">
        <ele>180.87</ele>
        <time>2025-05-09T11:46:04Z</time>
      </trkpt>
      <trkpt lat="36.76935900002718" lon="-4.777263030409813">
        <ele>179.90000000000001</ele>
        <time>2025-05-09T11:46:05Z</time>
      </trkpt>
      <trkpt lat="36.767887976020575" lon="-4.775426974520087">
        <ele>171.72999999999999</ele>
        <time>2025-05-09T11:46:14Z</time>
      </trkpt>
      <trkpt lat="36.767163025215268" lon="-4.774084025993943">
        <ele>172.21000000000001</ele>
        <time>2025-05-09T11:46:20Z</time>
      </trkpt>
      <trkpt lat="36.766954986378551" lon="-4.773338958621025">
        <ele>172.21000000000001</ele>
        <time>2025-05-09T11:46:23Z</time>
      </trkpt>
      <trkpt lat="36.766892960295081" lon="-4.772809976711869">
        <ele>171.72999999999999</ele>
        <time>2025-05-09T11:46:25Z</time>
      </trkpt>
      <trkpt lat="36.766895977780223" lon="-4.770330023020506">
        <ele>165.96000000000001</ele>
        <time>2025-05-09T11:46:34Z</time>
      </trkpt>
      <trkpt lat="36.766828000545502" lon="-4.76724598556757">
        <ele>145.78</ele>
        <time>2025-05-09T11:46:45Z</time>
      </trkpt>
      <trkpt lat="36.766321985051036" lon="-4.765279004350305">
        <ele>133.28</ele>
        <time>2025-05-09T11:46:52Z</time>
      </trkpt>
      <trkpt lat="36.764990016818047" lon="-4.761180002242327">
        <ele>127.03</ele>
        <time>2025-05-09T11:47:07Z</time>
      </trkpt>
      <trkpt lat="36.764327008277178" lon="-4.758743969723582">
        <ele>117.90000000000001</ele>
        <time>2025-05-09T11:47:16Z</time>
      </trkpt>
      <trkpt lat="36.764321979135275" lon="-4.756830967962742">
        <ele>107.81</ele>
        <time>2025-05-09T11:47:23Z</time>
      </trkpt>
      <trkpt lat="36.764657003805041" lon="-4.753574011847377">
        <ele>118.86</ele>
        <time>2025-05-09T11:47:35Z</time>
      </trkpt>
      <trkpt lat="36.76459196023643" lon="-4.751437967643142">
        <ele>133.28</ele>
        <time>2025-05-09T11:47:44Z</time>
      </trkpt>
      <trkpt lat="36.764616016298532" lon="-4.749464029446244">
        <ele>134.72</ele>
        <time>2025-05-09T11:47:53Z</time>
      </trkpt>
      <trkpt lat="36.764881974086165" lon="-4.747869037091732">
        <ele>131.36000000000001</ele>
        <time>2025-05-09T11:48:03Z</time>
      </trkpt>
      <trkpt lat="36.765120020136237" lon="-4.746536985039711">
        <ele>128.47</ele>
        <time>2025-05-09T11:48:15Z</time>
      </trkpt>
      <trkpt lat="36.765337027609348" lon="-4.745423030108213">
        <ele>125.59</ele>
        <time>2025-05-09T11:48:25Z</time>
      </trkpt>
      <trkpt lat="36.765614971518517" lon="-4.744260041043162">
        <ele>123.19</ele>
        <time>2025-05-09T11:48:35Z</time>
      </trkpt>
      <trkpt lat="36.765814041718841" lon="-4.743758970871568">
        <ele>121.73999999999999</ele>
        <time>2025-05-09T11:48:39Z</time>
      </trkpt>
      <trkpt lat="36.766509991139174" lon="-4.742695977911353">
        <ele>119.34</ele>
        <time>2025-05-09T11:48:46Z</time>
      </trkpt>
      <trkpt lat="36.767851011827588" lon="-4.740896970033646">
        <ele>114.53</ele>
        <time>2025-05-09T11:48:55Z</time>
      </trkpt>
      <trkpt lat="36.768982987850904" lon="-4.739256966859102">
        <ele>103.95999999999999</ele>
        <time>2025-05-09T11:49:04Z</time>
      </trkpt>
      <trkpt lat="36.769218016415834" lon="-4.738844996318221">
        <ele>98.189999999999998</ele>
        <time>2025-05-09T11:49:08Z</time>
      </trkpt>
      <trkpt lat="36.769261015579104" lon="-4.738769978284836">
        <ele>97.230000000000004</ele>
        <time>2025-05-09T11:49:09Z</time>
      </trkpt>
      <trkpt lat="36.769455978646874" lon="-4.738435037434101">
        <ele>88.579999999999998</ele>
        <time>2025-05-09T11:49:17Z</time>
      </trkpt>
      <trkpt lat="36.769479028880596" lon="-4.738395977765322">
        <ele>86.659999999999997</ele>
        <time>2025-05-09T11:49:19Z</time>
      </trkpt>
      <trkpt lat="36.76948900334537" lon="-4.738378962501884">
        <ele>85.689999999999998</ele>
        <time>2025-05-09T11:49:20Z</time>
      </trkpt>
      <trkpt lat="36.76948900334537" lon="-4.738378962501884">
        <ele>85.209999999999994</ele>
        <time>2025-05-09T11:49:30Z</time>
      </trkpt>
      <trkpt lat="36.769495038315654" lon="-4.738368988037109">
        <ele>85.209999999999994</ele>
        <time>2025-05-09T11:49:58Z</time>
      </trkpt>
      <trkpt lat="36.769499983638525" lon="-4.738360019400716">
        <ele>83.769999999999996</ele>
        <time>2025-05-09T11:49:59Z</time>
      </trkpt>
      <trkpt lat="36.76950903609395" lon="-4.738345015794039">
        <ele>82.810000000000002</ele>
        <time>2025-05-09T11:50:00Z</time>
      </trkpt>
      <trkpt lat="36.769516998901963" lon="-4.738332023844123">
        <ele>81.849999999999994</ele>
        <time>2025-05-09T11:50:01Z</time>
      </trkpt>
      <trkpt lat="36.769516998901963" lon="-4.738332023844123">
        <ele>80.890000000000001</ele>
        <time>2025-05-09T11:50:02Z</time>
      </trkpt>
      <trkpt lat="36.769516998901963" lon="-4.738332023844123">
        <ele>80.409999999999997</ele>
        <time>2025-05-09T11:50:03Z</time>
      </trkpt>
      <trkpt lat="36.769643984735012" lon="-4.738114010542631">
        <ele>75.120000000000005</ele>
        <time>2025-05-09T11:50:17Z</time>
      </trkpt>
      <trkpt lat="36.769668040797114" lon="-4.738073023036122">
        <ele>74.640000000000001</ele>
        <time>2025-05-09T11:50:42Z</time>
      </trkpt>
      <trkpt lat="36.769668040797114" lon="-4.738073023036122">
        <ele>74.640000000000001</ele>
        <time>2025-05-09T11:51:15Z</time>
      </trkpt>
      <trkpt lat="36.769714979454875" lon="-4.737990964204073">
        <ele>75.120000000000005</ele>
        <time>2025-05-09T11:51:31Z</time>
      </trkpt>
      <trkpt lat="36.769714979454875" lon="-4.737990964204073">
        <ele>75.120000000000005</ele>
        <time>2025-05-09T11:51:36Z</time>
      </trkpt>
      <trkpt lat="36.769743980839849" lon="-4.737938996404409">
        <ele>75.120000000000005</ele>
        <time>2025-05-09T11:51:37Z</time>
      </trkpt>
      <trkpt lat="36.769869960844517" lon="-4.737888034433126">
        <ele>75.120000000000005</ele>
        <time>2025-05-09T11:51:38Z</time>
      </trkpt>
      <trkpt lat="36.769913965836167" lon="-4.737924998626113">
        <ele>76.079999999999998</ele>
        <time>2025-05-09T11:51:39Z</time>
      </trkpt>
      <trkpt lat="36.769980015233159" lon="-4.737975960597396">
        <ele>75.599999999999994</ele>
        <time>2025-05-09T11:51:40Z</time>
      </trkpt>
      <trkpt lat="36.770057966932654" lon="-4.738033963367343">
        <ele>75.599999999999994</ele>
        <time>2025-05-09T11:51:41Z</time>
      </trkpt>
      <trkpt lat="36.770145976915956" lon="-4.738096995279193">
        <ele>75.599999999999994</ele>
        <time>2025-05-09T11:51:42Z</time>
      </trkpt>
      <trkpt lat="36.770651992410421" lon="-4.73839296028018">
        <ele>74.640000000000001</ele>
        <time>2025-05-09T11:51:47Z</time>
      </trkpt>
      <trkpt lat="36.770732961595058" lon="-4.738436965271831">
        <ele>74.640000000000001</ele>
        <time>2025-05-09T11:51:48Z</time>
      </trkpt>
      <trkpt lat="36.770801022648811" lon="-4.738466972485185">
        <ele>75.120000000000005</ele>
        <time>2025-05-09T11:51:49Z</time>
      </trkpt>
      <trkpt lat="36.770952986553311" lon="-4.738341998308897">
        <ele>75.120000000000005</ele>
        <time>2025-05-09T11:51:50Z</time>
      </trkpt>
      <trkpt lat="36.77097000181675" lon="-4.738251976668835">
        <ele>75.120000000000005</ele>
        <time>2025-05-09T11:51:51Z</time>
      </trkpt>
      <trkpt lat="36.77099397405982" lon="-4.738130019977689">
        <ele>75.120000000000005</ele>
        <time>2025-05-09T11:51:52Z</time>
      </trkpt>
      <trkpt lat="36.771021969616413" lon="-4.737979983910918">
        <ele>75.120000000000005</ele>
        <time>2025-05-09T11:51:53Z</time>
      </trkpt>
      <trkpt lat="36.771106040105224" lon="-4.736762009561062">
        <ele>74.640000000000001</ele>
        <time>2025-05-09T11:52:00Z</time>
      </trkpt>
      <trkpt lat="36.771341990679502" lon="-4.735121000558138">
        <ele>78.969999999999999</ele>
        <time>2025-05-09T11:52:10Z</time>
      </trkpt>
      <trkpt lat="36.77193702198565" lon="-4.734167978167534">
        <ele>85.209999999999994</ele>
        <time>2025-05-09T11:52:17Z</time>
      </trkpt>
      <trkpt lat="36.772047998383641" lon="-4.734034035354853">
        <ele>86.659999999999997</ele>
        <time>2025-05-09T11:52:18Z</time>
      </trkpt>
      <trkpt lat="36.772859031334519" lon="-4.732726039364934">
        <ele>96.75</ele>
        <time>2025-05-09T11:52:27Z</time>
      </trkpt>
      <trkpt lat="36.773910960182548" lon="-4.730378016829491">
        <ele>101.56</ele>
        <time>2025-05-09T11:52:41Z</time>
      </trkpt>
      <trkpt lat="36.774141965433955" lon="-4.729901002719998">
        <ele>102.04000000000001</ele>
        <time>2025-05-09T11:52:44Z</time>
      </trkpt>
      <trkpt lat="36.774238022044301" lon="-4.729762030765414">
        <ele>102.52</ele>
        <time>2025-05-09T11:52:45Z</time>
      </trkpt>
      <trkpt lat="36.774347992613912" lon="-4.729639990255237">
        <ele>102.04000000000001</ele>
        <time>2025-05-09T11:52:46Z</time>
      </trkpt>
      <trkpt lat="36.774438014253974" lon="-4.729549968615174">
        <ele>102.04000000000001</ele>
        <time>2025-05-09T11:52:47Z</time>
      </trkpt>
      <trkpt lat="36.774600958451629" lon="-4.72947302274406">
        <ele>102.04000000000001</ele>
        <time>2025-05-09T11:52:48Z</time>
      </trkpt>
      <trkpt lat="36.774740014225245" lon="-4.729407979175448">
        <ele>102.04000000000001</ele>
        <time>2025-05-09T11:52:49Z</time>
      </trkpt>
      <trkpt lat="36.774876974523067" lon="-4.729370009154081">
        <ele>102.04000000000001</ele>
        <time>2025-05-09T11:52:50Z</time>
      </trkpt>
      <trkpt lat="36.775027010589838" lon="-4.729351988062263">
        <ele>101.56</ele>
        <time>2025-05-09T11:52:51Z</time>
      </trkpt>
      <trkpt lat="36.775177968665957" lon="-4.729334972798824">
        <ele>101.56</ele>
        <time>2025-05-09T11:52:52Z</time>
      </trkpt>
      <trkpt lat="36.77533496171236" lon="-4.729317035526037">
        <ele>101.08</ele>
        <time>2025-05-09T11:52:53Z</time>
      </trkpt>
      <trkpt lat="36.776645975187421" lon="-4.729056023061276">
        <ele>101.08</ele>
        <time>2025-05-09T11:53:01Z</time>
      </trkpt>
      <trkpt lat="36.77806100808084" lon="-4.728326965123415">
        <ele>96.75</ele>
        <time>2025-05-09T11:53:08Z</time>
      </trkpt>
      <trkpt lat="36.779204970225692" lon="-4.727189959958196">
        <ele>88.099999999999994</ele>
        <time>2025-05-09T11:53:14Z</time>
      </trkpt>
      <trkpt lat="36.779378978535533" lon="-4.727031961083412">
        <ele>87.140000000000001</ele>
        <time>2025-05-09T11:53:15Z</time>
      </trkpt>
      <trkpt lat="36.779563967138529" lon="-4.726902963593602">
        <ele>85.689999999999998</ele>
        <time>2025-05-09T11:53:16Z</time>
      </trkpt>
      <trkpt lat="36.779759014025331" lon="-4.72681000828743">
        <ele>84.730000000000004</ele>
        <time>2025-05-09T11:53:17Z</time>
      </trkpt>
      <trkpt lat="36.779951965436339" lon="-4.726728033274412">
        <ele>84.25</ele>
        <time>2025-05-09T11:53:18Z</time>
      </trkpt>
      <trkpt lat="36.780146006494761" lon="-4.726674975827336">
        <ele>83.769999999999996</ele>
        <time>2025-05-09T11:53:19Z</time>
      </trkpt>
      <trkpt lat="36.782404007390141" lon="-4.726114980876446">
        <ele>89.060000000000002</ele>
        <time>2025-05-09T11:53:31Z</time>
      </trkpt>
      <trkpt lat="36.7837980017066" lon="-4.725433029234409">
        <ele>92.420000000000002</ele>
        <time>2025-05-09T11:53:39Z</time>
      </trkpt>
      <trkpt lat="36.784121040254831" lon="-4.725206969305873">
        <ele>91.939999999999998</ele>
        <time>2025-05-09T11:53:41Z</time>
      </trkpt>
      <trkpt lat="36.784273004159331" lon="-4.725072020664811">
        <ele>91.939999999999998</ele>
        <time>2025-05-09T11:53:42Z</time>
      </trkpt>
      <trkpt lat="36.784408036619425" lon="-4.724916033446789">
        <ele>91.939999999999998</ele>
        <time>2025-05-09T11:53:43Z</time>
      </trkpt>
      <trkpt lat="36.784536028280854" lon="-4.724743030965328">
        <ele>91.939999999999998</ele>
        <time>2025-05-09T11:53:44Z</time>
      </trkpt>
      <trkpt lat="36.784650022163987" lon="-4.724561981856823">
        <ele>91.939999999999998</ele>
        <time>2025-05-09T11:53:45Z</time>
      </trkpt>
      <trkpt lat="36.784801986068487" lon="-4.724161997437477">
        <ele>90.980000000000004</ele>
        <time>2025-05-09T11:53:47Z</time>
      </trkpt>
      <trkpt lat="36.784858983010054" lon="-4.723937027156353">
        <ele>90.5</ele>
        <time>2025-05-09T11:53:48Z</time>
      </trkpt>
      <trkpt lat="36.785342032089829" lon="-4.722055038437247">
        <ele>84.730000000000004</ele>
        <time>2025-05-09T11:53:56Z</time>
      </trkpt>
      <trkpt lat="36.785861039534211" lon="-4.719855962321162">
        <ele>82.810000000000002</ele>
        <time>2025-05-09T11:54:06Z</time>
      </trkpt>
      <trkpt lat="36.786134960129857" lon="-4.718836974352598">
        <ele>85.209999999999994</ele>
        <time>2025-05-09T11:54:11Z</time>
      </trkpt>
      <trkpt lat="36.786221964284778" lon="-4.718662966042757">
        <ele>85.689999999999998</ele>
        <time>2025-05-09T11:54:12Z</time>
      </trkpt>
      <trkpt lat="36.786308968439698" lon="-4.718489041551948">
        <ele>86.180000000000007</ele>
        <time>2025-05-09T11:54:13Z</time>
      </trkpt>
      <trkpt lat="36.786407958716154" lon="-4.718328025192022">
        <ele>86.659999999999997</ele>
        <time>2025-05-09T11:54:14Z</time>
      </trkpt>
      <trkpt lat="36.786529999226332" lon="-4.718193998560309">
        <ele>87.140000000000001</ele>
        <time>2025-05-09T11:54:15Z</time>
      </trkpt>
      <trkpt lat="36.786663020029664" lon="-4.718076987192035">
        <ele>87.620000000000005</ele>
        <time>2025-05-09T11:54:16Z</time>
      </trkpt>
      <trkpt lat="36.786810038611293" lon="-4.717986965551972">
        <ele>88.099999999999994</ele>
        <time>2025-05-09T11:54:17Z</time>
      </trkpt>
      <trkpt lat="36.786960996687412" lon="-4.717930974438787">
        <ele>88.579999999999998</ele>
        <time>2025-05-09T11:54:18Z</time>
      </trkpt>
      <trkpt lat="36.787117989733815" lon="-4.717910019680858">
        <ele>89.060000000000002</ele>
        <time>2025-05-09T11:54:19Z</time>
      </trkpt>
      <trkpt lat="36.78727800026536" lon="-4.717911025509238">
        <ele>89.540000000000006</ele>
        <time>2025-05-09T11:54:20Z</time>
      </trkpt>
      <trkpt lat="36.787453014403582" lon="-4.717942960560322">
        <ele>90.019999999999996</ele>
        <time>2025-05-09T11:54:21Z</time>
      </trkpt>
      <trkpt lat="36.787630962207913" lon="-4.717973973602057">
        <ele>90.5</ele>
        <time>2025-05-09T11:54:22Z</time>
      </trkpt>
      <trkpt lat="36.788507960736752" lon="-4.718130966648459">
        <ele>93.390000000000001</ele>
        <time>2025-05-09T11:54:27Z</time>
      </trkpt>
      <trkpt lat="36.788685992360115" lon="-4.718162985518575">
        <ele>93.870000000000005</ele>
        <time>2025-05-09T11:54:28Z</time>
      </trkpt>
      <trkpt lat="36.78886603564024" lon="-4.71819500438869">
        <ele>94.349999999999994</ele>
        <time>2025-05-09T11:54:29Z</time>
      </trkpt>
      <trkpt lat="36.789392000064254" lon="-4.718292988836765">
        <ele>95.790000000000006</ele>
        <time>2025-05-09T11:54:32Z</time>
      </trkpt>
      <trkpt lat="36.789570031687617" lon="-4.718328025192022">
        <ele>96.269999999999996</ele>
        <time>2025-05-09T11:54:33Z</time>
      </trkpt>
      <trkpt lat="36.790134971961379" lon="-4.718435984104872">
        <ele>98.189999999999998</ele>
        <time>2025-05-09T11:54:36Z</time>
      </trkpt>
      <trkpt lat="36.790727991610765" lon="-4.718454005196691">
        <ele>98.670000000000002</ele>
        <time>2025-05-09T11:54:39Z</time>
      </trkpt>
      <trkpt lat="36.790912980213761" lon="-4.718429027125239">
        <ele>98.670000000000002</ele>
        <time>2025-05-09T11:54:40Z</time>
      </trkpt>
      <trkpt lat="36.791084976866841" lon="-4.718390973284841">
        <ele>98.670000000000002</ele>
        <time>2025-05-09T11:54:41Z</time>
      </trkpt>
      <trkpt lat="36.791254039853811" lon="-4.718332970514894">
        <ele>98.670000000000002</ele>
        <time>2025-05-09T11:54:42Z</time>
      </trkpt>
      <trkpt lat="36.79142695851624" lon="-4.718252001330257">
        <ele>98.189999999999998</ele>
        <time>2025-05-09T11:54:43Z</time>
      </trkpt>
      <trkpt lat="36.791599960997701" lon="-4.718149993568659">
        <ele>97.709999999999994</ele>
        <time>2025-05-09T11:54:44Z</time>
      </trkpt>
      <trkpt lat="36.792739983648062" lon="-4.717153972014785">
        <ele>93.870000000000005</ele>
        <time>2025-05-09T11:54:52Z</time>
      </trkpt>
      <trkpt lat="36.792995966970921" lon="-4.71679899841547">
        <ele>92.420000000000002</ele>
        <time>2025-05-09T11:54:54Z</time>
      </trkpt>
      <trkpt lat="36.793111972510815" lon="-4.716589031741023">
        <ele>91.459999999999994</ele>
        <time>2025-05-09T11:54:55Z</time>
      </trkpt>
      <trkpt lat="36.794167002663016" lon="-4.714878033846617">
        <ele>90.019999999999996</ele>
        <time>2025-05-09T11:55:04Z</time>
      </trkpt>
      <trkpt lat="36.794480988755822" lon="-4.714603023603559">
        <ele>90.019999999999996</ele>
        <time>2025-05-09T11:55:06Z</time>
      </trkpt>
      <trkpt lat="36.79464703425765" lon="-4.714489029720426">
        <ele>90.5</ele>
        <time>2025-05-09T11:55:07Z</time>
      </trkpt>
      <trkpt lat="36.794823976233602" lon="-4.714400013908744">
        <ele>90.5</ele>
        <time>2025-05-09T11:55:08Z</time>
      </trkpt>
      <trkpt lat="36.795003013685346" lon="-4.714310998097062">
        <ele>90.980000000000004</ele>
        <time>2025-05-09T11:55:09Z</time>
      </trkpt>
      <trkpt lat="36.7951849848032" lon="-4.714219970628619">
        <ele>91.459999999999994</ele>
        <time>2025-05-09T11:55:10Z</time>
      </trkpt>
      <trkpt lat="36.795380031690001" lon="-4.714166997000575">
        <ele>91.939999999999998</ele>
        <time>2025-05-09T11:55:11Z</time>
      </trkpt>
      <trkpt lat="36.795583041384816" lon="-4.714137995615602">
        <ele>91.939999999999998</ele>
        <time>2025-05-09T11:55:12Z</time>
      </trkpt>
      <trkpt lat="36.797144003212452" lon="-4.7140499856323">
        <ele>94.349999999999994</ele>
        <time>2025-05-09T11:55:20Z</time>
      </trkpt>
      <trkpt lat="36.79855995811522" lon="-4.713457971811295">
        <ele>96.269999999999996</ele>
        <time>2025-05-09T11:55:28Z</time>
      </trkpt>
      <trkpt lat="36.800187975168228" lon="-4.71288800239563">
        <ele>98.670000000000002</ele>
        <time>2025-05-09T11:55:37Z</time>
      </trkpt>
      <trkpt lat="36.802163003012538" lon="-4.712508972734213">
        <ele>103.48</ele>
        <time>2025-05-09T11:55:48Z</time>
      </trkpt>
      <trkpt lat="36.80382396094501" lon="-4.712026007473469">
        <ele>100.11</ele>
        <time>2025-05-09T11:55:57Z</time>
      </trkpt>
      <trkpt lat="36.8039920181036" lon="-4.711904972791672">
        <ele>99.629999999999995</ele>
        <time>2025-05-09T11:55:58Z</time>
      </trkpt>
      <trkpt lat="36.804155968129635" lon="-4.711787039414048">
        <ele>99.150000000000006</ele>
        <time>2025-05-09T11:55:59Z</time>
      </trkpt>
      <trkpt lat="36.804301980882883" lon="-4.711645971983671">
        <ele>98.189999999999998</ele>
        <time>2025-05-09T11:56:00Z</time>
      </trkpt>
      <trkpt lat="36.804439024999738" lon="-4.711485961452127">
        <ele>97.709999999999994</ele>
        <time>2025-05-09T11:56:01Z</time>
      </trkpt>
      <trkpt lat="36.80457497946918" lon="-4.711327040567994">
        <ele>96.75</ele>
        <time>2025-05-09T11:56:02Z</time>
      </trkpt>
      <trkpt lat="36.805785996839404" lon="-4.709575977176428">
        <ele>92.420000000000002</ele>
        <time>2025-05-09T11:56:12Z</time>
      </trkpt>
      <trkpt lat="36.806956026703119" lon="-4.708479037508369">
        <ele>96.269999999999996</ele>
        <time>2025-05-09T11:56:20Z</time>
      </trkpt>
      <trkpt lat="36.808469966053963" lon="-4.707384025678039">
        <ele>97.230000000000004</ele>
        <time>2025-05-09T11:56:30Z</time>
      </trkpt>
      <trkpt lat="36.809434974566102" lon="-4.706676006317139">
        <ele>98.189999999999998</ele>
        <time>2025-05-09T11:56:37Z</time>
      </trkpt>
      <trkpt lat="36.809550980105996" lon="-4.706492023542523">
        <ele>98.670000000000002</ele>
        <time>2025-05-09T11:56:38Z</time>
      </trkpt>
      <trkpt lat="36.80964301340282" lon="-4.706348022446036">
        <ele>98.670000000000002</ele>
        <time>2025-05-09T11:56:39Z</time>
      </trkpt>
      <trkpt lat="36.809715013951063" lon="-4.706199998036027">
        <ele>98.670000000000002</ele>
        <time>2025-05-09T11:56:40Z</time>
      </trkpt>
      <trkpt lat="36.809735968708992" lon="-4.706029007211328">
        <ele>98.670000000000002</ele>
        <time>2025-05-09T11:56:41Z</time>
      </trkpt>
      <trkpt lat="36.809735968708992" lon="-4.705857010558248">
        <ele>98.189999999999998</ele>
        <time>2025-05-09T11:56:42Z</time>
      </trkpt>
      <trkpt lat="36.809706967324018" lon="-4.705690965056419">
        <ele>98.189999999999998</ele>
        <time>2025-05-09T11:56:43Z</time>
      </trkpt>
      <trkpt lat="36.809658017009497" lon="-4.705528020858765">
        <ele>97.709999999999994</ele>
        <time>2025-05-09T11:56:44Z</time>
      </trkpt>
      <trkpt lat="36.809592973440886" lon="-4.705373039469123">
        <ele>97.709999999999994</ele>
        <time>2025-05-09T11:56:45Z</time>
      </trkpt>
      <trkpt lat="36.80880700238049" lon="-4.703444028273225">
        <ele>92.900000000000006</ele>
        <time>2025-05-09T11:56:56Z</time>
      </trkpt>
      <trkpt lat="36.808758974075317" lon="-4.703264990821481">
        <ele>92.420000000000002</ele>
        <time>2025-05-09T11:56:57Z</time>
      </trkpt>
      <trkpt lat="36.80837701074779" lon="-4.701445028185844">
        <ele>89.060000000000002</ele>
        <time>2025-05-09T11:57:08Z</time>
      </trkpt>
      <trkpt lat="36.808138964697719" lon="-4.700891990214586">
        <ele>88.579999999999998</ele>
        <time>2025-05-09T11:57:12Z</time>
      </trkpt>
      <trkpt lat="36.808082973584533" lon="-4.700774978846312">
        <ele>88.579999999999998</ele>
        <time>2025-05-09T11:57:13Z</time>
      </trkpt>
      <trkpt lat="36.808019019663334" lon="-4.700689986348152">
        <ele>88.579999999999998</ele>
        <time>2025-05-09T11:57:14Z</time>
      </trkpt>
      <trkpt lat="36.807950958609581" lon="-4.70060097053647">
        <ele>89.060000000000002</ele>
        <time>2025-05-09T11:57:15Z</time>
      </trkpt>
      <trkpt lat="36.807870995253325" lon="-4.700538022443652">
        <ele>89.060000000000002</ele>
        <time>2025-05-09T11:57:16Z</time>
      </trkpt>
      <trkpt lat="36.807199018076062" lon="-4.699971992522478">
        <ele>91.939999999999998</ele>
        <time>2025-05-09T11:57:23Z</time>
      </trkpt>
      <trkpt lat="36.807111008092761" lon="-4.699851041659713">
        <ele>91.939999999999998</ele>
        <time>2025-05-09T11:57:24Z</time>
      </trkpt>
      <trkpt lat="36.807040013372898" lon="-4.699711985886097">
        <ele>91.939999999999998</ele>
        <time>2025-05-09T11:57:25Z</time>
      </trkpt>
      <trkpt lat="36.806972036138177" lon="-4.699566978961229">
        <ele>92.420000000000002</ele>
        <time>2025-05-09T11:57:26Z</time>
      </trkpt>
      <trkpt lat="36.806903975084424" lon="-4.699423983693123">
        <ele>92.900000000000006</ele>
        <time>2025-05-09T11:57:27Z</time>
      </trkpt>
      <trkpt lat="36.806440036743879" lon="-4.698350010439754">
        <ele>93.870000000000005</ele>
        <time>2025-05-09T11:57:35Z</time>
      </trkpt>
      <trkpt lat="36.806402988731861" lon="-4.698197040706873">
        <ele>93.870000000000005</ele>
        <time>2025-05-09T11:57:36Z</time>
      </trkpt>
      <trkpt lat="36.806387985125184" lon="-4.698050022125244">
        <ele>94.349999999999994</ele>
        <time>2025-05-09T11:57:37Z</time>
      </trkpt>
      <trkpt lat="36.806396031752229" lon="-4.697923036292195">
        <ele>94.829999999999998</ele>
        <time>2025-05-09T11:57:38Z</time>
      </trkpt>
      <trkpt lat="36.806403994560242" lon="-4.697806024923921">
        <ele>95.310000000000002</ele>
        <time>2025-05-09T11:57:39Z</time>
      </trkpt>
      <trkpt lat="36.806410029530525" lon="-4.697705022990704">
        <ele>95.790000000000006</ele>
        <time>2025-05-09T11:57:40Z</time>
      </trkpt>
      <trkpt lat="36.806428972631693" lon="-4.697607960551977">
        <ele>96.75</ele>
        <time>2025-05-09T11:57:41Z</time>
      </trkpt>
      <trkpt lat="36.806450011208653" lon="-4.69750695861876">
        <ele>97.709999999999994</ele>
        <time>2025-05-09T11:57:42Z</time>
      </trkpt>
      <trkpt lat="36.806473983451724" lon="-4.697385001927614">
        <ele>98.189999999999998</ele>
        <time>2025-05-09T11:57:43Z</time>
      </trkpt>
      <trkpt lat="36.806515976786613" lon="-4.69728802330792">
        <ele>99.150000000000006</ele>
        <time>2025-05-09T11:57:44Z</time>
      </trkpt>
      <trkpt lat="36.806783024221659" lon="-4.696700032800436">
        <ele>103.48</ele>
        <time>2025-05-09T11:57:52Z</time>
      </trkpt>
      <trkpt lat="36.806815965101123" lon="-4.69662400893867">
        <ele>104.44</ele>
        <time>2025-05-09T11:57:54Z</time>
      </trkpt>
      <trkpt lat="36.806839015334845" lon="-4.696569023653865">
        <ele>105.40000000000001</ele>
        <time>2025-05-09T11:57:55Z</time>
      </trkpt>
      <trkpt lat="36.807121988385916" lon="-4.695880031213164">
        <ele>109.25</ele>
        <time>2025-05-09T11:58:04Z</time>
      </trkpt>
      <trkpt lat="36.807137997820973" lon="-4.695796966552734">
        <ele>109.73</ele>
        <time>2025-05-09T11:58:05Z</time>
      </trkpt>
      <trkpt lat="36.807150989770889" lon="-4.695725971832871">
        <ele>109.73</ele>
        <time>2025-05-09T11:58:06Z</time>
      </trkpt>
      <trkpt lat="36.807161970064044" lon="-4.695667969062924">
        <ele>110.20999999999999</ele>
        <time>2025-05-09T11:58:07Z</time>
      </trkpt>
      <trkpt lat="36.807117965072393" lon="-4.695581970736384">
        <ele>110.20999999999999</ele>
        <time>2025-05-09T11:58:08Z</time>
      </trkpt>
      <trkpt lat="36.807090975344181" lon="-4.69557199627161">
        <ele>110.20999999999999</ele>
        <time>2025-05-09T11:58:09Z</time>
      </trkpt>
      <trkpt lat="36.807011011987925" lon="-4.695480968803167">
        <ele>110.20999999999999</ele>
        <time>2025-05-09T11:58:10Z</time>
      </trkpt>
      <trkpt lat="36.807011011987925" lon="-4.695409974083304">
        <ele>110.20999999999999</ele>
        <time>2025-05-09T11:58:11Z</time>
      </trkpt>
      <trkpt lat="36.807011011987925" lon="-4.695344008505344">
        <ele>110.20999999999999</ele>
        <time>2025-05-09T11:58:12Z</time>
      </trkpt>
      <trkpt lat="36.807011011987925" lon="-4.695324981585145">
        <ele>110.69</ele>
        <time>2025-05-09T11:58:13Z</time>
      </trkpt>
      <trkpt lat="36.80708603002131" lon="-4.695275025442243">
        <ele>110.69</ele>
        <time>2025-05-09T11:58:14Z</time>
      </trkpt>
      <trkpt lat="36.807120982557535" lon="-4.695251975208521">
        <ele>110.69</ele>
        <time>2025-05-09T11:58:15Z</time>
      </trkpt>
      <trkpt lat="36.807139003649354" lon="-4.695238983258605">
        <ele>110.69</ele>
        <time>2025-05-09T11:58:16Z</time>
      </trkpt>
      <trkpt lat="36.807155013084412" lon="-4.695254992693663">
        <ele>110.69</ele>
        <time>2025-05-09T11:58:17Z</time>
      </trkpt>
      <trkpt lat="36.807188037782907" lon="-4.695288017392159">
        <ele>110.69</ele>
        <time>2025-05-09T11:58:18Z</time>
      </trkpt>
      <trkpt lat="36.80721896700561" lon="-4.695319030433893">
        <ele>110.20999999999999</ele>
        <time>2025-05-09T11:58:19Z</time>
      </trkpt>
      <trkpt lat="36.807225001975894" lon="-4.695324981585145">
        <ele>110.20999999999999</ele>
        <time>2025-05-09T11:58:20Z</time>
      </trkpt>
      <trkpt lat="36.807225001975894" lon="-4.695324981585145">
        <ele>110.20999999999999</ele>
        <time>2025-05-09T11:58:21Z</time>
      </trkpt>
      <trkpt lat="36.807439997792244" lon="-4.695367980748415">
        <ele>109.73</ele>
        <time>2025-05-09T11:58:24Z</time>
      </trkpt>
      <trkpt lat="36.807503029704094" lon="-4.695325987413526">
        <ele>109.25</ele>
        <time>2025-05-09T11:58:25Z</time>
      </trkpt>
      <trkpt lat="36.807562038302422" lon="-4.695287011563778">
        <ele>109.25</ele>
        <time>2025-05-09T11:58:26Z</time>
      </trkpt>
      <trkpt lat="36.807621968910098" lon="-4.69524702988565">
        <ele>109.25</ele>
        <time>2025-05-09T11:58:27Z</time>
      </trkpt>
      <trkpt lat="36.807679971680045" lon="-4.69520797021687">
        <ele>108.77</ele>
        <time>2025-05-09T11:58:28Z</time>
      </trkpt>
      <trkpt lat="36.808246001601219" lon="-4.694832963868976">
        <ele>105.88</ele>
        <time>2025-05-09T11:58:36Z</time>
      </trkpt>
      <trkpt lat="36.808411963284016" lon="-4.694760963320732">
        <ele>104.44</ele>
        <time>2025-05-09T11:58:38Z</time>
      </trkpt>
      <trkpt lat="36.808500979095697" lon="-4.694750988855958">
        <ele>103.95999999999999</ele>
        <time>2025-05-09T11:58:39Z</time>
      </trkpt>
      <trkpt lat="36.808587983250618" lon="-4.694760963320732">
        <ele>103.48</ele>
        <time>2025-05-09T11:58:40Z</time>
      </trkpt>
      <trkpt lat="36.808652020990849" lon="-4.694782001897693">
        <ele>103</ele>
        <time>2025-05-09T11:58:41Z</time>
      </trkpt>
      <trkpt lat="36.808701977133751" lon="-4.694849979132414">
        <ele>102.52</ele>
        <time>2025-05-09T11:58:42Z</time>
      </trkpt>
      <trkpt lat="36.808750005438924" lon="-4.694915022701025">
        <ele>101.08</ele>
        <time>2025-05-09T11:58:43Z</time>
      </trkpt>
      <trkpt lat="36.808796022087336" lon="-4.694977970793843">
        <ele>100.59999999999999</ele>
        <time>2025-05-09T11:58:44Z</time>
      </trkpt>
      <trkpt lat="36.808877997100353" lon="-4.695089031010866">
        <ele>100.11</ele>
        <time>2025-05-09T11:58:46Z</time>
      </trkpt>
      <trkpt lat="36.808900963515043" lon="-4.695160025730729">
        <ele>99.629999999999995</ele>
        <time>2025-05-09T11:58:47Z</time>
      </trkpt>
      <trkpt lat="36.808923007920384" lon="-4.695225991308689">
        <ele>99.629999999999995</ele>
        <time>2025-05-09T11:58:48Z</time>
      </trkpt>
      <trkpt lat="36.808942034840584" lon="-4.695281982421875">
        <ele>99.629999999999995</ele>
        <time>2025-05-09T11:58:49Z</time>
      </trkpt>
      <trkpt lat="36.808942034840584" lon="-4.695341996848583">
        <ele>99.150000000000006</ele>
        <time>2025-05-09T11:58:50Z</time>
      </trkpt>
      <trkpt lat="36.808942034840584" lon="-4.695410979911685">
        <ele>99.150000000000006</ele>
        <time>2025-05-09T11:58:51Z</time>
      </trkpt>
      <trkpt lat="36.808942034840584" lon="-4.695482980459929">
        <ele>99.150000000000006</ele>
        <time>2025-05-09T11:58:52Z</time>
      </trkpt>
      <trkpt lat="36.808942034840584" lon="-4.695624969899654">
        <ele>98.670000000000002</ele>
        <time>2025-05-09T11:58:54Z</time>
      </trkpt>
      <trkpt lat="36.808918984606862" lon="-4.695690013468266">
        <ele>98.670000000000002</ele>
        <time>2025-05-09T11:58:55Z</time>
      </trkpt>
      <trkpt lat="36.808879002928734" lon="-4.695765031501651">
        <ele>98.670000000000002</ele>
        <time>2025-05-09T11:58:56Z</time>
      </trkpt>
      <trkpt lat="36.808770038187504" lon="-4.695970974862576">
        <ele>100.11</ele>
        <time>2025-05-09T11:58:59Z</time>
      </trkpt>
      <trkpt lat="36.808748999610543" lon="-4.696039035916328">
        <ele>100.11</ele>
        <time>2025-05-09T11:59:00Z</time>
      </trkpt>
      <trkpt lat="36.808748999610543" lon="-4.696110030636191">
        <ele>100.11</ele>
        <time>2025-05-09T11:59:01Z</time>
      </trkpt>
      <trkpt lat="36.808748999610543" lon="-4.696187982335687">
        <ele>100.59999999999999</ele>
        <time>2025-05-09T11:59:02Z</time>
      </trkpt>
      <trkpt lat="36.808770960196853" lon="-4.69625998288393">
        <ele>100.59999999999999</ele>
        <time>2025-05-09T11:59:03Z</time>
      </trkpt>
      <trkpt lat="36.808813037350774" lon="-4.69632301479578">
        <ele>101.08</ele>
        <time>2025-05-09T11:59:04Z</time>
      </trkpt>
      <trkpt lat="36.808856958523393" lon="-4.69638797454536">
        <ele>101.08</ele>
        <time>2025-05-09T11:59:05Z</time>
      </trkpt>
      <trkpt lat="36.808903981000185" lon="-4.696436002850533">
        <ele>101.08</ele>
        <time>2025-05-09T11:59:06Z</time>
      </trkpt>
      <trkpt lat="36.808959972113371" lon="-4.69647103920579">
        <ele>101.56</ele>
        <time>2025-05-09T11:59:07Z</time>
      </trkpt>
      <trkpt lat="36.809018980711699" lon="-4.696508003398776">
        <ele>101.56</ele>
        <time>2025-05-09T11:59:08Z</time>
      </trkpt>
      <trkpt lat="36.809148984029889" lon="-4.696541028097272">
        <ele>101.56</ele>
        <time>2025-05-09T11:59:10Z</time>
      </trkpt>
      <trkpt lat="36.80921302177012" lon="-4.696549996733666">
        <ele>102.04000000000001</ele>
        <time>2025-05-09T11:59:11Z</time>
      </trkpt>
      <trkpt lat="36.809359034523368" lon="-4.696572041139007">
        <ele>102.52</ele>
        <time>2025-05-09T11:59:13Z</time>
      </trkpt>
      <trkpt lat="36.809437992051244" lon="-4.696590984240174">
        <ele>102.52</ele>
        <time>2025-05-09T11:59:14Z</time>
      </trkpt>
      <trkpt lat="36.810337034985423" lon="-4.69688200391829">
        <ele>103.95999999999999</ele>
        <time>2025-05-09T11:59:24Z</time>
      </trkpt>
      <trkpt lat="36.811526007950306" lon="-4.697328004986048">
        <ele>107.81</ele>
        <time>2025-05-09T11:59:36Z</time>
      </trkpt>
      <trkpt lat="36.811633966863155" lon="-4.69735499471426">
        <ele>107.81</ele>
        <time>2025-05-09T11:59:37Z</time>
      </trkpt>
      <trkpt lat="36.812680028378963" lon="-4.697679039090872">
        <ele>108.77</ele>
        <time>2025-05-09T11:59:47Z</time>
      </trkpt>
      <trkpt lat="36.813156958669424" lon="-4.697900991886854">
        <ele>110.20999999999999</ele>
        <time>2025-05-09T11:59:52Z</time>
      </trkpt>
      <trkpt lat="36.813558032736182" lon="-4.698071982711554">
        <ele>110.20999999999999</ele>
        <time>2025-05-09T11:59:56Z</time>
      </trkpt>
      <trkpt lat="36.814493034034967" lon="-4.698154963552952">
        <ele>108.29000000000001</ele>
        <time>2025-05-09T12:00:06Z</time>
      </trkpt>
      <trkpt lat="36.815115977078676" lon="-4.698179019615054">
        <ele>107.81</ele>
        <time>2025-05-09T12:00:15Z</time>
      </trkpt>
      <trkpt lat="36.815243968740106" lon="-4.698179019615054">
        <ele>108.77</ele>
        <time>2025-05-09T12:00:17Z</time>
      </trkpt>
      <trkpt lat="36.815785020589828" lon="-4.69832100905478">
        <ele>115.01000000000001</ele>
        <time>2025-05-09T12:00:27Z</time>
      </trkpt>
      <trkpt lat="36.816438976675272" lon="-4.698411030694842">
        <ele>117.42</ele>
        <time>2025-05-09T12:00:35Z</time>
      </trkpt>
      <trkpt lat="36.816618014127016" lon="-4.698355961591005">
        <ele>116.94</ele>
        <time>2025-05-09T12:00:37Z</time>
      </trkpt>
      <trkpt lat="36.816684985533357" lon="-4.698288990184665">
        <ele>116.94</ele>
        <time>2025-05-09T12:00:38Z</time>
      </trkpt>
      <trkpt lat="36.816752962768078" lon="-4.698221012949944">
        <ele>117.42</ele>
        <time>2025-05-09T12:00:39Z</time>
      </trkpt>
      <trkpt lat="36.816817000508308" lon="-4.698156975209713">
        <ele>116.94</ele>
        <time>2025-05-09T12:00:40Z</time>
      </trkpt>
      <trkpt lat="36.816835021600127" lon="-4.698075000196695">
        <ele>117.42</ele>
        <time>2025-05-09T12:00:41Z</time>
      </trkpt>
      <trkpt lat="36.816852958872914" lon="-4.69799998216331">
        <ele>117.42</ele>
        <time>2025-05-09T12:00:42Z</time>
      </trkpt>
      <trkpt lat="36.816867040470243" lon="-4.697937034070492">
        <ele>117.90000000000001</ele>
        <time>2025-05-09T12:00:43Z</time>
      </trkpt>
      <trkpt lat="36.816880032420158" lon="-4.697880037128925">
        <ele>118.38</ele>
        <time>2025-05-09T12:00:44Z</time>
      </trkpt>
      <trkpt lat="36.816893024370074" lon="-4.697823962196708">
        <ele>118.86</ele>
        <time>2025-05-09T12:00:45Z</time>
      </trkpt>
      <trkpt lat="36.816962007433176" lon="-4.697348959743977">
        <ele>122.22</ele>
        <time>2025-05-09T12:00:53Z</time>
      </trkpt>
      <trkpt lat="36.816968964412808" lon="-4.697271008044481">
        <ele>122.22</ele>
        <time>2025-05-09T12:00:54Z</time>
      </trkpt>
      <trkpt lat="36.817021016031504" lon="-4.696740014478564">
        <ele>124.63</ele>
        <time>2025-05-09T12:01:03Z</time>
      </trkpt>
      <trkpt lat="36.817026967182755" lon="-4.696681005880237">
        <ele>124.63</ele>
        <time>2025-05-09T12:01:04Z</time>
      </trkpt>
      <trkpt lat="36.817107014358044" lon="-4.696241961792111">
        <ele>124.63</ele>
        <time>2025-05-09T12:01:09Z</time>
      </trkpt>
      <trkpt lat="36.817139033228159" lon="-4.696140037849546">
        <ele>124.15000000000001</ele>
        <time>2025-05-09T12:01:10Z</time>
      </trkpt>
      <trkpt lat="36.817283034324646" lon="-4.695652965456247">
        <ele>122.22</ele>
        <time>2025-05-09T12:01:14Z</time>
      </trkpt>
      <trkpt lat="36.81752703152597" lon="-4.694299036636949">
        <ele>115.5</ele>
        <time>2025-05-09T12:01:22Z</time>
      </trkpt>
      <trkpt lat="36.817709002643824" lon="-4.69352999702096">
        <ele>114.53</ele>
        <time>2025-05-09T12:01:26Z</time>
      </trkpt>
      <trkpt lat="36.817801035940647" lon="-4.693354982882738">
        <ele>114.53</ele>
        <time>2025-05-09T12:01:27Z</time>
      </trkpt>
      <trkpt lat="36.817907989025116" lon="-4.693194972351193">
        <ele>114.53</ele>
        <time>2025-05-09T12:01:28Z</time>
      </trkpt>
      <trkpt lat="36.818016031756997" lon="-4.693032028153539">
        <ele>114.05</ele>
        <time>2025-05-09T12:01:29Z</time>
      </trkpt>
      <trkpt lat="36.818147040903568" lon="-4.692869000136852">
        <ele>114.05</ele>
        <time>2025-05-09T12:01:30Z</time>
      </trkpt>
      <trkpt lat="36.818305961787701" lon="-4.692749977111816">
        <ele>113.56999999999999</ele>
        <time>2025-05-09T12:01:31Z</time>
      </trkpt>
      <trkpt lat="36.818472007289529" lon="-4.692628020420671">
        <ele>112.61</ele>
        <time>2025-05-09T12:01:32Z</time>
      </trkpt>
      <trkpt lat="36.818644003942609" lon="-4.692500028759241">
        <ele>112.61</ele>
        <time>2025-05-09T12:01:33Z</time>
      </trkpt>
      <trkpt lat="36.818822035565972" lon="-4.692372959107161">
        <ele>112.13</ele>
        <time>2025-05-09T12:01:34Z</time>
      </trkpt>
      <trkpt lat="36.820102035999298" lon="-4.691688995808363">
        <ele>111.65000000000001</ele>
        <time>2025-05-09T12:01:41Z</time>
      </trkpt>
      <trkpt lat="36.820290964096785" lon="-4.691633004695177">
        <ele>111.65000000000001</ele>
        <time>2025-05-09T12:01:42Z</time>
      </trkpt>
      <trkpt lat="36.820482993498445" lon="-4.691598974168301">
        <ele>111.65000000000001</ele>
        <time>2025-05-09T12:01:43Z</time>
      </trkpt>
      <trkpt lat="36.821279022842646" lon="-4.69148900359869">
        <ele>111.65000000000001</ele>
        <time>2025-05-09T12:01:47Z</time>
      </trkpt>
      <trkpt lat="36.82264300994575" lon="-4.690789030864835">
        <ele>111.65000000000001</ele>
        <time>2025-05-09T12:01:55Z</time>
      </trkpt>
      <trkpt lat="36.823300989344716" lon="-4.69039298593998">
        <ele>113.09</ele>
        <time>2025-05-09T12:02:00Z</time>
      </trkpt>
      <trkpt lat="36.823535012081265" lon="-4.690316040068865">
        <ele>113.56999999999999</ele>
        <time>2025-05-09T12:02:02Z</time>
      </trkpt>
      <trkpt lat="36.823655962944031" lon="-4.69028796069324">
        <ele>114.05</ele>
        <time>2025-05-09T12:02:03Z</time>
      </trkpt>
      <trkpt lat="36.824321988970041" lon="-4.690258959308267">
        <ele>115.01000000000001</ele>
        <time>2025-05-09T12:02:09Z</time>
      </trkpt>
      <trkpt lat="36.824431037530303" lon="-4.690216965973377">
        <ele>115.01000000000001</ele>
        <time>2025-05-09T12:02:10Z</time>
      </trkpt>
      <trkpt lat="36.824535978958011" lon="-4.690175978466868">
        <ele>115.01000000000001</ele>
        <time>2025-05-09T12:02:11Z</time>
      </trkpt>
      <trkpt lat="36.824648967012763" lon="-4.690131973475218">
        <ele>115.5</ele>
        <time>2025-05-09T12:02:12Z</time>
      </trkpt>
      <trkpt lat="36.824708981439471" lon="-4.690088974311948">
        <ele>115.5</ele>
        <time>2025-05-09T12:02:13Z</time>
      </trkpt>
      <trkpt lat="36.825020033866167" lon="-4.689847994595766">
        <ele>116.45999999999999</ele>
        <time>2025-05-09T12:02:17Z</time>
      </trkpt>
      <trkpt lat="36.825105026364326" lon="-4.689784962683916">
        <ele>116.94</ele>
        <time>2025-05-09T12:02:18Z</time>
      </trkpt>
      <trkpt lat="36.825372995808721" lon="-4.689611038193107">
        <ele>117.42</ele>
        <time>2025-05-09T12:02:21Z</time>
      </trkpt>
      <trkpt lat="36.825475003570318" lon="-4.689603997394443">
        <ele>117.90000000000001</ele>
        <time>2025-05-09T12:02:22Z</time>
      </trkpt>
      <trkpt lat="36.825567036867142" lon="-4.689613971859217">
        <ele>118.38</ele>
        <time>2025-05-09T12:02:23Z</time>
      </trkpt>
      <trkpt lat="36.825639959424734" lon="-4.689622018486261">
        <ele>118.38</ele>
        <time>2025-05-09T12:02:24Z</time>
      </trkpt>
      <trkpt lat="36.825692011043429" lon="-4.689627969637513">
        <ele>118.86</ele>
        <time>2025-05-09T12:02:25Z</time>
      </trkpt>
      <trkpt lat="36.825821008533239" lon="-4.689645990729332">
        <ele>119.81999999999999</ele>
        <time>2025-05-09T12:02:29Z</time>
      </trkpt>
      <trkpt lat="36.825918992981315" lon="-4.689667029306293">
        <ele>120.3</ele>
        <time>2025-05-09T12:02:31Z</time>
      </trkpt>
      <trkpt lat="36.825999040156603" lon="-4.689683960750699">
        <ele>120.78</ele>
        <time>2025-05-09T12:02:32Z</time>
      </trkpt>
      <trkpt lat="36.826679985970259" lon="-4.689886970445514">
        <ele>122.22</ele>
        <time>2025-05-09T12:02:37Z</time>
      </trkpt>
      <trkpt lat="36.827738033607602" lon="-4.69024102203548">
        <ele>127.03</ele>
        <time>2025-05-09T12:02:44Z</time>
      </trkpt>
      <trkpt lat="36.82859399355948" lon="-4.690515026450157">
        <ele>128.47</ele>
        <time>2025-05-09T12:02:51Z</time>
      </trkpt>
      <trkpt lat="36.829083999618888" lon="-4.690546961501241">
        <ele>127.51000000000001</ele>
        <time>2025-05-09T12:02:55Z</time>
      </trkpt>
      <trkpt lat="36.829189024865627" lon="-4.690537992864847">
        <ele>127.03</ele>
        <time>2025-05-09T12:02:56Z</time>
      </trkpt>
      <trkpt lat="36.829296983778477" lon="-4.690517960116267">
        <ele>126.55</ele>
        <time>2025-05-09T12:02:57Z</time>
      </trkpt>
      <trkpt lat="36.829820014536381" lon="-4.6903280261904">
        <ele>126.06999999999999</ele>
        <time>2025-05-09T12:03:02Z</time>
      </trkpt>
      <trkpt lat="36.830666000023484" lon="-4.689955031499267">
        <ele>126.06999999999999</ele>
        <time>2025-05-09T12:03:11Z</time>
      </trkpt>
      <trkpt lat="36.830756021663547" lon="-4.689875990152359">
        <ele>126.06999999999999</ele>
        <time>2025-05-09T12:03:12Z</time>
      </trkpt>
      <trkpt lat="36.831869976595044" lon="-4.689090019091964">
        <ele>122.22</ele>
        <time>2025-05-09T12:03:22Z</time>
      </trkpt>
      <trkpt lat="36.832150015980005" lon="-4.688919028267264">
        <ele>120.78</ele>
        <time>2025-05-09T12:03:24Z</time>
      </trkpt>
      <trkpt lat="36.832300974056125" lon="-4.68886898830533">
        <ele>120.3</ele>
        <time>2025-05-09T12:03:25Z</time>
      </trkpt>
      <trkpt lat="36.833456000313163" lon="-4.688484007492662">
        <ele>117.42</ele>
        <time>2025-05-09T12:03:34Z</time>
      </trkpt>
      <trkpt lat="36.834579007700086" lon="-4.688069019466639">
        <ele>120.3</ele>
        <time>2025-05-09T12:03:45Z</time>
      </trkpt>
      <trkpt lat="36.835522977635264" lon="-4.687540959566832">
        <ele>119.34</ele>
        <time>2025-05-09T12:03:55Z</time>
      </trkpt>
      <trkpt lat="36.836721003055573" lon="-4.686866970732808">
        <ele>121.26000000000001</ele>
        <time>2025-05-09T12:04:06Z</time>
      </trkpt>
      <trkpt lat="36.837808974087238" lon="-4.686271017417312">
        <ele>121.73999999999999</ele>
        <time>2025-05-09T12:04:14Z</time>
      </trkpt>
      <trkpt lat="36.838123966008425" lon="-4.686098014935851">
        <ele>121.73999999999999</ele>
        <time>2025-05-09T12:04:16Z</time>
      </trkpt>
      <trkpt lat="36.838301997631788" lon="-4.686065996065736">
        <ele>122.22</ele>
        <time>2025-05-09T12:04:17Z</time>
      </trkpt>
      <trkpt lat="36.83847701177001" lon="-4.686033977195621">
        <ele>122.22</ele>
        <time>2025-05-09T12:04:18Z</time>
      </trkpt>
      <trkpt lat="36.839535981416702" lon="-4.685840019956231">
        <ele>125.59</ele>
        <time>2025-05-09T12:04:25Z</time>
      </trkpt>
      <trkpt lat="36.839780984446406" lon="-4.685726026073098">
        <ele>125.11</ele>
        <time>2025-05-09T12:04:27Z</time>
      </trkpt>
      <trkpt lat="36.839900007471442" lon="-4.685637010261416">
        <ele>125.11</ele>
        <time>2025-05-09T12:04:28Z</time>
      </trkpt>
      <trkpt lat="36.840988984331489" lon="-4.684711983427405">
        <ele>120.78</ele>
        <time>2025-05-09T12:04:38Z</time>
      </trkpt>
      <trkpt lat="36.841062996536493" lon="-4.684619028121233">
        <ele>120.3</ele>
        <time>2025-05-09T12:04:39Z</time>
      </trkpt>
      <trkpt lat="36.841123010963202" lon="-4.684538980945945">
        <ele>119.81999999999999</ele>
        <time>2025-05-09T12:04:40Z</time>
      </trkpt>
      <trkpt lat="36.841154024004936" lon="-4.684428004547954">
        <ele>119.34</ele>
        <time>2025-05-09T12:04:41Z</time>
      </trkpt>
      <trkpt lat="36.841173972934484" lon="-4.684305964037776">
        <ele>119.34</ele>
        <time>2025-05-09T12:04:42Z</time>
      </trkpt>
      <trkpt lat="36.841180007904768" lon="-4.684175960719585">
        <ele>119.34</ele>
        <time>2025-05-09T12:04:43Z</time>
      </trkpt>
      <trkpt lat="36.84118595905602" lon="-4.684040006250143">
        <ele>119.81999999999999</ele>
        <time>2025-05-09T12:04:44Z</time>
      </trkpt>
      <trkpt lat="36.841240022331476" lon="-4.683597022667527">
        <ele>120.3</ele>
        <time>2025-05-09T12:04:47Z</time>
      </trkpt>
      <trkpt lat="36.841285033151507" lon="-4.683459978550673">
        <ele>120.78</ele>
        <time>2025-05-09T12:04:48Z</time>
      </trkpt>
      <trkpt lat="36.841353010386229" lon="-4.683354031294584">
        <ele>120.78</ele>
        <time>2025-05-09T12:04:49Z</time>
      </trkpt>
      <trkpt lat="36.841429034247994" lon="-4.683266021311283">
        <ele>121.26000000000001</ele>
        <time>2025-05-09T12:04:50Z</time>
      </trkpt>
      <trkpt lat="36.841530036181211" lon="-4.683208018541336">
        <ele>121.73999999999999</ele>
        <time>2025-05-09T12:04:51Z</time>
      </trkpt>
      <trkpt lat="36.84163698926568" lon="-4.683135012164712">
        <ele>122.22</ele>
        <time>2025-05-09T12:04:52Z</time>
      </trkpt>
      <trkpt lat="36.841744026169181" lon="-4.683050019666553">
        <ele>122.70999999999999</ele>
        <time>2025-05-09T12:04:53Z</time>
      </trkpt>
      <trkpt lat="36.841855002567172" lon="-4.682964021340013">
        <ele>123.19</ele>
        <time>2025-05-09T12:04:54Z</time>
      </trkpt>
      <trkpt lat="36.842072010040283" lon="-4.682794036343694">
        <ele>124.15000000000001</ele>
        <time>2025-05-09T12:04:56Z</time>
      </trkpt>
      <trkpt lat="36.842143004760146" lon="-4.682652968913317">
        <ele>124.63</ele>
        <time>2025-05-09T12:04:57Z</time>
      </trkpt>
      <trkpt lat="36.84221601113677" lon="-4.6825070399791">
        <ele>125.11</ele>
        <time>2025-05-09T12:04:58Z</time>
      </trkpt>
      <trkpt lat="36.842417009174824" lon="-4.682061038911343">
        <ele>125.59</ele>
        <time>2025-05-09T12:05:01Z</time>
      </trkpt>
      <trkpt lat="36.842470988631248" lon="-4.681938998401165">
        <ele>126.06999999999999</ele>
        <time>2025-05-09T12:05:02Z</time>
      </trkpt>
      <trkpt lat="36.842534020543098" lon="-4.681828022003174">
        <ele>126.55</ele>
        <time>2025-05-09T12:05:03Z</time>
      </trkpt>
      <trkpt lat="36.842629993334413" lon="-4.681748980656266">
        <ele>127.03</ele>
        <time>2025-05-09T12:05:04Z</time>
      </trkpt>
      <trkpt lat="36.842735018581152" lon="-4.681688966229558">
        <ele>127.51000000000001</ele>
        <time>2025-05-09T12:05:05Z</time>
      </trkpt>
      <trkpt lat="36.842866027727723" lon="-4.681613026186824">
        <ele>128.47</ele>
        <time>2025-05-09T12:05:06Z</time>
      </trkpt>
      <trkpt lat="36.843013968318701" lon="-4.68156298622489">
        <ele>129.43000000000001</ele>
        <time>2025-05-09T12:05:07Z</time>
      </trkpt>
      <trkpt lat="36.843627020716667" lon="-4.681324018165469">
        <ele>133.28</ele>
        <time>2025-05-09T12:05:11Z</time>
      </trkpt>
      <trkpt lat="36.844780035316944" lon="-4.680784977972508">
        <ele>140.00999999999999</ele>
        <time>2025-05-09T12:05:19Z</time>
      </trkpt>
      <trkpt lat="36.845687963068485" lon="-4.680437967181206">
        <ele>142.88999999999999</ele>
        <time>2025-05-09T12:05:26Z</time>
      </trkpt>
      <trkpt lat="36.845785025507212" lon="-4.680471997708082">
        <ele>143.37</ele>
        <time>2025-05-09T12:05:27Z</time>
      </trkpt>
      <trkpt lat="36.845891978591681" lon="-4.680519020184875">
        <ele>143.37</ele>
        <time>2025-05-09T12:05:28Z</time>
      </trkpt>
      <trkpt lat="36.846707034856081" lon="-4.681073985993862">
        <ele>144.34</ele>
        <time>2025-05-09T12:05:33Z</time>
      </trkpt>
      <trkpt lat="36.847629966214299" lon="-4.681571032851934">
        <ele>146.74000000000001</ele>
        <time>2025-05-09T12:05:38Z</time>
      </trkpt>
      <trkpt lat="36.847772039473057" lon="-4.681514035910368">
        <ele>146.74000000000001</ele>
        <time>2025-05-09T12:05:39Z</time>
      </trkpt>
      <trkpt lat="36.847902964800596" lon="-4.681460978463292">
        <ele>146.74000000000001</ele>
        <time>2025-05-09T12:05:40Z</time>
      </trkpt>
      <trkpt lat="36.848274031654" lon="-4.681313037872315">
        <ele>148.18000000000001</ele>
        <time>2025-05-09T12:05:43Z</time>
      </trkpt>
      <trkpt lat="36.848419038578868" lon="-4.681361988186836">
        <ele>148.66</ele>
        <time>2025-05-09T12:05:44Z</time>
      </trkpt>
      <trkpt lat="36.848536971956491" lon="-4.681400964036584">
        <ele>149.13999999999999</ele>
        <time>2025-05-09T12:05:45Z</time>
      </trkpt>
      <trkpt lat="36.848801001906395" lon="-4.681488974019885">
        <ele>150.09999999999999</ele>
        <time>2025-05-09T12:05:47Z</time>
      </trkpt>
      <trkpt lat="36.848948020488024" lon="-4.681492997333407">
        <ele>151.06</ele>
        <time>2025-05-09T12:05:48Z</time>
      </trkpt>
      <trkpt lat="36.850149985402822" lon="-4.681468019261956">
        <ele>154.43000000000001</ele>
        <time>2025-05-09T12:05:55Z</time>
      </trkpt>
      <trkpt lat="36.851324960589409" lon="-4.681679997593164">
        <ele>152.99000000000001</ele>
        <time>2025-05-09T12:06:02Z</time>
      </trkpt>
      <trkpt lat="36.851440966129303" lon="-4.681759960949421">
        <ele>152.50999999999999</ele>
        <time>2025-05-09T12:06:03Z</time>
      </trkpt>
      <trkpt lat="36.851542973890901" lon="-4.681876972317696">
        <ele>152.03</ele>
        <time>2025-05-09T12:06:04Z</time>
      </trkpt>
      <trkpt lat="36.85158203355968" lon="-4.681977974250913">
        <ele>151.53999999999999</ele>
        <time>2025-05-09T12:06:05Z</time>
      </trkpt>
      <trkpt lat="36.851621009409428" lon="-4.682106971740723">
        <ele>151.53999999999999</ele>
        <time>2025-05-09T12:06:06Z</time>
      </trkpt>
      <trkpt lat="36.851621009409428" lon="-4.682106971740723">
        <ele>151.06</ele>
        <time>2025-05-09T12:06:07Z</time>
      </trkpt>
      <trkpt lat="36.851599970832467" lon="-4.682192970067263">
        <ele>150.09999999999999</ele>
        <time>2025-05-09T12:06:08Z</time>
      </trkpt>
      <trkpt lat="36.851599970832467" lon="-4.682192970067263">
        <ele>149.62</ele>
        <time>2025-05-09T12:06:09Z</time>
      </trkpt>
      <trkpt lat="36.851482959464192" lon="-4.682396985590458">
        <ele>149.13999999999999</ele>
        <time>2025-05-09T12:06:10Z</time>
      </trkpt>
      <trkpt lat="36.8514100369066" lon="-4.682523971423507">
        <ele>148.66</ele>
        <time>2025-05-09T12:06:11Z</time>
      </trkpt>
      <trkpt lat="36.851332001388073" lon="-4.682661015540361">
        <ele>148.18000000000001</ele>
        <time>2025-05-09T12:06:12Z</time>
      </trkpt>
      <trkpt lat="36.851189006119967" lon="-4.683019006624818">
        <ele>146.74000000000001</ele>
        <time>2025-05-09T12:06:14Z</time>
      </trkpt>
      <trkpt lat="36.851178025826812" lon="-4.683143980801106">
        <ele>145.78</ele>
        <time>2025-05-09T12:06:15Z</time>
      </trkpt>
      <trkpt lat="36.851232005283237" lon="-4.683318994939327">
        <ele>145.78</ele>
        <time>2025-05-09T12:06:16Z</time>
      </trkpt>
      <trkpt lat="36.851289002224803" lon="-4.68340901657939">
        <ele>145.30000000000001</ele>
        <time>2025-05-09T12:06:17Z</time>
      </trkpt>
      <trkpt lat="36.85136997140944" lon="-4.683514041826129">
        <ele>145.30000000000001</ele>
        <time>2025-05-09T12:06:18Z</time>
      </trkpt>
      <trkpt lat="36.851469967514277" lon="-4.68362501822412">
        <ele>145.30000000000001</ele>
        <time>2025-05-09T12:06:19Z</time>
      </trkpt>
      <trkpt lat="36.852046977728605" lon="-4.684216026216745">
        <ele>145.30000000000001</ele>
        <time>2025-05-09T12:06:24Z</time>
      </trkpt>
      <trkpt lat="36.852170024067163" lon="-4.684261037036777">
        <ele>145.30000000000001</ele>
        <time>2025-05-09T12:06:25Z</time>
      </trkpt>
      <trkpt lat="36.852286029607058" lon="-4.684274028986692">
        <ele>144.81999999999999</ele>
        <time>2025-05-09T12:06:26Z</time>
      </trkpt>
      <trkpt lat="36.852401029318571" lon="-4.684247961267829">
        <ele>144.81999999999999</ele>
        <time>2025-05-09T12:06:27Z</time>
      </trkpt>
      <trkpt lat="36.852536983788013" lon="-4.684217032045126">
        <ele>144.34</ele>
        <time>2025-05-09T12:06:28Z</time>
      </trkpt>
      <trkpt lat="36.853011986240745" lon="-4.684106977656484">
        <ele>144.81999999999999</ele>
        <time>2025-05-09T12:06:31Z</time>
      </trkpt>
      <trkpt lat="36.853167973458767" lon="-4.684089040383697">
        <ele>144.81999999999999</ele>
        <time>2025-05-09T12:06:32Z</time>
      </trkpt>
      <trkpt lat="36.853311974555254" lon="-4.684115024283528">
        <ele>144.81999999999999</ele>
        <time>2025-05-09T12:06:33Z</time>
      </trkpt>
      <trkpt lat="36.853449018672109" lon="-4.684186019003391">
        <ele>144.81999999999999</ele>
        <time>2025-05-09T12:06:34Z</time>
      </trkpt>
      <trkpt lat="36.85358396731317" lon="-4.684278974309564">
        <ele>144.34</ele>
        <time>2025-05-09T12:06:35Z</time>
      </trkpt>
      <trkpt lat="36.853723023086786" lon="-4.68437603674829">
        <ele>144.34</ele>
        <time>2025-05-09T12:06:36Z</time>
      </trkpt>
      <trkpt lat="36.85493303462863" lon="-4.685313971713185">
        <ele>145.30000000000001</ele>
        <time>2025-05-09T12:06:45Z</time>
      </trkpt>
      <trkpt lat="36.855078963562846" lon="-4.685363005846739">
        <ele>145.78</ele>
        <time>2025-05-09T12:06:46Z</time>
      </trkpt>
      <trkpt lat="36.855240985751152" lon="-4.685389995574951">
        <ele>146.25999999999999</ele>
        <time>2025-05-09T12:06:47Z</time>
      </trkpt>
      <trkpt lat="36.85680203139782" lon="-4.685389995574951">
        <ele>151.53999999999999</ele>
        <time>2025-05-09T12:06:55Z</time>
      </trkpt>
      <trkpt lat="36.857611974701285" lon="-4.685431988909841">
        <ele>155.87</ele>
        <time>2025-05-09T12:07:00Z</time>
      </trkpt>
      <trkpt lat="36.857740972191095" lon="-4.685492003336549">
        <ele>156.34999999999999</ele>
        <time>2025-05-09T12:07:01Z</time>
      </trkpt>
      <trkpt lat="36.857869969680905" lon="-4.685552017763257">
        <ele>156.83000000000001</ele>
        <time>2025-05-09T12:07:02Z</time>
      </trkpt>
      <trkpt lat="36.857997039332986" lon="-4.685610020533204">
        <ele>157.31</ele>
        <time>2025-05-09T12:07:03Z</time>
      </trkpt>
      <trkpt lat="36.858123019337654" lon="-4.685669029131532">
        <ele>157.78999999999999</ele>
        <time>2025-05-09T12:07:04Z</time>
      </trkpt>
      <trkpt lat="36.858248999342322" lon="-4.685669029131532">
        <ele>158.27000000000001</ele>
        <time>2025-05-09T12:07:05Z</time>
      </trkpt>
      <trkpt lat="36.858387971296906" lon="-4.685655031353235">
        <ele>158.75</ele>
        <time>2025-05-09T12:07:06Z</time>
      </trkpt>
      <trkpt lat="36.858529038727283" lon="-4.685614965856075">
        <ele>159.24000000000001</ele>
        <time>2025-05-09T12:07:07Z</time>
      </trkpt>
      <trkpt lat="36.860086983069777" lon="-4.685095958411694">
        <ele>163.08000000000001</ele>
        <time>2025-05-09T12:07:18Z</time>
      </trkpt>
      <trkpt lat="36.860861973837018" lon="-4.684506040066481">
        <ele>164.52000000000001</ele>
        <time>2025-05-09T12:07:23Z</time>
      </trkpt>
      <trkpt lat="36.861008992418647" lon="-4.684463040903211">
        <ele>165</ele>
        <time>2025-05-09T12:07:24Z</time>
      </trkpt>
      <trkpt lat="36.861147964373231" lon="-4.68442196957767">
        <ele>165.47999999999999</ele>
        <time>2025-05-09T12:07:25Z</time>
      </trkpt>
      <trkpt lat="36.861304035410285" lon="-4.68442096374929">
        <ele>166.44999999999999</ele>
        <time>2025-05-09T12:07:26Z</time>
      </trkpt>
      <trkpt lat="36.861468991264701" lon="-4.684453988447785">
        <ele>167.41</ele>
        <time>2025-05-09T12:07:27Z</time>
      </trkpt>
      <trkpt lat="36.861649034544826" lon="-4.684510985389352">
        <ele>167.88999999999999</ele>
        <time>2025-05-09T12:07:28Z</time>
      </trkpt>
      <trkpt lat="36.862778998911381" lon="-4.684938965365291">
        <ele>173.66</ele>
        <time>2025-05-09T12:07:34Z</time>
      </trkpt>
      <trkpt lat="36.862938003614545" lon="-4.684932008385658">
        <ele>174.62</ele>
        <time>2025-05-09T12:07:35Z</time>
      </trkpt>
      <trkpt lat="36.863135984167457" lon="-4.684923961758614">
        <ele>175.58000000000001</ele>
        <time>2025-05-09T12:07:36Z</time>
      </trkpt>
      <trkpt lat="36.864621005952358" lon="-4.684857996180654">
        <ele>179.90000000000001</ele>
        <time>2025-05-09T12:07:44Z</time>
      </trkpt>
      <trkpt lat="36.864766012877226" lon="-4.684819020330906">
        <ele>180.38</ele>
        <time>2025-05-09T12:07:45Z</time>
      </trkpt>
      <trkpt lat="36.864891992881894" lon="-4.684736039489508">
        <ele>180.87</ele>
        <time>2025-05-09T12:07:46Z</time>
      </trkpt>
      <trkpt lat="36.864987965673208" lon="-4.68463403172791">
        <ele>181.34999999999999</ele>
        <time>2025-05-09T12:07:47Z</time>
      </trkpt>
      <trkpt lat="36.865083016455173" lon="-4.684533029794693">
        <ele>181.83000000000001</ele>
        <time>2025-05-09T12:07:48Z</time>
      </trkpt>
      <trkpt lat="36.865176977589726" lon="-4.684434039518237">
        <ele>181.83000000000001</ele>
        <time>2025-05-09T12:07:49Z</time>
      </trkpt>
      <trkpt lat="36.865257024765015" lon="-4.684358015656471">
        <ele>181.83000000000001</ele>
        <time>2025-05-09T12:07:50Z</time>
      </trkpt>
      <trkpt lat="36.865375963971019" lon="-4.684328008443117">
        <ele>181.83000000000001</ele>
        <time>2025-05-09T12:07:51Z</time>
      </trkpt>
      <trkpt lat="36.86550403945148" lon="-4.684295989573002">
        <ele>181.83000000000001</ele>
        <time>2025-05-09T12:07:52Z</time>
      </trkpt>
      <trkpt lat="36.865619961172342" lon="-4.684337982907891">
        <ele>181.34999999999999</ele>
        <time>2025-05-09T12:07:53Z</time>
      </trkpt>
      <trkpt lat="36.865763962268829" lon="-4.684391040354967">
        <ele>180.87</ele>
        <time>2025-05-09T12:07:54Z</time>
      </trkpt>
      <trkpt lat="36.866721007972956" lon="-4.684701003134251">
        <ele>179.41999999999999</ele>
        <time>2025-05-09T12:08:00Z</time>
      </trkpt>
      <trkpt lat="36.866864003241062" lon="-4.684718018397689">
        <ele>178.94</ele>
        <time>2025-05-09T12:08:01Z</time>
      </trkpt>
      <trkpt lat="36.86700901016593" lon="-4.684683987870812">
        <ele>178.94</ele>
        <time>2025-05-09T12:08:02Z</time>
      </trkpt>
      <trkpt lat="36.867158962413669" lon="-4.68461399897933">
        <ele>178.94</ele>
        <time>2025-05-09T12:08:03Z</time>
      </trkpt>
      <trkpt lat="36.867319978773594" lon="-4.684538980945945">
        <ele>179.41999999999999</ele>
        <time>2025-05-09T12:08:04Z</time>
      </trkpt>
      <trkpt lat="36.867843009531498" lon="-4.684295989573002">
        <ele>180.38</ele>
        <time>2025-05-09T12:08:07Z</time>
      </trkpt>
      <trkpt lat="36.868030009791255" lon="-4.68426899984479">
        <ele>180.87</ele>
        <time>2025-05-09T12:08:08Z</time>
      </trkpt>
      <trkpt lat="36.86896501109004" lon="-4.684132961556315">
        <ele>181.83000000000001</ele>
        <time>2025-05-09T12:08:13Z</time>
      </trkpt>
      <trkpt lat="36.869172966107726" lon="-4.684103038161993">
        <ele>181.83000000000001</ele>
        <time>2025-05-09T12:08:14Z</time>
      </trkpt>
      <trkpt lat="36.869275979697704" lon="-4.684028020128608">
        <ele>182.31</ele>
        <time>2025-05-09T12:08:15Z</time>
      </trkpt>
      <trkpt lat="36.869412017986178" lon="-4.683929029852152">
        <ele>182.78999999999999</ele>
        <time>2025-05-09T12:08:16Z</time>
      </trkpt>
      <trkpt lat="36.869553001597524" lon="-4.683827022090554">
        <ele>183.27000000000001</ele>
        <time>2025-05-09T12:08:17Z</time>
      </trkpt>
      <trkpt lat="36.870264038443565" lon="-4.683198966085911">
        <ele>184.22999999999999</ele>
        <time>2025-05-09T12:08:22Z</time>
      </trkpt>
      <trkpt lat="36.870422959327698" lon="-4.6831080224365">
        <ele>184.71000000000001</ele>
        <time>2025-05-09T12:08:23Z</time>
      </trkpt>
      <trkpt lat="36.870607025921345" lon="-4.683051025494933">
        <ele>185.19</ele>
        <time>2025-05-09T12:08:24Z</time>
      </trkpt>
      <trkpt lat="36.871568011119962" lon="-4.682762017473579">
        <ele>186.15000000000001</ele>
        <time>2025-05-09T12:08:29Z</time>
      </trkpt>
      <trkpt lat="36.871770014986396" lon="-4.682735027745366">
        <ele>186.15000000000001</ele>
        <time>2025-05-09T12:08:30Z</time>
      </trkpt>
      <trkpt lat="36.874415008351207" lon="-4.682814991101623">
        <ele>191.44</ele>
        <time>2025-05-09T12:08:43Z</time>
      </trkpt>
      <trkpt lat="36.874569989740849" lon="-4.682814991101623">
        <ele>191.91999999999999</ele>
        <time>2025-05-09T12:08:44Z</time>
      </trkpt>
      <trkpt lat="36.874707033857703" lon="-4.682763023301959">
        <ele>192.40000000000001</ele>
        <time>2025-05-09T12:08:45Z</time>
      </trkpt>
      <trkpt lat="36.874843994155526" lon="-4.682707032188773">
        <ele>192.88</ele>
        <time>2025-05-09T12:08:46Z</time>
      </trkpt>
      <trkpt lat="36.87498196028173" lon="-4.682627990841866">
        <ele>193.84</ele>
        <time>2025-05-09T12:08:47Z</time>
      </trkpt>
      <trkpt lat="36.87511196359992" lon="-4.682498993352056">
        <ele>194.31999999999999</ele>
        <time>2025-05-09T12:08:48Z</time>
      </trkpt>
      <trkpt lat="36.875246996060014" lon="-4.682344011962414">
        <ele>194.80000000000001</ele>
        <time>2025-05-09T12:08:49Z</time>
      </trkpt>
      <trkpt lat="36.875378005206585" lon="-4.682172015309334">
        <ele>195.77000000000001</ele>
        <time>2025-05-09T12:08:50Z</time>
      </trkpt>
      <trkpt lat="36.876020980998874" lon="-4.681331980973482">
        <ele>199.13</ele>
        <time>2025-05-09T12:08:55Z</time>
      </trkpt>
      <trkpt lat="36.876154001802206" lon="-4.681215975433588">
        <ele>199.61000000000001</ele>
        <time>2025-05-09T12:08:56Z</time>
      </trkpt>
      <trkpt lat="36.876308983191848" lon="-4.681125031784177">
        <ele>200.09</ele>
        <time>2025-05-09T12:08:57Z</time>
      </trkpt>
      <trkpt lat="36.877302993088961" lon="-4.680692022666335">
        <ele>203.46000000000001</ele>
        <time>2025-05-09T12:09:03Z</time>
      </trkpt>
      <trkpt lat="36.877403995022178" lon="-4.680585991591215">
        <ele>203.94</ele>
        <time>2025-05-09T12:09:04Z</time>
      </trkpt>
      <trkpt lat="36.877503991127014" lon="-4.680480966344476">
        <ele>204.41999999999999</ele>
        <time>2025-05-09T12:09:05Z</time>
      </trkpt>
      <trkpt lat="36.877705994993448" lon="-4.680270999670029">
        <ele>204.41999999999999</ele>
        <time>2025-05-09T12:09:07Z</time>
      </trkpt>
      <trkpt lat="36.877800039947033" lon="-4.680196987465024">
        <ele>204.41999999999999</ele>
        <time>2025-05-09T12:09:08Z</time>
      </trkpt>
      <trkpt lat="36.877884026616812" lon="-4.680157005786896">
        <ele>203.94</ele>
        <time>2025-05-09T12:09:09Z</time>
      </trkpt>
      <trkpt lat="36.877953009679914" lon="-4.68016698025167">
        <ele>203.94</ele>
        <time>2025-05-09T12:09:10Z</time>
      </trkpt>
      <trkpt lat="36.877997014671564" lon="-4.680173015221953">
        <ele>203.46000000000001</ele>
        <time>2025-05-09T12:09:11Z</time>
      </trkpt>
      <trkpt lat="36.87803297303617" lon="-4.680177960544825">
        <ele>203.46000000000001</ele>
        <time>2025-05-09T12:09:12Z</time>
      </trkpt>
      <trkpt lat="36.878531025722623" lon="-4.680248033255339">
        <ele>202.97999999999999</ele>
        <time>2025-05-09T12:09:22Z</time>
      </trkpt>
      <trkpt lat="36.879586977884173" lon="-4.680395973846316">
        <ele>202.97999999999999</ele>
        <time>2025-05-09T12:09:29Z</time>
      </trkpt>
      <trkpt lat="36.881687985733151" lon="-4.680676013231278">
        <ele>204.41999999999999</ele>
        <time>2025-05-09T12:09:41Z</time>
      </trkpt>
      <trkpt lat="36.881837015971541" lon="-4.680687999352813">
        <ele>204.90000000000001</ele>
        <time>2025-05-09T12:09:42Z</time>
      </trkpt>
      <trkpt lat="36.881973976269364" lon="-4.680650029331446">
        <ele>204.90000000000001</ele>
        <time>2025-05-09T12:09:43Z</time>
      </trkpt>
      <trkpt lat="36.882131975144148" lon="-4.680582974106073">
        <ele>205.38</ele>
        <time>2025-05-09T12:09:44Z</time>
      </trkpt>
      <trkpt lat="36.882296008989215" lon="-4.680513991042972">
        <ele>205.86000000000001</ele>
        <time>2025-05-09T12:09:45Z</time>
      </trkpt>
      <trkpt lat="36.882464988157153" lon="-4.680442996323109">
        <ele>206.34</ele>
        <time>2025-05-09T12:09:46Z</time>
      </trkpt>
      <trkpt lat="36.882911995053291" lon="-4.680158011615276">
        <ele>210.19</ele>
        <time>2025-05-09T12:09:49Z</time>
      </trkpt>
      <trkpt lat="36.88303898088634" lon="-4.680048041045666">
        <ele>211.63</ele>
        <time>2025-05-09T12:09:50Z</time>
      </trkpt>
      <trkpt lat="36.883156998082995" lon="-4.679947039112449">
        <ele>212.59</ele>
        <time>2025-05-09T12:09:51Z</time>
      </trkpt>
      <trkpt lat="36.883265040814877" lon="-4.679853999987245">
        <ele>213.55000000000001</ele>
        <time>2025-05-09T12:09:52Z</time>
      </trkpt>
      <trkpt lat="36.883391020819545" lon="-4.679804965853691">
        <ele>214.50999999999999</ele>
        <time>2025-05-09T12:09:53Z</time>
      </trkpt>
      <trkpt lat="36.883524041622877" lon="-4.679794991388917">
        <ele>215.94999999999999</ele>
        <time>2025-05-09T12:09:54Z</time>
      </trkpt>
      <trkpt lat="36.883648009970784" lon="-4.679803038015962">
        <ele>216.91</ele>
        <time>2025-05-09T12:09:55Z</time>
      </trkpt>
      <trkpt lat="36.883760998025537" lon="-4.679832039400935">
        <ele>217.88</ele>
        <time>2025-05-09T12:09:56Z</time>
      </trkpt>
      <trkpt lat="36.883861999958754" lon="-4.679873026907444">
        <ele>218.84</ele>
        <time>2025-05-09T12:09:57Z</time>
      </trkpt>
      <trkpt lat="36.883925031870604" lon="-4.679982997477055">
        <ele>219.80000000000001</ele>
        <time>2025-05-09T12:09:58Z</time>
      </trkpt>
      <trkpt lat="36.883999966084957" lon="-4.680111994966865">
        <ele>220.75999999999999</ele>
        <time>2025-05-09T12:09:59Z</time>
      </trkpt>
      <trkpt lat="36.884085964411497" lon="-4.680262031033635">
        <ele>221.72</ele>
        <time>2025-05-09T12:10:00Z</time>
      </trkpt>
      <trkpt lat="36.884496007114649" lon="-4.680886985734105">
        <ele>226.05000000000001</ele>
        <time>2025-05-09T12:10:04Z</time>
      </trkpt>
      <trkpt lat="36.884630033746362" lon="-4.680989999324083">
        <ele>227.00999999999999</ele>
        <time>2025-05-09T12:10:05Z</time>
      </trkpt>
      <trkpt lat="36.884761964902282" lon="-4.6810910012573">
        <ele>227.49000000000001</ele>
        <time>2025-05-09T12:10:06Z</time>
      </trkpt>
      <trkpt lat="36.884882999584079" lon="-4.681184040382505">
        <ele>228.44999999999999</ele>
        <time>2025-05-09T12:10:07Z</time>
      </trkpt>
      <trkpt lat="36.885004034265876" lon="-4.681275989860296">
        <ele>228.93000000000001</ele>
        <time>2025-05-09T12:10:08Z</time>
      </trkpt>
      <trkpt lat="36.88512003980577" lon="-4.68139199540019">
        <ele>228.93000000000001</ele>
        <time>2025-05-09T12:10:09Z</time>
      </trkpt>
      <trkpt lat="36.885236967355013" lon="-4.681528033688664">
        <ele>229.41</ele>
        <time>2025-05-09T12:10:10Z</time>
      </trkpt>
      <trkpt lat="36.885729990899563" lon="-4.682018039748073">
        <ele>230.84999999999999</ele>
        <time>2025-05-09T12:10:14Z</time>
      </trkpt>
      <trkpt lat="36.885845996439457" lon="-4.682086016982794">
        <ele>231.33000000000001</ele>
        <time>2025-05-09T12:10:15Z</time>
      </trkpt>
      <trkpt lat="36.885968958958983" lon="-4.682108983397484">
        <ele>231.81</ele>
        <time>2025-05-09T12:10:16Z</time>
      </trkpt>
      <trkpt lat="36.886499030515552" lon="-4.682254996150732">
        <ele>232.78</ele>
        <time>2025-05-09T12:10:20Z</time>
      </trkpt>
      <trkpt lat="36.886624004691839" lon="-4.682342000305653">
        <ele>233.25999999999999</ele>
        <time>2025-05-09T12:10:21Z</time>
      </trkpt>
      <trkpt lat="36.887320037931204" lon="-4.682993022724986">
        <ele>238.53999999999999</ele>
        <time>2025-05-09T12:10:28Z</time>
      </trkpt>
      <trkpt lat="36.887394972145557" lon="-4.683079021051526">
        <ele>239.50999999999999</ele>
        <time>2025-05-09T12:10:29Z</time>
      </trkpt>
      <trkpt lat="36.887468984350562" lon="-4.683165019378066">
        <ele>239.99000000000001</ele>
        <time>2025-05-09T12:10:30Z</time>
      </trkpt>
      <trkpt lat="36.887669982388616" lon="-4.68338998965919">
        <ele>242.38999999999999</ele>
        <time>2025-05-09T12:10:33Z</time>
      </trkpt>
      <trkpt lat="36.887733014300466" lon="-4.683441035449505">
        <ele>242.87</ele>
        <time>2025-05-09T12:10:34Z</time>
      </trkpt>
      <trkpt lat="36.88780702650547" lon="-4.683427959680557">
        <ele>243.83000000000001</ele>
        <time>2025-05-09T12:10:35Z</time>
      </trkpt>
      <trkpt lat="36.887878021225333" lon="-4.683385966345668">
        <ele>244.31</ele>
        <time>2025-05-09T12:10:36Z</time>
      </trkpt>
      <trkpt lat="36.887963013723493" lon="-4.683335004374385">
        <ele>244.31</ele>
        <time>2025-05-09T12:10:37Z</time>
      </trkpt>
      <trkpt lat="36.888033002614975" lon="-4.683213969692588">
        <ele>245.27000000000001</ele>
        <time>2025-05-09T12:10:38Z</time>
      </trkpt>
      <trkpt lat="36.888096034526825" lon="-4.683097964152694">
        <ele>246.22999999999999</ele>
        <time>2025-05-09T12:10:39Z</time>
      </trkpt>
      <trkpt lat="36.888132998719811" lon="-4.682961003854871">
        <ele>247.19999999999999</ele>
        <time>2025-05-09T12:10:40Z</time>
      </trkpt>
      <trkpt lat="36.888153031468391" lon="-4.6828109677881">
        <ele>248.16</ele>
        <time>2025-05-09T12:10:41Z</time>
      </trkpt>
      <trkpt lat="36.88817398622632" lon="-4.68265799805522">
        <ele>249.59999999999999</ele>
        <time>2025-05-09T12:10:42Z</time>
      </trkpt>
      <trkpt lat="36.888214973732829" lon="-4.682520031929016">
        <ele>251.03999999999999</ele>
        <time>2025-05-09T12:10:43Z</time>
      </trkpt>
      <trkpt lat="36.888284962624311" lon="-4.682395979762077">
        <ele>252</ele>
        <time>2025-05-09T12:10:44Z</time>
      </trkpt>
      <trkpt lat="36.888390993699431" lon="-4.682311993092299">
        <ele>253.44</ele>
        <time>2025-05-09T12:10:45Z</time>
      </trkpt>
      <trkpt lat="36.888503981754184" lon="-4.682227000594139">
        <ele>254.41</ele>
        <time>2025-05-09T12:10:46Z</time>
      </trkpt>
      <trkpt lat="36.888642031699419" lon="-4.68216497451067">
        <ele>255.37</ele>
        <time>2025-05-09T12:10:47Z</time>
      </trkpt>
      <trkpt lat="36.888784021139145" lon="-4.682102026417851">
        <ele>256.32999999999998</ele>
        <time>2025-05-09T12:10:48Z</time>
      </trkpt>
      <trkpt lat="36.888913018628955" lon="-4.682043017819524">
        <ele>256.81</ele>
        <time>2025-05-09T12:10:49Z</time>
      </trkpt>
      <trkpt lat="36.889008991420269" lon="-4.681931035593152">
        <ele>257.76999999999998</ele>
        <time>2025-05-09T12:10:50Z</time>
      </trkpt>
      <trkpt lat="36.889101024717093" lon="-4.68182098120451">
        <ele>259.20999999999998</ele>
        <time>2025-05-09T12:10:51Z</time>
      </trkpt>
      <trkpt lat="36.889196997508407" lon="-4.681705981492996">
        <ele>260.17000000000002</ele>
        <time>2025-05-09T12:10:52Z</time>
      </trkpt>
      <trkpt lat="36.889294981956482" lon="-4.681589975953102">
        <ele>261.13999999999999</ele>
        <time>2025-05-09T12:10:53Z</time>
      </trkpt>
      <trkpt lat="36.889383997768164" lon="-4.681496014818549">
        <ele>262.10000000000002</ele>
        <time>2025-05-09T12:10:54Z</time>
      </trkpt>
      <trkpt lat="36.889490028843284" lon="-4.681437006220222">
        <ele>262.57999999999998</ele>
        <time>2025-05-09T12:10:55Z</time>
      </trkpt>
      <trkpt lat="36.889588013291359" lon="-4.681396018713713">
        <ele>263.54000000000002</ele>
        <time>2025-05-09T12:10:56Z</time>
      </trkpt>
      <trkpt lat="36.889751041308045" lon="-4.681376991793513">
        <ele>264.5</ele>
        <time>2025-05-09T12:10:57Z</time>
      </trkpt>
      <trkpt lat="36.889840979129076" lon="-4.68141102232039">
        <ele>265.45999999999998</ele>
        <time>2025-05-09T12:10:58Z</time>
      </trkpt>
      <trkpt lat="36.88997601158917" lon="-4.681461984291673">
        <ele>266.89999999999998</ele>
        <time>2025-05-09T12:10:59Z</time>
      </trkpt>
      <trkpt lat="36.890268037095666" lon="-4.681571032851934">
        <ele>269.31</ele>
        <time>2025-05-09T12:11:01Z</time>
      </trkpt>
      <trkpt lat="36.891602016985416" lon="-4.681732971221209">
        <ele>280.36000000000001</ele>
        <time>2025-05-09T12:11:09Z</time>
      </trkpt>
      <trkpt lat="36.891744006425142" lon="-4.681679997593164">
        <ele>282.27999999999997</ele>
        <time>2025-05-09T12:11:10Z</time>
      </trkpt>
      <trkpt lat="36.891887001693249" lon="-4.681628029793501">
        <ele>284.20999999999998</ele>
        <time>2025-05-09T12:11:11Z</time>
      </trkpt>
      <trkpt lat="36.892133010551333" lon="-4.681538008153439">
        <ele>288.05000000000001</ele>
        <time>2025-05-09T12:11:13Z</time>
      </trkpt>
      <trkpt lat="36.892219008877873" lon="-4.681505989283323">
        <ele>289.49000000000001</ele>
        <time>2025-05-09T12:11:14Z</time>
      </trkpt>
      <trkpt lat="36.892285980284214" lon="-4.681557035073638">
        <ele>290.94</ele>
        <time>2025-05-09T12:11:15Z</time>
      </trkpt>
      <trkpt lat="36.892391005530953" lon="-4.681634986773133">
        <ele>291.89999999999998</ele>
        <time>2025-05-09T12:11:16Z</time>
      </trkpt>
      <trkpt lat="36.892420006915927" lon="-4.681740012019873">
        <ele>292.86000000000001</ele>
        <time>2025-05-09T12:11:17Z</time>
      </trkpt>
      <trkpt lat="36.892460994422436" lon="-4.681887030601502">
        <ele>294.30000000000001</ele>
        <time>2025-05-09T12:11:18Z</time>
      </trkpt>
      <trkpt lat="36.892501981928945" lon="-4.682055003941059">
        <ele>295.74000000000001</ele>
        <time>2025-05-09T12:11:19Z</time>
      </trkpt>
      <trkpt lat="36.892524026334286" lon="-4.682235969230533">
        <ele>297.18000000000001</ele>
        <time>2025-05-09T12:11:20Z</time>
      </trkpt>
      <trkpt lat="36.892594015225768" lon="-4.682832006365061">
        <ele>301.02999999999997</ele>
        <time>2025-05-09T12:11:23Z</time>
      </trkpt>
      <trkpt lat="36.892645983025432" lon="-4.683019006624818">
        <ele>301.99000000000001</ele>
        <time>2025-05-09T12:11:24Z</time>
      </trkpt>
      <trkpt lat="36.8927270360291" lon="-4.683209024369717">
        <ele>302.94999999999999</ele>
        <time>2025-05-09T12:11:25Z</time>
      </trkpt>
      <trkpt lat="36.893011014908552" lon="-4.683829033747315">
        <ele>307.75999999999999</ele>
        <time>2025-05-09T12:11:29Z</time>
      </trkpt>
      <trkpt lat="36.893082009628415" lon="-4.683912014588714">
        <ele>308.72000000000003</ele>
        <time>2025-05-09T12:11:30Z</time>
      </trkpt>
      <trkpt lat="36.893161972984672" lon="-4.683922994881868">
        <ele>309.19999999999999</ele>
        <time>2025-05-09T12:11:31Z</time>
      </trkpt>
      <trkpt lat="36.893270015716553" lon="-4.683908997103572">
        <ele>309.68000000000001</ele>
        <time>2025-05-09T12:11:32Z</time>
      </trkpt>
      <trkpt lat="36.893346961587667" lon="-4.683832973241806">
        <ele>310.16000000000003</ele>
        <time>2025-05-09T12:11:33Z</time>
      </trkpt>
      <trkpt lat="36.893438994884491" lon="-4.683741023764014">
        <ele>310.63999999999999</ele>
        <time>2025-05-09T12:11:34Z</time>
      </trkpt>
      <trkpt lat="36.893849037587643" lon="-4.683368029072881">
        <ele>315.44999999999999</ele>
        <time>2025-05-09T12:11:38Z</time>
      </trkpt>
      <trkpt lat="36.893962025642395" lon="-4.683326035737991">
        <ele>316.88999999999999</ele>
        <time>2025-05-09T12:11:39Z</time>
      </trkpt>
      <trkpt lat="36.894085993990302" lon="-4.683313965797424">
        <ele>317.85000000000002</ele>
        <time>2025-05-09T12:11:40Z</time>
      </trkpt>
      <trkpt lat="36.89421197399497" lon="-4.683301979675889">
        <ele>319.30000000000001</ele>
        <time>2025-05-09T12:11:41Z</time>
      </trkpt>
      <trkpt lat="36.894333008676767" lon="-4.683289993554354">
        <ele>320.74000000000001</ele>
        <time>2025-05-09T12:11:42Z</time>
      </trkpt>
      <trkpt lat="36.894430993124843" lon="-4.683211036026478">
        <ele>321.69999999999999</ele>
        <time>2025-05-09T12:11:43Z</time>
      </trkpt>
      <trkpt lat="36.894517997279763" lon="-4.683093018829823">
        <ele>322.66000000000003</ele>
        <time>2025-05-09T12:11:44Z</time>
      </trkpt>
      <trkpt lat="36.8945989664644" lon="-4.682948011904955">
        <ele>324.10000000000002</ele>
        <time>2025-05-09T12:11:45Z</time>
      </trkpt>
      <trkpt lat="36.894685970619321" lon="-4.682792024686933">
        <ele>325.06</ele>
        <time>2025-05-09T12:11:46Z</time>
      </trkpt>
      <trkpt lat="36.894858973100781" lon="-4.682481978088617">
        <ele>326.99000000000001</ele>
        <time>2025-05-09T12:11:48Z</time>
      </trkpt>
      <trkpt lat="36.894967015832663" lon="-4.682348035275936">
        <ele>327.94999999999999</ele>
        <time>2025-05-09T12:11:49Z</time>
      </trkpt>
      <trkpt lat="36.895355014130473" lon="-4.682051986455917">
        <ele>330.82999999999998</ele>
        <time>2025-05-09T12:11:52Z</time>
      </trkpt>
      <trkpt lat="36.895620971918106" lon="-4.681932963430882">
        <ele>333.70999999999998</ele>
        <time>2025-05-09T12:11:54Z</time>
      </trkpt>
      <trkpt lat="36.895733959972858" lon="-4.681909997016192">
        <ele>335.16000000000003</ele>
        <time>2025-05-09T12:11:55Z</time>
      </trkpt>
      <trkpt lat="36.895823981612921" lon="-4.681891975924373">
        <ele>336.60000000000002</ele>
        <time>2025-05-09T12:11:56Z</time>
      </trkpt>
      <trkpt lat="36.895901011303067" lon="-4.681957019492984">
        <ele>337.56</ele>
        <time>2025-05-09T12:11:57Z</time>
      </trkpt>
      <trkpt lat="36.895990027114749" lon="-4.682032037526369">
        <ele>338.51999999999998</ele>
        <time>2025-05-09T12:11:58Z</time>
      </trkpt>
      <trkpt lat="36.896093962714076" lon="-4.682119963690639">
        <ele>339</ele>
        <time>2025-05-09T12:11:59Z</time>
      </trkpt>
      <trkpt lat="36.896213991567492" lon="-4.682220965623856">
        <ele>339</ele>
        <time>2025-05-09T12:12:00Z</time>
      </trkpt>
      <trkpt lat="36.896361010149121" lon="-4.682279974222183">
        <ele>339</ele>
        <time>2025-05-09T12:12:01Z</time>
      </trkpt>
      <trkpt lat="36.896519009023905" lon="-4.682334959506989">
        <ele>339</ele>
        <time>2025-05-09T12:12:02Z</time>
      </trkpt>
      <trkpt lat="36.896683964878321" lon="-4.682392040267587">
        <ele>339</ele>
        <time>2025-05-09T12:12:03Z</time>
      </trkpt>
      <trkpt lat="36.897751986980438" lon="-4.682948011904955">
        <ele>339.48000000000002</ele>
        <time>2025-05-09T12:12:10Z</time>
      </trkpt>
      <trkpt lat="36.897839996963739" lon="-4.683047002181411">
        <ele>339.48000000000002</ele>
        <time>2025-05-09T12:12:11Z</time>
      </trkpt>
      <trkpt lat="36.897905962541699" lon="-4.683164013549686">
        <ele>339.48000000000002</ele>
        <time>2025-05-09T12:12:12Z</time>
      </trkpt>
      <trkpt lat="36.898111989721656" lon="-4.683592999354005">
        <ele>340.44</ele>
        <time>2025-05-09T12:12:15Z</time>
      </trkpt>
      <trkpt lat="36.898222966119647" lon="-4.683671034872532">
        <ele>340.44</ele>
        <time>2025-05-09T12:12:16Z</time>
      </trkpt>
      <trkpt lat="36.898340983316302" lon="-4.683738006278873">
        <ele>340.44</ele>
        <time>2025-05-09T12:12:17Z</time>
      </trkpt>
      <trkpt lat="36.898479033261538" lon="-4.683748986572027">
        <ele>340.44</ele>
        <time>2025-05-09T12:12:18Z</time>
      </trkpt>
      <trkpt lat="36.898629991337657" lon="-4.683760972693563">
        <ele>340.44</ele>
        <time>2025-05-09T12:12:19Z</time>
      </trkpt>
      <trkpt lat="36.898794025182724" lon="-4.683772958815098">
        <ele>340.44</ele>
        <time>2025-05-09T12:12:20Z</time>
      </trkpt>
      <trkpt lat="36.900129010900855" lon="-4.683639016002417">
        <ele>339.95999999999998</ele>
        <time>2025-05-09T12:12:28Z</time>
      </trkpt>
      <trkpt lat="36.900680959224701" lon="-4.683501971885562">
        <ele>339.48000000000002</ele>
        <time>2025-05-09T12:12:32Z</time>
      </trkpt>
      <trkpt lat="36.900821020826697" lon="-4.683501971885562">
        <ele>339</ele>
        <time>2025-05-09T12:12:33Z</time>
      </trkpt>
      <trkpt lat="36.901778988540173" lon="-4.683682015165687">
        <ele>337.07999999999998</ele>
        <time>2025-05-09T12:12:40Z</time>
      </trkpt>
      <trkpt lat="36.90187999047339" lon="-4.683748986572027">
        <ele>336.60000000000002</ele>
        <time>2025-05-09T12:12:41Z</time>
      </trkpt>
      <trkpt lat="36.901964982971549" lon="-4.683852000162005">
        <ele>336.60000000000002</ele>
        <time>2025-05-09T12:12:42Z</time>
      </trkpt>
      <trkpt lat="36.90205198712647" lon="-4.683957025408745">
        <ele>336.12</ele>
        <time>2025-05-09T12:12:43Z</time>
      </trkpt>
      <trkpt lat="36.902142008766532" lon="-4.684065990149975">
        <ele>335.63999999999999</ele>
        <time>2025-05-09T12:12:44Z</time>
      </trkpt>
      <trkpt lat="36.902834018692374" lon="-4.684905018657446">
        <ele>333.23000000000002</ele>
        <time>2025-05-09T12:12:52Z</time>
      </trkpt>
      <trkpt lat="36.902860002592206" lon="-4.684983976185322">
        <ele>332.75</ele>
        <time>2025-05-09T12:12:53Z</time>
      </trkpt>
      <trkpt lat="36.902856985107064" lon="-4.685082966461778">
        <ele>332.75</ele>
        <time>2025-05-09T12:12:54Z</time>
      </trkpt>
      <trkpt lat="36.902852961793542" lon="-4.685181034728885">
        <ele>332.26999999999998</ele>
        <time>2025-05-09T12:12:55Z</time>
      </trkpt>
      <trkpt lat="36.902850028127432" lon="-4.685278013348579">
        <ele>332.26999999999998</ele>
        <time>2025-05-09T12:12:56Z</time>
      </trkpt>
      <trkpt lat="36.902842987328768" lon="-4.685482028871775">
        <ele>331.79000000000002</ele>
        <time>2025-05-09T12:12:58Z</time>
      </trkpt>
      <trkpt lat="36.902851033955812" lon="-4.685555035248399">
        <ele>331.31</ele>
        <time>2025-05-09T12:12:59Z</time>
      </trkpt>
      <trkpt lat="36.902897972613573" lon="-4.685621000826359">
        <ele>330.82999999999998</ele>
        <time>2025-05-09T12:13:00Z</time>
      </trkpt>
      <trkpt lat="36.902948012575507" lon="-4.685693001374602">
        <ele>330.82999999999998</ele>
        <time>2025-05-09T12:13:01Z</time>
      </trkpt>
      <trkpt lat="36.903004003688693" lon="-4.685771036893129">
        <ele>330.35000000000002</ele>
        <time>2025-05-09T12:13:02Z</time>
      </trkpt>
      <trkpt lat="36.903057983145118" lon="-4.685847982764244">
        <ele>329.38999999999999</ele>
        <time>2025-05-09T12:13:03Z</time>
      </trkpt>
      <trkpt lat="36.903095031157136" lon="-4.685919983312488">
        <ele>328.91000000000003</ele>
        <time>2025-05-09T12:13:04Z</time>
      </trkpt>
      <trkpt lat="36.903073992580175" lon="-4.686015034094453">
        <ele>328.43000000000001</ele>
        <time>2025-05-09T12:13:05Z</time>
      </trkpt>
      <trkpt lat="36.903050020337105" lon="-4.686111006885767">
        <ele>327.94999999999999</ele>
        <time>2025-05-09T12:13:06Z</time>
      </trkpt>
      <trkpt lat="36.903010038658977" lon="-4.686206979677081">
        <ele>327.47000000000003</ele>
        <time>2025-05-09T12:13:07Z</time>
      </trkpt>
      <trkpt lat="36.902969973161817" lon="-4.686304964125156">
        <ele>327.47000000000003</ele>
        <time>2025-05-09T12:13:08Z</time>
      </trkpt>
      <trkpt lat="36.90293300896883" lon="-4.686398003250361">
        <ele>326.99000000000001</ele>
        <time>2025-05-09T12:13:09Z</time>
      </trkpt>
      <trkpt lat="36.902895038947463" lon="-4.686489030718803">
        <ele>326.5</ele>
        <time>2025-05-09T12:13:10Z</time>
      </trkpt>
      <trkpt lat="36.902862014248967" lon="-4.686569999903441">
        <ele>326.01999999999998</ele>
        <time>2025-05-09T12:13:11Z</time>
      </trkpt>
      <trkpt lat="36.902907025068998" lon="-4.686663039028645">
        <ele>325.54000000000002</ele>
        <time>2025-05-09T12:13:12Z</time>
      </trkpt>
      <trkpt lat="36.902948012575507" lon="-4.686749959364533">
        <ele>325.06</ele>
        <time>2025-05-09T12:13:13Z</time>
      </trkpt>
      <trkpt lat="36.902992017567158" lon="-4.686841992661357">
        <ele>324.57999999999998</ele>
        <time>2025-05-09T12:13:14Z</time>
      </trkpt>
      <trkpt lat="36.903037028387189" lon="-4.686936037614942">
        <ele>324.57999999999998</ele>
        <time>2025-05-09T12:13:15Z</time>
      </trkpt>
      <trkpt lat="36.903082961216569" lon="-4.687033016234636">
        <ele>324.10000000000002</ele>
        <time>2025-05-09T12:13:16Z</time>
      </trkpt>
      <trkpt lat="36.903106011450291" lon="-4.687139969319105">
        <ele>323.62</ele>
        <time>2025-05-09T12:13:17Z</time>
      </trkpt>
      <trkpt lat="36.903116991743445" lon="-4.687253041192889">
        <ele>323.13999999999999</ele>
        <time>2025-05-09T12:13:18Z</time>
      </trkpt>
      <trkpt lat="36.903128977864981" lon="-4.687368962913752">
        <ele>323.13999999999999</ele>
        <time>2025-05-09T12:13:19Z</time>
      </trkpt>
      <trkpt lat="36.903139958158135" lon="-4.687485974282026">
        <ele>323.13999999999999</ele>
        <time>2025-05-09T12:13:20Z</time>
      </trkpt>
      <trkpt lat="36.903152028098702" lon="-4.68760097399354">
        <ele>323.13999999999999</ele>
        <time>2025-05-09T12:13:21Z</time>
      </trkpt>
      <trkpt lat="36.903164014220238" lon="-4.687713040038943">
        <ele>323.13999999999999</ele>
        <time>2025-05-09T12:13:22Z</time>
      </trkpt>
      <trkpt lat="36.903197038918734" lon="-4.687818987295032">
        <ele>323.13999999999999</ele>
        <time>2025-05-09T12:13:23Z</time>
      </trkpt>
      <trkpt lat="36.903229979798198" lon="-4.687924012541771">
        <ele>323.13999999999999</ele>
        <time>2025-05-09T12:13:24Z</time>
      </trkpt>
      <trkpt lat="36.903260992839932" lon="-4.688021996989846">
        <ele>323.13999999999999</ele>
        <time>2025-05-09T12:13:25Z</time>
      </trkpt>
      <trkpt lat="36.90325696952641" lon="-4.688129033893347">
        <ele>322.66000000000003</ele>
        <time>2025-05-09T12:13:26Z</time>
      </trkpt>
      <trkpt lat="36.903239032253623" lon="-4.688235986977816">
        <ele>322.66000000000003</ele>
        <time>2025-05-09T12:13:27Z</time>
      </trkpt>
      <trkpt lat="36.903220005333424" lon="-4.688349980860949">
        <ele>322.18000000000001</ele>
        <time>2025-05-09T12:13:28Z</time>
      </trkpt>
      <trkpt lat="36.903199972584844" lon="-4.688472021371126">
        <ele>322.18000000000001</ele>
        <time>2025-05-09T12:13:29Z</time>
      </trkpt>
      <trkpt lat="36.903179017826915" lon="-4.688592972233892">
        <ele>321.69999999999999</ele>
        <time>2025-05-09T12:13:30Z</time>
      </trkpt>
      <trkpt lat="36.903164014220238" lon="-4.688715012744069">
        <ele>321.22000000000003</ele>
        <time>2025-05-09T12:13:31Z</time>
      </trkpt>
      <trkpt lat="36.903226962313056" lon="-4.68933803960681">
        <ele>318.81</ele>
        <time>2025-05-09T12:13:36Z</time>
      </trkpt>
      <trkpt lat="36.903279013931751" lon="-4.689442981034517">
        <ele>318.32999999999998</ele>
        <time>2025-05-09T12:13:37Z</time>
      </trkpt>
      <trkpt lat="36.903338022530079" lon="-4.689512969926">
        <ele>317.85000000000002</ele>
        <time>2025-05-09T12:13:38Z</time>
      </trkpt>
      <trkpt lat="36.903411028906703" lon="-4.689524034038186">
        <ele>317.37</ele>
        <time>2025-05-09T12:13:39Z</time>
      </trkpt>
      <trkpt lat="36.903483029454947" lon="-4.689519004896283">
        <ele>316.41000000000003</ele>
        <time>2025-05-09T12:13:40Z</time>
      </trkpt>
      <trkpt lat="36.90355503000319" lon="-4.68947097659111">
        <ele>315.93000000000001</ele>
        <time>2025-05-09T12:13:41Z</time>
      </trkpt>
      <trkpt lat="36.903629964217544" lon="-4.689423032104969">
        <ele>314.97000000000003</ele>
        <time>2025-05-09T12:13:42Z</time>
      </trkpt>
      <trkpt lat="36.903711017221212" lon="-4.689369974657893">
        <ele>314.97000000000003</ele>
        <time>2025-05-09T12:13:43Z</time>
      </trkpt>
      <trkpt lat="36.903795003890991" lon="-4.689314989373088">
        <ele>314.49000000000001</ele>
        <time>2025-05-09T12:13:44Z</time>
      </trkpt>
      <trkpt lat="36.903882008045912" lon="-4.689258998259902">
        <ele>313.52999999999997</ele>
        <time>2025-05-09T12:13:45Z</time>
      </trkpt>
      <trkpt lat="36.903959959745407" lon="-4.689267966896296">
        <ele>313.05000000000001</ele>
        <time>2025-05-09T12:13:46Z</time>
      </trkpt>
      <trkpt lat="36.904051993042231" lon="-4.689289005473256">
        <ele>312.56999999999999</ele>
        <time>2025-05-09T12:13:47Z</time>
      </trkpt>
      <trkpt lat="36.904146960005164" lon="-4.689309960231185">
        <ele>311.60000000000002</ele>
        <time>2025-05-09T12:13:48Z</time>
      </trkpt>
      <trkpt lat="36.904245028272271" lon="-4.689332004636526">
        <ele>310.63999999999999</ele>
        <time>2025-05-09T12:13:49Z</time>
      </trkpt>
      <trkpt lat="36.904339995235205" lon="-4.689353965222836">
        <ele>310.16000000000003</ele>
        <time>2025-05-09T12:13:50Z</time>
      </trkpt>
      <trkpt lat="36.904432028532028" lon="-4.689330998808146">
        <ele>309.19999999999999</ele>
        <time>2025-05-09T12:13:51Z</time>
      </trkpt>
      <trkpt lat="36.904520038515329" lon="-4.689290011301637">
        <ele>308.24000000000001</ele>
        <time>2025-05-09T12:13:52Z</time>
      </trkpt>
      <trkpt lat="36.904596984386444" lon="-4.689215999096632">
        <ele>307.75999999999999</ele>
        <time>2025-05-09T12:13:53Z</time>
      </trkpt>
      <trkpt lat="36.904676025733352" lon="-4.689140981063247">
        <ele>306.80000000000001</ele>
        <time>2025-05-09T12:13:54Z</time>
      </trkpt>
      <trkpt lat="36.904758000746369" lon="-4.689062023535371">
        <ele>305.83999999999997</ele>
        <time>2025-05-09T12:13:55Z</time>
      </trkpt>
      <trkpt lat="36.904926979914308" lon="-4.688902013003826">
        <ele>304.38999999999999</ele>
        <time>2025-05-09T12:13:57Z</time>
      </trkpt>
      <trkpt lat="36.904985988512635" lon="-4.68884501606226">
        <ele>303.43000000000001</ele>
        <time>2025-05-09T12:13:58Z</time>
      </trkpt>
      <trkpt lat="36.905108029022813" lon="-4.688810985535383">
        <ele>301.99000000000001</ele>
        <time>2025-05-09T12:13:59Z</time>
      </trkpt>
      <trkpt lat="36.90520903095603" lon="-4.68878298997879">
        <ele>300.55000000000001</ele>
        <time>2025-05-09T12:14:00Z</time>
      </trkpt>
      <trkpt lat="36.905311960726976" lon="-4.688753988593817">
        <ele>299.58999999999997</ele>
        <time>2025-05-09T12:14:01Z</time>
      </trkpt>
      <trkpt lat="36.905412962660193" lon="-4.688724987208843">
        <ele>298.63</ele>
        <time>2025-05-09T12:14:02Z</time>
      </trkpt>
      <trkpt lat="36.90551002509892" lon="-4.688697997480631">
        <ele>297.18000000000001</ele>
        <time>2025-05-09T12:14:03Z</time>
      </trkpt>
      <trkpt lat="36.905573979020119" lon="-4.688623985275626">
        <ele>296.22000000000003</ele>
        <time>2025-05-09T12:14:04Z</time>
      </trkpt>
      <trkpt lat="36.90564296208322" lon="-4.688530024141073">
        <ele>295.25999999999999</ele>
        <time>2025-05-09T12:14:05Z</time>
      </trkpt>
      <trkpt lat="36.905714040622115" lon="-4.688433967530727">
        <ele>293.81999999999999</ele>
        <time>2025-05-09T12:14:06Z</time>
      </trkpt>
      <trkpt lat="36.905786041170359" lon="-4.688335983082652">
        <ele>292.86000000000001</ele>
        <time>2025-05-09T12:14:07Z</time>
      </trkpt>
      <trkpt lat="36.905857035890222" lon="-4.688237998634577">
        <ele>291.89999999999998</ele>
        <time>2025-05-09T12:14:08Z</time>
      </trkpt>
      <trkpt lat="36.905928030610085" lon="-4.688143031671643">
        <ele>291.42000000000002</ele>
        <time>2025-05-09T12:14:09Z</time>
      </trkpt>
      <trkpt lat="36.905998019501567" lon="-4.688049992546439">
        <ele>290.45999999999998</ele>
        <time>2025-05-09T12:14:10Z</time>
      </trkpt>
      <trkpt lat="36.906084017828107" lon="-4.688025014474988">
        <ele>289.97000000000003</ele>
        <time>2025-05-09T12:14:11Z</time>
      </trkpt>
      <trkpt lat="36.90617898479104" lon="-4.688014034181833">
        <ele>289.49000000000001</ele>
        <time>2025-05-09T12:14:12Z</time>
      </trkpt>
      <trkpt lat="36.906270012259483" lon="-4.68802903778851">
        <ele>289.00999999999999</ele>
        <time>2025-05-09T12:14:13Z</time>
      </trkpt>
      <trkpt lat="36.906453995034099" lon="-4.688044963404536">
        <ele>288.05000000000001</ele>
        <time>2025-05-09T12:14:15Z</time>
      </trkpt>
      <trkpt lat="36.906545022502542" lon="-4.688034988939762">
        <ele>288.05000000000001</ele>
        <time>2025-05-09T12:14:16Z</time>
      </trkpt>
      <trkpt lat="36.906631020829082" lon="-4.68800900503993">
        <ele>287.56999999999999</ele>
        <time>2025-05-09T12:14:17Z</time>
      </trkpt>
      <trkpt lat="36.90671500749886" lon="-4.687959970906377">
        <ele>287.08999999999997</ele>
        <time>2025-05-09T12:14:18Z</time>
      </trkpt>
      <trkpt lat="36.9068010058254" lon="-4.687910014763475">
        <ele>286.61000000000001</ele>
        <time>2025-05-09T12:14:19Z</time>
      </trkpt>
      <trkpt lat="36.906967973336577" lon="-4.687813958153129">
        <ele>285.64999999999998</ele>
        <time>2025-05-09T12:14:21Z</time>
      </trkpt>
      <trkpt lat="36.907023964449763" lon="-4.687743969261646">
        <ele>285.17000000000002</ele>
        <time>2025-05-09T12:14:22Z</time>
      </trkpt>
      <trkpt lat="36.907063024118543" lon="-4.687651013955474">
        <ele>285.17000000000002</ele>
        <time>2025-05-09T12:14:23Z</time>
      </trkpt>
      <trkpt lat="36.907099988311529" lon="-4.687560992315412">
        <ele>285.17000000000002</ele>
        <time>2025-05-09T12:14:24Z</time>
      </trkpt>
      <trkpt lat="36.907138964161277" lon="-4.687467031180859">
        <ele>285.17000000000002</ele>
        <time>2025-05-09T12:14:25Z</time>
      </trkpt>
      <trkpt lat="36.907179029658437" lon="-4.687371980398893">
        <ele>285.17000000000002</ele>
        <time>2025-05-09T12:14:26Z</time>
      </trkpt>
      <trkpt lat="36.907225968316197" lon="-4.687273995950818">
        <ele>284.69</ele>
        <time>2025-05-09T12:14:27Z</time>
      </trkpt>
      <trkpt lat="36.907299980521202" lon="-4.687227979302406">
        <ele>284.20999999999998</ele>
        <time>2025-05-09T12:14:28Z</time>
      </trkpt>
      <trkpt lat="36.907377010211349" lon="-4.687181962653995">
        <ele>284.20999999999998</ele>
        <time>2025-05-09T12:14:29Z</time>
      </trkpt>
      <trkpt lat="36.907601980492473" lon="-4.687043996527791">
        <ele>283.25</ele>
        <time>2025-05-09T12:14:32Z</time>
      </trkpt>
      <trkpt lat="36.907675992697477" lon="-4.68699999153614">
        <ele>282.76999999999998</ele>
        <time>2025-05-09T12:14:33Z</time>
      </trkpt>
      <trkpt lat="36.907758973538876" lon="-4.686982976272702">
        <ele>282.27999999999997</ele>
        <time>2025-05-09T12:14:34Z</time>
      </trkpt>
      <trkpt lat="36.907840026542544" lon="-4.686992028728128">
        <ele>281.80000000000001</ele>
        <time>2025-05-09T12:14:35Z</time>
      </trkpt>
      <trkpt lat="36.90791797824204" lon="-4.687017006799579">
        <ele>281.31999999999999</ele>
        <time>2025-05-09T12:14:36Z</time>
      </trkpt>
      <trkpt lat="36.907970029860735" lon="-4.687081966549158">
        <ele>280.36000000000001</ele>
        <time>2025-05-09T12:14:37Z</time>
      </trkpt>
      <trkpt lat="36.907997019588947" lon="-4.687161007896066">
        <ele>279.88</ele>
        <time>2025-05-09T12:14:38Z</time>
      </trkpt>
      <trkpt lat="36.908007999882102" lon="-4.687244994565845">
        <ele>279.88</ele>
        <time>2025-05-09T12:14:39Z</time>
      </trkpt>
      <trkpt lat="36.907992996275425" lon="-4.687325041741133">
        <ele>279.88</ele>
        <time>2025-05-09T12:14:40Z</time>
      </trkpt>
      <trkpt lat="36.90796097740531" lon="-4.68740601092577">
        <ele>279.88</ele>
        <time>2025-05-09T12:14:41Z</time>
      </trkpt>
      <trkpt lat="36.907925019040704" lon="-4.687495026737452">
        <ele>280.36000000000001</ele>
        <time>2025-05-09T12:14:42Z</time>
      </trkpt>
      <trkpt lat="36.907886965200305" lon="-4.687589993700385">
        <ele>280.36000000000001</ele>
        <time>2025-05-09T12:14:43Z</time>
      </trkpt>
      <trkpt lat="36.907883025705814" lon="-4.687696024775505">
        <ele>280.83999999999997</ele>
        <time>2025-05-09T12:14:44Z</time>
      </trkpt>
      <trkpt lat="36.907883025705814" lon="-4.687807001173496">
        <ele>281.31999999999999</ele>
        <time>2025-05-09T12:14:45Z</time>
      </trkpt>
      <trkpt lat="36.907883025705814" lon="-4.687925018370152">
        <ele>281.80000000000001</ele>
        <time>2025-05-09T12:14:46Z</time>
      </trkpt>
      <trkpt lat="36.907899035140872" lon="-4.688041023910046">
        <ele>282.27999999999997</ele>
        <time>2025-05-09T12:14:47Z</time>
      </trkpt>
      <trkpt lat="36.907931976020336" lon="-4.688149988651276">
        <ele>283.25</ele>
        <time>2025-05-09T12:14:48Z</time>
      </trkpt>
      <trkpt lat="36.907977992668748" lon="-4.688231963664293">
        <ele>284.20999999999998</ele>
        <time>2025-05-09T12:14:49Z</time>
      </trkpt>
      <trkpt lat="36.908039012923837" lon="-4.68828703276813">
        <ele>284.69</ele>
        <time>2025-05-09T12:14:50Z</time>
      </trkpt>
      <trkpt lat="36.908099027350545" lon="-4.68828703276813">
        <ele>285.17000000000002</ele>
        <time>2025-05-09T12:14:51Z</time>
      </trkpt>
      <trkpt lat="36.908160969614983" lon="-4.68824696727097">
        <ele>286.61000000000001</ele>
        <time>2025-05-09T12:14:52Z</time>
      </trkpt>
      <trkpt lat="36.908189970999956" lon="-4.688187036663294">
        <ele>287.56999999999999</ele>
        <time>2025-05-09T12:14:53Z</time>
      </trkpt>
      <trkpt lat="36.90821997821331" lon="-4.688128028064966">
        <ele>288.52999999999997</ele>
        <time>2025-05-09T12:14:54Z</time>
      </trkpt>
      <trkpt lat="36.908251997083426" lon="-4.688063990324736">
        <ele>289.97000000000003</ele>
        <time>2025-05-09T12:14:55Z</time>
      </trkpt>
      <trkpt lat="36.908287033438683" lon="-4.687994001433253">
        <ele>290.94</ele>
        <time>2025-05-09T12:14:56Z</time>
      </trkpt>
      <trkpt lat="36.908355010673404" lon="-4.687857963144779">
        <ele>293.33999999999997</ele>
        <time>2025-05-09T12:14:58Z</time>
      </trkpt>
      <trkpt lat="36.908409995958209" lon="-4.687812030315399">
        <ele>294.77999999999997</ele>
        <time>2025-05-09T12:14:59Z</time>
      </trkpt>
      <trkpt lat="36.908462969586253" lon="-4.687767019495368">
        <ele>295.25999999999999</ele>
        <time>2025-05-09T12:15:00Z</time>
      </trkpt>
      <trkpt lat="36.908524995669723" lon="-4.687756039202213">
        <ele>295.74000000000001</ele>
        <time>2025-05-09T12:15:01Z</time>
      </trkpt>
      <trkpt lat="36.908592972904444" lon="-4.687764002010226">
        <ele>295.74000000000001</ele>
        <time>2025-05-09T12:15:02Z</time>
      </trkpt>
      <trkpt lat="36.90867000259459" lon="-4.687779005616903">
        <ele>295.74000000000001</ele>
        <time>2025-05-09T12:15:03Z</time>
      </trkpt>
      <trkpt lat="36.908743008971214" lon="-4.68781697563827">
        <ele>295.74000000000001</ele>
        <time>2025-05-09T12:15:04Z</time>
      </trkpt>
      <trkpt lat="36.908817021176219" lon="-4.68785603530705">
        <ele>296.22000000000003</ele>
        <time>2025-05-09T12:15:05Z</time>
      </trkpt>
      <trkpt lat="36.909066969528794" lon="-4.687986960634589">
        <ele>297.67000000000002</ele>
        <time>2025-05-09T12:15:09Z</time>
      </trkpt>
      <trkpt lat="36.909116003662348" lon="-4.688012022525072">
        <ele>298.14999999999998</ele>
        <time>2025-05-09T12:15:10Z</time>
      </trkpt>
      <trkpt lat="36.909149028360844" lon="-4.68802903778851">
        <ele>298.63</ele>
        <time>2025-05-09T12:15:11Z</time>
      </trkpt>
      <trkpt lat="36.909178029745817" lon="-4.688018979504705">
        <ele>299.11000000000001</ele>
        <time>2025-05-09T12:15:12Z</time>
      </trkpt>
      <trkpt lat="36.90920895896852" lon="-4.688006993383169">
        <ele>299.11000000000001</ele>
        <time>2025-05-09T12:15:13Z</time>
      </trkpt>
      <trkpt lat="36.909233015030622" lon="-4.687998024746776">
        <ele>299.58999999999997</ele>
        <time>2025-05-09T12:15:14Z</time>
      </trkpt>
      <trkpt lat="36.909266039729118" lon="-4.68798603862524">
        <ele>300.55000000000001</ele>
        <time>2025-05-09T12:15:15Z</time>
      </trkpt>
      <trkpt lat="36.909321025013924" lon="-4.68796500004828">
        <ele>300.55000000000001</ele>
        <time>2025-05-09T12:15:16Z</time>
      </trkpt>
      <trkpt lat="36.909332005307078" lon="-4.687929963693023">
        <ele>301.50999999999999</ele>
        <time>2025-05-09T12:15:17Z</time>
      </trkpt>
      <trkpt lat="36.909353965893388" lon="-4.687857963144779">
        <ele>301.99000000000001</ele>
        <time>2025-05-09T12:15:18Z</time>
      </trkpt>
      <trkpt lat="36.909373998641968" lon="-4.6877930033952">
        <ele>302.94999999999999</ele>
        <time>2025-05-09T12:15:19Z</time>
      </trkpt>
      <trkpt lat="36.909391013905406" lon="-4.687735000625253">
        <ele>303.91000000000003</ele>
        <time>2025-05-09T12:15:20Z</time>
      </trkpt>
      <trkpt lat="36.909450022503734" lon="-4.68723502010107">
        <ele>307.75999999999999</ele>
        <time>2025-05-09T12:15:25Z</time>
      </trkpt>
      <trkpt lat="36.909478018060327" lon="-4.687140975147486">
        <ele>308.24000000000001</ele>
        <time>2025-05-09T12:15:26Z</time>
      </trkpt>
      <trkpt lat="36.90950601361692" lon="-4.687048019841313">
        <ele>309.19999999999999</ele>
        <time>2025-05-09T12:15:27Z</time>
      </trkpt>
      <trkpt lat="36.909567033872008" lon="-4.68697702512145">
        <ele>310.16000000000003</ele>
        <time>2025-05-09T12:15:28Z</time>
      </trkpt>
      <trkpt lat="36.909639034420252" lon="-4.686919022351503">
        <ele>311.12</ele>
        <time>2025-05-09T12:15:29Z</time>
      </trkpt>
      <trkpt lat="36.909710029140115" lon="-4.686861019581556">
        <ele>311.60000000000002</ele>
        <time>2025-05-09T12:15:30Z</time>
      </trkpt>
      <trkpt lat="36.910318974405527" lon="-4.686481989920139">
        <ele>318.32999999999998</ele>
        <time>2025-05-09T12:15:38Z</time>
      </trkpt>
      <trkpt lat="36.910371026024222" lon="-4.686410995200276">
        <ele>318.81</ele>
        <time>2025-05-09T12:15:39Z</time>
      </trkpt>
      <trkpt lat="36.910401033237576" lon="-4.686322985216975">
        <ele>319.30000000000001</ele>
        <time>2025-05-09T12:15:40Z</time>
      </trkpt>
      <trkpt lat="36.910420982167125" lon="-4.686223994940519">
        <ele>320.25999999999999</ele>
        <time>2025-05-09T12:15:41Z</time>
      </trkpt>
      <trkpt lat="36.910442020744085" lon="-4.686126010492444">
        <ele>320.74000000000001</ele>
        <time>2025-05-09T12:15:42Z</time>
      </trkpt>
      <trkpt lat="36.910462975502014" lon="-4.686026014387608">
        <ele>321.69999999999999</ele>
        <time>2025-05-09T12:15:43Z</time>
      </trkpt>
      <trkpt lat="36.910487031564116" lon="-4.685934986919165">
        <ele>322.18000000000001</ele>
        <time>2025-05-09T12:15:44Z</time>
      </trkpt>
      <trkpt lat="36.910532964393497" lon="-4.685852006077766">
        <ele>323.13999999999999</ele>
        <time>2025-05-09T12:15:45Z</time>
      </trkpt>
      <trkpt lat="36.910577975213528" lon="-4.685771036893129">
        <ele>323.62</ele>
        <time>2025-05-09T12:15:46Z</time>
      </trkpt>
      <trkpt lat="36.910646958276629" lon="-4.685728037729859">
        <ele>324.57999999999998</ele>
        <time>2025-05-09T12:15:47Z</time>
      </trkpt>
      <trkpt lat="36.910722982138395" lon="-4.685693001374602">
        <ele>325.54000000000002</ele>
        <time>2025-05-09T12:15:48Z</time>
      </trkpt>
      <trkpt lat="36.910804035142064" lon="-4.685656037181616">
        <ele>326.01999999999998</ele>
        <time>2025-05-09T12:15:49Z</time>
      </trkpt>
      <trkpt lat="36.910889027640224" lon="-4.68564597889781">
        <ele>326.5</ele>
        <time>2025-05-09T12:15:50Z</time>
      </trkpt>
      <trkpt lat="36.910979971289635" lon="-4.685642961412668">
        <ele>326.99000000000001</ele>
        <time>2025-05-09T12:15:51Z</time>
      </trkpt>
      <trkpt lat="36.912115970626473" lon="-4.685589987784624">
        <ele>335.63999999999999</ele>
        <time>2025-05-09T12:16:03Z</time>
      </trkpt>
      <trkpt lat="36.913299998268485" lon="-4.685768019407988">
        <ele>347.17000000000002</ele>
        <time>2025-05-09T12:16:14Z</time>
      </trkpt>
      <trkpt lat="36.913369987159967" lon="-4.685765001922846">
        <ele>347.64999999999998</ele>
        <time>2025-05-09T12:16:15Z</time>
      </trkpt>
      <trkpt lat="36.913434024900198" lon="-4.685716973617673">
        <ele>348.62</ele>
        <time>2025-05-09T12:16:16Z</time>
      </trkpt>
      <trkpt lat="36.91352597437799" lon="-4.685647990554571">
        <ele>349.57999999999998</ele>
        <time>2025-05-09T12:16:17Z</time>
      </trkpt>
      <trkpt lat="36.913580037653446" lon="-4.685581019148231">
        <ele>350.54000000000002</ele>
        <time>2025-05-09T12:16:18Z</time>
      </trkpt>
      <trkpt lat="36.913653966039419" lon="-4.685489991679788">
        <ele>351.5</ele>
        <time>2025-05-09T12:16:19Z</time>
      </trkpt>
      <trkpt lat="36.91459902562201" lon="-4.684488018974662">
        <ele>361.11000000000001</ele>
        <time>2025-05-09T12:16:29Z</time>
      </trkpt>
      <trkpt lat="36.915056006982923" lon="-4.684056015685201">
        <ele>366.39999999999998</ele>
        <time>2025-05-09T12:16:34Z</time>
      </trkpt>
      <trkpt lat="36.915085008367896" lon="-4.683964988216758">
        <ele>367.36000000000001</ele>
        <time>2025-05-09T12:16:35Z</time>
      </trkpt>
      <trkpt lat="36.915104035288095" lon="-4.683857029303908">
        <ele>367.83999999999997</ele>
        <time>2025-05-09T12:16:36Z</time>
      </trkpt>
      <trkpt lat="36.915103029459715" lon="-4.683745969086886">
        <ele>368.80000000000001</ele>
        <time>2025-05-09T12:16:37Z</time>
      </trkpt>
      <trkpt lat="36.915077967569232" lon="-4.683622000738978">
        <ele>369.27999999999997</ele>
        <time>2025-05-09T12:16:38Z</time>
      </trkpt>
      <trkpt lat="36.9150519836694" lon="-4.683490991592407">
        <ele>370.24000000000001</ele>
        <time>2025-05-09T12:16:39Z</time>
      </trkpt>
      <trkpt lat="36.914998004212976" lon="-4.683221010491252">
        <ele>371.69</ele>
        <time>2025-05-09T12:16:41Z</time>
      </trkpt>
      <trkpt lat="36.914998004212976" lon="-4.683100981637836">
        <ele>373.13</ele>
        <time>2025-05-09T12:16:42Z</time>
      </trkpt>
      <trkpt lat="36.915023988112807" lon="-4.682984976097941">
        <ele>374.08999999999997</ele>
        <time>2025-05-09T12:16:43Z</time>
      </trkpt>
      <trkpt lat="36.915078973397613" lon="-4.68289596028626">
        <ele>375.05000000000001</ele>
        <time>2025-05-09T12:16:44Z</time>
      </trkpt>
      <trkpt lat="36.915142005309463" lon="-4.68280996195972">
        <ele>376.00999999999999</ele>
        <time>2025-05-09T12:16:45Z</time>
      </trkpt>
      <trkpt lat="36.915206965059042" lon="-4.68272203579545">
        <ele>376.97000000000003</ele>
        <time>2025-05-09T12:16:46Z</time>
      </trkpt>
      <trkpt lat="36.915280977264047" lon="-4.68263796530664">
        <ele>377.94</ele>
        <time>2025-05-09T12:16:47Z</time>
      </trkpt>
      <trkpt lat="36.915791016072035" lon="-4.68205701559782">
        <ele>383.22000000000003</ele>
        <time>2025-05-09T12:16:53Z</time>
      </trkpt>
      <trkpt lat="36.915861004963517" lon="-4.681944027543068">
        <ele>384.66000000000003</ele>
        <time>2025-05-09T12:16:54Z</time>
      </trkpt>
      <trkpt lat="36.915921019390225" lon="-4.681823998689652">
        <ele>386.11000000000001</ele>
        <time>2025-05-09T12:16:55Z</time>
      </trkpt>
      <trkpt lat="36.916538011282682" lon="-4.680802999064326">
        <ele>390.43000000000001</ele>
        <time>2025-05-09T12:17:05Z</time>
      </trkpt>
      <trkpt lat="36.916758036240935" lon="-4.680514996871352">
        <ele>388.50999999999999</ele>
        <time>2025-05-09T12:17:08Z</time>
      </trkpt>
      <trkpt lat="36.916830958798528" lon="-4.680419024080038">
        <ele>387.06999999999999</ele>
        <time>2025-05-09T12:17:09Z</time>
      </trkpt>
      <trkpt lat="36.916930032894015" lon="-4.680378958582878">
        <ele>386.11000000000001</ele>
        <time>2025-05-09T12:17:10Z</time>
      </trkpt>
      <trkpt lat="36.917037991806865" lon="-4.680362027138472">
        <ele>385.14999999999998</ele>
        <time>2025-05-09T12:17:11Z</time>
      </trkpt>
      <trkpt lat="36.917147962376475" lon="-4.680345011875033">
        <ele>383.69999999999999</ele>
        <time>2025-05-09T12:17:12Z</time>
      </trkpt>
      <trkpt lat="36.91726204007864" lon="-4.680327996611595">
        <ele>382.25999999999999</ele>
        <time>2025-05-09T12:17:13Z</time>
      </trkpt>
      <trkpt lat="36.917377961799502" lon="-4.680309975519776">
        <ele>381.30000000000001</ele>
        <time>2025-05-09T12:17:14Z</time>
      </trkpt>
      <trkpt lat="36.917484998703003" lon="-4.680262031033635">
        <ele>379.86000000000001</ele>
        <time>2025-05-09T12:17:15Z</time>
      </trkpt>
      <trkpt lat="36.917579965665936" lon="-4.680198999121785">
        <ele>378.42000000000002</ele>
        <time>2025-05-09T12:17:16Z</time>
      </trkpt>
      <trkpt lat="36.917666969820857" lon="-4.680111994966865">
        <ele>377.44999999999999</ele>
        <time>2025-05-09T12:17:17Z</time>
      </trkpt>
      <trkpt lat="36.917751962319016" lon="-4.680027002468705">
        <ele>376.00999999999999</ele>
        <time>2025-05-09T12:17:18Z</time>
      </trkpt>
      <trkpt lat="36.917818011716008" lon="-4.679961036890745">
        <ele>375.05000000000001</ele>
        <time>2025-05-09T12:17:19Z</time>
      </trkpt>
      <trkpt lat="36.917926976457238" lon="-4.679924994707108">
        <ele>373.61000000000001</ele>
        <time>2025-05-09T12:17:20Z</time>
      </trkpt>
      <trkpt lat="36.918001994490623" lon="-4.679936980828643">
        <ele>372.64999999999998</ele>
        <time>2025-05-09T12:17:21Z</time>
      </trkpt>
      <trkpt lat="36.918076006695628" lon="-4.679961036890745">
        <ele>371.69</ele>
        <time>2025-05-09T12:17:22Z</time>
      </trkpt>
      <trkpt lat="36.918129986152053" lon="-4.680038988590241">
        <ele>370.73000000000002</ele>
        <time>2025-05-09T12:17:23Z</time>
      </trkpt>
      <trkpt lat="36.918193018063903" lon="-4.680128004401922">
        <ele>369.75999999999999</ele>
        <time>2025-05-09T12:17:24Z</time>
      </trkpt>
      <trkpt lat="36.918258983641863" lon="-4.680222971364856">
        <ele>368.80000000000001</ele>
        <time>2025-05-09T12:17:25Z</time>
      </trkpt>
      <trkpt lat="36.918375995010138" lon="-4.680390022695065">
        <ele>367.36000000000001</ele>
        <time>2025-05-09T12:17:27Z</time>
      </trkpt>
      <trkpt lat="36.918484959751368" lon="-4.680436961352825">
        <ele>366.39999999999998</ele>
        <time>2025-05-09T12:17:28Z</time>
      </trkpt>
      <trkpt lat="36.918582022190094" lon="-4.680454982444644">
        <ele>365.92000000000002</ele>
        <time>2025-05-09T12:17:29Z</time>
      </trkpt>
      <trkpt lat="36.918687969446182" lon="-4.680454982444644">
        <ele>364.95999999999998</ele>
        <time>2025-05-09T12:17:30Z</time>
      </trkpt>
      <trkpt lat="36.918795006349683" lon="-4.68042204156518">
        <ele>364</ele>
        <time>2025-05-09T12:17:31Z</time>
      </trkpt>
      <trkpt lat="36.918902965262532" lon="-4.680385999381542">
        <ele>362.55000000000001</ele>
        <time>2025-05-09T12:17:32Z</time>
      </trkpt>
      <trkpt lat="36.919006984680891" lon="-4.680351968854666">
        <ele>361.58999999999997</ele>
        <time>2025-05-09T12:17:33Z</time>
      </trkpt>
      <trkpt lat="36.919209994375706" lon="-4.680283991619945">
        <ele>359.19</ele>
        <time>2025-05-09T12:17:35Z</time>
      </trkpt>
      <trkpt lat="36.919304961338639" lon="-4.680292038246989">
        <ele>358.23000000000002</ele>
        <time>2025-05-09T12:17:36Z</time>
      </trkpt>
      <trkpt lat="36.919394982978702" lon="-4.680301006883383">
        <ele>357.75</ele>
        <time>2025-05-09T12:17:37Z</time>
      </trkpt>
      <trkpt lat="36.919463966041803" lon="-4.680346017703414">
        <ele>357.26999999999998</ele>
        <time>2025-05-09T12:17:38Z</time>
      </trkpt>
      <trkpt lat="36.919534038752317" lon="-4.68042497523129">
        <ele>357.26999999999998</ele>
        <time>2025-05-09T12:17:39Z</time>
      </trkpt>
      <trkpt lat="36.9196040276438" lon="-4.680506028234959">
        <ele>356.79000000000002</ele>
        <time>2025-05-09T12:17:40Z</time>
      </trkpt>
      <trkpt lat="36.919661024585366" lon="-4.680611975491047">
        <ele>356.79000000000002</ele>
        <time>2025-05-09T12:17:41Z</time>
      </trkpt>
      <trkpt lat="36.919719027355313" lon="-4.680718006566167">
        <ele>356.79000000000002</ele>
        <time>2025-05-09T12:17:42Z</time>
      </trkpt>
      <trkpt lat="36.919895969331264" lon="-4.681001985445619">
        <ele>356.31</ele>
        <time>2025-05-09T12:17:45Z</time>
      </trkpt>
      <trkpt lat="36.919967969879508" lon="-4.681061999872327">
        <ele>355.82999999999998</ele>
        <time>2025-05-09T12:17:46Z</time>
      </trkpt>
      <trkpt lat="36.920046005398035" lon="-4.68106803484261">
        <ele>355.82999999999998</ele>
        <time>2025-05-09T12:17:47Z</time>
      </trkpt>
      <trkpt lat="36.920137032866478" lon="-4.681054037064314">
        <ele>355.82999999999998</ele>
        <time>2025-05-09T12:17:48Z</time>
      </trkpt>
      <trkpt lat="36.920235017314553" lon="-4.681039033457637">
        <ele>355.33999999999997</ele>
        <time>2025-05-09T12:17:49Z</time>
      </trkpt>
      <trkpt lat="36.920333001762629" lon="-4.681011037901044">
        <ele>354.38</ele>
        <time>2025-05-09T12:17:50Z</time>
      </trkpt>
      <trkpt lat="36.921423990279436" lon="-4.680700991302729">
        <ele>347.17000000000002</ele>
        <time>2025-05-09T12:18:00Z</time>
      </trkpt>
      <trkpt lat="36.921534966677427" lon="-4.680708032101393">
        <ele>346.20999999999998</ele>
        <time>2025-05-09T12:18:01Z</time>
      </trkpt>
      <trkpt lat="36.921638986095786" lon="-4.680730998516083">
        <ele>345.25</ele>
        <time>2025-05-09T12:18:02Z</time>
      </trkpt>
      <trkpt lat="36.921738982200623" lon="-4.680773997679353">
        <ele>344.29000000000002</ele>
        <time>2025-05-09T12:18:03Z</time>
      </trkpt>
      <trkpt lat="36.921838978305459" lon="-4.680816996842623">
        <ele>343.32999999999998</ele>
        <time>2025-05-09T12:18:04Z</time>
      </trkpt>
      <trkpt lat="36.922994004562497" lon="-4.681155038997531">
        <ele>332.75</ele>
        <time>2025-05-09T12:18:15Z</time>
      </trkpt>
      <trkpt lat="36.924174008890986" lon="-4.681207006797195">
        <ele>323.62</ele>
        <time>2025-05-09T12:18:25Z</time>
      </trkpt>
      <trkpt lat="36.925681997090578" lon="-4.681012965738773">
        <ele>314.97000000000003</ele>
        <time>2025-05-09T12:18:39Z</time>
      </trkpt>
      <trkpt lat="36.926365038380027" lon="-4.680868964642286">
        <ele>315.44999999999999</ele>
        <time>2025-05-09T12:18:46Z</time>
      </trkpt>
      <trkpt lat="36.926457993686199" lon="-4.680827977135778">
        <ele>315.93000000000001</ele>
        <time>2025-05-09T12:18:47Z</time>
      </trkpt>
      <trkpt lat="36.926549021154642" lon="-4.680786989629269">
        <ele>315.93000000000001</ele>
        <time>2025-05-09T12:18:48Z</time>
      </trkpt>
      <trkpt lat="36.92663200199604" lon="-4.680718006566167">
        <ele>315.93000000000001</ele>
        <time>2025-05-09T12:18:49Z</time>
      </trkpt>
      <trkpt lat="36.926706014201045" lon="-4.680642988532782">
        <ele>315.93000000000001</ele>
        <time>2025-05-09T12:18:50Z</time>
      </trkpt>
      <trkpt lat="36.926768962293863" lon="-4.680552966892719">
        <ele>315.44999999999999</ele>
        <time>2025-05-09T12:18:51Z</time>
      </trkpt>
      <trkpt lat="36.9268240313977" lon="-4.680464034900069">
        <ele>315.44999999999999</ele>
        <time>2025-05-09T12:18:52Z</time>
      </trkpt>
      <trkpt lat="36.926856972277164" lon="-4.680352974683046">
        <ele>315.44999999999999</ele>
        <time>2025-05-09T12:18:53Z</time>
      </trkpt>
      <trkpt lat="36.926885973662138" lon="-4.680241998285055">
        <ele>315.93000000000001</ele>
        <time>2025-05-09T12:18:54Z</time>
      </trkpt>
      <trkpt lat="36.926914975047112" lon="-4.680133033543825">
        <ele>315.93000000000001</ele>
        <time>2025-05-09T12:18:55Z</time>
      </trkpt>
      <trkpt lat="36.926942970603704" lon="-4.680027002468705">
        <ele>316.41000000000003</ele>
        <time>2025-05-09T12:18:56Z</time>
      </trkpt>
      <trkpt lat="36.926972977817059" lon="-4.679916026070714">
        <ele>316.41000000000003</ele>
        <time>2025-05-09T12:18:57Z</time>
      </trkpt>
      <trkpt lat="36.927001979202032" lon="-4.679811000823975">
        <ele>316.88999999999999</ele>
        <time>2025-05-09T12:18:58Z</time>
      </trkpt>
      <trkpt lat="36.927057970315218" lon="-4.679737994447351">
        <ele>316.88999999999999</ele>
        <time>2025-05-09T12:18:59Z</time>
      </trkpt>
      <trkpt lat="36.927115973085165" lon="-4.679664988070726">
        <ele>317.37</ele>
        <time>2025-05-09T12:19:00Z</time>
      </trkpt>
      <trkpt lat="36.927181016653776" lon="-4.679617965593934">
        <ele>316.88999999999999</ele>
        <time>2025-05-09T12:19:01Z</time>
      </trkpt>
      <trkpt lat="36.927257962524891" lon="-4.679617965593934">
        <ele>316.88999999999999</ele>
        <time>2025-05-09T12:19:02Z</time>
      </trkpt>
      <trkpt lat="36.927331974729896" lon="-4.679655013605952">
        <ele>316.41000000000003</ele>
        <time>2025-05-09T12:19:03Z</time>
      </trkpt>
      <trkpt lat="36.927430965006351" lon="-4.679725002497435">
        <ele>316.41000000000003</ele>
        <time>2025-05-09T12:19:04Z</time>
      </trkpt>
      <trkpt lat="36.927475975826383" lon="-4.679778981953859">
        <ele>316.41000000000003</ele>
        <time>2025-05-09T12:19:05Z</time>
      </trkpt>
      <trkpt lat="36.927541019394994" lon="-4.679857017472386">
        <ele>315.93000000000001</ele>
        <time>2025-05-09T12:19:06Z</time>
      </trkpt>
      <trkpt lat="36.927675968036056" lon="-4.680019039660692">
        <ele>315.44999999999999</ele>
        <time>2025-05-09T12:19:08Z</time>
      </trkpt>
      <trkpt lat="36.927744029089808" lon="-4.68010101467371">
        <ele>315.44999999999999</ele>
        <time>2025-05-09T12:19:09Z</time>
      </trkpt>
      <trkpt lat="36.927829021587968" lon="-4.680136973038316">
        <ele>315.44999999999999</ele>
        <time>2025-05-09T12:19:10Z</time>
      </trkpt>
      <trkpt lat="36.92792097106576" lon="-4.680167986080051">
        <ele>315.44999999999999</ele>
        <time>2025-05-09T12:19:11Z</time>
      </trkpt>
      <trkpt lat="36.928014010190964" lon="-4.680197993293405">
        <ele>314.97000000000003</ele>
        <time>2025-05-09T12:19:12Z</time>
      </trkpt>
      <trkpt lat="36.928111994639039" lon="-4.680218026041985">
        <ele>314.97000000000003</ele>
        <time>2025-05-09T12:19:13Z</time>
      </trkpt>
      <trkpt lat="36.928721023723483" lon="-4.680198999121785">
        <ele>314.00999999999999</ele>
        <time>2025-05-09T12:19:20Z</time>
      </trkpt>
      <trkpt lat="36.928793024271727" lon="-4.680179972201586">
        <ele>314.00999999999999</ele>
        <time>2025-05-09T12:19:21Z</time>
      </trkpt>
      <trkpt lat="36.928852032870054" lon="-4.680147031322122">
        <ele>314.00999999999999</ele>
        <time>2025-05-09T12:19:22Z</time>
      </trkpt>
      <trkpt lat="36.92890701815486" lon="-4.680117024108768">
        <ele>314.00999999999999</ele>
        <time>2025-05-09T12:19:23Z</time>
      </trkpt>
      <trkpt lat="36.928966026753187" lon="-4.680074024945498">
        <ele>314.00999999999999</ele>
        <time>2025-05-09T12:19:24Z</time>
      </trkpt>
      <trkpt lat="36.929006008431315" lon="-4.68001501634717">
        <ele>314.00999999999999</ele>
        <time>2025-05-09T12:19:25Z</time>
      </trkpt>
      <trkpt lat="36.929048001766205" lon="-4.679955001920462">
        <ele>314.00999999999999</ele>
        <time>2025-05-09T12:19:26Z</time>
      </trkpt>
      <trkpt lat="36.929088989272714" lon="-4.679893981665373">
        <ele>314.00999999999999</ele>
        <time>2025-05-09T12:19:27Z</time>
      </trkpt>
      <trkpt lat="36.929132994264364" lon="-4.679831033572555">
        <ele>314.00999999999999</ele>
        <time>2025-05-09T12:19:28Z</time>
      </trkpt>
      <trkpt lat="36.929176999256015" lon="-4.679765990003943">
        <ele>314.49000000000001</ele>
        <time>2025-05-09T12:19:29Z</time>
      </trkpt>
      <trkpt lat="36.929238019511104" lon="-4.679713016375899">
        <ele>314.49000000000001</ele>
        <time>2025-05-09T12:19:30Z</time>
      </trkpt>
      <trkpt lat="36.929304990917444" lon="-4.679664988070726">
        <ele>314.49000000000001</ele>
        <time>2025-05-09T12:19:31Z</time>
      </trkpt>
      <trkpt lat="36.929376991465688" lon="-4.67962802387774">
        <ele>314.97000000000003</ele>
        <time>2025-05-09T12:19:32Z</time>
      </trkpt>
      <trkpt lat="36.929452009499073" lon="-4.679603967815638">
        <ele>315.44999999999999</ele>
        <time>2025-05-09T12:19:33Z</time>
      </trkpt>
      <trkpt lat="36.930230017751455" lon="-4.679482011124492">
        <ele>317.37</ele>
        <time>2025-05-09T12:19:43Z</time>
      </trkpt>
      <trkpt lat="36.930371001362801" lon="-4.679468013346195">
        <ele>317.85000000000002</ele>
        <time>2025-05-09T12:19:45Z</time>
      </trkpt>
      <trkpt lat="36.930763022974133" lon="-4.679357958957553">
        <ele>317.85000000000002</ele>
        <time>2025-05-09T12:19:52Z</time>
      </trkpt>
      <trkpt lat="36.930839968845248" lon="-4.679332980886102">
        <ele>317.85000000000002</ele>
        <time>2025-05-09T12:19:54Z</time>
      </trkpt>
      <trkpt lat="36.930890008807182" lon="-4.679315965622664">
        <ele>317.85000000000002</ele>
        <time>2025-05-09T12:19:55Z</time>
      </trkpt>
      <trkpt lat="36.930937031283975" lon="-4.679300962015986">
        <ele>318.32999999999998</ele>
        <time>2025-05-09T12:19:56Z</time>
      </trkpt>
      <trkpt lat="36.931039039045572" lon="-4.679296016693115">
        <ele>318.81</ele>
        <time>2025-05-09T12:19:58Z</time>
      </trkpt>
      <trkpt lat="36.931099975481629" lon="-4.679296016693115">
        <ele>318.81</ele>
        <time>2025-05-09T12:19:59Z</time>
      </trkpt>
      <trkpt lat="36.931673968210816" lon="-4.679351001977921">
        <ele>320.74000000000001</ele>
        <time>2025-05-09T12:20:08Z</time>
      </trkpt>
      <trkpt lat="36.931728031486273" lon="-4.679395006969571">
        <ele>321.22000000000003</ele>
        <time>2025-05-09T12:20:09Z</time>
      </trkpt>
      <trkpt lat="36.931777987629175" lon="-4.679445968940854">
        <ele>321.69999999999999</ele>
        <time>2025-05-09T12:20:10Z</time>
      </trkpt>
      <trkpt lat="36.931817969307303" lon="-4.679515035822988">
        <ele>321.69999999999999</ele>
        <time>2025-05-09T12:20:11Z</time>
      </trkpt>
      <trkpt lat="36.931857028976083" lon="-4.679581001400948">
        <ele>322.18000000000001</ele>
        <time>2025-05-09T12:20:12Z</time>
      </trkpt>
      <trkpt lat="36.93221895955503" lon="-4.680149964988232">
        <ele>323.13999999999999</ele>
        <time>2025-05-09T12:20:21Z</time>
      </trkpt>
      <trkpt lat="36.932274028658867" lon="-4.680194975808263">
        <ele>323.62</ele>
        <time>2025-05-09T12:20:22Z</time>
      </trkpt>
      <trkpt lat="36.932336976751685" lon="-4.680223977193236">
        <ele>323.62</ele>
        <time>2025-05-09T12:20:23Z</time>
      </trkpt>
      <trkpt lat="36.932407971471548" lon="-4.680234035477042">
        <ele>323.62</ele>
        <time>2025-05-09T12:20:24Z</time>
      </trkpt>
      <trkpt lat="36.932478966191411" lon="-4.680236969143152">
        <ele>323.62</ele>
        <time>2025-05-09T12:20:25Z</time>
      </trkpt>
      <trkpt lat="36.932551972568035" lon="-4.680228000506759">
        <ele>324.10000000000002</ele>
        <time>2025-05-09T12:20:26Z</time>
      </trkpt>
      <trkpt lat="36.932621961459517" lon="-4.680219031870365">
        <ele>324.57999999999998</ele>
        <time>2025-05-09T12:20:27Z</time>
      </trkpt>
      <trkpt lat="36.932683987542987" lon="-4.680211991071701">
        <ele>325.06</ele>
        <time>2025-05-09T12:20:28Z</time>
      </trkpt>
      <trkpt lat="36.933583030477166" lon="-4.680110989138484">
        <ele>334.19999999999999</ele>
        <time>2025-05-09T12:20:40Z</time>
      </trkpt>
      <trkpt lat="36.934160962700844" lon="-4.680083999410272">
        <ele>339.48000000000002</ele>
        <time>2025-05-09T12:20:48Z</time>
      </trkpt>
      <trkpt lat="36.934231035411358" lon="-4.680090034380555">
        <ele>339.95999999999998</ele>
        <time>2025-05-09T12:20:49Z</time>
      </trkpt>
      <trkpt lat="36.934351986274123" lon="-4.680168991908431">
        <ele>340.92000000000002</ele>
        <time>2025-05-09T12:20:51Z</time>
      </trkpt>
      <trkpt lat="36.934406971558928" lon="-4.680206039920449">
        <ele>341.41000000000003</ele>
        <time>2025-05-09T12:20:52Z</time>
      </trkpt>
      <trkpt lat="36.934640994295478" lon="-4.680347023531795">
        <ele>343.32999999999998</ele>
        <time>2025-05-09T12:20:55Z</time>
      </trkpt>
      <trkpt lat="36.934640994295478" lon="-4.680347023531795">
        <ele>343.81</ele>
        <time>2025-05-09T12:20:56Z</time>
      </trkpt>
      <trkpt lat="36.934640994295478" lon="-4.680347023531795">
        <ele>344.76999999999998</ele>
        <time>2025-05-09T12:20:58Z</time>
      </trkpt>
      <trkpt lat="36.934640994295478" lon="-4.680347023531795">
        <ele>345.25</ele>
        <time>2025-05-09T12:20:59Z</time>
      </trkpt>
      <trkpt lat="36.934640994295478" lon="-4.680347023531795">
        <ele>345.73000000000002</ele>
        <time>2025-05-09T12:21:00Z</time>
      </trkpt>
      <trkpt lat="36.934767980128527" lon="-4.680390022695065">
        <ele>347.17000000000002</ele>
        <time>2025-05-09T12:21:06Z</time>
      </trkpt>
      <trkpt lat="36.934769991785288" lon="-4.680390022695065">
        <ele>347.17000000000002</ele>
        <time>2025-05-09T12:21:07Z</time>
      </trkpt>
      <trkpt lat="36.934792036190629" lon="-4.680413994938135">
        <ele>346.69</ele>
        <time>2025-05-09T12:21:08Z</time>
      </trkpt>
      <trkpt lat="36.934809973463416" lon="-4.680433021858335">
        <ele>346.69</ele>
        <time>2025-05-09T12:21:09Z</time>
      </trkpt>
      <trkpt lat="36.934825982898474" lon="-4.680450959131122">
        <ele>346.69</ele>
        <time>2025-05-09T12:21:10Z</time>
      </trkpt>
      <trkpt lat="36.934905024245381" lon="-4.680534023791552">
        <ele>346.69</ele>
        <time>2025-05-09T12:21:14Z</time>
      </trkpt>
      <trkpt lat="36.934918016195297" lon="-4.680548021569848">
        <ele>347.17000000000002</ele>
        <time>2025-05-09T12:21:15Z</time>
      </trkpt>
      <trkpt lat="36.934918016195297" lon="-4.680548021569848">
        <ele>348.13</ele>
        <time>2025-05-09T12:21:28Z</time>
      </trkpt>
      <trkpt lat="36.93490200676024" lon="-4.68042204156518">
        <ele>378.89999999999998</ele>
        <time>2025-05-09T12:29:11Z</time>
      </trkpt>
      <trkpt lat="36.934906030073762" lon="-4.68044601380825">
        <ele>379.86000000000001</ele>
        <time>2025-05-09T12:29:35Z</time>
      </trkpt>
      <trkpt lat="36.934870993718505" lon="-4.680497981607914">
        <ele>379.86000000000001</ele>
        <time>2025-05-09T12:29:48Z</time>
      </trkpt>
      <trkpt lat="36.934898989275098" lon="-4.680571993812919">
        <ele>378.42000000000002</ele>
        <time>2025-05-09T12:29:51Z</time>
      </trkpt>
      <trkpt lat="36.934905024245381" lon="-4.680534023791552">
        <ele>376.97000000000003</ele>
        <time>2025-05-09T12:29:53Z</time>
      </trkpt>
      <trkpt lat="36.93488197401166" lon="-4.680509967729449">
        <ele>376.00999999999999</ele>
        <time>2025-05-09T12:29:54Z</time>
      </trkpt>
      <trkpt lat="36.934726992622018" lon="-4.680754970759153">
        <ele>375.52999999999997</ele>
        <time>2025-05-09T12:29:55Z</time>
      </trkpt>
      <trkpt lat="36.934726992622018" lon="-4.680754970759153">
        <ele>375.05000000000001</ele>
        <time>2025-05-09T12:29:56Z</time>
      </trkpt>
      <trkpt lat="36.934726992622018" lon="-4.680754970759153">
        <ele>375.05000000000001</ele>
        <time>2025-05-09T12:29:57Z</time>
      </trkpt>
      <trkpt lat="36.934633031487465" lon="-4.680568976327777">
        <ele>374.08999999999997</ele>
        <time>2025-05-09T12:29:59Z</time>
      </trkpt>
      <trkpt lat="36.934604030102491" lon="-4.680509967729449">
        <ele>373.61000000000001</ele>
        <time>2025-05-09T12:30:00Z</time>
      </trkpt>
      <trkpt lat="36.934568993747234" lon="-4.680439978837967">
        <ele>373.13</ele>
        <time>2025-05-09T12:30:01Z</time>
      </trkpt>
      <trkpt lat="36.934333965182304" lon="-4.680157005786896">
        <ele>369.75999999999999</ele>
        <time>2025-05-09T12:30:05Z</time>
      </trkpt>
      <trkpt lat="36.934260036796331" lon="-4.680107971653342">
        <ele>368.80000000000001</ele>
        <time>2025-05-09T12:30:06Z</time>
      </trkpt>
      <trkpt lat="36.934165991842747" lon="-4.680085005238652">
        <ele>367.83999999999997</ele>
        <time>2025-05-09T12:30:07Z</time>
      </trkpt>
      <trkpt lat="36.934070019051433" lon="-4.680077964439988">
        <ele>367.36000000000001</ele>
        <time>2025-05-09T12:30:08Z</time>
      </trkpt>
      <trkpt lat="36.933965999633074" lon="-4.680070001631975">
        <ele>366.39999999999998</ele>
        <time>2025-05-09T12:30:09Z</time>
      </trkpt>
      <trkpt lat="36.933743041008711" lon="-4.680091962218285">
        <ele>364.48000000000002</ele>
        <time>2025-05-09T12:30:11Z</time>
      </trkpt>
      <trkpt lat="36.933383038267493" lon="-4.680133033543825">
        <ele>362.06999999999999</ele>
        <time>2025-05-09T12:30:14Z</time>
      </trkpt>
      <trkpt lat="36.933265021070838" lon="-4.680146025493741">
        <ele>361.11000000000001</ele>
        <time>2025-05-09T12:30:15Z</time>
      </trkpt>
      <trkpt lat="36.932929996401072" lon="-4.680183995515108">
        <ele>358.70999999999998</ele>
        <time>2025-05-09T12:30:18Z</time>
      </trkpt>
      <trkpt lat="36.932827988639474" lon="-4.680195981636643">
        <ele>357.75</ele>
        <time>2025-05-09T12:30:19Z</time>
      </trkpt>
      <trkpt lat="36.932417023926973" lon="-4.680235041305423">
        <ele>352.45999999999998</ele>
        <time>2025-05-09T12:30:23Z</time>
      </trkpt>
      <trkpt lat="36.932315016165376" lon="-4.680220959708095">
        <ele>351.5</ele>
        <time>2025-05-09T12:30:24Z</time>
      </trkpt>
      <trkpt lat="36.932236980646849" lon="-4.680164968594909">
        <ele>350.54000000000002</ele>
        <time>2025-05-09T12:30:25Z</time>
      </trkpt>
      <trkpt lat="36.932161962613463" lon="-4.680094979703426">
        <ele>349.57999999999998</ele>
        <time>2025-05-09T12:30:26Z</time>
      </trkpt>
      <trkpt lat="36.932093985378742" lon="-4.679986014962196">
        <ele>349.10000000000002</ele>
        <time>2025-05-09T12:30:27Z</time>
      </trkpt>
      <trkpt lat="36.932026008144021" lon="-4.679869003593922">
        <ele>348.13</ele>
        <time>2025-05-09T12:30:28Z</time>
      </trkpt>
      <trkpt lat="36.931957025080919" lon="-4.679750986397266">
        <ele>347.64999999999998</ele>
        <time>2025-05-09T12:30:29Z</time>
      </trkpt>
      <trkpt lat="36.931770024821162" lon="-4.679431971162558">
        <ele>346.20999999999998</ele>
        <time>2025-05-09T12:30:32Z</time>
      </trkpt>
      <trkpt lat="36.931686038151383" lon="-4.679360976442695">
        <ele>346.20999999999998</ele>
        <time>2025-05-09T12:30:33Z</time>
      </trkpt>
      <trkpt lat="36.931592999026179" lon="-4.679333986714482">
        <ele>345.73000000000002</ele>
        <time>2025-05-09T12:30:34Z</time>
      </trkpt>
      <trkpt lat="36.9315090123564" lon="-4.67932702973485">
        <ele>345.25</ele>
        <time>2025-05-09T12:30:35Z</time>
      </trkpt>
      <trkpt lat="36.931419996544719" lon="-4.679318983107805">
        <ele>345.25</ele>
        <time>2025-05-09T12:30:36Z</time>
      </trkpt>
      <trkpt lat="36.931330980733037" lon="-4.679300040006638">
        <ele>344.76999999999998</ele>
        <time>2025-05-09T12:30:37Z</time>
      </trkpt>
      <trkpt lat="36.931044990196824" lon="-4.679296016693115">
        <ele>343.32999999999998</ele>
        <time>2025-05-09T12:30:40Z</time>
      </trkpt>
      <trkpt lat="36.930950023233891" lon="-4.679296016693115">
        <ele>342.85000000000002</ele>
        <time>2025-05-09T12:30:41Z</time>
      </trkpt>
      <trkpt lat="36.930838041007519" lon="-4.679332980886102">
        <ele>342.37</ele>
        <time>2025-05-09T12:30:42Z</time>
      </trkpt>
      <trkpt lat="36.930732009932399" lon="-4.679369023069739">
        <ele>341.41000000000003</ele>
        <time>2025-05-09T12:30:43Z</time>
      </trkpt>
      <trkpt lat="36.930624973028898" lon="-4.679403975605965">
        <ele>340.44</ele>
        <time>2025-05-09T12:30:44Z</time>
      </trkpt>
      <trkpt lat="36.930512990802526" lon="-4.67943599447608">
        <ele>339</ele>
        <time>2025-05-09T12:30:45Z</time>
      </trkpt>
      <trkpt lat="36.930396985262632" lon="-4.679461978375912">
        <ele>338.04000000000002</ele>
        <time>2025-05-09T12:30:46Z</time>
      </trkpt>
      <trkpt lat="36.930274022743106" lon="-4.679476981982589">
        <ele>337.07999999999998</ele>
        <time>2025-05-09T12:30:47Z</time>
      </trkpt>
      <trkpt lat="36.930141001939774" lon="-4.679488968104124">
        <ele>336.12</ele>
        <time>2025-05-09T12:30:48Z</time>
      </trkpt>
      <trkpt lat="36.929859034717083" lon="-4.679488968104124">
        <ele>334.19999999999999</ele>
        <time>2025-05-09T12:30:50Z</time>
      </trkpt>
      <trkpt lat="36.929717967286706" lon="-4.679518975317478">
        <ele>334.19999999999999</ele>
        <time>2025-05-09T12:30:51Z</time>
      </trkpt>
      <trkpt lat="36.929582012817264" lon="-4.679562980309129">
        <ele>333.70999999999998</ele>
        <time>2025-05-09T12:30:52Z</time>
      </trkpt>
      <trkpt lat="36.929210023954511" lon="-4.679732965305448">
        <ele>332.75</ele>
        <time>2025-05-09T12:30:55Z</time>
      </trkpt>
      <trkpt lat="36.929124025627971" lon="-4.679844025522471">
        <ele>332.75</ele>
        <time>2025-05-09T12:30:56Z</time>
      </trkpt>
      <trkpt lat="36.929041966795921" lon="-4.679962964728475">
        <ele>332.26999999999998</ele>
        <time>2025-05-09T12:30:57Z</time>
      </trkpt>
      <trkpt lat="36.928853038698435" lon="-4.680146025493741">
        <ele>331.79000000000002</ele>
        <time>2025-05-09T12:30:59Z</time>
      </trkpt>
      <trkpt lat="36.928761005401611" lon="-4.680196987465024">
        <ele>331.79000000000002</ele>
        <time>2025-05-09T12:31:00Z</time>
      </trkpt>
      <trkpt lat="36.928660003468394" lon="-4.680200004950166">
        <ele>330.82999999999998</ele>
        <time>2025-05-09T12:31:01Z</time>
      </trkpt>
      <trkpt lat="36.928551960736513" lon="-4.680204028263688">
        <ele>329.87</ele>
        <time>2025-05-09T12:31:02Z</time>
      </trkpt>
      <trkpt lat="36.928426986560225" lon="-4.680207967758179">
        <ele>329.38999999999999</ele>
        <time>2025-05-09T12:31:03Z</time>
      </trkpt>
      <trkpt lat="36.92789901047945" lon="-4.680160023272038">
        <ele>327.94999999999999</ele>
        <time>2025-05-09T12:31:07Z</time>
      </trkpt>
      <trkpt lat="36.927774958312511" lon="-4.680119035765529">
        <ele>327.94999999999999</ele>
        <time>2025-05-09T12:31:08Z</time>
      </trkpt>
      <trkpt lat="36.927686026319861" lon="-4.680031025782228">
        <ele>327.94999999999999</ele>
        <time>2025-05-09T12:31:09Z</time>
      </trkpt>
      <trkpt lat="36.927588963881135" lon="-4.679915020242333">
        <ele>327.47000000000003</ele>
        <time>2025-05-09T12:31:10Z</time>
      </trkpt>
      <trkpt lat="36.92749097943306" lon="-4.679798008874059">
        <ele>326.99000000000001</ele>
        <time>2025-05-09T12:31:11Z</time>
      </trkpt>
      <trkpt lat="36.927385032176971" lon="-4.679692983627319">
        <ele>326.5</ele>
        <time>2025-05-09T12:31:12Z</time>
      </trkpt>
      <trkpt lat="36.927285036072135" lon="-4.679620983079076">
        <ele>326.5</ele>
        <time>2025-05-09T12:31:13Z</time>
      </trkpt>
      <trkpt lat="36.927183028310537" lon="-4.679617965593934">
        <ele>326.5</ele>
        <time>2025-05-09T12:31:14Z</time>
      </trkpt>
      <trkpt lat="36.927114967256784" lon="-4.679665993899107">
        <ele>326.01999999999998</ele>
        <time>2025-05-09T12:31:15Z</time>
      </trkpt>
      <trkpt lat="36.927054030820727" lon="-4.679744029417634">
        <ele>325.54000000000002</ele>
        <time>2025-05-09T12:31:16Z</time>
      </trkpt>
      <trkpt lat="36.926993010565639" lon="-4.67984301969409">
        <ele>325.54000000000002</ele>
        <time>2025-05-09T12:31:17Z</time>
      </trkpt>
      <trkpt lat="36.926957974210382" lon="-4.679970005527139">
        <ele>325.54000000000002</ele>
        <time>2025-05-09T12:31:18Z</time>
      </trkpt>
      <trkpt lat="36.926923021674156" lon="-4.680102020502091">
        <ele>325.54000000000002</ele>
        <time>2025-05-09T12:31:19Z</time>
      </trkpt>
      <trkpt lat="36.926884967833757" lon="-4.680246021598578">
        <ele>325.54000000000002</ele>
        <time>2025-05-09T12:31:20Z</time>
      </trkpt>
      <trkpt lat="36.926844986155629" lon="-4.680396979674697">
        <ele>325.54000000000002</ele>
        <time>2025-05-09T12:31:21Z</time>
      </trkpt>
      <trkpt lat="36.92678002640605" lon="-4.680536035448313">
        <ele>325.54000000000002</ele>
        <time>2025-05-09T12:31:22Z</time>
      </trkpt>
      <trkpt lat="36.926691010594368" lon="-4.680657992139459">
        <ele>325.54000000000002</ele>
        <time>2025-05-09T12:31:23Z</time>
      </trkpt>
      <trkpt lat="36.926585985347629" lon="-4.680763017386198">
        <ele>325.54000000000002</ele>
        <time>2025-05-09T12:31:24Z</time>
      </trkpt>
      <trkpt lat="36.926456987857819" lon="-4.680827977135778">
        <ele>325.54000000000002</ele>
        <time>2025-05-09T12:31:25Z</time>
      </trkpt>
      <trkpt lat="36.926322039216757" lon="-4.680887991562486">
        <ele>325.54000000000002</ele>
        <time>2025-05-09T12:31:26Z</time>
      </trkpt>
      <trkpt lat="36.926184995099902" lon="-4.680948005989194">
        <ele>325.54000000000002</ele>
        <time>2025-05-09T12:31:27Z</time>
      </trkpt>
      <trkpt lat="36.926038982346654" lon="-4.680967032909393">
        <ele>325.54000000000002</ele>
        <time>2025-05-09T12:31:28Z</time>
      </trkpt>
      <trkpt lat="36.925891963765025" lon="-4.680985976010561">
        <ele>325.54000000000002</ele>
        <time>2025-05-09T12:31:29Z</time>
      </trkpt>
      <trkpt lat="36.923874020576477" lon="-4.681244976818562">
        <ele>329.38999999999999</ele>
        <time>2025-05-09T12:31:42Z</time>
      </trkpt>
      <trkpt lat="36.923432964831591" lon="-4.681212035939097">
        <ele>332.26999999999998</ele>
        <time>2025-05-09T12:31:45Z</time>
      </trkpt>
      <trkpt lat="36.922062020748854" lon="-4.680912969633937">
        <ele>344.76999999999998</ele>
        <time>2025-05-09T12:31:54Z</time>
      </trkpt>
      <trkpt lat="36.921614008024335" lon="-4.680721024051309">
        <ele>349.10000000000002</ele>
        <time>2025-05-09T12:31:57Z</time>
      </trkpt>
      <trkpt lat="36.921461960300803" lon="-4.68070300295949">
        <ele>350.06</ele>
        <time>2025-05-09T12:31:58Z</time>
      </trkpt>
      <trkpt lat="36.921312008053064" lon="-4.680694034323096">
        <ele>351.5</ele>
        <time>2025-05-09T12:31:59Z</time>
      </trkpt>
      <trkpt lat="36.921162977814674" lon="-4.680727981030941">
        <ele>352.94</ele>
        <time>2025-05-09T12:32:00Z</time>
      </trkpt>
      <trkpt lat="36.921016965061426" lon="-4.680778020992875">
        <ele>354.38</ele>
        <time>2025-05-09T12:32:01Z</time>
      </trkpt>
      <trkpt lat="36.920867012813687" lon="-4.680828982964158">
        <ele>355.82999999999998</ele>
        <time>2025-05-09T12:32:02Z</time>
      </trkpt>
      <trkpt lat="36.920040976256132" lon="-4.681069040670991">
        <ele>363.04000000000002</ele>
        <time>2025-05-09T12:32:08Z</time>
      </trkpt>
      <trkpt lat="36.919968975707889" lon="-4.681064011529088">
        <ele>364</ele>
        <time>2025-05-09T12:32:09Z</time>
      </trkpt>
      <trkpt lat="36.919890018180013" lon="-4.680997962132096">
        <ele>364.48000000000002</ele>
        <time>2025-05-09T12:32:10Z</time>
      </trkpt>
      <trkpt lat="36.919821035116911" lon="-4.680904000997543">
        <ele>364.95999999999998</ele>
        <time>2025-05-09T12:32:11Z</time>
      </trkpt>
      <trkpt lat="36.919749034568667" lon="-4.680771986022592">
        <ele>364.95999999999998</ele>
        <time>2025-05-09T12:32:12Z</time>
      </trkpt>
      <trkpt lat="36.919674016535282" lon="-4.680635025724769">
        <ele>364.95999999999998</ele>
        <time>2025-05-09T12:32:13Z</time>
      </trkpt>
      <trkpt lat="36.919515011832118" lon="-4.68040301464498">
        <ele>365.44</ele>
        <time>2025-05-09T12:32:15Z</time>
      </trkpt>
      <trkpt lat="36.91943597048521" lon="-4.680313998833299">
        <ele>365.44</ele>
        <time>2025-05-09T12:32:16Z</time>
      </trkpt>
      <trkpt lat="36.919335974380374" lon="-4.68029597774148">
        <ele>365.44</ele>
        <time>2025-05-09T12:32:17Z</time>
      </trkpt>
      <trkpt lat="36.919213011860847" lon="-4.680282985791564">
        <ele>365.44</ele>
        <time>2025-05-09T12:32:18Z</time>
      </trkpt>
      <trkpt lat="36.919119972735643" lon="-4.680313998833299">
        <ele>365.92000000000002</ele>
        <time>2025-05-09T12:32:19Z</time>
      </trkpt>
      <trkpt lat="36.918998016044497" lon="-4.680354986339808">
        <ele>366.39999999999998</ele>
        <time>2025-05-09T12:32:20Z</time>
      </trkpt>
      <trkpt lat="36.918866001069546" lon="-4.680398991331458">
        <ele>367.36000000000001</ele>
        <time>2025-05-09T12:32:21Z</time>
      </trkpt>
      <trkpt lat="36.918737003579736" lon="-4.680441990494728">
        <ele>367.83999999999997</ele>
        <time>2025-05-09T12:32:22Z</time>
      </trkpt>
      <trkpt lat="36.918614041060209" lon="-4.680454982444644">
        <ele>368.80000000000001</ele>
        <time>2025-05-09T12:32:23Z</time>
      </trkpt>
      <trkpt lat="36.918501975014806" lon="-4.68044500797987">
        <ele>369.75999999999999</ele>
        <time>2025-05-09T12:32:24Z</time>
      </trkpt>
      <trkpt lat="36.918398961424828" lon="-4.680399997159839">
        <ele>371.20999999999998</ele>
        <time>2025-05-09T12:32:25Z</time>
      </trkpt>
      <trkpt lat="36.918320003896952" lon="-4.680309975519776">
        <ele>372.17000000000002</ele>
        <time>2025-05-09T12:32:26Z</time>
      </trkpt>
      <trkpt lat="36.918243980035186" lon="-4.680203022435308">
        <ele>373.13</ele>
        <time>2025-05-09T12:32:27Z</time>
      </trkpt>
      <trkpt lat="36.918171979486942" lon="-4.680099003016949">
        <ele>374.08999999999997</ele>
        <time>2025-05-09T12:32:28Z</time>
      </trkpt>
      <trkpt lat="36.918102996423841" lon="-4.680000012740493">
        <ele>375.05000000000001</ele>
        <time>2025-05-09T12:32:29Z</time>
      </trkpt>
      <trkpt lat="36.918027978390455" lon="-4.679946033284068">
        <ele>376.00999999999999</ele>
        <time>2025-05-09T12:32:30Z</time>
      </trkpt>
      <trkpt lat="36.917947009205818" lon="-4.679918037727475">
        <ele>376.49000000000001</ele>
        <time>2025-05-09T12:32:31Z</time>
      </trkpt>
      <trkpt lat="36.917858999222517" lon="-4.679947039112449">
        <ele>377.44999999999999</ele>
        <time>2025-05-09T12:32:32Z</time>
      </trkpt>
      <trkpt lat="36.917773000895977" lon="-4.680005963891745">
        <ele>378.42000000000002</ele>
        <time>2025-05-09T12:32:33Z</time>
      </trkpt>
      <trkpt lat="36.917688008397818" lon="-4.680091962218285">
        <ele>379.86000000000001</ele>
        <time>2025-05-09T12:32:34Z</time>
      </trkpt>
      <trkpt lat="36.917497990652919" lon="-4.680254990234971">
        <ele>381.77999999999997</ele>
        <time>2025-05-09T12:32:36Z</time>
      </trkpt>
      <trkpt lat="36.917390031740069" lon="-4.680307963863015">
        <ele>382.74000000000001</ele>
        <time>2025-05-09T12:32:37Z</time>
      </trkpt>
      <trkpt lat="36.917276037856936" lon="-4.680324979126453">
        <ele>383.22000000000003</ele>
        <time>2025-05-09T12:32:38Z</time>
      </trkpt>
      <trkpt lat="36.916939001530409" lon="-4.680377030745149">
        <ele>386.11000000000001</ele>
        <time>2025-05-09T12:32:41Z</time>
      </trkpt>
      <trkpt lat="36.916833976283669" lon="-4.680415000766516">
        <ele>387.06999999999999</ele>
        <time>2025-05-09T12:32:42Z</time>
      </trkpt>
      <trkpt lat="36.916757030412555" lon="-4.680516002699733">
        <ele>388.50999999999999</ele>
        <time>2025-05-09T12:32:43Z</time>
      </trkpt>
      <trkpt lat="36.916148001328111" lon="-4.681371040642262">
        <ele>395.24000000000001</ele>
        <time>2025-05-09T12:32:50Z</time>
      </trkpt>
      <trkpt lat="36.916069965809584" lon="-4.681527027860284">
        <ele>394.75999999999999</ele>
        <time>2025-05-09T12:32:51Z</time>
      </trkpt>
      <trkpt lat="36.915988996624947" lon="-4.681687960401177">
        <ele>394.27999999999997</ele>
        <time>2025-05-09T12:32:52Z</time>
      </trkpt>
      <trkpt lat="36.915907021611929" lon="-4.681851994246244">
        <ele>393.80000000000001</ele>
        <time>2025-05-09T12:32:53Z</time>
      </trkpt>
      <trkpt lat="36.915826974436641" lon="-4.682012004777789">
        <ele>392.83999999999997</ele>
        <time>2025-05-09T12:32:54Z</time>
      </trkpt>
      <trkpt lat="36.915723038837314" lon="-4.682133961468935">
        <ele>391.87</ele>
        <time>2025-05-09T12:32:55Z</time>
      </trkpt>
      <trkpt lat="36.915620025247335" lon="-4.68225197866559">
        <ele>390.43000000000001</ele>
        <time>2025-05-09T12:32:56Z</time>
      </trkpt>
      <trkpt lat="36.91552103497088" lon="-4.682363960891962">
        <ele>389.94999999999999</ele>
        <time>2025-05-09T12:32:57Z</time>
      </trkpt>
      <trkpt lat="36.91502901725471" lon="-4.682965027168393">
        <ele>384.18000000000001</ele>
        <time>2025-05-09T12:33:03Z</time>
      </trkpt>
      <trkpt lat="36.914998004212976" lon="-4.683100981637836">
        <ele>383.22000000000003</ele>
        <time>2025-05-09T12:33:04Z</time>
      </trkpt>
      <trkpt lat="36.914993980899453" lon="-4.683202989399433">
        <ele>382.25999999999999</ele>
        <time>2025-05-09T12:33:05Z</time>
      </trkpt>
      <trkpt lat="36.915016025304794" lon="-4.683312037959695">
        <ele>381.30000000000001</ele>
        <time>2025-05-09T12:33:06Z</time>
      </trkpt>
      <trkpt lat="36.915037985891104" lon="-4.683418991044164">
        <ele>380.81999999999999</ele>
        <time>2025-05-09T12:33:07Z</time>
      </trkpt>
      <trkpt lat="36.915103029459715" lon="-4.683744041249156">
        <ele>377.94</ele>
        <time>2025-05-09T12:33:10Z</time>
      </trkpt>
      <trkpt lat="36.915106968954206" lon="-4.683842025697231">
        <ele>377.44999999999999</ele>
        <time>2025-05-09T12:33:11Z</time>
      </trkpt>
      <trkpt lat="36.915088025853038" lon="-4.68394503928721">
        <ele>376.49000000000001</ele>
        <time>2025-05-09T12:33:12Z</time>
      </trkpt>
      <trkpt lat="36.915067993104458" lon="-4.684042017906904">
        <ele>376.00999999999999</ele>
        <time>2025-05-09T12:33:13Z</time>
      </trkpt>
      <trkpt lat="36.914999010041356" lon="-4.6841199696064">
        <ele>375.52999999999997</ele>
        <time>2025-05-09T12:33:14Z</time>
      </trkpt>
      <trkpt lat="36.9149000197649" lon="-4.684231029823422">
        <ele>374.56999999999999</ele>
        <time>2025-05-09T12:33:15Z</time>
      </trkpt>
      <trkpt lat="36.914820978417993" lon="-4.684298001229763">
        <ele>373.61000000000001</ele>
        <time>2025-05-09T12:33:16Z</time>
      </trkpt>
      <trkpt lat="36.914026038721204" lon="-4.685032004490495">
        <ele>364.95999999999998</ele>
        <time>2025-05-09T12:33:25Z</time>
      </trkpt>
      <trkpt lat="36.913402006030083" lon="-4.685741029679775">
        <ele>359.67000000000002</ele>
        <time>2025-05-09T12:33:33Z</time>
      </trkpt>
      <trkpt lat="36.913336962461472" lon="-4.685773970559239">
        <ele>359.19</ele>
        <time>2025-05-09T12:33:34Z</time>
      </trkpt>
      <trkpt lat="36.913241995498538" lon="-4.685758966952562">
        <ele>358.23000000000002</ele>
        <time>2025-05-09T12:33:35Z</time>
      </trkpt>
      <trkpt lat="36.913141999393702" lon="-4.685743963345885">
        <ele>357.75</ele>
        <time>2025-05-09T12:33:36Z</time>
      </trkpt>
      <trkpt lat="36.913040997460485" lon="-4.685728959739208">
        <ele>356.79000000000002</ele>
        <time>2025-05-09T12:33:37Z</time>
      </trkpt>
      <trkpt lat="36.912067020311952" lon="-4.685583030804992">
        <ele>349.10000000000002</ele>
        <time>2025-05-09T12:33:44Z</time>
      </trkpt>
      <trkpt lat="36.910875029861927" lon="-4.68564597889781">
        <ele>337.56</ele>
        <time>2025-05-09T12:33:51Z</time>
      </trkpt>
      <trkpt lat="36.910743014886975" lon="-4.685684032738209">
        <ele>336.60000000000002</ele>
        <time>2025-05-09T12:33:52Z</time>
      </trkpt>
      <trkpt lat="36.910621980205178" lon="-4.685739018023014">
        <ele>335.63999999999999</ele>
        <time>2025-05-09T12:33:53Z</time>
      </trkpt>
      <trkpt lat="36.910549979656935" lon="-4.685820993036032">
        <ele>334.68000000000001</ele>
        <time>2025-05-09T12:33:54Z</time>
      </trkpt>
      <trkpt lat="36.910478984937072" lon="-4.685947978869081">
        <ele>333.23000000000002</ele>
        <time>2025-05-09T12:33:55Z</time>
      </trkpt>
      <trkpt lat="36.910461969673634" lon="-4.68603003770113">
        <ele>332.26999999999998</ele>
        <time>2025-05-09T12:33:56Z</time>
      </trkpt>
      <trkpt lat="36.910437997430563" lon="-4.686145959421992">
        <ele>331.31</ele>
        <time>2025-05-09T12:33:57Z</time>
      </trkpt>
      <trkpt lat="36.910413019359112" lon="-4.686263976618648">
        <ele>330.82999999999998</ele>
        <time>2025-05-09T12:33:58Z</time>
      </trkpt>
      <trkpt lat="36.910381000488997" lon="-4.686387022957206">
        <ele>329.87</ele>
        <time>2025-05-09T12:33:59Z</time>
      </trkpt>
      <trkpt lat="36.910317968577147" lon="-4.686481989920139">
        <ele>329.38999999999999</ele>
        <time>2025-05-09T12:34:00Z</time>
      </trkpt>
      <trkpt lat="36.910220989957452" lon="-4.686542004346848">
        <ele>328.43000000000001</ele>
        <time>2025-05-09T12:34:01Z</time>
      </trkpt>
      <trkpt lat="36.910114036872983" lon="-4.686606964096427">
        <ele>327.47000000000003</ele>
        <time>2025-05-09T12:34:02Z</time>
      </trkpt>
      <trkpt lat="36.909513976424932" lon="-4.687021030113101">
        <ele>322.66000000000003</ele>
        <time>2025-05-09T12:34:07Z</time>
      </trkpt>
      <trkpt lat="36.909472988918424" lon="-4.687155978754163">
        <ele>321.69999999999999</ele>
        <time>2025-05-09T12:34:08Z</time>
      </trkpt>
      <trkpt lat="36.90944398753345" lon="-4.687294028699398">
        <ele>320.74000000000001</ele>
        <time>2025-05-09T12:34:09Z</time>
      </trkpt>
      <trkpt lat="36.909428983926773" lon="-4.687451021745801">
        <ele>319.77999999999997</ele>
        <time>2025-05-09T12:34:10Z</time>
      </trkpt>
      <trkpt lat="36.909413980320096" lon="-4.687610026448965">
        <ele>318.32999999999998</ele>
        <time>2025-05-09T12:34:11Z</time>
      </trkpt>
      <trkpt lat="36.909348014742136" lon="-4.687876990064979">
        <ele>316.41000000000003</ele>
        <time>2025-05-09T12:34:13Z</time>
      </trkpt>
      <trkpt lat="36.909321025013924" lon="-4.68796500004828">
        <ele>315.44999999999999</ele>
        <time>2025-05-09T12:34:14Z</time>
      </trkpt>
      <trkpt lat="36.909232009202242" lon="-4.687998024746776">
        <ele>314.49000000000001</ele>
        <time>2025-05-09T12:34:15Z</time>
      </trkpt>
      <trkpt lat="36.909149028360844" lon="-4.68802903778851">
        <ele>314.00999999999999</ele>
        <time>2025-05-09T12:34:16Z</time>
      </trkpt>
      <trkpt lat="36.909061018377542" lon="-4.687984026968479">
        <ele>313.05000000000001</ele>
        <time>2025-05-09T12:34:17Z</time>
      </trkpt>
      <trkpt lat="36.90894803032279" lon="-4.687924012541771">
        <ele>312.08999999999997</ele>
        <time>2025-05-09T12:34:18Z</time>
      </trkpt>
      <trkpt lat="36.908558020368218" lon="-4.687759978696704">
        <ele>309.19999999999999</ele>
        <time>2025-05-09T12:34:21Z</time>
      </trkpt>
      <trkpt lat="36.908484008163214" lon="-4.68775000423193">
        <ele>308.24000000000001</ele>
        <time>2025-05-09T12:34:22Z</time>
      </trkpt>
      <trkpt lat="36.908389963209629" lon="-4.687828961759806">
        <ele>307.27999999999997</ele>
        <time>2025-05-09T12:34:23Z</time>
      </trkpt>
      <trkpt lat="36.908335983753204" lon="-4.687895011156797">
        <ele>306.31999999999999</ele>
        <time>2025-05-09T12:34:24Z</time>
      </trkpt>
      <trkpt lat="36.908287033438683" lon="-4.687994001433253">
        <ele>305.83999999999997</ele>
        <time>2025-05-09T12:34:25Z</time>
      </trkpt>
      <trkpt lat="36.908233975991607" lon="-4.688100032508373">
        <ele>304.88</ele>
        <time>2025-05-09T12:34:26Z</time>
      </trkpt>
      <trkpt lat="36.908184019848704" lon="-4.688199022784829">
        <ele>304.38999999999999</ele>
        <time>2025-05-09T12:34:27Z</time>
      </trkpt>
      <trkpt lat="36.908141020685434" lon="-4.68828703276813">
        <ele>303.43000000000001</ele>
        <time>2025-05-09T12:34:28Z</time>
      </trkpt>
      <trkpt lat="36.908058961853385" lon="-4.68828703276813">
        <ele>302.47000000000003</ele>
        <time>2025-05-09T12:34:29Z</time>
      </trkpt>
      <trkpt lat="36.90800397656858" lon="-4.688257025554776">
        <ele>301.99000000000001</ele>
        <time>2025-05-09T12:34:30Z</time>
      </trkpt>
      <trkpt lat="36.907946979627013" lon="-4.68820103444159">
        <ele>301.02999999999997</ele>
        <time>2025-05-09T12:34:31Z</time>
      </trkpt>
      <trkpt lat="36.907913032919168" lon="-4.688087040558457">
        <ele>299.58999999999997</ele>
        <time>2025-05-09T12:34:32Z</time>
      </trkpt>
      <trkpt lat="36.907883025705814" lon="-4.68798603862524">
        <ele>298.63</ele>
        <time>2025-05-09T12:34:33Z</time>
      </trkpt>
      <trkpt lat="36.907883025705814" lon="-4.687829967588186">
        <ele>297.67000000000002</ele>
        <time>2025-05-09T12:34:34Z</time>
      </trkpt>
      <trkpt lat="36.907883025705814" lon="-4.68768697232008">
        <ele>296.69999999999999</ele>
        <time>2025-05-09T12:34:35Z</time>
      </trkpt>
      <trkpt lat="36.907898029312491" lon="-4.687563003972173">
        <ele>296.69999999999999</ele>
        <time>2025-05-09T12:34:36Z</time>
      </trkpt>
      <trkpt lat="36.907948991283774" lon="-4.687436018139124">
        <ele>296.22000000000003</ele>
        <time>2025-05-09T12:34:37Z</time>
      </trkpt>
      <trkpt lat="36.907994002103806" lon="-4.687324035912752">
        <ele>295.74000000000001</ele>
        <time>2025-05-09T12:34:38Z</time>
      </trkpt>
      <trkpt lat="36.908002970740199" lon="-4.687209958210588">
        <ele>295.74000000000001</ele>
        <time>2025-05-09T12:34:39Z</time>
      </trkpt>
      <trkpt lat="36.907991990447044" lon="-4.687118008732796">
        <ele>295.25999999999999</ele>
        <time>2025-05-09T12:34:40Z</time>
      </trkpt>
      <trkpt lat="36.907947985455394" lon="-4.687053970992565">
        <ele>294.77999999999997</ele>
        <time>2025-05-09T12:34:41Z</time>
      </trkpt>
      <trkpt lat="36.90789601765573" lon="-4.68699898570776">
        <ele>294.30000000000001</ele>
        <time>2025-05-09T12:34:42Z</time>
      </trkpt>
      <trkpt lat="36.907815970480442" lon="-4.686990017071366">
        <ele>293.81999999999999</ele>
        <time>2025-05-09T12:34:43Z</time>
      </trkpt>
      <trkpt lat="36.907727960497141" lon="-4.686979958787561">
        <ele>293.33999999999997</ele>
        <time>2025-05-09T12:34:44Z</time>
      </trkpt>
      <trkpt lat="36.907642967998981" lon="-4.68701901845634">
        <ele>293.33999999999997</ele>
        <time>2025-05-09T12:34:45Z</time>
      </trkpt>
      <trkpt lat="36.907554036006331" lon="-4.687074003741145">
        <ele>293.81999999999999</ele>
        <time>2025-05-09T12:34:46Z</time>
      </trkpt>
      <trkpt lat="36.907458985224366" lon="-4.687131000682712">
        <ele>294.30000000000001</ele>
        <time>2025-05-09T12:34:47Z</time>
      </trkpt>
      <trkpt lat="36.90735999494791" lon="-4.6871920209378">
        <ele>294.30000000000001</ele>
        <time>2025-05-09T12:34:48Z</time>
      </trkpt>
      <trkpt lat="36.907258993014693" lon="-4.687253041192889">
        <ele>294.77999999999997</ele>
        <time>2025-05-09T12:34:49Z</time>
      </trkpt>
      <trkpt lat="36.90718799829483" lon="-4.687351025640965">
        <ele>294.77999999999997</ele>
        <time>2025-05-09T12:34:50Z</time>
      </trkpt>
      <trkpt lat="36.907142987474799" lon="-4.687458984553814">
        <ele>294.77999999999997</ele>
        <time>2025-05-09T12:34:51Z</time>
      </trkpt>
      <trkpt lat="36.907099988311529" lon="-4.687561998143792">
        <ele>294.77999999999997</ele>
        <time>2025-05-09T12:34:52Z</time>
      </trkpt>
      <trkpt lat="36.907056989148259" lon="-4.68766501173377">
        <ele>294.77999999999997</ele>
        <time>2025-05-09T12:34:53Z</time>
      </trkpt>
      <trkpt lat="36.907003009691834" lon="-4.6877930033952">
        <ele>294.77999999999997</ele>
        <time>2025-05-09T12:34:54Z</time>
      </trkpt>
      <trkpt lat="36.906923968344927" lon="-4.687839020043612">
        <ele>295.25999999999999</ele>
        <time>2025-05-09T12:34:55Z</time>
      </trkpt>
      <trkpt lat="36.906812991946936" lon="-4.68790297396481">
        <ele>295.25999999999999</ele>
        <time>2025-05-09T12:34:56Z</time>
      </trkpt>
      <trkpt lat="36.906701009720564" lon="-4.687968017533422">
        <ele>295.25999999999999</ele>
        <time>2025-05-09T12:34:57Z</time>
      </trkpt>
      <trkpt lat="36.906595984473825" lon="-4.68802903778851">
        <ele>295.74000000000001</ele>
        <time>2025-05-09T12:34:58Z</time>
      </trkpt>
      <trkpt lat="36.906481990590692" lon="-4.688042029738426">
        <ele>295.74000000000001</ele>
        <time>2025-05-09T12:34:59Z</time>
      </trkpt>
      <trkpt lat="36.906367996707559" lon="-4.688044963404536">
        <ele>295.74000000000001</ele>
        <time>2025-05-09T12:35:00Z</time>
      </trkpt>
      <trkpt lat="36.90613598562777" lon="-4.688010010868311">
        <ele>295.74000000000001</ele>
        <time>2025-05-09T12:35:02Z</time>
      </trkpt>
      <trkpt lat="36.906031966209412" lon="-4.688040018081665">
        <ele>295.74000000000001</ele>
        <time>2025-05-09T12:35:03Z</time>
      </trkpt>
      <trkpt lat="36.905939010903239" lon="-4.688126016408205">
        <ele>295.74000000000001</ele>
        <time>2025-05-09T12:35:04Z</time>
      </trkpt>
      <trkpt lat="36.905856030061841" lon="-4.688240010291338">
        <ele>296.22000000000003</ele>
        <time>2025-05-09T12:35:05Z</time>
      </trkpt>
      <trkpt lat="36.90576802007854" lon="-4.688360961154103">
        <ele>296.69999999999999</ele>
        <time>2025-05-09T12:35:06Z</time>
      </trkpt>
      <trkpt lat="36.90559996291995" lon="-4.688589032739401">
        <ele>298.14999999999998</ele>
        <time>2025-05-09T12:35:08Z</time>
      </trkpt>
      <trkpt lat="36.905523017048836" lon="-4.688694979995489">
        <ele>299.11000000000001</ele>
        <time>2025-05-09T12:35:09Z</time>
      </trkpt>
      <trkpt lat="36.905438024550676" lon="-4.688718030229211">
        <ele>299.58999999999997</ele>
        <time>2025-05-09T12:35:10Z</time>
      </trkpt>
      <trkpt lat="36.905323024839163" lon="-4.688749965280294">
        <ele>300.55000000000001</ele>
        <time>2025-05-09T12:35:11Z</time>
      </trkpt>
      <trkpt lat="36.905201990157366" lon="-4.688783995807171">
        <ele>301.50999999999999</ele>
        <time>2025-05-09T12:35:12Z</time>
      </trkpt>
      <trkpt lat="36.905076010152698" lon="-4.688820037990809">
        <ele>302.47000000000003</ele>
        <time>2025-05-09T12:35:13Z</time>
      </trkpt>
      <trkpt lat="36.904952963814139" lon="-4.688876029103994">
        <ele>303.43000000000001</ele>
        <time>2025-05-09T12:35:14Z</time>
      </trkpt>
      <trkpt lat="36.904843999072909" lon="-4.688979964703322">
        <ele>304.38999999999999</ele>
        <time>2025-05-09T12:35:15Z</time>
      </trkpt>
      <trkpt lat="36.904537975788116" lon="-4.689271990209818">
        <ele>308.24000000000001</ele>
        <time>2025-05-09T12:35:18Z</time>
      </trkpt>
      <trkpt lat="36.904446026310325" lon="-4.689324041828513">
        <ele>309.68000000000001</ele>
        <time>2025-05-09T12:35:19Z</time>
      </trkpt>
      <trkpt lat="36.904346030205488" lon="-4.689355976879597">
        <ele>310.63999999999999</ele>
        <time>2025-05-09T12:35:20Z</time>
      </trkpt>
      <trkpt lat="36.904237987473607" lon="-4.689330998808146">
        <ele>311.60000000000002</ele>
        <time>2025-05-09T12:35:21Z</time>
      </trkpt>
      <trkpt lat="36.904118964448571" lon="-4.689304009079933">
        <ele>312.56999999999999</ele>
        <time>2025-05-09T12:35:22Z</time>
      </trkpt>
      <trkpt lat="36.904000025242567" lon="-4.689277019351721">
        <ele>314.00999999999999</ele>
        <time>2025-05-09T12:35:23Z</time>
      </trkpt>
      <trkpt lat="36.903890976682305" lon="-4.689252963289619">
        <ele>314.97000000000003</ele>
        <time>2025-05-09T12:35:24Z</time>
      </trkpt>
      <trkpt lat="36.903797015547752" lon="-4.689313983544707">
        <ele>315.93000000000001</ele>
        <time>2025-05-09T12:35:25Z</time>
      </trkpt>
      <trkpt lat="36.903697019442916" lon="-4.689379027113318">
        <ele>317.37</ele>
        <time>2025-05-09T12:35:26Z</time>
      </trkpt>
      <trkpt lat="36.903590988367796" lon="-4.68944801017642">
        <ele>317.85000000000002</ele>
        <time>2025-05-09T12:35:27Z</time>
      </trkpt>
      <trkpt lat="36.903489986434579" lon="-4.68951397575438">
        <ele>318.81</ele>
        <time>2025-05-09T12:35:28Z</time>
      </trkpt>
      <trkpt lat="36.903400970622897" lon="-4.689523028209806">
        <ele>319.30000000000001</ele>
        <time>2025-05-09T12:35:29Z</time>
      </trkpt>
      <trkpt lat="36.903317989781499" lon="-4.689510958269239">
        <ele>319.77999999999997</ele>
        <time>2025-05-09T12:35:30Z</time>
      </trkpt>
      <trkpt lat="36.903272978961468" lon="-4.689430994912982">
        <ele>320.25999999999999</ele>
        <time>2025-05-09T12:35:31Z</time>
      </trkpt>
      <trkpt lat="36.903226040303707" lon="-4.689330998808146">
        <ele>321.22000000000003</ele>
        <time>2025-05-09T12:35:32Z</time>
      </trkpt>
      <trkpt lat="36.903211958706379" lon="-4.689188003540039">
        <ele>321.69999999999999</ele>
        <time>2025-05-09T12:35:33Z</time>
      </trkpt>
      <trkpt lat="36.903195027261972" lon="-4.689022963866592">
        <ele>322.18000000000001</ele>
        <time>2025-05-09T12:35:34Z</time>
      </trkpt>
      <trkpt lat="36.903197960928082" lon="-4.68848099000752">
        <ele>324.10000000000002</ele>
        <time>2025-05-09T12:35:37Z</time>
      </trkpt>
      <trkpt lat="36.903226962313056" lon="-4.688307987526059">
        <ele>324.57999999999998</ele>
        <time>2025-05-09T12:35:38Z</time>
      </trkpt>
      <trkpt lat="36.903253030031919" lon="-4.688153006136417">
        <ele>325.06</ele>
        <time>2025-05-09T12:35:39Z</time>
      </trkpt>
      <trkpt lat="36.903255041688681" lon="-4.688004981726408">
        <ele>325.54000000000002</ele>
        <time>2025-05-09T12:35:40Z</time>
      </trkpt>
      <trkpt lat="36.903214976191521" lon="-4.687875984236598">
        <ele>326.01999999999998</ele>
        <time>2025-05-09T12:35:41Z</time>
      </trkpt>
      <trkpt lat="36.903171977028251" lon="-4.687739023938775">
        <ele>326.5</ele>
        <time>2025-05-09T12:35:42Z</time>
      </trkpt>
      <trkpt lat="36.903150016441941" lon="-4.687586976215243">
        <ele>326.99000000000001</ele>
        <time>2025-05-09T12:35:43Z</time>
      </trkpt>
      <trkpt lat="36.903135012835264" lon="-4.687427971512079">
        <ele>327.47000000000003</ele>
        <time>2025-05-09T12:35:44Z</time>
      </trkpt>
      <trkpt lat="36.90310399979353" lon="-4.687125971540809">
        <ele>329.38999999999999</ele>
        <time>2025-05-09T12:35:46Z</time>
      </trkpt>
      <trkpt lat="36.903065023943782" lon="-4.686994962394238">
        <ele>330.35000000000002</ele>
        <time>2025-05-09T12:35:47Z</time>
      </trkpt>
      <trkpt lat="36.903006015345454" lon="-4.686871999874711">
        <ele>331.31</ele>
        <time>2025-05-09T12:35:48Z</time>
      </trkpt>
      <trkpt lat="36.902947006747127" lon="-4.686748031526804">
        <ele>331.79000000000002</ele>
        <time>2025-05-09T12:35:49Z</time>
      </trkpt>
      <trkpt lat="36.902892021462321" lon="-4.686633031815291">
        <ele>332.75</ele>
        <time>2025-05-09T12:35:50Z</time>
      </trkpt>
      <trkpt lat="36.902878023684025" lon="-4.686531024053693">
        <ele>333.23000000000002</ele>
        <time>2025-05-09T12:35:51Z</time>
      </trkpt>
      <trkpt lat="36.902924040332437" lon="-4.686418035998941">
        <ele>334.19999999999999</ele>
        <time>2025-05-09T12:35:52Z</time>
      </trkpt>
      <trkpt lat="36.90297500230372" lon="-4.686293983832002">
        <ele>335.16000000000003</ele>
        <time>2025-05-09T12:35:53Z</time>
      </trkpt>
      <trkpt lat="36.903024958446622" lon="-4.686173032969236">
        <ele>335.63999999999999</ele>
        <time>2025-05-09T12:35:54Z</time>
      </trkpt>
      <trkpt lat="36.903064018115401" lon="-4.686059961095452">
        <ele>336.12</ele>
        <time>2025-05-09T12:35:55Z</time>
      </trkpt>
      <trkpt lat="36.903086984530091" lon="-4.685955019667745">
        <ele>336.12</ele>
        <time>2025-05-09T12:35:56Z</time>
      </trkpt>
      <trkpt lat="36.903066029772162" lon="-4.685859968885779">
        <ele>336.60000000000002</ele>
        <time>2025-05-09T12:35:57Z</time>
      </trkpt>
      <trkpt lat="36.903012972325087" lon="-4.685785034671426">
        <ele>337.07999999999998</ele>
        <time>2025-05-09T12:35:58Z</time>
      </trkpt>
      <trkpt lat="36.902953963726759" lon="-4.685700964182615">
        <ele>337.56</ele>
        <time>2025-05-09T12:35:59Z</time>
      </trkpt>
      <trkpt lat="36.902892021462321" lon="-4.685613038018346">
        <ele>338.04000000000002</ele>
        <time>2025-05-09T12:36:00Z</time>
      </trkpt>
      <trkpt lat="36.902840975672007" lon="-4.685540031641722">
        <ele>338.51999999999998</ele>
        <time>2025-05-09T12:36:01Z</time>
      </trkpt>
      <trkpt lat="36.902844998985529" lon="-4.685414973646402">
        <ele>339.48000000000002</ele>
        <time>2025-05-09T12:36:02Z</time>
      </trkpt>
      <trkpt lat="36.902849022299051" lon="-4.685291005298495">
        <ele>340.44</ele>
        <time>2025-05-09T12:36:03Z</time>
      </trkpt>
      <trkpt lat="36.902853967621922" lon="-4.685163013637066">
        <ele>341.41000000000003</ele>
        <time>2025-05-09T12:36:04Z</time>
      </trkpt>
      <trkpt lat="36.902857990935445" lon="-4.685038961470127">
        <ele>341.88999999999999</ele>
        <time>2025-05-09T12:36:05Z</time>
      </trkpt>
      <trkpt lat="36.902850028127432" lon="-4.684923961758614">
        <ele>342.37</ele>
        <time>2025-05-09T12:36:06Z</time>
      </trkpt>
      <trkpt lat="36.902775010094047" lon="-4.684834023937583">
        <ele>343.32999999999998</ele>
        <time>2025-05-09T12:36:07Z</time>
      </trkpt>
      <trkpt lat="36.902694962918758" lon="-4.684736961498857">
        <ele>343.81</ele>
        <time>2025-05-09T12:36:08Z</time>
      </trkpt>
      <trkpt lat="36.902608964592218" lon="-4.684632020071149">
        <ele>344.29000000000002</ele>
        <time>2025-05-09T12:36:09Z</time>
      </trkpt>
      <trkpt lat="36.902516009286046" lon="-4.684520037844777">
        <ele>344.76999999999998</ele>
        <time>2025-05-09T12:36:10Z</time>
      </trkpt>
      <trkpt lat="36.902415007352829" lon="-4.6843979973346">
        <ele>345.25</ele>
        <time>2025-05-09T12:36:11Z</time>
      </trkpt>
      <trkpt lat="36.901915026828647" lon="-4.683790979906917">
        <ele>347.17000000000002</ele>
        <time>2025-05-09T12:36:16Z</time>
      </trkpt>
      <trkpt lat="36.901812013238668" lon="-4.683697018772364">
        <ele>347.17000000000002</ele>
        <time>2025-05-09T12:36:17Z</time>
      </trkpt>
      <trkpt lat="36.901692990213633" lon="-4.683643039315939">
        <ele>347.64999999999998</ele>
        <time>2025-05-09T12:36:18Z</time>
      </trkpt>
      <trkpt lat="36.901574973016977" lon="-4.683587970212102">
        <ele>347.64999999999998</ele>
        <time>2025-05-09T12:36:19Z</time>
      </trkpt>
      <trkpt lat="36.901443963870406" lon="-4.683568021282554">
        <ele>348.13</ele>
        <time>2025-05-09T12:36:20Z</time>
      </trkpt>
      <trkpt lat="36.900729993358254" lon="-4.683501971885562">
        <ele>350.06</ele>
        <time>2025-05-09T12:36:25Z</time>
      </trkpt>
      <trkpt lat="36.900579035282135" lon="-4.683515969663858">
        <ele>350.06</ele>
        <time>2025-05-09T12:36:26Z</time>
      </trkpt>
      <trkpt lat="36.900432016700506" lon="-4.683556035161018">
        <ele>350.54000000000002</ele>
        <time>2025-05-09T12:36:27Z</time>
      </trkpt>
      <trkpt lat="36.899012038484216" lon="-4.683789974078536">
        <ele>354.38</ele>
        <time>2025-05-09T12:36:36Z</time>
      </trkpt>
      <trkpt lat="36.898274011909962" lon="-4.683701964095235">
        <ele>355.33999999999997</ele>
        <time>2025-05-09T12:36:41Z</time>
      </trkpt>
      <trkpt lat="36.898161023855209" lon="-4.683633986860514">
        <ele>355.82999999999998</ele>
        <time>2025-05-09T12:36:42Z</time>
      </trkpt>
      <trkpt lat="36.898080976679921" lon="-4.683527033776045">
        <ele>355.82999999999998</ele>
        <time>2025-05-09T12:36:43Z</time>
      </trkpt>
      <trkpt lat="36.898016016930342" lon="-4.683392001315951">
        <ele>355.82999999999998</ele>
        <time>2025-05-09T12:36:44Z</time>
      </trkpt>
      <trkpt lat="36.89794703386724" lon="-4.683248000219464">
        <ele>355.33999999999997</ele>
        <time>2025-05-09T12:36:45Z</time>
      </trkpt>
      <trkpt lat="36.897874027490616" lon="-4.683096958324313">
        <ele>355.33999999999997</ele>
        <time>2025-05-09T12:36:46Z</time>
      </trkpt>
      <trkpt lat="36.89777503721416" lon="-4.682973995804787">
        <ele>355.33999999999997</ele>
        <time>2025-05-09T12:36:47Z</time>
      </trkpt>
      <trkpt lat="36.897671017795801" lon="-4.682869976386428">
        <ele>354.86000000000001</ele>
        <time>2025-05-09T12:36:48Z</time>
      </trkpt>
      <trkpt lat="36.897544031962752" lon="-4.682806022465229">
        <ele>354.86000000000001</ele>
        <time>2025-05-09T12:36:49Z</time>
      </trkpt>
      <trkpt lat="36.897415034472942" lon="-4.682741984724999">
        <ele>354.86000000000001</ele>
        <time>2025-05-09T12:36:50Z</time>
      </trkpt>
      <trkpt lat="36.896280040964484" lon="-4.682252984493971">
        <ele>352.94</ele>
        <time>2025-05-09T12:36:58Z</time>
      </trkpt>
      <trkpt lat="36.896154982969165" lon="-4.682171009480953">
        <ele>352.94</ele>
        <time>2025-05-09T12:36:59Z</time>
      </trkpt>
      <trkpt lat="36.89603503793478" lon="-4.682070007547736">
        <ele>352.94</ele>
        <time>2025-05-09T12:37:00Z</time>
      </trkpt>
      <trkpt lat="36.895829010754824" lon="-4.681897005066276">
        <ele>353.42000000000002</ele>
        <time>2025-05-09T12:37:02Z</time>
      </trkpt>
      <trkpt lat="36.895731026306748" lon="-4.681911002844572">
        <ele>353.42000000000002</ele>
        <time>2025-05-09T12:37:03Z</time>
      </trkpt>
      <trkpt lat="36.895624995231628" lon="-4.681932041421533">
        <ele>352.94</ele>
        <time>2025-05-09T12:37:04Z</time>
      </trkpt>
      <trkpt lat="36.895246971398592" lon="-4.6821219753474">
        <ele>351.98000000000002</ele>
        <time>2025-05-09T12:37:07Z</time>
      </trkpt>
      <trkpt lat="36.89511101692915" lon="-4.682217026129365">
        <ele>351.5</ele>
        <time>2025-05-09T12:37:08Z</time>
      </trkpt>
      <trkpt lat="36.894981013610959" lon="-4.682334959506989">
        <ele>351.01999999999998</ele>
        <time>2025-05-09T12:37:09Z</time>
      </trkpt>
      <trkpt lat="36.894868025556207" lon="-4.68246697448194">
        <ele>350.54000000000002</ele>
        <time>2025-05-09T12:37:10Z</time>
      </trkpt>
      <trkpt lat="36.894781021401286" lon="-4.682622961699963">
        <ele>349.57999999999998</ele>
        <time>2025-05-09T12:37:11Z</time>
      </trkpt>
      <trkpt lat="36.894695023074746" lon="-4.682777021080256">
        <ele>349.10000000000002</ele>
        <time>2025-05-09T12:37:12Z</time>
      </trkpt>
      <trkpt lat="36.89444599673152" lon="-4.683192009106278">
        <ele>346.69</ele>
        <time>2025-05-09T12:37:15Z</time>
      </trkpt>
      <trkpt lat="36.894365027546883" lon="-4.683286976069212">
        <ele>345.73000000000002</ele>
        <time>2025-05-09T12:37:16Z</time>
      </trkpt>
      <trkpt lat="36.894240975379944" lon="-4.683298962190747">
        <ele>344.76999999999998</ele>
        <time>2025-05-09T12:37:17Z</time>
      </trkpt>
      <trkpt lat="36.894113989546895" lon="-4.683311032131314">
        <ele>343.81</ele>
        <time>2025-05-09T12:37:18Z</time>
      </trkpt>
      <trkpt lat="36.893981974571943" lon="-4.68332402408123">
        <ele>342.85000000000002</ele>
        <time>2025-05-09T12:37:19Z</time>
      </trkpt>
      <trkpt lat="36.893855994567275" lon="-4.683362999930978">
        <ele>341.88999999999999</ele>
        <time>2025-05-09T12:37:20Z</time>
      </trkpt>
      <trkpt lat="36.893745018169284" lon="-4.683433994650841">
        <ele>340.92000000000002</ele>
        <time>2025-05-09T12:37:21Z</time>
      </trkpt>
      <trkpt lat="36.893645022064447" lon="-4.683534996584058">
        <ele>339.48000000000002</ele>
        <time>2025-05-09T12:37:22Z</time>
      </trkpt>
      <trkpt lat="36.893270015716553" lon="-4.683908997103572">
        <ele>334.19999999999999</ele>
        <time>2025-05-09T12:37:26Z</time>
      </trkpt>
      <trkpt lat="36.893140012398362" lon="-4.68392601236701">
        <ele>333.23000000000002</ele>
        <time>2025-05-09T12:37:27Z</time>
      </trkpt>
      <trkpt lat="36.893085027113557" lon="-4.683915032073855">
        <ele>331.79000000000002</ele>
        <time>2025-05-09T12:37:28Z</time>
      </trkpt>
      <trkpt lat="36.893025012686849" lon="-4.683844959363341">
        <ele>330.82999999999998</ele>
        <time>2025-05-09T12:37:29Z</time>
      </trkpt>
      <trkpt lat="36.89296499826014" lon="-4.683768013492227">
        <ele>329.38999999999999</ele>
        <time>2025-05-09T12:37:30Z</time>
      </trkpt>
      <trkpt lat="36.892914036288857" lon="-4.683648990467191">
        <ele>328.43000000000001</ele>
        <time>2025-05-09T12:37:31Z</time>
      </trkpt>
      <trkpt lat="36.892653023824096" lon="-4.683035016059876">
        <ele>324.10000000000002</ele>
        <time>2025-05-09T12:37:35Z</time>
      </trkpt>
      <trkpt lat="36.89259803853929" lon="-4.682861007750034">
        <ele>323.13999999999999</ele>
        <time>2025-05-09T12:37:36Z</time>
      </trkpt>
      <trkpt lat="36.892573982477188" lon="-4.682663027197123">
        <ele>321.69999999999999</ele>
        <time>2025-05-09T12:37:37Z</time>
      </trkpt>
      <trkpt lat="36.892551016062498" lon="-4.68246404081583">
        <ele>320.74000000000001</ele>
        <time>2025-05-09T12:37:38Z</time>
      </trkpt>
      <trkpt lat="36.892527965828776" lon="-4.68227201141417">
        <ele>319.30000000000001</ele>
        <time>2025-05-09T12:37:39Z</time>
      </trkpt>
      <trkpt lat="36.892506005242467" lon="-4.682090962305665">
        <ele>317.85000000000002</ele>
        <time>2025-05-09T12:37:40Z</time>
      </trkpt>
      <trkpt lat="36.89247197471559" lon="-4.68192801810801">
        <ele>316.41000000000003</ele>
        <time>2025-05-09T12:37:41Z</time>
      </trkpt>
      <trkpt lat="36.892429981380701" lon="-4.681774964556098">
        <ele>315.44999999999999</ele>
        <time>2025-05-09T12:37:42Z</time>
      </trkpt>
      <trkpt lat="36.892391005530953" lon="-4.681634986773133">
        <ele>314.00999999999999</ele>
        <time>2025-05-09T12:37:43Z</time>
      </trkpt>
      <trkpt lat="36.892324034124613" lon="-4.681585030630231">
        <ele>312.56999999999999</ele>
        <time>2025-05-09T12:37:44Z</time>
      </trkpt>
      <trkpt lat="36.892250021919608" lon="-4.681529961526394">
        <ele>311.12</ele>
        <time>2025-05-09T12:37:45Z</time>
      </trkpt>
      <trkpt lat="36.892196964472532" lon="-4.681514035910368">
        <ele>310.16000000000003</ele>
        <time>2025-05-09T12:37:46Z</time>
      </trkpt>
      <trkpt lat="36.892100991681218" lon="-4.681549994274974">
        <ele>308.72000000000003</ele>
        <time>2025-05-09T12:37:47Z</time>
      </trkpt>
      <trkpt lat="36.891989009454846" lon="-4.681590981781483">
        <ele>307.75999999999999</ele>
        <time>2025-05-09T12:37:48Z</time>
      </trkpt>
      <trkpt lat="36.891721040010452" lon="-4.681688966229558">
        <ele>305.36000000000001</ele>
        <time>2025-05-09T12:37:50Z</time>
      </trkpt>
      <trkpt lat="36.891575027257204" lon="-4.681742023676634">
        <ele>304.38999999999999</ele>
        <time>2025-05-09T12:37:51Z</time>
      </trkpt>
      <trkpt lat="36.891429014503956" lon="-4.681722996756434">
        <ele>302.47000000000003</ele>
        <time>2025-05-09T12:37:52Z</time>
      </trkpt>
      <trkpt lat="36.890125963836908" lon="-4.681517975404859">
        <ele>288.05000000000001</ele>
        <time>2025-05-09T12:38:01Z</time>
      </trkpt>
      <trkpt lat="36.889754980802536" lon="-4.681379003450275">
        <ele>283.73000000000002</ele>
        <time>2025-05-09T12:38:04Z</time>
      </trkpt>
      <trkpt lat="36.889634029939771" lon="-4.681389983743429">
        <ele>282.27999999999997</ele>
        <time>2025-05-09T12:38:05Z</time>
      </trkpt>
      <trkpt lat="36.889522969722748" lon="-4.681417979300022">
        <ele>280.83999999999997</ele>
        <time>2025-05-09T12:38:06Z</time>
      </trkpt>
      <trkpt lat="36.889420039951801" lon="-4.681475982069969">
        <ele>279.39999999999998</ele>
        <time>2025-05-09T12:38:07Z</time>
      </trkpt>
      <trkpt lat="36.889322977513075" lon="-4.681557035073638">
        <ele>278.44</ele>
        <time>2025-05-09T12:38:08Z</time>
      </trkpt>
      <trkpt lat="36.889236979186535" lon="-4.681658037006855">
        <ele>277</ele>
        <time>2025-05-09T12:38:09Z</time>
      </trkpt>
      <trkpt lat="36.889150980859995" lon="-4.681760966777802">
        <ele>276.04000000000002</ele>
        <time>2025-05-09T12:38:10Z</time>
      </trkpt>
      <trkpt lat="36.889059031382203" lon="-4.681870015338063">
        <ele>275.06999999999999</ele>
        <time>2025-05-09T12:38:11Z</time>
      </trkpt>
      <trkpt lat="36.888965992256999" lon="-4.681980991736054">
        <ele>273.63</ele>
        <time>2025-05-09T12:38:12Z</time>
      </trkpt>
      <trkpt lat="36.888857027515769" lon="-4.682069001719356">
        <ele>272.67000000000002</ele>
        <time>2025-05-09T12:38:13Z</time>
      </trkpt>
      <trkpt lat="36.888728030025959" lon="-4.682127004489303">
        <ele>271.70999999999998</ele>
        <time>2025-05-09T12:38:14Z</time>
      </trkpt>
      <trkpt lat="36.888370038941503" lon="-4.682328002527356">
        <ele>268.82999999999998</ele>
        <time>2025-05-09T12:38:17Z</time>
      </trkpt>
      <trkpt lat="36.888265013694763" lon="-4.682419029995799">
        <ele>267.86000000000001</ele>
        <time>2025-05-09T12:38:18Z</time>
      </trkpt>
      <trkpt lat="36.888204999268055" lon="-4.682538975030184">
        <ele>266.89999999999998</ele>
        <time>2025-05-09T12:38:19Z</time>
      </trkpt>
      <trkpt lat="36.888170968741179" lon="-4.6826780308038">
        <ele>265.94</ele>
        <time>2025-05-09T12:38:20Z</time>
      </trkpt>
      <trkpt lat="36.888152025640011" lon="-4.682819014415145">
        <ele>264.98000000000002</ele>
        <time>2025-05-09T12:38:21Z</time>
      </trkpt>
      <trkpt lat="36.888132998719811" lon="-4.68295999802649">
        <ele>264.01999999999998</ele>
        <time>2025-05-09T12:38:22Z</time>
      </trkpt>
      <trkpt lat="36.88810802064836" lon="-4.683076003566384">
        <ele>263.06</ele>
        <time>2025-05-09T12:38:23Z</time>
      </trkpt>
      <trkpt lat="36.888052029535174" lon="-4.683178011327982">
        <ele>262.10000000000002</ele>
        <time>2025-05-09T12:38:24Z</time>
      </trkpt>
      <trkpt lat="36.887969970703125" lon="-4.683329975232482">
        <ele>261.13999999999999</ele>
        <time>2025-05-09T12:38:25Z</time>
      </trkpt>
      <trkpt lat="36.887907022610307" lon="-4.683368029072881">
        <ele>260.17000000000002</ele>
        <time>2025-05-09T12:38:26Z</time>
      </trkpt>
      <trkpt lat="36.887808032333851" lon="-4.683427959680557">
        <ele>259.20999999999998</ele>
        <time>2025-05-09T12:38:27Z</time>
      </trkpt>
      <trkpt lat="36.887708958238363" lon="-4.683422008529306">
        <ele>258.25</ele>
        <time>2025-05-09T12:38:28Z</time>
      </trkpt>
      <trkpt lat="36.887638969346881" lon="-4.683361994102597">
        <ele>257.76999999999998</ele>
        <time>2025-05-09T12:38:29Z</time>
      </trkpt>
      <trkpt lat="36.887563029304147" lon="-4.683273984119296">
        <ele>256.81</ele>
        <time>2025-05-09T12:38:30Z</time>
      </trkpt>
      <trkpt lat="36.887478958815336" lon="-4.683177005499601">
        <ele>255.84999999999999</ele>
        <time>2025-05-09T12:38:31Z</time>
      </trkpt>
      <trkpt lat="36.88671100884676" lon="-4.68242104165256">
        <ele>247.68000000000001</ele>
        <time>2025-05-09T12:38:40Z</time>
      </trkpt>
      <trkpt lat="36.886382019147277" lon="-4.682206967845559">
        <ele>244.31</ele>
        <time>2025-05-09T12:38:43Z</time>
      </trkpt>
      <trkpt lat="36.886252015829086" lon="-4.682162962853909">
        <ele>243.34999999999999</ele>
        <time>2025-05-09T12:38:44Z</time>
      </trkpt>
      <trkpt lat="36.886113965883851" lon="-4.682136978954077">
        <ele>242.87</ele>
        <time>2025-05-09T12:38:45Z</time>
      </trkpt>
      <trkpt lat="36.885848008096218" lon="-4.682086016982794">
        <ele>241.43000000000001</ele>
        <time>2025-05-09T12:38:47Z</time>
      </trkpt>
      <trkpt lat="36.885734014213085" lon="-4.682019967585802">
        <ele>240.47</ele>
        <time>2025-05-09T12:38:48Z</time>
      </trkpt>
      <trkpt lat="36.885589007288218" lon="-4.681934975087643">
        <ele>239.99000000000001</ele>
        <time>2025-05-09T12:38:49Z</time>
      </trkpt>
      <trkpt lat="36.885514995083213" lon="-4.681849982589483">
        <ele>239.50999999999999</ele>
        <time>2025-05-09T12:38:50Z</time>
      </trkpt>
      <trkpt lat="36.885414998978376" lon="-4.68173498287797">
        <ele>239.02000000000001</ele>
        <time>2025-05-09T12:38:51Z</time>
      </trkpt>
      <trkpt lat="36.884910995140672" lon="-4.681204995140433">
        <ele>237.58000000000001</ele>
        <time>2025-05-09T12:38:56Z</time>
      </trkpt>
      <trkpt lat="36.884804964065552" lon="-4.681124025955796">
        <ele>237.09999999999999</ele>
        <time>2025-05-09T12:38:57Z</time>
      </trkpt>
      <trkpt lat="36.884593991562724" lon="-4.68096200376749">
        <ele>235.66</ele>
        <time>2025-05-09T12:38:59Z</time>
      </trkpt>
      <trkpt lat="36.884497012943029" lon="-4.680887991562486">
        <ele>235.18000000000001</ele>
        <time>2025-05-09T12:39:00Z</time>
      </trkpt>
      <trkpt lat="36.884404979646206" lon="-4.680813979357481">
        <ele>234.69999999999999</ele>
        <time>2025-05-09T12:39:01Z</time>
      </trkpt>
      <trkpt lat="36.884341025725007" lon="-4.68070300295949">
        <ele>233.74000000000001</ele>
        <time>2025-05-09T12:39:02Z</time>
      </trkpt>
      <trkpt lat="36.884275982156396" lon="-4.680590014904738">
        <ele>233.25999999999999</ele>
        <time>2025-05-09T12:39:03Z</time>
      </trkpt>
      <trkpt lat="36.884213034063578" lon="-4.680480966344476">
        <ele>232.78</ele>
        <time>2025-05-09T12:39:04Z</time>
      </trkpt>
      <trkpt lat="36.884150002151728" lon="-4.680373007431626">
        <ele>232.30000000000001</ele>
        <time>2025-05-09T12:39:05Z</time>
      </trkpt>
      <trkpt lat="36.883878009393811" lon="-4.679902028292418">
        <ele>228.44999999999999</ele>
        <time>2025-05-09T12:39:10Z</time>
      </trkpt>
      <trkpt lat="36.883820006623864" lon="-4.679846037179232">
        <ele>227.49000000000001</ele>
        <time>2025-05-09T12:39:11Z</time>
      </trkpt>
      <trkpt lat="36.883735014125705" lon="-4.679824998602271">
        <ele>227.00999999999999</ele>
        <time>2025-05-09T12:39:12Z</time>
      </trkpt>
      <trkpt lat="36.88364096917212" lon="-4.679802032187581">
        <ele>226.05000000000001</ele>
        <time>2025-05-09T12:39:13Z</time>
      </trkpt>
      <trkpt lat="36.883542984724045" lon="-4.679792979732156">
        <ele>225.56999999999999</ele>
        <time>2025-05-09T12:39:14Z</time>
      </trkpt>
      <trkpt lat="36.883433014154434" lon="-4.679802032187581">
        <ele>224.61000000000001</ele>
        <time>2025-05-09T12:39:15Z</time>
      </trkpt>
      <trkpt lat="36.883323965594172" lon="-4.679809994995594">
        <ele>223.63999999999999</ele>
        <time>2025-05-09T12:39:16Z</time>
      </trkpt>
      <trkpt lat="36.88323000445962" lon="-4.679883001372218">
        <ele>222.19999999999999</ele>
        <time>2025-05-09T12:39:17Z</time>
      </trkpt>
      <trkpt lat="36.883131014183164" lon="-4.679968999698758">
        <ele>221.24000000000001</ele>
        <time>2025-05-09T12:39:18Z</time>
      </trkpt>
      <trkpt lat="36.883030012249947" lon="-4.680056003853679">
        <ele>220.28</ele>
        <time>2025-05-09T12:39:19Z</time>
      </trkpt>
      <trkpt lat="36.882925992831588" lon="-4.680146025493741">
        <ele>219.31999999999999</ele>
        <time>2025-05-09T12:39:20Z</time>
      </trkpt>
      <trkpt lat="36.882819961756468" lon="-4.680236969143152">
        <ele>218.36000000000001</ele>
        <time>2025-05-09T12:39:21Z</time>
      </trkpt>
      <trkpt lat="36.882716026157141" lon="-4.680326990783215">
        <ele>217.88</ele>
        <time>2025-05-09T12:39:22Z</time>
      </trkpt>
      <trkpt lat="36.882601026445627" lon="-4.680385999381542">
        <ele>216.91</ele>
        <time>2025-05-09T12:39:23Z</time>
      </trkpt>
      <trkpt lat="36.88192100264132" lon="-4.680671989917755">
        <ele>212.59</ele>
        <time>2025-05-09T12:39:29Z</time>
      </trkpt>
      <trkpt lat="36.88181396573782" lon="-4.680685987696052">
        <ele>212.59</ele>
        <time>2025-05-09T12:39:30Z</time>
      </trkpt>
      <trkpt lat="36.881699971854687" lon="-4.680677019059658">
        <ele>212.11000000000001</ele>
        <time>2025-05-09T12:39:31Z</time>
      </trkpt>
      <trkpt lat="36.880688024684787" lon="-4.68055497854948">
        <ele>207.78</ele>
        <time>2025-05-09T12:39:39Z</time>
      </trkpt>
      <trkpt lat="36.879203002899885" lon="-4.680341994389892">
        <ele>206.34</ele>
        <time>2025-05-09T12:39:50Z</time>
      </trkpt>
      <trkpt lat="36.877975976094604" lon="-4.680169997736812">
        <ele>207.78</ele>
        <time>2025-05-09T12:39:57Z</time>
      </trkpt>
      <trkpt lat="36.877841027453542" lon="-4.680169997736812">
        <ele>207.78</ele>
        <time>2025-05-09T12:39:58Z</time>
      </trkpt>
      <trkpt lat="36.877734996378422" lon="-4.680239986628294">
        <ele>208.25999999999999</ele>
        <time>2025-05-09T12:39:59Z</time>
      </trkpt>
      <trkpt lat="36.877646986395121" lon="-4.680332019925118">
        <ele>208.25999999999999</ele>
        <time>2025-05-09T12:40:00Z</time>
      </trkpt>
      <trkpt lat="36.877561993896961" lon="-4.680421035736799">
        <ele>208.74000000000001</ele>
        <time>2025-05-09T12:40:01Z</time>
      </trkpt>
      <trkpt lat="36.877471972256899" lon="-4.680516002699733">
        <ele>208.74000000000001</ele>
        <time>2025-05-09T12:40:02Z</time>
      </trkpt>
      <trkpt lat="36.877377005293965" lon="-4.680614992976189">
        <ele>209.22</ele>
        <time>2025-05-09T12:40:03Z</time>
      </trkpt>
      <trkpt lat="36.877263011410832" lon="-4.680734016001225">
        <ele>209.22</ele>
        <time>2025-05-09T12:40:04Z</time>
      </trkpt>
      <trkpt lat="36.87715002335608" lon="-4.680779026821256">
        <ele>209.22</ele>
        <time>2025-05-09T12:40:05Z</time>
      </trkpt>
      <trkpt lat="36.877006022259593" lon="-4.680837029591203">
        <ele>209.22</ele>
        <time>2025-05-09T12:40:06Z</time>
      </trkpt>
      <trkpt lat="36.87624603509903" lon="-4.68115596100688">
        <ele>208.74000000000001</ele>
        <time>2025-05-09T12:40:11Z</time>
      </trkpt>
      <trkpt lat="36.87611997127533" lon="-4.681245982646942">
        <ele>208.25999999999999</ele>
        <time>2025-05-09T12:40:12Z</time>
      </trkpt>
      <trkpt lat="36.876005977392197" lon="-4.681351007893682">
        <ele>208.25999999999999</ele>
        <time>2025-05-09T12:40:13Z</time>
      </trkpt>
      <trkpt lat="36.875114981085062" lon="-4.682494970038533">
        <ele>204.41999999999999</ele>
        <time>2025-05-09T12:40:21Z</time>
      </trkpt>
      <trkpt lat="36.874997969716787" lon="-4.682611981406808">
        <ele>203.46000000000001</ele>
        <time>2025-05-09T12:40:22Z</time>
      </trkpt>
      <trkpt lat="36.874870983883739" lon="-4.682694962248206">
        <ele>202.49000000000001</ele>
        <time>2025-05-09T12:40:23Z</time>
      </trkpt>
      <trkpt lat="36.874732011929154" lon="-4.682752965018153">
        <ele>201.53</ele>
        <time>2025-05-09T12:40:24Z</time>
      </trkpt>
      <trkpt lat="36.874580970034003" lon="-4.682814991101623">
        <ele>200.56999999999999</ele>
        <time>2025-05-09T12:40:25Z</time>
      </trkpt>
      <trkpt lat="36.874436968937516" lon="-4.682814991101623">
        <ele>199.61000000000001</ele>
        <time>2025-05-09T12:40:26Z</time>
      </trkpt>
      <trkpt lat="36.874274024739861" lon="-4.682814991101623">
        <ele>198.65000000000001</ele>
        <time>2025-05-09T12:40:27Z</time>
      </trkpt>
      <trkpt lat="36.872097998857498" lon="-4.682741984724999">
        <ele>191.91999999999999</ele>
        <time>2025-05-09T12:40:39Z</time>
      </trkpt>
      <trkpt lat="36.871386040002108" lon="-4.682805016636848">
        <ele>191.44</ele>
        <time>2025-05-09T12:40:43Z</time>
      </trkpt>
      <trkpt lat="36.870371997356415" lon="-4.683124031871557">
        <ele>189.52000000000001</ele>
        <time>2025-05-09T12:40:49Z</time>
      </trkpt>
      <trkpt lat="36.870234031230211" lon="-4.683226039633155">
        <ele>189.52000000000001</ele>
        <time>2025-05-09T12:40:50Z</time>
      </trkpt>
      <trkpt lat="36.870097992941737" lon="-4.683349002152681">
        <ele>189.52000000000001</ele>
        <time>2025-05-09T12:40:51Z</time>
      </trkpt>
      <trkpt lat="36.869233986362815" lon="-4.684058027341962">
        <ele>187.11000000000001</ele>
        <time>2025-05-09T12:40:57Z</time>
      </trkpt>
      <trkpt lat="36.869091996923089" lon="-4.684114018455148">
        <ele>186.63</ele>
        <time>2025-05-09T12:40:58Z</time>
      </trkpt>
      <trkpt lat="36.868939027190208" lon="-4.684136984869838">
        <ele>186.63</ele>
        <time>2025-05-09T12:40:59Z</time>
      </trkpt>
      <trkpt lat="36.868778010830283" lon="-4.68416003510356">
        <ele>186.63</ele>
        <time>2025-05-09T12:41:00Z</time>
      </trkpt>
      <trkpt lat="36.868608025833964" lon="-4.684185013175011">
        <ele>186.63</ele>
        <time>2025-05-09T12:41:01Z</time>
      </trkpt>
      <trkpt lat="36.867732033133507" lon="-4.684348041191697">
        <ele>186.15000000000001</ele>
        <time>2025-05-09T12:41:06Z</time>
      </trkpt>
      <trkpt lat="36.86756900511682" lon="-4.684422975406051">
        <ele>185.66999999999999</ele>
        <time>2025-05-09T12:41:07Z</time>
      </trkpt>
      <trkpt lat="36.866959976032376" lon="-4.684706032276154">
        <ele>185.19</ele>
        <time>2025-05-09T12:41:11Z</time>
      </trkpt>
      <trkpt lat="36.86681798659265" lon="-4.684712989255786">
        <ele>185.19</ele>
        <time>2025-05-09T12:41:12Z</time>
      </trkpt>
      <trkpt lat="36.866670968011022" lon="-4.684695973992348">
        <ele>185.19</ele>
        <time>2025-05-09T12:41:13Z</time>
      </trkpt>
      <trkpt lat="36.866522021591663" lon="-4.684669990092516">
        <ele>185.19</ele>
        <time>2025-05-09T12:41:14Z</time>
      </trkpt>
      <trkpt lat="36.86636796221137" lon="-4.68461299315095">
        <ele>185.19</ele>
        <time>2025-05-09T12:41:15Z</time>
      </trkpt>
      <trkpt lat="36.865596994757652" lon="-4.684330020099878">
        <ele>185.19</ele>
        <time>2025-05-09T12:41:20Z</time>
      </trkpt>
      <trkpt lat="36.865474032238126" lon="-4.684303030371666">
        <ele>185.19</ele>
        <time>2025-05-09T12:41:21Z</time>
      </trkpt>
      <trkpt lat="36.865352997556329" lon="-4.68433303758502">
        <ele>185.19</ele>
        <time>2025-05-09T12:41:22Z</time>
      </trkpt>
      <trkpt lat="36.865235986188054" lon="-4.684372013434768">
        <ele>185.66999999999999</ele>
        <time>2025-05-09T12:41:23Z</time>
      </trkpt>
      <trkpt lat="36.865133978426456" lon="-4.684478966519237">
        <ele>185.66999999999999</ele>
        <time>2025-05-09T12:41:24Z</time>
      </trkpt>
      <trkpt lat="36.865027025341988" lon="-4.68459296040237">
        <ele>186.15000000000001</ele>
        <time>2025-05-09T12:41:25Z</time>
      </trkpt>
      <trkpt lat="36.864924011752009" lon="-4.684702008962631">
        <ele>186.15000000000001</ele>
        <time>2025-05-09T12:41:26Z</time>
      </trkpt>
      <trkpt lat="36.864816974848509" lon="-4.684787001460791">
        <ele>186.63</ele>
        <time>2025-05-09T12:41:27Z</time>
      </trkpt>
      <trkpt lat="36.86471002176404" lon="-4.684853972867131">
        <ele>187.11000000000001</ele>
        <time>2025-05-09T12:41:28Z</time>
      </trkpt>
      <trkpt lat="36.864563003182411" lon="-4.684860007837415">
        <ele>187.59</ele>
        <time>2025-05-09T12:41:29Z</time>
      </trkpt>
      <trkpt lat="36.863186024129391" lon="-4.684921028092504">
        <ele>188.08000000000001</ele>
        <time>2025-05-09T12:41:37Z</time>
      </trkpt>
      <trkpt lat="36.862535001710057" lon="-4.684847015887499">
        <ele>187.11000000000001</ele>
        <time>2025-05-09T12:41:41Z</time>
      </trkpt>
      <trkpt lat="36.861132038757205" lon="-4.684426998719573">
        <ele>181.34999999999999</ele>
        <time>2025-05-09T12:41:50Z</time>
      </trkpt>
      <trkpt lat="36.86099499464035" lon="-4.684466980397701">
        <ele>180.87</ele>
        <time>2025-05-09T12:41:51Z</time>
      </trkpt>
      <trkpt lat="36.860847976058722" lon="-4.684509979560971">
        <ele>179.90000000000001</ele>
        <time>2025-05-09T12:41:52Z</time>
      </trkpt>
      <trkpt lat="36.86073699966073" lon="-4.684597989544272">
        <ele>179.41999999999999</ele>
        <time>2025-05-09T12:41:53Z</time>
      </trkpt>
      <trkpt lat="36.860609007999301" lon="-4.68469899147749">
        <ele>179.41999999999999</ele>
        <time>2025-05-09T12:41:54Z</time>
      </trkpt>
      <trkpt lat="36.86047900468111" lon="-4.684800999239087">
        <ele>178.94</ele>
        <time>2025-05-09T12:41:55Z</time>
      </trkpt>
      <trkpt lat="36.859766039997339" lon="-4.685264015570283">
        <ele>177.97999999999999</ele>
        <time>2025-05-09T12:42:00Z</time>
      </trkpt>
      <trkpt lat="36.859605023637414" lon="-4.685310032218695">
        <ele>177.02000000000001</ele>
        <time>2025-05-09T12:42:01Z</time>
      </trkpt>
      <trkpt lat="36.858181022107601" lon="-4.685669029131532">
        <ele>173.66</ele>
        <time>2025-05-09T12:42:10Z</time>
      </trkpt>
      <trkpt lat="36.858071973547339" lon="-4.68564597889781">
        <ele>173.16999999999999</ele>
        <time>2025-05-09T12:42:11Z</time>
      </trkpt>
      <trkpt lat="36.857957979664207" lon="-4.685593005269766">
        <ele>173.16999999999999</ele>
        <time>2025-05-09T12:42:12Z</time>
      </trkpt>
      <trkpt lat="36.857699984684587" lon="-4.685472976416349">
        <ele>171.72999999999999</ele>
        <time>2025-05-09T12:42:14Z</time>
      </trkpt>
      <trkpt lat="36.857561012730002" lon="-4.68540801666677">
        <ele>171.25</ele>
        <time>2025-05-09T12:42:15Z</time>
      </trkpt>
      <trkpt lat="36.857398990541697" lon="-4.685389995574951">
        <ele>170.77000000000001</ele>
        <time>2025-05-09T12:42:16Z</time>
      </trkpt>
      <trkpt lat="36.855649016797543" lon="-4.685389995574951">
        <ele>162.59999999999999</ele>
        <time>2025-05-09T12:42:26Z</time>
      </trkpt>
      <trkpt lat="36.855010986328125" lon="-4.685340039432049">
        <ele>159.72</ele>
        <time>2025-05-09T12:42:30Z</time>
      </trkpt>
      <trkpt lat="36.85487000271678" lon="-4.685278013348579">
        <ele>159.24000000000001</ele>
        <time>2025-05-09T12:42:31Z</time>
      </trkpt>
      <trkpt lat="36.854734970256686" lon="-4.685171982273459">
        <ele>158.75</ele>
        <time>2025-05-09T12:42:32Z</time>
      </trkpt>
      <trkpt lat="36.853439966216683" lon="-4.684179984033108">
        <ele>155.38999999999999</ele>
        <time>2025-05-09T12:42:41Z</time>
      </trkpt>
      <trkpt lat="36.853312980383635" lon="-4.684116030111909">
        <ele>155.38999999999999</ele>
        <time>2025-05-09T12:42:42Z</time>
      </trkpt>
      <trkpt lat="36.853170990943909" lon="-4.684089962393045">
        <ele>155.87</ele>
        <time>2025-05-09T12:42:43Z</time>
      </trkpt>
      <trkpt lat="36.853029001504183" lon="-4.684103038161993">
        <ele>155.87</ele>
        <time>2025-05-09T12:42:44Z</time>
      </trkpt>
      <trkpt lat="36.852878965437412" lon="-4.684137990698218">
        <ele>155.87</ele>
        <time>2025-05-09T12:42:45Z</time>
      </trkpt>
      <trkpt lat="36.852721972391009" lon="-4.684174032881856">
        <ele>155.87</ele>
        <time>2025-05-09T12:42:46Z</time>
      </trkpt>
      <trkpt lat="36.852286029607058" lon="-4.684274028986692">
        <ele>155.38999999999999</ele>
        <time>2025-05-09T12:42:49Z</time>
      </trkpt>
      <trkpt lat="36.852139011025429" lon="-4.684258019551635">
        <ele>155.38999999999999</ele>
        <time>2025-05-09T12:42:50Z</time>
      </trkpt>
      <trkpt lat="36.852028034627438" lon="-4.684202028438449">
        <ele>154.91</ele>
        <time>2025-05-09T12:42:51Z</time>
      </trkpt>
      <trkpt lat="36.851899959146976" lon="-4.684103038161993">
        <ele>154.91</ele>
        <time>2025-05-09T12:42:52Z</time>
      </trkpt>
      <trkpt lat="36.851811027154326" lon="-4.684003964066505">
        <ele>153.94999999999999</ele>
        <time>2025-05-09T12:42:53Z</time>
      </trkpt>
      <trkpt lat="36.851189006119967" lon="-4.683252023532987">
        <ele>151.53999999999999</ele>
        <time>2025-05-09T12:42:59Z</time>
      </trkpt>
      <trkpt lat="36.851178025826812" lon="-4.683138029649854">
        <ele>151.53999999999999</ele>
        <time>2025-05-09T12:43:00Z</time>
      </trkpt>
      <trkpt lat="36.851189006119967" lon="-4.683015989139676">
        <ele>151.53999999999999</ele>
        <time>2025-05-09T12:43:01Z</time>
      </trkpt>
      <trkpt lat="36.851223036646843" lon="-4.68289302662015">
        <ele>151.53999999999999</ele>
        <time>2025-05-09T12:43:02Z</time>
      </trkpt>
      <trkpt lat="36.851278021931648" lon="-4.682755982503295">
        <ele>151.53999999999999</ele>
        <time>2025-05-09T12:43:03Z</time>
      </trkpt>
      <trkpt lat="36.851358991116285" lon="-4.682613993063569">
        <ele>152.03</ele>
        <time>2025-05-09T12:43:04Z</time>
      </trkpt>
      <trkpt lat="36.851442977786064" lon="-4.682467980310321">
        <ele>152.03</ele>
        <time>2025-05-09T12:43:05Z</time>
      </trkpt>
      <trkpt lat="36.851520007476211" lon="-4.682332025840879">
        <ele>152.03</ele>
        <time>2025-05-09T12:43:06Z</time>
      </trkpt>
      <trkpt lat="36.851588990539312" lon="-4.682211996987462">
        <ele>152.50999999999999</ele>
        <time>2025-05-09T12:43:07Z</time>
      </trkpt>
      <trkpt lat="36.851621009409428" lon="-4.682106971740723">
        <ele>152.50999999999999</ele>
        <time>2025-05-09T12:43:08Z</time>
      </trkpt>
      <trkpt lat="36.85158203355968" lon="-4.681975962594152">
        <ele>152.99000000000001</ele>
        <time>2025-05-09T12:43:09Z</time>
      </trkpt>
      <trkpt lat="36.85153903439641" lon="-4.681872026994824">
        <ele>153.47</ele>
        <time>2025-05-09T12:43:10Z</time>
      </trkpt>
      <trkpt lat="36.851459993049502" lon="-4.681782005354762">
        <ele>153.94999999999999</ele>
        <time>2025-05-09T12:43:11Z</time>
      </trkpt>
      <trkpt lat="36.851361002773046" lon="-4.681698018684983">
        <ele>154.43000000000001</ele>
        <time>2025-05-09T12:43:12Z</time>
      </trkpt>
      <trkpt lat="36.85124097391963" lon="-4.681638004258275">
        <ele>154.91</ele>
        <time>2025-05-09T12:43:13Z</time>
      </trkpt>
      <trkpt lat="36.851104013621807" lon="-4.681615037843585">
        <ele>155.38999999999999</ele>
        <time>2025-05-09T12:43:14Z</time>
      </trkpt>
      <trkpt lat="36.850953977555037" lon="-4.681591987609863">
        <ele>155.87</ele>
        <time>2025-05-09T12:43:15Z</time>
      </trkpt>
      <trkpt lat="36.849427968263626" lon="-4.681427031755447">
        <ele>164.03999999999999</ele>
        <time>2025-05-09T12:43:25Z</time>
      </trkpt>
      <trkpt lat="36.848822040483356" lon="-4.681496014818549">
        <ele>163.56</ele>
        <time>2025-05-09T12:43:29Z</time>
      </trkpt>
      <trkpt lat="36.848686002194881" lon="-4.681451003998518">
        <ele>163.08000000000001</ele>
        <time>2025-05-09T12:43:30Z</time>
      </trkpt>
      <trkpt lat="36.84829699806869" lon="-4.681321000680327">
        <ele>161.16</ele>
        <time>2025-05-09T12:43:33Z</time>
      </trkpt>
      <trkpt lat="36.848185015842319" lon="-4.68134899623692">
        <ele>160.68000000000001</ele>
        <time>2025-05-09T12:43:34Z</time>
      </trkpt>
      <trkpt lat="36.848069010302424" lon="-4.681395012885332">
        <ele>160.68000000000001</ele>
        <time>2025-05-09T12:43:35Z</time>
      </trkpt>
      <trkpt lat="36.847677994519472" lon="-4.681551000103355">
        <ele>159.72</ele>
        <time>2025-05-09T12:43:38Z</time>
      </trkpt>
      <trkpt lat="36.847547991201282" lon="-4.681557035073638">
        <ele>159.24000000000001</ele>
        <time>2025-05-09T12:43:39Z</time>
      </trkpt>
      <trkpt lat="36.84741597622633" lon="-4.681534990668297">
        <ele>158.75</ele>
        <time>2025-05-09T12:43:40Z</time>
      </trkpt>
      <trkpt lat="36.847291002050042" lon="-4.681471958756447">
        <ele>158.27000000000001</ele>
        <time>2025-05-09T12:43:41Z</time>
      </trkpt>
      <trkpt lat="36.847162004560232" lon="-4.681384032592177">
        <ele>157.78999999999999</ele>
        <time>2025-05-09T12:43:42Z</time>
      </trkpt>
      <trkpt lat="36.8470289837569" lon="-4.681294010952115">
        <ele>156.83000000000001</ele>
        <time>2025-05-09T12:43:43Z</time>
      </trkpt>
      <trkpt lat="36.845851996913552" lon="-4.680500999093056">
        <ele>152.50999999999999</ele>
        <time>2025-05-09T12:43:52Z</time>
      </trkpt>
      <trkpt lat="36.845742026343942" lon="-4.680452970787883">
        <ele>152.03</ele>
        <time>2025-05-09T12:43:53Z</time>
      </trkpt>
      <trkpt lat="36.845623003318906" lon="-4.680462023243308">
        <ele>151.53999999999999</ele>
        <time>2025-05-09T12:43:54Z</time>
      </trkpt>
      <trkpt lat="36.845498029142618" lon="-4.680509967729449">
        <ele>151.06</ele>
        <time>2025-05-09T12:43:55Z</time>
      </trkpt>
      <trkpt lat="36.845368025824428" lon="-4.680560007691383">
        <ele>150.58000000000001</ele>
        <time>2025-05-09T12:43:56Z</time>
      </trkpt>
      <trkpt lat="36.843908987939358" lon="-4.681170964613557">
        <ele>145.78</ele>
        <time>2025-05-09T12:44:06Z</time>
      </trkpt>
      <trkpt lat="36.843764986842871" lon="-4.681249000132084">
        <ele>145.30000000000001</ele>
        <time>2025-05-09T12:44:07Z</time>
      </trkpt>
      <trkpt lat="36.843476984649897" lon="-4.681402975693345">
        <ele>144.34</ele>
        <time>2025-05-09T12:44:09Z</time>
      </trkpt>
      <trkpt lat="36.843326026573777" lon="-4.68145502731204">
        <ele>143.37</ele>
        <time>2025-05-09T12:44:10Z</time>
      </trkpt>
      <trkpt lat="36.84275396168232" lon="-4.681677985936403">
        <ele>139.05000000000001</ele>
        <time>2025-05-09T12:44:14Z</time>
      </trkpt>
      <trkpt lat="36.84262496419251" lon="-4.681750992313027">
        <ele>138.09</ele>
        <time>2025-05-09T12:44:15Z</time>
      </trkpt>
      <trkpt lat="36.842508036643267" lon="-4.681862974539399">
        <ele>137.13</ele>
        <time>2025-05-09T12:44:16Z</time>
      </trkpt>
      <trkpt lat="36.842437963932753" lon="-4.68201301060617">
        <ele>135.68000000000001</ele>
        <time>2025-05-09T12:44:17Z</time>
      </trkpt>
      <trkpt lat="36.842375015839934" lon="-4.682157011702657">
        <ele>134.72</ele>
        <time>2025-05-09T12:44:18Z</time>
      </trkpt>
      <trkpt lat="36.842309972271323" lon="-4.682302018627524">
        <ele>133.75999999999999</ele>
        <time>2025-05-09T12:44:19Z</time>
      </trkpt>
      <trkpt lat="36.842246018350124" lon="-4.682446019724011">
        <ele>133.28</ele>
        <time>2025-05-09T12:44:20Z</time>
      </trkpt>
      <trkpt lat="36.842179968953133" lon="-4.682579040527344">
        <ele>132.31999999999999</ele>
        <time>2025-05-09T12:44:21Z</time>
      </trkpt>
      <trkpt lat="36.842114003375173" lon="-4.682709965854883">
        <ele>131.84</ele>
        <time>2025-05-09T12:44:22Z</time>
      </trkpt>
      <trkpt lat="36.84204300865531" lon="-4.682817002758384">
        <ele>131.36000000000001</ele>
        <time>2025-05-09T12:44:23Z</time>
      </trkpt>
      <trkpt lat="36.841933038085699" lon="-4.682903001084924">
        <ele>130.40000000000001</ele>
        <time>2025-05-09T12:44:24Z</time>
      </trkpt>
      <trkpt lat="36.841818960383534" lon="-4.682992016896606">
        <ele>129.91999999999999</ele>
        <time>2025-05-09T12:44:25Z</time>
      </trkpt>
      <trkpt lat="36.841456023976207" lon="-4.683250011876226">
        <ele>127.98999999999999</ele>
        <time>2025-05-09T12:44:28Z</time>
      </trkpt>
      <trkpt lat="36.84135502204299" lon="-4.683352019637823">
        <ele>127.98999999999999</ele>
        <time>2025-05-09T12:44:29Z</time>
      </trkpt>
      <trkpt lat="36.841282015666366" lon="-4.683470958843827">
        <ele>127.51000000000001</ele>
        <time>2025-05-09T12:44:30Z</time>
      </trkpt>
      <trkpt lat="36.841235999017954" lon="-4.683609008789063">
        <ele>127.51000000000001</ele>
        <time>2025-05-09T12:44:31Z</time>
      </trkpt>
      <trkpt lat="36.841215966269374" lon="-4.683744041249156">
        <ele>127.03</ele>
        <time>2025-05-09T12:44:32Z</time>
      </trkpt>
      <trkpt lat="36.841197023168206" lon="-4.68388200737536">
        <ele>127.03</ele>
        <time>2025-05-09T12:44:33Z</time>
      </trkpt>
      <trkpt lat="36.8411869648844" lon="-4.684021985158324">
        <ele>127.03</ele>
        <time>2025-05-09T12:44:34Z</time>
      </trkpt>
      <trkpt lat="36.841158969327807" lon="-4.684410989284515">
        <ele>127.03</ele>
        <time>2025-05-09T12:44:37Z</time>
      </trkpt>
      <trkpt lat="36.841128040105104" lon="-4.684532023966312">
        <ele>127.03</ele>
        <time>2025-05-09T12:44:38Z</time>
      </trkpt>
      <trkpt lat="36.841070037335157" lon="-4.684609975665808">
        <ele>127.03</ele>
        <time>2025-05-09T12:44:39Z</time>
      </trkpt>
      <trkpt lat="36.840999964624643" lon="-4.684703014791012">
        <ele>127.03</ele>
        <time>2025-05-09T12:44:40Z</time>
      </trkpt>
      <trkpt lat="36.840915977954865" lon="-4.684776021167636">
        <ele>127.03</ele>
        <time>2025-05-09T12:44:41Z</time>
      </trkpt>
      <trkpt lat="36.839965973049402" lon="-4.685582024976611">
        <ele>128.94999999999999</ele>
        <time>2025-05-09T12:44:50Z</time>
      </trkpt>
      <trkpt lat="36.839749971404672" lon="-4.685747986659408">
        <ele>128.94999999999999</ele>
        <time>2025-05-09T12:44:52Z</time>
      </trkpt>
      <trkpt lat="36.839630026370287" lon="-4.685821998864412">
        <ele>128.94999999999999</ele>
        <time>2025-05-09T12:44:53Z</time>
      </trkpt>
      <trkpt lat="36.839495999738574" lon="-4.685846976935864">
        <ele>129.43000000000001</ele>
        <time>2025-05-09T12:44:54Z</time>
      </trkpt>
      <trkpt lat="36.838178029283881" lon="-4.686088040471077">
        <ele>127.51000000000001</ele>
        <time>2025-05-09T12:45:03Z</time>
      </trkpt>
      <trkpt lat="36.837028032168746" lon="-4.68669799156487">
        <ele>126.55</ele>
        <time>2025-05-09T12:45:11Z</time>
      </trkpt>
      <trkpt lat="36.835665972903371" lon="-4.687459990382195">
        <ele>124.15000000000001</ele>
        <time>2025-05-09T12:45:21Z</time>
      </trkpt>
      <trkpt lat="36.834484962746501" lon="-4.688110006973147">
        <ele>119.81999999999999</ele>
        <time>2025-05-09T12:45:30Z</time>
      </trkpt>
      <trkpt lat="36.834343979135156" lon="-4.688171027228236">
        <ele>119.34</ele>
        <time>2025-05-09T12:45:31Z</time>
      </trkpt>
      <trkpt lat="36.832824004814029" lon="-4.688694979995489">
        <ele>116.94</ele>
        <time>2025-05-09T12:45:41Z</time>
      </trkpt>
      <trkpt lat="36.831499999389052" lon="-4.689342984929681">
        <ele>118.38</ele>
        <time>2025-05-09T12:45:50Z</time>
      </trkpt>
      <trkpt lat="36.830560974776745" lon="-4.690022002905607">
        <ele>124.63</ele>
        <time>2025-05-09T12:45:57Z</time>
      </trkpt>
      <trkpt lat="36.830422002822161" lon="-4.690096015110612">
        <ele>125.11</ele>
        <time>2025-05-09T12:45:58Z</time>
      </trkpt>
      <trkpt lat="36.830276995897293" lon="-4.690162986516953">
        <ele>125.59</ele>
        <time>2025-05-09T12:45:59Z</time>
      </trkpt>
      <trkpt lat="36.829077964648604" lon="-4.690546961501241">
        <ele>128.47</ele>
        <time>2025-05-09T12:46:08Z</time>
      </trkpt>
      <trkpt lat="36.828945027664304" lon="-4.690558025613427">
        <ele>128.94999999999999</ele>
        <time>2025-05-09T12:46:09Z</time>
      </trkpt>
      <trkpt lat="36.828812006860971" lon="-4.690551990643144">
        <ele>129.43000000000001</ele>
        <time>2025-05-09T12:46:10Z</time>
      </trkpt>
      <trkpt lat="36.828672029078007" lon="-4.690532963722944">
        <ele>129.43000000000001</ele>
        <time>2025-05-09T12:46:11Z</time>
      </trkpt>
      <trkpt lat="36.82853196747601" lon="-4.690502034500241">
        <ele>129.91999999999999</ele>
        <time>2025-05-09T12:46:12Z</time>
      </trkpt>
      <trkpt lat="36.827215002849698" lon="-4.690065002068877">
        <ele>131.36000000000001</ele>
        <time>2025-05-09T12:46:22Z</time>
      </trkpt>
      <trkpt lat="36.825785972177982" lon="-4.6896390337497">
        <ele>130.40000000000001</ele>
        <time>2025-05-09T12:46:33Z</time>
      </trkpt>
      <trkpt lat="36.825399985536933" lon="-4.68959603458643">
        <ele>130.40000000000001</ele>
        <time>2025-05-09T12:46:38Z</time>
      </trkpt>
      <trkpt lat="36.825312981382012" lon="-4.689644984900951">
        <ele>129.91999999999999</ele>
        <time>2025-05-09T12:46:39Z</time>
      </trkpt>
      <trkpt lat="36.825222037732601" lon="-4.689701981842518">
        <ele>129.43000000000001</ele>
        <time>2025-05-09T12:46:40Z</time>
      </trkpt>
      <trkpt lat="36.824456015601754" lon="-4.690206991508603">
        <ele>125.59</ele>
        <time>2025-05-09T12:46:49Z</time>
      </trkpt>
      <trkpt lat="36.824369011446834" lon="-4.69024102203548">
        <ele>125.59</ele>
        <time>2025-05-09T12:46:50Z</time>
      </trkpt>
      <trkpt lat="36.824262980371714" lon="-4.690282009541988">
        <ele>125.11</ele>
        <time>2025-05-09T12:46:51Z</time>
      </trkpt>
      <trkpt lat="36.824183017015457" lon="-4.690282009541988">
        <ele>124.63</ele>
        <time>2025-05-09T12:46:52Z</time>
      </trkpt>
      <trkpt lat="36.824083020910621" lon="-4.690282009541988">
        <ele>124.15000000000001</ele>
        <time>2025-05-09T12:46:53Z</time>
      </trkpt>
      <trkpt lat="36.823983024805784" lon="-4.690277986228466">
        <ele>123.67</ele>
        <time>2025-05-09T12:46:54Z</time>
      </trkpt>
      <trkpt lat="36.82352302595973" lon="-4.690318973734975">
        <ele>120.78</ele>
        <time>2025-05-09T12:46:59Z</time>
      </trkpt>
      <trkpt lat="36.823210967704654" lon="-4.690432967618108">
        <ele>118.38</ele>
        <time>2025-05-09T12:47:02Z</time>
      </trkpt>
      <trkpt lat="36.822288958355784" lon="-4.691032022237778">
        <ele>107.81</ele>
        <time>2025-05-09T12:47:10Z</time>
      </trkpt>
      <trkpt lat="36.822156021371484" lon="-4.691115003079176">
        <ele>107.31999999999999</ele>
        <time>2025-05-09T12:47:11Z</time>
      </trkpt>
      <trkpt lat="36.820741994306445" lon="-4.691570978611708">
        <ele>103.48</ele>
        <time>2025-05-09T12:47:20Z</time>
      </trkpt>
      <trkpt lat="36.820221981033683" lon="-4.691653037443757">
        <ele>102.04000000000001</ele>
        <time>2025-05-09T12:47:23Z</time>
      </trkpt>
      <trkpt lat="36.820049984380603" lon="-4.691705005243421">
        <ele>101.56</ele>
        <time>2025-05-09T12:47:24Z</time>
      </trkpt>
      <trkpt lat="36.819874970242381" lon="-4.691756973043084">
        <ele>101.08</ele>
        <time>2025-05-09T12:47:25Z</time>
      </trkpt>
      <trkpt lat="36.81970096193254" lon="-4.691813969984651">
        <ele>101.08</ele>
        <time>2025-05-09T12:47:26Z</time>
      </trkpt>
      <trkpt lat="36.819538017734885" lon="-4.691916983574629">
        <ele>100.59999999999999</ele>
        <time>2025-05-09T12:47:27Z</time>
      </trkpt>
      <trkpt lat="36.819375995546579" lon="-4.692021002992988">
        <ele>100.59999999999999</ele>
        <time>2025-05-09T12:47:28Z</time>
      </trkpt>
      <trkpt lat="36.818048972636461" lon="-4.692982994019985">
        <ele>98.670000000000002</ele>
        <time>2025-05-09T12:47:37Z</time>
      </trkpt>
      <trkpt lat="36.817945959046483" lon="-4.693136969581246">
        <ele>98.670000000000002</ele>
        <time>2025-05-09T12:47:38Z</time>
      </trkpt>
      <trkpt lat="36.817844035103917" lon="-4.693291028961539">
        <ele>98.189999999999998</ele>
        <time>2025-05-09T12:47:39Z</time>
      </trkpt>
      <trkpt lat="36.8177430331707" lon="-4.693453973159194">
        <ele>97.709999999999994</ele>
        <time>2025-05-09T12:47:40Z</time>
      </trkpt>
      <trkpt lat="36.817662985995412" lon="-4.693629993125796">
        <ele>97.709999999999994</ele>
        <time>2025-05-09T12:47:41Z</time>
      </trkpt>
      <trkpt lat="36.817615041509271" lon="-4.693826967850328">
        <ele>97.709999999999994</ele>
        <time>2025-05-09T12:47:42Z</time>
      </trkpt>
      <trkpt lat="36.81757397018373" lon="-4.694020003080368">
        <ele>97.709999999999994</ele>
        <time>2025-05-09T12:47:43Z</time>
      </trkpt>
      <trkpt lat="36.817538011819124" lon="-4.694213038310409">
        <ele>97.709999999999994</ele>
        <time>2025-05-09T12:47:44Z</time>
      </trkpt>
      <trkpt lat="36.817513033747673" lon="-4.694406995549798">
        <ele>97.709999999999994</ele>
        <time>2025-05-09T12:47:45Z</time>
      </trkpt>
      <trkpt lat="36.817370960488915" lon="-4.695319030433893">
        <ele>98.189999999999998</ele>
        <time>2025-05-09T12:47:50Z</time>
      </trkpt>
      <trkpt lat="36.817177003249526" lon="-4.695983966812491">
        <ele>103</ele>
        <time>2025-05-09T12:47:56Z</time>
      </trkpt>
      <trkpt lat="36.817152025178075" lon="-4.696070970967412">
        <ele>103.48</ele>
        <time>2025-05-09T12:47:57Z</time>
      </trkpt>
      <trkpt lat="36.817102991044521" lon="-4.696255037561059">
        <ele>105.40000000000001</ele>
        <time>2025-05-09T12:47:59Z</time>
      </trkpt>
      <trkpt lat="36.817072983831167" lon="-4.696352016180754">
        <ele>106.36</ele>
        <time>2025-05-09T12:48:00Z</time>
      </trkpt>
      <trkpt lat="36.817048005759716" lon="-4.696469027549028">
        <ele>106.84</ele>
        <time>2025-05-09T12:48:01Z</time>
      </trkpt>
      <trkpt lat="36.816854970529675" lon="-4.697987996041775">
        <ele>109.25</ele>
        <time>2025-05-09T12:48:15Z</time>
      </trkpt>
      <trkpt lat="36.816835021600127" lon="-4.698078017681837">
        <ele>108.77</ele>
        <time>2025-05-09T12:48:16Z</time>
      </trkpt>
      <trkpt lat="36.816720021888614" lon="-4.698254037648439">
        <ele>107.31999999999999</ele>
        <time>2025-05-09T12:48:19Z</time>
      </trkpt>
      <trkpt lat="36.81667098775506" lon="-4.698302987962961">
        <ele>106.36</ele>
        <time>2025-05-09T12:48:20Z</time>
      </trkpt>
      <trkpt lat="36.816620025783777" lon="-4.698354033753276">
        <ele>105.88</ele>
        <time>2025-05-09T12:48:21Z</time>
      </trkpt>
      <trkpt lat="36.816578032448888" lon="-4.698394015431404">
        <ele>105.40000000000001</ele>
        <time>2025-05-09T12:48:22Z</time>
      </trkpt>
      <trkpt lat="36.816511983051896" lon="-4.698401978239417">
        <ele>104.92</ele>
        <time>2025-05-09T12:48:23Z</time>
      </trkpt>
      <trkpt lat="36.816441994160414" lon="-4.698411030694842">
        <ele>104.44</ele>
        <time>2025-05-09T12:48:24Z</time>
      </trkpt>
      <trkpt lat="36.816372005268931" lon="-4.698418993502855">
        <ele>103.95999999999999</ele>
        <time>2025-05-09T12:48:25Z</time>
      </trkpt>
      <trkpt lat="36.81609196588397" lon="-4.69845000654459">
        <ele>103</ele>
        <time>2025-05-09T12:48:29Z</time>
      </trkpt>
      <trkpt lat="36.816028011962771" lon="-4.698456963524222">
        <ele>102.52</ele>
        <time>2025-05-09T12:48:30Z</time>
      </trkpt>
      <trkpt lat="36.815969003364444" lon="-4.698464004322887">
        <ele>102.04000000000001</ele>
        <time>2025-05-09T12:48:31Z</time>
      </trkpt>
      <trkpt lat="36.815912006422877" lon="-4.698470961302519">
        <ele>102.04000000000001</ele>
        <time>2025-05-09T12:48:32Z</time>
      </trkpt>
      <trkpt lat="36.815848974511027" lon="-4.698480013757944">
        <ele>102.04000000000001</ele>
        <time>2025-05-09T12:48:33Z</time>
      </trkpt>
      <trkpt lat="36.815786026418209" lon="-4.698512032628059">
        <ele>101.56</ele>
        <time>2025-05-09T12:48:34Z</time>
      </trkpt>
      <trkpt lat="36.81565803475678" lon="-4.698436008766294">
        <ele>101.56</ele>
        <time>2025-05-09T12:48:35Z</time>
      </trkpt>
      <trkpt lat="36.815647976472974" lon="-4.69842997379601">
        <ele>101.56</ele>
        <time>2025-05-09T12:48:36Z</time>
      </trkpt>
      <trkpt lat="36.815483020618558" lon="-4.698345987126231">
        <ele>100.59999999999999</ele>
        <time>2025-05-09T12:48:38Z</time>
      </trkpt>
      <trkpt lat="36.815391993150115" lon="-4.698310028761625">
        <ele>100.59999999999999</ele>
        <time>2025-05-09T12:48:39Z</time>
      </trkpt>
      <trkpt lat="36.815303983166814" lon="-4.698277004063129">
        <ele>100.11</ele>
        <time>2025-05-09T12:48:40Z</time>
      </trkpt>
      <trkpt lat="36.815213039517403" lon="-4.698249008506537">
        <ele>99.629999999999995</ele>
        <time>2025-05-09T12:48:41Z</time>
      </trkpt>
      <trkpt lat="36.815112959593534" lon="-4.698222018778324">
        <ele>99.150000000000006</ele>
        <time>2025-05-09T12:48:42Z</time>
      </trkpt>
      <trkpt lat="36.815008018165827" lon="-4.698195029050112">
        <ele>99.150000000000006</ele>
        <time>2025-05-09T12:48:43Z</time>
      </trkpt>
      <trkpt lat="36.81428600102663" lon="-4.698140965774655">
        <ele>95.310000000000002</ele>
        <time>2025-05-09T12:48:51Z</time>
      </trkpt>
      <trkpt lat="36.813286961987615" lon="-4.69795698300004">
        <ele>93.870000000000005</ele>
        <time>2025-05-09T12:48:59Z</time>
      </trkpt>
      <trkpt lat="36.812022970989347" lon="-4.697452979162335">
        <ele>92.420000000000002</ele>
        <time>2025-05-09T12:49:08Z</time>
      </trkpt>
      <trkpt lat="36.810858976095915" lon="-4.697080990299583">
        <ele>91.459999999999994</ele>
        <time>2025-05-09T12:49:16Z</time>
      </trkpt>
      <trkpt lat="36.809711996465921" lon="-4.696657033637166">
        <ele>92.420000000000002</ele>
        <time>2025-05-09T12:49:24Z</time>
      </trkpt>
      <trkpt lat="36.809003977105021" lon="-4.696499034762383">
        <ele>93.390000000000001</ele>
        <time>2025-05-09T12:49:29Z</time>
      </trkpt>
      <trkpt lat="36.808897024020553" lon="-4.69643197953701">
        <ele>93.390000000000001</ele>
        <time>2025-05-09T12:49:30Z</time>
      </trkpt>
      <trkpt lat="36.808822005987167" lon="-4.696336006745696">
        <ele>94.349999999999994</ele>
        <time>2025-05-09T12:49:31Z</time>
      </trkpt>
      <trkpt lat="36.808756962418556" lon="-4.696239028126001">
        <ele>94.829999999999998</ele>
        <time>2025-05-09T12:49:32Z</time>
      </trkpt>
      <trkpt lat="36.808748999610543" lon="-4.696148000657558">
        <ele>95.790000000000006</ele>
        <time>2025-05-09T12:49:33Z</time>
      </trkpt>
      <trkpt lat="36.808748999610543" lon="-4.696028977632523">
        <ele>96.269999999999996</ele>
        <time>2025-05-09T12:49:34Z</time>
      </trkpt>
      <trkpt lat="36.80878596380353" lon="-4.695940967649221">
        <ele>96.75</ele>
        <time>2025-05-09T12:49:35Z</time>
      </trkpt>
      <trkpt lat="36.808844972401857" lon="-4.69582898542285">
        <ele>97.709999999999994</ele>
        <time>2025-05-09T12:49:36Z</time>
      </trkpt>
      <trkpt lat="36.808900041505694" lon="-4.695725971832871">
        <ele>98.189999999999998</ele>
        <time>2025-05-09T12:49:37Z</time>
      </trkpt>
      <trkpt lat="36.808942034840584" lon="-4.695595968514681">
        <ele>98.670000000000002</ele>
        <time>2025-05-09T12:49:38Z</time>
      </trkpt>
      <trkpt lat="36.808942034840584" lon="-4.695477029308677">
        <ele>99.150000000000006</ele>
        <time>2025-05-09T12:49:39Z</time>
      </trkpt>
      <trkpt lat="36.808942034840584" lon="-4.695345014333725">
        <ele>99.629999999999995</ele>
        <time>2025-05-09T12:49:40Z</time>
      </trkpt>
      <trkpt lat="36.80891202762723" lon="-4.695191960781813">
        <ele>100.11</ele>
        <time>2025-05-09T12:49:41Z</time>
      </trkpt>
      <trkpt lat="36.808855030685663" lon="-4.695059023797512">
        <ele>100.11</ele>
        <time>2025-05-09T12:49:42Z</time>
      </trkpt>
      <trkpt lat="36.808781018480659" lon="-4.694958021864295">
        <ele>100.59999999999999</ele>
        <time>2025-05-09T12:49:43Z</time>
      </trkpt>
      <trkpt lat="36.808707006275654" lon="-4.694857019931078">
        <ele>100.59999999999999</ele>
        <time>2025-05-09T12:49:44Z</time>
      </trkpt>
      <trkpt lat="36.808641962707043" lon="-4.694768004119396">
        <ele>101.08</ele>
        <time>2025-05-09T12:49:45Z</time>
      </trkpt>
      <trkpt lat="36.808537021279335" lon="-4.694756017997861">
        <ele>101.56</ele>
        <time>2025-05-09T12:49:46Z</time>
      </trkpt>
      <trkpt lat="36.808445993810892" lon="-4.694746965542436">
        <ele>101.56</ele>
        <time>2025-05-09T12:49:47Z</time>
      </trkpt>
      <trkpt lat="36.808351026847959" lon="-4.694787031039596">
        <ele>102.04000000000001</ele>
        <time>2025-05-09T12:49:48Z</time>
      </trkpt>
      <trkpt lat="36.808249019086361" lon="-4.694831036031246">
        <ele>102.52</ele>
        <time>2025-05-09T12:49:49Z</time>
      </trkpt>
      <trkpt lat="36.80814097635448" lon="-4.694878980517387">
        <ele>103</ele>
        <time>2025-05-09T12:49:50Z</time>
      </trkpt>
      <trkpt lat="36.808034023270011" lon="-4.694956010207534">
        <ele>103.95999999999999</ele>
        <time>2025-05-09T12:49:51Z</time>
      </trkpt>
      <trkpt lat="36.80730496533215" lon="-4.695412991568446">
        <ele>108.77</ele>
        <time>2025-05-09T12:49:59Z</time>
      </trkpt>
      <trkpt lat="36.807223996147513" lon="-4.695477029308677">
        <ele>109.73</ele>
        <time>2025-05-09T12:50:00Z</time>
      </trkpt>
      <trkpt lat="36.807183008641005" lon="-4.695559004321694">
        <ele>110.69</ele>
        <time>2025-05-09T12:50:01Z</time>
      </trkpt>
      <trkpt lat="36.807159958407283" lon="-4.69567802734673">
        <ele>111.17</ele>
        <time>2025-05-09T12:50:02Z</time>
      </trkpt>
      <trkpt lat="36.807137997820973" lon="-4.695798978209496">
        <ele>111.65000000000001</ele>
        <time>2025-05-09T12:50:03Z</time>
      </trkpt>
      <trkpt lat="36.807107990607619" lon="-4.695931999012828">
        <ele>112.13</ele>
        <time>2025-05-09T12:50:04Z</time>
      </trkpt>
      <trkpt lat="36.807057028636336" lon="-4.696066025644541">
        <ele>112.13</ele>
        <time>2025-05-09T12:50:05Z</time>
      </trkpt>
      <trkpt lat="36.80700296536088" lon="-4.696212038397789">
        <ele>111.65000000000001</ele>
        <time>2025-05-09T12:50:06Z</time>
      </trkpt>
      <trkpt lat="36.806461997330189" lon="-4.697448033839464">
        <ele>105.88</ele>
        <time>2025-05-09T12:50:13Z</time>
      </trkpt>
      <trkpt lat="36.806423021480441" lon="-4.697639979422092">
        <ele>104.92</ele>
        <time>2025-05-09T12:50:14Z</time>
      </trkpt>
      <trkpt lat="36.806401982903481" lon="-4.69782798551023">
        <ele>103.95999999999999</ele>
        <time>2025-05-09T12:50:15Z</time>
      </trkpt>
      <trkpt lat="36.806389996781945" lon="-4.698016997426748">
        <ele>103.48</ele>
        <time>2025-05-09T12:50:16Z</time>
      </trkpt>
      <trkpt lat="36.806403994560242" lon="-4.698205003514886">
        <ele>102.52</ele>
        <time>2025-05-09T12:50:17Z</time>
      </trkpt>
      <trkpt lat="36.806452022865415" lon="-4.69838697463274">
        <ele>101.56</ele>
        <time>2025-05-09T12:50:18Z</time>
      </trkpt>
      <trkpt lat="36.806514970958233" lon="-4.698564000427723">
        <ele>100.59999999999999</ele>
        <time>2025-05-09T12:50:19Z</time>
      </trkpt>
      <trkpt lat="36.806580014526844" lon="-4.698734991252422">
        <ele>100.11</ele>
        <time>2025-05-09T12:50:20Z</time>
      </trkpt>
      <trkpt lat="36.806656960397959" lon="-4.69890003092587">
        <ele>99.629999999999995</ele>
        <time>2025-05-09T12:50:21Z</time>
      </trkpt>
      <trkpt lat="36.807051999494433" lon="-4.699735958129168">
        <ele>97.230000000000004</ele>
        <time>2025-05-09T12:50:26Z</time>
      </trkpt>
      <trkpt lat="36.807146966457367" lon="-4.699900997802615">
        <ele>96.75</ele>
        <time>2025-05-09T12:50:27Z</time>
      </trkpt>
      <trkpt lat="36.807252997532487" lon="-4.700046004727483">
        <ele>96.269999999999996</ele>
        <time>2025-05-09T12:50:28Z</time>
      </trkpt>
      <trkpt lat="36.807385012507439" lon="-4.700158992782235">
        <ele>95.790000000000006</ele>
        <time>2025-05-09T12:50:29Z</time>
      </trkpt>
      <trkpt lat="36.807506969198585" lon="-4.700253959745169">
        <ele>95.310000000000002</ele>
        <time>2025-05-09T12:50:30Z</time>
      </trkpt>
      <trkpt lat="36.808035029098392" lon="-4.700711024925113">
        <ele>93.870000000000005</ele>
        <time>2025-05-09T12:50:35Z</time>
      </trkpt>
      <trkpt lat="36.808102000504732" lon="-4.70081303268671">
        <ele>93.870000000000005</ele>
        <time>2025-05-09T12:50:36Z</time>
      </trkpt>
      <trkpt lat="36.808157991617918" lon="-4.700929960235953">
        <ele>93.390000000000001</ele>
        <time>2025-05-09T12:50:37Z</time>
      </trkpt>
      <trkpt lat="36.808217000216246" lon="-4.701053006574512">
        <ele>93.390000000000001</ele>
        <time>2025-05-09T12:50:38Z</time>
      </trkpt>
      <trkpt lat="36.808278020471334" lon="-4.701180998235941">
        <ele>92.900000000000006</ele>
        <time>2025-05-09T12:50:39Z</time>
      </trkpt>
      <trkpt lat="36.808651015162468" lon="-4.702655961737037">
        <ele>94.349999999999994</ele>
        <time>2025-05-09T12:50:48Z</time>
      </trkpt>
      <trkpt lat="36.809182008728385" lon="-4.704389004036784">
        <ele>102.04000000000001</ele>
        <time>2025-05-09T12:50:59Z</time>
      </trkpt>
      <trkpt lat="36.809699004516006" lon="-4.705660035833716">
        <ele>108.29000000000001</ele>
        <time>2025-05-09T12:51:08Z</time>
      </trkpt>
      <trkpt lat="36.809735968708992" lon="-4.705795990303159">
        <ele>108.77</ele>
        <time>2025-05-09T12:51:09Z</time>
      </trkpt>
      <trkpt lat="36.809735968708992" lon="-4.705963963642716">
        <ele>109.25</ele>
        <time>2025-05-09T12:51:10Z</time>
      </trkpt>
      <trkpt lat="36.809735968708992" lon="-4.7061219625175">
        <ele>110.20999999999999</ele>
        <time>2025-05-09T12:51:11Z</time>
      </trkpt>
      <trkpt lat="36.809697998687625" lon="-4.706253977492452">
        <ele>110.69</ele>
        <time>2025-05-09T12:51:12Z</time>
      </trkpt>
      <trkpt lat="36.809632033109665" lon="-4.706365037709475">
        <ele>111.17</ele>
        <time>2025-05-09T12:51:13Z</time>
      </trkpt>
      <trkpt lat="36.809552991762757" lon="-4.706490011885762">
        <ele>111.65000000000001</ele>
        <time>2025-05-09T12:51:14Z</time>
      </trkpt>
      <trkpt lat="36.80947202257812" lon="-4.706619009375572">
        <ele>112.13</ele>
        <time>2025-05-09T12:51:15Z</time>
      </trkpt>
      <trkpt lat="36.809380995109677" lon="-4.70672202296555">
        <ele>112.13</ele>
        <time>2025-05-09T12:51:16Z</time>
      </trkpt>
      <trkpt lat="36.809268007054925" lon="-4.706817995756865">
        <ele>112.13</ele>
        <time>2025-05-09T12:51:17Z</time>
      </trkpt>
      <trkpt lat="36.80781802162528" lon="-4.707855004817247">
        <ele>112.61</ele>
        <time>2025-05-09T12:51:28Z</time>
      </trkpt>
      <trkpt lat="36.806184975430369" lon="-4.709131987765431">
        <ele>111.65000000000001</ele>
        <time>2025-05-09T12:51:40Z</time>
      </trkpt>
      <trkpt lat="36.806042985990644" lon="-4.70925603993237">
        <ele>111.65000000000001</ele>
        <time>2025-05-09T12:51:41Z</time>
      </trkpt>
      <trkpt lat="36.805920023471117" lon="-4.709404986351728">
        <ele>112.13</ele>
        <time>2025-05-09T12:51:42Z</time>
      </trkpt>
      <trkpt lat="36.804848983883858" lon="-4.710962008684874">
        <ele>110.20999999999999</ele>
        <time>2025-05-09T12:51:51Z</time>
      </trkpt>
      <trkpt lat="36.804198967292905" lon="-4.711756026372314">
        <ele>108.77</ele>
        <time>2025-05-09T12:51:56Z</time>
      </trkpt>
      <trkpt lat="36.80309196934104" lon="-4.712317027151585">
        <ele>110.69</ele>
        <time>2025-05-09T12:52:03Z</time>
      </trkpt>
      <trkpt lat="36.8011340405792" lon="-4.712714999914169">
        <ele>113.56999999999999</ele>
        <time>2025-05-09T12:52:14Z</time>
      </trkpt>
      <trkpt lat="36.798853995278478" lon="-4.713294021785259">
        <ele>114.05</ele>
        <time>2025-05-09T12:52:26Z</time>
      </trkpt>
      <trkpt lat="36.796863963827491" lon="-4.714096002280712">
        <ele>109.73</ele>
        <time>2025-05-09T12:52:37Z</time>
      </trkpt>
      <trkpt lat="36.79537802003324" lon="-4.714168002828956">
        <ele>106.84</ele>
        <time>2025-05-09T12:52:45Z</time>
      </trkpt>
      <trkpt lat="36.795020028948784" lon="-4.714302029460669">
        <ele>106.36</ele>
        <time>2025-05-09T12:52:47Z</time>
      </trkpt>
      <trkpt lat="36.79484099149704" lon="-4.714391967281699">
        <ele>105.88</ele>
        <time>2025-05-09T12:52:48Z</time>
      </trkpt>
      <trkpt lat="36.794661032035947" lon="-4.714481988921762">
        <ele>105.88</ele>
        <time>2025-05-09T12:52:49Z</time>
      </trkpt>
      <trkpt lat="36.794491969048977" lon="-4.714593971148133">
        <ele>105.40000000000001</ele>
        <time>2025-05-09T12:52:50Z</time>
      </trkpt>
      <trkpt lat="36.794331036508083" lon="-4.71473403275013">
        <ele>105.40000000000001</ele>
        <time>2025-05-09T12:52:51Z</time>
      </trkpt>
      <trkpt lat="36.793773975223303" lon="-4.715378014370799">
        <ele>103.95999999999999</ele>
        <time>2025-05-09T12:52:55Z</time>
      </trkpt>
      <trkpt lat="36.793654030188918" lon="-4.715557973831892">
        <ele>103.95999999999999</ele>
        <time>2025-05-09T12:52:56Z</time>
      </trkpt>
      <trkpt lat="36.792692961171269" lon="-4.717212980613112">
        <ele>101.56</ele>
        <time>2025-05-09T12:53:05Z</time>
      </trkpt>
      <trkpt lat="36.791513962671161" lon="-4.718211013823748">
        <ele>103.95999999999999</ele>
        <time>2025-05-09T12:53:13Z</time>
      </trkpt>
      <trkpt lat="36.791177010163665" lon="-4.718370018526912">
        <ele>104.92</ele>
        <time>2025-05-09T12:53:15Z</time>
      </trkpt>
      <trkpt lat="36.79082396440208" lon="-4.718447970226407">
        <ele>105.88</ele>
        <time>2025-05-09T12:53:17Z</time>
      </trkpt>
      <trkpt lat="36.79065297357738" lon="-4.718451993539929">
        <ele>106.36</ele>
        <time>2025-05-09T12:53:18Z</time>
      </trkpt>
      <trkpt lat="36.790475025773048" lon="-4.718446964398027">
        <ele>106.36</ele>
        <time>2025-05-09T12:53:19Z</time>
      </trkpt>
      <trkpt lat="36.790295988321304" lon="-4.718441013246775">
        <ele>106.84</ele>
        <time>2025-05-09T12:53:20Z</time>
      </trkpt>
      <trkpt lat="36.790079986676574" lon="-4.718434978276491">
        <ele>107.31999999999999</ele>
        <time>2025-05-09T12:53:21Z</time>
      </trkpt>
      <trkpt lat="36.789943026378751" lon="-4.718405976891518">
        <ele>107.81</ele>
        <time>2025-05-09T12:53:22Z</time>
      </trkpt>
      <trkpt lat="36.78800999186933" lon="-4.718042034655809">
        <ele>109.25</ele>
        <time>2025-05-09T12:53:33Z</time>
      </trkpt>
      <trkpt lat="36.787007013335824" lon="-4.717925023287535">
        <ele>108.29000000000001</ele>
        <time>2025-05-09T12:53:39Z</time>
      </trkpt>
      <trkpt lat="36.78684901446104" lon="-4.717962993308902">
        <ele>108.29000000000001</ele>
        <time>2025-05-09T12:53:40Z</time>
      </trkpt>
      <trkpt lat="36.786715993657708" lon="-4.718043962493539">
        <ele>108.29000000000001</ele>
        <time>2025-05-09T12:53:41Z</time>
      </trkpt>
      <trkpt lat="36.786585990339518" lon="-4.718132978305221">
        <ele>108.29000000000001</ele>
        <time>2025-05-09T12:53:42Z</time>
      </trkpt>
      <trkpt lat="36.786470990628004" lon="-4.718258958309889">
        <ele>108.29000000000001</ele>
        <time>2025-05-09T12:53:43Z</time>
      </trkpt>
      <trkpt lat="36.786367977038026" lon="-4.718370018526912">
        <ele>108.29000000000001</ele>
        <time>2025-05-09T12:53:44Z</time>
      </trkpt>
      <trkpt lat="36.786275021731853" lon="-4.718556012958288">
        <ele>108.29000000000001</ele>
        <time>2025-05-09T12:53:45Z</time>
      </trkpt>
      <trkpt lat="36.786192962899804" lon="-4.718721974641085">
        <ele>107.81</ele>
        <time>2025-05-09T12:53:46Z</time>
      </trkpt>
      <trkpt lat="36.786118028685451" lon="-4.718871004879475">
        <ele>107.81</ele>
        <time>2025-05-09T12:53:47Z</time>
      </trkpt>
      <trkpt lat="36.786066982895136" lon="-4.719003019854426">
        <ele>107.81</ele>
        <time>2025-05-09T12:53:48Z</time>
      </trkpt>
      <trkpt lat="36.786032030358911" lon="-4.719121037051082">
        <ele>107.31999999999999</ele>
        <time>2025-05-09T12:53:49Z</time>
      </trkpt>
      <trkpt lat="36.785706980153918" lon="-4.720520982518792">
        <ele>100.11</ele>
        <time>2025-05-09T12:54:00Z</time>
      </trkpt>
      <trkpt lat="36.785335997119546" lon="-4.722072975710034">
        <ele>97.709999999999994</ele>
        <time>2025-05-09T12:54:10Z</time>
      </trkpt>
      <trkpt lat="36.784920003265142" lon="-4.72369403578341">
        <ele>101.08</ele>
        <time>2025-05-09T12:54:20Z</time>
      </trkpt>
      <trkpt lat="36.784712970256805" lon="-4.724396020174027">
        <ele>102.04000000000001</ele>
        <time>2025-05-09T12:54:24Z</time>
      </trkpt>
      <trkpt lat="36.784647004678845" lon="-4.724572040140629">
        <ele>102.04000000000001</ele>
        <time>2025-05-09T12:54:25Z</time>
      </trkpt>
      <trkpt lat="36.784542985260487" lon="-4.724732972681522">
        <ele>102.52</ele>
        <time>2025-05-09T12:54:26Z</time>
      </trkpt>
      <trkpt lat="36.784434020519257" lon="-4.724880997091532">
        <ele>102.52</ele>
        <time>2025-05-09T12:54:27Z</time>
      </trkpt>
      <trkpt lat="36.784330001100898" lon="-4.725021980702877">
        <ele>103</ele>
        <time>2025-05-09T12:54:28Z</time>
      </trkpt>
      <trkpt lat="36.784188011661172" lon="-4.725147038698196">
        <ele>103</ele>
        <time>2025-05-09T12:54:29Z</time>
      </trkpt>
      <trkpt lat="36.784053985029459" lon="-4.725265977904201">
        <ele>103.48</ele>
        <time>2025-05-09T12:54:30Z</time>
      </trkpt>
      <trkpt lat="36.783910989761353" lon="-4.725373014807701">
        <ele>104.44</ele>
        <time>2025-05-09T12:54:31Z</time>
      </trkpt>
      <trkpt lat="36.783756008371711" lon="-4.725455995649099">
        <ele>104.92</ele>
        <time>2025-05-09T12:54:32Z</time>
      </trkpt>
      <trkpt lat="36.782365031540394" lon="-4.726127972826362">
        <ele>104.44</ele>
        <time>2025-05-09T12:54:41Z</time>
      </trkpt>
      <trkpt lat="36.7808139603585" lon="-4.726519994437695">
        <ele>98.670000000000002</ele>
        <time>2025-05-09T12:54:51Z</time>
      </trkpt>
      <trkpt lat="36.779637979343534" lon="-4.726867005228996">
        <ele>95.310000000000002</ele>
        <time>2025-05-09T12:54:58Z</time>
      </trkpt>
      <trkpt lat="36.77947998046875" lon="-4.726949986070395">
        <ele>94.829999999999998</ele>
        <time>2025-05-09T12:54:59Z</time>
      </trkpt>
      <trkpt lat="36.779333967715502" lon="-4.72706900909543">
        <ele>94.349999999999994</ele>
        <time>2025-05-09T12:55:00Z</time>
      </trkpt>
      <trkpt lat="36.779196001589298" lon="-4.727199012413621">
        <ele>94.349999999999994</ele>
        <time>2025-05-09T12:55:01Z</time>
      </trkpt>
      <trkpt lat="36.779062980785966" lon="-4.727342007681727">
        <ele>94.349999999999994</ele>
        <time>2025-05-09T12:55:02Z</time>
      </trkpt>
      <trkpt lat="36.777893034741282" lon="-4.728428972885013">
        <ele>98.670000000000002</ele>
        <time>2025-05-09T12:55:10Z</time>
      </trkpt>
      <trkpt lat="36.776494011282921" lon="-4.729114025831223">
        <ele>110.20999999999999</ele>
        <time>2025-05-09T12:55:19Z</time>
      </trkpt>
      <trkpt lat="36.775179980322719" lon="-4.729334972798824">
        <ele>118.38</ele>
        <time>2025-05-09T12:55:28Z</time>
      </trkpt>
      <trkpt lat="36.774676982313395" lon="-4.729437986388803">
        <ele>119.81999999999999</ele>
        <time>2025-05-09T12:55:31Z</time>
      </trkpt>
      <trkpt lat="36.774522000923753" lon="-4.729509986937046">
        <ele>120.3</ele>
        <time>2025-05-09T12:55:32Z</time>
      </trkpt>
      <trkpt lat="36.774377999827266" lon="-4.729609983041883">
        <ele>120.78</ele>
        <time>2025-05-09T12:55:33Z</time>
      </trkpt>
      <trkpt lat="36.774253025650978" lon="-4.729739986360073">
        <ele>121.26000000000001</ele>
        <time>2025-05-09T12:55:34Z</time>
      </trkpt>
      <trkpt lat="36.774145988747478" lon="-4.729894967749715">
        <ele>121.26000000000001</ele>
        <time>2025-05-09T12:55:35Z</time>
      </trkpt>
      <trkpt lat="36.77404498681426" lon="-4.730065958574414">
        <ele>121.73999999999999</ele>
        <time>2025-05-09T12:55:36Z</time>
      </trkpt>
      <trkpt lat="36.773964017629623" lon="-4.730255976319313">
        <ele>121.73999999999999</ele>
        <time>2025-05-09T12:55:37Z</time>
      </trkpt>
      <trkpt lat="36.773139992728829" lon="-4.732106029987335">
        <ele>120.78</ele>
        <time>2025-05-09T12:55:46Z</time>
      </trkpt>
      <trkpt lat="36.772412024438381" lon="-4.733577976003289">
        <ele>115.5</ele>
        <time>2025-05-09T12:55:53Z</time>
      </trkpt>
      <trkpt lat="36.772276991978288" lon="-4.733757013455033">
        <ele>114.53</ele>
        <time>2025-05-09T12:55:54Z</time>
      </trkpt>
      <trkpt lat="36.771425977349281" lon="-4.734935006126761">
        <ele>107.31999999999999</ele>
        <time>2025-05-09T12:56:01Z</time>
      </trkpt>
      <trkpt lat="36.771340984851122" lon="-4.735122006386519">
        <ele>105.88</ele>
        <time>2025-05-09T12:56:02Z</time>
      </trkpt>
      <trkpt lat="36.771267978474498" lon="-4.735329961404204">
        <ele>105.40000000000001</ele>
        <time>2025-05-09T12:56:03Z</time>
      </trkpt>
      <trkpt lat="36.771219028159976" lon="-4.735540011897683">
        <ele>104.44</ele>
        <time>2025-05-09T12:56:04Z</time>
      </trkpt>
      <trkpt lat="36.771180974319577" lon="-4.735762970522046">
        <ele>103.48</ele>
        <time>2025-05-09T12:56:05Z</time>
      </trkpt>
      <trkpt lat="36.771150967106223" lon="-4.73598500713706">
        <ele>102.52</ele>
        <time>2025-05-09T12:56:06Z</time>
      </trkpt>
      <trkpt lat="36.771039990708232" lon="-4.737764988094568">
        <ele>97.709999999999994</ele>
        <time>2025-05-09T12:56:15Z</time>
      </trkpt>
      <trkpt lat="36.77099296823144" lon="-4.738133959472179">
        <ele>97.230000000000004</ele>
        <time>2025-05-09T12:56:20Z</time>
      </trkpt>
      <trkpt lat="36.770968995988369" lon="-4.738255999982357">
        <ele>96.75</ele>
        <time>2025-05-09T12:56:29Z</time>
      </trkpt>
      <trkpt lat="36.770968995988369" lon="-4.738255999982357">
        <ele>96.75</ele>
        <time>2025-05-09T12:56:49Z</time>
      </trkpt>
      <trkpt lat="36.770905964076519" lon="-4.738513994961977">
        <ele>93.390000000000001</ele>
        <time>2025-05-09T12:56:58Z</time>
      </trkpt>
      <trkpt lat="36.770853996276855" lon="-4.738490022718906">
        <ele>93.390000000000001</ele>
        <time>2025-05-09T12:56:59Z</time>
      </trkpt>
      <trkpt lat="36.770780989900231" lon="-4.738458003848791">
        <ele>92.900000000000006</ele>
        <time>2025-05-09T12:57:00Z</time>
      </trkpt>
      <trkpt lat="36.770699014887214" lon="-4.738419027999044">
        <ele>92.900000000000006</ele>
        <time>2025-05-09T12:57:01Z</time>
      </trkpt>
      <trkpt lat="36.770608993247151" lon="-4.73836999386549">
        <ele>92.420000000000002</ele>
        <time>2025-05-09T12:57:02Z</time>
      </trkpt>
      <trkpt lat="36.769752027466893" lon="-4.737782003358007">
        <ele>91.939999999999998</ele>
        <time>2025-05-09T12:57:09Z</time>
      </trkpt>
      <trkpt lat="36.768873017281294" lon="-4.736595964059234">
        <ele>92.420000000000002</ele>
        <time>2025-05-09T12:57:16Z</time>
      </trkpt>
      <trkpt lat="36.768111018463969" lon="-4.734840961173177">
        <ele>94.349999999999994</ele>
        <time>2025-05-09T12:57:24Z</time>
      </trkpt>
      <trkpt lat="36.767066968604922" lon="-4.732855958864093">
        <ele>95.790000000000006</ele>
        <time>2025-05-09T12:57:34Z</time>
      </trkpt>
      <trkpt lat="36.765957958996296" lon="-4.731821967288852">
        <ele>92.900000000000006</ele>
        <time>2025-05-09T12:57:41Z</time>
      </trkpt>
      <trkpt lat="36.763715967535973" lon="-4.730257987976074">
        <ele>86.659999999999997</ele>
        <time>2025-05-09T12:57:54Z</time>
      </trkpt>
      <trkpt lat="36.7623779643327" lon="-4.729736968874931">
        <ele>86.659999999999997</ele>
        <time>2025-05-09T12:58:01Z</time>
      </trkpt>
      <trkpt lat="36.760288020595908" lon="-4.729678966104984">
        <ele>85.689999999999998</ele>
        <time>2025-05-09T12:58:11Z</time>
      </trkpt>
      <trkpt lat="36.759878983721137" lon="-4.72958299331367">
        <ele>85.209999999999994</ele>
        <time>2025-05-09T12:58:13Z</time>
      </trkpt>
      <trkpt lat="36.759677985683084" lon="-4.729533959180117">
        <ele>85.209999999999994</ele>
        <time>2025-05-09T12:58:14Z</time>
      </trkpt>
      <trkpt lat="36.759486962109804" lon="-4.729455001652241">
        <ele>84.730000000000004</ele>
        <time>2025-05-09T12:58:15Z</time>
      </trkpt>
      <trkpt lat="36.75930499099195" lon="-4.729337990283966">
        <ele>84.730000000000004</ele>
        <time>2025-05-09T12:58:16Z</time>
      </trkpt>
      <trkpt lat="36.759118996560574" lon="-4.72921896725893">
        <ele>84.730000000000004</ele>
        <time>2025-05-09T12:58:17Z</time>
      </trkpt>
      <trkpt lat="36.75894096493721" lon="-4.729098016396165">
        <ele>84.25</ele>
        <time>2025-05-09T12:58:18Z</time>
      </trkpt>
      <trkpt lat="36.75876896828413" lon="-4.728946974501014">
        <ele>84.25</ele>
        <time>2025-05-09T12:58:19Z</time>
      </trkpt>
      <trkpt lat="36.758599989116192" lon="-4.728796016424894">
        <ele>83.769999999999996</ele>
        <time>2025-05-09T12:58:20Z</time>
      </trkpt>
      <trkpt lat="36.756897959858179" lon="-4.726859964430332">
        <ele>81.849999999999994</ele>
        <time>2025-05-09T12:58:31Z</time>
      </trkpt>
      <trkpt lat="36.755591975525022" lon="-4.725098004564643">
        <ele>78.969999999999999</ele>
        <time>2025-05-09T12:58:41Z</time>
      </trkpt>
      <trkpt lat="36.755491979420185" lon="-4.724888037890196">
        <ele>78.480000000000004</ele>
        <time>2025-05-09T12:58:42Z</time>
      </trkpt>
      <trkpt lat="36.755392989143729" lon="-4.724679999053478">
        <ele>78</ele>
        <time>2025-05-09T12:58:43Z</time>
      </trkpt>
      <trkpt lat="36.754710031673312" lon="-4.722357960417867">
        <ele>70.790000000000006</ele>
        <time>2025-05-09T12:58:53Z</time>
      </trkpt>
      <trkpt lat="36.754356985911727" lon="-4.721785979345441">
        <ele>68.870000000000005</ele>
        <time>2025-05-09T12:58:56Z</time>
      </trkpt>
      <trkpt lat="36.754207033663988" lon="-4.721636027097702">
        <ele>68.390000000000001</ele>
        <time>2025-05-09T12:58:57Z</time>
      </trkpt>
      <trkpt lat="36.754056997597218" lon="-4.721484985202551">
        <ele>67.909999999999997</ele>
        <time>2025-05-09T12:58:58Z</time>
      </trkpt>
      <trkpt lat="36.753905033692718" lon="-4.721334027126432">
        <ele>67.909999999999997</ele>
        <time>2025-05-09T12:58:59Z</time>
      </trkpt>
      <trkpt lat="36.753727002069354" lon="-4.721234031021595">
        <ele>67.430000000000007</ele>
        <time>2025-05-09T12:59:00Z</time>
      </trkpt>
      <trkpt lat="36.75354796461761" lon="-4.721135040745139">
        <ele>67.430000000000007</ele>
        <time>2025-05-09T12:59:01Z</time>
      </trkpt>
      <trkpt lat="36.752132009714842" lon="-4.720402965322137">
        <ele>65.989999999999995</ele>
        <time>2025-05-09T12:59:09Z</time>
      </trkpt>
      <trkpt lat="36.749891024082899" lon="-4.719087006524205">
        <ele>68.390000000000001</ele>
        <time>2025-05-09T12:59:22Z</time>
      </trkpt>
      <trkpt lat="36.749759009107947" lon="-4.718909980729222">
        <ele>69.349999999999994</ele>
        <time>2025-05-09T12:59:23Z</time>
      </trkpt>
      <trkpt lat="36.749625988304615" lon="-4.71873396076262">
        <ele>69.349999999999994</ele>
        <time>2025-05-09T12:59:24Z</time>
      </trkpt>
      <trkpt lat="36.749524986371398" lon="-4.718536986038089">
        <ele>69.829999999999998</ele>
        <time>2025-05-09T12:59:25Z</time>
      </trkpt>
      <trkpt lat="36.749423984438181" lon="-4.718330958858132">
        <ele>70.310000000000002</ele>
        <time>2025-05-09T12:59:26Z</time>
      </trkpt>
      <trkpt lat="36.749323988333344" lon="-4.718125015497208">
        <ele>70.790000000000006</ele>
        <time>2025-05-09T12:59:27Z</time>
      </trkpt>
      <trkpt lat="36.748469034209847" lon="-4.715855028480291">
        <ele>72.719999999999999</ele>
        <time>2025-05-09T12:59:38Z</time>
      </trkpt>
      <trkpt lat="36.747716004028916" lon="-4.713471969589591">
        <ele>66.469999999999999</ele>
        <time>2025-05-09T12:59:49Z</time>
      </trkpt>
      <trkpt lat="36.747232032939792" lon="-4.712186018005014">
        <ele>62.140000000000001</ele>
        <time>2025-05-09T12:59:55Z</time>
      </trkpt>
      <trkpt lat="36.747106974944472" lon="-4.712013015523553">
        <ele>61.18</ele>
        <time>2025-05-09T12:59:56Z</time>
      </trkpt>
      <trkpt lat="36.746816961094737" lon="-4.711714033037424">
        <ele>59.740000000000002</ele>
        <time>2025-05-09T12:59:58Z</time>
      </trkpt>
      <trkpt lat="36.746668014675379" lon="-4.711565002799034">
        <ele>58.780000000000001</ele>
        <time>2025-05-09T12:59:59Z</time>
      </trkpt>
      <trkpt lat="36.746504986658692" lon="-4.711440028622747">
        <ele>58.299999999999997</ele>
        <time>2025-05-09T13:00:00Z</time>
      </trkpt>
      <trkpt lat="36.746329972520471" lon="-4.711345983669162">
        <ele>57.82</ele>
        <time>2025-05-09T13:00:01Z</time>
      </trkpt>
      <trkpt lat="36.7461540363729" lon="-4.711267026141286">
        <ele>57.340000000000003</ele>
        <time>2025-05-09T13:00:02Z</time>
      </trkpt>
      <trkpt lat="36.745978016406298" lon="-4.711216986179352">
        <ele>56.859999999999999</ele>
        <time>2025-05-09T13:00:03Z</time>
      </trkpt>
      <trkpt lat="36.745797973126173" lon="-4.711197037249804">
        <ele>56.369999999999997</ele>
        <time>2025-05-09T13:00:04Z</time>
      </trkpt>
      <trkpt lat="36.745616002008319" lon="-4.711177004501224">
        <ele>55.890000000000001</ele>
        <time>2025-05-09T13:00:05Z</time>
      </trkpt>
      <trkpt lat="36.745430007576942" lon="-4.711163006722927">
        <ele>55.409999999999997</ele>
        <time>2025-05-09T13:00:06Z</time>
      </trkpt>
      <trkpt lat="36.742542022839189" lon="-4.711389988660812">
        <ele>50.130000000000003</ele>
        <time>2025-05-09T13:00:21Z</time>
      </trkpt>
      <trkpt lat="36.739253969863057" lon="-4.711547987535596">
        <ele>49.649999999999999</ele>
        <time>2025-05-09T13:00:38Z</time>
      </trkpt>
      <trkpt lat="36.737550012767315" lon="-4.71097500063479">
        <ele>50.609999999999999</ele>
        <time>2025-05-09T13:00:47Z</time>
      </trkpt>
      <trkpt lat="36.735283965244889" lon="-4.710010997951031">
        <ele>50.609999999999999</ele>
        <time>2025-05-09T13:00:59Z</time>
      </trkpt>
      <trkpt lat="36.733162002637982" lon="-4.709425019100308">
        <ele>50.609999999999999</ele>
        <time>2025-05-09T13:01:10Z</time>
      </trkpt>
      <trkpt lat="36.730683976784348" lon="-4.709203988313675">
        <ele>61.18</ele>
        <time>2025-05-09T13:01:23Z</time>
      </trkpt>
      <trkpt lat="36.728106960654259" lon="-4.709204994142056">
        <ele>57.340000000000003</ele>
        <time>2025-05-09T13:01:36Z</time>
      </trkpt>
      <trkpt lat="36.725372029468417" lon="-4.709227038547397">
        <ele>47.719999999999999</ele>
        <time>2025-05-09T13:01:50Z</time>
      </trkpt>
      <trkpt lat="36.72365901991725" lon="-4.70887097530067">
        <ele>45.799999999999997</ele>
        <time>2025-05-09T13:01:59Z</time>
      </trkpt>
      <trkpt lat="36.722024967893958" lon="-4.708427991718054">
        <ele>42.920000000000002</ele>
        <time>2025-05-09T13:02:08Z</time>
      </trkpt>
      <trkpt lat="36.721345027908683" lon="-4.708056002855301">
        <ele>42.920000000000002</ele>
        <time>2025-05-09T13:02:12Z</time>
      </trkpt>
      <trkpt lat="36.721192980185151" lon="-4.707919964566827">
        <ele>42.920000000000002</ele>
        <time>2025-05-09T13:02:13Z</time>
      </trkpt>
      <trkpt lat="36.720913024619222" lon="-4.707591980695725">
        <ele>43.399999999999999</ele>
        <time>2025-05-09T13:02:15Z</time>
      </trkpt>
      <trkpt lat="36.720788972452283" lon="-4.707412021234632">
        <ele>43.399999999999999</ele>
        <time>2025-05-09T13:02:16Z</time>
      </trkpt>
      <trkpt lat="36.720001995563507" lon="-4.705760031938553">
        <ele>47.240000000000002</ele>
        <time>2025-05-09T13:02:24Z</time>
      </trkpt>
      <trkpt lat="36.719951033592224" lon="-4.705531960353255">
        <ele>48.200000000000003</ele>
        <time>2025-05-09T13:02:25Z</time>
      </trkpt>
      <trkpt lat="36.719802003353834" lon="-4.704603999853134">
        <ele>50.130000000000003</ele>
        <time>2025-05-09T13:02:29Z</time>
      </trkpt>
      <trkpt lat="36.719791023060679" lon="-4.704368971288204">
        <ele>50.609999999999999</ele>
        <time>2025-05-09T13:02:30Z</time>
      </trkpt>
      <trkpt lat="36.719806026667356" lon="-4.704128997400403">
        <ele>51.090000000000003</ele>
        <time>2025-05-09T13:02:31Z</time>
      </trkpt>
      <trkpt lat="36.719821030274034" lon="-4.703891035169363">
        <ele>51.090000000000003</ele>
        <time>2025-05-09T13:02:32Z</time>
      </trkpt>
      <trkpt lat="36.719836033880711" lon="-4.703655000776053">
        <ele>51.090000000000003</ele>
        <time>2025-05-09T13:02:33Z</time>
      </trkpt>
      <trkpt lat="36.719850031659007" lon="-4.703423995524645">
        <ele>51.57</ele>
        <time>2025-05-09T13:02:34Z</time>
      </trkpt>
      <trkpt lat="36.72013602219522" lon="-4.699726989492774">
        <ele>53.490000000000002</ele>
        <time>2025-05-09T13:02:50Z</time>
      </trkpt>
      <trkpt lat="36.720228977501392" lon="-4.697218034416437">
        <ele>54.93</ele>
        <time>2025-05-09T13:03:00Z</time>
      </trkpt>
      <trkpt lat="36.720263008028269" lon="-4.694593995809555">
        <ele>57.82</ele>
        <time>2025-05-09T13:03:10Z</time>
      </trkpt>
      <trkpt lat="36.719855982810259" lon="-4.692265000194311">
        <ele>61.659999999999997</ele>
        <time>2025-05-09T13:03:20Z</time>
      </trkpt>
      <trkpt lat="36.718939002603292" lon="-4.68865399248898">
        <ele>60.700000000000003</ele>
        <time>2025-05-09T13:03:36Z</time>
      </trkpt>
      <trkpt lat="36.718839006498456" lon="-4.686330026015639">
        <ele>61.18</ele>
        <time>2025-05-09T13:03:46Z</time>
      </trkpt>
      <trkpt lat="36.719156010076404" lon="-4.684281991794705">
        <ele>63.100000000000001</ele>
        <time>2025-05-09T13:03:55Z</time>
      </trkpt>
      <trkpt lat="36.719956984743476" lon="-4.681394007056952">
        <ele>64.549999999999997</ele>
        <time>2025-05-09T13:04:08Z</time>
      </trkpt>
      <trkpt lat="36.720629967749119" lon="-4.678197987377644">
        <ele>66.950000000000003</ele>
        <time>2025-05-09T13:04:22Z</time>
      </trkpt>
      <trkpt lat="36.720728036016226" lon="-4.67537404038012">
        <ele>66.469999999999999</ele>
        <time>2025-05-09T13:04:34Z</time>
      </trkpt>
      <trkpt lat="36.720392005518079" lon="-4.672826025635004">
        <ele>64.549999999999997</ele>
        <time>2025-05-09T13:04:45Z</time>
      </trkpt>
      <trkpt lat="36.719592036679387" lon="-4.670177008956671">
        <ele>61.659999999999997</ele>
        <time>2025-05-09T13:04:57Z</time>
      </trkpt>
      <trkpt lat="36.718284962698817" lon="-4.667569985613227">
        <ele>57.82</ele>
        <time>2025-05-09T13:05:10Z</time>
      </trkpt>
      <trkpt lat="36.716830031946301" lon="-4.665123978629708">
        <ele>53.009999999999998</ele>
        <time>2025-05-09T13:05:23Z</time>
      </trkpt>
      <trkpt lat="36.715280972421169" lon="-4.662094004452229">
        <ele>48.200000000000003</ele>
        <time>2025-05-09T13:05:38Z</time>
      </trkpt>
      <trkpt lat="36.714548980817199" lon="-4.659713041037321">
        <ele>46.280000000000001</ele>
        <time>2025-05-09T13:05:49Z</time>
      </trkpt>
      <trkpt lat="36.714271036908031" lon="-4.65743400156498">
        <ele>46.280000000000001</ele>
        <time>2025-05-09T13:05:59Z</time>
      </trkpt>
      <trkpt lat="36.714370027184486" lon="-4.654596978798509">
        <ele>46.759999999999998</ele>
        <time>2025-05-09T13:06:11Z</time>
      </trkpt>
      <trkpt lat="36.714789038524032" lon="-4.651335999369621">
        <ele>43.880000000000003</ele>
        <time>2025-05-09T13:06:25Z</time>
      </trkpt>
      <trkpt lat="36.715480964630842" lon="-4.647759022191167">
        <ele>43.399999999999999</ele>
        <time>2025-05-09T13:06:41Z</time>
      </trkpt>
      <trkpt lat="36.716262996196747" lon="-4.64422001503408">
        <ele>45.799999999999997</ele>
        <time>2025-05-09T13:06:57Z</time>
      </trkpt>
      <trkpt lat="36.716520991176367" lon="-4.641777025535703">
        <ele>45.32</ele>
        <time>2025-05-09T13:07:07Z</time>
      </trkpt>
      <trkpt lat="36.716673038899899" lon="-4.637956973165274">
        <ele>38.109999999999999</ele>
        <time>2025-05-09T13:07:23Z</time>
      </trkpt>
      <trkpt lat="36.716782003641129" lon="-4.635008974000812">
        <ele>34.740000000000002</ele>
        <time>2025-05-09T13:07:36Z</time>
      </trkpt>
      <trkpt lat="36.716895997524261" lon="-4.63193197734654">
        <ele>36.189999999999998</ele>
        <time>2025-05-09T13:07:49Z</time>
      </trkpt>
      <trkpt lat="36.71710898168385" lon="-4.628593968227506">
        <ele>47.240000000000002</ele>
        <time>2025-05-09T13:08:03Z</time>
      </trkpt>
      <trkpt lat="36.717392960563302" lon="-4.625137019902468">
        <ele>60.219999999999999</ele>
        <time>2025-05-09T13:08:18Z</time>
      </trkpt>
      <trkpt lat="36.717589013278484" lon="-4.622882958501577">
        <ele>65.989999999999995</ele>
        <time>2025-05-09T13:08:28Z</time>
      </trkpt>
      <trkpt lat="36.717758998274803" lon="-4.620908014476299">
        <ele>62.619999999999997</ele>
        <time>2025-05-09T13:08:36Z</time>
      </trkpt>
      <trkpt lat="36.718012969940901" lon="-4.618137963116169">
        <ele>56.859999999999999</ele>
        <time>2025-05-09T13:08:47Z</time>
      </trkpt>
      <trkpt lat="36.71854798682034" lon="-4.615313010290265">
        <ele>54.93</ele>
        <time>2025-05-09T13:08:59Z</time>
      </trkpt>
      <trkpt lat="36.719506038352847" lon="-4.611865030601621">
        <ele>60.700000000000003</ele>
        <time>2025-05-09T13:09:14Z</time>
      </trkpt>
      <trkpt lat="36.720340959727764" lon="-4.608348989859223">
        <ele>66.469999999999999</ele>
        <time>2025-05-09T13:09:29Z</time>
      </trkpt>
      <trkpt lat="36.720334002748132" lon="-4.606166006997228">
        <ele>65.510000000000005</ele>
        <time>2025-05-09T13:09:38Z</time>
      </trkpt>
      <trkpt lat="36.719870986416936" lon="-4.603753024712205">
        <ele>59.259999999999998</ele>
        <time>2025-05-09T13:09:48Z</time>
      </trkpt>
      <trkpt lat="36.719245025888085" lon="-4.600754985585809">
        <ele>51.090000000000003</ele>
        <time>2025-05-09T13:10:01Z</time>
      </trkpt>
      <trkpt lat="36.718596015125513" lon="-4.597370959818363">
        <ele>49.649999999999999</ele>
        <time>2025-05-09T13:10:15Z</time>
      </trkpt>
      <trkpt lat="36.718382025137544" lon="-4.594703000038862">
        <ele>47.240000000000002</ele>
        <time>2025-05-09T13:10:26Z</time>
      </trkpt>
      <trkpt lat="36.718459976837039" lon="-4.592293035238981">
        <ele>47.240000000000002</ele>
        <time>2025-05-09T13:10:36Z</time>
      </trkpt>
      <trkpt lat="36.718960963189602" lon="-4.589105984196067">
        <ele>40.030000000000001</ele>
        <time>2025-05-09T13:10:49Z</time>
      </trkpt>
      <trkpt lat="36.719710975885391" lon="-4.585299007594585">
        <ele>30.420000000000002</ele>
        <time>2025-05-09T13:11:05Z</time>
      </trkpt>
      <trkpt lat="36.720279017463326" lon="-4.58251403644681">
        <ele>29.940000000000001</ele>
        <time>2025-05-09T13:11:17Z</time>
      </trkpt>
      <trkpt lat="36.720958035439253" lon="-4.579104026779532">
        <ele>37.149999999999999</ele>
        <time>2025-05-09T13:11:31Z</time>
      </trkpt>
      <trkpt lat="36.721236985176802" lon="-4.57662901841104">
        <ele>37.149999999999999</ele>
        <time>2025-05-09T13:11:41Z</time>
      </trkpt>
      <trkpt lat="36.721035987138748" lon="-4.574389038607478">
        <ele>32.340000000000003</ele>
        <time>2025-05-09T13:11:50Z</time>
      </trkpt>
      <trkpt lat="36.720392005518079" lon="-4.572155009955168">
        <ele>31.379999999999999</ele>
        <time>2025-05-09T13:12:00Z</time>
      </trkpt>
      <trkpt lat="36.719354996457696" lon="-4.569235006347299">
        <ele>40.030000000000001</ele>
        <time>2025-05-09T13:12:13Z</time>
      </trkpt>
      <trkpt lat="36.718874964863062" lon="-4.567042971029878">
        <ele>45.32</ele>
        <time>2025-05-09T13:12:22Z</time>
      </trkpt>
      <trkpt lat="36.718533989042044" lon="-4.564166972413659">
        <ele>46.759999999999998</ele>
        <time>2025-05-09T13:12:34Z</time>
      </trkpt>
      <trkpt lat="36.718066027387977" lon="-4.561464982107282">
        <ele>43.880000000000003</ele>
        <time>2025-05-09T13:12:45Z</time>
      </trkpt>
      <trkpt lat="36.717289024963975" lon="-4.559235982596874">
        <ele>38.109999999999999</ele>
        <time>2025-05-09T13:12:55Z</time>
      </trkpt>
      <trkpt lat="36.716129975393414" lon="-4.55619896762073">
        <ele>26.09</ele>
        <time>2025-05-09T13:13:09Z</time>
      </trkpt>
      <trkpt lat="36.715673999860883" lon="-4.554592994973064">
        <ele>24.649999999999999</ele>
        <time>2025-05-09T13:13:16Z</time>
      </trkpt>
      <trkpt lat="36.714902026578784" lon="-4.551581041887403">
        <ele>26.09</ele>
        <time>2025-05-09T13:13:29Z</time>
      </trkpt>
      <trkpt lat="36.714102979749441" lon="-4.548425003886223">
        <ele>29.460000000000001</ele>
        <time>2025-05-09T13:13:42Z</time>
      </trkpt>
      <trkpt lat="36.713158003985882" lon="-4.544671000912786">
        <ele>30.420000000000002</ele>
        <time>2025-05-09T13:13:58Z</time>
      </trkpt>
      <trkpt lat="36.712332973256707" lon="-4.541430976241827">
        <ele>23.210000000000001</ele>
        <time>2025-05-09T13:14:12Z</time>
      </trkpt>
      <trkpt lat="36.711668036878109" lon="-4.538816995918751">
        <ele>20.809999999999999</ele>
        <time>2025-05-09T13:14:23Z</time>
      </trkpt>
      <trkpt lat="36.710970997810364" lon="-4.535532966256142">
        <ele>21.289999999999999</ele>
        <time>2025-05-09T13:14:37Z</time>
      </trkpt>
      <trkpt lat="36.710750972852111" lon="-4.532640958204866">
        <ele>21.77</ele>
        <time>2025-05-09T13:14:49Z</time>
      </trkpt>
      <trkpt lat="36.710863038897514" lon="-4.530314980074763">
        <ele>25.609999999999999</ele>
        <time>2025-05-09T13:14:59Z</time>
      </trkpt>
      <trkpt lat="36.711141988635063" lon="-4.527104962617159">
        <ele>31.379999999999999</ele>
        <time>2025-05-09T13:15:12Z</time>
      </trkpt>
      <trkpt lat="36.711364025250077" lon="-4.524605982005596">
        <ele>30.420000000000002</ele>
        <time>2025-05-09T13:15:22Z</time>
      </trkpt>
      <trkpt lat="36.711385985836387" lon="-4.522144971415401">
        <ele>29.460000000000001</ele>
        <time>2025-05-09T13:15:32Z</time>
      </trkpt>
      <trkpt lat="36.710945013910532" lon="-4.519691001623869">
        <ele>33.780000000000001</ele>
        <time>2025-05-09T13:15:42Z</time>
      </trkpt>
      <trkpt lat="36.710808975622058" lon="-4.517238037660718">
        <ele>35.229999999999997</ele>
        <time>2025-05-09T13:15:52Z</time>
      </trkpt>
      <trkpt lat="36.711107036098838" lon="-4.51479597017169">
        <ele>33.299999999999997</ele>
        <time>2025-05-09T13:16:02Z</time>
      </trkpt>
      <trkpt lat="36.711832992732525" lon="-4.511275989934802">
        <ele>30.899999999999999</ele>
        <time>2025-05-09T13:16:17Z</time>
      </trkpt>
      <trkpt lat="36.712322998791933" lon="-4.509027963504195">
        <ele>34.259999999999998</ele>
        <time>2025-05-09T13:16:27Z</time>
      </trkpt>
      <trkpt lat="36.712851980701089" lon="-4.506310969591141">
        <ele>38.109999999999999</ele>
        <time>2025-05-09T13:16:38Z</time>
      </trkpt>
      <trkpt lat="36.713219024240971" lon="-4.502883022651076">
        <ele>35.229999999999997</ele>
        <time>2025-05-09T13:16:52Z</time>
      </trkpt>
      <trkpt lat="36.713491016998887" lon="-4.499017959460616">
        <ele>37.149999999999999</ele>
        <time>2025-05-09T13:17:08Z</time>
      </trkpt>
      <trkpt lat="36.713707018643618" lon="-4.495965018868446">
        <ele>41.469999999999999</ele>
        <time>2025-05-09T13:17:21Z</time>
      </trkpt>
      <trkpt lat="36.713903993368149" lon="-4.492700016126037">
        <ele>48.200000000000003</ele>
        <time>2025-05-09T13:17:35Z</time>
      </trkpt>
      <trkpt lat="36.713963001966476" lon="-4.490528013557196">
        <ele>52.530000000000001</ele>
        <time>2025-05-09T13:17:45Z</time>
      </trkpt>
      <trkpt lat="36.71390600502491" lon="-4.487762991338968">
        <ele>58.299999999999997</ele>
        <time>2025-05-09T13:17:58Z</time>
      </trkpt>
      <trkpt lat="36.713926959782839" lon="-4.485465008765459">
        <ele>58.780000000000001</ele>
        <time>2025-05-09T13:18:08Z</time>
      </trkpt>
      <trkpt lat="36.713926959782839" lon="-4.483843026682735">
        <ele>54.450000000000003</ele>
        <time>2025-05-09T13:18:17Z</time>
      </trkpt>
      <trkpt lat="36.713926959782839" lon="-4.483359977602959">
        <ele>53.009999999999998</ele>
        <time>2025-05-09T13:18:22Z</time>
      </trkpt>
      <trkpt lat="36.713926959782839" lon="-4.483285965397954">
        <ele>52.530000000000001</ele>
        <time>2025-05-09T13:18:23Z</time>
      </trkpt>
      <trkpt lat="36.713912039995193" lon="-4.48314699344337">
        <ele>52.530000000000001</ele>
        <time>2025-05-09T13:18:24Z</time>
      </trkpt>
      <trkpt lat="36.713868035003543" lon="-4.483073987066746">
        <ele>52.049999999999997</ele>
        <time>2025-05-09T13:18:25Z</time>
      </trkpt>
      <trkpt lat="36.71386300586164" lon="-4.483066024258733">
        <ele>51.57</ele>
        <time>2025-05-09T13:18:26Z</time>
      </trkpt>
      <trkpt lat="36.713723028078675" lon="-4.482980025932193">
        <ele>51.090000000000003</ele>
        <time>2025-05-09T13:18:27Z</time>
      </trkpt>
      <trkpt lat="36.71367097645998" lon="-4.482980025932193">
        <ele>49.649999999999999</ele>
        <time>2025-05-09T13:18:28Z</time>
      </trkpt>
      <trkpt lat="36.713596964254975" lon="-4.482980025932193">
        <ele>48.200000000000003</ele>
        <time>2025-05-09T13:18:29Z</time>
      </trkpt>
      <trkpt lat="36.713506020605564" lon="-4.482980025932193">
        <ele>46.759999999999998</ele>
        <time>2025-05-09T13:18:30Z</time>
      </trkpt>
      <trkpt lat="36.712413020431995" lon="-4.482959993183613">
        <ele>44.840000000000003</ele>
        <time>2025-05-09T13:18:41Z</time>
      </trkpt>
      <trkpt lat="36.711781024932861" lon="-4.482980025932193">
        <ele>46.280000000000001</ele>
        <time>2025-05-09T13:18:48Z</time>
      </trkpt>
      <trkpt lat="36.711675999686122" lon="-4.482980025932193">
        <ele>46.280000000000001</ele>
        <time>2025-05-09T13:18:49Z</time>
      </trkpt>
      <trkpt lat="36.710557015612721" lon="-4.482937026768923">
        <ele>49.159999999999997</ele>
        <time>2025-05-09T13:18:59Z</time>
      </trkpt>
      <trkpt lat="36.710450984537601" lon="-4.482885980978608">
        <ele>49.649999999999999</ele>
        <time>2025-05-09T13:19:00Z</time>
      </trkpt>
      <trkpt lat="36.709352033212781" lon="-4.482334032654762">
        <ele>53.490000000000002</ele>
        <time>2025-05-09T13:19:10Z</time>
      </trkpt>
      <trkpt lat="36.709236027672887" lon="-4.482290027663112">
        <ele>53.490000000000002</ele>
        <time>2025-05-09T13:19:11Z</time>
      </trkpt>
      <trkpt lat="36.708714002743363" lon="-4.482162036001682">
        <ele>53.009999999999998</ele>
        <time>2025-05-09T13:19:18Z</time>
      </trkpt>
      <trkpt lat="36.708648959174752" lon="-4.482143009081483">
        <ele>52.530000000000001</ele>
        <time>2025-05-09T13:19:20Z</time>
      </trkpt>
      <trkpt lat="36.708541000261903" lon="-4.482315005734563">
        <ele>52.530000000000001</ele>
        <time>2025-05-09T13:19:21Z</time>
      </trkpt>
      <trkpt lat="36.708541000261903" lon="-4.482315005734563">
        <ele>52.530000000000001</ele>
        <time>2025-05-09T13:19:22Z</time>
      </trkpt>
      <trkpt lat="36.708491966128349" lon="-4.482344007119536">
        <ele>53.009999999999998</ele>
        <time>2025-05-09T13:19:23Z</time>
      </trkpt>
      <trkpt lat="36.708432035520673" lon="-4.482379965484142">
        <ele>53.009999999999998</ele>
        <time>2025-05-09T13:19:24Z</time>
      </trkpt>
      <trkpt lat="36.708374032750726" lon="-4.482415001839399">
        <ele>53.009999999999998</ele>
        <time>2025-05-09T13:19:25Z</time>
      </trkpt>
      <trkpt lat="36.70827898196876" lon="-4.482407039031386">
        <ele>53.490000000000002</ele>
        <time>2025-05-09T13:19:26Z</time>
      </trkpt>
      <trkpt lat="36.708216033875942" lon="-4.482360016554594">
        <ele>53.969999999999999</ele>
        <time>2025-05-09T13:19:27Z</time>
      </trkpt>
      <trkpt lat="36.708147972822189" lon="-4.482280975207686">
        <ele>54.450000000000003</ele>
        <time>2025-05-09T13:19:28Z</time>
      </trkpt>
      <trkpt lat="36.70812601223588" lon="-4.482181984931231">
        <ele>54.450000000000003</ele>
        <time>2025-05-09T13:19:29Z</time>
      </trkpt>
      <trkpt lat="36.708137998357415" lon="-4.482079977169633">
        <ele>54.450000000000003</ele>
        <time>2025-05-09T13:19:30Z</time>
      </trkpt>
      <trkpt lat="36.708183009177446" lon="-4.48200898244977">
        <ele>54.450000000000003</ele>
        <time>2025-05-09T13:19:31Z</time>
      </trkpt>
      <trkpt lat="36.708218967542052" lon="-4.481949973851442">
        <ele>53.969999999999999</ele>
        <time>2025-05-09T13:19:32Z</time>
      </trkpt>
      <trkpt lat="36.708218967542052" lon="-4.481949973851442">
        <ele>53.490000000000002</ele>
        <time>2025-05-09T13:19:33Z</time>
      </trkpt>
      <trkpt lat="36.708361962810159" lon="-4.481733972206712">
        <ele>53.009999999999998</ele>
        <time>2025-05-09T13:19:35Z</time>
      </trkpt>
      <trkpt lat="36.708369003608823" lon="-4.481660965830088">
        <ele>52.530000000000001</ele>
        <time>2025-05-09T13:19:36Z</time>
      </trkpt>
      <trkpt lat="36.708348970860243" lon="-4.48147295974195">
        <ele>51.57</ele>
        <time>2025-05-09T13:19:38Z</time>
      </trkpt>
      <trkpt lat="36.708338996395469" lon="-4.48138696141541">
        <ele>51.090000000000003</ele>
        <time>2025-05-09T13:19:39Z</time>
      </trkpt>
      <trkpt lat="36.708327010273933" lon="-4.481289982795715">
        <ele>50.609999999999999</ele>
        <time>2025-05-09T13:19:40Z</time>
      </trkpt>
      <trkpt lat="36.708150990307331" lon="-4.480371996760368">
        <ele>45.799999999999997</ele>
        <time>2025-05-09T13:19:50Z</time>
      </trkpt>
      <trkpt lat="36.707754023373127" lon="-4.479158967733383">
        <ele>42.920000000000002</ele>
        <time>2025-05-09T13:20:01Z</time>
      </trkpt>
      <trkpt lat="36.707666013389826" lon="-4.478493025526404">
        <ele>42.920000000000002</ele>
        <time>2025-05-09T13:20:06Z</time>
      </trkpt>
      <trkpt lat="36.707640029489994" lon="-4.478087006136775">
        <ele>41.469999999999999</ele>
        <time>2025-05-09T13:20:12Z</time>
      </trkpt>
      <trkpt lat="36.707640029489994" lon="-4.47801299393177">
        <ele>40.990000000000002</ele>
        <time>2025-05-09T13:20:21Z</time>
      </trkpt>
      <trkpt lat="36.707640029489994" lon="-4.47801299393177">
        <ele>40.030000000000001</ele>
        <time>2025-05-09T13:20:40Z</time>
      </trkpt>
      <trkpt lat="36.707640029489994" lon="-4.47801299393177">
        <ele>39.07</ele>
        <time>2025-05-09T13:20:58Z</time>
      </trkpt>
      <trkpt lat="36.707640029489994" lon="-4.478087006136775">
        <ele>37.630000000000003</ele>
        <time>2025-05-09T13:21:05Z</time>
      </trkpt>
      <trkpt lat="36.707475995644927" lon="-4.478049036115408">
        <ele>34.259999999999998</ele>
        <time>2025-05-09T13:21:13Z</time>
      </trkpt>
      <trkpt lat="36.706897979602218" lon="-4.477758016437292">
        <ele>71.760000000000005</ele>
        <time>2025-05-09T13:26:03Z</time>
      </trkpt>
      <trkpt lat="36.706966040655971" lon="-4.477736977860332">
        <ele>61.18</ele>
        <time>2025-05-09T13:26:27Z</time>
      </trkpt>
      <trkpt lat="36.706839976832271" lon="-4.477704036980867">
        <ele>59.259999999999998</ele>
        <time>2025-05-09T13:27:00Z</time>
      </trkpt>
      <trkpt lat="36.706791026517749" lon="-4.477703031152487">
        <ele>55.409999999999997</ele>
        <time>2025-05-09T13:27:30Z</time>
      </trkpt>
      <trkpt lat="36.706753978505731" lon="-4.477716023102403">
        <ele>54.93</ele>
        <time>2025-05-09T13:27:38Z</time>
      </trkpt>
      <trkpt lat="36.706754984334111" lon="-4.477746030315757">
        <ele>54.93</ele>
        <time>2025-05-09T13:27:57Z</time>
      </trkpt>
      <trkpt lat="36.706754984334111" lon="-4.477746030315757">
        <ele>54.93</ele>
        <time>2025-05-09T13:28:20Z</time>
      </trkpt>
      <trkpt lat="36.706756995990872" lon="-4.47775399312377">
        <ele>53.969999999999999</ele>
        <time>2025-05-09T13:29:09Z</time>
      </trkpt>
      <trkpt lat="36.706764036789536" lon="-4.477751981467009">
        <ele>53.969999999999999</ele>
        <time>2025-05-09T13:30:02Z</time>
      </trkpt>
      <trkpt lat="36.706760013476014" lon="-4.477742007002235">
        <ele>53.490000000000002</ele>
        <time>2025-05-09T13:30:29Z</time>
      </trkpt>
      <trkpt lat="36.706747021526098" lon="-4.477374963462353">
        <ele>50.609999999999999</ele>
        <time>2025-05-09T13:30:34Z</time>
      </trkpt>
      <trkpt lat="36.706721037626266" lon="-4.47730497457087">
        <ele>50.130000000000003</ele>
        <time>2025-05-09T13:30:35Z</time>
      </trkpt>
      <trkpt lat="36.706634033471346" lon="-4.477076986804605">
        <ele>48.68</ele>
        <time>2025-05-09T13:30:38Z</time>
      </trkpt>
      <trkpt lat="36.706237988546491" lon="-4.476038971915841">
        <ele>42.439999999999998</ele>
        <time>2025-05-09T13:30:51Z</time>
      </trkpt>
      <trkpt lat="36.706218039616942" lon="-4.475987004116178">
        <ele>42.439999999999998</ele>
        <time>2025-05-09T13:30:52Z</time>
      </trkpt>
      <trkpt lat="36.706200018525124" lon="-4.475940987467766">
        <ele>41.950000000000003</ele>
        <time>2025-05-09T13:30:53Z</time>
      </trkpt>
      <trkpt lat="36.706186020746827" lon="-4.47590502910316">
        <ele>40.990000000000002</ele>
        <time>2025-05-09T13:30:54Z</time>
      </trkpt>
      <trkpt lat="36.706175962463021" lon="-4.475878039374948">
        <ele>40.509999999999998</ele>
        <time>2025-05-09T13:30:55Z</time>
      </trkpt>
      <trkpt lat="36.706175962463021" lon="-4.475878039374948">
        <ele>40.030000000000001</ele>
        <time>2025-05-09T13:31:06Z</time>
      </trkpt>
      <trkpt lat="36.706241006031632" lon="-4.475782988592982">
        <ele>38.590000000000003</ele>
        <time>2025-05-09T13:31:12Z</time>
      </trkpt>
      <trkpt lat="36.706289034336805" lon="-4.475752981379628">
        <ele>38.109999999999999</ele>
        <time>2025-05-09T13:31:13Z</time>
      </trkpt>
      <trkpt lat="36.706899991258979" lon="-4.475383004173636">
        <ele>36.189999999999998</ele>
        <time>2025-05-09T13:31:21Z</time>
      </trkpt>
      <trkpt lat="36.7072459962219" lon="-4.47519700974226">
        <ele>35.710000000000001</ele>
        <time>2025-05-09T13:31:25Z</time>
      </trkpt>
      <trkpt lat="36.707296958193183" lon="-4.475169014185667">
        <ele>36.189999999999998</ele>
        <time>2025-05-09T13:31:26Z</time>
      </trkpt>
      <trkpt lat="36.707358984276652" lon="-4.475177982822061">
        <ele>36.670000000000002</ele>
        <time>2025-05-09T13:31:27Z</time>
      </trkpt>
      <trkpt lat="36.707427967339754" lon="-4.475188041105866">
        <ele>36.670000000000002</ele>
        <time>2025-05-09T13:31:28Z</time>
      </trkpt>
      <trkpt lat="36.707453029230237" lon="-4.475218970328569">
        <ele>37.149999999999999</ele>
        <time>2025-05-09T13:31:29Z</time>
      </trkpt>
      <trkpt lat="36.707471972331405" lon="-4.47530304081738">
        <ele>37.149999999999999</ele>
        <time>2025-05-09T13:31:30Z</time>
      </trkpt>
      <trkpt lat="36.707493010908365" lon="-4.475399013608694">
        <ele>37.149999999999999</ele>
        <time>2025-05-09T13:31:31Z</time>
      </trkpt>
      <trkpt lat="36.707638017833233" lon="-4.475471014156938">
        <ele>37.149999999999999</ele>
        <time>2025-05-09T13:31:32Z</time>
      </trkpt>
      <trkpt lat="36.707661990076303" lon="-4.475587019696832">
        <ele>37.630000000000003</ele>
        <time>2025-05-09T13:31:33Z</time>
      </trkpt>
      <trkpt lat="36.707798028364778" lon="-4.476241981610656">
        <ele>40.509999999999998</ele>
        <time>2025-05-09T13:31:41Z</time>
      </trkpt>
      <trkpt lat="36.707834992557764" lon="-4.476447002962232">
        <ele>41.950000000000003</ele>
        <time>2025-05-09T13:31:49Z</time>
      </trkpt>
      <trkpt lat="36.707851001992822" lon="-4.476698962971568">
        <ele>42.920000000000002</ele>
        <time>2025-05-09T13:31:59Z</time>
      </trkpt>
      <trkpt lat="36.707884026691318" lon="-4.477212019264698">
        <ele>43.399999999999999</ele>
        <time>2025-05-09T13:32:10Z</time>
      </trkpt>
      <trkpt lat="36.70789098367095" lon="-4.47732400149107">
        <ele>42.920000000000002</ele>
        <time>2025-05-09T13:32:13Z</time>
      </trkpt>
      <trkpt lat="36.707937000319362" lon="-4.477412011474371">
        <ele>42.439999999999998</ele>
        <time>2025-05-09T13:32:14Z</time>
      </trkpt>
      <trkpt lat="36.707972036674619" lon="-4.477403964847326">
        <ele>42.439999999999998</ele>
        <time>2025-05-09T13:32:15Z</time>
      </trkpt>
      <trkpt lat="36.708016041666269" lon="-4.477392984554172">
        <ele>41.950000000000003</ele>
        <time>2025-05-09T13:32:16Z</time>
      </trkpt>
      <trkpt lat="36.708071026951075" lon="-4.477378986775875">
        <ele>41.950000000000003</ele>
        <time>2025-05-09T13:32:17Z</time>
      </trkpt>
      <trkpt lat="36.708129029721022" lon="-4.477364988997579">
        <ele>41.950000000000003</ele>
        <time>2025-05-09T13:32:18Z</time>
      </trkpt>
      <trkpt lat="36.708911983296275" lon="-4.477116968482733">
        <ele>40.509999999999998</ele>
        <time>2025-05-09T13:32:28Z</time>
      </trkpt>
      <trkpt lat="36.709711030125618" lon="-4.476856039837003">
        <ele>38.590000000000003</ele>
        <time>2025-05-09T13:32:35Z</time>
      </trkpt>
      <trkpt lat="36.710675032809377" lon="-4.476580023765564">
        <ele>35.710000000000001</ele>
        <time>2025-05-09T13:32:44Z</time>
      </trkpt>
      <trkpt lat="36.711851013824344" lon="-4.476389000192285">
        <ele>33.299999999999997</ele>
        <time>2025-05-09T13:32:55Z</time>
      </trkpt>
      <trkpt lat="36.712966980412602" lon="-4.476382965222001">
        <ele>37.630000000000003</ele>
        <time>2025-05-09T13:33:04Z</time>
      </trkpt>
      <trkpt lat="36.71354197897017" lon="-4.476392017677426">
        <ele>40.030000000000001</ele>
        <time>2025-05-09T13:33:11Z</time>
      </trkpt>
      <trkpt lat="36.713628983125091" lon="-4.476392017677426">
        <ele>39.549999999999997</ele>
        <time>2025-05-09T13:33:14Z</time>
      </trkpt>
      <trkpt lat="36.71364801004529" lon="-4.476392017677426">
        <ele>39.549999999999997</ele>
        <time>2025-05-09T13:33:15Z</time>
      </trkpt>
      <trkpt lat="36.71364801004529" lon="-4.476392017677426">
        <ele>39.07</ele>
        <time>2025-05-09T13:33:26Z</time>
      </trkpt>
      <trkpt lat="36.713717998936772" lon="-4.476239969953895">
        <ele>39.07</ele>
        <time>2025-05-09T13:33:41Z</time>
      </trkpt>
      <trkpt lat="36.713710036128759" lon="-4.476159000769258">
        <ele>39.07</ele>
        <time>2025-05-09T13:33:42Z</time>
      </trkpt>
      <trkpt lat="36.71360501088202" lon="-4.475121991708875">
        <ele>38.109999999999999</ele>
        <time>2025-05-09T13:33:50Z</time>
      </trkpt>
      <trkpt lat="36.713551031425595" lon="-4.474547998979688">
        <ele>37.630000000000003</ele>
        <time>2025-05-09T13:33:57Z</time>
      </trkpt>
      <trkpt lat="36.713470984250307" lon="-4.474440040066838">
        <ele>37.630000000000003</ele>
        <time>2025-05-09T13:33:58Z</time>
      </trkpt>
      <trkpt lat="36.713423961773515" lon="-4.474440040066838">
        <ele>38.109999999999999</ele>
        <time>2025-05-09T13:33:59Z</time>
      </trkpt>
      <trkpt lat="36.71336998231709" lon="-4.474440040066838">
        <ele>38.109999999999999</ele>
        <time>2025-05-09T13:34:00Z</time>
      </trkpt>
      <trkpt lat="36.713308040052652" lon="-4.474440040066838">
        <ele>38.109999999999999</ele>
        <time>2025-05-09T13:34:01Z</time>
      </trkpt>
      <trkpt lat="36.712773023173213" lon="-4.474440040066838">
        <ele>38.590000000000003</ele>
        <time>2025-05-09T13:34:10Z</time>
      </trkpt>
      <trkpt lat="36.712753996253014" lon="-4.474440040066838">
        <ele>38.590000000000003</ele>
        <time>2025-05-09T13:34:11Z</time>
      </trkpt>
      <trkpt lat="36.712683001533151" lon="-4.474440040066838">
        <ele>39.07</ele>
        <time>2025-05-09T13:34:12Z</time>
      </trkpt>
      <trkpt lat="36.712683001533151" lon="-4.474440040066838">
        <ele>39.07</ele>
        <time>2025-05-09T13:34:28Z</time>
      </trkpt>
      <trkpt lat="36.712683001533151" lon="-4.474440040066838">
        <ele>39.549999999999997</ele>
        <time>2025-05-09T13:34:29Z</time>
      </trkpt>
      <trkpt lat="36.712649976834655" lon="-4.474440040066838">
        <ele>39.549999999999997</ele>
        <time>2025-05-09T13:34:37Z</time>
      </trkpt>
      <trkpt lat="36.712620975449681" lon="-4.474440962076187">
        <ele>39.07</ele>
        <time>2025-05-09T13:34:38Z</time>
      </trkpt>
      <trkpt lat="36.712580993771553" lon="-4.474441967904568">
        <ele>39.07</ele>
        <time>2025-05-09T13:34:39Z</time>
      </trkpt>
      <trkpt lat="36.712448978796601" lon="-4.47444599121809">
        <ele>40.030000000000001</ele>
        <time>2025-05-09T13:34:49Z</time>
      </trkpt>
      <trkpt lat="36.71231503598392" lon="-4.474734999239445">
        <ele>52.049999999999997</ele>
        <time>2025-05-09T16:06:05Z</time>
      </trkpt>
      <trkpt lat="36.712426012381911" lon="-4.474612958729267">
        <ele>43.399999999999999</ele>
        <time>2025-05-09T16:06:26Z</time>
      </trkpt>
      <trkpt lat="36.712359040975571" lon="-4.474448002874851">
        <ele>41.469999999999999</ele>
        <time>2025-05-09T16:06:31Z</time>
      </trkpt>
      <trkpt lat="36.71162998303771" lon="-4.474460994824767">
        <ele>36.189999999999998</ele>
        <time>2025-05-09T16:06:43Z</time>
      </trkpt>
      <trkpt lat="36.711576003581285" lon="-4.474460994824767">
        <ele>35.710000000000001</ele>
        <time>2025-05-09T16:06:44Z</time>
      </trkpt>
      <trkpt lat="36.711146011948586" lon="-4.474460994824767">
        <ele>31.379999999999999</ele>
        <time>2025-05-09T16:06:54Z</time>
      </trkpt>
      <trkpt lat="36.711044004186988" lon="-4.474575994536281">
        <ele>30.899999999999999</ele>
        <time>2025-05-09T16:06:55Z</time>
      </trkpt>
      <trkpt lat="36.711051966995001" lon="-4.474641038104892">
        <ele>29.940000000000001</ele>
        <time>2025-05-09T16:06:56Z</time>
      </trkpt>
      <trkpt lat="36.711105024442077" lon="-4.475089972838759">
        <ele>26.57</ele>
        <time>2025-05-09T16:07:03Z</time>
      </trkpt>
      <trkpt lat="36.711111981421709" lon="-4.475147975608707">
        <ele>26.09</ele>
        <time>2025-05-09T16:07:04Z</time>
      </trkpt>
      <trkpt lat="36.711124973371625" lon="-4.475255012512207">
        <ele>25.129999999999999</ele>
        <time>2025-05-09T16:07:06Z</time>
      </trkpt>
      <trkpt lat="36.711130002513528" lon="-4.475299017503858">
        <ele>24.649999999999999</ele>
        <time>2025-05-09T16:07:07Z</time>
      </trkpt>
      <trkpt lat="36.711136037483811" lon="-4.475344028323889">
        <ele>24.170000000000002</ele>
        <time>2025-05-09T16:07:08Z</time>
      </trkpt>
      <trkpt lat="36.711261011660099" lon="-4.475361965596676">
        <ele>24.170000000000002</ele>
        <time>2025-05-09T16:07:09Z</time>
      </trkpt>
      <trkpt lat="36.711295964196324" lon="-4.475361965596676">
        <ele>23.690000000000001</ele>
        <time>2025-05-09T16:07:10Z</time>
      </trkpt>
      <trkpt lat="36.711350027471781" lon="-4.475361965596676">
        <ele>23.210000000000001</ele>
        <time>2025-05-09T16:07:11Z</time>
      </trkpt>
      <trkpt lat="36.711420016363263" lon="-4.475361965596676">
        <ele>22.73</ele>
        <time>2025-05-09T16:07:12Z</time>
      </trkpt>
      <trkpt lat="36.712069027125835" lon="-4.475361965596676">
        <ele>20.32</ele>
        <time>2025-05-09T16:07:20Z</time>
      </trkpt>
      <trkpt lat="36.712963962927461" lon="-4.475361965596676">
        <ele>21.289999999999999</ele>
        <time>2025-05-09T16:07:31Z</time>
      </trkpt>
      <trkpt lat="36.713363025337458" lon="-4.475361965596676">
        <ele>25.609999999999999</ele>
        <time>2025-05-09T16:07:36Z</time>
      </trkpt>
      <trkpt lat="36.713420022279024" lon="-4.475361965596676">
        <ele>26.57</ele>
        <time>2025-05-09T16:07:37Z</time>
      </trkpt>
      <trkpt lat="36.713466038927436" lon="-4.475361965596676">
        <ele>27.050000000000001</ele>
        <time>2025-05-09T16:07:38Z</time>
      </trkpt>
      <trkpt lat="36.7134989798069" lon="-4.475361965596676">
        <ele>27.530000000000001</ele>
        <time>2025-05-09T16:07:39Z</time>
      </trkpt>
      <trkpt lat="36.713518006727099" lon="-4.475361965596676">
        <ele>28.5</ele>
        <time>2025-05-09T16:07:40Z</time>
      </trkpt>
      <trkpt lat="36.71354197897017" lon="-4.475361965596676">
        <ele>32.340000000000003</ele>
        <time>2025-05-09T16:07:52Z</time>
      </trkpt>
      <trkpt lat="36.713618002831936" lon="-4.475269010290504">
        <ele>33.299999999999997</ele>
        <time>2025-05-09T16:07:54Z</time>
      </trkpt>
      <trkpt lat="36.713616997003555" lon="-4.475254006683826">
        <ele>33.780000000000001</ele>
        <time>2025-05-09T16:07:55Z</time>
      </trkpt>
      <trkpt lat="36.713614985346794" lon="-4.475236991420388">
        <ele>34.740000000000002</ele>
        <time>2025-05-09T16:07:56Z</time>
      </trkpt>
      <trkpt lat="36.713613979518414" lon="-4.475218970328569">
        <ele>35.229999999999997</ele>
        <time>2025-05-09T16:07:57Z</time>
      </trkpt>
      <trkpt lat="36.713611967861652" lon="-4.475199021399021">
        <ele>35.229999999999997</ele>
        <time>2025-05-09T16:07:58Z</time>
      </trkpt>
      <trkpt lat="36.713565029203892" lon="-4.474698035046458">
        <ele>38.109999999999999</ele>
        <time>2025-05-09T16:08:12Z</time>
      </trkpt>
      <trkpt lat="36.713548013940454" lon="-4.474514974281192">
        <ele>37.630000000000003</ele>
        <time>2025-05-09T16:08:22Z</time>
      </trkpt>
      <trkpt lat="36.713547008112073" lon="-4.474499970674515">
        <ele>37.630000000000003</ele>
        <time>2025-05-09T16:08:36Z</time>
      </trkpt>
      <trkpt lat="36.713543990626931" lon="-4.474473986774683">
        <ele>37.630000000000003</ele>
        <time>2025-05-09T16:08:37Z</time>
      </trkpt>
      <trkpt lat="36.713540973141789" lon="-4.474440040066838">
        <ele>37.630000000000003</ele>
        <time>2025-05-09T16:08:38Z</time>
      </trkpt>
      <trkpt lat="36.713537033647299" lon="-4.47440198622644">
        <ele>37.630000000000003</ele>
        <time>2025-05-09T16:08:39Z</time>
      </trkpt>
      <trkpt lat="36.713532004505396" lon="-4.474362004548311">
        <ele>37.630000000000003</ele>
        <time>2025-05-09T16:08:40Z</time>
      </trkpt>
      <trkpt lat="36.713513983413577" lon="-4.47420702315867">
        <ele>36.670000000000002</ele>
        <time>2025-05-09T16:08:49Z</time>
      </trkpt>
      <trkpt lat="36.713513983413577" lon="-4.47420702315867">
        <ele>36.670000000000002</ele>
        <time>2025-05-09T16:09:04Z</time>
      </trkpt>
      <trkpt lat="36.713481964543462" lon="-4.473922960460186">
        <ele>34.740000000000002</ele>
        <time>2025-05-09T16:09:19Z</time>
      </trkpt>
      <trkpt lat="36.713480036705732" lon="-4.47390703484416">
        <ele>34.259999999999998</ele>
        <time>2025-05-09T16:09:35Z</time>
      </trkpt>
      <trkpt lat="36.713466038927436" lon="-4.473784994333983">
        <ele>33.780000000000001</ele>
        <time>2025-05-09T16:09:45Z</time>
      </trkpt>
      <trkpt lat="36.713437037542462" lon="-4.473441001027823">
        <ele>35.710000000000001</ele>
        <time>2025-05-09T16:09:59Z</time>
      </trkpt>
      <trkpt lat="36.713428990915418" lon="-4.473381992429495">
        <ele>36.189999999999998</ele>
        <time>2025-05-09T16:10:00Z</time>
      </trkpt>
      <trkpt lat="36.713305022567511" lon="-4.473148975521326">
        <ele>36.189999999999998</ele>
        <time>2025-05-09T16:10:05Z</time>
      </trkpt>
      <trkpt lat="36.713305022567511" lon="-4.473067000508308">
        <ele>36.189999999999998</ele>
        <time>2025-05-09T16:10:06Z</time>
      </trkpt>
      <trkpt lat="36.713334023952484" lon="-4.472922999411821">
        <ele>36.189999999999998</ele>
        <time>2025-05-09T16:10:07Z</time>
      </trkpt>
      <trkpt lat="36.713388003408909" lon="-4.472856028005481">
        <ele>36.189999999999998</ele>
        <time>2025-05-09T16:10:08Z</time>
      </trkpt>
      <trkpt lat="36.713454974815249" lon="-4.472809005528688">
        <ele>36.189999999999998</ele>
        <time>2025-05-09T16:10:09Z</time>
      </trkpt>
      <trkpt lat="36.713540973141789" lon="-4.472786961123347">
        <ele>36.189999999999998</ele>
        <time>2025-05-09T16:10:10Z</time>
      </trkpt>
      <trkpt lat="36.713623031973839" lon="-4.472803976386786">
        <ele>35.710000000000001</ele>
        <time>2025-05-09T16:10:11Z</time>
      </trkpt>
      <trkpt lat="36.71364801004529" lon="-4.472809005528688">
        <ele>37.630000000000003</ele>
        <time>2025-05-09T16:10:12Z</time>
      </trkpt>
      <trkpt lat="36.713677011430264" lon="-4.472837001085281">
        <ele>39.07</ele>
        <time>2025-05-09T16:10:13Z</time>
      </trkpt>
      <trkpt lat="36.713712969794869" lon="-4.472872959449887">
        <ele>40.509999999999998</ele>
        <time>2025-05-09T16:10:14Z</time>
      </trkpt>
      <trkpt lat="36.713712969794869" lon="-4.472872959449887">
        <ele>40.990000000000002</ele>
        <time>2025-05-09T16:10:15Z</time>
      </trkpt>
      <trkpt lat="36.714196018874645" lon="-4.473360031843185">
        <ele>44.359999999999999</ele>
        <time>2025-05-09T16:10:20Z</time>
      </trkpt>
      <trkpt lat="36.714302971959114" lon="-4.473422979936004">
        <ele>45.32</ele>
        <time>2025-05-09T16:10:21Z</time>
      </trkpt>
      <trkpt lat="36.714414032176137" lon="-4.473488023504615">
        <ele>46.280000000000001</ele>
        <time>2025-05-09T16:10:22Z</time>
      </trkpt>
      <trkpt lat="36.714516961947083" lon="-4.473563041538">
        <ele>47.719999999999999</ele>
        <time>2025-05-09T16:10:23Z</time>
      </trkpt>
      <trkpt lat="36.714626010507345" lon="-4.473655996844173">
        <ele>49.159999999999997</ele>
        <time>2025-05-09T16:10:24Z</time>
      </trkpt>
      <trkpt lat="36.714730029925704" lon="-4.473744006827474">
        <ele>50.130000000000003</ele>
        <time>2025-05-09T16:10:25Z</time>
      </trkpt>
      <trkpt lat="36.715118028223515" lon="-4.474075008183718">
        <ele>54.450000000000003</ele>
        <time>2025-05-09T16:10:29Z</time>
      </trkpt>
      <trkpt lat="36.715214001014829" lon="-4.47416502982378">
        <ele>54.93</ele>
        <time>2025-05-09T16:10:30Z</time>
      </trkpt>
      <trkpt lat="36.715301005169749" lon="-4.474271982908249">
        <ele>55.890000000000001</ele>
        <time>2025-05-09T16:10:31Z</time>
      </trkpt>
      <trkpt lat="36.71538800932467" lon="-4.47437901981175">
        <ele>56.369999999999997</ele>
        <time>2025-05-09T16:10:32Z</time>
      </trkpt>
      <trkpt lat="36.715476019307971" lon="-4.47448798455298">
        <ele>57.340000000000003</ele>
        <time>2025-05-09T16:10:33Z</time>
      </trkpt>
      <trkpt lat="36.71556101180613" lon="-4.474593009799719">
        <ele>58.299999999999997</ele>
        <time>2025-05-09T16:10:34Z</time>
      </trkpt>
      <trkpt lat="36.71618496067822" lon="-4.475407982245088">
        <ele>62.619999999999997</ele>
        <time>2025-05-09T16:10:43Z</time>
      </trkpt>
      <trkpt lat="36.716260984539986" lon="-4.475504960864782">
        <ele>64.069999999999993</ele>
        <time>2025-05-09T16:10:51Z</time>
      </trkpt>
      <trkpt lat="36.716438010334969" lon="-4.475731020793319">
        <ele>65.989999999999995</ele>
        <time>2025-05-09T16:11:05Z</time>
      </trkpt>
      <trkpt lat="36.716758031398058" lon="-4.4759910274297">
        <ele>67.909999999999997</ele>
        <time>2025-05-09T16:11:09Z</time>
      </trkpt>
      <trkpt lat="36.716816034168005" lon="-4.476028997451067">
        <ele>67.909999999999997</ele>
        <time>2025-05-09T16:11:10Z</time>
      </trkpt>
      <trkpt lat="36.716860961169004" lon="-4.476059004664421">
        <ele>68.390000000000001</ele>
        <time>2025-05-09T16:11:11Z</time>
      </trkpt>
      <trkpt lat="36.716981995850801" lon="-4.476127987727523">
        <ele>67.909999999999997</ele>
        <time>2025-05-09T16:11:13Z</time>
      </trkpt>
      <trkpt lat="36.717061959207058" lon="-4.476161012426019">
        <ele>67.909999999999997</ele>
        <time>2025-05-09T16:11:14Z</time>
      </trkpt>
      <trkpt lat="36.717232028022408" lon="-4.476049030199647">
        <ele>68.390000000000001</ele>
        <time>2025-05-09T16:11:15Z</time>
      </trkpt>
      <trkpt lat="36.717232028022408" lon="-4.476049030199647">
        <ele>69.349999999999994</ele>
        <time>2025-05-09T16:11:17Z</time>
      </trkpt>
      <trkpt lat="36.717381980270147" lon="-4.476221026852727">
        <ele>69.349999999999994</ele>
        <time>2025-05-09T16:11:19Z</time>
      </trkpt>
      <trkpt lat="36.717502009123564" lon="-4.476251034066081">
        <ele>69.829999999999998</ele>
        <time>2025-05-09T16:11:21Z</time>
      </trkpt>
      <trkpt lat="36.717567974701524" lon="-4.476265031844378">
        <ele>69.829999999999998</ele>
        <time>2025-05-09T16:11:22Z</time>
      </trkpt>
      <trkpt lat="36.717627989128232" lon="-4.476270982995629">
        <ele>69.829999999999998</ele>
        <time>2025-05-09T16:11:23Z</time>
      </trkpt>
      <trkpt lat="36.717684986069798" lon="-4.476277017965913">
        <ele>69.829999999999998</ele>
        <time>2025-05-09T16:11:24Z</time>
      </trkpt>
      <trkpt lat="36.717746006324887" lon="-4.476282969117165">
        <ele>69.829999999999998</ele>
        <time>2025-05-09T16:11:25Z</time>
      </trkpt>
      <trkpt lat="36.718039037659764" lon="-4.476284980773926">
        <ele>69.829999999999998</ele>
        <time>2025-05-09T16:11:30Z</time>
      </trkpt>
      <trkpt lat="36.718887034803629" lon="-4.476068979129195">
        <ele>70.790000000000006</ele>
        <time>2025-05-09T16:11:39Z</time>
      </trkpt>
      <trkpt lat="36.719123991206288" lon="-4.475953979417682">
        <ele>69.829999999999998</ele>
        <time>2025-05-09T16:11:42Z</time>
      </trkpt>
      <trkpt lat="36.719225998967886" lon="-4.475880973041058">
        <ele>69.349999999999994</ele>
        <time>2025-05-09T16:11:43Z</time>
      </trkpt>
      <trkpt lat="36.720009036362171" lon="-4.475163985043764">
        <ele>69.349999999999994</ele>
        <time>2025-05-09T16:11:52Z</time>
      </trkpt>
      <trkpt lat="36.720398040488362" lon="-4.474895009770989">
        <ele>70.790000000000006</ele>
        <time>2025-05-09T16:11:58Z</time>
      </trkpt>
      <trkpt lat="36.720556961372495" lon="-4.474815968424082">
        <ele>72.719999999999999</ele>
        <time>2025-05-09T16:12:06Z</time>
      </trkpt>
      <trkpt lat="36.720629967749119" lon="-4.474785961210728">
        <ele>75.599999999999994</ele>
        <time>2025-05-09T16:12:15Z</time>
      </trkpt>
      <trkpt lat="36.720772041007876" lon="-4.474589992314577">
        <ele>77.519999999999996</ele>
        <time>2025-05-09T16:12:18Z</time>
      </trkpt>
      <trkpt lat="36.720772041007876" lon="-4.474589992314577">
        <ele>77.519999999999996</ele>
        <time>2025-05-09T16:12:19Z</time>
      </trkpt>
      <trkpt lat="36.720798024907708" lon="-4.474556967616081">
        <ele>78</ele>
        <time>2025-05-09T16:12:20Z</time>
      </trkpt>
      <trkpt lat="36.72084404155612" lon="-4.474499970674515">
        <ele>78.480000000000004</ele>
        <time>2025-05-09T16:12:21Z</time>
      </trkpt>
      <trkpt lat="36.720891986042261" lon="-4.474474992603064">
        <ele>78.480000000000004</ele>
        <time>2025-05-09T16:12:22Z</time>
      </trkpt>
      <trkpt lat="36.720942026004195" lon="-4.474464012309909">
        <ele>78.969999999999999</ele>
        <time>2025-05-09T16:12:23Z</time>
      </trkpt>
      <trkpt lat="36.720988964661956" lon="-4.474454037845135">
        <ele>78.969999999999999</ele>
        <time>2025-05-09T16:12:24Z</time>
      </trkpt>
      <trkpt lat="36.721051996573806" lon="-4.474440962076187">
        <ele>78.480000000000004</ele>
        <time>2025-05-09T16:12:25Z</time>
      </trkpt>
      <trkpt lat="36.721050990745425" lon="-4.474440040066838">
        <ele>78</ele>
        <time>2025-05-09T16:12:26Z</time>
      </trkpt>
      <trkpt lat="36.721050990745425" lon="-4.474440040066838">
        <ele>77.040000000000006</ele>
        <time>2025-05-09T16:12:28Z</time>
      </trkpt>
      <trkpt lat="36.721089966595173" lon="-4.474485972896218">
        <ele>77.040000000000006</ele>
        <time>2025-05-09T16:12:33Z</time>
      </trkpt>
      <trkpt lat="36.721115028485656" lon="-4.474515980109572">
        <ele>76.560000000000002</ele>
        <time>2025-05-09T16:12:34Z</time>
      </trkpt>
      <trkpt lat="36.721347039565444" lon="-4.474697029218078">
        <ele>75.599999999999994</ele>
        <time>2025-05-09T16:12:45Z</time>
      </trkpt>
      <trkpt lat="36.721674017608166" lon="-4.474679008126259">
        <ele>74.159999999999997</ele>
        <time>2025-05-09T16:12:52Z</time>
      </trkpt>
      <trkpt lat="36.721937041729689" lon="-4.474675990641117">
        <ele>73.200000000000003</ele>
        <time>2025-05-09T16:12:56Z</time>
      </trkpt>
      <trkpt lat="36.722638020291924" lon="-4.474632991477847">
        <ele>73.200000000000003</ele>
        <time>2025-05-09T16:13:05Z</time>
      </trkpt>
      <trkpt lat="36.722914036363363" lon="-4.474618993699551">
        <ele>72.719999999999999</ele>
        <time>2025-05-09T16:13:09Z</time>
      </trkpt>
      <trkpt lat="36.722982013598084" lon="-4.474611030891538">
        <ele>72.719999999999999</ele>
        <time>2025-05-09T16:13:10Z</time>
      </trkpt>
      <trkpt lat="36.723084021359682" lon="-4.474611030891538">
        <ele>73.200000000000003</ele>
        <time>2025-05-09T16:13:12Z</time>
      </trkpt>
      <trkpt lat="36.723154010251164" lon="-4.474611030891538">
        <ele>73.680000000000007</ele>
        <time>2025-05-09T16:13:13Z</time>
      </trkpt>
      <trkpt lat="36.723157027736306" lon="-4.474641960114241">
        <ele>75.599999999999994</ele>
        <time>2025-05-09T16:13:15Z</time>
      </trkpt>
      <trkpt lat="36.723160967230797" lon="-4.474680013954639">
        <ele>75.599999999999994</ele>
        <time>2025-05-09T16:13:16Z</time>
      </trkpt>
      <trkpt lat="36.723163984715939" lon="-4.474709015339613">
        <ele>75.599999999999994</ele>
        <time>2025-05-09T16:13:17Z</time>
      </trkpt>
      <trkpt lat="36.723163984715939" lon="-4.474709015339613">
        <ele>75.599999999999994</ele>
        <time>2025-05-09T16:13:30Z</time>
      </trkpt>
      <trkpt lat="36.723300023004413" lon="-4.474859973415732">
        <ele>74.159999999999997</ele>
        <time>2025-05-09T17:01:43Z</time>
      </trkpt>
      <trkpt lat="36.72338099218905" lon="-4.474779004231095">
        <ele>81.849999999999994</ele>
        <time>2025-05-09T17:02:12Z</time>
      </trkpt>
      <trkpt lat="36.72333799302578" lon="-4.474748997017741">
        <ele>83.290000000000006</ele>
        <time>2025-05-09T17:02:39Z</time>
      </trkpt>
      <trkpt lat="36.723332041874528" lon="-4.474750002846122">
        <ele>82.329999999999998</ele>
        <time>2025-05-09T17:02:43Z</time>
      </trkpt>
      <trkpt lat="36.723216036334634" lon="-4.475231962278485">
        <ele>79.450000000000003</ele>
        <time>2025-05-09T17:02:55Z</time>
      </trkpt>
      <trkpt lat="36.723222993314266" lon="-4.475299017503858">
        <ele>79.450000000000003</ele>
        <time>2025-05-09T17:02:56Z</time>
      </trkpt>
      <trkpt lat="36.723260963335633" lon="-4.475683998316526">
        <ele>77.519999999999996</ele>
        <time>2025-05-09T17:03:05Z</time>
      </trkpt>
      <trkpt lat="36.723261969164014" lon="-4.475702019408345">
        <ele>76.560000000000002</ele>
        <time>2025-05-09T17:03:13Z</time>
      </trkpt>
      <trkpt lat="36.72327496111393" lon="-4.475909974426031">
        <ele>74.640000000000001</ele>
        <time>2025-05-09T17:03:21Z</time>
      </trkpt>
      <trkpt lat="36.723299017176032" lon="-4.476281963288784">
        <ele>68.390000000000001</ele>
        <time>2025-05-09T17:03:33Z</time>
      </trkpt>
      <trkpt lat="36.723317038267851" lon="-4.476583963260055">
        <ele>63.100000000000001</ele>
        <time>2025-05-09T17:03:41Z</time>
      </trkpt>
      <trkpt lat="36.723399013280869" lon="-4.476661998778582">
        <ele>62.140000000000001</ele>
        <time>2025-05-09T17:03:42Z</time>
      </trkpt>
      <trkpt lat="36.723399013280869" lon="-4.476661998778582">
        <ele>61.18</ele>
        <time>2025-05-09T17:03:53Z</time>
      </trkpt>
      <trkpt lat="36.723399013280869" lon="-4.476661998778582">
        <ele>61.18</ele>
        <time>2025-05-09T17:04:03Z</time>
      </trkpt>
      <trkpt lat="36.723320977762341" lon="-4.476632997393608">
        <ele>59.740000000000002</ele>
        <time>2025-05-09T17:04:04Z</time>
      </trkpt>
      <trkpt lat="36.723321983590722" lon="-4.476655041798949">
        <ele>59.259999999999998</ele>
        <time>2025-05-09T17:04:05Z</time>
      </trkpt>
      <trkpt lat="36.723347967490554" lon="-4.476698040962219">
        <ele>58.780000000000001</ele>
        <time>2025-05-09T17:04:06Z</time>
      </trkpt>
      <trkpt lat="36.723304968327284" lon="-4.476727964356542">
        <ele>58.299999999999997</ele>
        <time>2025-05-09T17:04:07Z</time>
      </trkpt>
      <trkpt lat="36.723131965845823" lon="-4.476841036230326">
        <ele>56.859999999999999</ele>
        <time>2025-05-09T17:04:11Z</time>
      </trkpt>
      <trkpt lat="36.723092989996076" lon="-4.476866014301777">
        <ele>56.859999999999999</ele>
        <time>2025-05-09T17:04:12Z</time>
      </trkpt>
      <trkpt lat="36.723009003326297" lon="-4.476920999586582">
        <ele>56.369999999999997</ele>
        <time>2025-05-09T17:04:14Z</time>
      </trkpt>
      <trkpt lat="36.722838012501597" lon="-4.477032981812954">
        <ele>55.890000000000001</ele>
        <time>2025-05-09T17:04:18Z</time>
      </trkpt>
      <trkpt lat="36.722795013338327" lon="-4.477060977369547">
        <ele>55.890000000000001</ele>
        <time>2025-05-09T17:04:19Z</time>
      </trkpt>
      <trkpt lat="36.722619999200106" lon="-4.47717497125268">
        <ele>55.890000000000001</ele>
        <time>2025-05-09T17:04:24Z</time>
      </trkpt>
      <trkpt lat="36.722584962844849" lon="-4.477199027314782">
        <ele>55.890000000000001</ele>
        <time>2025-05-09T17:04:25Z</time>
      </trkpt>
      <trkpt lat="36.722555039450526" lon="-4.47721797041595">
        <ele>55.890000000000001</ele>
        <time>2025-05-09T17:04:26Z</time>
      </trkpt>
      <trkpt lat="36.722527965903282" lon="-4.477235991507769">
        <ele>55.409999999999997</ele>
        <time>2025-05-09T17:04:27Z</time>
      </trkpt>
      <trkpt lat="36.722503993660212" lon="-4.477252000942826">
        <ele>55.409999999999997</ele>
        <time>2025-05-09T17:04:28Z</time>
      </trkpt>
      <trkpt lat="36.722486978396773" lon="-4.477262981235981">
        <ele>54.93</ele>
        <time>2025-05-09T17:04:29Z</time>
      </trkpt>
      <trkpt lat="36.722469963133335" lon="-4.477273961529136">
        <ele>54.450000000000003</ele>
        <time>2025-05-09T17:04:30Z</time>
      </trkpt>
      <trkpt lat="36.722368961200118" lon="-4.477340010926127">
        <ele>52.530000000000001</ele>
        <time>2025-05-09T17:04:41Z</time>
      </trkpt>
      <trkpt lat="36.722216997295618" lon="-4.477500021457672">
        <ele>52.049999999999997</ele>
        <time>2025-05-09T17:04:47Z</time>
      </trkpt>
      <trkpt lat="36.722222026437521" lon="-4.47753899730742">
        <ele>51.090000000000003</ele>
        <time>2025-05-09T17:04:48Z</time>
      </trkpt>
      <trkpt lat="36.722227977588773" lon="-4.477588031440973">
        <ele>50.609999999999999</ele>
        <time>2025-05-09T17:04:49Z</time>
      </trkpt>
      <trkpt lat="36.722235018387437" lon="-4.47764502838254">
        <ele>49.649999999999999</ele>
        <time>2025-05-09T17:04:50Z</time>
      </trkpt>
      <trkpt lat="36.722241975367069" lon="-4.477702025324106">
        <ele>48.68</ele>
        <time>2025-05-09T17:04:51Z</time>
      </trkpt>
      <trkpt lat="36.72226301394403" lon="-4.477889025583863">
        <ele>46.759999999999998</ele>
        <time>2025-05-09T17:04:54Z</time>
      </trkpt>
      <trkpt lat="36.722270976752043" lon="-4.4779699947685">
        <ele>46.280000000000001</ele>
        <time>2025-05-09T17:04:55Z</time>
      </trkpt>
      <trkpt lat="36.722278017550707" lon="-4.478041995316744">
        <ele>45.799999999999997</ele>
        <time>2025-05-09T17:04:56Z</time>
      </trkpt>
      <trkpt lat="36.722283968701959" lon="-4.478103015571833">
        <ele>45.32</ele>
        <time>2025-05-09T17:04:57Z</time>
      </trkpt>
      <trkpt lat="36.722291009500623" lon="-4.478173004463315">
        <ele>44.840000000000003</ele>
        <time>2025-05-09T17:04:58Z</time>
      </trkpt>
      <trkpt lat="36.722297966480255" lon="-4.478250034153462">
        <ele>44.359999999999999</ele>
        <time>2025-05-09T17:04:59Z</time>
      </trkpt>
      <trkpt lat="36.722301989793777" lon="-4.47833301499486">
        <ele>43.880000000000003</ele>
        <time>2025-05-09T17:05:00Z</time>
      </trkpt>
      <trkpt lat="36.722362004220486" lon="-4.478992000222206">
        <ele>40.030000000000001</ele>
        <time>2025-05-09T17:05:07Z</time>
      </trkpt>
      <trkpt lat="36.722366027534008" lon="-4.479082021862268">
        <ele>40.030000000000001</ele>
        <time>2025-05-09T17:05:08Z</time>
      </trkpt>
      <trkpt lat="36.722368961200118" lon="-4.47917296551168">
        <ele>40.509999999999998</ele>
        <time>2025-05-09T17:05:09Z</time>
      </trkpt>
      <trkpt lat="36.72237197868526" lon="-4.479268016293645">
        <ele>40.509999999999998</ele>
        <time>2025-05-09T17:05:10Z</time>
      </trkpt>
      <trkpt lat="36.722374996170402" lon="-4.479357032105327">
        <ele>40.990000000000002</ele>
        <time>2025-05-09T17:05:11Z</time>
      </trkpt>
      <trkpt lat="36.722378013655543" lon="-4.4794309604913">
        <ele>40.509999999999998</ele>
        <time>2025-05-09T17:05:12Z</time>
      </trkpt>
      <trkpt lat="36.722380025312304" lon="-4.479505978524685">
        <ele>40.509999999999998</ele>
        <time>2025-05-09T17:05:13Z</time>
      </trkpt>
      <trkpt lat="36.722357980906963" lon="-4.479762967675924">
        <ele>40.030000000000001</ele>
        <time>2025-05-09T17:05:20Z</time>
      </trkpt>
      <trkpt lat="36.722348006442189" lon="-4.479851983487606">
        <ele>42.920000000000002</ele>
        <time>2025-05-09T17:05:40Z</time>
      </trkpt>
      <trkpt lat="36.722338031977415" lon="-4.479936975985766">
        <ele>42.920000000000002</ele>
        <time>2025-05-09T17:05:43Z</time>
      </trkpt>
      <trkpt lat="36.72232897952199" lon="-4.479991961270571">
        <ele>42.920000000000002</ele>
        <time>2025-05-09T17:05:44Z</time>
      </trkpt>
      <trkpt lat="36.722320010885596" lon="-4.480043007060885">
        <ele>42.920000000000002</ele>
        <time>2025-05-09T17:05:45Z</time>
      </trkpt>
      <trkpt lat="36.722314981743693" lon="-4.480077037587762">
        <ele>42.920000000000002</ele>
        <time>2025-05-09T17:05:46Z</time>
      </trkpt>
      <trkpt lat="36.722293021157384" lon="-4.480206035077572">
        <ele>43.399999999999999</ele>
        <time>2025-05-09T17:05:53Z</time>
      </trkpt>
      <trkpt lat="36.722255973145366" lon="-4.480425976216793">
        <ele>43.399999999999999</ele>
        <time>2025-05-09T17:05:57Z</time>
      </trkpt>
      <trkpt lat="36.722248010337353" lon="-4.480478027835488">
        <ele>42.920000000000002</ele>
        <time>2025-05-09T17:05:58Z</time>
      </trkpt>
      <trkpt lat="36.72222001478076" lon="-4.480646001175046">
        <ele>42.439999999999998</ele>
        <time>2025-05-09T17:06:02Z</time>
      </trkpt>
      <trkpt lat="36.722212973982096" lon="-4.480684977024794">
        <ele>41.950000000000003</ele>
        <time>2025-05-09T17:06:03Z</time>
      </trkpt>
      <trkpt lat="36.722208028659225" lon="-4.480715990066528">
        <ele>41.950000000000003</ele>
        <time>2025-05-09T17:06:04Z</time>
      </trkpt>
      <trkpt lat="36.72219998203218" lon="-4.480763012543321">
        <ele>41.469999999999999</ele>
        <time>2025-05-09T17:06:05Z</time>
      </trkpt>
      <trkpt lat="36.722191013395786" lon="-4.480821015313268">
        <ele>40.990000000000002</ele>
        <time>2025-05-09T17:06:06Z</time>
      </trkpt>
      <trkpt lat="36.722181038931012" lon="-4.480880023911595">
        <ele>40.990000000000002</ele>
        <time>2025-05-09T17:06:07Z</time>
      </trkpt>
      <trkpt lat="36.722167041152716" lon="-4.480963004752994">
        <ele>40.509999999999998</ele>
        <time>2025-05-09T17:06:08Z</time>
      </trkpt>
      <trkpt lat="36.72215798869729" lon="-4.481012038886547">
        <ele>39.549999999999997</ele>
        <time>2025-05-09T17:06:09Z</time>
      </trkpt>
      <trkpt lat="36.722147008404136" lon="-4.481074986979365">
        <ele>39.549999999999997</ele>
        <time>2025-05-09T17:06:10Z</time>
      </trkpt>
      <trkpt lat="36.7221350222826" lon="-4.481143970042467">
        <ele>39.07</ele>
        <time>2025-05-09T17:06:11Z</time>
      </trkpt>
      <trkpt lat="36.722122030332685" lon="-4.481218988075852">
        <ele>38.590000000000003</ele>
        <time>2025-05-09T17:06:12Z</time>
      </trkpt>
      <trkpt lat="36.722108032554388" lon="-4.481300041079521">
        <ele>38.590000000000003</ele>
        <time>2025-05-09T17:06:13Z</time>
      </trkpt>
      <trkpt lat="36.72196201980114" lon="-4.481777977198362">
        <ele>37.630000000000003</ele>
        <time>2025-05-09T17:06:19Z</time>
      </trkpt>
      <trkpt lat="36.721842996776104" lon="-4.48215801268816">
        <ele>37.630000000000003</ele>
        <time>2025-05-09T17:06:28Z</time>
      </trkpt>
      <trkpt lat="36.721823969855905" lon="-4.482219032943249">
        <ele>40.030000000000001</ele>
        <time>2025-05-09T17:06:36Z</time>
      </trkpt>
      <trkpt lat="36.721815001219511" lon="-4.482247028499842">
        <ele>40.030000000000001</ele>
        <time>2025-05-09T17:06:37Z</time>
      </trkpt>
      <trkpt lat="36.721806032583117" lon="-4.482277035713196">
        <ele>40.509999999999998</ele>
        <time>2025-05-09T17:06:38Z</time>
      </trkpt>
      <trkpt lat="36.721828998997808" lon="-4.4823959749192">
        <ele>40.509999999999998</ele>
        <time>2025-05-09T17:06:39Z</time>
      </trkpt>
      <trkpt lat="36.72187996096909" lon="-4.48243604041636">
        <ele>40.509999999999998</ele>
        <time>2025-05-09T17:06:40Z</time>
      </trkpt>
      <trkpt lat="36.721947016194463" lon="-4.482490019872785">
        <ele>40.990000000000002</ele>
        <time>2025-05-09T17:06:41Z</time>
      </trkpt>
      <trkpt lat="36.722019016742706" lon="-4.482547016814351">
        <ele>40.990000000000002</ele>
        <time>2025-05-09T17:06:42Z</time>
      </trkpt>
      <trkpt lat="36.722149020060897" lon="-4.48265103623271">
        <ele>40.990000000000002</ele>
        <time>2025-05-09T17:06:44Z</time>
      </trkpt>
      <trkpt lat="36.722208028659225" lon="-4.482697974890471">
        <ele>40.990000000000002</ele>
        <time>2025-05-09T17:06:45Z</time>
      </trkpt>
      <trkpt lat="36.722900038585067" lon="-4.483249001204968">
        <ele>44.359999999999999</ele>
        <time>2025-05-09T17:06:57Z</time>
      </trkpt>
      <trkpt lat="36.723133977502584" lon="-4.483418986201286">
        <ele>46.280000000000001</ele>
        <time>2025-05-09T17:07:01Z</time>
      </trkpt>
      <trkpt lat="36.723168008029461" lon="-4.483442958444357">
        <ele>47.240000000000002</ele>
        <time>2025-05-09T17:07:02Z</time>
      </trkpt>
      <trkpt lat="36.723168008029461" lon="-4.483442958444357">
        <ele>47.719999999999999</ele>
        <time>2025-05-09T17:07:03Z</time>
      </trkpt>
      <trkpt lat="36.72321000136435" lon="-4.483472965657711">
        <ele>49.159999999999997</ele>
        <time>2025-05-09T17:07:12Z</time>
      </trkpt>
      <trkpt lat="36.723389960825443" lon="-4.483601963147521">
        <ele>53.490000000000002</ele>
        <time>2025-05-09T17:07:21Z</time>
      </trkpt>
      <trkpt lat="36.723562041297555" lon="-4.483558963984251">
        <ele>53.969999999999999</ele>
        <time>2025-05-09T17:07:22Z</time>
      </trkpt>
      <trkpt lat="36.723562041297555" lon="-4.483558963984251">
        <ele>54.450000000000003</ele>
        <time>2025-05-09T17:07:23Z</time>
      </trkpt>
      <trkpt lat="36.723602022975683" lon="-4.483558963984251">
        <ele>54.93</ele>
        <time>2025-05-09T17:07:24Z</time>
      </trkpt>
      <trkpt lat="36.723674023523927" lon="-4.483558963984251">
        <ele>54.93</ele>
        <time>2025-05-09T17:07:25Z</time>
      </trkpt>
      <trkpt lat="36.72374602407217" lon="-4.483601963147521">
        <ele>54.93</ele>
        <time>2025-05-09T17:07:26Z</time>
      </trkpt>
      <trkpt lat="36.723792040720582" lon="-4.483658960089088">
        <ele>55.409999999999997</ele>
        <time>2025-05-09T17:07:27Z</time>
      </trkpt>
      <trkpt lat="36.723797991871834" lon="-4.483666000887752">
        <ele>55.409999999999997</ele>
        <time>2025-05-09T17:07:28Z</time>
      </trkpt>
      <trkpt lat="36.723883990198374" lon="-4.483859958127141">
        <ele>55.409999999999997</ele>
        <time>2025-05-09T17:07:29Z</time>
      </trkpt>
      <trkpt lat="36.723926989361644" lon="-4.483888037502766">
        <ele>55.890000000000001</ele>
        <time>2025-05-09T17:07:30Z</time>
      </trkpt>
      <trkpt lat="36.724001001566648" lon="-4.483933970332146">
        <ele>56.369999999999997</ele>
        <time>2025-05-09T17:07:31Z</time>
      </trkpt>
      <trkpt lat="36.724431999027729" lon="-4.484188025817275">
        <ele>57.340000000000003</ele>
        <time>2025-05-09T17:07:36Z</time>
      </trkpt>
      <trkpt lat="36.725283013656735" lon="-4.484674008563161">
        <ele>60.219999999999999</ele>
        <time>2025-05-09T17:07:45Z</time>
      </trkpt>
      <trkpt lat="36.72548501752317" lon="-4.484786996617913">
        <ele>61.18</ele>
        <time>2025-05-09T17:07:49Z</time>
      </trkpt>
      <trkpt lat="36.725535979494452" lon="-4.484804011881352">
        <ele>61.659999999999997</ele>
        <time>2025-05-09T17:07:50Z</time>
      </trkpt>
      <trkpt lat="36.725725997239351" lon="-4.484708039090037">
        <ele>62.619999999999997</ele>
        <time>2025-05-09T17:07:52Z</time>
      </trkpt>
      <trkpt lat="36.725818030536175" lon="-4.484741985797882">
        <ele>63.100000000000001</ele>
        <time>2025-05-09T17:07:53Z</time>
      </trkpt>
      <trkpt lat="36.725861029699445" lon="-4.484837036579847">
        <ele>63.579999999999998</ele>
        <time>2025-05-09T17:07:54Z</time>
      </trkpt>
      <trkpt lat="36.725865975022316" lon="-4.484942983835936">
        <ele>64.069999999999993</ele>
        <time>2025-05-09T17:07:55Z</time>
      </trkpt>
      <trkpt lat="36.725845020264387" lon="-4.485024958848953">
        <ele>64.549999999999997</ele>
        <time>2025-05-09T17:07:56Z</time>
      </trkpt>
      <trkpt lat="36.725776037201285" lon="-4.485096959397197">
        <ele>65.030000000000001</ele>
        <time>2025-05-09T17:07:57Z</time>
      </trkpt>
      <trkpt lat="36.725709987804294" lon="-4.485151022672653">
        <ele>65.030000000000001</ele>
        <time>2025-05-09T17:07:58Z</time>
      </trkpt>
      <trkpt lat="36.725655002519488" lon="-4.485228974372149">
        <ele>65.030000000000001</ele>
        <time>2025-05-09T17:07:59Z</time>
      </trkpt>
      <trkpt lat="36.725604040548205" lon="-4.485321007668972">
        <ele>65.030000000000001</ele>
        <time>2025-05-09T17:08:00Z</time>
      </trkpt>
      <trkpt lat="36.725560035556555" lon="-4.485433995723724">
        <ele>65.030000000000001</ele>
        <time>2025-05-09T17:08:01Z</time>
      </trkpt>
      <trkpt lat="36.725100036710501" lon="-4.486661022529006">
        <ele>63.579999999999998</ele>
        <time>2025-05-09T17:08:11Z</time>
      </trkpt>
      <trkpt lat="36.724888980388641" lon="-4.487211965024471">
        <ele>63.100000000000001</ele>
        <time>2025-05-09T17:08:16Z</time>
      </trkpt>
      <trkpt lat="36.724848998710513" lon="-4.487313972786069">
        <ele>63.100000000000001</ele>
        <time>2025-05-09T17:08:17Z</time>
      </trkpt>
      <trkpt lat="36.72484003007412" lon="-4.487363006919622">
        <ele>63.100000000000001</ele>
        <time>2025-05-09T17:08:18Z</time>
      </trkpt>
      <trkpt lat="36.724830977618694" lon="-4.487403994426131">
        <ele>63.100000000000001</ele>
        <time>2025-05-09T17:08:19Z</time>
      </trkpt>
      <trkpt lat="36.724824020639062" lon="-4.487440036609769">
        <ele>63.579999999999998</ele>
        <time>2025-05-09T17:08:20Z</time>
      </trkpt>
      <trkpt lat="36.724805999547243" lon="-4.487528968602419">
        <ele>63.579999999999998</ele>
        <time>2025-05-09T17:08:21Z</time>
      </trkpt>
      <trkpt lat="36.724826032295823" lon="-4.487586971372366">
        <ele>63.579999999999998</ele>
        <time>2025-05-09T17:08:22Z</time>
      </trkpt>
      <trkpt lat="36.724850004538894" lon="-4.48765997774899">
        <ele>63.579999999999998</ele>
        <time>2025-05-09T17:08:23Z</time>
      </trkpt>
      <trkpt lat="36.724870959296823" lon="-4.487722003832459">
        <ele>64.069999999999993</ele>
        <time>2025-05-09T17:08:24Z</time>
      </trkpt>
      <trkpt lat="36.724962992593646" lon="-4.48787396773696">
        <ele>64.069999999999993</ele>
        <time>2025-05-09T17:08:25Z</time>
      </trkpt>
      <trkpt lat="36.725038010627031" lon="-4.487892994657159">
        <ele>64.069999999999993</ele>
        <time>2025-05-09T17:08:26Z</time>
      </trkpt>
      <trkpt lat="36.725117973983288" lon="-4.487912021577358">
        <ele>64.069999999999993</ele>
        <time>2025-05-09T17:08:27Z</time>
      </trkpt>
      <trkpt lat="36.726053981110454" lon="-4.488146966323257">
        <ele>65.510000000000005</ele>
        <time>2025-05-09T17:08:37Z</time>
      </trkpt>
      <trkpt lat="36.727243959903717" lon="-4.488421976566315">
        <ele>67.430000000000007</ele>
        <time>2025-05-09T17:08:47Z</time>
      </trkpt>
      <trkpt lat="36.728511974215508" lon="-4.4886489585042">
        <ele>67.909999999999997</ele>
        <time>2025-05-09T17:08:58Z</time>
      </trkpt>
      <trkpt lat="36.729470025748014" lon="-4.488820033147931">
        <ele>71.269999999999996</ele>
        <time>2025-05-09T17:09:06Z</time>
      </trkpt>
      <trkpt lat="36.73090199008584" lon="-4.48907601647079">
        <ele>76.079999999999998</ele>
        <time>2025-05-09T17:09:18Z</time>
      </trkpt>
      <trkpt lat="36.732007982209325" lon="-4.489273997023702">
        <ele>83.290000000000006</ele>
        <time>2025-05-09T17:09:28Z</time>
      </trkpt>
      <trkpt lat="36.732086017727852" lon="-4.489287994801998">
        <ele>83.769999999999996</ele>
        <time>2025-05-09T17:09:29Z</time>
      </trkpt>
      <trkpt lat="36.732157012447715" lon="-4.489299980923533">
        <ele>84.25</ele>
        <time>2025-05-09T17:09:30Z</time>
      </trkpt>
      <trkpt lat="36.732235969975591" lon="-4.489262010902166">
        <ele>84.730000000000004</ele>
        <time>2025-05-09T17:09:31Z</time>
      </trkpt>
      <trkpt lat="36.732294978573918" lon="-4.489160003140569">
        <ele>85.209999999999994</ele>
        <time>2025-05-09T17:09:32Z</time>
      </trkpt>
      <trkpt lat="36.732342001050711" lon="-4.489140976220369">
        <ele>85.689999999999998</ele>
        <time>2025-05-09T17:09:33Z</time>
      </trkpt>
      <trkpt lat="36.732438979670405" lon="-4.489131001755595">
        <ele>86.180000000000007</ele>
        <time>2025-05-09T17:09:34Z</time>
      </trkpt>
      <trkpt lat="36.732526989653707" lon="-4.489182969555259">
        <ele>86.659999999999997</ele>
        <time>2025-05-09T17:09:35Z</time>
      </trkpt>
      <trkpt lat="36.732574012130499" lon="-4.489244995638728">
        <ele>87.140000000000001</ele>
        <time>2025-05-09T17:09:36Z</time>
      </trkpt>
      <trkpt lat="36.732593039050698" lon="-4.489359995350242">
        <ele>87.620000000000005</ele>
        <time>2025-05-09T17:09:37Z</time>
      </trkpt>
      <trkpt lat="36.732594966888428" lon="-4.489373993128538">
        <ele>87.620000000000005</ele>
        <time>2025-05-09T17:09:38Z</time>
      </trkpt>
      <trkpt lat="36.732644001021981" lon="-4.489637017250061">
        <ele>87.620000000000005</ele>
        <time>2025-05-09T17:09:40Z</time>
      </trkpt>
      <trkpt lat="36.732708960771561" lon="-4.489702982828021">
        <ele>87.620000000000005</ele>
        <time>2025-05-09T17:09:41Z</time>
      </trkpt>
      <trkpt lat="36.732778027653694" lon="-4.489771965891123">
        <ele>87.140000000000001</ele>
        <time>2025-05-09T17:09:42Z</time>
      </trkpt>
      <trkpt lat="36.732921022921801" lon="-4.489914961159229">
        <ele>86.180000000000007</ele>
        <time>2025-05-09T17:09:44Z</time>
      </trkpt>
      <trkpt lat="36.733742030337453" lon="-4.490476967766881">
        <ele>85.209999999999994</ele>
        <time>2025-05-09T17:09:52Z</time>
      </trkpt>
      <trkpt lat="36.734638977795839" lon="-4.491403000429273">
        <ele>84.25</ele>
        <time>2025-05-09T17:10:01Z</time>
      </trkpt>
      <trkpt lat="36.735608009621501" lon="-4.492552997544408">
        <ele>86.180000000000007</ele>
        <time>2025-05-09T17:10:12Z</time>
      </trkpt>
      <trkpt lat="36.735726026818156" lon="-4.492620974779129">
        <ele>87.140000000000001</ele>
        <time>2025-05-09T17:10:13Z</time>
      </trkpt>
      <trkpt lat="36.735957032069564" lon="-4.492738991975784">
        <ele>88.579999999999998</ele>
        <time>2025-05-09T17:10:15Z</time>
      </trkpt>
      <trkpt lat="36.736076977103949" lon="-4.492775034159422">
        <ele>89.060000000000002</ele>
        <time>2025-05-09T17:10:16Z</time>
      </trkpt>
      <trkpt lat="36.73618895933032" lon="-4.492786014452577">
        <ele>90.019999999999996</ele>
        <time>2025-05-09T17:10:17Z</time>
      </trkpt>
      <trkpt lat="36.736304964870214" lon="-4.492786014452577">
        <ele>90.5</ele>
        <time>2025-05-09T17:10:18Z</time>
      </trkpt>
      <trkpt lat="36.736417030915618" lon="-4.492786014452577">
        <ele>91.459999999999994</ele>
        <time>2025-05-09T17:10:19Z</time>
      </trkpt>
      <trkpt lat="36.736950958147645" lon="-4.492714013904333">
        <ele>92.900000000000006</ele>
        <time>2025-05-09T17:10:24Z</time>
      </trkpt>
      <trkpt lat="36.738066002726555" lon="-4.492186037823558">
        <ele>90.980000000000004</ele>
        <time>2025-05-09T17:10:35Z</time>
      </trkpt>
      <trkpt lat="36.738962028175592" lon="-4.49172000400722">
        <ele>90.5</ele>
        <time>2025-05-09T17:10:44Z</time>
      </trkpt>
      <trkpt lat="36.739634005352855" lon="-4.491369975730777">
        <ele>91.939999999999998</ele>
        <time>2025-05-09T17:10:50Z</time>
      </trkpt>
      <trkpt lat="36.739790998399258" lon="-4.491223962977529">
        <ele>92.900000000000006</ele>
        <time>2025-05-09T17:10:52Z</time>
      </trkpt>
      <trkpt lat="36.739869033917785" lon="-4.491151962429285">
        <ele>93.870000000000005</ele>
        <time>2025-05-09T17:10:53Z</time>
      </trkpt>
      <trkpt lat="36.740494994446635" lon="-4.490436986088753">
        <ele>98.670000000000002</ele>
        <time>2025-05-09T17:11:02Z</time>
      </trkpt>
      <trkpt lat="36.740571018308401" lon="-4.490377977490425">
        <ele>99.150000000000006</ele>
        <time>2025-05-09T17:11:03Z</time>
      </trkpt>
      <trkpt lat="36.741497972980142" lon="-4.489826029166579">
        <ele>104.92</ele>
        <time>2025-05-09T17:11:12Z</time>
      </trkpt>
      <trkpt lat="36.742433980107307" lon="-4.489374998956919">
        <ele>112.13</ele>
        <time>2025-05-09T17:11:21Z</time>
      </trkpt>
      <trkpt lat="36.742937983945012" lon="-4.489310039207339">
        <ele>115.98</ele>
        <time>2025-05-09T17:11:28Z</time>
      </trkpt>
      <trkpt lat="36.742994980886579" lon="-4.489244995638728">
        <ele>116.45999999999999</ele>
        <time>2025-05-09T17:11:29Z</time>
      </trkpt>
      <trkpt lat="36.743024988099933" lon="-4.489279026165605">
        <ele>116.45999999999999</ele>
        <time>2025-05-09T17:11:30Z</time>
      </trkpt>
      <trkpt lat="36.743053989484906" lon="-4.489311967045069">
        <ele>116.94</ele>
        <time>2025-05-09T17:11:31Z</time>
      </trkpt>
      <trkpt lat="36.743080979213119" lon="-4.489341974258423">
        <ele>116.94</ele>
        <time>2025-05-09T17:11:32Z</time>
      </trkpt>
      <trkpt lat="36.74310302361846" lon="-4.489367036148906">
        <ele>117.42</ele>
        <time>2025-05-09T17:11:33Z</time>
      </trkpt>
      <trkpt lat="36.74310302361846" lon="-4.489367036148906">
        <ele>117.42</ele>
        <time>2025-05-09T17:11:43Z</time>
      </trkpt>
      <trkpt lat="36.743326988071203" lon="-4.4896350055933">
        <ele>117.90000000000001</ele>
        <time>2025-05-09T17:11:53Z</time>
      </trkpt>
      <trkpt lat="36.74364298582077" lon="-4.48998000472784">
        <ele>118.38</ele>
        <time>2025-05-09T17:11:58Z</time>
      </trkpt>
      <trkpt lat="36.743709035217762" lon="-4.490053011104465">
        <ele>118.38</ele>
        <time>2025-05-09T17:11:59Z</time>
      </trkpt>
      <trkpt lat="36.743776006624103" lon="-4.490126017481089">
        <ele>118.86</ele>
        <time>2025-05-09T17:12:00Z</time>
      </trkpt>
      <trkpt lat="36.743841972202063" lon="-4.490198018029332">
        <ele>118.86</ele>
        <time>2025-05-09T17:12:01Z</time>
      </trkpt>
      <trkpt lat="36.743906009942293" lon="-4.490268006920815">
        <ele>119.34</ele>
        <time>2025-05-09T17:12:02Z</time>
      </trkpt>
      <trkpt lat="36.74480102956295" lon="-4.491232009604573">
        <ele>125.11</ele>
        <time>2025-05-09T17:12:14Z</time>
      </trkpt>
      <trkpt lat="36.745915990322828" lon="-4.491853024810553">
        <ele>132.31999999999999</ele>
        <time>2025-05-09T17:12:25Z</time>
      </trkpt>
      <trkpt lat="36.746969008818269" lon="-4.492497006431222">
        <ele>137.61000000000001</ele>
        <time>2025-05-09T17:12:35Z</time>
      </trkpt>
      <trkpt lat="36.747284000739455" lon="-4.492699010297656">
        <ele>138.56999999999999</ele>
        <time>2025-05-09T17:12:38Z</time>
      </trkpt>
      <trkpt lat="36.748364008963108" lon="-4.492905037477613">
        <ele>138.56999999999999</ele>
        <time>2025-05-09T17:12:47Z</time>
      </trkpt>
      <trkpt lat="36.748537011444569" lon="-4.492935966700316">
        <ele>138.09</ele>
        <time>2025-05-09T17:12:49Z</time>
      </trkpt>
      <trkpt lat="36.748731974512339" lon="-4.492764975875616">
        <ele>138.09</ele>
        <time>2025-05-09T17:12:50Z</time>
      </trkpt>
      <trkpt lat="36.748731974512339" lon="-4.492764975875616">
        <ele>138.09</ele>
        <time>2025-05-09T17:12:51Z</time>
      </trkpt>
      <trkpt lat="36.749523980543017" lon="-4.492368008941412">
        <ele>138.56999999999999</ele>
        <time>2025-05-09T17:12:58Z</time>
      </trkpt>
      <trkpt lat="36.750576999038458" lon="-4.491874985396862">
        <ele>140.00999999999999</ele>
        <time>2025-05-09T17:13:05Z</time>
      </trkpt>
      <trkpt lat="36.750684035941958" lon="-4.491841960698366">
        <ele>140.00999999999999</ele>
        <time>2025-05-09T17:13:06Z</time>
      </trkpt>
      <trkpt lat="36.75094697624445" lon="-4.491858975961804">
        <ele>140.00999999999999</ele>
        <time>2025-05-09T17:13:08Z</time>
      </trkpt>
      <trkpt lat="36.751074967905879" lon="-4.491734001785517">
        <ele>140.00999999999999</ele>
        <time>2025-05-09T17:13:09Z</time>
      </trkpt>
      <trkpt lat="36.751132970675826" lon="-4.491625037044287">
        <ele>140.00999999999999</ele>
        <time>2025-05-09T17:13:10Z</time>
      </trkpt>
      <trkpt lat="36.751335980370641" lon="-4.491432001814246">
        <ele>140.97</ele>
        <time>2025-05-09T17:13:12Z</time>
      </trkpt>
      <trkpt lat="36.751457015052438" lon="-4.491348015144467">
        <ele>141.44999999999999</ele>
        <time>2025-05-09T17:13:13Z</time>
      </trkpt>
      <trkpt lat="36.751586012542248" lon="-4.491326976567507">
        <ele>141.93000000000001</ele>
        <time>2025-05-09T17:13:14Z</time>
      </trkpt>
      <trkpt lat="36.751706041395664" lon="-4.491326976567507">
        <ele>142.88999999999999</ele>
        <time>2025-05-09T17:13:15Z</time>
      </trkpt>
      <trkpt lat="36.751831015571952" lon="-4.491358995437622">
        <ele>143.84999999999999</ele>
        <time>2025-05-09T17:13:16Z</time>
      </trkpt>
      <trkpt lat="36.751967975869775" lon="-4.491404006257653">
        <ele>144.34</ele>
        <time>2025-05-09T17:13:17Z</time>
      </trkpt>
      <trkpt lat="36.752065038308501" lon="-4.49148497544229">
        <ele>145.30000000000001</ele>
        <time>2025-05-09T17:13:18Z</time>
      </trkpt>
      <trkpt lat="36.752142990007997" lon="-4.491563010960817">
        <ele>145.78</ele>
        <time>2025-05-09T17:13:19Z</time>
      </trkpt>
      <trkpt lat="36.75221499055624" lon="-4.491732995957136">
        <ele>146.25999999999999</ele>
        <time>2025-05-09T17:13:20Z</time>
      </trkpt>
      <trkpt lat="36.75227802246809" lon="-4.491882026195526">
        <ele>146.25999999999999</ele>
        <time>2025-05-09T17:13:21Z</time>
      </trkpt>
      <trkpt lat="36.752314986661077" lon="-4.491986967623234">
        <ele>146.74000000000001</ele>
        <time>2025-05-09T17:13:22Z</time>
      </trkpt>
      <trkpt lat="36.752314986661077" lon="-4.492145972326398">
        <ele>147.22</ele>
        <time>2025-05-09T17:13:23Z</time>
      </trkpt>
      <trkpt lat="36.752314986661077" lon="-4.492271030321717">
        <ele>147.22</ele>
        <time>2025-05-09T17:13:24Z</time>
      </trkpt>
      <trkpt lat="36.752285985276103" lon="-4.492378989234567">
        <ele>147.22</ele>
        <time>2025-05-09T17:13:25Z</time>
      </trkpt>
      <trkpt lat="36.752363014966249" lon="-4.492576969787478">
        <ele>146.74000000000001</ele>
        <time>2025-05-09T17:13:26Z</time>
      </trkpt>
      <trkpt lat="36.752424035221338" lon="-4.492615023627877">
        <ele>146.74000000000001</ele>
        <time>2025-05-09T17:13:27Z</time>
      </trkpt>
      <trkpt lat="36.752497963607311" lon="-4.492658022791147">
        <ele>146.25999999999999</ele>
        <time>2025-05-09T17:13:28Z</time>
      </trkpt>
      <trkpt lat="36.752581028267741" lon="-4.492704961448908">
        <ele>146.25999999999999</ele>
        <time>2025-05-09T17:13:29Z</time>
      </trkpt>
      <trkpt lat="36.752670966088772" lon="-4.492756007239223">
        <ele>145.78</ele>
        <time>2025-05-09T17:13:30Z</time>
      </trkpt>
      <trkpt lat="36.753561040386558" lon="-4.493255987763405">
        <ele>145.30000000000001</ele>
        <time>2025-05-09T17:13:37Z</time>
      </trkpt>
      <trkpt lat="36.754188006743789" lon="-4.49365203268826">
        <ele>145.30000000000001</ele>
        <time>2025-05-09T17:13:41Z</time>
      </trkpt>
      <trkpt lat="36.754344999790192" lon="-4.493777006864548">
        <ele>145.30000000000001</ele>
        <time>2025-05-09T17:13:42Z</time>
      </trkpt>
      <trkpt lat="36.755612008273602" lon="-4.494731035083532">
        <ele>146.25999999999999</ele>
        <time>2025-05-09T17:13:50Z</time>
      </trkpt>
      <trkpt lat="36.756412982940674" lon="-4.495091959834099">
        <ele>145.78</ele>
        <time>2025-05-09T17:13:56Z</time>
      </trkpt>
      <trkpt lat="36.757271960377693" lon="-4.495490016415715">
        <ele>141.44999999999999</ele>
        <time>2025-05-09T17:14:05Z</time>
      </trkpt>
      <trkpt lat="36.757774958387017" lon="-4.495698977261782">
        <ele>139.05000000000001</ele>
        <time>2025-05-09T17:14:09Z</time>
      </trkpt>
      <trkpt lat="36.757884006947279" lon="-4.49580199085176">
        <ele>138.56999999999999</ele>
        <time>2025-05-09T17:14:10Z</time>
      </trkpt>
      <trkpt lat="36.757986014708877" lon="-4.495914978906512">
        <ele>137.61000000000001</ele>
        <time>2025-05-09T17:14:11Z</time>
      </trkpt>
      <trkpt lat="36.758800987154245" lon="-4.496773034334183">
        <ele>132.31999999999999</ele>
        <time>2025-05-09T17:14:20Z</time>
      </trkpt>
      <trkpt lat="36.759611014276743" lon="-4.497056007385254">
        <ele>128.94999999999999</ele>
        <time>2025-05-09T17:14:29Z</time>
      </trkpt>
      <trkpt lat="36.759997000917792" lon="-4.497119961306453">
        <ele>126.55</ele>
        <time>2025-05-09T17:14:35Z</time>
      </trkpt>
      <trkpt lat="36.76061499863863" lon="-4.497201014310122">
        <ele>124.63</ele>
        <time>2025-05-09T17:14:42Z</time>
      </trkpt>
      <trkpt lat="36.761144986376166" lon="-4.497158015146852">
        <ele>124.15000000000001</ele>
        <time>2025-05-09T17:14:46Z</time>
      </trkpt>
      <trkpt lat="36.761282030493021" lon="-4.497121972963214">
        <ele>124.15000000000001</ele>
        <time>2025-05-09T17:14:47Z</time>
      </trkpt>
      <trkpt lat="36.761628035455942" lon="-4.496991969645023">
        <ele>124.63</ele>
        <time>2025-05-09T17:14:50Z</time>
      </trkpt>
      <trkpt lat="36.761773964390159" lon="-4.497016025707126">
        <ele>124.63</ele>
        <time>2025-05-09T17:14:51Z</time>
      </trkpt>
      <trkpt lat="36.762143019586802" lon="-4.497077967971563">
        <ele>125.59</ele>
        <time>2025-05-09T17:14:54Z</time>
      </trkpt>
      <trkpt lat="36.762219965457916" lon="-4.497145023196936">
        <ele>126.06999999999999</ele>
        <time>2025-05-09T17:14:55Z</time>
      </trkpt>
      <trkpt lat="36.762315016239882" lon="-4.497228004038334">
        <ele>126.55</ele>
        <time>2025-05-09T17:14:56Z</time>
      </trkpt>
      <trkpt lat="36.762531017884612" lon="-4.497394971549511">
        <ele>127.51000000000001</ele>
        <time>2025-05-09T17:14:58Z</time>
      </trkpt>
      <trkpt lat="36.762650962918997" lon="-4.497439982369542">
        <ele>127.98999999999999</ele>
        <time>2025-05-09T17:14:59Z</time>
      </trkpt>
      <trkpt lat="36.762783983722329" lon="-4.497474012896419">
        <ele>128.47</ele>
        <time>2025-05-09T17:15:00Z</time>
      </trkpt>
      <trkpt lat="36.763154966756701" lon="-4.497621031478047">
        <ele>128.94999999999999</ele>
        <time>2025-05-09T17:15:03Z</time>
      </trkpt>
      <trkpt lat="36.763375997543335" lon="-4.497726978734136">
        <ele>129.43000000000001</ele>
        <time>2025-05-09T17:15:05Z</time>
      </trkpt>
      <trkpt lat="36.763485968112946" lon="-4.497742988169193">
        <ele>129.43000000000001</ele>
        <time>2025-05-09T17:15:06Z</time>
      </trkpt>
      <trkpt lat="36.763588981702924" lon="-4.497736031189561">
        <ele>129.91999999999999</ele>
        <time>2025-05-09T17:15:07Z</time>
      </trkpt>
      <trkpt lat="36.763676991686225" lon="-4.49767098762095">
        <ele>129.91999999999999</ele>
        <time>2025-05-09T17:15:08Z</time>
      </trkpt>
      <trkpt lat="36.763765001669526" lon="-4.497596975415945">
        <ele>130.40000000000001</ele>
        <time>2025-05-09T17:15:09Z</time>
      </trkpt>
      <trkpt lat="36.763846976682544" lon="-4.497491028159857">
        <ele>130.88</ele>
        <time>2025-05-09T17:15:10Z</time>
      </trkpt>
      <trkpt lat="36.76420203410089" lon="-4.497041003778577">
        <ele>133.28</ele>
        <time>2025-05-09T17:15:14Z</time>
      </trkpt>
      <trkpt lat="36.764313010498881" lon="-4.496948970481753">
        <ele>133.75999999999999</ele>
        <time>2025-05-09T17:15:15Z</time>
      </trkpt>
      <trkpt lat="36.764522977173328" lon="-4.496753001585603">
        <ele>135.68000000000001</ele>
        <time>2025-05-09T17:15:17Z</time>
      </trkpt>
      <trkpt lat="36.76463202573359" lon="-4.496673960238695">
        <ele>136.16</ele>
        <time>2025-05-09T17:15:18Z</time>
      </trkpt>
      <trkpt lat="36.764749959111214" lon="-4.496627021580935">
        <ele>137.13</ele>
        <time>2025-05-09T17:15:19Z</time>
      </trkpt>
      <trkpt lat="36.764977024868131" lon="-4.496535994112492">
        <ele>138.56999999999999</ele>
        <time>2025-05-09T17:15:21Z</time>
      </trkpt>
      <trkpt lat="36.765070986002684" lon="-4.496452007442713">
        <ele>138.56999999999999</ele>
        <time>2025-05-09T17:15:22Z</time>
      </trkpt>
      <trkpt lat="36.765167964622378" lon="-4.496326027438045">
        <ele>139.05000000000001</ele>
        <time>2025-05-09T17:15:23Z</time>
      </trkpt>
      <trkpt lat="36.765197971835732" lon="-4.496207004413009">
        <ele>139.53</ele>
        <time>2025-05-09T17:15:24Z</time>
      </trkpt>
      <trkpt lat="36.76523401401937" lon="-4.496043976396322">
        <ele>140.00999999999999</ele>
        <time>2025-05-09T17:15:25Z</time>
      </trkpt>
      <trkpt lat="36.765246000140905" lon="-4.495860999450088">
        <ele>140.00999999999999</ele>
        <time>2025-05-09T17:15:26Z</time>
      </trkpt>
      <trkpt lat="36.765257986262441" lon="-4.495670981705189">
        <ele>140.00999999999999</ele>
        <time>2025-05-09T17:15:27Z</time>
      </trkpt>
      <trkpt lat="36.765269972383976" lon="-4.49548096396029">
        <ele>140.00999999999999</ele>
        <time>2025-05-09T17:15:28Z</time>
      </trkpt>
      <trkpt lat="36.765292016789317" lon="-4.495134958997369">
        <ele>139.53</ele>
        <time>2025-05-09T17:15:30Z</time>
      </trkpt>
      <trkpt lat="36.765322024002671" lon="-4.494997998699546">
        <ele>139.05000000000001</ele>
        <time>2025-05-09T17:15:31Z</time>
      </trkpt>
      <trkpt lat="36.765367034822702" lon="-4.494885010644794">
        <ele>138.56999999999999</ele>
        <time>2025-05-09T17:15:32Z</time>
      </trkpt>
      <trkpt lat="36.765425037592649" lon="-4.494839999824762">
        <ele>138.09</ele>
        <time>2025-05-09T17:15:33Z</time>
      </trkpt>
      <trkpt lat="36.765505000948906" lon="-4.494828013703227">
        <ele>137.61000000000001</ele>
        <time>2025-05-09T17:15:34Z</time>
      </trkpt>
      <trkpt lat="36.765582030639052" lon="-4.494848968461156">
        <ele>136.63999999999999</ele>
        <time>2025-05-09T17:15:35Z</time>
      </trkpt>
      <trkpt lat="36.765656964853406" lon="-4.494928009808064">
        <ele>135.68000000000001</ele>
        <time>2025-05-09T17:15:36Z</time>
      </trkpt>
      <trkpt lat="36.765735000371933" lon="-4.495049966499209">
        <ele>134.72</ele>
        <time>2025-05-09T17:15:37Z</time>
      </trkpt>
      <trkpt lat="36.765801971778274" lon="-4.495190028101206">
        <ele>133.75999999999999</ele>
        <time>2025-05-09T17:15:38Z</time>
      </trkpt>
      <trkpt lat="36.765857962891459" lon="-4.495333023369312">
        <ele>133.28</ele>
        <time>2025-05-09T17:15:39Z</time>
      </trkpt>
      <trkpt lat="36.765902973711491" lon="-4.495447017252445">
        <ele>132.31999999999999</ele>
        <time>2025-05-09T17:15:40Z</time>
      </trkpt>
      <trkpt lat="36.765983020886779" lon="-4.495502002537251">
        <ele>131.36000000000001</ele>
        <time>2025-05-09T17:15:41Z</time>
      </trkpt>
      <trkpt lat="36.766026020050049" lon="-4.495510971173644">
        <ele>130.88</ele>
        <time>2025-05-09T17:15:42Z</time>
      </trkpt>
      <trkpt lat="36.766119981184602" lon="-4.495449028909206">
        <ele>129.91999999999999</ele>
        <time>2025-05-09T17:15:43Z</time>
      </trkpt>
      <trkpt lat="36.766196005046368" lon="-4.495397983118892">
        <ele>129.43000000000001</ele>
        <time>2025-05-09T17:15:44Z</time>
      </trkpt>
      <trkpt lat="36.766268005594611" lon="-4.495381973683834">
        <ele>128.94999999999999</ele>
        <time>2025-05-09T17:15:45Z</time>
      </trkpt>
      <trkpt lat="36.766297006979585" lon="-4.49541499838233">
        <ele>127.98999999999999</ele>
        <time>2025-05-09T17:15:46Z</time>
      </trkpt>
      <trkpt lat="36.766325002536178" lon="-4.495483981445432">
        <ele>127.51000000000001</ele>
        <time>2025-05-09T17:15:47Z</time>
      </trkpt>
      <trkpt lat="36.766317961737514" lon="-4.495575008913875">
        <ele>126.55</ele>
        <time>2025-05-09T17:15:48Z</time>
      </trkpt>
      <trkpt lat="36.766303963959217" lon="-4.495716998353601">
        <ele>126.06999999999999</ele>
        <time>2025-05-09T17:15:49Z</time>
      </trkpt>
      <trkpt lat="36.766284015029669" lon="-4.495919002220035">
        <ele>124.63</ele>
        <time>2025-05-09T17:15:50Z</time>
      </trkpt>
      <trkpt lat="36.766316033899784" lon="-4.496085969731212">
        <ele>123.19</ele>
        <time>2025-05-09T17:15:51Z</time>
      </trkpt>
      <trkpt lat="36.766354003921151" lon="-4.496288979426026">
        <ele>122.22</ele>
        <time>2025-05-09T17:15:52Z</time>
      </trkpt>
      <trkpt lat="36.766403038054705" lon="-4.496486959978938">
        <ele>120.3</ele>
        <time>2025-05-09T17:15:53Z</time>
      </trkpt>
      <trkpt lat="36.766520971432328" lon="-4.496808992698789">
        <ele>117.90000000000001</ele>
        <time>2025-05-09T17:15:55Z</time>
      </trkpt>
      <trkpt lat="36.766602024435997" lon="-4.496915023773909">
        <ele>116.45999999999999</ele>
        <time>2025-05-09T17:15:56Z</time>
      </trkpt>
      <trkpt lat="36.766687016934156" lon="-4.496987024322152">
        <ele>115.5</ele>
        <time>2025-05-09T17:15:57Z</time>
      </trkpt>
      <trkpt lat="36.766795981675386" lon="-4.496987024322152">
        <ele>114.53</ele>
        <time>2025-05-09T17:15:58Z</time>
      </trkpt>
      <trkpt lat="36.766923973336816" lon="-4.496980989351869">
        <ele>114.05</ele>
        <time>2025-05-09T17:15:59Z</time>
      </trkpt>
      <trkpt lat="36.767065040767193" lon="-4.496975038200617">
        <ele>113.56999999999999</ele>
        <time>2025-05-09T17:16:00Z</time>
      </trkpt>
      <trkpt lat="36.767217004671693" lon="-4.496967997401953">
        <ele>113.09</ele>
        <time>2025-05-09T17:16:01Z</time>
      </trkpt>
      <trkpt lat="36.767626041546464" lon="-4.496949976310134">
        <ele>112.61</ele>
        <time>2025-05-09T17:16:04Z</time>
      </trkpt>
      <trkpt lat="36.767694018781185" lon="-4.496904965490103">
        <ele>112.61</ele>
        <time>2025-05-09T17:16:05Z</time>
      </trkpt>
      <trkpt lat="36.767741041257977" lon="-4.496847968548536">
        <ele>112.61</ele>
        <time>2025-05-09T17:16:06Z</time>
      </trkpt>
      <trkpt lat="36.767765013501048" lon="-4.496779991313815">
        <ele>112.13</ele>
        <time>2025-05-09T17:16:07Z</time>
      </trkpt>
      <trkpt lat="36.767765013501048" lon="-4.496694998815656">
        <ele>112.13</ele>
        <time>2025-05-09T17:16:08Z</time>
      </trkpt>
      <trkpt lat="36.767765013501048" lon="-4.496593996882439">
        <ele>112.13</ele>
        <time>2025-05-09T17:16:09Z</time>
      </trkpt>
      <trkpt lat="36.767765013501048" lon="-4.496472040191293">
        <ele>111.65000000000001</ele>
        <time>2025-05-09T17:16:10Z</time>
      </trkpt>
      <trkpt lat="36.767789991572499" lon="-4.496328961104155">
        <ele>111.65000000000001</ele>
        <time>2025-05-09T17:16:11Z</time>
      </trkpt>
      <trkpt lat="36.767860986292362" lon="-4.496214967221022">
        <ele>111.65000000000001</ele>
        <time>2025-05-09T17:16:12Z</time>
      </trkpt>
      <trkpt lat="36.767952013760805" lon="-4.496100973337889">
        <ele>111.65000000000001</ele>
        <time>2025-05-09T17:16:13Z</time>
      </trkpt>
      <trkpt lat="36.76804999820888" lon="-4.495983961969614">
        <ele>111.17</ele>
        <time>2025-05-09T17:16:14Z</time>
      </trkpt>
      <trkpt lat="36.768147982656956" lon="-4.495866028591991">
        <ele>111.17</ele>
        <time>2025-05-09T17:16:15Z</time>
      </trkpt>
      <trkpt lat="36.768247978761792" lon="-4.495745999738574">
        <ele>111.17</ele>
        <time>2025-05-09T17:16:16Z</time>
      </trkpt>
      <trkpt lat="36.76837102510035" lon="-4.49565002694726">
        <ele>111.17</ele>
        <time>2025-05-09T17:16:17Z</time>
      </trkpt>
      <trkpt lat="36.768498010933399" lon="-4.495591018348932">
        <ele>111.17</ele>
        <time>2025-05-09T17:16:18Z</time>
      </trkpt>
      <trkpt lat="36.768621979281306" lon="-4.495533015578985">
        <ele>111.17</ele>
        <time>2025-05-09T17:16:19Z</time>
      </trkpt>
      <trkpt lat="36.768762962892652" lon="-4.495582971721888">
        <ele>111.17</ele>
        <time>2025-05-09T17:16:20Z</time>
      </trkpt>
      <trkpt lat="36.768891960382462" lon="-4.495628988370299">
        <ele>111.17</ele>
        <time>2025-05-09T17:16:21Z</time>
      </trkpt>
      <trkpt lat="36.769007965922356" lon="-4.495721021667123">
        <ele>111.65000000000001</ele>
        <time>2025-05-09T17:16:22Z</time>
      </trkpt>
      <trkpt lat="36.769120031967759" lon="-4.495827974751592">
        <ele>111.65000000000001</ele>
        <time>2025-05-09T17:16:23Z</time>
      </trkpt>
      <trkpt lat="36.76923100836575" lon="-4.495932999998331">
        <ele>112.13</ele>
        <time>2025-05-09T17:16:24Z</time>
      </trkpt>
      <trkpt lat="36.76933603361249" lon="-4.496034001931548">
        <ele>112.13</ele>
        <time>2025-05-09T17:16:25Z</time>
      </trkpt>
      <trkpt lat="36.769456984475255" lon="-4.496111031621695">
        <ele>112.61</ele>
        <time>2025-05-09T17:16:26Z</time>
      </trkpt>
      <trkpt lat="36.769587993621826" lon="-4.496155036613345">
        <ele>113.09</ele>
        <time>2025-05-09T17:16:27Z</time>
      </trkpt>
      <trkpt lat="36.769727971404791" lon="-4.496124023571611">
        <ele>113.56999999999999</ele>
        <time>2025-05-09T17:16:28Z</time>
      </trkpt>
      <trkpt lat="36.769844982773066" lon="-4.496049005538225">
        <ele>114.05</ele>
        <time>2025-05-09T17:16:29Z</time>
      </trkpt>
      <trkpt lat="36.769974986091256" lon="-4.495919002220035">
        <ele>114.53</ele>
        <time>2025-05-09T17:16:30Z</time>
      </trkpt>
      <trkpt lat="36.770013961941004" lon="-4.495799979194999">
        <ele>115.01000000000001</ele>
        <time>2025-05-09T17:16:31Z</time>
      </trkpt>
      <trkpt lat="36.77007095888257" lon="-4.49562999419868">
        <ele>115.98</ele>
        <time>2025-05-09T17:16:32Z</time>
      </trkpt>
      <trkpt lat="36.770130973309278" lon="-4.495451040565968">
        <ele>115.98</ele>
        <time>2025-05-09T17:16:33Z</time>
      </trkpt>
      <trkpt lat="36.77021898329258" lon="-4.495281977578998">
        <ele>116.45999999999999</ele>
        <time>2025-05-09T17:16:34Z</time>
      </trkpt>
      <trkpt lat="36.770344963297248" lon="-4.495135964825749">
        <ele>116.45999999999999</ele>
        <time>2025-05-09T17:16:35Z</time>
      </trkpt>
      <trkpt lat="36.770496005192399" lon="-4.495021970942617">
        <ele>116.94</ele>
        <time>2025-05-09T17:16:36Z</time>
      </trkpt>
      <trkpt lat="36.770650986582041" lon="-4.494904959574342">
        <ele>116.94</ele>
        <time>2025-05-09T17:16:37Z</time>
      </trkpt>
      <trkpt lat="36.771087013185024" lon="-4.494575969874859">
        <ele>118.86</ele>
        <time>2025-05-09T17:16:40Z</time>
      </trkpt>
      <trkpt lat="36.771209975704551" lon="-4.494483014568687">
        <ele>119.81999999999999</ele>
        <time>2025-05-09T17:16:41Z</time>
      </trkpt>
      <trkpt lat="36.771308965981007" lon="-4.494372038170695">
        <ele>120.78</ele>
        <time>2025-05-09T17:16:42Z</time>
      </trkpt>
      <trkpt lat="36.771403010934591" lon="-4.494238011538982">
        <ele>121.26000000000001</ele>
        <time>2025-05-09T17:16:43Z</time>
      </trkpt>
      <trkpt lat="36.771476017311215" lon="-4.494072971865535">
        <ele>121.73999999999999</ele>
        <time>2025-05-09T17:16:44Z</time>
      </trkpt>
      <trkpt lat="36.771712973713875" lon="-4.493558993563056">
        <ele>123.67</ele>
        <time>2025-05-09T17:16:47Z</time>
      </trkpt>
      <trkpt lat="36.771824033930898" lon="-4.493447011336684">
        <ele>124.15000000000001</ele>
        <time>2025-05-09T17:16:48Z</time>
      </trkpt>
      <trkpt lat="36.771941967308521" lon="-4.493361013010144">
        <ele>124.63</ele>
        <time>2025-05-09T17:16:49Z</time>
      </trkpt>
      <trkpt lat="36.772078005596995" lon="-4.493300998583436">
        <ele>125.59</ele>
        <time>2025-05-09T17:16:50Z</time>
      </trkpt>
      <trkpt lat="36.772227035835385" lon="-4.493280965834856">
        <ele>126.55</ele>
        <time>2025-05-09T17:16:51Z</time>
      </trkpt>
      <trkpt lat="36.772383023053408" lon="-4.493260011076927">
        <ele>127.03</ele>
        <time>2025-05-09T17:16:52Z</time>
      </trkpt>
      <trkpt lat="36.772540016099811" lon="-4.493238972499967">
        <ele>128.47</ele>
        <time>2025-05-09T17:16:53Z</time>
      </trkpt>
      <trkpt lat="36.772702038288116" lon="-4.493217011913657">
        <ele>129.43000000000001</ele>
        <time>2025-05-09T17:16:54Z</time>
      </trkpt>
      <trkpt lat="36.773022981360555" lon="-4.493130007758737">
        <ele>131.84</ele>
        <time>2025-05-09T17:16:56Z</time>
      </trkpt>
      <trkpt lat="36.773172011598945" lon="-4.493066975846887">
        <ele>133.28</ele>
        <time>2025-05-09T17:16:57Z</time>
      </trkpt>
      <trkpt lat="36.77331299521029" lon="-4.493006961420178">
        <ele>134.72</ele>
        <time>2025-05-09T17:16:58Z</time>
      </trkpt>
      <trkpt lat="36.773436041548848" lon="-4.492958011105657">
        <ele>136.16</ele>
        <time>2025-05-09T17:16:59Z</time>
      </trkpt>
      <trkpt lat="36.773559004068375" lon="-4.492974020540714">
        <ele>137.13</ele>
        <time>2025-05-09T17:17:00Z</time>
      </trkpt>
      <trkpt lat="36.773669980466366" lon="-4.493037974461913">
        <ele>138.56999999999999</ele>
        <time>2025-05-09T17:17:01Z</time>
      </trkpt>
      <trkpt lat="36.773776011541486" lon="-4.493145011365414">
        <ele>139.53</ele>
        <time>2025-05-09T17:17:02Z</time>
      </trkpt>
      <trkpt lat="36.773870978504419" lon="-4.49328800663352">
        <ele>140.00999999999999</ele>
        <time>2025-05-09T17:17:03Z</time>
      </trkpt>
      <trkpt lat="36.773966029286385" lon="-4.493429996073246">
        <ele>141.44999999999999</ele>
        <time>2025-05-09T17:17:04Z</time>
      </trkpt>
      <trkpt lat="36.774063007906079" lon="-4.493554970249534">
        <ele>142.41</ele>
        <time>2025-05-09T17:17:05Z</time>
      </trkpt>
      <trkpt lat="36.774181025102735" lon="-4.49363199993968">
        <ele>143.37</ele>
        <time>2025-05-09T17:17:06Z</time>
      </trkpt>
      <trkpt lat="36.774315973743796" lon="-4.493639040738344">
        <ele>144.34</ele>
        <time>2025-05-09T17:17:07Z</time>
      </trkpt>
      <trkpt lat="36.774465003982186" lon="-4.493624037131667">
        <ele>145.30000000000001</ele>
        <time>2025-05-09T17:17:08Z</time>
      </trkpt>
      <trkpt lat="36.774620991200209" lon="-4.493607021868229">
        <ele>146.25999999999999</ele>
        <time>2025-05-09T17:17:09Z</time>
      </trkpt>
      <trkpt lat="36.774781001731753" lon="-4.493559999391437">
        <ele>146.74000000000001</ele>
        <time>2025-05-09T17:17:10Z</time>
      </trkpt>
      <trkpt lat="36.774943023920059" lon="-4.493497973307967">
        <ele>147.22</ele>
        <time>2025-05-09T17:17:11Z</time>
      </trkpt>
      <trkpt lat="36.775264972820878" lon="-4.493398983031511">
        <ele>148.66</ele>
        <time>2025-05-09T17:17:13Z</time>
      </trkpt>
      <trkpt lat="36.775403022766113" lon="-4.493449022993445">
        <ele>149.62</ele>
        <time>2025-05-09T17:17:14Z</time>
      </trkpt>
      <trkpt lat="36.775679038837552" lon="-4.493549019098282">
        <ele>150.58000000000001</ele>
        <time>2025-05-09T17:17:16Z</time>
      </trkpt>
      <trkpt lat="36.775823039934039" lon="-4.493554970249534">
        <ele>151.53999999999999</ele>
        <time>2025-05-09T17:17:17Z</time>
      </trkpt>
      <trkpt lat="36.776974964886904" lon="-4.493576008826494">
        <ele>157.78999999999999</ele>
        <time>2025-05-09T17:17:24Z</time>
      </trkpt>
      <trkpt lat="36.777145033702254" lon="-4.493552036583424">
        <ele>158.75</ele>
        <time>2025-05-09T17:17:25Z</time>
      </trkpt>
      <trkpt lat="36.777291968464851" lon="-4.493515994399786">
        <ele>159.72</ele>
        <time>2025-05-09T17:17:26Z</time>
      </trkpt>
      <trkpt lat="36.7774379812181" lon="-4.493418009951711">
        <ele>160.68000000000001</ele>
        <time>2025-05-09T17:17:27Z</time>
      </trkpt>
      <trkpt lat="36.77756798453629" lon="-4.493319019675255">
        <ele>161.63999999999999</ele>
        <time>2025-05-09T17:17:28Z</time>
      </trkpt>
      <trkpt lat="36.777679966762662" lon="-4.49317803606391">
        <ele>162.59999999999999</ele>
        <time>2025-05-09T17:17:29Z</time>
      </trkpt>
      <trkpt lat="36.778012979775667" lon="-4.492806969210506">
        <ele>165.96000000000001</ele>
        <time>2025-05-09T17:17:32Z</time>
      </trkpt>
      <trkpt lat="36.778141977265477" lon="-4.492713008075953">
        <ele>167.41</ele>
        <time>2025-05-09T17:17:33Z</time>
      </trkpt>
      <trkpt lat="36.778287990018725" lon="-4.492675038054586">
        <ele>168.37</ele>
        <time>2025-05-09T17:17:34Z</time>
      </trkpt>
      <trkpt lat="36.778723010793328" lon="-4.492538999766111">
        <ele>169.81</ele>
        <time>2025-05-09T17:17:37Z</time>
      </trkpt>
      <trkpt lat="36.778828036040068" lon="-4.492445038631558">
        <ele>169.33000000000001</ele>
        <time>2025-05-09T17:17:38Z</time>
      </trkpt>
      <trkpt lat="36.778909005224705" lon="-4.492316963151097">
        <ele>168.84999999999999</ele>
        <time>2025-05-09T17:17:39Z</time>
      </trkpt>
      <trkpt lat="36.778962984681129" lon="-4.492166005074978">
        <ele>168.37</ele>
        <time>2025-05-09T17:17:40Z</time>
      </trkpt>
      <trkpt lat="36.779017969965935" lon="-4.492012029513717">
        <ele>167.41</ele>
        <time>2025-05-09T17:17:41Z</time>
      </trkpt>
      <trkpt lat="36.779068009927869" lon="-4.49187096208334">
        <ele>166.93000000000001</ele>
        <time>2025-05-09T17:17:42Z</time>
      </trkpt>
      <trkpt lat="36.77913598716259" lon="-4.491773983463645">
        <ele>165.96000000000001</ele>
        <time>2025-05-09T17:17:43Z</time>
      </trkpt>
      <trkpt lat="36.779201030731201" lon="-4.491735007613897">
        <ele>165.47999999999999</ele>
        <time>2025-05-09T17:17:44Z</time>
      </trkpt>
      <trkpt lat="36.779263978824019" lon="-4.491750011220574">
        <ele>164.52000000000001</ele>
        <time>2025-05-09T17:17:45Z</time>
      </trkpt>
      <trkpt lat="36.779299015179276" lon="-4.491787981241942">
        <ele>164.03999999999999</ele>
        <time>2025-05-09T17:17:46Z</time>
      </trkpt>
      <trkpt lat="36.779332039877772" lon="-4.491874985396862">
        <ele>163.08000000000001</ele>
        <time>2025-05-09T17:17:47Z</time>
      </trkpt>
      <trkpt lat="36.779345031827688" lon="-4.491988979279995">
        <ele>162.12</ele>
        <time>2025-05-09T17:17:48Z</time>
      </trkpt>
      <trkpt lat="36.779327010735869" lon="-4.492141027003527">
        <ele>161.16</ele>
        <time>2025-05-09T17:17:49Z</time>
      </trkpt>
      <trkpt lat="36.779306977987289" lon="-4.492311011999846">
        <ele>160.19999999999999</ele>
        <time>2025-05-09T17:17:50Z</time>
      </trkpt>
      <trkpt lat="36.779287029057741" lon="-4.492486026138067">
        <ele>159.24000000000001</ele>
        <time>2025-05-09T17:17:51Z</time>
      </trkpt>
      <trkpt lat="36.779320975765586" lon="-4.492646958678961">
        <ele>157.78999999999999</ele>
        <time>2025-05-09T17:17:52Z</time>
      </trkpt>
      <trkpt lat="36.779354000464082" lon="-4.492803029716015">
        <ele>156.83000000000001</ele>
        <time>2025-05-09T17:17:53Z</time>
      </trkpt>
      <trkpt lat="36.779419966042042" lon="-4.492930015549064">
        <ele>155.38999999999999</ele>
        <time>2025-05-09T17:17:54Z</time>
      </trkpt>
      <trkpt lat="36.779509987682104" lon="-4.493000004440546">
        <ele>153.94999999999999</ele>
        <time>2025-05-09T17:17:55Z</time>
      </trkpt>
      <trkpt lat="36.779613001272082" lon="-4.493049960583448">
        <ele>152.99000000000001</ele>
        <time>2025-05-09T17:17:56Z</time>
      </trkpt>
      <trkpt lat="36.77973504178226" lon="-4.493067981675267">
        <ele>151.53999999999999</ele>
        <time>2025-05-09T17:17:57Z</time>
      </trkpt>
      <trkpt lat="36.779868984594941" lon="-4.493087008595467">
        <ele>150.09999999999999</ele>
        <time>2025-05-09T17:17:58Z</time>
      </trkpt>
      <trkpt lat="36.780010974034667" lon="-4.493107041344047">
        <ele>148.66</ele>
        <time>2025-05-09T17:17:59Z</time>
      </trkpt>
      <trkpt lat="36.780153969302773" lon="-4.493126990273595">
        <ele>147.22</ele>
        <time>2025-05-09T17:18:00Z</time>
      </trkpt>
      <trkpt lat="36.780277015641332" lon="-4.493215000256896">
        <ele>145.30000000000001</ele>
        <time>2025-05-09T17:18:01Z</time>
      </trkpt>
      <trkpt lat="36.780382040888071" lon="-4.493322959169745">
        <ele>143.84999999999999</ele>
        <time>2025-05-09T17:18:02Z</time>
      </trkpt>
      <trkpt lat="36.780452029779553" lon="-4.493464026600123">
        <ele>142.41</ele>
        <time>2025-05-09T17:18:03Z</time>
      </trkpt>
      <trkpt lat="36.780516989529133" lon="-4.493594029918313">
        <ele>140.97</ele>
        <time>2025-05-09T17:18:04Z</time>
      </trkpt>
      <trkpt lat="36.780546996742487" lon="-4.493730990216136">
        <ele>140.00999999999999</ele>
        <time>2025-05-09T17:18:05Z</time>
      </trkpt>
      <trkpt lat="36.780569963157177" lon="-4.493906004354358">
        <ele>138.56999999999999</ele>
        <time>2025-05-09T17:18:06Z</time>
      </trkpt>
      <trkpt lat="36.78059603087604" lon="-4.494097027927637">
        <ele>137.61000000000001</ele>
        <time>2025-05-09T17:18:07Z</time>
      </trkpt>
      <trkpt lat="36.780650010332465" lon="-4.494490977376699">
        <ele>135.19999999999999</ele>
        <time>2025-05-09T17:18:09Z</time>
      </trkpt>
      <trkpt lat="36.780707007274032" lon="-4.494668003171682">
        <ele>133.75999999999999</ele>
        <time>2025-05-09T17:18:10Z</time>
      </trkpt>
      <trkpt lat="36.780779007822275" lon="-4.494828013703227">
        <ele>132.31999999999999</ele>
        <time>2025-05-09T17:18:11Z</time>
      </trkpt>
      <trkpt lat="36.780846985056996" lon="-4.494976960122585">
        <ele>130.88</ele>
        <time>2025-05-09T17:18:12Z</time>
      </trkpt>
      <trkpt lat="36.780894007533789" lon="-4.49513697065413">
        <ele>129.43000000000001</ele>
        <time>2025-05-09T17:18:13Z</time>
      </trkpt>
      <trkpt lat="36.780929965898395" lon="-4.495319025591016">
        <ele>128.47</ele>
        <time>2025-05-09T17:18:14Z</time>
      </trkpt>
      <trkpt lat="36.780970031395555" lon="-4.495520023629069">
        <ele>127.03</ele>
        <time>2025-05-09T17:18:15Z</time>
      </trkpt>
      <trkpt lat="36.781145967543125" lon="-4.49629501439631">
        <ele>124.63</ele>
        <time>2025-05-09T17:18:19Z</time>
      </trkpt>
      <trkpt lat="36.781231965869665" lon="-4.496429963037372">
        <ele>124.63</ele>
        <time>2025-05-09T17:18:20Z</time>
      </trkpt>
      <trkpt lat="36.781321987509727" lon="-4.496572036296129">
        <ele>124.63</ele>
        <time>2025-05-09T17:18:21Z</time>
      </trkpt>
      <trkpt lat="36.781494989991188" lon="-4.496844029054046">
        <ele>125.11</ele>
        <time>2025-05-09T17:18:23Z</time>
      </trkpt>
      <trkpt lat="36.781561961397529" lon="-4.496964979916811">
        <ele>125.59</ele>
        <time>2025-05-09T17:18:24Z</time>
      </trkpt>
      <trkpt lat="36.781561961397529" lon="-4.497105041518807">
        <ele>126.55</ele>
        <time>2025-05-09T17:18:25Z</time>
      </trkpt>
      <trkpt lat="36.781531032174826" lon="-4.497254993766546">
        <ele>127.03</ele>
        <time>2025-05-09T17:18:26Z</time>
      </trkpt>
      <trkpt lat="36.78147898055613" lon="-4.497411986812949">
        <ele>127.98999999999999</ele>
        <time>2025-05-09T17:18:27Z</time>
      </trkpt>
      <trkpt lat="36.781334979459643" lon="-4.49784298427403">
        <ele>128.94999999999999</ele>
        <time>2025-05-09T17:18:30Z</time>
      </trkpt>
      <trkpt lat="36.781337996944785" lon="-4.497996037825942">
        <ele>128.94999999999999</ele>
        <time>2025-05-09T17:18:31Z</time>
      </trkpt>
      <trkpt lat="36.781353000551462" lon="-4.49814397841692">
        <ele>128.94999999999999</ele>
        <time>2025-05-09T17:18:32Z</time>
      </trkpt>
      <trkpt lat="36.781366998329759" lon="-4.498282028362155">
        <ele>128.47</ele>
        <time>2025-05-09T17:18:33Z</time>
      </trkpt>
      <trkpt lat="36.781425001099706" lon="-4.49838001281023">
        <ele>127.98999999999999</ele>
        <time>2025-05-09T17:18:34Z</time>
      </trkpt>
      <trkpt lat="36.781504964455962" lon="-4.498493000864983">
        <ele>127.51000000000001</ele>
        <time>2025-05-09T17:18:35Z</time>
      </trkpt>
      <trkpt lat="36.781591968610883" lon="-4.498615963384509">
        <ele>127.03</ele>
        <time>2025-05-09T17:18:36Z</time>
      </trkpt>
      <trkpt lat="36.781682996079326" lon="-4.498744960874319">
        <ele>126.06999999999999</ele>
        <time>2025-05-09T17:18:37Z</time>
      </trkpt>
      <trkpt lat="36.781775029376149" lon="-4.49887496419251">
        <ele>125.11</ele>
        <time>2025-05-09T17:18:38Z</time>
      </trkpt>
      <trkpt lat="36.781859016045928" lon="-4.498993987217546">
        <ele>124.15000000000001</ele>
        <time>2025-05-09T17:18:39Z</time>
      </trkpt>
      <trkpt lat="36.781934034079313" lon="-4.499100018292666">
        <ele>123.19</ele>
        <time>2025-05-09T17:18:40Z</time>
      </trkpt>
      <trkpt lat="36.782001005485654" lon="-4.499184004962444">
        <ele>122.70999999999999</ele>
        <time>2025-05-09T17:18:41Z</time>
      </trkpt>
      <trkpt lat="36.782097984105349" lon="-4.499222980812192">
        <ele>122.22</ele>
        <time>2025-05-09T17:18:42Z</time>
      </trkpt>
      <trkpt lat="36.782171996310353" lon="-4.499193979427218">
        <ele>121.26000000000001</ele>
        <time>2025-05-09T17:18:43Z</time>
      </trkpt>
      <trkpt lat="36.782264029607177" lon="-4.499157015234232">
        <ele>120.78</ele>
        <time>2025-05-09T17:18:44Z</time>
      </trkpt>
      <trkpt lat="36.782361008226871" lon="-4.499118039384484">
        <ele>120.3</ele>
        <time>2025-05-09T17:18:45Z</time>
      </trkpt>
      <trkpt lat="36.782526969909668" lon="-4.499030029401183">
        <ele>118.38</ele>
        <time>2025-05-09T17:18:47Z</time>
      </trkpt>
      <trkpt lat="36.782612968236208" lon="-4.498922992497683">
        <ele>117.42</ele>
        <time>2025-05-09T17:18:48Z</time>
      </trkpt>
      <trkpt lat="36.782642975449562" lon="-4.49887597002089">
        <ele>116.45999999999999</ele>
        <time>2025-05-09T17:18:49Z</time>
      </trkpt>
      <trkpt lat="36.782686980441213" lon="-4.498805981129408">
        <ele>115.5</ele>
        <time>2025-05-09T17:18:50Z</time>
      </trkpt>
      <trkpt lat="36.782721010968089" lon="-4.498750995844603">
        <ele>114.53</ele>
        <time>2025-05-09T17:18:51Z</time>
      </trkpt>
      <trkpt lat="36.782767027616501" lon="-4.498750995844603">
        <ele>113.56999999999999</ele>
        <time>2025-05-09T17:18:52Z</time>
      </trkpt>
      <trkpt lat="36.782820001244545" lon="-4.498750995844603">
        <ele>112.61</ele>
        <time>2025-05-09T17:18:53Z</time>
      </trkpt>
      <trkpt lat="36.782845985144377" lon="-4.498815033584833">
        <ele>111.65000000000001</ele>
        <time>2025-05-09T17:18:54Z</time>
      </trkpt>
      <trkpt lat="36.782880015671253" lon="-4.49893799610436">
        <ele>110.69</ele>
        <time>2025-05-09T17:18:55Z</time>
      </trkpt>
      <trkpt lat="36.782927960157394" lon="-4.499107981100678">
        <ele>109.73</ele>
        <time>2025-05-09T17:18:56Z</time>
      </trkpt>
      <trkpt lat="36.783116972073913" lon="-4.499667976051569">
        <ele>106.36</ele>
        <time>2025-05-09T17:18:59Z</time>
      </trkpt>
      <trkpt lat="36.783231971785426" lon="-4.499807031825185">
        <ele>105.88</ele>
        <time>2025-05-09T17:19:00Z</time>
      </trkpt>
      <trkpt lat="36.783341020345688" lon="-4.499923037365079">
        <ele>104.92</ele>
        <time>2025-05-09T17:19:01Z</time>
      </trkpt>
      <trkpt lat="36.783439004793763" lon="-4.500020015984774">
        <ele>103.95999999999999</ele>
        <time>2025-05-09T17:19:02Z</time>
      </trkpt>
      <trkpt lat="36.783546963706613" lon="-4.500051029026508">
        <ele>103</ele>
        <time>2025-05-09T17:19:03Z</time>
      </trkpt>
      <trkpt lat="36.783650983124971" lon="-4.500041976571083">
        <ele>102.04000000000001</ele>
        <time>2025-05-09T17:19:04Z</time>
      </trkpt>
      <trkpt lat="36.78373496979475" lon="-4.499967964366078">
        <ele>101.56</ele>
        <time>2025-05-09T17:19:05Z</time>
      </trkpt>
      <trkpt lat="36.783807976171374" lon="-4.499872997403145">
        <ele>101.08</ele>
        <time>2025-05-09T17:19:06Z</time>
      </trkpt>
      <trkpt lat="36.78386396728456" lon="-4.499736037105322">
        <ele>100.59999999999999</ele>
        <time>2025-05-09T17:19:07Z</time>
      </trkpt>
      <trkpt lat="36.783924987539649" lon="-4.499587006866932">
        <ele>100.59999999999999</ele>
        <time>2025-05-09T17:19:08Z</time>
      </trkpt>
      <trkpt lat="36.783991036936641" lon="-4.499424984678626">
        <ele>101.08</ele>
        <time>2025-05-09T17:19:09Z</time>
      </trkpt>
      <trkpt lat="36.784087009727955" lon="-4.499267991632223">
        <ele>101.08</ele>
        <time>2025-05-09T17:19:10Z</time>
      </trkpt>
      <trkpt lat="36.78420796059072" lon="-4.499135976657271">
        <ele>101.56</ele>
        <time>2025-05-09T17:19:11Z</time>
      </trkpt>
      <trkpt lat="36.784523036330938" lon="-4.498793995007873">
        <ele>102.04000000000001</ele>
        <time>2025-05-09T17:19:14Z</time>
      </trkpt>
      <trkpt lat="36.78454801440239" lon="-4.498669020831585">
        <ele>102.04000000000001</ele>
        <time>2025-05-09T17:19:15Z</time>
      </trkpt>
      <trkpt lat="36.784558994695544" lon="-4.498541029170156">
        <ele>102.04000000000001</ele>
        <time>2025-05-09T17:19:16Z</time>
      </trkpt>
      <trkpt lat="36.784509960561991" lon="-4.498280016705394">
        <ele>102.52</ele>
        <time>2025-05-09T17:19:18Z</time>
      </trkpt>
      <trkpt lat="36.784512978047132" lon="-4.498178008943796">
        <ele>102.52</ele>
        <time>2025-05-09T17:19:19Z</time>
      </trkpt>
      <trkpt lat="36.784563018009067" lon="-4.498123023658991">
        <ele>103</ele>
        <time>2025-05-09T17:19:20Z</time>
      </trkpt>
      <trkpt lat="36.78463501855731" lon="-4.498112965375185">
        <ele>103.48</ele>
        <time>2025-05-09T17:19:21Z</time>
      </trkpt>
      <trkpt lat="36.784715987741947" lon="-4.498131992295384">
        <ele>103.95999999999999</ele>
        <time>2025-05-09T17:19:22Z</time>
      </trkpt>
      <trkpt lat="36.784819001331925" lon="-4.498192006722093">
        <ele>103.95999999999999</ele>
        <time>2025-05-09T17:19:23Z</time>
      </trkpt>
      <trkpt lat="36.784930983558297" lon="-4.498256966471672">
        <ele>103.95999999999999</ele>
        <time>2025-05-09T17:19:24Z</time>
      </trkpt>
      <trkpt lat="36.785037014633417" lon="-4.498317986726761">
        <ele>103.95999999999999</ele>
        <time>2025-05-09T17:19:25Z</time>
      </trkpt>
      <trkpt lat="36.785131981596351" lon="-4.49833600781858">
        <ele>103.48</ele>
        <time>2025-05-09T17:19:26Z</time>
      </trkpt>
      <trkpt lat="36.785228038206697" lon="-4.498323015868664">
        <ele>103.48</ele>
        <time>2025-05-09T17:19:27Z</time>
      </trkpt>
      <trkpt lat="36.785279000177979" lon="-4.498241040855646">
        <ele>103.48</ele>
        <time>2025-05-09T17:19:28Z</time>
      </trkpt>
      <trkpt lat="36.785332979634404" lon="-4.498148001730442">
        <ele>103.48</ele>
        <time>2025-05-09T17:19:29Z</time>
      </trkpt>
      <trkpt lat="36.785385031253099" lon="-4.498048005625606">
        <ele>103.95999999999999</ele>
        <time>2025-05-09T17:19:30Z</time>
      </trkpt>
      <trkpt lat="36.785414032638073" lon="-4.497918002307415">
        <ele>103.95999999999999</ele>
        <time>2025-05-09T17:19:31Z</time>
      </trkpt>
      <trkpt lat="36.785444039851427" lon="-4.497786993160844">
        <ele>104.44</ele>
        <time>2025-05-09T17:19:32Z</time>
      </trkpt>
      <trkpt lat="36.78547203540802" lon="-4.497665036469698">
        <ele>104.44</ele>
        <time>2025-05-09T17:19:33Z</time>
      </trkpt>
      <trkpt lat="36.785543030127883" lon="-4.497551964595914">
        <ele>103.95999999999999</ele>
        <time>2025-05-09T17:19:34Z</time>
      </trkpt>
      <trkpt lat="36.785660041496158" lon="-4.497464038431644">
        <ele>103.95999999999999</ele>
        <time>2025-05-09T17:19:35Z</time>
      </trkpt>
      <trkpt lat="36.785787027329206" lon="-4.49741399846971">
        <ele>103.48</ele>
        <time>2025-05-09T17:19:36Z</time>
      </trkpt>
      <trkpt lat="36.785931028425694" lon="-4.497358007356525">
        <ele>102.52</ele>
        <time>2025-05-09T17:19:37Z</time>
      </trkpt>
      <trkpt lat="36.786221964284778" lon="-4.49721802957356">
        <ele>101.08</ele>
        <time>2025-05-09T17:19:39Z</time>
      </trkpt>
      <trkpt lat="36.786363031715155" lon="-4.497109986841679">
        <ele>100.59999999999999</ele>
        <time>2025-05-09T17:19:40Z</time>
      </trkpt>
      <trkpt lat="36.786776008084416" lon="-4.496813016012311">
        <ele>99.150000000000006</ele>
        <time>2025-05-09T17:19:43Z</time>
      </trkpt>
      <trkpt lat="36.786905005574226" lon="-4.496756019070745">
        <ele>98.189999999999998</ele>
        <time>2025-05-09T17:19:44Z</time>
      </trkpt>
      <trkpt lat="36.787059986963868" lon="-4.496763981878758">
        <ele>97.230000000000004</ele>
        <time>2025-05-09T17:19:45Z</time>
      </trkpt>
      <trkpt lat="36.787204993888736" lon="-4.496771022677422">
        <ele>96.269999999999996</ele>
        <time>2025-05-09T17:19:46Z</time>
      </trkpt>
      <trkpt lat="36.78734396584332" lon="-4.49679097160697">
        <ele>94.829999999999998</ele>
        <time>2025-05-09T17:19:47Z</time>
      </trkpt>
      <trkpt lat="36.787482015788555" lon="-4.496850986033678">
        <ele>92.900000000000006</ele>
        <time>2025-05-09T17:19:48Z</time>
      </trkpt>
      <trkpt lat="36.787624005228281" lon="-4.496913012117147">
        <ele>91.459999999999994</ele>
        <time>2025-05-09T17:19:49Z</time>
      </trkpt>
      <trkpt lat="36.787768006324768" lon="-4.496975038200617">
        <ele>89.540000000000006</ele>
        <time>2025-05-09T17:19:50Z</time>
      </trkpt>
      <trkpt lat="36.787920976057649" lon="-4.497001022100449">
        <ele>88.099999999999994</ele>
        <time>2025-05-09T17:19:51Z</time>
      </trkpt>
      <trkpt lat="36.7880720179528" lon="-4.497014014050365">
        <ele>86.659999999999997</ele>
        <time>2025-05-09T17:19:52Z</time>
      </trkpt>
      <trkpt lat="36.788232028484344" lon="-4.49702700600028">
        <ele>85.689999999999998</ele>
        <time>2025-05-09T17:19:53Z</time>
      </trkpt>
      <trkpt lat="36.788389021530747" lon="-4.497057013213635">
        <ele>84.730000000000004</ele>
        <time>2025-05-09T17:19:54Z</time>
      </trkpt>
      <trkpt lat="36.788536962121725" lon="-4.497105963528156">
        <ele>84.25</ele>
        <time>2025-05-09T17:19:55Z</time>
      </trkpt>
      <trkpt lat="36.788655985146761" lon="-4.4971779640764">
        <ele>84.25</ele>
        <time>2025-05-09T17:19:56Z</time>
      </trkpt>
      <trkpt lat="36.788753969594836" lon="-4.49726396240294">
        <ele>84.25</ele>
        <time>2025-05-09T17:19:57Z</time>
      </trkpt>
      <trkpt lat="36.788795040920377" lon="-4.497405029833317">
        <ele>84.730000000000004</ele>
        <time>2025-05-09T17:19:58Z</time>
      </trkpt>
      <trkpt lat="36.788839967921376" lon="-4.49756202287972">
        <ele>85.209999999999994</ele>
        <time>2025-05-09T17:19:59Z</time>
      </trkpt>
      <trkpt lat="36.788884978741407" lon="-4.497721027582884">
        <ele>85.689999999999998</ele>
        <time>2025-05-09T17:20:00Z</time>
      </trkpt>
      <trkpt lat="36.788922026753426" lon="-4.497850025072694">
        <ele>86.180000000000007</ele>
        <time>2025-05-09T17:20:01Z</time>
      </trkpt>
      <trkpt lat="36.789016993716359" lon="-4.497944992035627">
        <ele>86.659999999999997</ele>
        <time>2025-05-09T17:20:02Z</time>
      </trkpt>
      <trkpt lat="36.789097962900996" lon="-4.497995031997562">
        <ele>87.140000000000001</ele>
        <time>2025-05-09T17:20:03Z</time>
      </trkpt>
      <trkpt lat="36.789202988147736" lon="-4.498031996190548">
        <ele>87.620000000000005</ele>
        <time>2025-05-09T17:20:04Z</time>
      </trkpt>
      <trkpt lat="36.78931899368763" lon="-4.498072983697057">
        <ele>87.620000000000005</ele>
        <time>2025-05-09T17:20:05Z</time>
      </trkpt>
      <trkpt lat="36.789442962035537" lon="-4.498115982860327">
        <ele>87.620000000000005</ele>
        <time>2025-05-09T17:20:06Z</time>
      </trkpt>
      <trkpt lat="36.789886029437184" lon="-4.498145990073681">
        <ele>87.140000000000001</ele>
        <time>2025-05-09T17:20:09Z</time>
      </trkpt>
      <trkpt lat="36.7900509852916" lon="-4.498142972588539">
        <ele>86.659999999999997</ele>
        <time>2025-05-09T17:20:10Z</time>
      </trkpt>
      <trkpt lat="36.790919015184045" lon="-4.498068038374186">
        <ele>86.180000000000007</ele>
        <time>2025-05-09T17:20:15Z</time>
      </trkpt>
      <trkpt lat="36.791087994351983" lon="-4.498097039759159">
        <ele>86.180000000000007</ele>
        <time>2025-05-09T17:20:16Z</time>
      </trkpt>
      <trkpt lat="36.791244987398386" lon="-4.498155964538455">
        <ele>86.180000000000007</ele>
        <time>2025-05-09T17:20:17Z</time>
      </trkpt>
      <trkpt lat="36.791523015126586" lon="-4.498319998383522">
        <ele>84.730000000000004</ele>
        <time>2025-05-09T17:20:19Z</time>
      </trkpt>
      <trkpt lat="36.792145036160946" lon="-4.498964985832572">
        <ele>80.409999999999997</ele>
        <time>2025-05-09T17:20:24Z</time>
      </trkpt>
      <trkpt lat="36.792232040315866" lon="-4.499126002192497">
        <ele>79.930000000000007</ele>
        <time>2025-05-09T17:20:25Z</time>
      </trkpt>
      <trkpt lat="36.792309992015362" lon="-4.499311996623874">
        <ele>79.450000000000003</ele>
        <time>2025-05-09T17:20:26Z</time>
      </trkpt>
      <trkpt lat="36.792801003903151" lon="-4.500329978764057">
        <ele>81.370000000000005</ele>
        <time>2025-05-09T17:20:32Z</time>
      </trkpt>
      <trkpt lat="36.792910974472761" lon="-4.500403990969062">
        <ele>82.810000000000002</ele>
        <time>2025-05-09T17:20:33Z</time>
      </trkpt>
      <trkpt lat="36.793038966134191" lon="-4.50048303231597">
        <ele>83.769999999999996</ele>
        <time>2025-05-09T17:20:34Z</time>
      </trkpt>
      <trkpt lat="36.793172992765903" lon="-4.500540029257536">
        <ele>85.209999999999994</ele>
        <time>2025-05-09T17:20:35Z</time>
      </trkpt>
      <trkpt lat="36.793310036882758" lon="-4.500585962086916">
        <ele>86.180000000000007</ele>
        <time>2025-05-09T17:20:36Z</time>
      </trkpt>
      <trkpt lat="36.795065039768815" lon="-4.50087396427989">
        <ele>98.189999999999998</ele>
        <time>2025-05-09T17:20:47Z</time>
      </trkpt>
      <trkpt lat="36.795293027535081" lon="-4.500911012291908">
        <ele>100.11</ele>
        <time>2025-05-09T17:20:49Z</time>
      </trkpt>
      <trkpt lat="36.795395035296679" lon="-4.500884022563696">
        <ele>100.59999999999999</ele>
        <time>2025-05-09T17:20:50Z</time>
      </trkpt>
      <trkpt lat="36.795482961460948" lon="-4.50083096511662">
        <ele>101.08</ele>
        <time>2025-05-09T17:20:51Z</time>
      </trkpt>
      <trkpt lat="36.796183018013835" lon="-4.500408014282584">
        <ele>106.84</ele>
        <time>2025-05-09T17:20:58Z</time>
      </trkpt>
      <trkpt lat="36.79625996388495" lon="-4.500360991805792">
        <ele>107.81</ele>
        <time>2025-05-09T17:20:59Z</time>
      </trkpt>
      <trkpt lat="36.796297011896968" lon="-4.500260995700955">
        <ele>108.77</ele>
        <time>2025-05-09T17:21:00Z</time>
      </trkpt>
      <trkpt lat="36.79634596221149" lon="-4.500125041231513">
        <ele>109.73</ele>
        <time>2025-05-09T17:21:01Z</time>
      </trkpt>
      <trkpt lat="36.796336993575096" lon="-4.500066032633185">
        <ele>110.69</ele>
        <time>2025-05-09T17:21:02Z</time>
      </trkpt>
      <trkpt lat="36.796320984140038" lon="-4.499962013214827">
        <ele>111.65000000000001</ele>
        <time>2025-05-09T17:21:03Z</time>
      </trkpt>
      <trkpt lat="36.796302041038871" lon="-4.499839972704649">
        <ele>112.61</ele>
        <time>2025-05-09T17:21:04Z</time>
      </trkpt>
      <trkpt lat="36.796247977763414" lon="-4.499415010213852">
        <ele>115.98</ele>
        <time>2025-05-09T17:21:07Z</time>
      </trkpt>
      <trkpt lat="36.79625996388495" lon="-4.499288024380803">
        <ele>116.45999999999999</ele>
        <time>2025-05-09T17:21:08Z</time>
      </trkpt>
      <trkpt lat="36.79632400162518" lon="-4.499135976657271">
        <ele>117.42</ele>
        <time>2025-05-09T17:21:09Z</time>
      </trkpt>
      <trkpt lat="36.796377981081605" lon="-4.499008990824223">
        <ele>118.38</ele>
        <time>2025-05-09T17:21:10Z</time>
      </trkpt>
      <trkpt lat="36.79642902687192" lon="-4.498888039961457">
        <ele>118.86</ele>
        <time>2025-05-09T17:21:11Z</time>
      </trkpt>
      <trkpt lat="36.796446964144707" lon="-4.498761976137757">
        <ele>119.34</ele>
        <time>2025-05-09T17:21:12Z</time>
      </trkpt>
      <trkpt lat="36.796416034922004" lon="-4.498661980032921">
        <ele>119.81999999999999</ele>
        <time>2025-05-09T17:21:13Z</time>
      </trkpt>
      <trkpt lat="36.796358032152057" lon="-4.498596014454961">
        <ele>120.3</ele>
        <time>2025-05-09T17:21:14Z</time>
      </trkpt>
      <trkpt lat="36.796267004683614" lon="-4.498554021120071">
        <ele>121.26000000000001</ele>
        <time>2025-05-09T17:21:15Z</time>
      </trkpt>
      <trkpt lat="36.796166002750397" lon="-4.498506998643279">
        <ele>121.73999999999999</ele>
        <time>2025-05-09T17:21:16Z</time>
      </trkpt>
      <trkpt lat="36.79604597389698" lon="-4.498451007530093">
        <ele>122.22</ele>
        <time>2025-05-09T17:21:17Z</time>
      </trkpt>
      <trkpt lat="36.79600297473371" lon="-4.498385963961482">
        <ele>122.70999999999999</ele>
        <time>2025-05-09T17:21:18Z</time>
      </trkpt>
      <trkpt lat="36.795986965298653" lon="-4.498232994228602">
        <ele>123.19</ele>
        <time>2025-05-09T17:21:19Z</time>
      </trkpt>
      <trkpt lat="36.79599903523922" lon="-4.498129980638623">
        <ele>123.67</ele>
        <time>2025-05-09T17:21:20Z</time>
      </trkpt>
      <trkpt lat="36.79604203440249" lon="-4.498030990362167">
        <ele>124.15000000000001</ele>
        <time>2025-05-09T17:21:21Z</time>
      </trkpt>
      <trkpt lat="36.796099031344056" lon="-4.497982040047646">
        <ele>124.15000000000001</ele>
        <time>2025-05-09T17:21:22Z</time>
      </trkpt>
      <trkpt lat="36.79617497138679" lon="-4.497924959287047">
        <ele>124.15000000000001</ele>
        <time>2025-05-09T17:21:23Z</time>
      </trkpt>
      <trkpt lat="36.796247977763414" lon="-4.497847007587552">
        <ele>124.15000000000001</ele>
        <time>2025-05-09T17:21:24Z</time>
      </trkpt>
      <trkpt lat="36.796307992190123" lon="-4.497741982340813">
        <ele>124.15000000000001</ele>
        <time>2025-05-09T17:21:25Z</time>
      </trkpt>
      <trkpt lat="36.796334981918335" lon="-4.497607033699751">
        <ele>124.15000000000001</ele>
        <time>2025-05-09T17:21:26Z</time>
      </trkpt>
      <trkpt lat="36.796337999403477" lon="-4.4974559918046">
        <ele>124.15000000000001</ele>
        <time>2025-05-09T17:21:27Z</time>
      </trkpt>
      <trkpt lat="36.796325007453561" lon="-4.497310984879732">
        <ele>124.15000000000001</ele>
        <time>2025-05-09T17:21:28Z</time>
      </trkpt>
      <trkpt lat="36.796314027160406" lon="-4.497174024581909">
        <ele>124.15000000000001</ele>
        <time>2025-05-09T17:21:29Z</time>
      </trkpt>
      <trkpt lat="36.796308998018503" lon="-4.497047960758209">
        <ele>124.15000000000001</ele>
        <time>2025-05-09T17:21:30Z</time>
      </trkpt>
      <trkpt lat="36.796377981081605" lon="-4.496949976310134">
        <ele>125.11</ele>
        <time>2025-05-09T17:21:31Z</time>
      </trkpt>
      <trkpt lat="36.796449981629848" lon="-4.496847968548536">
        <ele>126.06999999999999</ele>
        <time>2025-05-09T17:21:32Z</time>
      </trkpt>
      <trkpt lat="36.79651502519846" lon="-4.496756019070745">
        <ele>127.03</ele>
        <time>2025-05-09T17:21:33Z</time>
      </trkpt>
      <trkpt lat="36.796561041846871" lon="-4.496663985773921">
        <ele>127.98999999999999</ele>
        <time>2025-05-09T17:21:34Z</time>
      </trkpt>
      <trkpt lat="36.796561041846871" lon="-4.496558038517833">
        <ele>128.47</ele>
        <time>2025-05-09T17:21:35Z</time>
      </trkpt>
      <trkpt lat="36.796547966077924" lon="-4.496429041028023">
        <ele>129.43000000000001</ele>
        <time>2025-05-09T17:21:36Z</time>
      </trkpt>
      <trkpt lat="36.796526005491614" lon="-4.496279004961252">
        <ele>130.40000000000001</ele>
        <time>2025-05-09T17:21:37Z</time>
      </trkpt>
      <trkpt lat="36.796503039076924" lon="-4.496116982772946">
        <ele>130.88</ele>
        <time>2025-05-09T17:21:38Z</time>
      </trkpt>
      <trkpt lat="36.796476971358061" lon="-4.495937023311853">
        <ele>131.84</ele>
        <time>2025-05-09T17:21:39Z</time>
      </trkpt>
      <trkpt lat="36.796450987458229" lon="-4.495751028880477">
        <ele>132.31999999999999</ele>
        <time>2025-05-09T17:21:40Z</time>
      </trkpt>
      <trkpt lat="36.796417962759733" lon="-4.495399994775653">
        <ele>133.75999999999999</ele>
        <time>2025-05-09T17:21:42Z</time>
      </trkpt>
      <trkpt lat="36.796435983851552" lon="-4.495227998122573">
        <ele>135.19999999999999</ele>
        <time>2025-05-09T17:21:43Z</time>
      </trkpt>
      <trkpt lat="36.796455010771751" lon="-4.495048960670829">
        <ele>136.16</ele>
        <time>2025-05-09T17:21:44Z</time>
      </trkpt>
      <trkpt lat="36.796474037691951" lon="-4.494861960411072">
        <ele>137.13</ele>
        <time>2025-05-09T17:21:45Z</time>
      </trkpt>
      <trkpt lat="36.796492980793118" lon="-4.494683006778359">
        <ele>138.09</ele>
        <time>2025-05-09T17:21:46Z</time>
      </trkpt>
      <trkpt lat="36.796551989391446" lon="-4.494542023167014">
        <ele>139.05000000000001</ele>
        <time>2025-05-09T17:21:47Z</time>
      </trkpt>
      <trkpt lat="36.796622984111309" lon="-4.494445966556668">
        <ele>140.00999999999999</ele>
        <time>2025-05-09T17:21:48Z</time>
      </trkpt>
      <trkpt lat="36.796714011579752" lon="-4.494367009028792">
        <ele>141.44999999999999</ele>
        <time>2025-05-09T17:21:49Z</time>
      </trkpt>
      <trkpt lat="36.796804033219814" lon="-4.494288973510265">
        <ele>142.41</ele>
        <time>2025-05-09T17:21:50Z</time>
      </trkpt>
      <trkpt lat="36.796890031546354" lon="-4.494214039295912">
        <ele>143.37</ele>
        <time>2025-05-09T17:21:51Z</time>
      </trkpt>
      <trkpt lat="36.796959014609456" lon="-4.494111025705934">
        <ele>144.34</ele>
        <time>2025-05-09T17:21:52Z</time>
      </trkpt>
      <trkpt lat="36.79696798324585" lon="-4.493972975760698">
        <ele>144.81999999999999</ele>
        <time>2025-05-09T17:21:53Z</time>
      </trkpt>
      <trkpt lat="36.79696798324585" lon="-4.493826040998101">
        <ele>145.30000000000001</ele>
        <time>2025-05-09T17:21:54Z</time>
      </trkpt>
      <trkpt lat="36.79696798324585" lon="-4.493669969961047">
        <ele>145.78</ele>
        <time>2025-05-09T17:21:55Z</time>
      </trkpt>
      <trkpt lat="36.796980975195765" lon="-4.493514988571405">
        <ele>146.25999999999999</ele>
        <time>2025-05-09T17:21:56Z</time>
      </trkpt>
      <trkpt lat="36.797029003500938" lon="-4.49337400496006">
        <ele>147.22</ele>
        <time>2025-05-09T17:21:57Z</time>
      </trkpt>
      <trkpt lat="36.797093963250518" lon="-4.493250036612153">
        <ele>147.69999999999999</ele>
        <time>2025-05-09T17:21:58Z</time>
      </trkpt>
      <trkpt lat="36.797223966568708" lon="-4.493001010268927">
        <ele>148.66</ele>
        <time>2025-05-09T17:22:00Z</time>
      </trkpt>
      <trkpt lat="36.797302002087235" lon="-4.492895985022187">
        <ele>149.62</ele>
        <time>2025-05-09T17:22:01Z</time>
      </trkpt>
      <trkpt lat="36.797396969050169" lon="-4.492842005565763">
        <ele>150.09999999999999</ele>
        <time>2025-05-09T17:22:02Z</time>
      </trkpt>
      <trkpt lat="36.797508029267192" lon="-4.492822978645563">
        <ele>150.58000000000001</ele>
        <time>2025-05-09T17:22:03Z</time>
      </trkpt>
      <trkpt lat="36.797624034807086" lon="-4.492816021665931">
        <ele>151.06</ele>
        <time>2025-05-09T17:22:04Z</time>
      </trkpt>
      <trkpt lat="36.797736017033458" lon="-4.492808980867267">
        <ele>151.53999999999999</ele>
        <time>2025-05-09T17:22:05Z</time>
      </trkpt>
      <trkpt lat="36.797821009531617" lon="-4.492760030552745">
        <ele>152.03</ele>
        <time>2025-05-09T17:22:06Z</time>
      </trkpt>
      <trkpt lat="36.797874988988042" lon="-4.492687024176121">
        <ele>152.50999999999999</ele>
        <time>2025-05-09T17:22:07Z</time>
      </trkpt>
      <trkpt lat="36.797893010079861" lon="-4.492569006979466">
        <ele>152.99000000000001</ele>
        <time>2025-05-09T17:22:08Z</time>
      </trkpt>
      <trkpt lat="36.797911031171679" lon="-4.492446966469288">
        <ele>152.99000000000001</ele>
        <time>2025-05-09T17:22:09Z</time>
      </trkpt>
      <trkpt lat="36.797928968444467" lon="-4.492326015606523">
        <ele>153.47</ele>
        <time>2025-05-09T17:22:10Z</time>
      </trkpt>
      <trkpt lat="36.797971967607737" lon="-4.492216967046261">
        <ele>153.94999999999999</ele>
        <time>2025-05-09T17:22:11Z</time>
      </trkpt>
      <trkpt lat="36.798040028661489" lon="-4.492131974548101">
        <ele>154.43000000000001</ele>
        <time>2025-05-09T17:22:12Z</time>
      </trkpt>
      <trkpt lat="36.798137007281184" lon="-4.492099033668637">
        <ele>154.91</ele>
        <time>2025-05-09T17:22:13Z</time>
      </trkpt>
      <trkpt lat="36.798218982294202" lon="-4.492133986204863">
        <ele>155.87</ele>
        <time>2025-05-09T17:22:14Z</time>
      </trkpt>
      <trkpt lat="36.798276985064149" lon="-4.492206992581487">
        <ele>156.34999999999999</ele>
        <time>2025-05-09T17:22:15Z</time>
      </trkpt>
      <trkpt lat="36.798323001712561" lon="-4.492316041141748">
        <ele>156.83000000000001</ele>
        <time>2025-05-09T17:22:16Z</time>
      </trkpt>
      <trkpt lat="36.798373041674495" lon="-4.492435986176133">
        <ele>157.31</ele>
        <time>2025-05-09T17:22:17Z</time>
      </trkpt>
      <trkpt lat="36.79838502779603" lon="-4.492577975615859">
        <ele>158.27000000000001</ele>
        <time>2025-05-09T17:22:18Z</time>
      </trkpt>
      <trkpt lat="36.79838502779603" lon="-4.492717031389475">
        <ele>159.24000000000001</ele>
        <time>2025-05-09T17:22:19Z</time>
      </trkpt>
      <trkpt lat="36.79838502779603" lon="-4.492844017222524">
        <ele>159.72</ele>
        <time>2025-05-09T17:22:20Z</time>
      </trkpt>
      <trkpt lat="36.798431966453791" lon="-4.492952981963754">
        <ele>160.68000000000001</ele>
        <time>2025-05-09T17:22:21Z</time>
      </trkpt>
      <trkpt lat="36.798470020294189" lon="-4.493001010268927">
        <ele>162.12</ele>
        <time>2025-05-09T17:22:22Z</time>
      </trkpt>
      <trkpt lat="36.798540009185672" lon="-4.492959016934037">
        <ele>163.08000000000001</ele>
        <time>2025-05-09T17:22:23Z</time>
      </trkpt>
      <trkpt lat="36.798604968935251" lon="-4.49292004108429">
        <ele>164.52000000000001</ele>
        <time>2025-05-09T17:22:24Z</time>
      </trkpt>
      <trkpt lat="36.798685016110539" lon="-4.492872012779117">
        <ele>165.47999999999999</ele>
        <time>2025-05-09T17:22:25Z</time>
      </trkpt>
      <trkpt lat="36.798791969195008" lon="-4.492806969210506">
        <ele>166.44999999999999</ele>
        <time>2025-05-09T17:22:26Z</time>
      </trkpt>
      <trkpt lat="36.799092963337898" lon="-4.492721976712346">
        <ele>169.33000000000001</ele>
        <time>2025-05-09T17:22:29Z</time>
      </trkpt>
      <trkpt lat="36.799169993028045" lon="-4.492620974779129">
        <ele>170.28999999999999</ele>
        <time>2025-05-09T17:22:30Z</time>
      </trkpt>
      <trkpt lat="36.799246016889811" lon="-4.492522990331054">
        <ele>171.25</ele>
        <time>2025-05-09T17:22:31Z</time>
      </trkpt>
      <trkpt lat="36.799349030479789" lon="-4.492429029196501">
        <ele>172.21000000000001</ele>
        <time>2025-05-09T17:22:32Z</time>
      </trkpt>
      <trkpt lat="36.799456989392638" lon="-4.492392987012863">
        <ele>173.66</ele>
        <time>2025-05-09T17:22:33Z</time>
      </trkpt>
      <trkpt lat="36.799575006589293" lon="-4.492390975356102">
        <ele>174.62</ele>
        <time>2025-05-09T17:22:34Z</time>
      </trkpt>
      <trkpt lat="36.799686988815665" lon="-4.492431040853262">
        <ele>175.58000000000001</ele>
        <time>2025-05-09T17:22:35Z</time>
      </trkpt>
      <trkpt lat="36.799800982698798" lon="-4.4924929831177">
        <ele>177.02000000000001</ele>
        <time>2025-05-09T17:22:36Z</time>
      </trkpt>
      <trkpt lat="36.799913970753551" lon="-4.492573030292988">
        <ele>177.97999999999999</ele>
        <time>2025-05-09T17:22:37Z</time>
      </trkpt>
      <trkpt lat="36.800026036798954" lon="-4.492675038054586">
        <ele>178.94</ele>
        <time>2025-05-09T17:22:38Z</time>
      </trkpt>
      <trkpt lat="36.800358965992928" lon="-4.492978965863586">
        <ele>182.31</ele>
        <time>2025-05-09T17:22:41Z</time>
      </trkpt>
      <trkpt lat="36.800519982352853" lon="-4.493021965026856">
        <ele>183.27000000000001</ele>
        <time>2025-05-09T17:22:42Z</time>
      </trkpt>
      <trkpt lat="36.800644034519792" lon="-4.493054989725351">
        <ele>184.22999999999999</ele>
        <time>2025-05-09T17:22:43Z</time>
      </trkpt>
      <trkpt lat="36.80077102035284" lon="-4.493038980290294">
        <ele>185.66999999999999</ele>
        <time>2025-05-09T17:22:44Z</time>
      </trkpt>
      <trkpt lat="36.800898006185889" lon="-4.493003021925688">
        <ele>186.15000000000001</ele>
        <time>2025-05-09T17:22:45Z</time>
      </trkpt>
      <trkpt lat="36.801022980362177" lon="-4.49296697974205">
        <ele>187.11000000000001</ele>
        <time>2025-05-09T17:22:46Z</time>
      </trkpt>
      <trkpt lat="36.801135968416929" lon="-4.492934960871935">
        <ele>188.08000000000001</ele>
        <time>2025-05-09T17:22:47Z</time>
      </trkpt>
      <trkpt lat="36.801230013370514" lon="-4.492911994457245">
        <ele>188.08000000000001</ele>
        <time>2025-05-09T17:22:48Z</time>
      </trkpt>
      <trkpt lat="36.801444003358483" lon="-4.49285801500082">
        <ele>187.59</ele>
        <time>2025-05-09T17:22:51Z</time>
      </trkpt>
      <trkpt lat="36.801565960049629" lon="-4.492823984473944">
        <ele>186.63</ele>
        <time>2025-05-09T17:22:57Z</time>
      </trkpt>
      <trkpt lat="36.801565960049629" lon="-4.492823984473944">
        <ele>186.15000000000001</ele>
        <time>2025-05-09T17:23:37Z</time>
      </trkpt>
      <trkpt lat="36.801669979467988" lon="-4.492734968662262">
        <ele>185.19</ele>
        <time>2025-05-09T17:23:56Z</time>
      </trkpt>
      <trkpt lat="36.801727982237935" lon="-4.492674032226205">
        <ele>184.71000000000001</ele>
        <time>2025-05-09T17:23:57Z</time>
      </trkpt>
      <trkpt lat="36.801781039685011" lon="-4.492595996707678">
        <ele>184.22999999999999</ele>
        <time>2025-05-09T17:23:58Z</time>
      </trkpt>
      <trkpt lat="36.801912970840931" lon="-4.492400027811527">
        <ele>183.27000000000001</ele>
        <time>2025-05-09T17:24:00Z</time>
      </trkpt>
      <trkpt lat="36.80229602381587" lon="-4.491831986233592">
        <ele>180.38</ele>
        <time>2025-05-09T17:24:04Z</time>
      </trkpt>
      <trkpt lat="36.8024240154773" lon="-4.49172000400722">
        <ele>179.41999999999999</ele>
        <time>2025-05-09T17:24:05Z</time>
      </trkpt>
      <trkpt lat="36.802568016573787" lon="-4.491627970710397">
        <ele>178.46000000000001</ele>
        <time>2025-05-09T17:24:06Z</time>
      </trkpt>
      <trkpt lat="36.803488014265895" lon="-4.490978959947825">
        <ele>172.69</ele>
        <time>2025-05-09T17:24:12Z</time>
      </trkpt>
      <trkpt lat="36.803641989827156" lon="-4.490897990763187">
        <ele>171.72999999999999</ele>
        <time>2025-05-09T17:24:13Z</time>
      </trkpt>
      <trkpt lat="36.804446987807751" lon="-4.490436986088753">
        <ele>167.41</ele>
        <time>2025-05-09T17:24:18Z</time>
      </trkpt>
      <trkpt lat="36.804603980854154" lon="-4.490415025502443">
        <ele>166.93000000000001</ele>
        <time>2025-05-09T17:24:19Z</time>
      </trkpt>
      <trkpt lat="36.804771032184362" lon="-4.490391975268722">
        <ele>166.44999999999999</ele>
        <time>2025-05-09T17:24:20Z</time>
      </trkpt>
      <trkpt lat="36.804941017180681" lon="-4.490369008854032">
        <ele>166.44999999999999</ele>
        <time>2025-05-09T17:24:21Z</time>
      </trkpt>
      <trkpt lat="36.805116031318903" lon="-4.490318968892098">
        <ele>165.96000000000001</ele>
        <time>2025-05-09T17:24:22Z</time>
      </trkpt>
      <trkpt lat="36.805285010486841" lon="-4.49025996029377">
        <ele>165.47999999999999</ele>
        <time>2025-05-09T17:24:23Z</time>
      </trkpt>
      <trkpt lat="36.805445021018386" lon="-4.490203969180584">
        <ele>165.47999999999999</ele>
        <time>2025-05-09T17:24:24Z</time>
      </trkpt>
      <trkpt lat="36.805592039600015" lon="-4.490216039121151">
        <ele>165</ele>
        <time>2025-05-09T17:24:25Z</time>
      </trkpt>
      <trkpt lat="36.805742997676134" lon="-4.490254009142518">
        <ele>164.03999999999999</ele>
        <time>2025-05-09T17:24:26Z</time>
      </trkpt>
      <trkpt lat="36.805904014036059" lon="-4.490293990820646">
        <ele>163.08000000000001</ele>
        <time>2025-05-09T17:24:27Z</time>
      </trkpt>
      <trkpt lat="36.806071987375617" lon="-4.490317963063717">
        <ele>162.59999999999999</ele>
        <time>2025-05-09T17:24:28Z</time>
      </trkpt>
      <trkpt lat="36.806216994300485" lon="-4.490317963063717">
        <ele>161.63999999999999</ele>
        <time>2025-05-09T17:24:29Z</time>
      </trkpt>
      <trkpt lat="36.806403994560242" lon="-4.49023699387908">
        <ele>161.16</ele>
        <time>2025-05-09T17:24:30Z</time>
      </trkpt>
      <trkpt lat="36.806739019230008" lon="-4.490101039409638">
        <ele>159.72</ele>
        <time>2025-05-09T17:24:32Z</time>
      </trkpt>
      <trkpt lat="36.806910010054708" lon="-4.49008603580296">
        <ele>159.24000000000001</ele>
        <time>2025-05-09T17:24:33Z</time>
      </trkpt>
      <trkpt lat="36.807084018364549" lon="-4.490112019702792">
        <ele>158.75</ele>
        <time>2025-05-09T17:24:34Z</time>
      </trkpt>
      <trkpt lat="36.808555964380503" lon="-4.490426005795598">
        <ele>163.08000000000001</ele>
        <time>2025-05-09T17:24:43Z</time>
      </trkpt>
      <trkpt lat="36.808696025982499" lon="-4.490492977201939">
        <ele>164.03999999999999</ele>
        <time>2025-05-09T17:24:44Z</time>
      </trkpt>
      <trkpt lat="36.808836003765464" lon="-4.49055902659893">
        <ele>164.52000000000001</ele>
        <time>2025-05-09T17:24:45Z</time>
      </trkpt>
      <trkpt lat="36.808971958234906" lon="-4.49062398634851">
        <ele>165.96000000000001</ele>
        <time>2025-05-09T17:24:46Z</time>
      </trkpt>
      <trkpt lat="36.809114031493664" lon="-4.490618035197258">
        <ele>167.41</ele>
        <time>2025-05-09T17:24:47Z</time>
      </trkpt>
      <trkpt lat="36.80925702676177" lon="-4.490588027983904">
        <ele>168.84999999999999</ele>
        <time>2025-05-09T17:24:48Z</time>
      </trkpt>
      <trkpt lat="36.809401027858257" lon="-4.49055802077055">
        <ele>170.28999999999999</ele>
        <time>2025-05-09T17:24:49Z</time>
      </trkpt>
      <trkpt lat="36.809545028954744" lon="-4.490541005507112">
        <ele>171.72999999999999</ele>
        <time>2025-05-09T17:24:50Z</time>
      </trkpt>
      <trkpt lat="36.809681989252567" lon="-4.490586016327143">
        <ele>173.66</ele>
        <time>2025-05-09T17:24:51Z</time>
      </trkpt>
      <trkpt lat="36.809808975085616" lon="-4.490662962198257">
        <ele>175.58000000000001</ele>
        <time>2025-05-09T17:24:52Z</time>
      </trkpt>
      <trkpt lat="36.809930009767413" lon="-4.490746026858687">
        <ele>177.02000000000001</ele>
        <time>2025-05-09T17:24:53Z</time>
      </trkpt>
      <trkpt lat="36.810047021135688" lon="-4.490825990214944">
        <ele>178.46000000000001</ele>
        <time>2025-05-09T17:24:54Z</time>
      </trkpt>
      <trkpt lat="36.81017903611064" lon="-4.490848034620285">
        <ele>179.90000000000001</ele>
        <time>2025-05-09T17:24:55Z</time>
      </trkpt>
      <trkpt lat="36.810462009161711" lon="-4.490892961621285">
        <ele>183.27000000000001</ele>
        <time>2025-05-09T17:24:57Z</time>
      </trkpt>
      <trkpt lat="36.810601986944675" lon="-4.490952976047993">
        <ele>185.19</ele>
        <time>2025-05-09T17:24:58Z</time>
      </trkpt>
      <trkpt lat="36.810746993869543" lon="-4.491008967161179">
        <ele>186.63</ele>
        <time>2025-05-09T17:24:59Z</time>
      </trkpt>
      <trkpt lat="36.810886971652508" lon="-4.491021959111095">
        <ele>188.08000000000001</ele>
        <time>2025-05-09T17:25:00Z</time>
      </trkpt>
      <trkpt lat="36.811016974970698" lon="-4.490993041545153">
        <ele>189.52000000000001</ele>
        <time>2025-05-09T17:25:01Z</time>
      </trkpt>
      <trkpt lat="36.811129963025451" lon="-4.490904025733471">
        <ele>190.96000000000001</ele>
        <time>2025-05-09T17:25:02Z</time>
      </trkpt>
      <trkpt lat="36.811250997707248" lon="-4.490808974951506">
        <ele>192.40000000000001</ele>
        <time>2025-05-09T17:25:03Z</time>
      </trkpt>
      <trkpt lat="36.81138401851058" lon="-4.490711996331811">
        <ele>194.31999999999999</ele>
        <time>2025-05-09T17:25:04Z</time>
      </trkpt>
      <trkpt lat="36.811800012364984" lon="-4.490418964996934">
        <ele>198.65000000000001</ele>
        <time>2025-05-09T17:25:07Z</time>
      </trkpt>
      <trkpt lat="36.812050966545939" lon="-4.490206986665726">
        <ele>201.53</ele>
        <time>2025-05-09T17:25:09Z</time>
      </trkpt>
      <trkpt lat="36.812183987349272" lon="-4.490118976682425">
        <ele>202.49000000000001</ele>
        <time>2025-05-09T17:25:10Z</time>
      </trkpt>
      <trkpt lat="36.812336035072803" lon="-4.490056028589606">
        <ele>203.94</ele>
        <time>2025-05-09T17:25:11Z</time>
      </trkpt>
      <trkpt lat="36.813711002469063" lon="-4.489681022241712">
        <ele>210.19</ele>
        <time>2025-05-09T17:25:19Z</time>
      </trkpt>
      <trkpt lat="36.814332017675042" lon="-4.489351026713848">
        <ele>212.59</ele>
        <time>2025-05-09T17:25:23Z</time>
      </trkpt>
      <trkpt lat="36.81447803042829" lon="-4.489349015057087">
        <ele>213.06999999999999</ele>
        <time>2025-05-09T17:25:24Z</time>
      </trkpt>
      <trkpt lat="36.814634017646313" lon="-4.489374998956919">
        <ele>213.06999999999999</ele>
        <time>2025-05-09T17:25:25Z</time>
      </trkpt>
      <trkpt lat="36.814962001517415" lon="-4.489429984241724">
        <ele>213.55000000000001</ele>
        <time>2025-05-09T17:25:27Z</time>
      </trkpt>
      <trkpt lat="36.815124023705721" lon="-4.489433001726866">
        <ele>214.03</ele>
        <time>2025-05-09T17:25:28Z</time>
      </trkpt>
      <trkpt lat="36.815422000363469" lon="-4.489416992291808">
        <ele>214.03</ele>
        <time>2025-05-09T17:25:30Z</time>
      </trkpt>
      <trkpt lat="36.81557203643024" lon="-4.489470971748233">
        <ele>214.50999999999999</ele>
        <time>2025-05-09T17:25:31Z</time>
      </trkpt>
      <trkpt lat="36.815863978117704" lon="-4.489578008651733">
        <ele>214.99000000000001</ele>
        <time>2025-05-09T17:25:33Z</time>
      </trkpt>
      <trkpt lat="36.816017031669617" lon="-4.489583037793636">
        <ele>215.47</ele>
        <time>2025-05-09T17:25:34Z</time>
      </trkpt>
      <trkpt lat="36.816173018887639" lon="-4.489574991166592">
        <ele>215.47</ele>
        <time>2025-05-09T17:25:35Z</time>
      </trkpt>
      <trkpt lat="36.816334035247564" lon="-4.489565016701818">
        <ele>215.47</ele>
        <time>2025-05-09T17:25:36Z</time>
      </trkpt>
      <trkpt lat="36.816516006365418" lon="-4.489524029195309">
        <ele>215.94999999999999</ele>
        <time>2025-05-09T17:25:37Z</time>
      </trkpt>
      <trkpt lat="36.817417982965708" lon="-4.489244995638728">
        <ele>214.99000000000001</ele>
        <time>2025-05-09T17:25:43Z</time>
      </trkpt>
      <trkpt lat="36.817545974627137" lon="-4.489111974835396">
        <ele>214.50999999999999</ele>
        <time>2025-05-09T17:25:44Z</time>
      </trkpt>
      <trkpt lat="36.817658040672541" lon="-4.488994041457772">
        <ele>214.03</ele>
        <time>2025-05-09T17:25:45Z</time>
      </trkpt>
      <trkpt lat="36.817880999296904" lon="-4.488762030377984">
        <ele>212.11000000000001</ele>
        <time>2025-05-09T17:25:47Z</time>
      </trkpt>
      <trkpt lat="36.818002033978701" lon="-4.488724982365966">
        <ele>211.15000000000001</ele>
        <time>2025-05-09T17:25:48Z</time>
      </trkpt>
      <trkpt lat="36.818132037296891" lon="-4.488716013729572">
        <ele>210.66999999999999</ele>
        <time>2025-05-09T17:25:49Z</time>
      </trkpt>
      <trkpt lat="36.818250976502895" lon="-4.488719031214714">
        <ele>210.19</ele>
        <time>2025-05-09T17:25:50Z</time>
      </trkpt>
      <trkpt lat="36.818371005356312" lon="-4.488786002621055">
        <ele>209.69999999999999</ele>
        <time>2025-05-09T17:25:51Z</time>
      </trkpt>
      <trkpt lat="36.818468989804387" lon="-4.488893039524555">
        <ele>209.69999999999999</ele>
        <time>2025-05-09T17:25:52Z</time>
      </trkpt>
      <trkpt lat="36.818543002009392" lon="-4.489041985943914">
        <ele>209.22</ele>
        <time>2025-05-09T17:25:53Z</time>
      </trkpt>
      <trkpt lat="36.818593963980675" lon="-4.489224040880799">
        <ele>209.69999999999999</ele>
        <time>2025-05-09T17:25:54Z</time>
      </trkpt>
      <trkpt lat="36.818813988938928" lon="-4.490307988598943">
        <ele>211.15000000000001</ele>
        <time>2025-05-09T17:25:59Z</time>
      </trkpt>
      <trkpt lat="36.818828992545605" lon="-4.490557014942169">
        <ele>211.63</ele>
        <time>2025-05-09T17:26:00Z</time>
      </trkpt>
      <trkpt lat="36.818799991160631" lon="-4.491329994052649">
        <ele>213.55000000000001</ele>
        <time>2025-05-09T17:26:03Z</time>
      </trkpt>
      <trkpt lat="36.818768978118896" lon="-4.491580026224256">
        <ele>214.99000000000001</ele>
        <time>2025-05-09T17:26:04Z</time>
      </trkpt>
      <trkpt lat="36.818694965913892" lon="-4.491813965141773">
        <ele>215.94999999999999</ele>
        <time>2025-05-09T17:26:05Z</time>
      </trkpt>
      <trkpt lat="36.818599998950958" lon="-4.492039019241929">
        <ele>217.88</ele>
        <time>2025-05-09T17:26:06Z</time>
      </trkpt>
      <trkpt lat="36.818502014502883" lon="-4.492269018664956">
        <ele>219.31999999999999</ele>
        <time>2025-05-09T17:26:07Z</time>
      </trkpt>
      <trkpt lat="36.817903965711594" lon="-4.493875997141004">
        <ele>231.33000000000001</ele>
        <time>2025-05-09T17:26:14Z</time>
      </trkpt>
      <trkpt lat="36.817846968770027" lon="-4.494113037362695">
        <ele>232.78</ele>
        <time>2025-05-09T17:26:15Z</time>
      </trkpt>
      <trkpt lat="36.817762982100248" lon="-4.494752995669842">
        <ele>235.66</ele>
        <time>2025-05-09T17:26:18Z</time>
      </trkpt>
      <trkpt lat="36.817815033718944" lon="-4.494906971231103">
        <ele>236.13999999999999</ele>
        <time>2025-05-09T17:26:19Z</time>
      </trkpt>
      <trkpt lat="36.81787496432662" lon="-4.495048960670829">
        <ele>236.13999999999999</ele>
        <time>2025-05-09T17:26:20Z</time>
      </trkpt>
      <trkpt lat="36.817983007058501" lon="-4.495137976482511">
        <ele>235.66</ele>
        <time>2025-05-09T17:26:21Z</time>
      </trkpt>
      <trkpt lat="36.818106975406408" lon="-4.495210982859135">
        <ele>235.18000000000001</ele>
        <time>2025-05-09T17:26:22Z</time>
      </trkpt>
      <trkpt lat="36.818256005644798" lon="-4.495225986465812">
        <ele>234.69999999999999</ele>
        <time>2025-05-09T17:26:23Z</time>
      </trkpt>
      <trkpt lat="36.818409981206059" lon="-4.495206959545612">
        <ele>233.74000000000001</ele>
        <time>2025-05-09T17:26:24Z</time>
      </trkpt>
      <trkpt lat="36.818577032536268" lon="-4.495160020887852">
        <ele>232.78</ele>
        <time>2025-05-09T17:26:25Z</time>
      </trkpt>
      <trkpt lat="36.818751040846109" lon="-4.495110986754298">
        <ele>231.81</ele>
        <time>2025-05-09T17:26:26Z</time>
      </trkpt>
      <trkpt lat="36.819812022149563" lon="-4.494760036468506">
        <ele>224.61000000000001</ele>
        <time>2025-05-09T17:26:32Z</time>
      </trkpt>
      <trkpt lat="36.819973960518837" lon="-4.494760036468506">
        <ele>223.16</ele>
        <time>2025-05-09T17:26:33Z</time>
      </trkpt>
      <trkpt lat="36.820120979100466" lon="-4.494803035631776">
        <ele>221.24000000000001</ele>
        <time>2025-05-09T17:26:34Z</time>
      </trkpt>
      <trkpt lat="36.820231033489108" lon="-4.494913006201387">
        <ele>219.80000000000001</ele>
        <time>2025-05-09T17:26:35Z</time>
      </trkpt>
      <trkpt lat="36.82034402154386" lon="-4.495024988427758">
        <ele>217.88</ele>
        <time>2025-05-09T17:26:36Z</time>
      </trkpt>
      <trkpt lat="36.820433959364891" lon="-4.49515700340271">
        <ele>216.43000000000001</ele>
        <time>2025-05-09T17:26:37Z</time>
      </trkpt>
      <trkpt lat="36.820475030690432" lon="-4.495336962863803">
        <ele>214.99000000000001</ele>
        <time>2025-05-09T17:26:38Z</time>
      </trkpt>
      <trkpt lat="36.820486010983586" lon="-4.495529998093844">
        <ele>213.06999999999999</ele>
        <time>2025-05-09T17:26:39Z</time>
      </trkpt>
      <trkpt lat="36.820486010983586" lon="-4.49573895893991">
        <ele>211.63</ele>
        <time>2025-05-09T17:26:40Z</time>
      </trkpt>
      <trkpt lat="36.820497997105122" lon="-4.495957978069782">
        <ele>210.19</ele>
        <time>2025-05-09T17:26:41Z</time>
      </trkpt>
      <trkpt lat="36.820547031238675" lon="-4.496399033814669">
        <ele>207.30000000000001</ele>
        <time>2025-05-09T17:26:43Z</time>
      </trkpt>
      <trkpt lat="36.820510989055037" lon="-4.496589973568916">
        <ele>206.34</ele>
        <time>2025-05-09T17:26:44Z</time>
      </trkpt>
      <trkpt lat="36.82045298628509" lon="-4.496948970481753">
        <ele>203.94</ele>
        <time>2025-05-09T17:26:46Z</time>
      </trkpt>
      <trkpt lat="36.820488022640347" lon="-4.497107975184917">
        <ele>202.49000000000001</ele>
        <time>2025-05-09T17:26:47Z</time>
      </trkpt>
      <trkpt lat="36.820549964904785" lon="-4.497248958796263">
        <ele>201.05000000000001</ele>
        <time>2025-05-09T17:26:48Z</time>
      </trkpt>
      <trkpt lat="36.820649961009622" lon="-4.497363036498427">
        <ele>200.09</ele>
        <time>2025-05-09T17:26:49Z</time>
      </trkpt>
      <trkpt lat="36.820751968771219" lon="-4.49747996404767">
        <ele>199.13</ele>
        <time>2025-05-09T17:26:50Z</time>
      </trkpt>
      <trkpt lat="36.820850959047675" lon="-4.497593035921454">
        <ele>197.69</ele>
        <time>2025-05-09T17:26:51Z</time>
      </trkpt>
      <trkpt lat="36.820894964039326" lon="-4.497768972069025">
        <ele>196.25</ele>
        <time>2025-05-09T17:26:52Z</time>
      </trkpt>
      <trkpt lat="36.820936035364866" lon="-4.497933005914092">
        <ele>195.28</ele>
        <time>2025-05-09T17:26:53Z</time>
      </trkpt>
      <trkpt lat="36.820897981524467" lon="-4.498091004788876">
        <ele>193.84</ele>
        <time>2025-05-09T17:26:54Z</time>
      </trkpt>
      <trkpt lat="36.820840984582901" lon="-4.498252021148801">
        <ele>192.40000000000001</ele>
        <time>2025-05-09T17:26:55Z</time>
      </trkpt>
      <trkpt lat="36.820754986256361" lon="-4.498413037508726">
        <ele>190.96000000000001</ele>
        <time>2025-05-09T17:26:56Z</time>
      </trkpt>
      <trkpt lat="36.820664964616299" lon="-4.498581010848284">
        <ele>189.52000000000001</ele>
        <time>2025-05-09T17:26:57Z</time>
      </trkpt>
      <trkpt lat="36.820571003481746" lon="-4.498755019158125">
        <ele>188.08000000000001</ele>
        <time>2025-05-09T17:26:58Z</time>
      </trkpt>
      <trkpt lat="36.820520041510463" lon="-4.498968003317714">
        <ele>186.15000000000001</ele>
        <time>2025-05-09T17:26:59Z</time>
      </trkpt>
      <trkpt lat="36.820486010983586" lon="-4.499190039932728">
        <ele>184.71000000000001</ele>
        <time>2025-05-09T17:27:00Z</time>
      </trkpt>
      <trkpt lat="36.820496991276741" lon="-4.499409981071949">
        <ele>182.78999999999999</ele>
        <time>2025-05-09T17:27:01Z</time>
      </trkpt>
      <trkpt lat="36.820548959076405" lon="-4.499612990766764">
        <ele>180.87</ele>
        <time>2025-05-09T17:27:02Z</time>
      </trkpt>
      <trkpt lat="36.820611990988255" lon="-4.499814994633198">
        <ele>179.41999999999999</ele>
        <time>2025-05-09T17:27:03Z</time>
      </trkpt>
      <trkpt lat="36.820705030113459" lon="-4.499992020428181">
        <ele>177.5</ele>
        <time>2025-05-09T17:27:04Z</time>
      </trkpt>
      <trkpt lat="36.820815000683069" lon="-4.500149013474584">
        <ele>176.06</ele>
        <time>2025-05-09T17:27:05Z</time>
      </trkpt>
      <trkpt lat="36.820956990122795" lon="-4.500281028449535">
        <ele>175.09999999999999</ele>
        <time>2025-05-09T17:27:06Z</time>
      </trkpt>
      <trkpt lat="36.821099985390902" lon="-4.500412037596107">
        <ele>174.13999999999999</ele>
        <time>2025-05-09T17:27:07Z</time>
      </trkpt>
      <trkpt lat="36.82167598977685" lon="-4.500921992585063">
        <ele>170.77000000000001</ele>
        <time>2025-05-09T17:27:11Z</time>
      </trkpt>
      <trkpt lat="36.82195401750505" lon="-4.501112010329962">
        <ele>169.81</ele>
        <time>2025-05-09T17:27:13Z</time>
      </trkpt>
      <trkpt lat="36.822108998894691" lon="-4.501154003664851">
        <ele>169.33000000000001</ele>
        <time>2025-05-09T17:27:14Z</time>
      </trkpt>
      <trkpt lat="36.822265991941094" lon="-4.501134976744652">
        <ele>168.84999999999999</ele>
        <time>2025-05-09T17:27:15Z</time>
      </trkpt>
      <trkpt lat="36.822460032999516" lon="-4.501089965924621">
        <ele>168.37</ele>
        <time>2025-05-09T17:27:16Z</time>
      </trkpt>
      <trkpt lat="36.822582995519042" lon="-4.500993993133307">
        <ele>168.37</ele>
        <time>2025-05-09T17:27:17Z</time>
      </trkpt>
      <trkpt lat="36.822732025757432" lon="-4.500876981765032">
        <ele>167.88999999999999</ele>
        <time>2025-05-09T17:27:18Z</time>
      </trkpt>
      <trkpt lat="36.823025979101658" lon="-4.500671038404107">
        <ele>167.88999999999999</ele>
        <time>2025-05-09T17:27:20Z</time>
      </trkpt>
      <trkpt lat="36.823174003511667" lon="-4.500603983178735">
        <ele>167.41</ele>
        <time>2025-05-09T17:27:21Z</time>
      </trkpt>
      <trkpt lat="36.823324039578438" lon="-4.500609012320638">
        <ele>167.41</ele>
        <time>2025-05-09T17:27:22Z</time>
      </trkpt>
      <trkpt lat="36.823466029018164" lon="-4.500644970685244">
        <ele>167.41</ele>
        <time>2025-05-09T17:27:23Z</time>
      </trkpt>
      <trkpt lat="36.823591003194451" lon="-4.500728035345674">
        <ele>167.41</ele>
        <time>2025-05-09T17:27:24Z</time>
      </trkpt>
      <trkpt lat="36.823681024834514" lon="-4.500872036442161">
        <ele>167.88999999999999</ele>
        <time>2025-05-09T17:27:25Z</time>
      </trkpt>
      <trkpt lat="36.823739027604461" lon="-4.50102299451828">
        <ele>168.37</ele>
        <time>2025-05-09T17:27:26Z</time>
      </trkpt>
      <trkpt lat="36.823761994019151" lon="-4.501179987564683">
        <ele>168.84999999999999</ele>
        <time>2025-05-09T17:27:27Z</time>
      </trkpt>
      <trkpt lat="36.823747996240854" lon="-4.501326000317931">
        <ele>169.81</ele>
        <time>2025-05-09T17:27:28Z</time>
      </trkpt>
      <trkpt lat="36.823675995692611" lon="-4.501470001414418">
        <ele>170.28999999999999</ele>
        <time>2025-05-09T17:27:29Z</time>
      </trkpt>
      <trkpt lat="36.823601983487606" lon="-4.501617019996047">
        <ele>171.25</ele>
        <time>2025-05-09T17:27:30Z</time>
      </trkpt>
      <trkpt lat="36.823526965454221" lon="-4.501764960587025">
        <ele>172.21000000000001</ele>
        <time>2025-05-09T17:27:31Z</time>
      </trkpt>
      <trkpt lat="36.823453037068248" lon="-4.501918014138937">
        <ele>172.69</ele>
        <time>2025-05-09T17:27:32Z</time>
      </trkpt>
      <trkpt lat="36.823410037904978" lon="-4.502072995528579">
        <ele>173.16999999999999</ele>
        <time>2025-05-09T17:27:33Z</time>
      </trkpt>
      <trkpt lat="36.823370978236198" lon="-4.502214984968305">
        <ele>174.13999999999999</ele>
        <time>2025-05-09T17:27:34Z</time>
      </trkpt>
      <trkpt lat="36.823420012369752" lon="-4.502367032691836">
        <ele>174.62</ele>
        <time>2025-05-09T17:27:35Z</time>
      </trkpt>
      <trkpt lat="36.823486983776093" lon="-4.502499969676137">
        <ele>175.58000000000001</ele>
        <time>2025-05-09T17:27:36Z</time>
      </trkpt>
      <trkpt lat="36.823583962395787" lon="-4.502623016014695">
        <ele>177.02000000000001</ele>
        <time>2025-05-09T17:27:37Z</time>
      </trkpt>
      <trkpt lat="36.823698962107301" lon="-4.50274296104908">
        <ele>177.97999999999999</ele>
        <time>2025-05-09T17:27:38Z</time>
      </trkpt>
      <trkpt lat="36.824852982535958" lon="-4.503784999251366">
        <ele>193.36000000000001</ele>
        <time>2025-05-09T17:27:46Z</time>
      </trkpt>
      <trkpt lat="36.825146013870835" lon="-4.5039870031178">
        <ele>196.72999999999999</ele>
        <time>2025-05-09T17:27:48Z</time>
      </trkpt>
      <trkpt lat="36.825292026624084" lon="-4.504066966474056">
        <ele>198.65000000000001</ele>
        <time>2025-05-09T17:27:49Z</time>
      </trkpt>
      <trkpt lat="36.825452037155628" lon="-4.504109965637326">
        <ele>200.09</ele>
        <time>2025-05-09T17:27:50Z</time>
      </trkpt>
      <trkpt lat="36.825605006888509" lon="-4.504079036414623">
        <ele>201.05000000000001</ele>
        <time>2025-05-09T17:27:51Z</time>
      </trkpt>
      <trkpt lat="36.825763005763292" lon="-4.504012987017632">
        <ele>202.00999999999999</ele>
        <time>2025-05-09T17:27:52Z</time>
      </trkpt>
      <trkpt lat="36.82593097910285" lon="-4.503933023661375">
        <ele>202.97999999999999</ele>
        <time>2025-05-09T17:27:53Z</time>
      </trkpt>
      <trkpt lat="36.82610297575593" lon="-4.503844007849693">
        <ele>203.46000000000001</ele>
        <time>2025-05-09T17:27:54Z</time>
      </trkpt>
      <trkpt lat="36.826268015429378" lon="-4.503743005916476">
        <ele>203.46000000000001</ele>
        <time>2025-05-09T17:27:55Z</time>
      </trkpt>
      <trkpt lat="36.826430037617683" lon="-4.503652984276414">
        <ele>203.46000000000001</ele>
        <time>2025-05-09T17:27:56Z</time>
      </trkpt>
      <trkpt lat="36.826585019007325" lon="-4.503566985949874">
        <ele>203.46000000000001</ele>
        <time>2025-05-09T17:27:57Z</time>
      </trkpt>
      <trkpt lat="36.82674896903336" lon="-4.50355801731348">
        <ele>202.97999999999999</ele>
        <time>2025-05-09T17:27:58Z</time>
      </trkpt>
      <trkpt lat="36.826936975121498" lon="-4.50355801731348">
        <ele>202.00999999999999</ele>
        <time>2025-05-09T17:27:59Z</time>
      </trkpt>
      <trkpt lat="36.827130010351539" lon="-4.50355801731348">
        <ele>200.56999999999999</ele>
        <time>2025-05-09T17:28:00Z</time>
      </trkpt>
      <trkpt lat="36.827700985595584" lon="-4.503634963184595">
        <ele>196.25</ele>
        <time>2025-05-09T17:28:03Z</time>
      </trkpt>
      <trkpt lat="36.827884968370199" lon="-4.503711992874742">
        <ele>194.31999999999999</ele>
        <time>2025-05-09T17:28:04Z</time>
      </trkpt>
      <trkpt lat="36.828069034963846" lon="-4.503788016736507">
        <ele>192.40000000000001</ele>
        <time>2025-05-09T17:28:05Z</time>
      </trkpt>
      <trkpt lat="36.828216975554824" lon="-4.503929000347853">
        <ele>190.47999999999999</ele>
        <time>2025-05-09T17:28:06Z</time>
      </trkpt>
      <trkpt lat="36.828373968601227" lon="-4.504085993394256">
        <ele>188.56</ele>
        <time>2025-05-09T17:28:07Z</time>
      </trkpt>
      <trkpt lat="36.828524004667997" lon="-4.504243992269039">
        <ele>186.63</ele>
        <time>2025-05-09T17:28:08Z</time>
      </trkpt>
      <trkpt lat="36.828624000772834" lon="-4.504448007792234">
        <ele>185.19</ele>
        <time>2025-05-09T17:28:09Z</time>
      </trkpt>
      <trkpt lat="36.828712010756135" lon="-4.504666021093726">
        <ele>183.75</ele>
        <time>2025-05-09T17:28:10Z</time>
      </trkpt>
      <trkpt lat="36.828800020739436" lon="-4.504882022738457">
        <ele>182.78999999999999</ele>
        <time>2025-05-09T17:28:11Z</time>
      </trkpt>
      <trkpt lat="36.828842014074326" lon="-4.505111016333103">
        <ele>181.83000000000001</ele>
        <time>2025-05-09T17:28:12Z</time>
      </trkpt>
      <trkpt lat="36.82887596078217" lon="-4.505339004099369">
        <ele>180.87</ele>
        <time>2025-05-09T17:28:13Z</time>
      </trkpt>
      <trkpt lat="36.828856011852622" lon="-4.505607979372144">
        <ele>179.90000000000001</ele>
        <time>2025-05-09T17:28:14Z</time>
      </trkpt>
      <trkpt lat="36.828836984932423" lon="-4.505867986008525">
        <ele>178.94</ele>
        <time>2025-05-09T17:28:15Z</time>
      </trkpt>
      <trkpt lat="36.828770013526082" lon="-4.506096979603171">
        <ele>178.46000000000001</ele>
        <time>2025-05-09T17:28:16Z</time>
      </trkpt>
      <trkpt lat="36.828688038513064" lon="-4.50630996376276">
        <ele>177.5</ele>
        <time>2025-05-09T17:28:17Z</time>
      </trkpt>
      <trkpt lat="36.82857102714479" lon="-4.506504004821181">
        <ele>177.02000000000001</ele>
        <time>2025-05-09T17:28:18Z</time>
      </trkpt>
      <trkpt lat="36.82844202965498" lon="-4.506659992039204">
        <ele>176.06</ele>
        <time>2025-05-09T17:28:19Z</time>
      </trkpt>
      <trkpt lat="36.828276989981532" lon="-4.506795024499297">
        <ele>175.58000000000001</ele>
        <time>2025-05-09T17:28:20Z</time>
      </trkpt>
      <trkpt lat="36.828109016641974" lon="-4.50690901838243">
        <ele>175.09999999999999</ele>
        <time>2025-05-09T17:28:21Z</time>
      </trkpt>
      <trkpt lat="36.827914975583553" lon="-4.50699401088059">
        <ele>174.62</ele>
        <time>2025-05-09T17:28:22Z</time>
      </trkpt>
      <trkpt lat="36.827720012515783" lon="-4.507050001993775">
        <ele>174.13999999999999</ele>
        <time>2025-05-09T17:28:23Z</time>
      </trkpt>
      <trkpt lat="36.827508034184575" lon="-4.507082020863891">
        <ele>173.16999999999999</ele>
        <time>2025-05-09T17:28:24Z</time>
      </trkpt>
      <trkpt lat="36.827294966205955" lon="-4.507114961743355">
        <ele>172.69</ele>
        <time>2025-05-09T17:28:25Z</time>
      </trkpt>
      <trkpt lat="36.827083993703127" lon="-4.507119990885258">
        <ele>172.21000000000001</ele>
        <time>2025-05-09T17:28:26Z</time>
      </trkpt>
      <trkpt lat="36.826108004897833" lon="-4.507119990885258">
        <ele>168.37</ele>
        <time>2025-05-09T17:28:31Z</time>
      </trkpt>
      <trkpt lat="36.825940031558275" lon="-4.507216969504952">
        <ele>168.37</ele>
        <time>2025-05-09T17:28:32Z</time>
      </trkpt>
      <trkpt lat="36.825850009918213" lon="-4.507270026952028">
        <ele>168.37</ele>
        <time>2025-05-09T17:28:33Z</time>
      </trkpt>
      <trkpt lat="36.825788989663124" lon="-4.507391983643174">
        <ele>168.37</ele>
        <time>2025-05-09T17:28:34Z</time>
      </trkpt>
      <trkpt lat="36.825759988278151" lon="-4.507486028596759">
        <ele>168.37</ele>
        <time>2025-05-09T17:28:35Z</time>
      </trkpt>
      <trkpt lat="36.825748002156615" lon="-4.507607985287905">
        <ele>168.37</ele>
        <time>2025-05-09T17:28:36Z</time>
      </trkpt>
      <trkpt lat="36.825755964964628" lon="-4.507737988606095">
        <ele>168.37</ele>
        <time>2025-05-09T17:28:37Z</time>
      </trkpt>
      <trkpt lat="36.825780021026731" lon="-4.507892969995737">
        <ele>168.84999999999999</ele>
        <time>2025-05-09T17:28:38Z</time>
      </trkpt>
      <trkpt lat="36.825824026018381" lon="-4.50804996304214">
        <ele>169.33000000000001</ele>
        <time>2025-05-09T17:28:39Z</time>
      </trkpt>
      <trkpt lat="36.825884962454438" lon="-4.508212991058826">
        <ele>169.81</ele>
        <time>2025-05-09T17:28:40Z</time>
      </trkpt>
      <trkpt lat="36.825976995751262" lon="-4.508362021297216">
        <ele>170.28999999999999</ele>
        <time>2025-05-09T17:28:41Z</time>
      </trkpt>
      <trkpt lat="36.826044972985983" lon="-4.508505016565323">
        <ele>170.77000000000001</ele>
        <time>2025-05-09T17:28:42Z</time>
      </trkpt>
      <trkpt lat="36.826104987412691" lon="-4.508632002398372">
        <ele>171.72999999999999</ele>
        <time>2025-05-09T17:28:43Z</time>
      </trkpt>
      <trkpt lat="36.826151004061103" lon="-4.508728981018066">
        <ele>172.21000000000001</ele>
        <time>2025-05-09T17:28:44Z</time>
      </trkpt>
      <trkpt lat="36.82623197324574" lon="-4.508768962696195">
        <ele>172.69</ele>
        <time>2025-05-09T17:28:45Z</time>
      </trkpt>
      <trkpt lat="36.826364994049072" lon="-4.508836017921567">
        <ele>172.69</ele>
        <time>2025-05-09T17:28:46Z</time>
      </trkpt>
      <trkpt lat="36.82642500847578" lon="-4.508834006264806">
        <ele>172.69</ele>
        <time>2025-05-09T17:28:47Z</time>
      </trkpt>
      <trkpt lat="36.826971005648375" lon="-4.508788995444775">
        <ele>172.69</ele>
        <time>2025-05-09T17:28:51Z</time>
      </trkpt>
      <trkpt lat="36.827120035886765" lon="-4.508733004331589">
        <ele>172.69</ele>
        <time>2025-05-09T17:28:52Z</time>
      </trkpt>
      <trkpt lat="36.82726202532649" lon="-4.508680030703545">
        <ele>172.69</ele>
        <time>2025-05-09T17:28:53Z</time>
      </trkpt>
      <trkpt lat="36.827417006716132" lon="-4.508622027933598">
        <ele>172.69</ele>
        <time>2025-05-09T17:28:54Z</time>
      </trkpt>
      <trkpt lat="36.827547010034323" lon="-4.508599983528256">
        <ele>172.69</ele>
        <time>2025-05-09T17:28:55Z</time>
      </trkpt>
      <trkpt lat="36.827805005013943" lon="-4.508557990193367">
        <ele>172.21000000000001</ele>
        <time>2025-05-09T17:28:57Z</time>
      </trkpt>
      <trkpt lat="36.827920004725456" lon="-4.508586991578341">
        <ele>171.72999999999999</ele>
        <time>2025-05-09T17:28:58Z</time>
      </trkpt>
      <trkpt lat="36.828027041628957" lon="-4.508612975478172">
        <ele>171.25</ele>
        <time>2025-05-09T17:28:59Z</time>
      </trkpt>
      <trkpt lat="36.828116979449987" lon="-4.508678019046783">
        <ele>170.77000000000001</ele>
        <time>2025-05-09T17:29:00Z</time>
      </trkpt>
      <trkpt lat="36.828185962513089" lon="-4.508787989616394">
        <ele>169.81</ele>
        <time>2025-05-09T17:29:01Z</time>
      </trkpt>
      <trkpt lat="36.828232984989882" lon="-4.508938025683165">
        <ele>168.84999999999999</ele>
        <time>2025-05-09T17:29:02Z</time>
      </trkpt>
      <trkpt lat="36.828287970274687" lon="-4.509113039821386">
        <ele>167.88999999999999</ele>
        <time>2025-05-09T17:29:03Z</time>
      </trkpt>
      <trkpt lat="36.828345973044634" lon="-4.509300040081143">
        <ele>166.93000000000001</ele>
        <time>2025-05-09T17:29:04Z</time>
      </trkpt>
      <trkpt lat="36.828394001349807" lon="-4.509499026462436">
        <ele>165.96000000000001</ele>
        <time>2025-05-09T17:29:05Z</time>
      </trkpt>
      <trkpt lat="36.828425014391541" lon="-4.509716033935547">
        <ele>165.96000000000001</ele>
        <time>2025-05-09T17:29:06Z</time>
      </trkpt>
      <trkpt lat="36.828354019671679" lon="-4.511110028252006">
        <ele>165.96000000000001</ele>
        <time>2025-05-09T17:29:12Z</time>
      </trkpt>
      <trkpt lat="36.828252011910081" lon="-4.511759961023927">
        <ele>166.93000000000001</ele>
        <time>2025-05-09T17:29:15Z</time>
      </trkpt>
      <trkpt lat="36.828242037445307" lon="-4.511975040659308">
        <ele>167.41</ele>
        <time>2025-05-09T17:29:16Z</time>
      </trkpt>
      <trkpt lat="36.828263998031616" lon="-4.512190036475658">
        <ele>167.41</ele>
        <time>2025-05-09T17:29:17Z</time>
      </trkpt>
      <trkpt lat="36.828437000513077" lon="-4.513614038005471">
        <ele>169.33000000000001</ele>
        <time>2025-05-09T17:29:25Z</time>
      </trkpt>
      <trkpt lat="36.828447980806231" lon="-4.513770025223494">
        <ele>169.81</ele>
        <time>2025-05-09T17:29:26Z</time>
      </trkpt>
      <trkpt lat="36.828459966927767" lon="-4.513930035755038">
        <ele>169.81</ele>
        <time>2025-05-09T17:29:27Z</time>
      </trkpt>
      <trkpt lat="36.82846600189805" lon="-4.514089962467551">
        <ele>170.28999999999999</ele>
        <time>2025-05-09T17:29:28Z</time>
      </trkpt>
      <trkpt lat="36.828458039090037" lon="-4.514229018241167">
        <ele>170.28999999999999</ele>
        <time>2025-05-09T17:29:29Z</time>
      </trkpt>
      <trkpt lat="36.828454015776515" lon="-4.514502016827464">
        <ele>170.77000000000001</ele>
        <time>2025-05-09T17:29:33Z</time>
      </trkpt>
      <trkpt lat="36.828458961099386" lon="-4.514554990455508">
        <ele>170.77000000000001</ele>
        <time>2025-05-09T17:29:34Z</time>
      </trkpt>
      <trkpt lat="36.82846499606967" lon="-4.514609975740314">
        <ele>170.77000000000001</ele>
        <time>2025-05-09T17:29:35Z</time>
      </trkpt>
      <trkpt lat="36.828472036868334" lon="-4.514675019308925">
        <ele>170.77000000000001</ele>
        <time>2025-05-09T17:29:36Z</time>
      </trkpt>
      <trkpt lat="36.828479999676347" lon="-4.514755988493562">
        <ele>171.25</ele>
        <time>2025-05-09T17:29:37Z</time>
      </trkpt>
      <trkpt lat="36.828499026596546" lon="-4.51528899371624">
        <ele>170.28999999999999</ele>
        <time>2025-05-09T17:29:42Z</time>
      </trkpt>
      <trkpt lat="36.828481005504727" lon="-4.51539502479136">
        <ele>170.28999999999999</ele>
        <time>2025-05-09T17:29:43Z</time>
      </trkpt>
      <trkpt lat="36.828426020219922" lon="-4.515484040603042">
        <ele>170.28999999999999</ele>
        <time>2025-05-09T17:29:44Z</time>
      </trkpt>
      <trkpt lat="36.82784398086369" lon="-4.516528006643057">
        <ele>169.81</ele>
        <time>2025-05-09T17:29:54Z</time>
      </trkpt>
      <trkpt lat="36.827351041138172" lon="-4.517482034862042">
        <ele>171.25</ele>
        <time>2025-05-09T17:30:01Z</time>
      </trkpt>
      <trkpt lat="36.826516035944223" lon="-4.51849197037518">
        <ele>177.02000000000001</ele>
        <time>2025-05-09T17:30:09Z</time>
      </trkpt>
      <trkpt lat="36.826434982940555" lon="-4.51866103336215">
        <ele>177.5</ele>
        <time>2025-05-09T17:30:10Z</time>
      </trkpt>
      <trkpt lat="36.826359964907169" lon="-4.518820038065314">
        <ele>178.46000000000001</ele>
        <time>2025-05-09T17:30:11Z</time>
      </trkpt>
      <trkpt lat="36.826300034299493" lon="-4.518974013626576">
        <ele>178.94</ele>
        <time>2025-05-09T17:30:12Z</time>
      </trkpt>
      <trkpt lat="36.826291987672448" lon="-4.51915598474443">
        <ele>179.41999999999999</ele>
        <time>2025-05-09T17:30:13Z</time>
      </trkpt>
      <trkpt lat="36.826284024864435" lon="-4.519342985004187">
        <ele>179.41999999999999</ele>
        <time>2025-05-09T17:30:14Z</time>
      </trkpt>
      <trkpt lat="36.826298022642732" lon="-4.519528979435563">
        <ele>179.90000000000001</ele>
        <time>2025-05-09T17:30:15Z</time>
      </trkpt>
      <trkpt lat="36.826346972957253" lon="-4.519721008837223">
        <ele>179.90000000000001</ele>
        <time>2025-05-09T17:30:16Z</time>
      </trkpt>
      <trkpt lat="36.826397012919188" lon="-4.519918989390135">
        <ele>179.90000000000001</ele>
        <time>2025-05-09T17:30:17Z</time>
      </trkpt>
      <trkpt lat="36.826584013178945" lon="-4.520479990169406">
        <ele>179.41999999999999</ele>
        <time>2025-05-09T17:30:20Z</time>
      </trkpt>
      <trkpt lat="36.826678980141878" lon="-4.52061896212399">
        <ele>179.41999999999999</ele>
        <time>2025-05-09T17:30:21Z</time>
      </trkpt>
      <trkpt lat="36.826787022873759" lon="-4.520736979320645">
        <ele>179.41999999999999</ele>
        <time>2025-05-09T17:30:22Z</time>
      </trkpt>
      <trkpt lat="36.82691803202033" lon="-4.52078802511096">
        <ele>179.41999999999999</ele>
        <time>2025-05-09T17:30:23Z</time>
      </trkpt>
      <trkpt lat="36.827049041166902" lon="-4.520827000960708">
        <ele>179.41999999999999</ele>
        <time>2025-05-09T17:30:24Z</time>
      </trkpt>
      <trkpt lat="36.827178038656712" lon="-4.520794982090592">
        <ele>179.41999999999999</ele>
        <time>2025-05-09T17:30:25Z</time>
      </trkpt>
      <trkpt lat="36.827288009226322" lon="-4.520712001249194">
        <ele>178.94</ele>
        <time>2025-05-09T17:30:26Z</time>
      </trkpt>
      <trkpt lat="36.827394962310791" lon="-4.520617034286261">
        <ele>178.94</ele>
        <time>2025-05-09T17:30:27Z</time>
      </trkpt>
      <trkpt lat="36.827451959252357" lon="-4.52044595964253">
        <ele>178.94</ele>
        <time>2025-05-09T17:30:28Z</time>
      </trkpt>
      <trkpt lat="36.827512979507446" lon="-4.520263988524675">
        <ele>178.94</ele>
        <time>2025-05-09T17:30:29Z</time>
      </trkpt>
      <trkpt lat="36.827577017247677" lon="-4.520071959123015">
        <ele>178.94</ele>
        <time>2025-05-09T17:30:30Z</time>
      </trkpt>
      <trkpt lat="36.827783966436982" lon="-4.519450021907687">
        <ele>178.94</ele>
        <time>2025-05-09T17:30:33Z</time>
      </trkpt>
      <trkpt lat="36.828135000541806" lon="-4.518718030303717">
        <ele>180.38</ele>
        <time>2025-05-09T17:30:37Z</time>
      </trkpt>
      <trkpt lat="36.828248994424939" lon="-4.518604036420584">
        <ele>180.87</ele>
        <time>2025-05-09T17:30:38Z</time>
      </trkpt>
      <trkpt lat="36.828386960551143" lon="-4.518537987023592">
        <ele>181.34999999999999</ele>
        <time>2025-05-09T17:30:39Z</time>
      </trkpt>
      <trkpt lat="36.828532973304391" lon="-4.518485013395548">
        <ele>181.34999999999999</ele>
        <time>2025-05-09T17:30:40Z</time>
      </trkpt>
      <trkpt lat="36.828687032684684" lon="-4.518430028110743">
        <ele>181.83000000000001</ele>
        <time>2025-05-09T17:30:41Z</time>
      </trkpt>
      <trkpt lat="36.829015016555786" lon="-4.518364984542131">
        <ele>181.34999999999999</ele>
        <time>2025-05-09T17:30:43Z</time>
      </trkpt>
      <trkpt lat="36.829166980460286" lon="-4.518407983705401">
        <ele>180.87</ele>
        <time>2025-05-09T17:30:44Z</time>
      </trkpt>
      <trkpt lat="36.829315004870296" lon="-4.518455006182194">
        <ele>180.38</ele>
        <time>2025-05-09T17:30:45Z</time>
      </trkpt>
      <trkpt lat="36.829467974603176" lon="-4.518494987860322">
        <ele>179.41999999999999</ele>
        <time>2025-05-09T17:30:46Z</time>
      </trkpt>
      <trkpt lat="36.829631002619863" lon="-4.51851099729538">
        <ele>178.46000000000001</ele>
        <time>2025-05-09T17:30:47Z</time>
      </trkpt>
      <trkpt lat="36.831205040216446" lon="-4.518787013366818">
        <ele>176.06</ele>
        <time>2025-05-09T17:30:56Z</time>
      </trkpt>
      <trkpt lat="36.831489019095898" lon="-4.518849039450288">
        <ele>177.5</ele>
        <time>2025-05-09T17:30:58Z</time>
      </trkpt>
      <trkpt lat="36.831631008535624" lon="-4.518820038065314">
        <ele>177.97999999999999</ele>
        <time>2025-05-09T17:30:59Z</time>
      </trkpt>
      <trkpt lat="36.831772997975349" lon="-4.518791036680341">
        <ele>178.94</ele>
        <time>2025-05-09T17:31:00Z</time>
      </trkpt>
      <trkpt lat="36.83190300129354" lon="-4.518763963133097">
        <ele>179.41999999999999</ele>
        <time>2025-05-09T17:31:01Z</time>
      </trkpt>
      <trkpt lat="36.832014983519912" lon="-4.518739990890026">
        <ele>180.38</ele>
        <time>2025-05-09T17:31:02Z</time>
      </trkpt>
      <trkpt lat="36.832127971574664" lon="-4.518771003931761">
        <ele>180.87</ele>
        <time>2025-05-09T17:31:03Z</time>
      </trkpt>
      <trkpt lat="36.832239031791687" lon="-4.518859013915062">
        <ele>181.34999999999999</ele>
        <time>2025-05-09T17:31:04Z</time>
      </trkpt>
      <trkpt lat="36.832360988482833" lon="-4.518953980877996">
        <ele>181.34999999999999</ele>
        <time>2025-05-09T17:31:05Z</time>
      </trkpt>
      <trkpt lat="36.832469031214714" lon="-4.519084990024567">
        <ele>181.83000000000001</ele>
        <time>2025-05-09T17:31:06Z</time>
      </trkpt>
      <trkpt lat="36.832574978470802" lon="-4.51922002248466">
        <ele>182.31</ele>
        <time>2025-05-09T17:31:07Z</time>
      </trkpt>
      <trkpt lat="36.832683021202683" lon="-4.519356982782483">
        <ele>182.31</ele>
        <time>2025-05-09T17:31:08Z</time>
      </trkpt>
      <trkpt lat="36.832746975123882" lon="-4.519525961950421">
        <ele>182.31</ele>
        <time>2025-05-09T17:31:09Z</time>
      </trkpt>
      <trkpt lat="36.832799026742578" lon="-4.519682032987475">
        <ele>181.83000000000001</ele>
        <time>2025-05-09T17:31:10Z</time>
      </trkpt>
      <trkpt lat="36.832802966237068" lon="-4.519825028255582">
        <ele>181.83000000000001</ele>
        <time>2025-05-09T17:31:11Z</time>
      </trkpt>
      <trkpt lat="36.832789974287152" lon="-4.519971963018179">
        <ele>181.34999999999999</ele>
        <time>2025-05-09T17:31:12Z</time>
      </trkpt>
      <trkpt lat="36.832742029801011" lon="-4.520125016570091">
        <ele>181.34999999999999</ele>
        <time>2025-05-09T17:31:13Z</time>
      </trkpt>
      <trkpt lat="36.832695007324219" lon="-4.520273040980101">
        <ele>180.87</ele>
        <time>2025-05-09T17:31:14Z</time>
      </trkpt>
      <trkpt lat="36.832695007324219" lon="-4.520434979349375">
        <ele>180.38</ele>
        <time>2025-05-09T17:31:15Z</time>
      </trkpt>
      <trkpt lat="36.832723002880812" lon="-4.520570011809468">
        <ele>179.90000000000001</ele>
        <time>2025-05-09T17:31:16Z</time>
      </trkpt>
      <trkpt lat="36.8327840231359" lon="-4.520703032612801">
        <ele>179.41999999999999</ele>
        <time>2025-05-09T17:31:17Z</time>
      </trkpt>
      <trkpt lat="36.832853006199002" lon="-4.52085399068892">
        <ele>178.46000000000001</ele>
        <time>2025-05-09T17:31:18Z</time>
      </trkpt>
      <trkpt lat="36.832930035889149" lon="-4.521020958200097">
        <ele>177.97999999999999</ele>
        <time>2025-05-09T17:31:19Z</time>
      </trkpt>
      <trkpt lat="36.833003964275122" lon="-4.521208964288235">
        <ele>177.5</ele>
        <time>2025-05-09T17:31:20Z</time>
      </trkpt>
      <trkpt lat="36.833776021376252" lon="-4.52280999161303">
        <ele>179.90000000000001</ele>
        <time>2025-05-09T17:31:28Z</time>
      </trkpt>
      <trkpt lat="36.833882974460721" lon="-4.523004032671452">
        <ele>180.87</ele>
        <time>2025-05-09T17:31:29Z</time>
      </trkpt>
      <trkpt lat="36.833998980000615" lon="-4.52315398491919">
        <ele>181.34999999999999</ele>
        <time>2025-05-09T17:31:30Z</time>
      </trkpt>
      <trkpt lat="36.834128983318806" lon="-4.523262027651072">
        <ele>181.83000000000001</ele>
        <time>2025-05-09T17:31:31Z</time>
      </trkpt>
      <trkpt lat="36.834260998293757" lon="-4.523369986563921">
        <ele>182.31</ele>
        <time>2025-05-09T17:31:32Z</time>
      </trkpt>
      <trkpt lat="36.834410028532147" lon="-4.523460008203983">
        <ele>182.78999999999999</ele>
        <time>2025-05-09T17:31:33Z</time>
      </trkpt>
      <trkpt lat="36.834568027406931" lon="-4.52353997156024">
        <ele>183.27000000000001</ele>
        <time>2025-05-09T17:31:34Z</time>
      </trkpt>
      <trkpt lat="36.834728959947824" lon="-4.52362303622067">
        <ele>183.27000000000001</ele>
        <time>2025-05-09T17:31:35Z</time>
      </trkpt>
      <trkpt lat="36.835294989868999" lon="-4.523911038413644">
        <ele>183.75</ele>
        <time>2025-05-09T17:31:39Z</time>
      </trkpt>
      <trkpt lat="36.835399009287357" lon="-4.523964012041688">
        <ele>184.22999999999999</ele>
        <time>2025-05-09T17:31:40Z</time>
      </trkpt>
      <trkpt lat="36.835474027320743" lon="-4.524058979004622">
        <ele>184.71000000000001</ele>
        <time>2025-05-09T17:31:41Z</time>
      </trkpt>
      <trkpt lat="36.835563965141773" lon="-4.524172972887754">
        <ele>185.19</ele>
        <time>2025-05-09T17:31:42Z</time>
      </trkpt>
      <trkpt lat="36.83566203340888" lon="-4.524298030883074">
        <ele>185.66999999999999</ele>
        <time>2025-05-09T17:31:43Z</time>
      </trkpt>
      <trkpt lat="36.835865965113044" lon="-4.524558959528804">
        <ele>186.63</ele>
        <time>2025-05-09T17:31:45Z</time>
      </trkpt>
      <trkpt lat="36.835921034216881" lon="-4.52472098171711">
        <ele>187.11000000000001</ele>
        <time>2025-05-09T17:31:46Z</time>
      </trkpt>
      <trkpt lat="36.835975013673306" lon="-4.524888033047319">
        <ele>187.59</ele>
        <time>2025-05-09T17:31:47Z</time>
      </trkpt>
      <trkpt lat="36.836026981472969" lon="-4.525050977244973">
        <ele>188.08000000000001</ele>
        <time>2025-05-09T17:31:48Z</time>
      </trkpt>
      <trkpt lat="36.836064029484987" lon="-4.525165976956487">
        <ele>188.56</ele>
        <time>2025-05-09T17:31:49Z</time>
      </trkpt>
      <trkpt lat="36.836167965084314" lon="-4.525291034951806">
        <ele>189.03999999999999</ele>
        <time>2025-05-09T17:31:50Z</time>
      </trkpt>
      <trkpt lat="36.836267039179802" lon="-4.525334034115076">
        <ele>189.52000000000001</ele>
        <time>2025-05-09T17:31:51Z</time>
      </trkpt>
      <trkpt lat="36.83637198060751" lon="-4.525378039106727">
        <ele>190.47999999999999</ele>
        <time>2025-05-09T17:31:52Z</time>
      </trkpt>
      <trkpt lat="36.836489997804165" lon="-4.52540896832943">
        <ele>190.96000000000001</ele>
        <time>2025-05-09T17:31:53Z</time>
      </trkpt>
      <trkpt lat="36.836600974202156" lon="-4.525422966107726">
        <ele>191.91999999999999</ele>
        <time>2025-05-09T17:31:54Z</time>
      </trkpt>
      <trkpt lat="36.836709016934037" lon="-4.525391031056643">
        <ele>192.40000000000001</ele>
        <time>2025-05-09T17:31:55Z</time>
      </trkpt>
      <trkpt lat="36.836787974461913" lon="-4.52536697499454">
        <ele>193.36000000000001</ele>
        <time>2025-05-09T17:31:56Z</time>
      </trkpt>
      <trkpt lat="36.836851006373763" lon="-4.525326993316412">
        <ele>193.84</ele>
        <time>2025-05-09T17:31:57Z</time>
      </trkpt>
      <trkpt lat="36.836916971951723" lon="-4.525266978889704">
        <ele>194.31999999999999</ele>
        <time>2025-05-09T17:31:58Z</time>
      </trkpt>
      <trkpt lat="36.836998024955392" lon="-4.52519397251308">
        <ele>194.31999999999999</ele>
        <time>2025-05-09T17:31:59Z</time>
      </trkpt>
      <trkpt lat="36.837582997977734" lon="-4.52474202029407">
        <ele>193.36000000000001</ele>
        <time>2025-05-09T17:32:04Z</time>
      </trkpt>
      <trkpt lat="36.838525962084532" lon="-4.52401296235621">
        <ele>195.28</ele>
        <time>2025-05-09T17:32:11Z</time>
      </trkpt>
      <trkpt lat="36.838623024523258" lon="-4.523915983736515">
        <ele>196.25</ele>
        <time>2025-05-09T17:32:12Z</time>
      </trkpt>
      <trkpt lat="36.83873500674963" lon="-4.523858986794949">
        <ele>196.72999999999999</ele>
        <time>2025-05-09T17:32:13Z</time>
      </trkpt>
      <trkpt lat="36.838856963440776" lon="-4.523826967924833">
        <ele>197.21000000000001</ele>
        <time>2025-05-09T17:32:14Z</time>
      </trkpt>
      <trkpt lat="36.838990990072489" lon="-4.523793021216989">
        <ele>198.16999999999999</ele>
        <time>2025-05-09T17:32:15Z</time>
      </trkpt>
      <trkpt lat="36.839403966441751" lon="-4.523619012907147">
        <ele>199.13</ele>
        <time>2025-05-09T17:32:18Z</time>
      </trkpt>
      <trkpt lat="36.839520977810025" lon="-4.523510970175266">
        <ele>199.13</ele>
        <time>2025-05-09T17:32:19Z</time>
      </trkpt>
      <trkpt lat="36.839978964999318" lon="-4.523006966337562">
        <ele>200.56999999999999</ele>
        <time>2025-05-09T17:32:23Z</time>
      </trkpt>
      <trkpt lat="36.840252969413996" lon="-4.522618968039751">
        <ele>202.49000000000001</ele>
        <time>2025-05-09T17:32:26Z</time>
      </trkpt>
      <trkpt lat="36.840340979397297" lon="-4.522478990256786">
        <ele>202.97999999999999</ele>
        <time>2025-05-09T17:32:27Z</time>
      </trkpt>
      <trkpt lat="36.840422032400966" lon="-4.522350998595357">
        <ele>203.94</ele>
        <time>2025-05-09T17:32:28Z</time>
      </trkpt>
      <trkpt lat="36.840491015464067" lon="-4.522241028025746">
        <ele>204.41999999999999</ele>
        <time>2025-05-09T17:32:29Z</time>
      </trkpt>
      <trkpt lat="36.840576007962227" lon="-4.522171039134264">
        <ele>205.38</ele>
        <time>2025-05-09T17:32:30Z</time>
      </trkpt>
      <trkpt lat="36.84066804125905" lon="-4.522147988900542">
        <ele>205.86000000000001</ele>
        <time>2025-05-09T17:32:31Z</time>
      </trkpt>
      <trkpt lat="36.840763008221984" lon="-4.522124016657472">
        <ele>206.34</ele>
        <time>2025-05-09T17:32:32Z</time>
      </trkpt>
      <trkpt lat="36.840866021811962" lon="-4.52209803275764">
        <ele>206.34</ele>
        <time>2025-05-09T17:32:33Z</time>
      </trkpt>
      <trkpt lat="36.840955037623644" lon="-4.522013040259481">
        <ele>206.81999999999999</ele>
        <time>2025-05-09T17:32:34Z</time>
      </trkpt>
      <trkpt lat="36.841048998758197" lon="-4.521918995305896">
        <ele>207.30000000000001</ele>
        <time>2025-05-09T17:32:35Z</time>
      </trkpt>
      <trkpt lat="36.841139020398259" lon="-4.521811036393046">
        <ele>207.30000000000001</ele>
        <time>2025-05-09T17:32:36Z</time>
      </trkpt>
      <trkpt lat="36.841325014829636" lon="-4.521564021706581">
        <ele>208.25999999999999</ele>
        <time>2025-05-09T17:32:38Z</time>
      </trkpt>
      <trkpt lat="36.841410007327795" lon="-4.521447010338306">
        <ele>208.74000000000001</ele>
        <time>2025-05-09T17:32:39Z</time>
      </trkpt>
      <trkpt lat="36.841457029804587" lon="-4.521321030333638">
        <ele>209.22</ele>
        <time>2025-05-09T17:32:40Z</time>
      </trkpt>
      <trkpt lat="36.841475972905755" lon="-4.521199995651841">
        <ele>209.22</ele>
        <time>2025-05-09T17:32:41Z</time>
      </trkpt>
      <trkpt lat="36.841482007876039" lon="-4.521078038960695">
        <ele>209.22</ele>
        <time>2025-05-09T17:32:42Z</time>
      </trkpt>
      <trkpt lat="36.841488964855671" lon="-4.520954992622137">
        <ele>209.22</ele>
        <time>2025-05-09T17:32:43Z</time>
      </trkpt>
      <trkpt lat="36.841513020917773" lon="-4.520844016224146">
        <ele>209.22</ele>
        <time>2025-05-09T17:32:44Z</time>
      </trkpt>
      <trkpt lat="36.841578986495733" lon="-4.52074502594769">
        <ele>209.22</ele>
        <time>2025-05-09T17:32:45Z</time>
      </trkpt>
      <trkpt lat="36.841652998700738" lon="-4.520633965730667">
        <ele>209.22</ele>
        <time>2025-05-09T17:32:46Z</time>
      </trkpt>
      <trkpt lat="36.841732962056994" lon="-4.52053003013134">
        <ele>208.74000000000001</ele>
        <time>2025-05-09T17:32:47Z</time>
      </trkpt>
      <trkpt lat="36.841837987303734" lon="-4.520436991006136">
        <ele>208.25999999999999</ele>
        <time>2025-05-09T17:32:48Z</time>
      </trkpt>
      <trkpt lat="36.841948041692376" lon="-4.520341018214822">
        <ele>207.78</ele>
        <time>2025-05-09T17:32:49Z</time>
      </trkpt>
      <trkpt lat="36.842059018090367" lon="-4.520243033766747">
        <ele>207.78</ele>
        <time>2025-05-09T17:32:50Z</time>
      </trkpt>
      <trkpt lat="36.842272002249956" lon="-4.52005603350699">
        <ele>207.30000000000001</ele>
        <time>2025-05-09T17:32:52Z</time>
      </trkpt>
      <trkpt lat="36.842729989439249" lon="-4.519683960825205">
        <ele>206.81999999999999</ele>
        <time>2025-05-09T17:32:57Z</time>
      </trkpt>
      <trkpt lat="36.842819005250931" lon="-4.5196289755404">
        <ele>207.30000000000001</ele>
        <time>2025-05-09T17:32:58Z</time>
      </trkpt>
      <trkpt lat="36.842887988314033" lon="-4.51958698220551">
        <ele>207.30000000000001</ele>
        <time>2025-05-09T17:32:59Z</time>
      </trkpt>
      <trkpt lat="36.843000976368785" lon="-4.519539037719369">
        <ele>207.30000000000001</ele>
        <time>2025-05-09T17:33:00Z</time>
      </trkpt>
      <trkpt lat="36.843099966645241" lon="-4.519496960565448">
        <ele>207.30000000000001</ele>
        <time>2025-05-09T17:33:01Z</time>
      </trkpt>
      <trkpt lat="36.843300964683294" lon="-4.519411968067288">
        <ele>207.30000000000001</ele>
        <time>2025-05-09T17:33:03Z</time>
      </trkpt>
      <trkpt lat="36.843445971608162" lon="-4.519351031631231">
        <ele>207.78</ele>
        <time>2025-05-09T17:33:04Z</time>
      </trkpt>
      <trkpt lat="36.843528030440211" lon="-4.519360000267625">
        <ele>208.25999999999999</ele>
        <time>2025-05-09T17:33:05Z</time>
      </trkpt>
      <trkpt lat="36.843648981302977" lon="-4.519377015531063">
        <ele>208.74000000000001</ele>
        <time>2025-05-09T17:33:06Z</time>
      </trkpt>
      <trkpt lat="36.843764986842871" lon="-4.519428983330727">
        <ele>209.22</ele>
        <time>2025-05-09T17:33:07Z</time>
      </trkpt>
      <trkpt lat="36.843888033181429" lon="-4.519483968615532">
        <ele>210.19</ele>
        <time>2025-05-09T17:33:08Z</time>
      </trkpt>
      <trkpt lat="36.844140999019146" lon="-4.519569966942072">
        <ele>211.63</ele>
        <time>2025-05-09T17:33:10Z</time>
      </trkpt>
      <trkpt lat="36.844275025650859" lon="-4.519578013569117">
        <ele>212.11000000000001</ele>
        <time>2025-05-09T17:33:11Z</time>
      </trkpt>
      <trkpt lat="36.845426028594375" lon="-4.519646996632218">
        <ele>218.36000000000001</ele>
        <time>2025-05-09T17:33:19Z</time>
      </trkpt>
      <trkpt lat="36.845484031364322" lon="-4.519651019945741">
        <ele>218.36000000000001</ele>
        <time>2025-05-09T17:33:20Z</time>
      </trkpt>
      <trkpt lat="36.845604982227087" lon="-4.519717991352081">
        <ele>217.88</ele>
        <time>2025-05-09T17:33:21Z</time>
      </trkpt>
      <trkpt lat="36.845676982775331" lon="-4.51975797303021">
        <ele>217.88</ele>
        <time>2025-05-09T17:33:22Z</time>
      </trkpt>
      <trkpt lat="36.845698021352291" lon="-4.519847994670272">
        <ele>217.40000000000001</ele>
        <time>2025-05-09T17:33:23Z</time>
      </trkpt>
      <trkpt lat="36.845724005252123" lon="-4.519958971068263">
        <ele>217.40000000000001</ele>
        <time>2025-05-09T17:33:24Z</time>
      </trkpt>
      <trkpt lat="36.845760969445109" lon="-4.52008000575006">
        <ele>217.40000000000001</ele>
        <time>2025-05-09T17:33:25Z</time>
      </trkpt>
      <trkpt lat="36.845816038548946" lon="-4.520201040431857">
        <ele>216.91</ele>
        <time>2025-05-09T17:33:26Z</time>
      </trkpt>
      <trkpt lat="36.846171012148261" lon="-4.520980976521969">
        <ele>220.28</ele>
        <time>2025-05-09T17:33:32Z</time>
      </trkpt>
      <trkpt lat="36.846171012148261" lon="-4.521116008982062">
        <ele>221.24000000000001</ele>
        <time>2025-05-09T17:33:33Z</time>
      </trkpt>
      <trkpt lat="36.846171012148261" lon="-4.521231008693576">
        <ele>221.72</ele>
        <time>2025-05-09T17:33:34Z</time>
      </trkpt>
      <trkpt lat="36.846171012148261" lon="-4.521346008405089">
        <ele>222.68000000000001</ele>
        <time>2025-05-09T17:33:35Z</time>
      </trkpt>
      <trkpt lat="36.846171012148261" lon="-4.521461008116603">
        <ele>223.16</ele>
        <time>2025-05-09T17:33:36Z</time>
      </trkpt>
      <trkpt lat="36.846198001876473" lon="-4.521553041413426">
        <ele>223.63999999999999</ele>
        <time>2025-05-09T17:33:37Z</time>
      </trkpt>
      <trkpt lat="36.846259022131562" lon="-4.521630993112922">
        <ele>224.12</ele>
        <time>2025-05-09T17:33:38Z</time>
      </trkpt>
      <trkpt lat="36.846337979659438" lon="-4.521717997267842">
        <ele>224.61000000000001</ele>
        <time>2025-05-09T17:33:39Z</time>
      </trkpt>
      <trkpt lat="36.846445016562939" lon="-4.521764013916254">
        <ele>225.09</ele>
        <time>2025-05-09T17:33:40Z</time>
      </trkpt>
      <trkpt lat="36.846580971032381" lon="-4.521768959239125">
        <ele>225.56999999999999</ele>
        <time>2025-05-09T17:33:41Z</time>
      </trkpt>
      <trkpt lat="36.846720026805997" lon="-4.521760996431112">
        <ele>225.56999999999999</ele>
        <time>2025-05-09T17:33:42Z</time>
      </trkpt>
      <trkpt lat="36.846836032345891" lon="-4.52175403945148">
        <ele>226.05000000000001</ele>
        <time>2025-05-09T17:33:43Z</time>
      </trkpt>
      <trkpt lat="36.846968969330192" lon="-4.521667035296559">
        <ele>226.05000000000001</ele>
        <time>2025-05-09T17:33:44Z</time>
      </trkpt>
      <trkpt lat="36.847073994576931" lon="-4.521598974242806">
        <ele>226.53</ele>
        <time>2025-05-09T17:33:45Z</time>
      </trkpt>
      <trkpt lat="36.847172984853387" lon="-4.521534014493227">
        <ele>226.53</ele>
        <time>2025-05-09T17:33:46Z</time>
      </trkpt>
      <trkpt lat="36.84726401232183" lon="-4.521475005894899">
        <ele>226.05000000000001</ele>
        <time>2025-05-09T17:33:47Z</time>
      </trkpt>
      <trkpt lat="36.84735001064837" lon="-4.521436030045152">
        <ele>226.05000000000001</ele>
        <time>2025-05-09T17:33:48Z</time>
      </trkpt>
      <trkpt lat="36.84743600897491" lon="-4.5214559789747">
        <ele>225.56999999999999</ele>
        <time>2025-05-09T17:33:49Z</time>
      </trkpt>
      <trkpt lat="36.847528964281082" lon="-4.52147601172328">
        <ele>225.56999999999999</ele>
        <time>2025-05-09T17:33:50Z</time>
      </trkpt>
      <trkpt lat="36.84762803837657" lon="-4.521497972309589">
        <ele>225.56999999999999</ele>
        <time>2025-05-09T17:33:51Z</time>
      </trkpt>
      <trkpt lat="36.847833981737494" lon="-4.521556980907917">
        <ele>226.05000000000001</ele>
        <time>2025-05-09T17:33:53Z</time>
      </trkpt>
      <trkpt lat="36.84790899977088" lon="-4.521581958979368">
        <ele>226.05000000000001</ele>
        <time>2025-05-09T17:33:54Z</time>
      </trkpt>
      <trkpt lat="36.847993992269039" lon="-4.521667035296559">
        <ele>226.53</ele>
        <time>2025-05-09T17:33:55Z</time>
      </trkpt>
      <trkpt lat="36.848063981160522" lon="-4.521738030016422">
        <ele>226.53</ele>
        <time>2025-05-09T17:33:56Z</time>
      </trkpt>
      <trkpt lat="36.84812399558723" lon="-4.52179703861475">
        <ele>227.00999999999999</ele>
        <time>2025-05-09T17:33:57Z</time>
      </trkpt>
      <trkpt lat="36.848220974206924" lon="-4.521882031112909">
        <ele>227.97</ele>
        <time>2025-05-09T17:33:58Z</time>
      </trkpt>
      <trkpt lat="36.84831602498889" lon="-4.521965011954308">
        <ele>228.93000000000001</ele>
        <time>2025-05-09T17:33:59Z</time>
      </trkpt>
      <trkpt lat="36.848418032750487" lon="-4.52205503359437">
        <ele>229.41</ele>
        <time>2025-05-09T17:34:00Z</time>
      </trkpt>
      <trkpt lat="36.848765965551138" lon="-4.52235896140337">
        <ele>233.25999999999999</ele>
        <time>2025-05-09T17:34:03Z</time>
      </trkpt>
      <trkpt lat="36.848852969706059" lon="-4.522474966943264">
        <ele>234.69999999999999</ele>
        <time>2025-05-09T17:34:04Z</time>
      </trkpt>
      <trkpt lat="36.848920024931431" lon="-4.522600024938583">
        <ele>235.18000000000001</ele>
        <time>2025-05-09T17:34:05Z</time>
      </trkpt>
      <trkpt lat="36.848968975245953" lon="-4.52272298745811">
        <ele>236.13999999999999</ele>
        <time>2025-05-09T17:34:06Z</time>
      </trkpt>
      <trkpt lat="36.849013986065984" lon="-4.522860031574965">
        <ele>236.62</ele>
        <time>2025-05-09T17:34:07Z</time>
      </trkpt>
      <trkpt lat="36.849065031856298" lon="-4.523013001307845">
        <ele>236.62</ele>
        <time>2025-05-09T17:34:08Z</time>
      </trkpt>
      <trkpt lat="36.849244991317391" lon="-4.523562015965581">
        <ele>238.53999999999999</ele>
        <time>2025-05-09T17:34:11Z</time>
      </trkpt>
      <trkpt lat="36.849290002137423" lon="-4.523771982640028">
        <ele>239.50999999999999</ele>
        <time>2025-05-09T17:34:12Z</time>
      </trkpt>
      <trkpt lat="36.849396033212543" lon="-4.524357039481401">
        <ele>241.43000000000001</ele>
        <time>2025-05-09T17:34:15Z</time>
      </trkpt>
      <trkpt lat="36.849458981305361" lon="-4.524513026699424">
        <ele>241.91</ele>
        <time>2025-05-09T17:34:16Z</time>
      </trkpt>
      <trkpt lat="36.849566018208861" lon="-4.524650992825627">
        <ele>242.38999999999999</ele>
        <time>2025-05-09T17:34:17Z</time>
      </trkpt>
      <trkpt lat="36.850311001762748" lon="-4.525633016601205">
        <ele>248.63999999999999</ele>
        <time>2025-05-09T17:34:23Z</time>
      </trkpt>
      <trkpt lat="36.850408986210823" lon="-4.525822028517723">
        <ele>250.08000000000001</ele>
        <time>2025-05-09T17:34:24Z</time>
      </trkpt>
      <trkpt lat="36.850591963157058" lon="-4.526165015995503">
        <ele>252.96000000000001</ele>
        <time>2025-05-09T17:34:26Z</time>
      </trkpt>
      <trkpt lat="36.850683996453881" lon="-4.526302982121706">
        <ele>254.41</ele>
        <time>2025-05-09T17:34:27Z</time>
      </trkpt>
      <trkpt lat="36.850765971466899" lon="-4.526425022631884">
        <ele>255.84999999999999</ele>
        <time>2025-05-09T17:34:28Z</time>
      </trkpt>
      <trkpt lat="36.850830009207129" lon="-4.526530969887972">
        <ele>256.81</ele>
        <time>2025-05-09T17:34:29Z</time>
      </trkpt>
      <trkpt lat="36.850856998935342" lon="-4.526649992913008">
        <ele>258.25</ele>
        <time>2025-05-09T17:34:30Z</time>
      </trkpt>
      <trkpt lat="36.850864961743355" lon="-4.526776978746057">
        <ele>259.20999999999998</ele>
        <time>2025-05-09T17:34:31Z</time>
      </trkpt>
      <trkpt lat="36.850852975621819" lon="-4.526914022862911">
        <ele>259.69</ele>
        <time>2025-05-09T17:34:32Z</time>
      </trkpt>
      <trkpt lat="36.850775023922324" lon="-4.527262039482594">
        <ele>262.57999999999998</ele>
        <time>2025-05-09T17:34:35Z</time>
      </trkpt>
      <trkpt lat="36.850740993395448" lon="-4.527339991182089">
        <ele>263.54000000000002</ele>
        <time>2025-05-09T17:34:36Z</time>
      </trkpt>
      <trkpt lat="36.850692965090275" lon="-4.527400005608797">
        <ele>264.98000000000002</ele>
        <time>2025-05-09T17:34:37Z</time>
      </trkpt>
      <trkpt lat="36.850652983412147" lon="-4.527452979236841">
        <ele>265.94</ele>
        <time>2025-05-09T17:34:38Z</time>
      </trkpt>
      <trkpt lat="36.850619958713651" lon="-4.527494972571731">
        <ele>266.89999999999998</ele>
        <time>2025-05-09T17:34:39Z</time>
      </trkpt>
      <trkpt lat="36.850613001734018" lon="-4.527504025027156">
        <ele>267.38</ele>
        <time>2025-05-09T17:34:40Z</time>
      </trkpt>
      <trkpt lat="36.850603027269244" lon="-4.527551969513297">
        <ele>268.82999999999998</ele>
        <time>2025-05-09T17:34:41Z</time>
      </trkpt>
      <trkpt lat="36.850597998127341" lon="-4.52757996506989">
        <ele>269.31</ele>
        <time>2025-05-09T17:34:42Z</time>
      </trkpt>
      <trkpt lat="36.850656000897288" lon="-4.527611983940005">
        <ele>270.26999999999998</ele>
        <time>2025-05-09T17:34:43Z</time>
      </trkpt>
      <trkpt lat="36.850697994232178" lon="-4.527611983940005">
        <ele>272.19</ele>
        <time>2025-05-09T17:34:44Z</time>
      </trkpt>
      <trkpt lat="36.850768988952041" lon="-4.527531014755368">
        <ele>273.14999999999998</ele>
        <time>2025-05-09T17:34:45Z</time>
      </trkpt>
      <trkpt lat="36.850849036127329" lon="-4.527439987286925">
        <ele>274.11000000000001</ele>
        <time>2025-05-09T17:34:46Z</time>
      </trkpt>
      <trkpt lat="36.850878037512302" lon="-4.527334962040186">
        <ele>274.58999999999997</ele>
        <time>2025-05-09T17:34:47Z</time>
      </trkpt>
      <trkpt lat="36.850921036675572" lon="-4.527181992307305">
        <ele>275.06999999999999</ele>
        <time>2025-05-09T17:34:48Z</time>
      </trkpt>
      <trkpt lat="36.851228987798095" lon="-4.526115981861949">
        <ele>279.88</ele>
        <time>2025-05-09T17:34:54Z</time>
      </trkpt>
      <trkpt lat="36.851296965032816" lon="-4.525958988815546">
        <ele>280.83999999999997</ele>
        <time>2025-05-09T17:34:55Z</time>
      </trkpt>
      <trkpt lat="36.851381035521626" lon="-4.525827979668975">
        <ele>281.80000000000001</ele>
        <time>2025-05-09T17:34:56Z</time>
      </trkpt>
      <trkpt lat="36.851465022191405" lon="-4.525696970522404">
        <ele>283.25</ele>
        <time>2025-05-09T17:34:57Z</time>
      </trkpt>
      <trkpt lat="36.851550014689565" lon="-4.525563027709723">
        <ele>284.69</ele>
        <time>2025-05-09T17:34:58Z</time>
      </trkpt>
      <trkpt lat="36.851938012987375" lon="-4.524918962270021">
        <ele>289.49000000000001</ele>
        <time>2025-05-09T17:35:03Z</time>
      </trkpt>
      <trkpt lat="36.852057036012411" lon="-4.524615034461021">
        <ele>291.42000000000002</ele>
        <time>2025-05-09T17:35:05Z</time>
      </trkpt>
      <trkpt lat="36.852144962176681" lon="-4.524471033364534">
        <ele>292.38</ele>
        <time>2025-05-09T17:35:06Z</time>
      </trkpt>
      <trkpt lat="36.852238001301885" lon="-4.52437698841095">
        <ele>293.81999999999999</ele>
        <time>2025-05-09T17:35:07Z</time>
      </trkpt>
      <trkpt lat="36.852360041812062" lon="-4.524319991469383">
        <ele>294.77999999999997</ele>
        <time>2025-05-09T17:35:08Z</time>
      </trkpt>
      <trkpt lat="36.852481998503208" lon="-4.524304987862706">
        <ele>296.22000000000003</ele>
        <time>2025-05-09T17:35:09Z</time>
      </trkpt>
      <trkpt lat="36.852603033185005" lon="-4.524288978427649">
        <ele>297.18000000000001</ele>
        <time>2025-05-09T17:35:10Z</time>
      </trkpt>
      <trkpt lat="36.852950965985656" lon="-4.524264000356197">
        <ele>299.58999999999997</ele>
        <time>2025-05-09T17:35:13Z</time>
      </trkpt>
      <trkpt lat="36.853040987625718" lon="-4.524212032556534">
        <ele>300.55000000000001</ele>
        <time>2025-05-09T17:35:14Z</time>
      </trkpt>
      <trkpt lat="36.853263024240732" lon="-4.524081023409963">
        <ele>301.99000000000001</ele>
        <time>2025-05-09T17:35:16Z</time>
      </trkpt>
      <trkpt lat="36.853384980931878" lon="-4.524029977619648">
        <ele>302.94999999999999</ele>
        <time>2025-05-09T17:35:17Z</time>
      </trkpt>
      <trkpt lat="36.85388496145606" lon="-4.52386099845171">
        <ele>306.31999999999999</ele>
        <time>2025-05-09T17:35:21Z</time>
      </trkpt>
      <trkpt lat="36.853954028338194" lon="-4.523756979033351">
        <ele>306.80000000000001</ele>
        <time>2025-05-09T17:35:22Z</time>
      </trkpt>
      <trkpt lat="36.85401395894587" lon="-4.523653965443373">
        <ele>307.27999999999997</ele>
        <time>2025-05-09T17:35:23Z</time>
      </trkpt>
      <trkpt lat="36.854059975594282" lon="-4.523525973781943">
        <ele>307.75999999999999</ele>
        <time>2025-05-09T17:35:24Z</time>
      </trkpt>
      <trkpt lat="36.854086965322495" lon="-4.523394964635372">
        <ele>308.24000000000001</ele>
        <time>2025-05-09T17:35:25Z</time>
      </trkpt>
      <trkpt lat="36.854055030271411" lon="-4.523261021822691">
        <ele>309.19999999999999</ele>
        <time>2025-05-09T17:35:26Z</time>
      </trkpt>
      <trkpt lat="36.854022005572915" lon="-4.523138981312513">
        <ele>309.68000000000001</ele>
        <time>2025-05-09T17:35:27Z</time>
      </trkpt>
      <trkpt lat="36.85399099253118" lon="-4.523023981601">
        <ele>310.16000000000003</ele>
        <time>2025-05-09T17:35:28Z</time>
      </trkpt>
      <trkpt lat="36.853960985317826" lon="-4.522917028516531">
        <ele>311.12</ele>
        <time>2025-05-09T17:35:29Z</time>
      </trkpt>
      <trkpt lat="36.854003984481096" lon="-4.522818960249424">
        <ele>312.08999999999997</ele>
        <time>2025-05-09T17:35:30Z</time>
      </trkpt>
      <trkpt lat="36.854056036099792" lon="-4.522709995508194">
        <ele>313.52999999999997</ele>
        <time>2025-05-09T17:35:31Z</time>
      </trkpt>
      <trkpt lat="36.854114038869739" lon="-4.522588960826397">
        <ele>314.97000000000003</ele>
        <time>2025-05-09T17:35:32Z</time>
      </trkpt>
      <trkpt lat="36.854170029982924" lon="-4.522472033277154">
        <ele>316.41000000000003</ele>
        <time>2025-05-09T17:35:33Z</time>
      </trkpt>
      <trkpt lat="36.854281006380916" lon="-4.522409001365304">
        <ele>317.85000000000002</ele>
        <time>2025-05-09T17:35:34Z</time>
      </trkpt>
      <trkpt lat="36.854388965293765" lon="-4.522392991930246">
        <ele>319.77999999999997</ele>
        <time>2025-05-09T17:35:35Z</time>
      </trkpt>
      <trkpt lat="36.85450698249042" lon="-4.522387040778995">
        <ele>321.22000000000003</ele>
        <time>2025-05-09T17:35:36Z</time>
      </trkpt>
      <trkpt lat="36.854628017172217" lon="-4.522381005808711">
        <ele>322.66000000000003</ele>
        <time>2025-05-09T17:35:37Z</time>
      </trkpt>
      <trkpt lat="36.854739999398589" lon="-4.522359967231751">
        <ele>324.10000000000002</ele>
        <time>2025-05-09T17:35:38Z</time>
      </trkpt>
      <trkpt lat="36.854844018816948" lon="-4.522300036624074">
        <ele>325.54000000000002</ele>
        <time>2025-05-09T17:35:39Z</time>
      </trkpt>
      <trkpt lat="36.854943009093404" lon="-4.522209009155631">
        <ele>326.99000000000001</ele>
        <time>2025-05-09T17:35:40Z</time>
      </trkpt>
      <trkpt lat="36.855044011026621" lon="-4.522107001394033">
        <ele>328.43000000000001</ele>
        <time>2025-05-09T17:35:41Z</time>
      </trkpt>
      <trkpt lat="36.855126991868019" lon="-4.521990995854139">
        <ele>329.87</ele>
        <time>2025-05-09T17:35:42Z</time>
      </trkpt>
      <trkpt lat="36.85519496910274" lon="-4.521845988929272">
        <ele>331.31</ele>
        <time>2025-05-09T17:35:43Z</time>
      </trkpt>
      <trkpt lat="36.855266969650984" lon="-4.52169100753963">
        <ele>332.75</ele>
        <time>2025-05-09T17:35:44Z</time>
      </trkpt>
      <trkpt lat="36.855422034859657" lon="-4.521376015618444">
        <ele>335.16000000000003</ele>
        <time>2025-05-09T17:35:46Z</time>
      </trkpt>
      <trkpt lat="36.855605011805892" lon="-4.521138975396752">
        <ele>338.04000000000002</ele>
        <time>2025-05-09T17:35:48Z</time>
      </trkpt>
      <trkpt lat="36.855699978768826" lon="-4.521044008433819">
        <ele>339</ele>
        <time>2025-05-09T17:35:49Z</time>
      </trkpt>
      <trkpt lat="36.855814978480339" lon="-4.521007966250181">
        <ele>340.44</ele>
        <time>2025-05-09T17:35:50Z</time>
      </trkpt>
      <trkpt lat="36.855940036475658" lon="-4.520984999835491">
        <ele>341.41000000000003</ele>
        <time>2025-05-09T17:35:51Z</time>
      </trkpt>
      <trkpt lat="36.856059981510043" lon="-4.520963961258531">
        <ele>342.85000000000002</ele>
        <time>2025-05-09T17:35:52Z</time>
      </trkpt>
      <trkpt lat="36.856158971786499" lon="-4.521009977906942">
        <ele>344.29000000000002</ele>
        <time>2025-05-09T17:35:53Z</time>
      </trkpt>
      <trkpt lat="36.856254022568464" lon="-4.521073009818792">
        <ele>345.25</ele>
        <time>2025-05-09T17:35:54Z</time>
      </trkpt>
      <trkpt lat="36.856348989531398" lon="-4.521136963739991">
        <ele>346.20999999999998</ele>
        <time>2025-05-09T17:35:55Z</time>
      </trkpt>
      <trkpt lat="36.856453008949757" lon="-4.521180968731642">
        <ele>347.64999999999998</ele>
        <time>2025-05-09T17:35:56Z</time>
      </trkpt>
      <trkpt lat="36.856543030589819" lon="-4.521193960681558">
        <ele>348.62</ele>
        <time>2025-05-09T17:35:57Z</time>
      </trkpt>
      <trkpt lat="36.856615031138062" lon="-4.521120032295585">
        <ele>349.57999999999998</ele>
        <time>2025-05-09T17:35:58Z</time>
      </trkpt>
      <trkpt lat="36.856671022251248" lon="-4.52104602009058">
        <ele>350.54000000000002</ele>
        <time>2025-05-09T17:35:59Z</time>
      </trkpt>
      <trkpt lat="36.856733970344067" lon="-4.520963039249182">
        <ele>351.5</ele>
        <time>2025-05-09T17:36:00Z</time>
      </trkpt>
      <trkpt lat="36.8568030372262" lon="-4.520873017609119">
        <ele>352.45999999999998</ele>
        <time>2025-05-09T17:36:01Z</time>
      </trkpt>
      <trkpt lat="36.85689196921885" lon="-4.520819038152695">
        <ele>353.42000000000002</ele>
        <time>2025-05-09T17:36:02Z</time>
      </trkpt>
      <trkpt lat="36.857003029435873" lon="-4.520793976262212">
        <ele>353.89999999999998</ele>
        <time>2025-05-09T17:36:03Z</time>
      </trkpt>
      <trkpt lat="36.857120962813497" lon="-4.52076799236238">
        <ele>354.86000000000001</ele>
        <time>2025-05-09T17:36:04Z</time>
      </trkpt>
      <trkpt lat="36.857247026637197" lon="-4.520721975713968">
        <ele>355.33999999999997</ele>
        <time>2025-05-09T17:36:05Z</time>
      </trkpt>
      <trkpt lat="36.857359008863568" lon="-4.52061896212399">
        <ele>356.79000000000002</ele>
        <time>2025-05-09T17:36:06Z</time>
      </trkpt>
      <trkpt lat="36.85747099108994" lon="-4.520516032353044">
        <ele>357.75</ele>
        <time>2025-05-09T17:36:07Z</time>
      </trkpt>
      <trkpt lat="36.857506027445197" lon="-4.520387034863234">
        <ele>359.19</ele>
        <time>2025-05-09T17:36:08Z</time>
      </trkpt>
      <trkpt lat="36.857519019395113" lon="-4.52029399573803">
        <ele>360.14999999999998</ele>
        <time>2025-05-09T17:36:09Z</time>
      </trkpt>
      <trkpt lat="36.857500998303294" lon="-4.52014496549964">
        <ele>361.58999999999997</ele>
        <time>2025-05-09T17:36:10Z</time>
      </trkpt>
      <trkpt lat="36.857469985261559" lon="-4.52010297216475">
        <ele>362.55000000000001</ele>
        <time>2025-05-09T17:36:11Z</time>
      </trkpt>
      <trkpt lat="36.857398990541697" lon="-4.520003981888294">
        <ele>363.51999999999998</ele>
        <time>2025-05-09T17:36:12Z</time>
      </trkpt>
      <trkpt lat="36.857321038842201" lon="-4.519896022975445">
        <ele>364.48000000000002</ele>
        <time>2025-05-09T17:36:13Z</time>
      </trkpt>
      <trkpt lat="36.856947960332036" lon="-4.519364023581147">
        <ele>369.27999999999997</ele>
        <time>2025-05-09T17:36:18Z</time>
      </trkpt>
      <trkpt lat="36.856920970603824" lon="-4.519351031631231">
        <ele>370.24000000000001</ele>
        <time>2025-05-09T17:36:19Z</time>
      </trkpt>
      <trkpt lat="36.856920970603824" lon="-4.51941397972405">
        <ele>372.17000000000002</ele>
        <time>2025-05-09T17:36:21Z</time>
      </trkpt>
      <trkpt lat="36.856920970603824" lon="-4.519484974443913">
        <ele>373.13</ele>
        <time>2025-05-09T17:36:22Z</time>
      </trkpt>
      <trkpt lat="36.856957012787461" lon="-4.519579019397497">
        <ele>374.08999999999997</ele>
        <time>2025-05-09T17:36:23Z</time>
      </trkpt>
      <trkpt lat="36.857004035264254" lon="-4.519681027159095">
        <ele>374.56999999999999</ele>
        <time>2025-05-09T17:36:24Z</time>
      </trkpt>
      <trkpt lat="36.857178965583444" lon="-4.5200589671731">
        <ele>376.49000000000001</ele>
        <time>2025-05-09T17:36:28Z</time>
      </trkpt>
      <trkpt lat="36.857167985290289" lon="-4.520100960507989">
        <ele>376.97000000000003</ele>
        <time>2025-05-09T17:36:29Z</time>
      </trkpt>
      <trkpt lat="36.857157004997134" lon="-4.52014496549964">
        <ele>377.44999999999999</ele>
        <time>2025-05-09T17:36:30Z</time>
      </trkpt>
      <trkpt lat="36.857157004997134" lon="-4.52014496549964">
        <ele>377.94</ele>
        <time>2025-05-09T17:36:31Z</time>
      </trkpt>
      <trkpt lat="36.857116017490625" lon="-4.52014496549964">
        <ele>378.42000000000002</ele>
        <time>2025-05-09T17:36:32Z</time>
      </trkpt>
      <trkpt lat="36.857067989185452" lon="-4.520111018791795">
        <ele>378.89999999999998</ele>
        <time>2025-05-09T17:36:33Z</time>
      </trkpt>
      <trkpt lat="36.857007974758744" lon="-4.520031977444887">
        <ele>379.38</ele>
        <time>2025-05-09T17:36:34Z</time>
      </trkpt>
      <trkpt lat="36.856709998100996" lon="-4.519583964720368">
        <ele>381.77999999999997</ele>
        <time>2025-05-09T17:36:38Z</time>
      </trkpt>
      <trkpt lat="36.856649983674288" lon="-4.519438035786152">
        <ele>382.25999999999999</ele>
        <time>2025-05-09T17:36:39Z</time>
      </trkpt>
      <trkpt lat="36.856598015874624" lon="-4.519282970577478">
        <ele>382.74000000000001</ele>
        <time>2025-05-09T17:36:40Z</time>
      </trkpt>
      <trkpt lat="36.856497013941407" lon="-4.518805034458637">
        <ele>385.14999999999998</ele>
        <time>2025-05-09T17:36:43Z</time>
      </trkpt>
      <trkpt lat="36.856476981192827" lon="-4.518656004220247">
        <ele>386.11000000000001</ele>
        <time>2025-05-09T17:36:44Z</time>
      </trkpt>
      <trkpt lat="36.856436999514699" lon="-4.518358027562499">
        <ele>388.02999999999997</ele>
        <time>2025-05-09T17:36:46Z</time>
      </trkpt>
      <trkpt lat="36.856377990916371" lon="-4.518030965700746">
        <ele>389.94999999999999</ele>
        <time>2025-05-09T17:36:48Z</time>
      </trkpt>
      <trkpt lat="36.856328034773469" lon="-4.517861986532807">
        <ele>390.43000000000001</ele>
        <time>2025-05-09T17:36:49Z</time>
      </trkpt>
      <trkpt lat="36.856191996484995" lon="-4.517397964373231">
        <ele>391.87</ele>
        <time>2025-05-09T17:36:52Z</time>
      </trkpt>
      <trkpt lat="36.856201970949769" lon="-4.517249017953873">
        <ele>391.87</ele>
        <time>2025-05-09T17:36:53Z</time>
      </trkpt>
      <trkpt lat="36.856211023405194" lon="-4.517123959958553">
        <ele>392.36000000000001</ele>
        <time>2025-05-09T17:36:54Z</time>
      </trkpt>
      <trkpt lat="36.856239018961787" lon="-4.517077021300793">
        <ele>392.36000000000001</ele>
        <time>2025-05-09T17:36:55Z</time>
      </trkpt>
      <trkpt lat="36.856319988146424" lon="-4.517011977732182">
        <ele>392.36000000000001</ele>
        <time>2025-05-09T17:36:56Z</time>
      </trkpt>
      <trkpt lat="36.856409003958106" lon="-4.516992028802633">
        <ele>392.36000000000001</ele>
        <time>2025-05-09T17:36:57Z</time>
      </trkpt>
      <trkpt lat="36.856526015326381" lon="-4.516965039074421">
        <ele>391.87</ele>
        <time>2025-05-09T17:36:58Z</time>
      </trkpt>
      <trkpt lat="36.856791973114014" lon="-4.516904018819332">
        <ele>390.43000000000001</ele>
        <time>2025-05-09T17:37:00Z</time>
      </trkpt>
      <trkpt lat="36.856915019452572" lon="-4.516830006614327">
        <ele>389.94999999999999</ele>
        <time>2025-05-09T17:37:01Z</time>
      </trkpt>
      <trkpt lat="36.857038987800479" lon="-4.516753982752562">
        <ele>388.99000000000001</ele>
        <time>2025-05-09T17:37:02Z</time>
      </trkpt>
      <trkpt lat="36.857286002486944" lon="-4.516604030504823">
        <ele>387.06999999999999</ele>
        <time>2025-05-09T17:37:04Z</time>
      </trkpt>
      <trkpt lat="36.857420029118657" lon="-4.516581986099482">
        <ele>386.58999999999997</ele>
        <time>2025-05-09T17:37:05Z</time>
      </trkpt>
      <trkpt lat="36.857547014951706" lon="-4.516561031341553">
        <ele>385.63</ele>
        <time>2025-05-09T17:37:06Z</time>
      </trkpt>
      <trkpt lat="36.857661008834839" lon="-4.516542004421353">
        <ele>384.18000000000001</ele>
        <time>2025-05-09T17:37:07Z</time>
      </trkpt>
      <trkpt lat="36.857742983847857" lon="-4.516488024964929">
        <ele>383.22000000000003</ele>
        <time>2025-05-09T17:37:08Z</time>
      </trkpt>
      <trkpt lat="36.857807021588087" lon="-4.516441002488136">
        <ele>382.25999999999999</ele>
        <time>2025-05-09T17:37:09Z</time>
      </trkpt>
      <trkpt lat="36.857855971902609" lon="-4.516404960304499">
        <ele>381.77999999999997</ele>
        <time>2025-05-09T17:37:10Z</time>
      </trkpt>
      <trkpt lat="36.857895031571388" lon="-4.516375958919525">
        <ele>380.81999999999999</ele>
        <time>2025-05-09T17:37:11Z</time>
      </trkpt>
      <trkpt lat="36.857922021299601" lon="-4.516356009989977">
        <ele>380.33999999999997</ele>
        <time>2025-05-09T17:37:12Z</time>
      </trkpt>
      <trkpt lat="36.857922021299601" lon="-4.516356009989977">
        <ele>379.86000000000001</ele>
        <time>2025-05-09T17:37:22Z</time>
      </trkpt>
      <trkpt lat="36.857994021847844" lon="-4.516303958371282">
        <ele>378.42000000000002</ele>
        <time>2025-05-09T17:37:43Z</time>
      </trkpt>
      <trkpt lat="36.858068034052849" lon="-4.516291972249746">
        <ele>377.94</ele>
        <time>2025-05-09T17:37:44Z</time>
      </trkpt>
      <trkpt lat="36.858525015413761" lon="-4.516217960044742">
        <ele>376.49000000000001</ele>
        <time>2025-05-09T17:37:48Z</time>
      </trkpt>
      <trkpt lat="36.858677985146642" lon="-4.516186024993658">
        <ele>376.49000000000001</ele>
        <time>2025-05-09T17:37:49Z</time>
      </trkpt>
      <trkpt lat="36.858835984021425" lon="-4.516098015010357">
        <ele>376.97000000000003</ele>
        <time>2025-05-09T17:37:50Z</time>
      </trkpt>
      <trkpt lat="36.859334036707878" lon="-4.515853011980653">
        <ele>377.44999999999999</ele>
        <time>2025-05-09T17:37:53Z</time>
      </trkpt>
      <trkpt lat="36.859501004219055" lon="-4.515814036130905">
        <ele>378.42000000000002</ele>
        <time>2025-05-09T17:37:54Z</time>
      </trkpt>
      <trkpt lat="36.859840974211693" lon="-4.515826022252441">
        <ele>380.33999999999997</ele>
        <time>2025-05-09T17:37:56Z</time>
      </trkpt>
      <trkpt lat="36.860015988349915" lon="-4.515802972018719">
        <ele>381.30000000000001</ele>
        <time>2025-05-09T17:37:57Z</time>
      </trkpt>
      <trkpt lat="36.860701041296124" lon="-4.515698030591011">
        <ele>386.58999999999997</ele>
        <time>2025-05-09T17:38:01Z</time>
      </trkpt>
      <trkpt lat="36.860859962180257" lon="-4.515637010335922">
        <ele>387.55000000000001</ele>
        <time>2025-05-09T17:38:02Z</time>
      </trkpt>
      <trkpt lat="36.861011004075408" lon="-4.515553023666143">
        <ele>388.99000000000001</ele>
        <time>2025-05-09T17:38:03Z</time>
      </trkpt>
      <trkpt lat="36.861576028168201" lon="-4.515188997611404">
        <ele>393.80000000000001</ele>
        <time>2025-05-09T17:38:07Z</time>
      </trkpt>
      <trkpt lat="36.861707037314773" lon="-4.515170976519585">
        <ele>394.75999999999999</ele>
        <time>2025-05-09T17:38:08Z</time>
      </trkpt>
      <trkpt lat="36.861836034804583" lon="-4.515153961256146">
        <ele>396.19999999999999</ele>
        <time>2025-05-09T17:38:09Z</time>
      </trkpt>
      <trkpt lat="36.862070979550481" lon="-4.515123032033444">
        <ele>399.07999999999998</ele>
        <time>2025-05-09T17:38:11Z</time>
      </trkpt>
      <trkpt lat="36.862182961776853" lon="-4.515049019828439">
        <ele>400.05000000000001</ele>
        <time>2025-05-09T17:38:12Z</time>
      </trkpt>
      <trkpt lat="36.862307013943791" lon="-4.514966038987041">
        <ele>400.52999999999997</ele>
        <time>2025-05-09T17:38:13Z</time>
      </trkpt>
      <trkpt lat="36.862701969221234" lon="-4.514584997668862">
        <ele>401.97000000000003</ele>
        <time>2025-05-09T17:38:17Z</time>
      </trkpt>
      <trkpt lat="36.862759971991181" lon="-4.514463040977716">
        <ele>401.97000000000003</ele>
        <time>2025-05-09T17:38:18Z</time>
      </trkpt>
      <trkpt lat="36.862815041095018" lon="-4.514347035437822">
        <ele>401.97000000000003</ele>
        <time>2025-05-09T17:38:19Z</time>
      </trkpt>
      <trkpt lat="36.862932974472642" lon="-4.514253996312618">
        <ele>401.97000000000003</ele>
        <time>2025-05-09T17:38:20Z</time>
      </trkpt>
      <trkpt lat="36.863028025254607" lon="-4.514218959957361">
        <ele>401.49000000000001</ele>
        <time>2025-05-09T17:38:21Z</time>
      </trkpt>
      <trkpt lat="36.863123998045921" lon="-4.514183001592755">
        <ele>400.52999999999997</ele>
        <time>2025-05-09T17:38:22Z</time>
      </trkpt>
      <trkpt lat="36.863222988322377" lon="-4.514146959409118">
        <ele>399.56999999999999</ele>
        <time>2025-05-09T17:38:23Z</time>
      </trkpt>
      <trkpt lat="36.863312004134059" lon="-4.514079988002777">
        <ele>398.12</ele>
        <time>2025-05-09T17:38:24Z</time>
      </trkpt>
      <trkpt lat="36.863418035209179" lon="-4.513982003554702">
        <ele>397.16000000000003</ele>
        <time>2025-05-09T17:38:25Z</time>
      </trkpt>
      <trkpt lat="36.863531023263931" lon="-4.513875972479582">
        <ele>395.72000000000003</ele>
        <time>2025-05-09T17:38:26Z</time>
      </trkpt>
      <trkpt lat="36.863660020753741" lon="-4.513797014951706">
        <ele>394.27999999999997</ele>
        <time>2025-05-09T17:38:27Z</time>
      </trkpt>
      <trkpt lat="36.863782983273268" lon="-4.513729037716985">
        <ele>393.31999999999999</ele>
        <time>2025-05-09T17:38:28Z</time>
      </trkpt>
      <trkpt lat="36.863901000469923" lon="-4.513662988319993">
        <ele>391.87</ele>
        <time>2025-05-09T17:38:29Z</time>
      </trkpt>
      <trkpt lat="36.864011976867914" lon="-4.513582019135356">
        <ele>390.91000000000003</ele>
        <time>2025-05-09T17:38:30Z</time>
      </trkpt>
      <trkpt lat="36.864128988236189" lon="-4.513485040515661">
        <ele>390.43000000000001</ele>
        <time>2025-05-09T17:38:31Z</time>
      </trkpt>
      <trkpt lat="36.86430299654603" lon="-4.513341961428523">
        <ele>388.99000000000001</ele>
        <time>2025-05-09T17:38:33Z</time>
      </trkpt>
      <trkpt lat="36.864423025399446" lon="-4.513369034975767">
        <ele>388.50999999999999</ele>
        <time>2025-05-09T17:38:34Z</time>
      </trkpt>
      <trkpt lat="36.864496031776071" lon="-4.513384960591793">
        <ele>387.55000000000001</ele>
        <time>2025-05-09T17:38:35Z</time>
      </trkpt>
      <trkpt lat="36.864559985697269" lon="-4.513468025252223">
        <ele>386.58999999999997</ele>
        <time>2025-05-09T17:38:36Z</time>
      </trkpt>
      <trkpt lat="36.864651013165712" lon="-4.513583024963737">
        <ele>385.63</ele>
        <time>2025-05-09T17:38:37Z</time>
      </trkpt>
      <trkpt lat="36.864754026755691" lon="-4.513715039938688">
        <ele>384.66000000000003</ele>
        <time>2025-05-09T17:38:38Z</time>
      </trkpt>
      <trkpt lat="36.864865003153682" lon="-4.513858035206795">
        <ele>383.69999999999999</ele>
        <time>2025-05-09T17:38:39Z</time>
      </trkpt>
      <trkpt lat="36.865002969279885" lon="-4.513972029089928">
        <ele>382.25999999999999</ele>
        <time>2025-05-09T17:38:40Z</time>
      </trkpt>
      <trkpt lat="36.865125009790063" lon="-4.514065990224481">
        <ele>381.30000000000001</ele>
        <time>2025-05-09T17:38:41Z</time>
      </trkpt>
      <trkpt lat="36.865245038643479" lon="-4.514135979115963">
        <ele>380.33999999999997</ele>
        <time>2025-05-09T17:38:42Z</time>
      </trkpt>
      <trkpt lat="36.86535500921309" lon="-4.514192976057529">
        <ele>379.38</ele>
        <time>2025-05-09T17:38:43Z</time>
      </trkpt>
      <trkpt lat="36.866448009386659" lon="-4.514822959899902">
        <ele>369.75999999999999</ele>
        <time>2025-05-09T17:38:53Z</time>
      </trkpt>
      <trkpt lat="36.866554040461779" lon="-4.514928990975022">
        <ele>369.27999999999997</ele>
        <time>2025-05-09T17:38:54Z</time>
      </trkpt>
      <trkpt lat="36.86664598993957" lon="-4.515024041756988">
        <ele>368.31999999999999</ele>
        <time>2025-05-09T17:38:55Z</time>
      </trkpt>
      <trkpt lat="36.866715978831053" lon="-4.515143986791372">
        <ele>367.36000000000001</ele>
        <time>2025-05-09T17:38:56Z</time>
      </trkpt>
      <trkpt lat="36.866841036826372" lon="-4.5153549592942">
        <ele>365.44</ele>
        <time>2025-05-09T17:38:58Z</time>
      </trkpt>
      <trkpt lat="36.866907002404332" lon="-4.515425032004714">
        <ele>364.48000000000002</ele>
        <time>2025-05-09T17:38:59Z</time>
      </trkpt>
      <trkpt lat="36.866962993517518" lon="-4.515472976490855">
        <ele>364</ele>
        <time>2025-05-09T17:39:00Z</time>
      </trkpt>
      <trkpt lat="36.867005992680788" lon="-4.515510024502873">
        <ele>363.04000000000002</ele>
        <time>2025-05-09T17:39:01Z</time>
      </trkpt>
      <trkpt lat="36.867094002664089" lon="-4.515456967055798">
        <ele>362.06999999999999</ele>
        <time>2025-05-09T17:39:02Z</time>
      </trkpt>
      <trkpt lat="36.867114035412669" lon="-4.515444980934262">
        <ele>361.11000000000001</ele>
        <time>2025-05-09T17:39:03Z</time>
      </trkpt>
      <trkpt lat="36.867164997383952" lon="-4.515326041728258">
        <ele>360.63</ele>
        <time>2025-05-09T17:39:04Z</time>
      </trkpt>
      <trkpt lat="36.86720497906208" lon="-4.515230990946293">
        <ele>359.67000000000002</ele>
        <time>2025-05-09T17:39:05Z</time>
      </trkpt>
      <trkpt lat="36.867242027074099" lon="-4.515144992619753">
        <ele>358.70999999999998</ele>
        <time>2025-05-09T17:39:06Z</time>
      </trkpt>
      <trkpt lat="36.867260970175266" lon="-4.51503099873662">
        <ele>358.23000000000002</ele>
        <time>2025-05-09T17:39:07Z</time>
      </trkpt>
      <trkpt lat="36.867278991267085" lon="-4.514925973489881">
        <ele>357.26999999999998</ele>
        <time>2025-05-09T17:39:08Z</time>
      </trkpt>
      <trkpt lat="36.867279997095466" lon="-4.514821032062173">
        <ele>356.31</ele>
        <time>2025-05-09T17:39:09Z</time>
      </trkpt>
      <trkpt lat="36.867271028459072" lon="-4.514711983501911">
        <ele>355.33999999999997</ele>
        <time>2025-05-09T17:39:10Z</time>
      </trkpt>
      <trkpt lat="36.867262981832027" lon="-4.514612993225455">
        <ele>354.38</ele>
        <time>2025-05-09T17:39:11Z</time>
      </trkpt>
      <trkpt lat="36.867256024852395" lon="-4.514517020434141">
        <ele>353.42000000000002</ele>
        <time>2025-05-09T17:39:12Z</time>
      </trkpt>
      <trkpt lat="36.86724797822535" lon="-4.514425992965698">
        <ele>352.94</ele>
        <time>2025-05-09T17:39:13Z</time>
      </trkpt>
      <trkpt lat="36.86724797822535" lon="-4.514341000467539">
        <ele>352.45999999999998</ele>
        <time>2025-05-09T17:39:14Z</time>
      </trkpt>
      <trkpt lat="36.867296006530523" lon="-4.514261959120631">
        <ele>351.98000000000002</ele>
        <time>2025-05-09T17:39:15Z</time>
      </trkpt>
      <trkpt lat="36.867346968501806" lon="-4.514175960794091">
        <ele>351.5</ele>
        <time>2025-05-09T17:39:16Z</time>
      </trkpt>
      <trkpt lat="36.867406982928514" lon="-4.514094991609454">
        <ele>351.5</ele>
        <time>2025-05-09T17:39:17Z</time>
      </trkpt>
      <trkpt lat="36.867472026497126" lon="-4.514018967747688">
        <ele>351.01999999999998</ele>
        <time>2025-05-09T17:39:18Z</time>
      </trkpt>
      <trkpt lat="36.86754897236824" lon="-4.513974040746689">
        <ele>350.54000000000002</ele>
        <time>2025-05-09T17:39:19Z</time>
      </trkpt>
      <trkpt lat="36.86763203702867" lon="-4.513953002169728">
        <ele>350.54000000000002</ele>
        <time>2025-05-09T17:39:20Z</time>
      </trkpt>
      <trkpt lat="36.867710994556546" lon="-4.513996001332998">
        <ele>350.54000000000002</ele>
        <time>2025-05-09T17:39:21Z</time>
      </trkpt>
      <trkpt lat="36.867768997326493" lon="-4.514074036851525">
        <ele>351.01999999999998</ele>
        <time>2025-05-09T17:39:22Z</time>
      </trkpt>
      <trkpt lat="36.867833035066724" lon="-4.514159029349685">
        <ele>351.01999999999998</ele>
        <time>2025-05-09T17:39:23Z</time>
      </trkpt>
      <trkpt lat="36.867900006473064" lon="-4.514247961342335">
        <ele>351.5</ele>
        <time>2025-05-09T17:39:24Z</time>
      </trkpt>
      <trkpt lat="36.867971001192927" lon="-4.514348963275552">
        <ele>351.5</ele>
        <time>2025-05-09T17:39:25Z</time>
      </trkpt>
      <trkpt lat="36.868296973407269" lon="-4.514828994870186">
        <ele>353.42000000000002</ele>
        <time>2025-05-09T17:39:29Z</time>
      </trkpt>
      <trkpt lat="36.868370985612273" lon="-4.514896972104907">
        <ele>353.89999999999998</ele>
        <time>2025-05-09T17:39:30Z</time>
      </trkpt>
      <trkpt lat="36.868486991152167" lon="-4.514929996803403">
        <ele>354.38</ele>
        <time>2025-05-09T17:39:31Z</time>
      </trkpt>
      <trkpt lat="36.868550023064017" lon="-4.514912981539965">
        <ele>355.33999999999997</ele>
        <time>2025-05-09T17:39:32Z</time>
      </trkpt>
      <trkpt lat="36.868653036653996" lon="-4.514884985983372">
        <ele>355.82999999999998</ele>
        <time>2025-05-09T17:39:33Z</time>
      </trkpt>
      <trkpt lat="36.868752026930451" lon="-4.514865959063172">
        <ele>356.79000000000002</ele>
        <time>2025-05-09T17:39:34Z</time>
      </trkpt>
      <trkpt lat="36.868849005550146" lon="-4.514865959063172">
        <ele>357.26999999999998</ele>
        <time>2025-05-09T17:39:35Z</time>
      </trkpt>
      <trkpt lat="36.868940033018589" lon="-4.514910969883204">
        <ele>358.23000000000002</ele>
        <time>2025-05-09T17:39:36Z</time>
      </trkpt>
      <trkpt lat="36.869028965011239" lon="-4.515006020665169">
        <ele>358.70999999999998</ele>
        <time>2025-05-09T17:39:37Z</time>
      </trkpt>
      <trkpt lat="36.86909300275147" lon="-4.51513996347785">
        <ele>358.70999999999998</ele>
        <time>2025-05-09T17:39:38Z</time>
      </trkpt>
      <trkpt lat="36.869162991642952" lon="-4.515285976231098">
        <ele>358.70999999999998</ele>
        <time>2025-05-09T17:39:39Z</time>
      </trkpt>
      <trkpt lat="36.869234992191195" lon="-4.515434000641108">
        <ele>358.23000000000002</ele>
        <time>2025-05-09T17:39:40Z</time>
      </trkpt>
      <trkpt lat="36.869301963597536" lon="-4.515573978424072">
        <ele>357.26999999999998</ele>
        <time>2025-05-09T17:39:41Z</time>
      </trkpt>
      <trkpt lat="36.869397014379501" lon="-4.515621000900865">
        <ele>356.79000000000002</ele>
        <time>2025-05-09T17:39:42Z</time>
      </trkpt>
      <trkpt lat="36.86950002796948" lon="-4.515672968700528">
        <ele>356.31</ele>
        <time>2025-05-09T17:39:43Z</time>
      </trkpt>
      <trkpt lat="36.869603963568807" lon="-4.515725020319223">
        <ele>355.33999999999997</ele>
        <time>2025-05-09T17:39:44Z</time>
      </trkpt>
      <trkpt lat="36.86971896328032" lon="-4.515728037804365">
        <ele>354.86000000000001</ele>
        <time>2025-05-09T17:39:45Z</time>
      </trkpt>
      <trkpt lat="36.869816025719047" lon="-4.515702975913882">
        <ele>353.89999999999998</ele>
        <time>2025-05-09T17:39:46Z</time>
      </trkpt>
      <trkpt lat="36.869923984631896" lon="-4.515661988407373">
        <ele>353.42000000000002</ele>
        <time>2025-05-09T17:39:47Z</time>
      </trkpt>
      <trkpt lat="36.870020041242242" lon="-4.515573978424072">
        <ele>352.94</ele>
        <time>2025-05-09T17:39:48Z</time>
      </trkpt>
      <trkpt lat="36.870236964896321" lon="-4.515375997871161">
        <ele>351.5</ele>
        <time>2025-05-09T17:39:50Z</time>
      </trkpt>
      <trkpt lat="36.870448021218181" lon="-4.5152029953897">
        <ele>351.01999999999998</ele>
        <time>2025-05-09T17:39:52Z</time>
      </trkpt>
      <trkpt lat="36.870566038414836" lon="-4.515178017318249">
        <ele>350.54000000000002</ele>
        <time>2025-05-09T17:39:53Z</time>
      </trkpt>
      <trkpt lat="36.870718002319336" lon="-4.515144992619753">
        <ele>350.06</ele>
        <time>2025-05-09T17:39:54Z</time>
      </trkpt>
      <trkpt lat="36.871070964261889" lon="-4.515162007883191">
        <ele>347.64999999999998</ele>
        <time>2025-05-09T17:39:57Z</time>
      </trkpt>
      <trkpt lat="36.871182024478912" lon="-4.515181034803391">
        <ele>347.17000000000002</ele>
        <time>2025-05-09T17:39:58Z</time>
      </trkpt>
      <trkpt lat="36.871275985613465" lon="-4.515221016481519">
        <ele>347.17000000000002</ele>
        <time>2025-05-09T17:39:59Z</time>
      </trkpt>
      <trkpt lat="36.871340023353696" lon="-4.515300979837775">
        <ele>346.69</ele>
        <time>2025-05-09T17:40:00Z</time>
      </trkpt>
      <trkpt lat="36.871361983940005" lon="-4.515400975942612">
        <ele>347.17000000000002</ele>
        <time>2025-05-09T17:40:01Z</time>
      </trkpt>
      <trkpt lat="36.871361983940005" lon="-4.515508012846112">
        <ele>347.64999999999998</ele>
        <time>2025-05-09T17:40:02Z</time>
      </trkpt>
      <trkpt lat="36.871361983940005" lon="-4.515617983415723">
        <ele>347.64999999999998</ele>
        <time>2025-05-09T17:40:03Z</time>
      </trkpt>
      <trkpt lat="36.87137296423316" lon="-4.515714040026069">
        <ele>348.13</ele>
        <time>2025-05-09T17:40:04Z</time>
      </trkpt>
      <trkpt lat="36.871399031952024" lon="-4.515791991725564">
        <ele>348.62</ele>
        <time>2025-05-09T17:40:05Z</time>
      </trkpt>
      <trkpt lat="36.8714589625597" lon="-4.515829961746931">
        <ele>348.62</ele>
        <time>2025-05-09T17:40:06Z</time>
      </trkpt>
      <trkpt lat="36.871576979756355" lon="-4.515873966738582">
        <ele>349.10000000000002</ele>
        <time>2025-05-09T17:40:07Z</time>
      </trkpt>
      <trkpt lat="36.871633976697922" lon="-4.51586902141571">
        <ele>349.10000000000002</ele>
        <time>2025-05-09T17:40:08Z</time>
      </trkpt>
      <trkpt lat="36.871817959472537" lon="-4.515840020030737">
        <ele>349.10000000000002</ele>
        <time>2025-05-09T17:40:10Z</time>
      </trkpt>
      <trkpt lat="36.871919967234135" lon="-4.515788974240422">
        <ele>348.62</ele>
        <time>2025-05-09T17:40:11Z</time>
      </trkpt>
      <trkpt lat="36.871960032731295" lon="-4.515728037804365">
        <ele>348.13</ele>
        <time>2025-05-09T17:40:12Z</time>
      </trkpt>
      <trkpt lat="36.872223978862166" lon="-4.51533199287951">
        <ele>347.17000000000002</ele>
        <time>2025-05-09T17:40:16Z</time>
      </trkpt>
      <trkpt lat="36.872286004945636" lon="-4.515239037573338">
        <ele>347.64999999999998</ele>
        <time>2025-05-09T17:40:17Z</time>
      </trkpt>
      <trkpt lat="36.872353982180357" lon="-4.515196038410068">
        <ele>347.64999999999998</ele>
        <time>2025-05-09T17:40:18Z</time>
      </trkpt>
      <trkpt lat="36.872456995770335" lon="-4.515166031196713">
        <ele>347.64999999999998</ele>
        <time>2025-05-09T17:40:19Z</time>
      </trkpt>
      <trkpt lat="36.872514998540282" lon="-4.515212969854474">
        <ele>347.64999999999998</ele>
        <time>2025-05-09T17:40:20Z</time>
      </trkpt>
      <trkpt lat="36.872586999088526" lon="-4.515297962352634">
        <ele>347.64999999999998</ele>
        <time>2025-05-09T17:40:21Z</time>
      </trkpt>
      <trkpt lat="36.87264097854495" lon="-4.515408016741276">
        <ele>347.64999999999998</ele>
        <time>2025-05-09T17:40:22Z</time>
      </trkpt>
      <trkpt lat="36.872667968273163" lon="-4.515526033937931">
        <ele>347.64999999999998</ele>
        <time>2025-05-09T17:40:23Z</time>
      </trkpt>
      <trkpt lat="36.872686995193362" lon="-4.515628963708878">
        <ele>347.64999999999998</ele>
        <time>2025-05-09T17:40:24Z</time>
      </trkpt>
      <trkpt lat="36.87270300462842" lon="-4.51571898534894">
        <ele>347.17000000000002</ele>
        <time>2025-05-09T17:40:25Z</time>
      </trkpt>
      <trkpt lat="36.872718008235097" lon="-4.515798026695848">
        <ele>346.69</ele>
        <time>2025-05-09T17:40:26Z</time>
      </trkpt>
      <trkpt lat="36.872732006013393" lon="-4.515877990052104">
        <ele>346.69</ele>
        <time>2025-05-09T17:40:27Z</time>
      </trkpt>
      <trkpt lat="36.872785985469818" lon="-4.51595501974225">
        <ele>346.69</ele>
        <time>2025-05-09T17:40:28Z</time>
      </trkpt>
      <trkpt lat="36.872842982411385" lon="-4.516020985320211">
        <ele>346.69</ele>
        <time>2025-05-09T17:40:29Z</time>
      </trkpt>
      <trkpt lat="36.872915988788009" lon="-4.516039006412029">
        <ele>346.69</ele>
        <time>2025-05-09T17:40:30Z</time>
      </trkpt>
      <trkpt lat="36.872996035963297" lon="-4.516027020290494">
        <ele>346.69</ele>
        <time>2025-05-09T17:40:31Z</time>
      </trkpt>
      <trkpt lat="36.873092008754611" lon="-4.516014028340578">
        <ele>347.17000000000002</ele>
        <time>2025-05-09T17:40:32Z</time>
      </trkpt>
      <trkpt lat="36.873203990980983" lon="-4.516022996976972">
        <ele>346.69</ele>
        <time>2025-05-09T17:40:33Z</time>
      </trkpt>
      <trkpt lat="36.873307004570961" lon="-4.516074964776635">
        <ele>347.17000000000002</ele>
        <time>2025-05-09T17:40:34Z</time>
      </trkpt>
      <trkpt lat="36.87341102398932" lon="-4.51612601056695">
        <ele>347.17000000000002</ele>
        <time>2025-05-09T17:40:35Z</time>
      </trkpt>
      <trkpt lat="36.873506996780634" lon="-4.516174960881472">
        <ele>347.17000000000002</ele>
        <time>2025-05-09T17:40:36Z</time>
      </trkpt>
      <trkpt lat="36.873595006763935" lon="-4.516187030822039">
        <ele>347.64999999999998</ele>
        <time>2025-05-09T17:40:37Z</time>
      </trkpt>
      <trkpt lat="36.873682010918856" lon="-4.516164986416698">
        <ele>348.13</ele>
        <time>2025-05-09T17:40:38Z</time>
      </trkpt>
      <trkpt lat="36.873748982325196" lon="-4.516076976433396">
        <ele>348.13</ele>
        <time>2025-05-09T17:40:39Z</time>
      </trkpt>
      <trkpt lat="36.873825006186962" lon="-4.515975974500179">
        <ele>348.62</ele>
        <time>2025-05-09T17:40:40Z</time>
      </trkpt>
      <trkpt lat="36.87390698119998" lon="-4.51586902141571">
        <ele>349.57999999999998</ele>
        <time>2025-05-09T17:40:41Z</time>
      </trkpt>
      <trkpt lat="36.873989962041378" lon="-4.515759972855449">
        <ele>350.06</ele>
        <time>2025-05-09T17:40:42Z</time>
      </trkpt>
      <trkpt lat="36.874076966196299" lon="-4.515652013942599">
        <ele>350.54000000000002</ele>
        <time>2025-05-09T17:40:43Z</time>
      </trkpt>
      <trkpt lat="36.874468987807631" lon="-4.51539795845747">
        <ele>352.94</ele>
        <time>2025-05-09T17:40:47Z</time>
      </trkpt>
      <trkpt lat="36.8745500408113" lon="-4.515388989821076">
        <ele>353.89999999999998</ele>
        <time>2025-05-09T17:40:48Z</time>
      </trkpt>
      <trkpt lat="36.874630004167557" lon="-4.515387983992696">
        <ele>354.38</ele>
        <time>2025-05-09T17:40:49Z</time>
      </trkpt>
      <trkpt lat="36.874677026644349" lon="-4.515447998419404">
        <ele>355.33999999999997</ele>
        <time>2025-05-09T17:40:50Z</time>
      </trkpt>
      <trkpt lat="36.874708039686084" lon="-4.515523016452789">
        <ele>356.31</ele>
        <time>2025-05-09T17:40:51Z</time>
      </trkpt>
      <trkpt lat="36.874703010544181" lon="-4.515627035871148">
        <ele>357.26999999999998</ele>
        <time>2025-05-09T17:40:52Z</time>
      </trkpt>
      <trkpt lat="36.874696975573897" lon="-4.515749998390675">
        <ele>358.23000000000002</ele>
        <time>2025-05-09T17:40:53Z</time>
      </trkpt>
      <trkpt lat="36.874690018594265" lon="-4.515892993658781">
        <ele>359.19</ele>
        <time>2025-05-09T17:40:54Z</time>
      </trkpt>
      <trkpt lat="36.87468197196722" lon="-4.516053004190326">
        <ele>360.14999999999998</ele>
        <time>2025-05-09T17:40:55Z</time>
      </trkpt>
      <trkpt lat="36.874674009159207" lon="-4.516208991408348">
        <ele>360.63</ele>
        <time>2025-05-09T17:40:56Z</time>
      </trkpt>
      <trkpt lat="36.874690018594265" lon="-4.51644703745842">
        <ele>362.06999999999999</ele>
        <time>2025-05-09T17:40:58Z</time>
      </trkpt>
      <trkpt lat="36.874711979180574" lon="-4.516520965844393">
        <ele>363.04000000000002</ele>
        <time>2025-05-09T17:40:59Z</time>
      </trkpt>
      <trkpt lat="36.874751038849354" lon="-4.51657997444272">
        <ele>364.48000000000002</ele>
        <time>2025-05-09T17:41:00Z</time>
      </trkpt>
      <trkpt lat="36.874817004427314" lon="-4.516573017463088">
        <ele>365.92000000000002</ele>
        <time>2025-05-09T17:41:01Z</time>
      </trkpt>
      <trkpt lat="36.874898979440331" lon="-4.516563965007663">
        <ele>366.88</ele>
        <time>2025-05-09T17:41:02Z</time>
      </trkpt>
      <trkpt lat="36.874992018565536" lon="-4.516553990542889">
        <ele>367.83999999999997</ele>
        <time>2025-05-09T17:41:03Z</time>
      </trkpt>
      <trkpt lat="36.875116992741823" lon="-4.516539992764592">
        <ele>368.80000000000001</ele>
        <time>2025-05-09T17:41:04Z</time>
      </trkpt>
      <trkpt lat="36.875669024884701" lon="-4.516305970028043">
        <ele>374.08999999999997</ele>
        <time>2025-05-09T17:41:10Z</time>
      </trkpt>
      <trkpt lat="36.875825012102723" lon="-4.516238998621702">
        <ele>375.52999999999997</ele>
        <time>2025-05-09T17:41:12Z</time>
      </trkpt>
      <trkpt lat="36.87588301487267" lon="-4.51614897698164">
        <ele>376.00999999999999</ele>
        <time>2025-05-09T17:41:13Z</time>
      </trkpt>
      <trkpt lat="36.875939005985856" lon="-4.5160629786551">
        <ele>376.97000000000003</ele>
        <time>2025-05-09T17:41:14Z</time>
      </trkpt>
      <trkpt lat="36.8759919796139" lon="-4.515981003642082">
        <ele>377.94</ele>
        <time>2025-05-09T17:41:15Z</time>
      </trkpt>
      <trkpt lat="36.876060962677002" lon="-4.515913026407361">
        <ele>377.94</ele>
        <time>2025-05-09T17:41:16Z</time>
      </trkpt>
      <trkpt lat="36.876126006245613" lon="-4.515873966738582">
        <ele>378.42000000000002</ele>
        <time>2025-05-09T17:41:17Z</time>
      </trkpt>
      <trkpt lat="36.876214016228914" lon="-4.51591202057898">
        <ele>377.94</ele>
        <time>2025-05-09T17:41:18Z</time>
      </trkpt>
      <trkpt lat="36.876301020383835" lon="-4.515949990600348">
        <ele>377.94</ele>
        <time>2025-05-09T17:41:19Z</time>
      </trkpt>
      <trkpt lat="36.876391964033246" lon="-4.515987960621715">
        <ele>376.97000000000003</ele>
        <time>2025-05-09T17:41:20Z</time>
      </trkpt>
      <trkpt lat="36.876479974016547" lon="-4.516026014462113">
        <ele>376.49000000000001</ele>
        <time>2025-05-09T17:41:21Z</time>
      </trkpt>
      <trkpt lat="36.876563038676977" lon="-4.516061972826719">
        <ele>376.49000000000001</ele>
        <time>2025-05-09T17:41:22Z</time>
      </trkpt>
      <trkpt lat="36.876638978719711" lon="-4.516070019453764">
        <ele>376.00999999999999</ele>
        <time>2025-05-09T17:41:23Z</time>
      </trkpt>
      <trkpt lat="36.876719025895" lon="-4.516073958948255">
        <ele>375.52999999999997</ele>
        <time>2025-05-09T17:41:24Z</time>
      </trkpt>
      <trkpt lat="36.876805024221539" lon="-4.516077982261777">
        <ele>375.05000000000001</ele>
        <time>2025-05-09T17:41:25Z</time>
      </trkpt>
      <trkpt lat="36.876898985356092" lon="-4.51608301140368">
        <ele>375.05000000000001</ele>
        <time>2025-05-09T17:41:26Z</time>
      </trkpt>
      <trkpt lat="36.876991018652916" lon="-4.516087034717202">
        <ele>374.56999999999999</ele>
        <time>2025-05-09T17:41:27Z</time>
      </trkpt>
      <trkpt lat="36.877077016979456" lon="-4.516048980876803">
        <ele>374.08999999999997</ele>
        <time>2025-05-09T17:41:28Z</time>
      </trkpt>
      <trkpt lat="36.87715002335608" lon="-4.515970023348928">
        <ele>373.61000000000001</ele>
        <time>2025-05-09T17:41:29Z</time>
      </trkpt>
      <trkpt lat="36.877204002812505" lon="-4.515851000323892">
        <ele>373.13</ele>
        <time>2025-05-09T17:41:30Z</time>
      </trkpt>
      <trkpt lat="36.877264017239213" lon="-4.515720997005701">
        <ele>372.64999999999998</ele>
        <time>2025-05-09T17:41:31Z</time>
      </trkpt>
      <trkpt lat="36.877328976988792" lon="-4.515582025051117">
        <ele>372.64999999999998</ele>
        <time>2025-05-09T17:41:32Z</time>
      </trkpt>
      <trkpt lat="36.877397038042545" lon="-4.515437018126249">
        <ele>372.17000000000002</ele>
        <time>2025-05-09T17:41:33Z</time>
      </trkpt>
      <trkpt lat="36.877488987520337" lon="-4.515307014808059">
        <ele>371.69</ele>
        <time>2025-05-09T17:41:34Z</time>
      </trkpt>
      <trkpt lat="36.877685040235519" lon="-4.515026975423098">
        <ele>370.73000000000002</ele>
        <time>2025-05-09T17:41:36Z</time>
      </trkpt>
      <trkpt lat="36.877786964178085" lon="-4.514882974326611">
        <ele>370.24000000000001</ele>
        <time>2025-05-09T17:41:37Z</time>
      </trkpt>
      <trkpt lat="36.878002965822816" lon="-4.514590026810765">
        <ele>369.27999999999997</ele>
        <time>2025-05-09T17:41:39Z</time>
      </trkpt>
      <trkpt lat="36.879382962360978" lon="-4.513231990858913">
        <ele>367.36000000000001</ele>
        <time>2025-05-09T17:41:49Z</time>
      </trkpt>
      <trkpt lat="36.880809981375933" lon="-4.512020973488689">
        <ele>374.56999999999999</ele>
        <time>2025-05-09T17:41:58Z</time>
      </trkpt>
      <trkpt lat="36.881154980510473" lon="-4.511802038177848">
        <ele>376.97000000000003</ele>
        <time>2025-05-09T17:42:00Z</time>
      </trkpt>
      <trkpt lat="36.881327982991934" lon="-4.511734982952476">
        <ele>377.94</ele>
        <time>2025-05-09T17:42:01Z</time>
      </trkpt>
      <trkpt lat="36.881507020443678" lon="-4.511698018759489">
        <ele>378.89999999999998</ele>
        <time>2025-05-09T17:42:02Z</time>
      </trkpt>
      <trkpt lat="36.881683962419629" lon="-4.511660970747471">
        <ele>380.33999999999997</ele>
        <time>2025-05-09T17:42:03Z</time>
      </trkpt>
      <trkpt lat="36.88185797072947" lon="-4.511638004332781">
        <ele>381.30000000000001</ele>
        <time>2025-05-09T17:42:04Z</time>
      </trkpt>
      <trkpt lat="36.882570013403893" lon="-4.51157103292644">
        <ele>382.25999999999999</ele>
        <time>2025-05-09T17:42:08Z</time>
      </trkpt>
      <trkpt lat="36.882730023935437" lon="-4.511500038206577">
        <ele>381.77999999999997</ele>
        <time>2025-05-09T17:42:09Z</time>
      </trkpt>
      <trkpt lat="36.883040992543101" lon="-4.511362994089723">
        <ele>380.33999999999997</ele>
        <time>2025-05-09T17:42:11Z</time>
      </trkpt>
      <trkpt lat="36.88318700529635" lon="-4.511362994089723">
        <ele>379.86000000000001</ele>
        <time>2025-05-09T17:42:12Z</time>
      </trkpt>
      <trkpt lat="36.883321031928062" lon="-4.511384032666683">
        <ele>379.38</ele>
        <time>2025-05-09T17:42:13Z</time>
      </trkpt>
      <trkpt lat="36.883438965305686" lon="-4.511455027386546">
        <ele>379.38</ele>
        <time>2025-05-09T17:42:14Z</time>
      </trkpt>
      <trkpt lat="36.883563017472625" lon="-4.511552006006241">
        <ele>378.89999999999998</ele>
        <time>2025-05-09T17:42:15Z</time>
      </trkpt>
      <trkpt lat="36.883694026619196" lon="-4.5116560254246">
        <ele>378.42000000000002</ele>
        <time>2025-05-09T17:42:16Z</time>
      </trkpt>
      <trkpt lat="36.884199036285281" lon="-4.512225994840264">
        <ele>376.49000000000001</ele>
        <time>2025-05-09T17:42:20Z</time>
      </trkpt>
      <trkpt lat="36.884292997419834" lon="-4.512406038120389">
        <ele>376.00999999999999</ele>
        <time>2025-05-09T17:42:21Z</time>
      </trkpt>
      <trkpt lat="36.884367009624839" lon="-4.512607036158443">
        <ele>376.00999999999999</ele>
        <time>2025-05-09T17:42:22Z</time>
      </trkpt>
      <trkpt lat="36.884774034842849" lon="-4.513874966651201">
        <ele>374.08999999999997</ele>
        <time>2025-05-09T17:42:29Z</time>
      </trkpt>
      <trkpt lat="36.884815022349358" lon="-4.514030031859875">
        <ele>373.61000000000001</ele>
        <time>2025-05-09T17:42:31Z</time>
      </trkpt>
      <trkpt lat="36.884922981262207" lon="-4.514221977442503">
        <ele>372.17000000000002</ele>
        <time>2025-05-09T17:42:36Z</time>
      </trkpt>
      <trkpt lat="36.884922981262207" lon="-4.514232035726309">
        <ele>371.69</ele>
        <time>2025-05-09T17:42:37Z</time>
      </trkpt>
      <trkpt lat="36.884909989312291" lon="-4.514568988233805">
        <ele>370.73000000000002</ele>
        <time>2025-05-09T17:42:40Z</time>
      </trkpt>
      <trkpt lat="36.884933039546013" lon="-4.514693962410092">
        <ele>369.75999999999999</ele>
        <time>2025-05-09T17:42:41Z</time>
      </trkpt>
      <trkpt lat="36.884980984032154" lon="-4.514819020405412">
        <ele>369.27999999999997</ele>
        <time>2025-05-09T17:42:42Z</time>
      </trkpt>
      <trkpt lat="36.885035969316959" lon="-4.514910969883204">
        <ele>368.31999999999999</ele>
        <time>2025-05-09T17:42:43Z</time>
      </trkpt>
      <trkpt lat="36.885126996785402" lon="-4.514963021501899">
        <ele>367.36000000000001</ele>
        <time>2025-05-09T17:42:44Z</time>
      </trkpt>
      <trkpt lat="36.885205032303929" lon="-4.514947012066841">
        <ele>366.39999999999998</ele>
        <time>2025-05-09T17:42:45Z</time>
      </trkpt>
      <trkpt lat="36.885288013145328" lon="-4.514929996803403">
        <ele>365.92000000000002</ele>
        <time>2025-05-09T17:42:46Z</time>
      </trkpt>
      <trkpt lat="36.885352972894907" lon="-4.514855984598398">
        <ele>364.95999999999998</ele>
        <time>2025-05-09T17:42:47Z</time>
      </trkpt>
      <trkpt lat="36.885432014241815" lon="-4.514765962958336">
        <ele>364</ele>
        <time>2025-05-09T17:42:48Z</time>
      </trkpt>
      <trkpt lat="36.885521030053496" lon="-4.514664961025119">
        <ele>363.51999999999998</ele>
        <time>2025-05-09T17:42:49Z</time>
      </trkpt>
      <trkpt lat="36.885683974251151" lon="-4.514388022944331">
        <ele>361.11000000000001</ele>
        <time>2025-05-09T17:42:51Z</time>
      </trkpt>
      <trkpt lat="36.885764021426439" lon="-4.514221977442503">
        <ele>360.63</ele>
        <time>2025-05-09T17:42:52Z</time>
      </trkpt>
      <trkpt lat="36.885848008096218" lon="-4.514047969132662">
        <ele>359.67000000000002</ele>
        <time>2025-05-09T17:42:53Z</time>
      </trkpt>
      <trkpt lat="36.886064009740949" lon="-4.513496020808816">
        <ele>356.79000000000002</ele>
        <time>2025-05-09T17:42:56Z</time>
      </trkpt>
      <trkpt lat="36.886135004460812" lon="-4.513370962813497">
        <ele>355.82999999999998</ele>
        <time>2025-05-09T17:42:57Z</time>
      </trkpt>
      <trkpt lat="36.886223014444113" lon="-4.513294016942382">
        <ele>355.33999999999997</ele>
        <time>2025-05-09T17:42:58Z</time>
      </trkpt>
      <trkpt lat="36.886323010548949" lon="-4.51327096670866">
        <ele>354.86000000000001</ele>
        <time>2025-05-09T17:42:59Z</time>
      </trkpt>
      <trkpt lat="36.886408003047109" lon="-4.513320000842214">
        <ele>354.38</ele>
        <time>2025-05-09T17:43:00Z</time>
      </trkpt>
      <trkpt lat="36.886467011645436" lon="-4.513405999168754">
        <ele>354.38</ele>
        <time>2025-05-09T17:43:01Z</time>
      </trkpt>
      <trkpt lat="36.886510010808706" lon="-4.513539019972086">
        <ele>354.38</ele>
        <time>2025-05-09T17:43:02Z</time>
      </trkpt>
      <trkpt lat="36.886557033285499" lon="-4.513686960563064">
        <ele>354.86000000000001</ele>
        <time>2025-05-09T17:43:03Z</time>
      </trkpt>
      <trkpt lat="36.886597014963627" lon="-4.513815036043525">
        <ele>354.86000000000001</ele>
        <time>2025-05-09T17:43:04Z</time>
      </trkpt>
      <trkpt lat="36.886688964441419" lon="-4.513983009383082">
        <ele>355.33999999999997</ele>
        <time>2025-05-09T17:43:05Z</time>
      </trkpt>
      <trkpt lat="36.886787032708526" lon="-4.514115024358034">
        <ele>355.82999999999998</ele>
        <time>2025-05-09T17:43:06Z</time>
      </trkpt>
      <trkpt lat="36.886902032420039" lon="-4.514235975220799">
        <ele>356.31</ele>
        <time>2025-05-09T17:43:07Z</time>
      </trkpt>
      <trkpt lat="36.887010997161269" lon="-4.514350974932313">
        <ele>356.79000000000002</ele>
        <time>2025-05-09T17:43:08Z</time>
      </trkpt>
      <trkpt lat="36.887220963835716" lon="-4.514511991292238">
        <ele>357.75</ele>
        <time>2025-05-09T17:43:10Z</time>
      </trkpt>
      <trkpt lat="36.8873340357095" lon="-4.514552978798747">
        <ele>357.75</ele>
        <time>2025-05-09T17:43:11Z</time>
      </trkpt>
      <trkpt lat="36.887452974915504" lon="-4.51453797519207">
        <ele>358.23000000000002</ele>
        <time>2025-05-09T17:43:12Z</time>
      </trkpt>
      <trkpt lat="36.887578032910824" lon="-4.514501010999084">
        <ele>358.70999999999998</ele>
        <time>2025-05-09T17:43:13Z</time>
      </trkpt>
      <trkpt lat="36.887710969895124" lon="-4.514463962987065">
        <ele>358.23000000000002</ele>
        <time>2025-05-09T17:43:14Z</time>
      </trkpt>
      <trkpt lat="36.887856982648373" lon="-4.514422975480557">
        <ele>358.23000000000002</ele>
        <time>2025-05-09T17:43:15Z</time>
      </trkpt>
      <trkpt lat="36.88802101649344" lon="-4.514434961602092">
        <ele>357.75</ele>
        <time>2025-05-09T17:43:16Z</time>
      </trkpt>
      <trkpt lat="36.888195024803281" lon="-4.514462035149336">
        <ele>357.26999999999998</ele>
        <time>2025-05-09T17:43:17Z</time>
      </trkpt>
      <trkpt lat="36.888372972607613" lon="-4.514529006555677">
        <ele>356.79000000000002</ele>
        <time>2025-05-09T17:43:18Z</time>
      </trkpt>
      <trkpt lat="36.888557961210608" lon="-4.514606958255172">
        <ele>356.79000000000002</ele>
        <time>2025-05-09T17:43:19Z</time>
      </trkpt>
      <trkpt lat="36.888734987005591" lon="-4.514726987108588">
        <ele>356.31</ele>
        <time>2025-05-09T17:43:20Z</time>
      </trkpt>
      <trkpt lat="36.888914024457335" lon="-4.514848021790385">
        <ele>356.31</ele>
        <time>2025-05-09T17:43:21Z</time>
      </trkpt>
      <trkpt lat="36.889089038595557" lon="-4.514966960996389">
        <ele>356.79000000000002</ele>
        <time>2025-05-09T17:43:22Z</time>
      </trkpt>
      <trkpt lat="36.889243014156818" lon="-4.515114985406399">
        <ele>356.79000000000002</ele>
        <time>2025-05-09T17:43:23Z</time>
      </trkpt>
      <trkpt lat="36.889379974454641" lon="-4.515260998159647">
        <ele>356.79000000000002</ele>
        <time>2025-05-09T17:43:24Z</time>
      </trkpt>
      <trkpt lat="36.889663031324744" lon="-4.515498038381338">
        <ele>357.75</ele>
        <time>2025-05-09T17:43:26Z</time>
      </trkpt>
      <trkpt lat="36.889814995229244" lon="-4.515587976202369">
        <ele>358.70999999999998</ele>
        <time>2025-05-09T17:43:27Z</time>
      </trkpt>
      <trkpt lat="36.889981040731072" lon="-4.515641033649445">
        <ele>359.19</ele>
        <time>2025-05-09T17:43:28Z</time>
      </trkpt>
      <trkpt lat="36.890580011531711" lon="-4.515799032524228">
        <ele>362.55000000000001</ele>
        <time>2025-05-09T17:43:32Z</time>
      </trkpt>
      <trkpt lat="36.890714038163424" lon="-4.515808001160622">
        <ele>363.04000000000002</ele>
        <time>2025-05-09T17:43:33Z</time>
      </trkpt>
      <trkpt lat="36.890846975147724" lon="-4.515757039189339">
        <ele>364</ele>
        <time>2025-05-09T17:43:34Z</time>
      </trkpt>
      <trkpt lat="36.890984019264579" lon="-4.515690989792347">
        <ele>364</ele>
        <time>2025-05-09T17:43:35Z</time>
      </trkpt>
      <trkpt lat="36.891126008704305" lon="-4.515622006729245">
        <ele>364</ele>
        <time>2025-05-09T17:43:36Z</time>
      </trkpt>
      <trkpt lat="36.891275960952044" lon="-4.515550006181002">
        <ele>364</ele>
        <time>2025-05-09T17:43:37Z</time>
      </trkpt>
      <trkpt lat="36.891434965655208" lon="-4.515472976490855">
        <ele>363.51999999999998</ele>
        <time>2025-05-09T17:43:38Z</time>
      </trkpt>
      <trkpt lat="36.891606040298939" lon="-4.515461996197701">
        <ele>363.04000000000002</ele>
        <time>2025-05-09T17:43:39Z</time>
      </trkpt>
      <trkpt lat="36.891790023073554" lon="-4.515455961227417">
        <ele>362.06999999999999</ele>
        <time>2025-05-09T17:43:40Z</time>
      </trkpt>
      <trkpt lat="36.891980962827802" lon="-4.515450010076165">
        <ele>361.58999999999997</ele>
        <time>2025-05-09T17:43:41Z</time>
      </trkpt>
      <trkpt lat="36.892172992229462" lon="-4.515454033389688">
        <ele>360.63</ele>
        <time>2025-05-09T17:43:42Z</time>
      </trkpt>
      <trkpt lat="36.892366027459502" lon="-4.515495020896196">
        <ele>360.14999999999998</ele>
        <time>2025-05-09T17:43:43Z</time>
      </trkpt>
      <trkpt lat="36.89255797304213" lon="-4.515536008402705">
        <ele>359.19</ele>
        <time>2025-05-09T17:43:44Z</time>
      </trkpt>
      <trkpt lat="36.892926022410393" lon="-4.515717979520559">
        <ele>358.23000000000002</ele>
        <time>2025-05-09T17:43:46Z</time>
      </trkpt>
      <trkpt lat="36.893098019063473" lon="-4.515846977010369">
        <ele>357.75</ele>
        <time>2025-05-09T17:43:47Z</time>
      </trkpt>
      <trkpt lat="36.893261969089508" lon="-4.515987960621715">
        <ele>357.26999999999998</ele>
        <time>2025-05-09T17:43:48Z</time>
      </trkpt>
      <trkpt lat="36.894842963665724" lon="-4.517885036766529">
        <ele>361.11000000000001</ele>
        <time>2025-05-09T17:43:59Z</time>
      </trkpt>
      <trkpt lat="36.896684970706701" lon="-4.520929008722305">
        <ele>365.92000000000002</ele>
        <time>2025-05-09T17:44:13Z</time>
      </trkpt>
      <trkpt lat="36.898189019411802" lon="-4.523391025140882">
        <ele>372.17000000000002</ele>
        <time>2025-05-09T17:44:25Z</time>
      </trkpt>
      <trkpt lat="36.898621022701263" lon="-4.524067025631666">
        <ele>375.05000000000001</ele>
        <time>2025-05-09T17:44:29Z</time>
      </trkpt>
      <trkpt lat="36.898666033521295" lon="-4.524246985092759">
        <ele>375.52999999999997</ele>
        <time>2025-05-09T17:44:30Z</time>
      </trkpt>
      <trkpt lat="36.898664021864533" lon="-4.5244209934026">
        <ele>375.52999999999997</ele>
        <time>2025-05-09T17:44:31Z</time>
      </trkpt>
      <trkpt lat="36.898640971630812" lon="-4.524601958692074">
        <ele>375.52999999999997</ele>
        <time>2025-05-09T17:44:32Z</time>
      </trkpt>
      <trkpt lat="36.898616999387741" lon="-4.524795999750495">
        <ele>375.52999999999997</ele>
        <time>2025-05-09T17:44:33Z</time>
      </trkpt>
      <trkpt lat="36.898538963869214" lon="-4.525681966915727">
        <ele>375.05000000000001</ele>
        <time>2025-05-09T17:44:37Z</time>
      </trkpt>
      <trkpt lat="36.898553967475891" lon="-4.525915989652276">
        <ele>375.05000000000001</ele>
        <time>2025-05-09T17:44:38Z</time>
      </trkpt>
      <trkpt lat="36.898568971082568" lon="-4.526148000732064">
        <ele>375.05000000000001</ele>
        <time>2025-05-09T17:44:39Z</time>
      </trkpt>
      <trkpt lat="36.898621022701263" lon="-4.52637498266995">
        <ele>375.52999999999997</ele>
        <time>2025-05-09T17:44:40Z</time>
      </trkpt>
      <trkpt lat="36.898677013814449" lon="-4.526598025113344">
        <ele>376.00999999999999</ele>
        <time>2025-05-09T17:44:41Z</time>
      </trkpt>
      <trkpt lat="36.898756977170706" lon="-4.526794999837875">
        <ele>376.49000000000001</ele>
        <time>2025-05-09T17:44:42Z</time>
      </trkpt>
      <trkpt lat="36.898827971890569" lon="-4.526968002319336">
        <ele>376.97000000000003</ele>
        <time>2025-05-09T17:44:43Z</time>
      </trkpt>
      <trkpt lat="36.898926040157676" lon="-4.527065986767411">
        <ele>377.94</ele>
        <time>2025-05-09T17:44:44Z</time>
      </trkpt>
      <trkpt lat="36.899036010727286" lon="-4.52712600119412">
        <ele>378.42000000000002</ele>
        <time>2025-05-09T17:44:45Z</time>
      </trkpt>
      <trkpt lat="36.899150004610419" lon="-4.527159025892615">
        <ele>379.38</ele>
        <time>2025-05-09T17:44:46Z</time>
      </trkpt>
      <trkpt lat="36.89926098100841" lon="-4.52714703977108">
        <ele>380.33999999999997</ele>
        <time>2025-05-09T17:44:47Z</time>
      </trkpt>
      <trkpt lat="36.899376986548305" lon="-4.527132036164403">
        <ele>381.30000000000001</ele>
        <time>2025-05-09T17:44:48Z</time>
      </trkpt>
      <trkpt lat="36.899509001523256" lon="-4.527115020900965">
        <ele>382.25999999999999</ele>
        <time>2025-05-09T17:44:49Z</time>
      </trkpt>
      <trkpt lat="36.900703003630042" lon="-4.526917040348053">
        <ele>388.02999999999997</ele>
        <time>2025-05-09T17:44:56Z</time>
      </trkpt>
      <trkpt lat="36.902186013758183" lon="-4.526592995971441">
        <ele>394.27999999999997</ele>
        <time>2025-05-09T17:45:04Z</time>
      </trkpt>
      <trkpt lat="36.90237301401794" lon="-4.526514960452914">
        <ele>395.24000000000001</ele>
        <time>2025-05-09T17:45:05Z</time>
      </trkpt>
      <trkpt lat="36.90364102832973" lon="-4.525810964405537">
        <ele>401.00999999999999</ele>
        <time>2025-05-09T17:45:12Z</time>
      </trkpt>
      <trkpt lat="36.903828028589487" lon="-4.525744998827577">
        <ele>401.49000000000001</ele>
        <time>2025-05-09T17:45:13Z</time>
      </trkpt>
      <trkpt lat="36.904016034677625" lon="-4.52575002796948">
        <ele>401.97000000000003</ele>
        <time>2025-05-09T17:45:14Z</time>
      </trkpt>
      <trkpt lat="36.90420001745224" lon="-4.525804007425904">
        <ele>402.44999999999999</ele>
        <time>2025-05-09T17:45:15Z</time>
      </trkpt>
      <trkpt lat="36.904363967478275" lon="-4.525852035731077">
        <ele>403.41000000000003</ele>
        <time>2025-05-09T17:45:16Z</time>
      </trkpt>
      <trkpt lat="36.904546022415161" lon="-4.525842983275652">
        <ele>404.37</ele>
        <time>2025-05-09T17:45:17Z</time>
      </trkpt>
      <trkpt lat="36.904707960784435" lon="-4.525834014639258">
        <ele>405.32999999999998</ele>
        <time>2025-05-09T17:45:18Z</time>
      </trkpt>
      <trkpt lat="36.904862020164728" lon="-4.525797972455621">
        <ele>406.29000000000002</ele>
        <time>2025-05-09T17:45:19Z</time>
      </trkpt>
      <trkpt lat="36.905015995725989" lon="-4.525739969685674">
        <ele>407.74000000000001</ele>
        <time>2025-05-09T17:45:20Z</time>
      </trkpt>
      <trkpt lat="36.905169971287251" lon="-4.52564500272274">
        <ele>408.69999999999999</ele>
        <time>2025-05-09T17:45:21Z</time>
      </trkpt>
      <trkpt lat="36.9065420050174" lon="-4.524596007540822">
        <ele>414.47000000000003</ele>
        <time>2025-05-09T17:45:29Z</time>
      </trkpt>
      <trkpt lat="36.907909009605646" lon="-4.523488003760576">
        <ele>417.35000000000002</ele>
        <time>2025-05-09T17:45:37Z</time>
      </trkpt>
      <trkpt lat="36.90806700848043" lon="-4.523405022919178">
        <ele>417.35000000000002</ele>
        <time>2025-05-09T17:45:38Z</time>
      </trkpt>
      <trkpt lat="36.908217966556549" lon="-4.52332598157227">
        <ele>417.35000000000002</ele>
        <time>2025-05-09T17:45:39Z</time>
      </trkpt>
      <trkpt lat="36.908373031765223" lon="-4.523277031257749">
        <ele>417.35000000000002</ele>
        <time>2025-05-09T17:45:40Z</time>
      </trkpt>
      <trkpt lat="36.909922007471323" lon="-4.523009983822703">
        <ele>420.70999999999998</ele>
        <time>2025-05-09T17:45:48Z</time>
      </trkpt>
      <trkpt lat="36.910112025216222" lon="-4.523035967722535">
        <ele>421.19</ele>
        <time>2025-05-09T17:45:49Z</time>
      </trkpt>
      <trkpt lat="36.910307994112372" lon="-4.523063041269779">
        <ele>421.68000000000001</ele>
        <time>2025-05-09T17:45:50Z</time>
      </trkpt>
      <trkpt lat="36.91197901032865" lon="-4.523438969627023">
        <ele>418.31</ele>
        <time>2025-05-09T17:45:59Z</time>
      </trkpt>
      <trkpt lat="36.914184959605336" lon="-4.523574002087116">
        <ele>416.87</ele>
        <time>2025-05-09T17:46:09Z</time>
      </trkpt>
      <trkpt lat="36.91605999134481" lon="-4.523684978485107">
        <ele>422.63999999999999</ele>
        <time>2025-05-09T17:46:18Z</time>
      </trkpt>
      <trkpt lat="36.916230982169509" lon="-4.523661006242037">
        <ele>423.12</ele>
        <time>2025-05-09T17:46:19Z</time>
      </trkpt>
      <trkpt lat="36.916388981044292" lon="-4.52360300347209">
        <ele>423.60000000000002</ele>
        <time>2025-05-09T17:46:20Z</time>
      </trkpt>
      <trkpt lat="36.916819978505373" lon="-4.523485992103815">
        <ele>425.04000000000002</ele>
        <time>2025-05-09T17:46:24Z</time>
      </trkpt>
      <trkpt lat="36.916875969618559" lon="-4.52347400598228">
        <ele>425.04000000000002</ele>
        <time>2025-05-09T17:46:25Z</time>
      </trkpt>
      <trkpt lat="36.916904971003532" lon="-4.523506024852395">
        <ele>425.04000000000002</ele>
        <time>2025-05-09T17:46:26Z</time>
      </trkpt>
      <trkpt lat="36.916922992095351" lon="-4.523570984601975">
        <ele>425.04000000000002</ele>
        <time>2025-05-09T17:46:27Z</time>
      </trkpt>
      <trkpt lat="36.916945958510041" lon="-4.523652959614992">
        <ele>425.04000000000002</ele>
        <time>2025-05-09T17:46:28Z</time>
      </trkpt>
      <trkpt lat="36.916972026228905" lon="-4.523747004568577">
        <ele>425.04000000000002</ele>
        <time>2025-05-09T17:46:29Z</time>
      </trkpt>
      <trkpt lat="36.917005972936749" lon="-4.523864015936852">
        <ele>425.04000000000002</ele>
        <time>2025-05-09T17:46:30Z</time>
      </trkpt>
      <trkpt lat="36.917118038982153" lon="-4.524087980389595">
        <ele>425.04000000000002</ele>
        <time>2025-05-09T17:46:32Z</time>
      </trkpt>
      <trkpt lat="36.91719900816679" lon="-4.524200968444347">
        <ele>425.51999999999998</ele>
        <time>2025-05-09T17:46:33Z</time>
      </trkpt>
      <trkpt lat="36.917287018150091" lon="-4.52431102283299">
        <ele>425.51999999999998</ele>
        <time>2025-05-09T17:46:34Z</time>
      </trkpt>
      <trkpt lat="36.917380979284644" lon="-4.524382017552853">
        <ele>425.51999999999998</ele>
        <time>2025-05-09T17:46:35Z</time>
      </trkpt>
      <trkpt lat="36.917460020631552" lon="-4.524439014494419">
        <ele>426</ele>
        <time>2025-05-09T17:46:36Z</time>
      </trkpt>
      <trkpt lat="36.917538978159428" lon="-4.524478996172547">
        <ele>426</ele>
        <time>2025-05-09T17:46:37Z</time>
      </trkpt>
      <trkpt lat="36.918197963386774" lon="-4.524774039164186">
        <ele>427.44</ele>
        <time>2025-05-09T17:46:47Z</time>
      </trkpt>
      <trkpt lat="36.918278010562062" lon="-4.524795999750495">
        <ele>427.92000000000002</ele>
        <time>2025-05-09T17:46:48Z</time>
      </trkpt>
      <trkpt lat="36.918539023026824" lon="-4.524866994470358">
        <ele>430.81</ele>
        <time>2025-05-09T17:46:51Z</time>
      </trkpt>
      <trkpt lat="36.918611023575068" lon="-4.524886021390557">
        <ele>431.76999999999998</ele>
        <time>2025-05-09T17:46:52Z</time>
      </trkpt>
      <trkpt lat="36.918632984161377" lon="-4.524959027767181">
        <ele>432.73000000000002</ele>
        <time>2025-05-09T17:46:53Z</time>
      </trkpt>
      <trkpt lat="36.918654022738338" lon="-4.525033039972186">
        <ele>433.69</ele>
        <time>2025-05-09T17:46:54Z</time>
      </trkpt>
      <trkpt lat="36.918628960847855" lon="-4.525097999721766">
        <ele>434.64999999999998</ele>
        <time>2025-05-09T17:46:55Z</time>
      </trkpt>
      <trkpt lat="36.918583028018475" lon="-4.525205958634615">
        <ele>435.61000000000001</ele>
        <time>2025-05-09T17:46:56Z</time>
      </trkpt>
      <trkpt lat="36.918533993884921" lon="-4.525334034115076">
        <ele>436.57999999999998</ele>
        <time>2025-05-09T17:46:57Z</time>
      </trkpt>
      <trkpt lat="36.918418994173408" lon="-4.525637961924076">
        <ele>438.5</ele>
        <time>2025-05-09T17:47:00Z</time>
      </trkpt>
      <trkpt lat="36.918449001386762" lon="-4.525757990777493">
        <ele>438.98000000000002</ele>
        <time>2025-05-09T17:47:01Z</time>
      </trkpt>
      <trkpt lat="36.918461993336678" lon="-4.525809036567807">
        <ele>439.94</ele>
        <time>2025-05-09T17:47:02Z</time>
      </trkpt>
      <trkpt lat="36.918514966964722" lon="-4.525801995769143">
        <ele>440.42000000000002</ele>
        <time>2025-05-09T17:47:03Z</time>
      </trkpt>
      <trkpt lat="36.918572969734669" lon="-4.52579403296113">
        <ele>440.89999999999998</ele>
        <time>2025-05-09T17:47:04Z</time>
      </trkpt>
      <trkpt lat="36.918642036616802" lon="-4.525770982727408">
        <ele>441.86000000000001</ele>
        <time>2025-05-09T17:47:05Z</time>
      </trkpt>
      <trkpt lat="36.918726023286581" lon="-4.525723038241267">
        <ele>442.33999999999997</ele>
        <time>2025-05-09T17:47:06Z</time>
      </trkpt>
      <trkpt lat="36.918824007734656" lon="-4.52566796913743">
        <ele>442.81999999999999</ele>
        <time>2025-05-09T17:47:07Z</time>
      </trkpt>
      <trkpt lat="36.919039003551006" lon="-4.525547018274665">
        <ele>444.75</ele>
        <time>2025-05-09T17:47:09Z</time>
      </trkpt>
      <trkpt lat="36.9191550090909" lon="-4.525508964434266">
        <ele>446.19</ele>
        <time>2025-05-09T17:47:10Z</time>
      </trkpt>
      <trkpt lat="36.91928300075233" lon="-4.525508964434266">
        <ele>447.14999999999998</ele>
        <time>2025-05-09T17:47:11Z</time>
      </trkpt>
      <trkpt lat="36.920304000377655" lon="-4.525440987199545">
        <ele>456.27999999999997</ele>
        <time>2025-05-09T17:47:18Z</time>
      </trkpt>
      <trkpt lat="36.920438027009368" lon="-4.525423971936107">
        <ele>457.72000000000003</ele>
        <time>2025-05-09T17:47:19Z</time>
      </trkpt>
      <trkpt lat="36.920559983700514" lon="-4.525475017726421">
        <ele>459.17000000000002</ele>
        <time>2025-05-09T17:47:20Z</time>
      </trkpt>
      <trkpt lat="36.920693004503846" lon="-4.525530003011227">
        <ele>460.61000000000001</ele>
        <time>2025-05-09T17:47:21Z</time>
      </trkpt>
      <trkpt lat="36.920790988951921" lon="-4.525635028257966">
        <ele>462.05000000000001</ele>
        <time>2025-05-09T17:47:22Z</time>
      </trkpt>
      <trkpt lat="36.920896014198661" lon="-4.525749022141099">
        <ele>463.49000000000001</ele>
        <time>2025-05-09T17:47:23Z</time>
      </trkpt>
      <trkpt lat="36.921010008081794" lon="-4.525854969397187">
        <ele>464.44999999999999</ele>
        <time>2025-05-09T17:47:24Z</time>
      </trkpt>
      <trkpt lat="36.921133976429701" lon="-4.525935016572475">
        <ele>465.89999999999998</ele>
        <time>2025-05-09T17:47:25Z</time>
      </trkpt>
      <trkpt lat="36.921273032203317" lon="-4.526024032384157">
        <ele>467.33999999999997</ele>
        <time>2025-05-09T17:47:26Z</time>
      </trkpt>
      <trkpt lat="36.921389037743211" lon="-4.52603098936379">
        <ele>468.30000000000001</ele>
        <time>2025-05-09T17:47:27Z</time>
      </trkpt>
      <trkpt lat="36.92153999581933" lon="-4.526040041819215">
        <ele>469.74000000000001</ele>
        <time>2025-05-09T17:47:28Z</time>
      </trkpt>
      <trkpt lat="36.922856960445642" lon="-4.52609796077013">
        <ele>483.19999999999999</ele>
        <time>2025-05-09T17:47:36Z</time>
      </trkpt>
      <trkpt lat="36.92325996235013" lon="-4.526107013225555">
        <ele>487.05000000000001</ele>
        <time>2025-05-09T17:47:39Z</time>
      </trkpt>
      <trkpt lat="36.923387032002211" lon="-4.526082035154104">
        <ele>488.49000000000001</ele>
        <time>2025-05-09T17:47:40Z</time>
      </trkpt>
      <trkpt lat="36.923516029492021" lon="-4.526021014899015">
        <ele>489.44999999999999</ele>
        <time>2025-05-09T17:47:41Z</time>
      </trkpt>
      <trkpt lat="36.923627005890012" lon="-4.525928981602192">
        <ele>490.41000000000003</ele>
        <time>2025-05-09T17:47:42Z</time>
      </trkpt>
      <trkpt lat="36.923740999773145" lon="-4.525834014639258">
        <ele>491.37</ele>
        <time>2025-05-09T17:47:43Z</time>
      </trkpt>
      <trkpt lat="36.923857005313039" lon="-4.525737036019564">
        <ele>492.32999999999998</ele>
        <time>2025-05-09T17:47:44Z</time>
      </trkpt>
      <trkpt lat="36.924274004995823" lon="-4.525410979986191">
        <ele>496.66000000000003</ele>
        <time>2025-05-09T17:47:48Z</time>
      </trkpt>
      <trkpt lat="36.924367966130376" lon="-4.525382984429598">
        <ele>497.62</ele>
        <time>2025-05-09T17:47:49Z</time>
      </trkpt>
      <trkpt lat="36.924451030790806" lon="-4.525360018014908">
        <ele>498.57999999999998</ele>
        <time>2025-05-09T17:47:50Z</time>
      </trkpt>
      <trkpt lat="36.924539962783456" lon="-4.525410979986191">
        <ele>499.54000000000002</ele>
        <time>2025-05-09T17:47:51Z</time>
      </trkpt>
      <trkpt lat="36.924627972766757" lon="-4.525479963049293">
        <ele>500.5</ele>
        <time>2025-05-09T17:47:52Z</time>
      </trkpt>
      <trkpt lat="36.924715982750058" lon="-4.525586999952793">
        <ele>501.94999999999999</ele>
        <time>2025-05-09T17:47:53Z</time>
      </trkpt>
      <trkpt lat="36.924812039360404" lon="-4.525704011321068">
        <ele>502.91000000000003</ele>
        <time>2025-05-09T17:47:54Z</time>
      </trkpt>
      <trkpt lat="36.924917986616492" lon="-4.525820016860962">
        <ele>504.35000000000002</ele>
        <time>2025-05-09T17:47:55Z</time>
      </trkpt>
      <trkpt lat="36.92504296079278" lon="-4.525891011580825">
        <ele>505.31</ele>
        <time>2025-05-09T17:47:56Z</time>
      </trkpt>
      <trkpt lat="36.925163995474577" lon="-4.525961000472307">
        <ele>506.75</ele>
        <time>2025-05-09T17:47:57Z</time>
      </trkpt>
      <trkpt lat="36.925781993195415" lon="-4.526545973494649">
        <ele>515.39999999999998</ele>
        <time>2025-05-09T17:48:04Z</time>
      </trkpt>
      <trkpt lat="36.925849970430136" lon="-4.52661101706326">
        <ele>516.37</ele>
        <time>2025-05-09T17:48:05Z</time>
      </trkpt>
      <trkpt lat="36.925878971815109" lon="-4.526690980419517">
        <ele>517.33000000000004</ele>
        <time>2025-05-09T17:48:06Z</time>
      </trkpt>
      <trkpt lat="36.925896992906928" lon="-4.526769015938044">
        <ele>517.80999999999995</ele>
        <time>2025-05-09T17:48:07Z</time>
      </trkpt>
      <trkpt lat="36.925907973200083" lon="-4.526817966252565">
        <ele>518.76999999999998</ele>
        <time>2025-05-09T17:48:08Z</time>
      </trkpt>
      <trkpt lat="36.925886012613773" lon="-4.526860965415835">
        <ele>519.25</ele>
        <time>2025-05-09T17:48:09Z</time>
      </trkpt>
      <trkpt lat="36.92581501789391" lon="-4.526900025084615">
        <ele>520.21000000000004</ele>
        <time>2025-05-09T17:48:10Z</time>
      </trkpt>
      <trkpt lat="36.92572801373899" lon="-4.526946963742375">
        <ele>520.69000000000005</ele>
        <time>2025-05-09T17:48:11Z</time>
      </trkpt>
      <trkpt lat="36.925422996282578" lon="-4.527113009244204">
        <ele>522.61000000000001</ele>
        <time>2025-05-09T17:48:14Z</time>
      </trkpt>
      <trkpt lat="36.925357030704618" lon="-4.527209987863898">
        <ele>522.61000000000001</ele>
        <time>2025-05-09T17:48:15Z</time>
      </trkpt>
      <trkpt lat="36.925315037369728" lon="-4.527276959270239">
        <ele>523.09000000000003</ele>
        <time>2025-05-09T17:48:16Z</time>
      </trkpt>
      <trkpt lat="36.925325011834502" lon="-4.527352983132005">
        <ele>523.58000000000004</ele>
        <time>2025-05-09T17:48:17Z</time>
      </trkpt>
      <trkpt lat="36.925349989905953" lon="-4.527439987286925">
        <ele>524.05999999999995</ele>
        <time>2025-05-09T17:48:18Z</time>
      </trkpt>
      <trkpt lat="36.925386032089591" lon="-4.527472006157041">
        <ele>524.53999999999996</ele>
        <time>2025-05-09T17:48:19Z</time>
      </trkpt>
      <trkpt lat="36.925440011546016" lon="-4.527521040290594">
        <ele>524.53999999999996</ele>
        <time>2025-05-09T17:48:20Z</time>
      </trkpt>
      <trkpt lat="36.925888024270535" lon="-4.527981961145997">
        <ele>529.82000000000005</ele>
        <time>2025-05-09T17:48:27Z</time>
      </trkpt>
      <trkpt lat="36.926077036187053" lon="-4.528252026066184">
        <ele>533.19000000000005</ele>
        <time>2025-05-09T17:48:30Z</time>
      </trkpt>
      <trkpt lat="36.926146019250154" lon="-4.528309023007751">
        <ele>534.63</ele>
        <time>2025-05-09T17:48:31Z</time>
      </trkpt>
      <trkpt lat="36.926213996484876" lon="-4.528363002464175">
        <ele>535.59000000000003</ele>
        <time>2025-05-09T17:48:32Z</time>
      </trkpt>
      <trkpt lat="36.926293959841132" lon="-4.528427040204406">
        <ele>537.02999999999997</ele>
        <time>2025-05-09T17:48:33Z</time>
      </trkpt>
      <trkpt lat="36.926359003409743" lon="-4.528411030769348">
        <ele>537.99000000000001</ele>
        <time>2025-05-09T17:48:34Z</time>
      </trkpt>
      <trkpt lat="36.926448019221425" lon="-4.528388986364007">
        <ele>538.96000000000004</ele>
        <time>2025-05-09T17:48:35Z</time>
      </trkpt>
      <trkpt lat="36.927338009700179" lon="-4.528171978890896">
        <ele>547.61000000000001</ele>
        <time>2025-05-09T17:48:44Z</time>
      </trkpt>
      <trkpt lat="36.927431970834732" lon="-4.528184970840812">
        <ele>548.57000000000005</ele>
        <time>2025-05-09T17:48:45Z</time>
      </trkpt>
      <trkpt lat="36.927517969161272" lon="-4.528214978054166">
        <ele>550.00999999999999</ele>
        <time>2025-05-09T17:48:46Z</time>
      </trkpt>
      <trkpt lat="36.927599022164941" lon="-4.528259988874197">
        <ele>550.97000000000003</ele>
        <time>2025-05-09T17:48:47Z</time>
      </trkpt>
      <trkpt lat="36.92768300883472" lon="-4.528306005522609">
        <ele>551.92999999999995</ele>
        <time>2025-05-09T17:48:48Z</time>
      </trkpt>
      <trkpt lat="36.927849976345897" lon="-4.528398038819432">
        <ele>553.86000000000001</ele>
        <time>2025-05-09T17:48:50Z</time>
      </trkpt>
      <trkpt lat="36.927924994379282" lon="-4.528485964983702">
        <ele>554.82000000000005</ele>
        <time>2025-05-09T17:48:51Z</time>
      </trkpt>
      <trkpt lat="36.927967993542552" lon="-4.528599036857486">
        <ele>555.77999999999997</ele>
        <time>2025-05-09T17:48:52Z</time>
      </trkpt>
      <trkpt lat="36.928066983819008" lon="-4.528751000761986">
        <ele>557.70000000000005</ele>
        <time>2025-05-09T17:48:54Z</time>
      </trkpt>
      <trkpt lat="36.928122974932194" lon="-4.528817972168326">
        <ele>558.65999999999997</ele>
        <time>2025-05-09T17:48:55Z</time>
      </trkpt>
      <trkpt lat="36.928177960216999" lon="-4.528882009908557">
        <ele>559.62</ele>
        <time>2025-05-09T17:48:56Z</time>
      </trkpt>
      <trkpt lat="36.928751030936837" lon="-4.52949003316462">
        <ele>572.12</ele>
        <time>2025-05-09T17:49:06Z</time>
      </trkpt>
      <trkpt lat="36.928909029811621" lon="-4.529653983190656">
        <ele>575.49000000000001</ele>
        <time>2025-05-09T17:49:09Z</time>
      </trkpt>
      <trkpt lat="36.928968960419297" lon="-4.529723972082138">
        <ele>576.92999999999995</ele>
        <time>2025-05-09T17:49:10Z</time>
      </trkpt>
      <trkpt lat="36.929069040343165" lon="-4.529845006763935">
        <ele>580.76999999999998</ele>
        <time>2025-05-09T17:49:12Z</time>
      </trkpt>
      <trkpt lat="36.929473970085382" lon="-4.530287990346551">
        <ele>597.60000000000002</ele>
        <time>2025-05-09T17:49:22Z</time>
      </trkpt>
      <trkpt lat="36.929569020867348" lon="-4.530389998108149">
        <ele>601.91999999999996</ele>
        <time>2025-05-09T17:49:25Z</time>
      </trkpt>
      <trkpt lat="36.929601039737463" lon="-4.530417993664742">
        <ele>602.39999999999998</ele>
        <time>2025-05-09T17:49:26Z</time>
      </trkpt>
      <trkpt lat="36.929632974788547" lon="-4.530446995049715">
        <ele>603.36000000000001</ele>
        <time>2025-05-09T17:49:27Z</time>
      </trkpt>
      <trkpt lat="36.929668011143804" lon="-4.530477002263069">
        <ele>604.33000000000004</ele>
        <time>2025-05-09T17:49:28Z</time>
      </trkpt>
      <trkpt lat="36.929702963680029" lon="-4.530508015304804">
        <ele>605.28999999999996</ele>
        <time>2025-05-09T17:49:29Z</time>
      </trkpt>
      <trkpt lat="36.929727019742131" lon="-4.530529975891113">
        <ele>605.76999999999998</ele>
        <time>2025-05-09T17:49:30Z</time>
      </trkpt>
      <trkpt lat="36.929764989763498" lon="-4.530568029731512">
        <ele>606.73000000000002</ele>
        <time>2025-05-09T17:49:31Z</time>
      </trkpt>
      <trkpt lat="36.929798014461994" lon="-4.530499968677759">
        <ele>607.21000000000004</ele>
        <time>2025-05-09T17:49:32Z</time>
      </trkpt>
      <trkpt lat="36.929837996140122" lon="-4.530483037233353">
        <ele>607.69000000000005</ele>
        <time>2025-05-09T17:49:33Z</time>
      </trkpt>
      <trkpt lat="36.929889963939786" lon="-4.530464010313153">
        <ele>608.16999999999996</ele>
        <time>2025-05-09T17:49:34Z</time>
      </trkpt>
      <trkpt lat="36.929933968931437" lon="-4.530455963686109">
        <ele>608.64999999999998</ele>
        <time>2025-05-09T17:49:35Z</time>
      </trkpt>
      <trkpt lat="36.929971016943455" lon="-4.530450012534857">
        <ele>609.13</ele>
        <time>2025-05-09T17:49:36Z</time>
      </trkpt>
      <trkpt lat="36.930061038583517" lon="-4.53043500892818">
        <ele>611.05999999999995</ele>
        <time>2025-05-09T17:49:45Z</time>
      </trkpt>
      <trkpt lat="36.930147036910057" lon="-4.530400978401303">
        <ele>613.94000000000005</ele>
        <time>2025-05-09T17:50:11Z</time>
      </trkpt>
      <trkpt lat="36.93017503246665" lon="-4.530353033915162">
        <ele>614.41999999999996</ele>
        <time>2025-05-09T17:50:12Z</time>
      </trkpt>
      <trkpt lat="36.93022096529603" lon="-4.530272986739874">
        <ele>614.89999999999998</ele>
        <time>2025-05-09T17:50:13Z</time>
      </trkpt>
      <trkpt lat="36.930248960852623" lon="-4.530235016718507">
        <ele>614.89999999999998</ele>
        <time>2025-05-09T17:50:14Z</time>
      </trkpt>
      <trkpt lat="36.930291038006544" lon="-4.53017801977694">
        <ele>615.38</ele>
        <time>2025-05-09T17:50:15Z</time>
      </trkpt>
      <trkpt lat="36.930333031341434" lon="-4.530122028663755">
        <ele>615.86000000000001</ele>
        <time>2025-05-09T17:50:16Z</time>
      </trkpt>
      <trkpt lat="36.930456999689341" lon="-4.529956988990307">
        <ele>615.38</ele>
        <time>2025-05-09T17:50:19Z</time>
      </trkpt>
      <trkpt lat="36.930668978020549" lon="-4.529701005667448">
        <ele>615.38</ele>
        <time>2025-05-09T17:50:24Z</time>
      </trkpt>
      <trkpt lat="36.930705020204186" lon="-4.529660018160939">
        <ele>615.38</ele>
        <time>2025-05-09T17:50:25Z</time>
      </trkpt>
      <trkpt lat="36.930737961083651" lon="-4.52962196432054">
        <ele>615.38</ele>
        <time>2025-05-09T17:50:26Z</time>
      </trkpt>
      <trkpt lat="36.930768974125385" lon="-4.529588017612696">
        <ele>615.38</ele>
        <time>2025-05-09T17:50:27Z</time>
      </trkpt>
      <trkpt lat="36.930768974125385" lon="-4.529588017612696">
        <ele>615.86000000000001</ele>
        <time>2025-05-09T17:50:36Z</time>
      </trkpt>
      <trkpt lat="36.930768974125385" lon="-4.529588017612696">
        <ele>616.34000000000003</ele>
        <time>2025-05-09T17:50:55Z</time>
      </trkpt>
      <trkpt lat="36.930768974125385" lon="-4.529588017612696">
        <ele>616.34000000000003</ele>
        <time>2025-05-09T17:51:33Z</time>
      </trkpt>
    </trkseg>
  </trk>

</gpx>